<?xml version='1.0' encoding='UTF-8'?><gpx version="1.1" creator="JPX - https://github.com/jenetics/jpx" xmlns="http://www.topografix.com/GPX/1/1"><trk><trkseg><trkpt lat="42.0894553" lon="11.7931072"><ele>2.0</ele><time>2026-04-18T08:15:54.122Z</time></trkpt><trkpt lat="42.0894092" lon="11.7930413"><ele>1.9999999999999998</ele><time>2026-04-18T08:28:40.048Z</time></trkpt><trkpt lat="42.0894313" lon="11.7929489"><ele>2.0</ele><time>2026-04-18T08:31:50.043Z</time></trkpt><trkpt lat="42.0894885" lon="11.7929053"><ele>2.0</ele><time>2026-04-18T08:32:00.044Z</time></trkpt><trkpt lat="42.0895468" lon="11.7928685"><ele>1.9999999999999998</ele><time>2026-04-18T08:32:18.053Z</time></trkpt><trkpt lat="42.0895522" lon="11.7929569"><ele>2.0</ele><time>2026-04-18T08:32:23.047Z</time></trkpt><trkpt lat="42.0895137" lon="11.7930871"><ele>2.0</ele><time>2026-04-18T08:33:09.037Z</time></trkpt><trkpt lat="42.0894786" lon="11.7931639"><ele>1.9999999999999998</ele><time>2026-04-18T08:33:10.042Z</time></trkpt><trkpt lat="42.0894426" lon="11.7932441"><ele>2.0</ele><time>2026-04-18T08:33:11.041Z</time></trkpt><trkpt lat="42.0894079" lon="11.7933209"><ele>2.0</ele><time>2026-04-18T08:33:12.044Z</time></trkpt><trkpt lat="42.0893703" lon="11.7933994"><ele>2.0</ele><time>2026-04-18T08:33:13.038Z</time></trkpt><trkpt lat="42.0893274" lon="11.7934847"><ele>1.9999999999999998</ele><time>2026-04-18T08:33:14.043Z</time></trkpt><trkpt lat="42.0892929" lon="11.7935598"><ele>2.0</ele><time>2026-04-18T08:33:15.046Z</time></trkpt><trkpt lat="42.0892255" lon="11.7936994"><ele>2.142857142857143</ele><time>2026-04-18T08:33:17.046Z</time></trkpt><trkpt lat="42.0891877" lon="11.793777"><ele>2.2857142857142856</ele><time>2026-04-18T08:33:18.047Z</time></trkpt><trkpt lat="42.0891467" lon="11.7938603"><ele>2.4285714285714284</ele><time>2026-04-18T08:33:19.038Z</time></trkpt><trkpt lat="42.0891043" lon="11.7939483"><ele>2.571428571428571</ele><time>2026-04-18T08:33:20.046Z</time></trkpt><trkpt lat="42.0890618" lon="11.7940377"><ele>2.7142857142857144</ele><time>2026-04-18T08:33:21.038Z</time></trkpt><trkpt lat="42.0890233" lon="11.7941237"><ele>2.8571428571428568</ele><time>2026-04-18T08:33:22.044Z</time></trkpt><trkpt lat="42.0889878" lon="11.7942092"><ele>3.0</ele><time>2026-04-18T08:33:23.039Z</time></trkpt><trkpt lat="42.0889497" lon="11.794294"><ele>2.6666666666666665</ele><time>2026-04-18T08:33:24.05Z</time></trkpt><trkpt lat="42.0889092" lon="11.7943793"><ele>2.3333333333333335</ele><time>2026-04-18T08:33:25.041Z</time></trkpt><trkpt lat="42.0888676" lon="11.7944683"><ele>2.0</ele><time>2026-04-18T08:33:26.047Z</time></trkpt><trkpt lat="42.0888261" lon="11.7945596"><ele>1.6666666666666665</ele><time>2026-04-18T08:33:27.044Z</time></trkpt><trkpt lat="42.088786" lon="11.7946539"><ele>1.3333333333333333</ele><time>2026-04-18T08:33:28.046Z</time></trkpt><trkpt lat="42.0887429" lon="11.7947491"><ele>1.0</ele><time>2026-04-18T08:33:29.047Z</time></trkpt><trkpt lat="42.088701" lon="11.7948382"><ele>1.0</ele><time>2026-04-18T08:33:30.043Z</time></trkpt><trkpt lat="42.0886596" lon="11.7949227"><ele>0.9999999999999999</ele><time>2026-04-18T08:33:31.059Z</time></trkpt><trkpt lat="42.0886223" lon="11.7950021"><ele>1.0</ele><time>2026-04-18T08:33:32.047Z</time></trkpt><trkpt lat="42.0885867" lon="11.7950821"><ele>1.0</ele><time>2026-04-18T08:33:33.043Z</time></trkpt><trkpt lat="42.0885515" lon="11.7951617"><ele>0.9999999999999999</ele><time>2026-04-18T08:33:34.047Z</time></trkpt><trkpt lat="42.0885256" lon="11.7952473"><ele>1.0</ele><time>2026-04-18T08:33:35.04Z</time></trkpt><trkpt lat="42.0885103" lon="11.7953414"><ele>1.0</ele><time>2026-04-18T08:33:36.045Z</time></trkpt><trkpt lat="42.0884944" lon="11.7954374"><ele>1.4</ele><time>2026-04-18T08:33:37.039Z</time></trkpt><trkpt lat="42.0884771" lon="11.795534"><ele>1.8</ele><time>2026-04-18T08:33:38.046Z</time></trkpt><trkpt lat="42.088459" lon="11.7956272"><ele>2.1999999999999997</ele><time>2026-04-18T08:33:39.037Z</time></trkpt><trkpt lat="42.0884216" lon="11.7957784"><ele>2.6</ele><time>2026-04-18T08:33:41.047Z</time></trkpt><trkpt lat="42.0883818" lon="11.7959165"><ele>3.0</ele><time>2026-04-18T08:33:43.053Z</time></trkpt><trkpt lat="42.0883313" lon="11.7960617"><ele>2.8333333333333335</ele><time>2026-04-18T08:33:45.039Z</time></trkpt><trkpt lat="42.0882851" lon="11.7962042"><ele>2.6666666666666665</ele><time>2026-04-18T08:33:47.04Z</time></trkpt><trkpt lat="42.0882609" lon="11.7962832"><ele>2.5</ele><time>2026-04-18T08:33:48.038Z</time></trkpt><trkpt lat="42.0882362" lon="11.7963671"><ele>2.333333333333333</ele><time>2026-04-18T08:33:49.041Z</time></trkpt><trkpt lat="42.088211" lon="11.7964545"><ele>2.1666666666666665</ele><time>2026-04-18T08:33:50.038Z</time></trkpt><trkpt lat="42.0881876" lon="11.7965356"><ele>2.0</ele><time>2026-04-18T08:33:51.039Z</time></trkpt><trkpt lat="42.0881533" lon="11.7966658"><ele>2.0</ele><time>2026-04-18T08:33:53.035Z</time></trkpt><trkpt lat="42.0881485" lon="11.7967785"><ele>2.0</ele><time>2026-04-18T08:33:55.042Z</time></trkpt><trkpt lat="42.0881528" lon="11.7968935"><ele>2.0</ele><time>2026-04-18T08:33:57.039Z</time></trkpt><trkpt lat="42.0881516" lon="11.7969862"><ele>2.0</ele><time>2026-04-18T08:33:59.037Z</time></trkpt><trkpt lat="42.0881295" lon="11.7971007"><ele>2.0</ele><time>2026-04-18T08:34:01.039Z</time></trkpt><trkpt lat="42.0880685" lon="11.7972512"><ele>2.833333333333333</ele><time>2026-04-18T08:34:03.038Z</time></trkpt><trkpt lat="42.0880324" lon="11.7973312"><ele>3.666666666666667</ele><time>2026-04-18T08:34:04.035Z</time></trkpt><trkpt lat="42.0879915" lon="11.7974185"><ele>4.5</ele><time>2026-04-18T08:34:05.045Z</time></trkpt><trkpt lat="42.0879472" lon="11.7975133"><ele>5.333333333333334</ele><time>2026-04-18T08:34:06.04Z</time></trkpt><trkpt lat="42.0879003" lon="11.797614"><ele>6.166666666666667</ele><time>2026-04-18T08:34:07.043Z</time></trkpt><trkpt lat="42.0878524" lon="11.7977164"><ele>7.0</ele><time>2026-04-18T08:34:08.057Z</time></trkpt><trkpt lat="42.0878071" lon="11.7978152"><ele>7.6</ele><time>2026-04-18T08:34:09.039Z</time></trkpt><trkpt lat="42.0877598" lon="11.7979154"><ele>8.2</ele><time>2026-04-18T08:34:10.033Z</time></trkpt><trkpt lat="42.0877111" lon="11.7980213"><ele>8.8</ele><time>2026-04-18T08:34:11.044Z</time></trkpt><trkpt lat="42.0876629" lon="11.7981322"><ele>9.4</ele><time>2026-04-18T08:34:12.049Z</time></trkpt><trkpt lat="42.0876131" lon="11.798242"><ele>10.0</ele><time>2026-04-18T08:34:13.039Z</time></trkpt><trkpt lat="42.0875627" lon="11.7983523"><ele>10.0</ele><time>2026-04-18T08:34:14.045Z</time></trkpt><trkpt lat="42.0875093" lon="11.7984584"><ele>10.0</ele><time>2026-04-18T08:34:15.039Z</time></trkpt><trkpt lat="42.0874578" lon="11.798565"><ele>10.0</ele><time>2026-04-18T08:34:16.045Z</time></trkpt><trkpt lat="42.0874076" lon="11.7986713"><ele>10.0</ele><time>2026-04-18T08:34:17.037Z</time></trkpt><trkpt lat="42.0873579" lon="11.7987766"><ele>10.0</ele><time>2026-04-18T08:34:18.051Z</time></trkpt><trkpt lat="42.0873084" lon="11.798879"><ele>9.5</ele><time>2026-04-18T08:34:19.056Z</time></trkpt><trkpt lat="42.0872599" lon="11.7989807"><ele>9.0</ele><time>2026-04-18T08:34:20.044Z</time></trkpt><trkpt lat="42.0872121" lon="11.799079"><ele>8.5</ele><time>2026-04-18T08:34:21.037Z</time></trkpt><trkpt lat="42.0871651" lon="11.7991742"><ele>8.0</ele><time>2026-04-18T08:34:22.056Z</time></trkpt><trkpt lat="42.0871208" lon="11.7992695"><ele>7.500000000000001</ele><time>2026-04-18T08:34:23.038Z</time></trkpt><trkpt lat="42.0870766" lon="11.7993628"><ele>7.0</ele><time>2026-04-18T08:34:24.048Z</time></trkpt><trkpt lat="42.0870307" lon="11.7994585"><ele>7.000000000000001</ele><time>2026-04-18T08:34:25.044Z</time></trkpt><trkpt lat="42.0869873" lon="11.7995516"><ele>7.0</ele><time>2026-04-18T08:34:26.039Z</time></trkpt><trkpt lat="42.0869412" lon="11.7996474"><ele>7.0</ele><time>2026-04-18T08:34:27.039Z</time></trkpt><trkpt lat="42.0868936" lon="11.7997464"><ele>7.0</ele><time>2026-04-18T08:34:28.043Z</time></trkpt><trkpt lat="42.0868448" lon="11.7998466"><ele>7.000000000000001</ele><time>2026-04-18T08:34:29.039Z</time></trkpt><trkpt lat="42.0867956" lon="11.7999496"><ele>7.0</ele><time>2026-04-18T08:34:30.044Z</time></trkpt><trkpt lat="42.0867469" lon="11.8000501"><ele>7.000000000000001</ele><time>2026-04-18T08:34:31.037Z</time></trkpt><trkpt lat="42.086701" lon="11.80015"><ele>7.0</ele><time>2026-04-18T08:34:32.038Z</time></trkpt><trkpt lat="42.0866559" lon="11.8002504"><ele>7.0</ele><time>2026-04-18T08:34:33.037Z</time></trkpt><trkpt lat="42.0866161" lon="11.8003361"><ele>7.0</ele><time>2026-04-18T08:34:34.044Z</time></trkpt><trkpt lat="42.0865601" lon="11.8004524"><ele>7.000000000000001</ele><time>2026-04-18T08:34:36.04Z</time></trkpt><trkpt lat="42.086511" lon="11.8005381"><ele>7.0</ele><time>2026-04-18T08:34:38.04Z</time></trkpt><trkpt lat="42.0864689" lon="11.8006126"><ele>7.000000000000001</ele><time>2026-04-18T08:34:40.042Z</time></trkpt><trkpt lat="42.0864175" lon="11.8007121"><ele>7.0</ele><time>2026-04-18T08:34:43.045Z</time></trkpt><trkpt lat="42.0863794" lon="11.800795"><ele>7.0</ele><time>2026-04-18T08:34:45.05Z</time></trkpt><trkpt lat="42.0863373" lon="11.8008929"><ele>7.0</ele><time>2026-04-18T08:34:47.039Z</time></trkpt><trkpt lat="42.0862866" lon="11.8010036"><ele>7.000000000000001</ele><time>2026-04-18T08:34:49.037Z</time></trkpt><trkpt lat="42.0862338" lon="11.8011221"><ele>7.0</ele><time>2026-04-18T08:34:51.05Z</time></trkpt><trkpt lat="42.086182" lon="11.8012397"><ele>7.833333333333334</ele><time>2026-04-18T08:34:53.04Z</time></trkpt><trkpt lat="42.0861106" lon="11.8013756"><ele>8.666666666666668</ele><time>2026-04-18T08:34:55.036Z</time></trkpt><trkpt lat="42.0860665" lon="11.8014504"><ele>9.5</ele><time>2026-04-18T08:34:56.04Z</time></trkpt><trkpt lat="42.0860147" lon="11.8015276"><ele>10.333333333333334</ele><time>2026-04-18T08:34:57.043Z</time></trkpt><trkpt lat="42.0859618" lon="11.8016029"><ele>11.166666666666666</ele><time>2026-04-18T08:34:58.039Z</time></trkpt><trkpt lat="42.0859059" lon="11.8016822"><ele>12.0</ele><time>2026-04-18T08:34:59.047Z</time></trkpt><trkpt lat="42.0858458" lon="11.8017675"><ele>12.0</ele><time>2026-04-18T08:35:00.044Z</time></trkpt><trkpt lat="42.0857831" lon="11.8018566"><ele>12.0</ele><time>2026-04-18T08:35:01.041Z</time></trkpt><trkpt lat="42.0857172" lon="11.8019502"><ele>12.0</ele><time>2026-04-18T08:35:02.04Z</time></trkpt><trkpt lat="42.0856499" lon="11.8020439"><ele>12.0</ele><time>2026-04-18T08:35:03.042Z</time></trkpt><trkpt lat="42.0855842" lon="11.8021357"><ele>12.0</ele><time>2026-04-18T08:35:04.045Z</time></trkpt><trkpt lat="42.0855193" lon="11.8022264"><ele>12.0</ele><time>2026-04-18T08:35:05.043Z</time></trkpt><trkpt lat="42.0854541" lon="11.8023173"><ele>12.0</ele><time>2026-04-18T08:35:06.044Z</time></trkpt><trkpt lat="42.08539" lon="11.8024072"><ele>12.0</ele><time>2026-04-18T08:35:07.05Z</time></trkpt><trkpt lat="42.0853266" lon="11.8024967"><ele>12.0</ele><time>2026-04-18T08:35:08.05Z</time></trkpt><trkpt lat="42.0852618" lon="11.8025826"><ele>12.0</ele><time>2026-04-18T08:35:09.048Z</time></trkpt><trkpt lat="42.0851978" lon="11.8026679"><ele>12.0</ele><time>2026-04-18T08:35:10.037Z</time></trkpt><trkpt lat="42.0851351" lon="11.8027528"><ele>12.0</ele><time>2026-04-18T08:35:11.046Z</time></trkpt><trkpt lat="42.0850753" lon="11.802837"><ele>12.0</ele><time>2026-04-18T08:35:12.036Z</time></trkpt><trkpt lat="42.0850199" lon="11.8029151"><ele>12.0</ele><time>2026-04-18T08:35:13.037Z</time></trkpt><trkpt lat="42.0849671" lon="11.8029901"><ele>12.0</ele><time>2026-04-18T08:35:14.042Z</time></trkpt><trkpt lat="42.0849199" lon="11.8030563"><ele>12.0</ele><time>2026-04-18T08:35:15.038Z</time></trkpt><trkpt lat="42.0848486" lon="11.8031601"><ele>12.166666666666666</ele><time>2026-04-18T08:35:17.042Z</time></trkpt><trkpt lat="42.0847843" lon="11.8032468"><ele>12.333333333333332</ele><time>2026-04-18T08:35:19.041Z</time></trkpt><trkpt lat="42.0847139" lon="11.8033371"><ele>12.5</ele><time>2026-04-18T08:35:21.047Z</time></trkpt><trkpt lat="42.0846328" lon="11.8034386"><ele>12.666666666666666</ele><time>2026-04-18T08:35:23.039Z</time></trkpt><trkpt lat="42.0845892" lon="11.8035041"><ele>12.833333333333332</ele><time>2026-04-18T08:35:24.031Z</time></trkpt><trkpt lat="42.0845415" lon="11.8035841"><ele>13.0</ele><time>2026-04-18T08:35:25.037Z</time></trkpt><trkpt lat="42.0844883" lon="11.8036674"><ele>13.166666666666666</ele><time>2026-04-18T08:35:26.047Z</time></trkpt><trkpt lat="42.0844325" lon="11.8037489"><ele>13.333333333333332</ele><time>2026-04-18T08:35:27.038Z</time></trkpt><trkpt lat="42.0843736" lon="11.8038309"><ele>13.5</ele><time>2026-04-18T08:35:28.041Z</time></trkpt><trkpt lat="42.0843125" lon="11.8039157"><ele>13.666666666666668</ele><time>2026-04-18T08:35:29.049Z</time></trkpt><trkpt lat="42.0842498" lon="11.8040024"><ele>13.833333333333334</ele><time>2026-04-18T08:35:30.051Z</time></trkpt><trkpt lat="42.0841836" lon="11.8040896"><ele>14.0</ele><time>2026-04-18T08:35:31.045Z</time></trkpt><trkpt lat="42.0841158" lon="11.8041767"><ele>14.000000000000002</ele><time>2026-04-18T08:35:32.046Z</time></trkpt><trkpt lat="42.0840484" lon="11.8042639"><ele>14.0</ele><time>2026-04-18T08:35:33.042Z</time></trkpt><trkpt lat="42.0839828" lon="11.8043497"><ele>14.0</ele><time>2026-04-18T08:35:34.045Z</time></trkpt><trkpt lat="42.0839214" lon="11.8044315"><ele>14.0</ele><time>2026-04-18T08:35:35.051Z</time></trkpt><trkpt lat="42.0838653" lon="11.8045072"><ele>14.000000000000002</ele><time>2026-04-18T08:35:36.043Z</time></trkpt><trkpt lat="42.0838111" lon="11.8045783"><ele>14.0</ele><time>2026-04-18T08:35:37.038Z</time></trkpt><trkpt lat="42.0837553" lon="11.8046488"><ele>13.666666666666668</ele><time>2026-04-18T08:35:38.051Z</time></trkpt><trkpt lat="42.0836988" lon="11.8047203"><ele>13.333333333333334</ele><time>2026-04-18T08:35:39.036Z</time></trkpt><trkpt lat="42.0836388" lon="11.804794"><ele>13.0</ele><time>2026-04-18T08:35:40.042Z</time></trkpt><trkpt lat="42.0835786" lon="11.8048748"><ele>12.666666666666668</ele><time>2026-04-18T08:35:41.039Z</time></trkpt><trkpt lat="42.0835156" lon="11.8049597"><ele>12.333333333333334</ele><time>2026-04-18T08:35:42.041Z</time></trkpt><trkpt lat="42.0834514" lon="11.8050424"><ele>12.0</ele><time>2026-04-18T08:35:43.037Z</time></trkpt><trkpt lat="42.0833888" lon="11.8051234"><ele>12.0</ele><time>2026-04-18T08:35:44.039Z</time></trkpt><trkpt lat="42.0833322" lon="11.8052031"><ele>12.0</ele><time>2026-04-18T08:35:45.042Z</time></trkpt><trkpt lat="42.0832719" lon="11.8052802"><ele>12.0</ele><time>2026-04-18T08:35:46.036Z</time></trkpt><trkpt lat="42.083208" lon="11.8053651"><ele>12.0</ele><time>2026-04-18T08:35:47.043Z</time></trkpt><trkpt lat="42.0831442" lon="11.8054532"><ele>12.0</ele><time>2026-04-18T08:35:48.038Z</time></trkpt><trkpt lat="42.0830769" lon="11.8055404"><ele>12.0</ele><time>2026-04-18T08:35:49.041Z</time></trkpt><trkpt lat="42.0830102" lon="11.8056244"><ele>11.8</ele><time>2026-04-18T08:35:50.036Z</time></trkpt><trkpt lat="42.0829428" lon="11.8057109"><ele>11.6</ele><time>2026-04-18T08:35:51.035Z</time></trkpt><trkpt lat="42.082874" lon="11.8057979"><ele>11.4</ele><time>2026-04-18T08:35:52.038Z</time></trkpt><trkpt lat="42.0827986" lon="11.8058769"><ele>11.200000000000001</ele><time>2026-04-18T08:35:53.04Z</time></trkpt><trkpt lat="42.0827175" lon="11.8059582"><ele>11.0</ele><time>2026-04-18T08:35:54.035Z</time></trkpt><trkpt lat="42.0826289" lon="11.8060343"><ele>11.0</ele><time>2026-04-18T08:35:55.039Z</time></trkpt><trkpt lat="42.0825399" lon="11.8061019"><ele>11.0</ele><time>2026-04-18T08:35:56.045Z</time></trkpt><trkpt lat="42.0824454" lon="11.8061709"><ele>11.0</ele><time>2026-04-18T08:35:57.035Z</time></trkpt><trkpt lat="42.0823502" lon="11.8062421"><ele>11.0</ele><time>2026-04-18T08:35:58.039Z</time></trkpt><trkpt lat="42.0822444" lon="11.8063028"><ele>11.0</ele><time>2026-04-18T08:35:59.032Z</time></trkpt><trkpt lat="42.0821343" lon="11.8063617"><ele>10.25</ele><time>2026-04-18T08:36:00.039Z</time></trkpt><trkpt lat="42.0820242" lon="11.8064247"><ele>9.5</ele><time>2026-04-18T08:36:01.042Z</time></trkpt><trkpt lat="42.0819141" lon="11.8064866"><ele>8.75</ele><time>2026-04-18T08:36:02.041Z</time></trkpt><trkpt lat="42.0818031" lon="11.806548"><ele>8.0</ele><time>2026-04-18T08:36:03.045Z</time></trkpt><trkpt lat="42.0816933" lon="11.8066068"><ele>8.0</ele><time>2026-04-18T08:36:04.048Z</time></trkpt><trkpt lat="42.0815843" lon="11.8066647"><ele>8.0</ele><time>2026-04-18T08:36:05.039Z</time></trkpt><trkpt lat="42.081474" lon="11.8067231"><ele>8.0</ele><time>2026-04-18T08:36:06.054Z</time></trkpt><trkpt lat="42.0813654" lon="11.8067823"><ele>8.0</ele><time>2026-04-18T08:36:07.051Z</time></trkpt><trkpt lat="42.0812543" lon="11.8068407"><ele>8.0</ele><time>2026-04-18T08:36:08.04Z</time></trkpt><trkpt lat="42.0811443" lon="11.8068975"><ele>8.0</ele><time>2026-04-18T08:36:09.037Z</time></trkpt><trkpt lat="42.0810397" lon="11.8069505"><ele>8.0</ele><time>2026-04-18T08:36:10.043Z</time></trkpt><trkpt lat="42.08094" lon="11.8070016"><ele>8.0</ele><time>2026-04-18T08:36:11.045Z</time></trkpt><trkpt lat="42.0808462" lon="11.8070498"><ele>8.0</ele><time>2026-04-18T08:36:12.042Z</time></trkpt><trkpt lat="42.0807556" lon="11.8070963"><ele>8.166666666666666</ele><time>2026-04-18T08:36:13.037Z</time></trkpt><trkpt lat="42.0806627" lon="11.8071444"><ele>8.333333333333332</ele><time>2026-04-18T08:36:14.044Z</time></trkpt><trkpt lat="42.0805706" lon="11.8071903"><ele>8.5</ele><time>2026-04-18T08:36:15.045Z</time></trkpt><trkpt lat="42.080487" lon="11.8072227"><ele>8.666666666666666</ele><time>2026-04-18T08:36:16.048Z</time></trkpt><trkpt lat="42.0804179" lon="11.8072468"><ele>8.833333333333334</ele><time>2026-04-18T08:36:17.044Z</time></trkpt><trkpt lat="42.0803568" lon="11.8072754"><ele>9.0</ele><time>2026-04-18T08:36:18.037Z</time></trkpt><trkpt lat="42.0802408" lon="11.8073294"><ele>9.0</ele><time>2026-04-18T08:36:20.043Z</time></trkpt><trkpt lat="42.0801408" lon="11.8073671"><ele>9.0</ele><time>2026-04-18T08:36:22.037Z</time></trkpt><trkpt lat="42.0800611" lon="11.8073919"><ele>9.0</ele><time>2026-04-18T08:36:24.041Z</time></trkpt><trkpt lat="42.0799942" lon="11.8074137"><ele>9.0</ele><time>2026-04-18T08:36:27.057Z</time></trkpt><trkpt lat="42.0801107" lon="11.8074506"><ele>9.0</ele><time>2026-04-18T08:36:46.043Z</time></trkpt><trkpt lat="42.0802126" lon="11.807406"><ele>9.0</ele><time>2026-04-18T08:36:48.046Z</time></trkpt><trkpt lat="42.0803276" lon="11.8073639"><ele>9.0</ele><time>2026-04-18T08:36:50.051Z</time></trkpt><trkpt lat="42.080443" lon="11.8073331"><ele>9.0</ele><time>2026-04-18T08:36:52.042Z</time></trkpt><trkpt lat="42.0805737" lon="11.8073044"><ele>9.0</ele><time>2026-04-18T08:36:54.035Z</time></trkpt><trkpt lat="42.0806389" lon="11.8072879"><ele>9.0</ele><time>2026-04-18T08:36:55.04Z</time></trkpt><trkpt lat="42.0807605" lon="11.8072562"><ele>8.833333333333334</ele><time>2026-04-18T08:36:57.045Z</time></trkpt><trkpt lat="42.0808727" lon="11.80722"><ele>8.666666666666666</ele><time>2026-04-18T08:36:59.049Z</time></trkpt><trkpt lat="42.0809624" lon="11.8071954"><ele>8.5</ele><time>2026-04-18T08:37:01.059Z</time></trkpt><trkpt lat="42.0810375" lon="11.8071801"><ele>8.333333333333332</ele><time>2026-04-18T08:37:03.057Z</time></trkpt><trkpt lat="42.0811002" lon="11.8071901"><ele>8.166666666666666</ele><time>2026-04-18T08:37:05.058Z</time></trkpt><trkpt lat="42.0811588" lon="11.807262"><ele>8.0</ele><time>2026-04-18T08:37:07.043Z</time></trkpt><trkpt lat="42.0811555" lon="11.807355"><ele>7.999999999999999</ele><time>2026-04-18T08:37:08.057Z</time></trkpt><trkpt lat="42.081148" lon="11.8074523"><ele>8.0</ele><time>2026-04-18T08:37:09.051Z</time></trkpt><trkpt lat="42.0811376" lon="11.8075565"><ele>8.0</ele><time>2026-04-18T08:37:10.045Z</time></trkpt><trkpt lat="42.0811294" lon="11.8076563"><ele>8.0</ele><time>2026-04-18T08:37:11.048Z</time></trkpt><trkpt lat="42.0811248" lon="11.8077463"><ele>7.999999999999999</ele><time>2026-04-18T08:37:12.05Z</time></trkpt><trkpt lat="42.0811143" lon="11.8078564"><ele>8.0</ele><time>2026-04-18T08:37:14.053Z</time></trkpt><trkpt lat="42.0810965" lon="11.8079591"><ele>8.8</ele><time>2026-04-18T08:38:03.05Z</time></trkpt><trkpt lat="42.0810891" lon="11.8080973"><ele>9.600000000000001</ele><time>2026-04-18T08:38:05.046Z</time></trkpt><trkpt lat="42.0810615" lon="11.8082411"><ele>10.399999999999999</ele><time>2026-04-18T08:38:07.046Z</time></trkpt><trkpt lat="42.0810413" lon="11.8083238"><ele>11.2</ele><time>2026-04-18T08:38:08.048Z</time></trkpt><trkpt lat="42.0810267" lon="11.8084103"><ele>12.0</ele><time>2026-04-18T08:38:09.038Z</time></trkpt><trkpt lat="42.0810314" lon="11.8085648"><ele>12.8</ele><time>2026-04-18T08:38:11.051Z</time></trkpt><trkpt lat="42.0810971" lon="11.8087099"><ele>13.6</ele><time>2026-04-18T08:38:13.041Z</time></trkpt><trkpt lat="42.0811389" lon="11.8088044"><ele>14.400000000000002</ele><time>2026-04-18T08:38:14.047Z</time></trkpt><trkpt lat="42.0811803" lon="11.8088953"><ele>15.200000000000001</ele><time>2026-04-18T08:38:15.042Z</time></trkpt><trkpt lat="42.0812279" lon="11.8089954"><ele>16.0</ele><time>2026-04-18T08:38:16.045Z</time></trkpt><trkpt lat="42.0812797" lon="11.8091079"><ele>16.0</ele><time>2026-04-18T08:38:17.042Z</time></trkpt><trkpt lat="42.0813356" lon="11.8092314"><ele>16.0</ele><time>2026-04-18T08:38:18.046Z</time></trkpt><trkpt lat="42.0813914" lon="11.8093489"><ele>16.0</ele><time>2026-04-18T08:38:19.052Z</time></trkpt><trkpt lat="42.0814476" lon="11.8094676"><ele>16.0</ele><time>2026-04-18T08:38:20.042Z</time></trkpt><trkpt lat="42.0815055" lon="11.8095874"><ele>16.0</ele><time>2026-04-18T08:38:21.046Z</time></trkpt><trkpt lat="42.0815618" lon="11.8097111"><ele>16.8</ele><time>2026-04-18T08:38:22.042Z</time></trkpt><trkpt lat="42.0816193" lon="11.8098352"><ele>17.6</ele><time>2026-04-18T08:38:23.044Z</time></trkpt><trkpt lat="42.0816746" lon="11.8099578"><ele>18.4</ele><time>2026-04-18T08:38:24.042Z</time></trkpt><trkpt lat="42.0817302" lon="11.810077"><ele>19.2</ele><time>2026-04-18T08:38:25.042Z</time></trkpt><trkpt lat="42.0817845" lon="11.8101935"><ele>20.0</ele><time>2026-04-18T08:38:26.041Z</time></trkpt><trkpt lat="42.0818394" lon="11.81031"><ele>20.5</ele><time>2026-04-18T08:38:27.042Z</time></trkpt><trkpt lat="42.0818915" lon="11.8104257"><ele>21.0</ele><time>2026-04-18T08:38:28.044Z</time></trkpt><trkpt lat="42.0819408" lon="11.8105321"><ele>21.5</ele><time>2026-04-18T08:38:29.047Z</time></trkpt><trkpt lat="42.0819827" lon="11.8106272"><ele>22.0</ele><time>2026-04-18T08:38:30.044Z</time></trkpt><trkpt lat="42.0820152" lon="11.8107058"><ele>22.5</ele><time>2026-04-18T08:38:31.049Z</time></trkpt><trkpt lat="42.0820535" lon="11.8107863"><ele>23.0</ele><time>2026-04-18T08:38:32.045Z</time></trkpt><trkpt lat="42.0820975" lon="11.8108778"><ele>23.0</ele><time>2026-04-18T08:38:33.038Z</time></trkpt><trkpt lat="42.0821414" lon="11.8109675"><ele>23.0</ele><time>2026-04-18T08:38:34.035Z</time></trkpt><trkpt lat="42.0821898" lon="11.8110601"><ele>23.0</ele><time>2026-04-18T08:38:35.044Z</time></trkpt><trkpt lat="42.082245" lon="11.8111639"><ele>23.0</ele><time>2026-04-18T08:38:36.041Z</time></trkpt><trkpt lat="42.0822989" lon="11.8112873"><ele>23.0</ele><time>2026-04-18T08:38:37.043Z</time></trkpt><trkpt lat="42.0823557" lon="11.8114235"><ele>23.5</ele><time>2026-04-18T08:38:38.043Z</time></trkpt><trkpt lat="42.0824173" lon="11.8115624"><ele>24.0</ele><time>2026-04-18T08:38:39.044Z</time></trkpt><trkpt lat="42.0824813" lon="11.8117084"><ele>24.5</ele><time>2026-04-18T08:38:40.044Z</time></trkpt><trkpt lat="42.0825481" lon="11.8118529"><ele>25.0</ele><time>2026-04-18T08:38:41.043Z</time></trkpt><trkpt lat="42.0826143" lon="11.8119949"><ele>25.8</ele><time>2026-04-18T08:38:42.061Z</time></trkpt><trkpt lat="42.082677" lon="11.812133"><ele>26.6</ele><time>2026-04-18T08:38:43.038Z</time></trkpt><trkpt lat="42.0827372" lon="11.8122642"><ele>27.4</ele><time>2026-04-18T08:38:44.044Z</time></trkpt><trkpt lat="42.0827932" lon="11.8123864"><ele>28.2</ele><time>2026-04-18T08:38:45.037Z</time></trkpt><trkpt lat="42.0828475" lon="11.8125014"><ele>29.0</ele><time>2026-04-18T08:38:46.039Z</time></trkpt><trkpt lat="42.0828931" lon="11.8126047"><ele>29.499999999999996</ele><time>2026-04-18T08:38:47.036Z</time></trkpt><trkpt lat="42.0829276" lon="11.8126846"><ele>30.0</ele><time>2026-04-18T08:38:48.05Z</time></trkpt><trkpt lat="42.0829643" lon="11.8127661"><ele>30.5</ele><time>2026-04-18T08:38:49.038Z</time></trkpt><trkpt lat="42.0830164" lon="11.8128526"><ele>31.0</ele><time>2026-04-18T08:38:50.044Z</time></trkpt><trkpt lat="42.0830794" lon="11.8129432"><ele>31.499999999999996</ele><time>2026-04-18T08:38:51.039Z</time></trkpt><trkpt lat="42.0831367" lon="11.8130481"><ele>32.0</ele><time>2026-04-18T08:38:52.048Z</time></trkpt><trkpt lat="42.083191" lon="11.8131623"><ele>32.0</ele><time>2026-04-18T08:38:53.054Z</time></trkpt><trkpt lat="42.0832478" lon="11.8132766"><ele>32.0</ele><time>2026-04-18T08:38:54.043Z</time></trkpt><trkpt lat="42.0833026" lon="11.8133916"><ele>32.0</ele><time>2026-04-18T08:38:55.056Z</time></trkpt><trkpt lat="42.0833581" lon="11.8134993"><ele>32.0</ele><time>2026-04-18T08:38:56.048Z</time></trkpt><trkpt lat="42.0834135" lon="11.8136129"><ele>32.0</ele><time>2026-04-18T08:38:57.046Z</time></trkpt><trkpt lat="42.0834709" lon="11.8137295"><ele>32.6</ele><time>2026-04-18T08:38:58.044Z</time></trkpt><trkpt lat="42.0835302" lon="11.8138482"><ele>33.2</ele><time>2026-04-18T08:38:59.045Z</time></trkpt><trkpt lat="42.0835931" lon="11.8139765"><ele>33.8</ele><time>2026-04-18T08:39:00.048Z</time></trkpt><trkpt lat="42.0836491" lon="11.8141088"><ele>34.4</ele><time>2026-04-18T08:39:01.043Z</time></trkpt><trkpt lat="42.083705" lon="11.8142383"><ele>35.0</ele><time>2026-04-18T08:39:02.038Z</time></trkpt><trkpt lat="42.0837582" lon="11.8143601"><ele>35.5</ele><time>2026-04-18T08:39:03.05Z</time></trkpt><trkpt lat="42.0838036" lon="11.8144687"><ele>36.0</ele><time>2026-04-18T08:39:04.041Z</time></trkpt><trkpt lat="42.0838435" lon="11.8145718"><ele>36.5</ele><time>2026-04-18T08:39:05.066Z</time></trkpt><trkpt lat="42.0838793" lon="11.8146759"><ele>37.0</ele><time>2026-04-18T08:39:06.046Z</time></trkpt><trkpt lat="42.0839134" lon="11.8147835"><ele>37.5</ele><time>2026-04-18T08:39:07.042Z</time></trkpt><trkpt lat="42.0839442" lon="11.8148923"><ele>38.0</ele><time>2026-04-18T08:39:08.046Z</time></trkpt><trkpt lat="42.0839678" lon="11.8150046"><ele>38.0</ele><time>2026-04-18T08:39:09.039Z</time></trkpt><trkpt lat="42.0839819" lon="11.8151182"><ele>38.0</ele><time>2026-04-18T08:39:10.039Z</time></trkpt><trkpt lat="42.0839912" lon="11.815233"><ele>38.0</ele><time>2026-04-18T08:39:11.046Z</time></trkpt><trkpt lat="42.0840059" lon="11.8153588"><ele>38.0</ele><time>2026-04-18T08:39:12.048Z</time></trkpt><trkpt lat="42.0840303" lon="11.8154996"><ele>38.0</ele><time>2026-04-18T08:39:13.046Z</time></trkpt><trkpt lat="42.0840635" lon="11.815652"><ele>39.0</ele><time>2026-04-18T08:39:14.033Z</time></trkpt><trkpt lat="42.0841033" lon="11.8158181"><ele>40.0</ele><time>2026-04-18T08:39:15.052Z</time></trkpt><trkpt lat="42.0841423" lon="11.8159911"><ele>41.0</ele><time>2026-04-18T08:39:16.048Z</time></trkpt><trkpt lat="42.0841738" lon="11.8161562"><ele>42.0</ele><time>2026-04-18T08:39:17.038Z</time></trkpt><trkpt lat="42.0842069" lon="11.8163208"><ele>42.25</ele><time>2026-04-18T08:39:18.051Z</time></trkpt><trkpt lat="42.0842428" lon="11.816481"><ele>42.5</ele><time>2026-04-18T08:39:19.045Z</time></trkpt><trkpt lat="42.084287" lon="11.8166275"><ele>42.75</ele><time>2026-04-18T08:39:20.053Z</time></trkpt><trkpt lat="42.0843308" lon="11.8167654"><ele>43.0</ele><time>2026-04-18T08:39:21.041Z</time></trkpt><trkpt lat="42.0843926" lon="11.8168879"><ele>43.599999999999994</ele><time>2026-04-18T08:39:22.049Z</time></trkpt><trkpt lat="42.0844473" lon="11.8169965"><ele>44.199999999999996</ele><time>2026-04-18T08:39:23.046Z</time></trkpt><trkpt lat="42.0844978" lon="11.817099"><ele>44.8</ele><time>2026-04-18T08:39:24.044Z</time></trkpt><trkpt lat="42.0845468" lon="11.817196"><ele>45.4</ele><time>2026-04-18T08:39:25.042Z</time></trkpt><trkpt lat="42.0845928" lon="11.8172981"><ele>46.0</ele><time>2026-04-18T08:39:26.048Z</time></trkpt><trkpt lat="42.0846343" lon="11.8174054"><ele>46.0</ele><time>2026-04-18T08:39:27.042Z</time></trkpt><trkpt lat="42.0846702" lon="11.8175163"><ele>46.0</ele><time>2026-04-18T08:39:28.043Z</time></trkpt><trkpt lat="42.084701" lon="11.8176303"><ele>46.0</ele><time>2026-04-18T08:39:29.059Z</time></trkpt><trkpt lat="42.0847313" lon="11.8177472"><ele>46.0</ele><time>2026-04-18T08:39:30.044Z</time></trkpt><trkpt lat="42.0847632" lon="11.8178657"><ele>46.0</ele><time>2026-04-18T08:39:31.048Z</time></trkpt><trkpt lat="42.084795" lon="11.8179985"><ele>47.75</ele><time>2026-04-18T08:39:32.047Z</time></trkpt><trkpt lat="42.0848306" lon="11.8181495"><ele>49.5</ele><time>2026-04-18T08:39:33.038Z</time></trkpt><trkpt lat="42.0848677" lon="11.8183082"><ele>51.25</ele><time>2026-04-18T08:39:34.043Z</time></trkpt><trkpt lat="42.0849141" lon="11.8184857"><ele>53.0</ele><time>2026-04-18T08:39:35.047Z</time></trkpt><trkpt lat="42.0849623" lon="11.8186647"><ele>55.333333333333336</ele><time>2026-04-18T08:39:36.043Z</time></trkpt><trkpt lat="42.0850161" lon="11.8188696"><ele>57.66666666666667</ele><time>2026-04-18T08:39:37.043Z</time></trkpt><trkpt lat="42.0850724" lon="11.8190931"><ele>60.0</ele><time>2026-04-18T08:39:38.045Z</time></trkpt><trkpt lat="42.0851185" lon="11.819319"><ele>61.66666666666667</ele><time>2026-04-18T08:39:39.039Z</time></trkpt><trkpt lat="42.0851641" lon="11.8195412"><ele>63.333333333333336</ele><time>2026-04-18T08:39:40.04Z</time></trkpt><trkpt lat="42.0852205" lon="11.8197524"><ele>65.0</ele><time>2026-04-18T08:39:41.045Z</time></trkpt><trkpt lat="42.085286" lon="11.8199496"><ele>65.0</ele><time>2026-04-18T08:39:42.048Z</time></trkpt><trkpt lat="42.0853513" lon="11.820143"><ele>65.0</ele><time>2026-04-18T08:39:43.054Z</time></trkpt><trkpt lat="42.0854224" lon="11.8203164"><ele>65.0</ele><time>2026-04-18T08:39:44.067Z</time></trkpt><trkpt lat="42.0854777" lon="11.8204963"><ele>65.0</ele><time>2026-04-18T08:39:45.051Z</time></trkpt><trkpt lat="42.0855266" lon="11.8206847"><ele>66.66666666666667</ele><time>2026-04-18T08:39:46.042Z</time></trkpt><trkpt lat="42.0855631" lon="11.8208778"><ele>68.33333333333333</ele><time>2026-04-18T08:39:47.047Z</time></trkpt><trkpt lat="42.0855913" lon="11.8210797"><ele>70.0</ele><time>2026-04-18T08:39:48.048Z</time></trkpt><trkpt lat="42.0856081" lon="11.8212908"><ele>71.0</ele><time>2026-04-18T08:39:49.045Z</time></trkpt><trkpt lat="42.0856268" lon="11.8214984"><ele>72.0</ele><time>2026-04-18T08:39:50.044Z</time></trkpt><trkpt lat="42.0856436" lon="11.8217027"><ele>73.0</ele><time>2026-04-18T08:39:51.049Z</time></trkpt><trkpt lat="42.0856607" lon="11.8219079"><ele>74.0</ele><time>2026-04-18T08:39:52.046Z</time></trkpt><trkpt lat="42.0856817" lon="11.822117"><ele>75.0</ele><time>2026-04-18T08:39:53.048Z</time></trkpt><trkpt lat="42.0857046" lon="11.8223295"><ele>76.0</ele><time>2026-04-18T08:39:54.053Z</time></trkpt><trkpt lat="42.0857282" lon="11.8225406"><ele>77.0</ele><time>2026-04-18T08:39:55.048Z</time></trkpt><trkpt lat="42.0857523" lon="11.8227492"><ele>78.0</ele><time>2026-04-18T08:39:56.05Z</time></trkpt><trkpt lat="42.0857727" lon="11.822954"><ele>79.0</ele><time>2026-04-18T08:39:57.043Z</time></trkpt><trkpt lat="42.0857869" lon="11.8231547"><ele>80.25</ele><time>2026-04-18T08:39:58.047Z</time></trkpt><trkpt lat="42.0857982" lon="11.8233526"><ele>81.5</ele><time>2026-04-18T08:39:59.051Z</time></trkpt><trkpt lat="42.085812" lon="11.8235446"><ele>82.75</ele><time>2026-04-18T08:40:00.048Z</time></trkpt><trkpt lat="42.0858373" lon="11.8237352"><ele>84.0</ele><time>2026-04-18T08:40:01.043Z</time></trkpt><trkpt lat="42.0858801" lon="11.8239267"><ele>85.33333333333333</ele><time>2026-04-18T08:40:02.043Z</time></trkpt><trkpt lat="42.0859319" lon="11.8241186"><ele>86.66666666666666</ele><time>2026-04-18T08:40:03.048Z</time></trkpt><trkpt lat="42.0859848" lon="11.8243152"><ele>88.0</ele><time>2026-04-18T08:40:04.046Z</time></trkpt><trkpt lat="42.0860294" lon="11.8245255"><ele>90.66666666666666</ele><time>2026-04-18T08:40:05.046Z</time></trkpt><trkpt lat="42.0860638" lon="11.8247446"><ele>93.33333333333333</ele><time>2026-04-18T08:40:06.046Z</time></trkpt><trkpt lat="42.0860958" lon="11.8249692"><ele>96.0</ele><time>2026-04-18T08:40:07.044Z</time></trkpt><trkpt lat="42.0861282" lon="11.8251996"><ele>98.33333333333334</ele><time>2026-04-18T08:40:08.05Z</time></trkpt><trkpt lat="42.0861625" lon="11.8254179"><ele>100.66666666666667</ele><time>2026-04-18T08:40:09.047Z</time></trkpt><trkpt lat="42.086201" lon="11.825627"><ele>103.0</ele><time>2026-04-18T08:40:10.051Z</time></trkpt><trkpt lat="42.0862431" lon="11.8258288"><ele>104.66666666666667</ele><time>2026-04-18T08:40:11.045Z</time></trkpt><trkpt lat="42.0863033" lon="11.8260207"><ele>106.33333333333334</ele><time>2026-04-18T08:40:12.048Z</time></trkpt><trkpt lat="42.0863797" lon="11.8261979"><ele>108.0</ele><time>2026-04-18T08:40:13.051Z</time></trkpt><trkpt lat="42.0864582" lon="11.8263686"><ele>108.0</ele><time>2026-04-18T08:40:14.042Z</time></trkpt><trkpt lat="42.0865407" lon="11.826536"><ele>108.0</ele><time>2026-04-18T08:40:15.04Z</time></trkpt><trkpt lat="42.0865892" lon="11.8267031"><ele>108.0</ele><time>2026-04-18T08:40:16.045Z</time></trkpt><trkpt lat="42.0866181" lon="11.8268682"><ele>108.0</ele><time>2026-04-18T08:40:17.046Z</time></trkpt><trkpt lat="42.0866581" lon="11.8270292"><ele>109.60000000000001</ele><time>2026-04-18T08:40:18.038Z</time></trkpt><trkpt lat="42.0866991" lon="11.8271816"><ele>111.20000000000002</ele><time>2026-04-18T08:40:19.04Z</time></trkpt><trkpt lat="42.0867449" lon="11.8273006"><ele>112.8</ele><time>2026-04-18T08:40:20.05Z</time></trkpt><trkpt lat="42.0867947" lon="11.8273881"><ele>114.4</ele><time>2026-04-18T08:40:21.043Z</time></trkpt><trkpt lat="42.0868705" lon="11.8274857"><ele>116.0</ele><time>2026-04-18T08:40:23.04Z</time></trkpt><trkpt lat="42.0869624" lon="11.8275722"><ele>115.99999999999999</ele><time>2026-04-18T08:40:25.05Z</time></trkpt><trkpt lat="42.0870324" lon="11.8275983"><ele>116.0</ele><time>2026-04-18T08:40:26.046Z</time></trkpt><trkpt lat="42.0871065" lon="11.8276082"><ele>116.0</ele><time>2026-04-18T08:40:27.051Z</time></trkpt><trkpt lat="42.0871869" lon="11.8276249"><ele>116.0</ele><time>2026-04-18T08:40:28.049Z</time></trkpt><trkpt lat="42.0872647" lon="11.8276596"><ele>115.99999999999999</ele><time>2026-04-18T08:40:29.047Z</time></trkpt><trkpt lat="42.0873282" lon="11.8277284"><ele>116.0</ele><time>2026-04-18T08:40:30.042Z</time></trkpt><trkpt lat="42.0873851" lon="11.8278013"><ele>117.0</ele><time>2026-04-18T08:40:31.054Z</time></trkpt><trkpt lat="42.0873851" lon="11.8279107"><ele>118.0</ele><time>2026-04-18T08:40:32.049Z</time></trkpt><trkpt lat="42.0873641" lon="11.8280204"><ele>119.0</ele><time>2026-04-18T08:40:33.049Z</time></trkpt><trkpt lat="42.087347" lon="11.828139"><ele>120.0</ele><time>2026-04-18T08:40:34.04Z</time></trkpt><trkpt lat="42.0873221" lon="11.8282678"><ele>121.0</ele><time>2026-04-18T08:40:35.051Z</time></trkpt><trkpt lat="42.08729" lon="11.8283937"><ele>122.4</ele><time>2026-04-18T08:40:36.042Z</time></trkpt><trkpt lat="42.0872639" lon="11.8285185"><ele>123.8</ele><time>2026-04-18T08:40:37.042Z</time></trkpt><trkpt lat="42.0872524" lon="11.8286557"><ele>125.20000000000002</ele><time>2026-04-18T08:40:38.044Z</time></trkpt><trkpt lat="42.0872413" lon="11.8288073"><ele>126.60000000000001</ele><time>2026-04-18T08:40:39.047Z</time></trkpt><trkpt lat="42.0872382" lon="11.8289545"><ele>128.0</ele><time>2026-04-18T08:40:40.05Z</time></trkpt><trkpt lat="42.0872311" lon="11.8291058"><ele>128.0</ele><time>2026-04-18T08:40:41.047Z</time></trkpt><trkpt lat="42.0872126" lon="11.829261"><ele>128.0</ele><time>2026-04-18T08:40:42.043Z</time></trkpt><trkpt lat="42.0871745" lon="11.8294075"><ele>128.0</ele><time>2026-04-18T08:40:43.05Z</time></trkpt><trkpt lat="42.087125" lon="11.8295526"><ele>128.0</ele><time>2026-04-18T08:40:44.045Z</time></trkpt><trkpt lat="42.0870995" lon="11.8297008"><ele>129.0</ele><time>2026-04-18T08:40:45.046Z</time></trkpt><trkpt lat="42.0871037" lon="11.8298582"><ele>130.0</ele><time>2026-04-18T08:40:46.05Z</time></trkpt><trkpt lat="42.0871242" lon="11.8300203"><ele>131.0</ele><time>2026-04-18T08:40:47.041Z</time></trkpt><trkpt lat="42.0871565" lon="11.8301908"><ele>132.0</ele><time>2026-04-18T08:40:48.046Z</time></trkpt><trkpt lat="42.0871949" lon="11.8303723"><ele>132.0</ele><time>2026-04-18T08:40:49.043Z</time></trkpt><trkpt lat="42.087235" lon="11.8305681"><ele>132.0</ele><time>2026-04-18T08:40:50.049Z</time></trkpt><trkpt lat="42.0872713" lon="11.8307629"><ele>132.0</ele><time>2026-04-18T08:40:51.045Z</time></trkpt><trkpt lat="42.0872924" lon="11.8309625"><ele>132.0</ele><time>2026-04-18T08:40:52.046Z</time></trkpt><trkpt lat="42.0873044" lon="11.8311637"><ele>132.0</ele><time>2026-04-18T08:40:53.046Z</time></trkpt><trkpt lat="42.0873216" lon="11.8313647"><ele>132.0</ele><time>2026-04-18T08:40:54.059Z</time></trkpt><trkpt lat="42.0873472" lon="11.8315743"><ele>132.0</ele><time>2026-04-18T08:40:55.044Z</time></trkpt><trkpt lat="42.0873917" lon="11.8317787"><ele>136.33333333333334</ele><time>2026-04-18T08:40:56.042Z</time></trkpt><trkpt lat="42.0874474" lon="11.8319768"><ele>140.66666666666669</ele><time>2026-04-18T08:40:57.044Z</time></trkpt><trkpt lat="42.0875041" lon="11.8321743"><ele>145.0</ele><time>2026-04-18T08:40:58.065Z</time></trkpt><trkpt lat="42.0875754" lon="11.8323667"><ele>145.0</ele><time>2026-04-18T08:40:59.051Z</time></trkpt><trkpt lat="42.0876566" lon="11.8325591"><ele>145.0</ele><time>2026-04-18T08:41:00.047Z</time></trkpt><trkpt lat="42.087738" lon="11.8327553"><ele>145.0</ele><time>2026-04-18T08:41:01.046Z</time></trkpt><trkpt lat="42.0878239" lon="11.832947"><ele>145.66666666666669</ele><time>2026-04-18T08:41:02.048Z</time></trkpt><trkpt lat="42.0879098" lon="11.8331394"><ele>146.33333333333334</ele><time>2026-04-18T08:41:03.045Z</time></trkpt><trkpt lat="42.087995" lon="11.8333303"><ele>147.0</ele><time>2026-04-18T08:41:04.047Z</time></trkpt><trkpt lat="42.0880789" lon="11.8335208"><ele>147.0</ele><time>2026-04-18T08:41:05.044Z</time></trkpt><trkpt lat="42.0881569" lon="11.8337115"><ele>147.0</ele><time>2026-04-18T08:41:06.049Z</time></trkpt><trkpt lat="42.0882216" lon="11.833909"><ele>147.0</ele><time>2026-04-18T08:41:07.041Z</time></trkpt><trkpt lat="42.0882726" lon="11.8341084"><ele>149.75</ele><time>2026-04-18T08:41:08.05Z</time></trkpt><trkpt lat="42.088318" lon="11.8342986"><ele>152.5</ele><time>2026-04-18T08:41:09.049Z</time></trkpt><trkpt lat="42.0883575" lon="11.8344807"><ele>155.25</ele><time>2026-04-18T08:41:10.048Z</time></trkpt><trkpt lat="42.0883995" lon="11.8346517"><ele>158.0</ele><time>2026-04-18T08:41:11.051Z</time></trkpt><trkpt lat="42.0884504" lon="11.8348073"><ele>158.5</ele><time>2026-04-18T08:41:12.044Z</time></trkpt><trkpt lat="42.088508" lon="11.8349625"><ele>159.0</ele><time>2026-04-18T08:41:13.041Z</time></trkpt><trkpt lat="42.0885581" lon="11.8351122"><ele>159.5</ele><time>2026-04-18T08:41:14.051Z</time></trkpt><trkpt lat="42.0886083" lon="11.8352558"><ele>160.0</ele><time>2026-04-18T08:41:15.052Z</time></trkpt><trkpt lat="42.0886574" lon="11.8354021"><ele>160.2</ele><time>2026-04-18T08:41:16.067Z</time></trkpt><trkpt lat="42.088691" lon="11.835533"><ele>160.4</ele><time>2026-04-18T08:41:17.051Z</time></trkpt><trkpt lat="42.0887145" lon="11.835662"><ele>160.60000000000002</ele><time>2026-04-18T08:41:18.055Z</time></trkpt><trkpt lat="42.088742" lon="11.8357878"><ele>160.8</ele><time>2026-04-18T08:41:19.048Z</time></trkpt><trkpt lat="42.0887664" lon="11.8359236"><ele>161.0</ele><time>2026-04-18T08:41:20.055Z</time></trkpt><trkpt lat="42.0888022" lon="11.8360535"><ele>160.4</ele><time>2026-04-18T08:41:21.047Z</time></trkpt><trkpt lat="42.0888455" lon="11.8361809"><ele>159.8</ele><time>2026-04-18T08:41:22.046Z</time></trkpt><trkpt lat="42.0888944" lon="11.8363094"><ele>159.20000000000002</ele><time>2026-04-18T08:41:23.04Z</time></trkpt><trkpt lat="42.0889409" lon="11.8364357"><ele>158.60000000000002</ele><time>2026-04-18T08:41:24.054Z</time></trkpt><trkpt lat="42.0889773" lon="11.836555"><ele>158.0</ele><time>2026-04-18T08:41:25.05Z</time></trkpt><trkpt lat="42.0890037" lon="11.8366797"><ele>157.25</ele><time>2026-04-18T08:41:26.05Z</time></trkpt><trkpt lat="42.0890254" lon="11.8368121"><ele>156.5</ele><time>2026-04-18T08:41:27.046Z</time></trkpt><trkpt lat="42.0890474" lon="11.8369609"><ele>155.75</ele><time>2026-04-18T08:41:28.045Z</time></trkpt><trkpt lat="42.0890698" lon="11.8371223"><ele>155.0</ele><time>2026-04-18T08:41:29.05Z</time></trkpt><trkpt lat="42.0890905" lon="11.8372897"><ele>158.25</ele><time>2026-04-18T08:41:30.044Z</time></trkpt><trkpt lat="42.0891143" lon="11.8374625"><ele>161.5</ele><time>2026-04-18T08:41:31.04Z</time></trkpt><trkpt lat="42.0891392" lon="11.8376498"><ele>164.75</ele><time>2026-04-18T08:41:32.047Z</time></trkpt><trkpt lat="42.0891568" lon="11.8378339"><ele>168.0</ele><time>2026-04-18T08:41:33.047Z</time></trkpt><trkpt lat="42.0891588" lon="11.8380131"><ele>168.25</ele><time>2026-04-18T08:41:34.052Z</time></trkpt><trkpt lat="42.0891536" lon="11.8381887"><ele>168.5</ele><time>2026-04-18T08:41:35.046Z</time></trkpt><trkpt lat="42.0891456" lon="11.8383685"><ele>168.75</ele><time>2026-04-18T08:41:36.051Z</time></trkpt><trkpt lat="42.0891381" lon="11.8385537"><ele>169.0</ele><time>2026-04-18T08:41:37.047Z</time></trkpt><trkpt lat="42.0891449" lon="11.8387579"><ele>169.33333333333334</ele><time>2026-04-18T08:41:38.057Z</time></trkpt><trkpt lat="42.0891611" lon="11.838971"><ele>169.66666666666666</ele><time>2026-04-18T08:41:39.042Z</time></trkpt><trkpt lat="42.089178" lon="11.8391759"><ele>170.0</ele><time>2026-04-18T08:41:40.062Z</time></trkpt><trkpt lat="42.0892003" lon="11.8393674"><ele>171.25</ele><time>2026-04-18T08:41:41.049Z</time></trkpt><trkpt lat="42.0892152" lon="11.8395531"><ele>172.5</ele><time>2026-04-18T08:41:42.047Z</time></trkpt><trkpt lat="42.089218" lon="11.8397328"><ele>173.75</ele><time>2026-04-18T08:41:43.049Z</time></trkpt><trkpt lat="42.0892026" lon="11.8399183"><ele>175.0</ele><time>2026-04-18T08:41:44.044Z</time></trkpt><trkpt lat="42.0891798" lon="11.8401013"><ele>176.0</ele><time>2026-04-18T08:41:45.05Z</time></trkpt><trkpt lat="42.08915" lon="11.8402686"><ele>177.0</ele><time>2026-04-18T08:41:46.052Z</time></trkpt><trkpt lat="42.0891314" lon="11.8404609"><ele>178.0</ele><time>2026-04-18T08:41:47.042Z</time></trkpt><trkpt lat="42.0891265" lon="11.8406553"><ele>179.0</ele><time>2026-04-18T08:41:48.048Z</time></trkpt><trkpt lat="42.0891278" lon="11.8408387"><ele>180.25</ele><time>2026-04-18T08:41:49.055Z</time></trkpt><trkpt lat="42.0891377" lon="11.841019"><ele>181.5</ele><time>2026-04-18T08:41:50.053Z</time></trkpt><trkpt lat="42.0891146" lon="11.8411979"><ele>182.75</ele><time>2026-04-18T08:41:51.051Z</time></trkpt><trkpt lat="42.0890744" lon="11.8413684"><ele>184.0</ele><time>2026-04-18T08:41:52.047Z</time></trkpt><trkpt lat="42.0890333" lon="11.8415318"><ele>185.0</ele><time>2026-04-18T08:41:53.052Z</time></trkpt><trkpt lat="42.0890194" lon="11.8416997"><ele>186.0</ele><time>2026-04-18T08:41:54.045Z</time></trkpt><trkpt lat="42.0890431" lon="11.8418807"><ele>187.0</ele><time>2026-04-18T08:41:55.044Z</time></trkpt><trkpt lat="42.0890688" lon="11.8420581"><ele>188.0</ele><time>2026-04-18T08:41:56.048Z</time></trkpt><trkpt lat="42.0891014" lon="11.8422349"><ele>188.0</ele><time>2026-04-18T08:41:57.053Z</time></trkpt><trkpt lat="42.0891315" lon="11.8424042"><ele>188.0</ele><time>2026-04-18T08:41:58.047Z</time></trkpt><trkpt lat="42.0891657" lon="11.8425681"><ele>188.0</ele><time>2026-04-18T08:41:59.045Z</time></trkpt><trkpt lat="42.0892084" lon="11.8427251"><ele>188.0</ele><time>2026-04-18T08:42:00.064Z</time></trkpt><trkpt lat="42.0892551" lon="11.8428667"><ele>189.25</ele><time>2026-04-18T08:42:01.052Z</time></trkpt><trkpt lat="42.0893269" lon="11.8430143"><ele>190.5</ele><time>2026-04-18T08:42:02.052Z</time></trkpt><trkpt lat="42.0893957" lon="11.8431601"><ele>191.75</ele><time>2026-04-18T08:42:03.057Z</time></trkpt><trkpt lat="42.0894522" lon="11.8432868"><ele>193.0</ele><time>2026-04-18T08:42:04.042Z</time></trkpt><trkpt lat="42.0895005" lon="11.8433779"><ele>193.0</ele><time>2026-04-18T08:42:05.048Z</time></trkpt><trkpt lat="42.0895729" lon="11.8434388"><ele>193.0</ele><time>2026-04-18T08:42:06.05Z</time></trkpt><trkpt lat="42.0896567" lon="11.8434822"><ele>193.0</ele><time>2026-04-18T08:42:07.055Z</time></trkpt><trkpt lat="42.0897814" lon="11.843471"><ele>193.0</ele><time>2026-04-18T08:42:08.042Z</time></trkpt><trkpt lat="42.0898952" lon="11.843499"><ele>193.0</ele><time>2026-04-18T08:42:09.057Z</time></trkpt><trkpt lat="42.0900117" lon="11.8435325"><ele>196.25</ele><time>2026-04-18T08:42:10.054Z</time></trkpt><trkpt lat="42.0901179" lon="11.8436099"><ele>199.5</ele><time>2026-04-18T08:42:11.053Z</time></trkpt><trkpt lat="42.090203" lon="11.8437096"><ele>202.75</ele><time>2026-04-18T08:42:12.044Z</time></trkpt><trkpt lat="42.0902919" lon="11.8438319"><ele>206.0</ele><time>2026-04-18T08:42:13.052Z</time></trkpt><trkpt lat="42.0903549" lon="11.8439728"><ele>206.0</ele><time>2026-04-18T08:42:14.051Z</time></trkpt><trkpt lat="42.0904033" lon="11.8441253"><ele>206.0</ele><time>2026-04-18T08:42:15.047Z</time></trkpt><trkpt lat="42.090457" lon="11.8442754"><ele>206.0</ele><time>2026-04-18T08:42:16.055Z</time></trkpt><trkpt lat="42.0905203" lon="11.8444216"><ele>206.0</ele><time>2026-04-18T08:42:17.062Z</time></trkpt><trkpt lat="42.090603" lon="11.8445605"><ele>208.0</ele><time>2026-04-18T08:42:18.047Z</time></trkpt><trkpt lat="42.090682" lon="11.844695"><ele>210.0</ele><time>2026-04-18T08:42:19.06Z</time></trkpt><trkpt lat="42.090751" lon="11.8448271"><ele>212.0</ele><time>2026-04-18T08:42:20.046Z</time></trkpt><trkpt lat="42.0908044" lon="11.8449727"><ele>214.0</ele><time>2026-04-18T08:42:21.047Z</time></trkpt><trkpt lat="42.0908585" lon="11.8451287"><ele>217.5</ele><time>2026-04-18T08:42:22.045Z</time></trkpt><trkpt lat="42.0909147" lon="11.8452798"><ele>221.0</ele><time>2026-04-18T08:42:23.043Z</time></trkpt><trkpt lat="42.0909675" lon="11.8454203"><ele>224.5</ele><time>2026-04-18T08:42:24.041Z</time></trkpt><trkpt lat="42.0909979" lon="11.8455674"><ele>228.0</ele><time>2026-04-18T08:42:25.059Z</time></trkpt><trkpt lat="42.0910278" lon="11.8456925"><ele>228.0</ele><time>2026-04-18T08:42:26.044Z</time></trkpt><trkpt lat="42.0910786" lon="11.8458034"><ele>228.0</ele><time>2026-04-18T08:42:27.054Z</time></trkpt><trkpt lat="42.0911523" lon="11.8459111"><ele>228.0</ele><time>2026-04-18T08:42:28.045Z</time></trkpt><trkpt lat="42.0912419" lon="11.846022"><ele>228.0</ele><time>2026-04-18T08:42:29.046Z</time></trkpt><trkpt lat="42.0913401" lon="11.8461401"><ele>229.5</ele><time>2026-04-18T08:42:30.051Z</time></trkpt><trkpt lat="42.0914388" lon="11.8462586"><ele>231.0</ele><time>2026-04-18T08:42:31.048Z</time></trkpt><trkpt lat="42.0915304" lon="11.8463876"><ele>232.5</ele><time>2026-04-18T08:42:32.047Z</time></trkpt><trkpt lat="42.0916228" lon="11.8465197"><ele>234.0</ele><time>2026-04-18T08:42:33.045Z</time></trkpt><trkpt lat="42.0917108" lon="11.8466571"><ele>234.0</ele><time>2026-04-18T08:42:34.043Z</time></trkpt><trkpt lat="42.0917995" lon="11.846771"><ele>233.99999999999997</ele><time>2026-04-18T08:42:35.051Z</time></trkpt><trkpt lat="42.0918819" lon="11.8468662"><ele>233.99999999999997</ele><time>2026-04-18T08:42:36.044Z</time></trkpt><trkpt lat="42.0919507" lon="11.8469349"><ele>234.0</ele><time>2026-04-18T08:42:37.047Z</time></trkpt><trkpt lat="42.0920135" lon="11.8469913"><ele>234.0</ele><time>2026-04-18T08:42:38.05Z</time></trkpt><trkpt lat="42.0921031" lon="11.8469773"><ele>237.75</ele><time>2026-04-18T08:42:39.039Z</time></trkpt><trkpt lat="42.0922015" lon="11.846948"><ele>241.5</ele><time>2026-04-18T08:42:40.044Z</time></trkpt><trkpt lat="42.0923144" lon="11.8469217"><ele>245.25</ele><time>2026-04-18T08:42:41.052Z</time></trkpt><trkpt lat="42.0924287" lon="11.8468814"><ele>249.0</ele><time>2026-04-18T08:42:42.056Z</time></trkpt><trkpt lat="42.0925473" lon="11.8468195"><ele>246.0</ele><time>2026-04-18T08:42:43.05Z</time></trkpt><trkpt lat="42.0926663" lon="11.8467659"><ele>243.0</ele><time>2026-04-18T08:42:44.037Z</time></trkpt><trkpt lat="42.0927784" lon="11.846729"><ele>240.0</ele><time>2026-04-18T08:42:45.043Z</time></trkpt><trkpt lat="42.0928885" lon="11.8467127"><ele>237.0</ele><time>2026-04-18T08:42:46.046Z</time></trkpt><trkpt lat="42.0929984" lon="11.8467062"><ele>237.0</ele><time>2026-04-18T08:42:47.048Z</time></trkpt><trkpt lat="42.093095" lon="11.8467591"><ele>237.0</ele><time>2026-04-18T08:42:48.045Z</time></trkpt><trkpt lat="42.0931862" lon="11.8468348"><ele>237.0</ele><time>2026-04-18T08:42:49.042Z</time></trkpt><trkpt lat="42.0932723" lon="11.84694"><ele>237.0</ele><time>2026-04-18T08:42:50.047Z</time></trkpt><trkpt lat="42.093346" lon="11.8470609"><ele>237.0</ele><time>2026-04-18T08:42:51.042Z</time></trkpt><trkpt lat="42.0934139" lon="11.8471963"><ele>241.5</ele><time>2026-04-18T08:42:52.043Z</time></trkpt><trkpt lat="42.0934827" lon="11.8473401"><ele>246.0</ele><time>2026-04-18T08:42:53.044Z</time></trkpt><trkpt lat="42.0935525" lon="11.8474908"><ele>250.5</ele><time>2026-04-18T08:42:54.049Z</time></trkpt><trkpt lat="42.0936193" lon="11.8476562"><ele>255.0</ele><time>2026-04-18T08:42:55.046Z</time></trkpt><trkpt lat="42.093688" lon="11.8478278"><ele>258.75</ele><time>2026-04-18T08:42:56.041Z</time></trkpt><trkpt lat="42.0937404" lon="11.8480092"><ele>262.5</ele><time>2026-04-18T08:42:57.042Z</time></trkpt><trkpt lat="42.0937939" lon="11.8481829"><ele>266.25</ele><time>2026-04-18T08:42:58.053Z</time></trkpt><trkpt lat="42.0938523" lon="11.848344"><ele>270.0</ele><time>2026-04-18T08:42:59.042Z</time></trkpt><trkpt lat="42.0939237" lon="11.848519"><ele>270.0</ele><time>2026-04-18T08:43:00.058Z</time></trkpt><trkpt lat="42.0939899" lon="11.8486961"><ele>270.0</ele><time>2026-04-18T08:43:01.046Z</time></trkpt><trkpt lat="42.0940652" lon="11.8488492"><ele>270.0</ele><time>2026-04-18T08:43:02.041Z</time></trkpt><trkpt lat="42.0941348" lon="11.8489776"><ele>270.0</ele><time>2026-04-18T08:43:03.038Z</time></trkpt><trkpt lat="42.0941966" lon="11.8490783"><ele>270.0</ele><time>2026-04-18T08:43:04.051Z</time></trkpt><trkpt lat="42.0942492" lon="11.8491672"><ele>270.0</ele><time>2026-04-18T08:43:05.036Z</time></trkpt><trkpt lat="42.0942827" lon="11.8492492"><ele>270.0</ele><time>2026-04-18T08:43:06.044Z</time></trkpt><trkpt lat="42.0942904" lon="11.8493391"><ele>270.0</ele><time>2026-04-18T08:43:07.048Z</time></trkpt><trkpt lat="42.0942792" lon="11.849427"><ele>270.0</ele><time>2026-04-18T08:43:08.043Z</time></trkpt><trkpt lat="42.0942546" lon="11.8495199"><ele>270.0</ele><time>2026-04-18T08:43:09.047Z</time></trkpt><trkpt lat="42.0942192" lon="11.8496199"><ele>270.0</ele><time>2026-04-18T08:43:10.048Z</time></trkpt><trkpt lat="42.0941782" lon="11.8497197"><ele>269.85714285714283</ele><time>2026-04-18T08:43:11.051Z</time></trkpt><trkpt lat="42.0941361" lon="11.849807"><ele>269.71428571428567</ele><time>2026-04-18T08:43:12.042Z</time></trkpt><trkpt lat="42.094086" lon="11.84988"><ele>269.57142857142856</ele><time>2026-04-18T08:43:13.04Z</time></trkpt><trkpt lat="42.0940306" lon="11.8499329"><ele>269.42857142857144</ele><time>2026-04-18T08:43:14.063Z</time></trkpt><trkpt lat="42.0939711" lon="11.8499681"><ele>269.28571428571433</ele><time>2026-04-18T08:43:15.051Z</time></trkpt><trkpt lat="42.0939093" lon="11.8499877"><ele>269.14285714285717</ele><time>2026-04-18T08:43:16.047Z</time></trkpt><trkpt lat="42.0938125" lon="11.8500027"><ele>269.0</ele><time>2026-04-18T08:43:18.048Z</time></trkpt><trkpt lat="42.0937482" lon="11.8499985"><ele>270.83333333333337</ele><time>2026-04-18T08:43:20.047Z</time></trkpt><trkpt lat="42.0936615" lon="11.849996"><ele>272.6666666666667</ele><time>2026-04-18T08:43:23.046Z</time></trkpt><trkpt lat="42.0935766" lon="11.8499915"><ele>274.5</ele><time>2026-04-18T08:43:26.045Z</time></trkpt><trkpt lat="42.0935026" lon="11.8500245"><ele>276.3333333333333</ele><time>2026-04-18T08:43:46.052Z</time></trkpt><trkpt lat="42.0934405" lon="11.8500028"><ele>278.16666666666663</ele><time>2026-04-18T08:44:17.044Z</time></trkpt><trkpt lat="42.0935063" lon="11.8500197"><ele>280.0</ele><time>2026-04-18T08:44:24.047Z</time></trkpt><trkpt lat="42.0936182" lon="11.8499913"><ele>280.0</ele><time>2026-04-18T08:44:26.048Z</time></trkpt><trkpt lat="42.0936856" lon="11.8499923"><ele>280.0</ele><time>2026-04-18T08:44:27.04Z</time></trkpt><trkpt lat="42.0937615" lon="11.8499923"><ele>280.0</ele><time>2026-04-18T08:44:28.045Z</time></trkpt><trkpt lat="42.0938286" lon="11.8499969"><ele>280.0</ele><time>2026-04-18T08:44:29.042Z</time></trkpt><trkpt lat="42.0939434" lon="11.8499891"><ele>280.0</ele><time>2026-04-18T08:44:31.051Z</time></trkpt><trkpt lat="42.0940396" lon="11.8499509"><ele>280.0</ele><time>2026-04-18T08:44:33.039Z</time></trkpt><trkpt lat="42.0941389" lon="11.8498357"><ele>278.3333333333333</ele><time>2026-04-18T08:44:35.047Z</time></trkpt><trkpt lat="42.0941775" lon="11.849752"><ele>276.66666666666663</ele><time>2026-04-18T08:44:36.042Z</time></trkpt><trkpt lat="42.0942153" lon="11.8496628"><ele>275.0</ele><time>2026-04-18T08:44:37.047Z</time></trkpt><trkpt lat="42.0942559" lon="11.8495759"><ele>273.3333333333333</ele><time>2026-04-18T08:44:38.05Z</time></trkpt><trkpt lat="42.0942939" lon="11.8494982"><ele>271.6666666666667</ele><time>2026-04-18T08:44:39.047Z</time></trkpt><trkpt lat="42.0943244" lon="11.84935"><ele>270.0</ele><time>2026-04-18T08:44:41.056Z</time></trkpt><trkpt lat="42.0942932" lon="11.8492057"><ele>270.0</ele><time>2026-04-18T08:44:43.048Z</time></trkpt><trkpt lat="42.0942334" lon="11.8490839"><ele>270.0</ele><time>2026-04-18T08:44:45.047Z</time></trkpt><trkpt lat="42.0941661" lon="11.8489867"><ele>270.0</ele><time>2026-04-18T08:44:47.048Z</time></trkpt><trkpt lat="42.0940966" lon="11.8488753"><ele>270.0</ele><time>2026-04-18T08:44:49.042Z</time></trkpt><trkpt lat="42.0940328" lon="11.8487693"><ele>270.0</ele><time>2026-04-18T08:44:51.046Z</time></trkpt><trkpt lat="42.0939894" lon="11.8486798"><ele>270.0</ele><time>2026-04-18T08:44:53.042Z</time></trkpt><trkpt lat="42.0939576" lon="11.8485916"><ele>270.0</ele><time>2026-04-18T08:44:55.04Z</time></trkpt><trkpt lat="42.0939235" lon="11.8484983"><ele>270.0</ele><time>2026-04-18T08:44:57.044Z</time></trkpt><trkpt lat="42.0938779" lon="11.8483816"><ele>270.0</ele><time>2026-04-18T08:44:59.051Z</time></trkpt><trkpt lat="42.0938498" lon="11.8483044"><ele>270.0</ele><time>2026-04-18T08:45:00.045Z</time></trkpt><trkpt lat="42.0938225" lon="11.8482231"><ele>270.0</ele><time>2026-04-18T08:45:01.05Z</time></trkpt><trkpt lat="42.0937996" lon="11.8481399"><ele>270.0</ele><time>2026-04-18T08:45:02.047Z</time></trkpt><trkpt lat="42.0937764" lon="11.8480585"><ele>270.0</ele><time>2026-04-18T08:45:03.042Z</time></trkpt><trkpt lat="42.093745" lon="11.8479765"><ele>270.0</ele><time>2026-04-18T08:45:04.044Z</time></trkpt><trkpt lat="42.093715" lon="11.8478927"><ele>270.0</ele><time>2026-04-18T08:45:05.044Z</time></trkpt><trkpt lat="42.0936833" lon="11.8478028"><ele>270.0</ele><time>2026-04-18T08:45:06.041Z</time></trkpt><trkpt lat="42.0936491" lon="11.8477137"><ele>270.0</ele><time>2026-04-18T08:45:07.043Z</time></trkpt><trkpt lat="42.0936141" lon="11.8476252"><ele>270.0</ele><time>2026-04-18T08:45:08.045Z</time></trkpt><trkpt lat="42.0935781" lon="11.8475376"><ele>270.0</ele><time>2026-04-18T08:45:09.051Z</time></trkpt><trkpt lat="42.0935437" lon="11.8474517"><ele>267.85714285714283</ele><time>2026-04-18T08:45:10.049Z</time></trkpt><trkpt lat="42.093508" lon="11.8473669"><ele>265.71428571428567</ele><time>2026-04-18T08:45:11.05Z</time></trkpt><trkpt lat="42.0934716" lon="11.8472847"><ele>263.57142857142856</ele><time>2026-04-18T08:45:12.056Z</time></trkpt><trkpt lat="42.0934332" lon="11.8472039"><ele>261.42857142857144</ele><time>2026-04-18T08:45:13.05Z</time></trkpt><trkpt lat="42.0933937" lon="11.8471235"><ele>259.28571428571433</ele><time>2026-04-18T08:45:14.05Z</time></trkpt><trkpt lat="42.0933507" lon="11.8470485"><ele>257.14285714285717</ele><time>2026-04-18T08:45:15.048Z</time></trkpt><trkpt lat="42.0933062" lon="11.8469748"><ele>255.0</ele><time>2026-04-18T08:45:16.047Z</time></trkpt><trkpt lat="42.0932607" lon="11.8469047"><ele>254.66666666666666</ele><time>2026-04-18T08:45:17.046Z</time></trkpt><trkpt lat="42.0931898" lon="11.8468075"><ele>254.33333333333331</ele><time>2026-04-18T08:45:19.04Z</time></trkpt><trkpt lat="42.0931155" lon="11.8467272"><ele>254.0</ele><time>2026-04-18T08:45:21.05Z</time></trkpt><trkpt lat="42.0930055" lon="11.846685"><ele>253.66666666666666</ele><time>2026-04-18T08:45:23.049Z</time></trkpt><trkpt lat="42.0929389" lon="11.8466729"><ele>253.33333333333331</ele><time>2026-04-18T08:45:24.044Z</time></trkpt><trkpt lat="42.09287" lon="11.8466697"><ele>253.0</ele><time>2026-04-18T08:45:25.053Z</time></trkpt><trkpt lat="42.0927959" lon="11.8466842"><ele>252.99999999999997</ele><time>2026-04-18T08:45:26.065Z</time></trkpt><trkpt lat="42.092722" lon="11.8467121"><ele>253.0</ele><time>2026-04-18T08:45:27.056Z</time></trkpt><trkpt lat="42.0926501" lon="11.8467478"><ele>253.0</ele><time>2026-04-18T08:45:28.043Z</time></trkpt><trkpt lat="42.0925862" lon="11.8467825"><ele>253.0</ele><time>2026-04-18T08:45:29.051Z</time></trkpt><trkpt lat="42.0924888" lon="11.8468396"><ele>252.99999999999997</ele><time>2026-04-18T08:45:31.051Z</time></trkpt><trkpt lat="42.092399" lon="11.8468786"><ele>253.0</ele><time>2026-04-18T08:45:33.043Z</time></trkpt><trkpt lat="42.0923083" lon="11.8469013"><ele>252.99999999999997</ele><time>2026-04-18T08:45:35.04Z</time></trkpt><trkpt lat="42.0922312" lon="11.8469059"><ele>253.0</ele><time>2026-04-18T08:45:37.053Z</time></trkpt><trkpt lat="42.0921599" lon="11.8469299"><ele>253.0</ele><time>2026-04-18T08:45:40.042Z</time></trkpt><trkpt lat="42.0922217" lon="11.8469501"><ele>253.0</ele><time>2026-04-18T08:45:45.07Z</time></trkpt><trkpt lat="42.0923311" lon="11.8469203"><ele>252.99999999999997</ele><time>2026-04-18T08:46:10.052Z</time></trkpt><trkpt lat="42.0923931" lon="11.8469036"><ele>253.0</ele><time>2026-04-18T08:46:11.049Z</time></trkpt><trkpt lat="42.0924652" lon="11.8468699"><ele>253.0</ele><time>2026-04-18T08:46:12.059Z</time></trkpt><trkpt lat="42.0925424" lon="11.8468268"><ele>253.0</ele><time>2026-04-18T08:46:13.05Z</time></trkpt><trkpt lat="42.0926266" lon="11.846783"><ele>253.0</ele><time>2026-04-18T08:46:14.052Z</time></trkpt><trkpt lat="42.0927195" lon="11.8467475"><ele>253.0</ele><time>2026-04-18T08:46:15.048Z</time></trkpt><trkpt lat="42.0928179" lon="11.8467202"><ele>253.0</ele><time>2026-04-18T08:46:16.051Z</time></trkpt><trkpt lat="42.092918" lon="11.846714"><ele>253.0</ele><time>2026-04-18T08:46:17.043Z</time></trkpt><trkpt lat="42.0930149" lon="11.8467266"><ele>253.0</ele><time>2026-04-18T08:46:18.052Z</time></trkpt><trkpt lat="42.0931083" lon="11.846769"><ele>253.0</ele><time>2026-04-18T08:46:19.049Z</time></trkpt><trkpt lat="42.0931918" lon="11.8468447"><ele>253.0</ele><time>2026-04-18T08:46:20.044Z</time></trkpt><trkpt lat="42.0932682" lon="11.8469509"><ele>253.0</ele><time>2026-04-18T08:46:21.041Z</time></trkpt><trkpt lat="42.0933377" lon="11.8470662"><ele>253.5</ele><time>2026-04-18T08:46:22.05Z</time></trkpt><trkpt lat="42.0934065" lon="11.8471892"><ele>254.0</ele><time>2026-04-18T08:46:23.043Z</time></trkpt><trkpt lat="42.0934699" lon="11.8473256"><ele>254.5</ele><time>2026-04-18T08:46:24.081Z</time></trkpt><trkpt lat="42.0935326" lon="11.8474674"><ele>255.0</ele><time>2026-04-18T08:46:25.046Z</time></trkpt><trkpt lat="42.0935928" lon="11.8476054"><ele>258.75</ele><time>2026-04-18T08:46:26.047Z</time></trkpt><trkpt lat="42.0936517" lon="11.8477416"><ele>262.5</ele><time>2026-04-18T08:46:27.042Z</time></trkpt><trkpt lat="42.0937096" lon="11.8478757"><ele>266.25</ele><time>2026-04-18T08:46:28.045Z</time></trkpt><trkpt lat="42.093763" lon="11.8480144"><ele>270.0</ele><time>2026-04-18T08:46:29.066Z</time></trkpt><trkpt lat="42.0938098" lon="11.8481648"><ele>270.0</ele><time>2026-04-18T08:46:30.043Z</time></trkpt><trkpt lat="42.0938555" lon="11.8483187"><ele>270.0</ele><time>2026-04-18T08:46:31.048Z</time></trkpt><trkpt lat="42.0939075" lon="11.8484682"><ele>270.0</ele><time>2026-04-18T08:46:32.046Z</time></trkpt><trkpt lat="42.0939609" lon="11.8486183"><ele>270.0</ele><time>2026-04-18T08:46:33.039Z</time></trkpt><trkpt lat="42.0940242" lon="11.8487588"><ele>270.0</ele><time>2026-04-18T08:46:34.043Z</time></trkpt><trkpt lat="42.0940956" lon="11.8488876"><ele>270.0</ele><time>2026-04-18T08:46:35.046Z</time></trkpt><trkpt lat="42.0941667" lon="11.8490169"><ele>270.0</ele><time>2026-04-18T08:46:36.05Z</time></trkpt><trkpt lat="42.0942254" lon="11.8491175"><ele>270.0</ele><time>2026-04-18T08:46:37.047Z</time></trkpt><trkpt lat="42.0942719" lon="11.849202"><ele>270.0</ele><time>2026-04-18T08:46:38.04Z</time></trkpt><trkpt lat="42.0943112" lon="11.8492764"><ele>269.8333333333333</ele><time>2026-04-18T08:46:39.048Z</time></trkpt><trkpt lat="42.0943111" lon="11.8493654"><ele>269.6666666666667</ele><time>2026-04-18T08:46:40.048Z</time></trkpt><trkpt lat="42.0942975" lon="11.8494613"><ele>269.5</ele><time>2026-04-18T08:46:41.044Z</time></trkpt><trkpt lat="42.0942633" lon="11.8495626"><ele>269.33333333333337</ele><time>2026-04-18T08:46:42.045Z</time></trkpt><trkpt lat="42.0942145" lon="11.8496666"><ele>269.1666666666667</ele><time>2026-04-18T08:46:43.048Z</time></trkpt><trkpt lat="42.0941633" lon="11.8497742"><ele>269.0</ele><time>2026-04-18T08:46:44.04Z</time></trkpt><trkpt lat="42.0941065" lon="11.8498686"><ele>270.83333333333337</ele><time>2026-04-18T08:46:45.044Z</time></trkpt><trkpt lat="42.094043" lon="11.8499276"><ele>272.6666666666667</ele><time>2026-04-18T08:46:46.041Z</time></trkpt><trkpt lat="42.0939647" lon="11.8499608"><ele>274.5</ele><time>2026-04-18T08:46:47.041Z</time></trkpt><trkpt lat="42.0938777" lon="11.8499758"><ele>276.3333333333333</ele><time>2026-04-18T08:46:48.043Z</time></trkpt><trkpt lat="42.0937894" lon="11.8499837"><ele>278.16666666666663</ele><time>2026-04-18T08:46:49.047Z</time></trkpt><trkpt lat="42.0936921" lon="11.8499907"><ele>280.0</ele><time>2026-04-18T08:46:50.043Z</time></trkpt><trkpt lat="42.0935932" lon="11.849997"><ele>280.0</ele><time>2026-04-18T08:46:51.041Z</time></trkpt><trkpt lat="42.0935002" lon="11.8499982"><ele>280.0</ele><time>2026-04-18T08:46:52.047Z</time></trkpt><trkpt lat="42.0934223" lon="11.8499971"><ele>280.0</ele><time>2026-04-18T08:46:53.053Z</time></trkpt><trkpt lat="42.09334" lon="11.8499941"><ele>280.0</ele><time>2026-04-18T08:46:55.064Z</time></trkpt><trkpt lat="42.093261" lon="11.8500027"><ele>280.0</ele><time>2026-04-18T08:49:39.057Z</time></trkpt><trkpt lat="42.0931505" lon="11.8500248"><ele>280.0</ele><time>2026-04-18T08:49:52.056Z</time></trkpt><trkpt lat="42.0930805" lon="11.8500429"><ele>281.8</ele><time>2026-04-18T08:49:53.052Z</time></trkpt><trkpt lat="42.0929942" lon="11.8500623"><ele>283.6</ele><time>2026-04-18T08:49:54.046Z</time></trkpt><trkpt lat="42.0928937" lon="11.8500905"><ele>285.4</ele><time>2026-04-18T08:49:55.046Z</time></trkpt><trkpt lat="42.0927872" lon="11.8501249"><ele>287.2</ele><time>2026-04-18T08:49:56.044Z</time></trkpt><trkpt lat="42.0926742" lon="11.8501641"><ele>289.0</ele><time>2026-04-18T08:49:57.045Z</time></trkpt><trkpt lat="42.0925592" lon="11.8502095"><ele>289.0</ele><time>2026-04-18T08:49:58.043Z</time></trkpt><trkpt lat="42.0924475" lon="11.8502659"><ele>289.0</ele><time>2026-04-18T08:49:59.044Z</time></trkpt><trkpt lat="42.0923376" lon="11.8503463"><ele>289.0</ele><time>2026-04-18T08:50:00.057Z</time></trkpt><trkpt lat="42.0922334" lon="11.8504454"><ele>289.0</ele><time>2026-04-18T08:50:01.072Z</time></trkpt><trkpt lat="42.0921507" lon="11.8505466"><ele>288.4</ele><time>2026-04-18T08:50:02.047Z</time></trkpt><trkpt lat="42.0920916" lon="11.8506528"><ele>287.79999999999995</ele><time>2026-04-18T08:50:03.042Z</time></trkpt><trkpt lat="42.0920546" lon="11.8507707"><ele>287.20000000000005</ele><time>2026-04-18T08:50:04.043Z</time></trkpt><trkpt lat="42.0920342" lon="11.8509037"><ele>286.6</ele><time>2026-04-18T08:50:05.054Z</time></trkpt><trkpt lat="42.0920141" lon="11.8510354"><ele>286.0</ele><time>2026-04-18T08:50:06.043Z</time></trkpt><trkpt lat="42.0919659" lon="11.8511579"><ele>288.5</ele><time>2026-04-18T08:50:07.045Z</time></trkpt><trkpt lat="42.0918992" lon="11.8512804"><ele>291.0</ele><time>2026-04-18T08:50:08.043Z</time></trkpt><trkpt lat="42.0918224" lon="11.8514033"><ele>293.5</ele><time>2026-04-18T08:50:09.052Z</time></trkpt><trkpt lat="42.0917465" lon="11.8515212"><ele>296.0</ele><time>2026-04-18T08:50:10.045Z</time></trkpt><trkpt lat="42.0916468" lon="11.8516136"><ele>293.75</ele><time>2026-04-18T08:50:11.054Z</time></trkpt><trkpt lat="42.0915309" lon="11.8516924"><ele>291.5</ele><time>2026-04-18T08:50:12.038Z</time></trkpt><trkpt lat="42.091404" lon="11.8517665"><ele>289.25</ele><time>2026-04-18T08:50:13.049Z</time></trkpt><trkpt lat="42.0912717" lon="11.8518396"><ele>287.0</ele><time>2026-04-18T08:50:14.058Z</time></trkpt><trkpt lat="42.0911428" lon="11.8519169"><ele>291.5</ele><time>2026-04-18T08:50:15.042Z</time></trkpt><trkpt lat="42.0910168" lon="11.8519974"><ele>296.0</ele><time>2026-04-18T08:50:16.053Z</time></trkpt><trkpt lat="42.090901" lon="11.8520833"><ele>300.5</ele><time>2026-04-18T08:50:17.045Z</time></trkpt><trkpt lat="42.0907867" lon="11.8521882"><ele>305.0</ele><time>2026-04-18T08:50:18.06Z</time></trkpt><trkpt lat="42.0906652" lon="11.8522878"><ele>305.0</ele><time>2026-04-18T08:50:19.046Z</time></trkpt><trkpt lat="42.0905336" lon="11.852375"><ele>305.0</ele><time>2026-04-18T08:50:20.046Z</time></trkpt><trkpt lat="42.0903941" lon="11.85244"><ele>305.0</ele><time>2026-04-18T08:50:21.046Z</time></trkpt><trkpt lat="42.0902534" lon="11.8524815"><ele>305.0</ele><time>2026-04-18T08:50:22.044Z</time></trkpt><trkpt lat="42.0901112" lon="11.8525006"><ele>305.0</ele><time>2026-04-18T08:50:23.057Z</time></trkpt><trkpt lat="42.0899639" lon="11.8524967"><ele>305.0</ele><time>2026-04-18T08:50:24.048Z</time></trkpt><trkpt lat="42.0898221" lon="11.8524917"><ele>305.0</ele><time>2026-04-18T08:50:25.049Z</time></trkpt><trkpt lat="42.0896903" lon="11.852475"><ele>305.0</ele><time>2026-04-18T08:50:26.049Z</time></trkpt><trkpt lat="42.0895694" lon="11.8524703"><ele>304.1666666666667</ele><time>2026-04-18T08:50:27.052Z</time></trkpt><trkpt lat="42.0894681" lon="11.8524756"><ele>303.33333333333337</ele><time>2026-04-18T08:50:28.052Z</time></trkpt><trkpt lat="42.0893931" lon="11.8524871"><ele>302.5</ele><time>2026-04-18T08:50:29.047Z</time></trkpt><trkpt lat="42.0892966" lon="11.852499"><ele>301.6666666666667</ele><time>2026-04-18T08:50:31.055Z</time></trkpt><trkpt lat="42.0891963" lon="11.8524587"><ele>300.8333333333333</ele><time>2026-04-18T08:50:33.049Z</time></trkpt><trkpt lat="42.0891425" lon="11.8524101"><ele>300.0</ele><time>2026-04-18T08:50:34.048Z</time></trkpt><trkpt lat="42.0890788" lon="11.8523589"><ele>297.0</ele><time>2026-04-18T08:50:35.05Z</time></trkpt><trkpt lat="42.0890053" lon="11.8522946"><ele>294.0</ele><time>2026-04-18T08:50:36.041Z</time></trkpt><trkpt lat="42.0889216" lon="11.8522119"><ele>291.0</ele><time>2026-04-18T08:50:37.047Z</time></trkpt><trkpt lat="42.0888238" lon="11.8521167"><ele>288.0</ele><time>2026-04-18T08:50:38.053Z</time></trkpt><trkpt lat="42.0887214" lon="11.8520136"><ele>285.0</ele><time>2026-04-18T08:50:39.048Z</time></trkpt><trkpt lat="42.0886294" lon="11.8519112"><ele>285.0</ele><time>2026-04-18T08:50:40.043Z</time></trkpt><trkpt lat="42.0885433" lon="11.8518108"><ele>285.0</ele><time>2026-04-18T08:50:41.06Z</time></trkpt><trkpt lat="42.0884514" lon="11.8517125"><ele>285.0</ele><time>2026-04-18T08:50:42.045Z</time></trkpt><trkpt lat="42.0883586" lon="11.8516269"><ele>285.0</ele><time>2026-04-18T08:50:43.041Z</time></trkpt><trkpt lat="42.0882583" lon="11.8515642"><ele>283.8</ele><time>2026-04-18T08:50:44.049Z</time></trkpt><trkpt lat="42.0881486" lon="11.8515198"><ele>282.6</ele><time>2026-04-18T08:50:45.043Z</time></trkpt><trkpt lat="42.0880376" lon="11.8514969"><ele>281.4</ele><time>2026-04-18T08:50:46.043Z</time></trkpt><trkpt lat="42.0879313" lon="11.85149"><ele>280.2</ele><time>2026-04-18T08:50:47.051Z</time></trkpt><trkpt lat="42.0878255" lon="11.8514948"><ele>279.0</ele><time>2026-04-18T08:50:48.049Z</time></trkpt><trkpt lat="42.0877117" lon="11.8515008"><ele>279.0</ele><time>2026-04-18T08:50:49.046Z</time></trkpt><trkpt lat="42.0875918" lon="11.8515428"><ele>279.0</ele><time>2026-04-18T08:50:50.046Z</time></trkpt><trkpt lat="42.0874636" lon="11.8515865"><ele>279.0</ele><time>2026-04-18T08:50:51.05Z</time></trkpt><trkpt lat="42.0873255" lon="11.8516507"><ele>279.0</ele><time>2026-04-18T08:50:52.061Z</time></trkpt><trkpt lat="42.0871815" lon="11.8517204"><ele>274.0</ele><time>2026-04-18T08:50:53.05Z</time></trkpt><trkpt lat="42.087028" lon="11.8517908"><ele>269.0</ele><time>2026-04-18T08:50:54.053Z</time></trkpt><trkpt lat="42.0868695" lon="11.8518651"><ele>264.0</ele><time>2026-04-18T08:50:55.053Z</time></trkpt><trkpt lat="42.0867089" lon="11.8519429"><ele>260.6666666666667</ele><time>2026-04-18T08:50:56.056Z</time></trkpt><trkpt lat="42.086544" lon="11.8520226"><ele>257.33333333333337</ele><time>2026-04-18T08:50:57.047Z</time></trkpt><trkpt lat="42.0863721" lon="11.852104"><ele>254.0</ele><time>2026-04-18T08:50:58.047Z</time></trkpt><trkpt lat="42.0861986" lon="11.8521847"><ele>254.0</ele><time>2026-04-18T08:50:59.048Z</time></trkpt><trkpt lat="42.0860277" lon="11.8522678"><ele>254.0</ele><time>2026-04-18T08:51:00.061Z</time></trkpt><trkpt lat="42.0858672" lon="11.8523483"><ele>254.0</ele><time>2026-04-18T08:51:01.046Z</time></trkpt><trkpt lat="42.0857198" lon="11.8524351"><ele>253.0</ele><time>2026-04-18T08:51:02.047Z</time></trkpt><trkpt lat="42.0855856" lon="11.8525275"><ele>252.0</ele><time>2026-04-18T08:51:03.053Z</time></trkpt><trkpt lat="42.0854631" lon="11.8526125"><ele>251.0</ele><time>2026-04-18T08:51:04.048Z</time></trkpt><trkpt lat="42.0853568" lon="11.8526768"><ele>250.0</ele><time>2026-04-18T08:51:05.044Z</time></trkpt><trkpt lat="42.0852595" lon="11.8527198"><ele>249.0</ele><time>2026-04-18T08:51:06.049Z</time></trkpt><trkpt lat="42.0851624" lon="11.8527318"><ele>248.0</ele><time>2026-04-18T08:51:07.043Z</time></trkpt><trkpt lat="42.0850608" lon="11.8527149"><ele>247.0</ele><time>2026-04-18T08:51:08.047Z</time></trkpt><trkpt lat="42.0849493" lon="11.8526741"><ele>246.0</ele><time>2026-04-18T08:51:09.05Z</time></trkpt><trkpt lat="42.0848332" lon="11.8526128"><ele>245.0</ele><time>2026-04-18T08:51:10.046Z</time></trkpt><trkpt lat="42.0847155" lon="11.8525387"><ele>243.25</ele><time>2026-04-18T08:51:11.061Z</time></trkpt><trkpt lat="42.0846017" lon="11.8524573"><ele>241.5</ele><time>2026-04-18T08:51:12.046Z</time></trkpt><trkpt lat="42.0844866" lon="11.8523776"><ele>239.75</ele><time>2026-04-18T08:51:13.039Z</time></trkpt><trkpt lat="42.084369" lon="11.8523051"><ele>238.0</ele><time>2026-04-18T08:51:14.049Z</time></trkpt><trkpt lat="42.0842461" lon="11.8522319"><ele>238.0</ele><time>2026-04-18T08:51:15.051Z</time></trkpt><trkpt lat="42.0841205" lon="11.8521509"><ele>238.0</ele><time>2026-04-18T08:51:16.06Z</time></trkpt><trkpt lat="42.0839948" lon="11.8520542"><ele>238.0</ele><time>2026-04-18T08:51:17.052Z</time></trkpt><trkpt lat="42.0838723" lon="11.85195"><ele>238.0</ele><time>2026-04-18T08:51:18.043Z</time></trkpt><trkpt lat="42.0837578" lon="11.8518484"><ele>236.75</ele><time>2026-04-18T08:51:19.046Z</time></trkpt><trkpt lat="42.0836474" lon="11.8517474"><ele>235.5</ele><time>2026-04-18T08:51:20.059Z</time></trkpt><trkpt lat="42.0835393" lon="11.851656"><ele>234.25</ele><time>2026-04-18T08:51:21.051Z</time></trkpt><trkpt lat="42.0834298" lon="11.8515665"><ele>233.0</ele><time>2026-04-18T08:51:22.052Z</time></trkpt><trkpt lat="42.0833164" lon="11.8514856"><ele>231.0</ele><time>2026-04-18T08:51:23.042Z</time></trkpt><trkpt lat="42.0831956" lon="11.8514101"><ele>229.0</ele><time>2026-04-18T08:51:24.051Z</time></trkpt><trkpt lat="42.0830712" lon="11.8513483"><ele>227.0</ele><time>2026-04-18T08:51:25.047Z</time></trkpt><trkpt lat="42.0829416" lon="11.8512944"><ele>225.0</ele><time>2026-04-18T08:51:26.043Z</time></trkpt><trkpt lat="42.0828114" lon="11.8512461"><ele>225.0</ele><time>2026-04-18T08:51:27.045Z</time></trkpt><trkpt lat="42.0826876" lon="11.8512041"><ele>225.0</ele><time>2026-04-18T08:51:28.044Z</time></trkpt><trkpt lat="42.0825644" lon="11.8511644"><ele>225.0</ele><time>2026-04-18T08:51:29.049Z</time></trkpt><trkpt lat="42.082451" lon="11.8511283"><ele>225.0</ele><time>2026-04-18T08:51:30.052Z</time></trkpt><trkpt lat="42.0823493" lon="11.8510966"><ele>223.33333333333334</ele><time>2026-04-18T08:51:31.05Z</time></trkpt><trkpt lat="42.082261" lon="11.851069"><ele>221.66666666666669</ele><time>2026-04-18T08:51:32.061Z</time></trkpt><trkpt lat="42.0821864" lon="11.8510508"><ele>220.0</ele><time>2026-04-18T08:51:33.054Z</time></trkpt><trkpt lat="42.082089" lon="11.8510427"><ele>218.33333333333334</ele><time>2026-04-18T08:51:35.046Z</time></trkpt><trkpt lat="42.0820554" lon="11.8511319"><ele>216.66666666666669</ele><time>2026-04-18T08:51:38.046Z</time></trkpt><trkpt lat="42.0821241" lon="11.8512097"><ele>215.0</ele><time>2026-04-18T08:51:40.044Z</time></trkpt><trkpt lat="42.0821855" lon="11.8512578"><ele>215.0</ele><time>2026-04-18T08:51:41.052Z</time></trkpt><trkpt lat="42.0822517" lon="11.8513154"><ele>215.0</ele><time>2026-04-18T08:51:42.047Z</time></trkpt><trkpt lat="42.0823348" lon="11.8513927"><ele>215.0</ele><time>2026-04-18T08:51:43.052Z</time></trkpt><trkpt lat="42.0824243" lon="11.8514945"><ele>215.0</ele><time>2026-04-18T08:51:44.05Z</time></trkpt><trkpt lat="42.0825132" lon="11.8516217"><ele>215.0</ele><time>2026-04-18T08:51:45.051Z</time></trkpt><trkpt lat="42.0825985" lon="11.8517608"><ele>215.75</ele><time>2026-04-18T08:51:46.052Z</time></trkpt><trkpt lat="42.08268" lon="11.851911"><ele>216.5</ele><time>2026-04-18T08:51:47.044Z</time></trkpt><trkpt lat="42.0827642" lon="11.8520677"><ele>217.25</ele><time>2026-04-18T08:51:48.04Z</time></trkpt><trkpt lat="42.0828498" lon="11.852221"><ele>218.0</ele><time>2026-04-18T08:51:49.051Z</time></trkpt><trkpt lat="42.082929" lon="11.852365"><ele>218.0</ele><time>2026-04-18T08:51:50.047Z</time></trkpt><trkpt lat="42.0829997" lon="11.8525011"><ele>218.0</ele><time>2026-04-18T08:51:51.039Z</time></trkpt><trkpt lat="42.0830649" lon="11.8526401"><ele>218.0</ele><time>2026-04-18T08:51:52.039Z</time></trkpt><trkpt lat="42.0831266" lon="11.8527705"><ele>218.0</ele><time>2026-04-18T08:51:53.046Z</time></trkpt><trkpt lat="42.0831802" lon="11.8528841"><ele>218.66666666666669</ele><time>2026-04-18T08:51:54.048Z</time></trkpt><trkpt lat="42.0832236" lon="11.8529827"><ele>219.33333333333334</ele><time>2026-04-18T08:51:55.044Z</time></trkpt><trkpt lat="42.0832541" lon="11.8530632"><ele>220.0</ele><time>2026-04-18T08:51:56.04Z</time></trkpt><trkpt lat="42.0832742" lon="11.8531788"><ele>220.66666666666669</ele><time>2026-04-18T08:51:58.042Z</time></trkpt><trkpt lat="42.0832616" lon="11.8532907"><ele>221.33333333333334</ele><time>2026-04-18T08:52:01.062Z</time></trkpt><trkpt lat="42.0832687" lon="11.8534266"><ele>222.0</ele><time>2026-04-18T08:52:07.05Z</time></trkpt><trkpt lat="42.0832907" lon="11.8535296"><ele>220.6</ele><time>2026-04-18T08:52:38.045Z</time></trkpt><trkpt lat="42.0832529" lon="11.8536748"><ele>219.2</ele><time>2026-04-18T08:52:40.05Z</time></trkpt><trkpt lat="42.083227" lon="11.8537666"><ele>217.8</ele><time>2026-04-18T08:52:41.045Z</time></trkpt><trkpt lat="42.0832032" lon="11.8538681"><ele>216.4</ele><time>2026-04-18T08:52:42.071Z</time></trkpt><trkpt lat="42.083182" lon="11.853986"><ele>215.0</ele><time>2026-04-18T08:52:43.047Z</time></trkpt><trkpt lat="42.0831664" lon="11.8541166"><ele>215.00000000000003</ele><time>2026-04-18T08:52:44.073Z</time></trkpt><trkpt lat="42.0831546" lon="11.8542454"><ele>215.0</ele><time>2026-04-18T08:52:45.05Z</time></trkpt><trkpt lat="42.0831453" lon="11.8543667"><ele>215.0</ele><time>2026-04-18T08:52:46.046Z</time></trkpt><trkpt lat="42.0831388" lon="11.8544908"><ele>215.0</ele><time>2026-04-18T08:52:47.044Z</time></trkpt><trkpt lat="42.0831334" lon="11.8546039"><ele>215.00000000000003</ele><time>2026-04-18T08:52:48.057Z</time></trkpt><trkpt lat="42.0831418" lon="11.8547133"><ele>215.0</ele><time>2026-04-18T08:52:49.053Z</time></trkpt><trkpt lat="42.0831396" lon="11.8548251"><ele>212.8</ele><time>2026-04-18T08:52:50.057Z</time></trkpt><trkpt lat="42.0831226" lon="11.8549419"><ele>210.6</ele><time>2026-04-18T08:52:51.048Z</time></trkpt><trkpt lat="42.0831025" lon="11.855062"><ele>208.39999999999998</ele><time>2026-04-18T08:52:52.047Z</time></trkpt><trkpt lat="42.0830643" lon="11.8551953"><ele>206.2</ele><time>2026-04-18T08:52:53.051Z</time></trkpt><trkpt lat="42.0830236" lon="11.8553284"><ele>204.0</ele><time>2026-04-18T08:52:54.051Z</time></trkpt><trkpt lat="42.0829772" lon="11.8554527"><ele>203.16666666666666</ele><time>2026-04-18T08:52:55.043Z</time></trkpt><trkpt lat="42.0829384" lon="11.8555592"><ele>202.33333333333331</ele><time>2026-04-18T08:52:56.044Z</time></trkpt><trkpt lat="42.0828998" lon="11.8556575"><ele>201.5</ele><time>2026-04-18T08:52:57.046Z</time></trkpt><trkpt lat="42.0828642" lon="11.8557582"><ele>200.66666666666666</ele><time>2026-04-18T08:52:58.038Z</time></trkpt><trkpt lat="42.0828322" lon="11.8558523"><ele>199.83333333333331</ele><time>2026-04-18T08:52:59.045Z</time></trkpt><trkpt lat="42.082812" lon="11.8559501"><ele>199.0</ele><time>2026-04-18T08:53:00.042Z</time></trkpt><trkpt lat="42.0827897" lon="11.8560445"><ele>197.99999999999997</ele><time>2026-04-18T08:53:01.043Z</time></trkpt><trkpt lat="42.0827906" lon="11.8561463"><ele>197.0</ele><time>2026-04-18T08:53:02.046Z</time></trkpt><trkpt lat="42.0828026" lon="11.8562448"><ele>196.0</ele><time>2026-04-18T08:53:03.04Z</time></trkpt><trkpt lat="42.0828228" lon="11.856341"><ele>195.0</ele><time>2026-04-18T08:53:04.039Z</time></trkpt><trkpt lat="42.0828476" lon="11.8564412"><ele>193.99999999999997</ele><time>2026-04-18T08:53:05.043Z</time></trkpt><trkpt lat="42.082881" lon="11.8565476"><ele>193.0</ele><time>2026-04-18T08:53:06.061Z</time></trkpt><trkpt lat="42.082916" lon="11.8566542"><ele>193.0</ele><time>2026-04-18T08:53:07.047Z</time></trkpt><trkpt lat="42.0829776" lon="11.8567559"><ele>193.0</ele><time>2026-04-18T08:53:08.049Z</time></trkpt><trkpt lat="42.0830527" lon="11.8568481"><ele>193.0</ele><time>2026-04-18T08:53:09.046Z</time></trkpt><trkpt lat="42.0831356" lon="11.856934"><ele>193.0</ele><time>2026-04-18T08:53:10.045Z</time></trkpt><trkpt lat="42.0832212" lon="11.8570193"><ele>193.0</ele><time>2026-04-18T08:53:11.046Z</time></trkpt><trkpt lat="42.0833011" lon="11.8570965"><ele>193.0</ele><time>2026-04-18T08:53:12.053Z</time></trkpt><trkpt lat="42.0833773" lon="11.8571654"><ele>193.0</ele><time>2026-04-18T08:53:13.046Z</time></trkpt><trkpt lat="42.0834656" lon="11.857232"><ele>193.0</ele><time>2026-04-18T08:53:14.044Z</time></trkpt><trkpt lat="42.0835664" lon="11.8572874"><ele>193.0</ele><time>2026-04-18T08:53:15.046Z</time></trkpt><trkpt lat="42.0836746" lon="11.8573269"><ele>193.0</ele><time>2026-04-18T08:53:16.054Z</time></trkpt><trkpt lat="42.0837827" lon="11.857357"><ele>193.0</ele><time>2026-04-18T08:53:17.041Z</time></trkpt><trkpt lat="42.0838866" lon="11.8573854"><ele>193.0</ele><time>2026-04-18T08:53:18.047Z</time></trkpt><trkpt lat="42.0839793" lon="11.8574105"><ele>193.0</ele><time>2026-04-18T08:53:19.048Z</time></trkpt><trkpt lat="42.0840674" lon="11.857433"><ele>193.0</ele><time>2026-04-18T08:53:20.041Z</time></trkpt><trkpt lat="42.0841504" lon="11.8574506"><ele>193.0</ele><time>2026-04-18T08:53:21.051Z</time></trkpt><trkpt lat="42.0842297" lon="11.85747"><ele>194.16666666666666</ele><time>2026-04-18T08:53:22.045Z</time></trkpt><trkpt lat="42.0842989" lon="11.857486"><ele>195.33333333333331</ele><time>2026-04-18T08:53:23.046Z</time></trkpt><trkpt lat="42.0843788" lon="11.8575273"><ele>196.5</ele><time>2026-04-18T08:53:25.05Z</time></trkpt><trkpt lat="42.0843822" lon="11.8576351"><ele>197.66666666666669</ele><time>2026-04-18T08:53:27.044Z</time></trkpt><trkpt lat="42.0843298" lon="11.8577243"><ele>198.83333333333334</ele><time>2026-04-18T08:53:28.051Z</time></trkpt><trkpt lat="42.0842659" lon="11.857828"><ele>200.0</ele><time>2026-04-18T08:53:29.05Z</time></trkpt><trkpt lat="42.0842022" lon="11.8579394"><ele>200.00000000000003</ele><time>2026-04-18T08:53:30.043Z</time></trkpt><trkpt lat="42.0841413" lon="11.8580462"><ele>200.0</ele><time>2026-04-18T08:53:31.049Z</time></trkpt><trkpt lat="42.08409" lon="11.8581464"><ele>200.0</ele><time>2026-04-18T08:53:32.047Z</time></trkpt><trkpt lat="42.0840422" lon="11.8582422"><ele>200.0</ele><time>2026-04-18T08:53:33.044Z</time></trkpt><trkpt lat="42.0839989" lon="11.8583272"><ele>200.00000000000003</ele><time>2026-04-18T08:53:34.044Z</time></trkpt><trkpt lat="42.0839623" lon="11.8584167"><ele>200.0</ele><time>2026-04-18T08:53:35.056Z</time></trkpt><trkpt lat="42.0839293" lon="11.8585005"><ele>197.83333333333334</ele><time>2026-04-18T08:53:36.042Z</time></trkpt><trkpt lat="42.0838965" lon="11.858622"><ele>195.66666666666669</ele><time>2026-04-18T08:53:38.047Z</time></trkpt><trkpt lat="42.0839406" lon="11.8587423"><ele>193.5</ele><time>2026-04-18T08:53:40.051Z</time></trkpt><trkpt lat="42.0840208" lon="11.8588562"><ele>191.33333333333334</ele><time>2026-04-18T08:53:42.041Z</time></trkpt><trkpt lat="42.0840703" lon="11.8589087"><ele>189.16666666666669</ele><time>2026-04-18T08:53:43.055Z</time></trkpt><trkpt lat="42.084126" lon="11.8589646"><ele>187.0</ele><time>2026-04-18T08:53:44.053Z</time></trkpt><trkpt lat="42.084195" lon="11.859051"><ele>187.0</ele><time>2026-04-18T08:53:46.038Z</time></trkpt><trkpt lat="42.0842376" lon="11.859152"><ele>187.0</ele><time>2026-04-18T08:53:56.048Z</time></trkpt><trkpt lat="42.0842937" lon="11.8592195"><ele>187.0</ele><time>2026-04-18T08:54:09.045Z</time></trkpt><trkpt lat="42.0843509" lon="11.8593045"><ele>187.0</ele><time>2026-04-18T08:54:12.037Z</time></trkpt><trkpt lat="42.0843831" lon="11.8593943"><ele>187.0</ele><time>2026-04-18T08:54:15.045Z</time></trkpt><trkpt lat="42.0843993" lon="11.859506"><ele>187.0</ele><time>2026-04-18T08:54:22.042Z</time></trkpt><trkpt lat="42.0844139" lon="11.8596235"><ele>183.83333333333334</ele><time>2026-04-18T08:54:25.056Z</time></trkpt><trkpt lat="42.0844201" lon="11.8597154"><ele>180.66666666666669</ele><time>2026-04-18T08:54:27.046Z</time></trkpt><trkpt lat="42.0844269" lon="11.8598171"><ele>177.5</ele><time>2026-04-18T08:54:30.056Z</time></trkpt><trkpt lat="42.0844431" lon="11.8599088"><ele>174.33333333333334</ele><time>2026-04-18T08:54:32.043Z</time></trkpt><trkpt lat="42.0844988" lon="11.8600155"><ele>171.16666666666666</ele><time>2026-04-18T08:54:34.039Z</time></trkpt><trkpt lat="42.0845901" lon="11.8600874"><ele>168.0</ele><time>2026-04-18T08:54:36.039Z</time></trkpt><trkpt lat="42.0847045" lon="11.8601322"><ele>166.0</ele><time>2026-04-18T08:54:38.047Z</time></trkpt><trkpt lat="42.084772" lon="11.8601569"><ele>164.0</ele><time>2026-04-18T08:54:39.046Z</time></trkpt><trkpt lat="42.0848397" lon="11.8601872"><ele>162.0</ele><time>2026-04-18T08:54:40.037Z</time></trkpt><trkpt lat="42.0849182" lon="11.860215"><ele>160.0</ele><time>2026-04-18T08:54:41.047Z</time></trkpt><trkpt lat="42.0850033" lon="11.8602385"><ele>158.0</ele><time>2026-04-18T08:54:42.04Z</time></trkpt><trkpt lat="42.0850882" lon="11.8602508"><ele>156.0</ele><time>2026-04-18T08:54:43.039Z</time></trkpt><trkpt lat="42.0851634" lon="11.860265"><ele>156.0</ele><time>2026-04-18T08:54:44.05Z</time></trkpt><trkpt lat="42.0852324" lon="11.8602769"><ele>156.0</ele><time>2026-04-18T08:54:45.039Z</time></trkpt><trkpt lat="42.0853029" lon="11.8602942"><ele>156.0</ele><time>2026-04-18T08:54:46.038Z</time></trkpt><trkpt lat="42.0853731" lon="11.8603192"><ele>156.0</ele><time>2026-04-18T08:54:47.037Z</time></trkpt><trkpt lat="42.0854393" lon="11.8603493"><ele>156.0</ele><time>2026-04-18T08:54:48.043Z</time></trkpt><trkpt lat="42.0855041" lon="11.8604154"><ele>156.0</ele><time>2026-04-18T08:54:49.039Z</time></trkpt><trkpt lat="42.0855682" lon="11.8604924"><ele>156.0</ele><time>2026-04-18T08:54:50.04Z</time></trkpt><trkpt lat="42.0856317" lon="11.860581"><ele>156.0</ele><time>2026-04-18T08:54:51.038Z</time></trkpt><trkpt lat="42.0856896" lon="11.8606826"><ele>156.0</ele><time>2026-04-18T08:54:52.037Z</time></trkpt><trkpt lat="42.085753" lon="11.8608134"><ele>156.0</ele><time>2026-04-18T08:54:53.038Z</time></trkpt><trkpt lat="42.0858174" lon="11.8609268"><ele>156.0</ele><time>2026-04-18T08:54:54.043Z</time></trkpt><trkpt lat="42.0858894" lon="11.8610368"><ele>155.0</ele><time>2026-04-18T08:54:55.043Z</time></trkpt><trkpt lat="42.0859567" lon="11.8611522"><ele>154.0</ele><time>2026-04-18T08:54:56.042Z</time></trkpt><trkpt lat="42.0860169" lon="11.8612723"><ele>153.0</ele><time>2026-04-18T08:54:57.047Z</time></trkpt><trkpt lat="42.086071" lon="11.8613742"><ele>152.0</ele><time>2026-04-18T08:54:58.044Z</time></trkpt><trkpt lat="42.0861343" lon="11.8614712"><ele>151.0</ele><time>2026-04-18T08:54:59.063Z</time></trkpt><trkpt lat="42.086196" lon="11.8615791"><ele>151.0</ele><time>2026-04-18T08:55:00.042Z</time></trkpt><trkpt lat="42.086242" lon="11.8616887"><ele>151.0</ele><time>2026-04-18T08:55:01.052Z</time></trkpt><trkpt lat="42.0862687" lon="11.8617978"><ele>151.0</ele><time>2026-04-18T08:55:02.043Z</time></trkpt><trkpt lat="42.0862797" lon="11.8619021"><ele>151.0</ele><time>2026-04-18T08:55:03.053Z</time></trkpt><trkpt lat="42.0862806" lon="11.8619966"><ele>151.0</ele><time>2026-04-18T08:55:04.039Z</time></trkpt><trkpt lat="42.08627" lon="11.8620897"><ele>151.0</ele><time>2026-04-18T08:55:05.043Z</time></trkpt><trkpt lat="42.0862591" lon="11.8621808"><ele>149.5</ele><time>2026-04-18T08:55:06.044Z</time></trkpt><trkpt lat="42.0862442" lon="11.8622744"><ele>148.0</ele><time>2026-04-18T08:55:07.046Z</time></trkpt><trkpt lat="42.0862273" lon="11.8623727"><ele>146.5</ele><time>2026-04-18T08:55:08.047Z</time></trkpt><trkpt lat="42.0862091" lon="11.8624643"><ele>145.0</ele><time>2026-04-18T08:55:09.045Z</time></trkpt><trkpt lat="42.0861889" lon="11.8625521"><ele>143.5</ele><time>2026-04-18T08:55:10.046Z</time></trkpt><trkpt lat="42.0861695" lon="11.8626342"><ele>142.0</ele><time>2026-04-18T08:55:11.044Z</time></trkpt><trkpt lat="42.0860839" lon="11.8627302"><ele>141.33333333333334</ele><time>2026-04-18T08:55:13.042Z</time></trkpt><trkpt lat="42.0859988" lon="11.8627569"><ele>140.66666666666669</ele><time>2026-04-18T08:55:15.049Z</time></trkpt><trkpt lat="42.0859304" lon="11.862749"><ele>140.0</ele><time>2026-04-18T08:55:17.044Z</time></trkpt><trkpt lat="42.085838" lon="11.8627503"><ele>139.33333333333334</ele><time>2026-04-18T08:55:19.044Z</time></trkpt><trkpt lat="42.0857178" lon="11.8627592"><ele>138.66666666666666</ele><time>2026-04-18T08:55:21.049Z</time></trkpt><trkpt lat="42.0856537" lon="11.8627577"><ele>138.0</ele><time>2026-04-18T08:55:22.048Z</time></trkpt><trkpt lat="42.0855875" lon="11.862753"><ele>136.8</ele><time>2026-04-18T08:55:23.048Z</time></trkpt><trkpt lat="42.0854858" lon="11.8626754"><ele>135.60000000000002</ele><time>2026-04-18T08:55:25.041Z</time></trkpt><trkpt lat="42.0853952" lon="11.8625586"><ele>134.39999999999998</ele><time>2026-04-18T08:55:27.046Z</time></trkpt><trkpt lat="42.0853346" lon="11.8624937"><ele>133.2</ele><time>2026-04-18T08:55:28.045Z</time></trkpt><trkpt lat="42.085258" lon="11.8624424"><ele>132.0</ele><time>2026-04-18T08:55:29.04Z</time></trkpt><trkpt lat="42.0851718" lon="11.8624193"><ele>132.0</ele><time>2026-04-18T08:55:30.044Z</time></trkpt><trkpt lat="42.085089" lon="11.8624077"><ele>132.0</ele><time>2026-04-18T08:55:31.047Z</time></trkpt><trkpt lat="42.0850077" lon="11.8623789"><ele>132.0</ele><time>2026-04-18T08:55:32.056Z</time></trkpt><trkpt lat="42.0849355" lon="11.8623833"><ele>132.0</ele><time>2026-04-18T08:55:33.046Z</time></trkpt><trkpt lat="42.0848694" lon="11.8623799"><ele>132.0</ele><time>2026-04-18T08:55:34.047Z</time></trkpt><trkpt lat="42.084802" lon="11.862365"><ele>132.0</ele><time>2026-04-18T08:55:35.049Z</time></trkpt><trkpt lat="42.0847395" lon="11.8623456"><ele>132.0</ele><time>2026-04-18T08:55:36.045Z</time></trkpt><trkpt lat="42.0846771" lon="11.8622946"><ele>130.5</ele><time>2026-04-18T08:55:37.036Z</time></trkpt><trkpt lat="42.0845981" lon="11.8622334"><ele>129.0</ele><time>2026-04-18T08:55:38.045Z</time></trkpt><trkpt lat="42.0845167" lon="11.8621819"><ele>127.5</ele><time>2026-04-18T08:55:39.051Z</time></trkpt><trkpt lat="42.0844453" lon="11.8621426"><ele>126.0</ele><time>2026-04-18T08:55:40.046Z</time></trkpt><trkpt lat="42.0843759" lon="11.8621024"><ele>124.5</ele><time>2026-04-18T08:55:41.047Z</time></trkpt><trkpt lat="42.0843138" lon="11.8620735"><ele>123.0</ele><time>2026-04-18T08:55:42.044Z</time></trkpt><trkpt lat="42.0842167" lon="11.8620314"><ele>123.0</ele><time>2026-04-18T08:55:44.043Z</time></trkpt><trkpt lat="42.0841502" lon="11.8619991"><ele>123.00000000000001</ele><time>2026-04-18T08:55:47.062Z</time></trkpt><trkpt lat="42.0840892" lon="11.8620277"><ele>123.00000000000001</ele><time>2026-04-18T08:55:50.045Z</time></trkpt><trkpt lat="42.0840208" lon="11.8620933"><ele>123.0</ele><time>2026-04-18T08:55:52.05Z</time></trkpt><trkpt lat="42.0839139" lon="11.8621912"><ele>123.0</ele><time>2026-04-18T08:55:54.046Z</time></trkpt><trkpt lat="42.0838043" lon="11.8622305"><ele>121.5</ele><time>2026-04-18T08:55:56.038Z</time></trkpt><trkpt lat="42.0837041" lon="11.8622535"><ele>120.0</ele><time>2026-04-18T08:55:58.04Z</time></trkpt><trkpt lat="42.0836215" lon="11.862375"><ele>118.5</ele><time>2026-04-18T08:56:00.05Z</time></trkpt><trkpt lat="42.0835702" lon="11.8624307"><ele>117.0</ele><time>2026-04-18T08:56:01.044Z</time></trkpt><trkpt lat="42.0835129" lon="11.8624758"><ele>115.5</ele><time>2026-04-18T08:56:02.045Z</time></trkpt><trkpt lat="42.0834501" lon="11.862505"><ele>114.0</ele><time>2026-04-18T08:56:03.053Z</time></trkpt><trkpt lat="42.0833851" lon="11.8625397"><ele>114.0</ele><time>2026-04-18T08:56:04.041Z</time></trkpt><trkpt lat="42.0833207" lon="11.8625712"><ele>113.99999999999999</ele><time>2026-04-18T08:56:05.04Z</time></trkpt><trkpt lat="42.083261" lon="11.8626061"><ele>114.0</ele><time>2026-04-18T08:56:06.042Z</time></trkpt><trkpt lat="42.0831941" lon="11.8626718"><ele>114.0</ele><time>2026-04-18T08:56:08.052Z</time></trkpt><trkpt lat="42.0831935" lon="11.8627674"><ele>113.99999999999999</ele><time>2026-04-18T08:56:19.05Z</time></trkpt><trkpt lat="42.0831948" lon="11.8628763"><ele>114.0</ele><time>2026-04-18T08:56:21.054Z</time></trkpt><trkpt lat="42.0831883" lon="11.8629735"><ele>114.0</ele><time>2026-04-18T08:56:23.046Z</time></trkpt><trkpt lat="42.0831891" lon="11.8631001"><ele>111.2</ele><time>2026-04-18T08:56:25.045Z</time></trkpt><trkpt lat="42.0831981" lon="11.8632349"><ele>108.4</ele><time>2026-04-18T08:56:27.044Z</time></trkpt><trkpt lat="42.0832214" lon="11.863385"><ele>105.6</ele><time>2026-04-18T08:56:29.047Z</time></trkpt><trkpt lat="42.0832612" lon="11.8635275"><ele>102.8</ele><time>2026-04-18T08:56:31.049Z</time></trkpt><trkpt lat="42.0832869" lon="11.8636733"><ele>100.0</ele><time>2026-04-18T08:56:33.038Z</time></trkpt><trkpt lat="42.0833108" lon="11.8638366"><ele>100.00000000000001</ele><time>2026-04-18T08:56:35.041Z</time></trkpt><trkpt lat="42.0833331" lon="11.863935"><ele>100.0</ele><time>2026-04-18T08:56:36.043Z</time></trkpt><trkpt lat="42.0833508" lon="11.8640495"><ele>100.0</ele><time>2026-04-18T08:56:37.041Z</time></trkpt><trkpt lat="42.0833724" lon="11.8641519"><ele>100.0</ele><time>2026-04-18T08:56:38.049Z</time></trkpt><trkpt lat="42.083392" lon="11.8642624"><ele>100.00000000000001</ele><time>2026-04-18T08:56:39.042Z</time></trkpt><trkpt lat="42.0834076" lon="11.8643482"><ele>100.0</ele><time>2026-04-18T08:56:40.045Z</time></trkpt><trkpt lat="42.0833774" lon="11.8644355"><ele>99.50000000000001</ele><time>2026-04-18T08:56:42.04Z</time></trkpt><trkpt lat="42.0832958" lon="11.8644714"><ele>99.0</ele><time>2026-04-18T08:56:46.042Z</time></trkpt><trkpt lat="42.0832011" lon="11.8644951"><ele>98.5</ele><time>2026-04-18T08:56:48.044Z</time></trkpt><trkpt lat="42.0831139" lon="11.8645355"><ele>98.0</ele><time>2026-04-18T08:56:50.047Z</time></trkpt><trkpt lat="42.0830805" lon="11.8646086"><ele>97.50000000000001</ele><time>2026-04-18T08:56:53.039Z</time></trkpt><trkpt lat="42.0830997" lon="11.8647082"><ele>97.0</ele><time>2026-04-18T08:56:55.049Z</time></trkpt><trkpt lat="42.0830925" lon="11.8648334"><ele>97.00000000000001</ele><time>2026-04-18T08:56:57.043Z</time></trkpt><trkpt lat="42.0830788" lon="11.8649462"><ele>97.0</ele><time>2026-04-18T08:56:59.049Z</time></trkpt><trkpt lat="42.083123" lon="11.8650297"><ele>97.0</ele><time>2026-04-18T08:57:10.048Z</time></trkpt><trkpt lat="42.0832144" lon="11.8650783"><ele>97.0</ele><time>2026-04-18T08:57:13.046Z</time></trkpt><trkpt lat="42.0832752" lon="11.8651161"><ele>97.00000000000001</ele><time>2026-04-18T08:57:15.051Z</time></trkpt><trkpt lat="42.0833472" lon="11.8651407"><ele>97.0</ele><time>2026-04-18T08:57:17.045Z</time></trkpt><trkpt lat="42.0834117" lon="11.8651802"><ele>97.50000000000001</ele><time>2026-04-18T08:57:19.045Z</time></trkpt><trkpt lat="42.0835104" lon="11.8652322"><ele>98.0</ele><time>2026-04-18T08:57:21.04Z</time></trkpt><trkpt lat="42.0835731" lon="11.8652896"><ele>98.5</ele><time>2026-04-18T08:57:23.049Z</time></trkpt><trkpt lat="42.0835911" lon="11.865374"><ele>99.0</ele><time>2026-04-18T09:00:56.044Z</time></trkpt><trkpt lat="42.0835962" lon="11.8654807"><ele>99.50000000000001</ele><time>2026-04-18T09:00:58.047Z</time></trkpt><trkpt lat="42.0835863" lon="11.8656304"><ele>100.0</ele><time>2026-04-18T09:01:00.051Z</time></trkpt><trkpt lat="42.0835543" lon="11.8657287"><ele>100.00000000000001</ele><time>2026-04-18T09:01:02.044Z</time></trkpt><trkpt lat="42.0834639" lon="11.8657684"><ele>100.0</ele><time>2026-04-18T09:01:05.046Z</time></trkpt><trkpt lat="42.0833769" lon="11.8657245"><ele>100.0</ele><time>2026-04-18T09:01:07.044Z</time></trkpt><trkpt lat="42.0833052" lon="11.8657365"><ele>100.0</ele><time>2026-04-18T09:01:15.046Z</time></trkpt><trkpt lat="42.0832678" lon="11.8658114"><ele>100.00000000000001</ele><time>2026-04-18T09:01:17.043Z</time></trkpt><trkpt lat="42.08322" lon="11.8658853"><ele>100.0</ele><time>2026-04-18T09:01:19.042Z</time></trkpt><trkpt lat="42.0831684" lon="11.8660002"><ele>104.4</ele><time>2026-04-18T09:01:21.049Z</time></trkpt><trkpt lat="42.0831063" lon="11.8661433"><ele>108.8</ele><time>2026-04-18T09:01:23.051Z</time></trkpt><trkpt lat="42.0830507" lon="11.8662615"><ele>113.19999999999999</ele><time>2026-04-18T09:01:25.051Z</time></trkpt><trkpt lat="42.0829901" lon="11.8663301"><ele>117.6</ele><time>2026-04-18T09:01:27.047Z</time></trkpt><trkpt lat="42.0828816" lon="11.8663727"><ele>122.0</ele><time>2026-04-18T09:01:29.046Z</time></trkpt><trkpt lat="42.0827922" lon="11.8663988"><ele>122.0</ele><time>2026-04-18T09:01:31.039Z</time></trkpt><trkpt lat="42.0827113" lon="11.8663962"><ele>121.99999999999999</ele><time>2026-04-18T09:01:33.047Z</time></trkpt><trkpt lat="42.0826122" lon="11.8663745"><ele>121.99999999999999</ele><time>2026-04-18T09:01:35.046Z</time></trkpt><trkpt lat="42.0825031" lon="11.866344"><ele>122.0</ele><time>2026-04-18T09:01:37.046Z</time></trkpt><trkpt lat="42.0823926" lon="11.8663183"><ele>122.0</ele><time>2026-04-18T09:01:39.05Z</time></trkpt><trkpt lat="42.0822889" lon="11.8662453"><ele>122.33333333333333</ele><time>2026-04-18T09:01:41.039Z</time></trkpt><trkpt lat="42.0822191" lon="11.8661898"><ele>122.66666666666666</ele><time>2026-04-18T09:01:43.042Z</time></trkpt><trkpt lat="42.0822255" lon="11.8660746"><ele>123.0</ele><time>2026-04-18T09:02:06.042Z</time></trkpt><trkpt lat="42.082198" lon="11.8659767"><ele>123.33333333333334</ele><time>2026-04-18T09:02:08.045Z</time></trkpt><trkpt lat="42.0821704" lon="11.8658811"><ele>123.66666666666667</ele><time>2026-04-18T09:02:10.043Z</time></trkpt><trkpt lat="42.0821494" lon="11.8657396"><ele>124.0</ele><time>2026-04-18T09:02:12.054Z</time></trkpt><trkpt lat="42.0821043" lon="11.865611"><ele>124.0</ele><time>2026-04-18T09:02:14.041Z</time></trkpt><trkpt lat="42.0820307" lon="11.8655634"><ele>124.0</ele><time>2026-04-18T09:02:16.045Z</time></trkpt><trkpt lat="42.0819394" lon="11.8655851"><ele>124.0</ele><time>2026-04-18T09:02:18.045Z</time></trkpt><trkpt lat="42.0818201" lon="11.8656145"><ele>124.0</ele><time>2026-04-18T09:02:20.05Z</time></trkpt><trkpt lat="42.081709" lon="11.8655529"><ele>124.0</ele><time>2026-04-18T09:02:22.058Z</time></trkpt><trkpt lat="42.0816124" lon="11.8654661"><ele>125.00000000000001</ele><time>2026-04-18T09:02:24.045Z</time></trkpt><trkpt lat="42.0815289" lon="11.8654548"><ele>126.0</ele><time>2026-04-18T09:02:26.05Z</time></trkpt><trkpt lat="42.0814661" lon="11.865512"><ele>127.0</ele><time>2026-04-18T09:02:31.05Z</time></trkpt><trkpt lat="42.0813653" lon="11.8655959"><ele>128.0</ele><time>2026-04-18T09:02:33.046Z</time></trkpt><trkpt lat="42.0812965" lon="11.865636"><ele>129.0</ele><time>2026-04-18T09:02:34.042Z</time></trkpt><trkpt lat="42.0812207" lon="11.8656351"><ele>130.0</ele><time>2026-04-18T09:02:35.049Z</time></trkpt><trkpt lat="42.0811448" lon="11.8656321"><ele>130.0</ele><time>2026-04-18T09:02:36.045Z</time></trkpt><trkpt lat="42.0810659" lon="11.8656362"><ele>130.0</ele><time>2026-04-18T09:02:37.046Z</time></trkpt><trkpt lat="42.0809891" lon="11.865642"><ele>130.0</ele><time>2026-04-18T09:02:38.05Z</time></trkpt><trkpt lat="42.0809205" lon="11.8656557"><ele>130.0</ele><time>2026-04-18T09:02:39.051Z</time></trkpt><trkpt lat="42.0808574" lon="11.8656459"><ele>130.0</ele><time>2026-04-18T09:02:40.073Z</time></trkpt><trkpt lat="42.0807927" lon="11.8656362"><ele>130.0</ele><time>2026-04-18T09:02:41.05Z</time></trkpt><trkpt lat="42.0806696" lon="11.8656651"><ele>130.83333333333334</ele><time>2026-04-18T09:02:43.053Z</time></trkpt><trkpt lat="42.0805993" lon="11.8657077"><ele>131.66666666666669</ele><time>2026-04-18T09:02:44.055Z</time></trkpt><trkpt lat="42.0805247" lon="11.8657333"><ele>132.5</ele><time>2026-04-18T09:02:45.045Z</time></trkpt><trkpt lat="42.080442" lon="11.8657593"><ele>133.33333333333334</ele><time>2026-04-18T09:02:46.081Z</time></trkpt><trkpt lat="42.0803548" lon="11.8657687"><ele>134.16666666666666</ele><time>2026-04-18T09:02:47.042Z</time></trkpt><trkpt lat="42.0802734" lon="11.8657774"><ele>135.0</ele><time>2026-04-18T09:02:48.048Z</time></trkpt><trkpt lat="42.0802017" lon="11.8657859"><ele>135.0</ele><time>2026-04-18T09:02:49.059Z</time></trkpt><trkpt lat="42.0801274" lon="11.8658026"><ele>135.0</ele><time>2026-04-18T09:02:50.045Z</time></trkpt><trkpt lat="42.0800567" lon="11.8658229"><ele>135.0</ele><time>2026-04-18T09:02:51.044Z</time></trkpt><trkpt lat="42.0799547" lon="11.8658331"><ele>135.0</ele><time>2026-04-18T09:02:53.049Z</time></trkpt><trkpt lat="42.0798705" lon="11.8658515"><ele>135.0</ele><time>2026-04-18T09:02:55.044Z</time></trkpt><trkpt lat="42.0798066" lon="11.8659003"><ele>135.0</ele><time>2026-04-18T09:02:57.046Z</time></trkpt><trkpt lat="42.0797695" lon="11.8660051"><ele>136.2</ele><time>2026-04-18T09:02:59.046Z</time></trkpt><trkpt lat="42.0797317" lon="11.8661451"><ele>137.4</ele><time>2026-04-18T09:03:01.045Z</time></trkpt><trkpt lat="42.0797122" lon="11.8662868"><ele>138.6</ele><time>2026-04-18T09:03:03.046Z</time></trkpt><trkpt lat="42.0797113" lon="11.866417"><ele>139.8</ele><time>2026-04-18T09:03:05.05Z</time></trkpt><trkpt lat="42.0798001" lon="11.8664993"><ele>141.0</ele><time>2026-04-18T09:03:07.048Z</time></trkpt><trkpt lat="42.0798851" lon="11.8664982"><ele>141.66666666666666</ele><time>2026-04-18T09:03:08.04Z</time></trkpt><trkpt lat="42.0799677" lon="11.8664981"><ele>142.33333333333334</ele><time>2026-04-18T09:03:09.042Z</time></trkpt><trkpt lat="42.0800398" lon="11.866503"><ele>143.0</ele><time>2026-04-18T09:03:10.054Z</time></trkpt><trkpt lat="42.0800966" lon="11.8665398"><ele>143.66666666666669</ele><time>2026-04-18T09:03:11.048Z</time></trkpt><trkpt lat="42.0801418" lon="11.8666054"><ele>144.33333333333334</ele><time>2026-04-18T09:03:12.048Z</time></trkpt><trkpt lat="42.0802073" lon="11.8667429"><ele>145.0</ele><time>2026-04-18T09:03:14.047Z</time></trkpt><trkpt lat="42.0802184" lon="11.8668311"><ele>146.14285714285714</ele><time>2026-04-18T09:03:15.045Z</time></trkpt><trkpt lat="42.0802246" lon="11.8669166"><ele>147.2857142857143</ele><time>2026-04-18T09:03:16.051Z</time></trkpt><trkpt lat="42.0802136" lon="11.8670094"><ele>148.42857142857144</ele><time>2026-04-18T09:03:17.053Z</time></trkpt><trkpt lat="42.080202" lon="11.8670985"><ele>149.57142857142858</ele><time>2026-04-18T09:03:18.041Z</time></trkpt><trkpt lat="42.08019" lon="11.8671925"><ele>150.71428571428572</ele><time>2026-04-18T09:03:19.054Z</time></trkpt><trkpt lat="42.0801865" lon="11.8672876"><ele>151.85714285714286</ele><time>2026-04-18T09:03:20.047Z</time></trkpt><trkpt lat="42.0801832" lon="11.8673982"><ele>153.0</ele><time>2026-04-18T09:03:21.054Z</time></trkpt><trkpt lat="42.0801768" lon="11.867501"><ele>153.0</ele><time>2026-04-18T09:03:22.055Z</time></trkpt><trkpt lat="42.0801722" lon="11.8676022"><ele>153.0</ele><time>2026-04-18T09:03:23.056Z</time></trkpt><trkpt lat="42.080174" lon="11.867703"><ele>153.0</ele><time>2026-04-18T09:03:24.043Z</time></trkpt><trkpt lat="42.0801757" lon="11.8678046"><ele>153.0</ele><time>2026-04-18T09:03:25.058Z</time></trkpt><trkpt lat="42.08017" lon="11.8679039"><ele>153.0</ele><time>2026-04-18T09:03:26.053Z</time></trkpt><trkpt lat="42.0801435" lon="11.8680023"><ele>153.0</ele><time>2026-04-18T09:03:27.047Z</time></trkpt><trkpt lat="42.0801042" lon="11.8680964"><ele>154.20000000000002</ele><time>2026-04-18T09:03:28.056Z</time></trkpt><trkpt lat="42.0800656" lon="11.868184"><ele>155.4</ele><time>2026-04-18T09:03:29.05Z</time></trkpt><trkpt lat="42.0800216" lon="11.8682964"><ele>156.60000000000002</ele><time>2026-04-18T09:03:31.056Z</time></trkpt><trkpt lat="42.0799615" lon="11.8684492"><ele>157.8</ele><time>2026-04-18T09:03:33.046Z</time></trkpt><trkpt lat="42.0799297" lon="11.8685485"><ele>159.0</ele><time>2026-04-18T09:03:34.057Z</time></trkpt><trkpt lat="42.0798985" lon="11.8686393"><ele>160.28571428571428</ele><time>2026-04-18T09:03:35.055Z</time></trkpt><trkpt lat="42.079871" lon="11.8687347"><ele>161.57142857142858</ele><time>2026-04-18T09:03:36.059Z</time></trkpt><trkpt lat="42.079844" lon="11.8688158"><ele>162.85714285714286</ele><time>2026-04-18T09:03:37.065Z</time></trkpt><trkpt lat="42.079808" lon="11.8689114"><ele>164.14285714285714</ele><time>2026-04-18T09:03:39.067Z</time></trkpt><trkpt lat="42.0797798" lon="11.8689946"><ele>165.42857142857144</ele><time>2026-04-18T09:03:41.052Z</time></trkpt><trkpt lat="42.079738" lon="11.869067"><ele>166.71428571428572</ele><time>2026-04-18T09:03:43.049Z</time></trkpt><trkpt lat="42.0797063" lon="11.8691519"><ele>168.0</ele><time>2026-04-18T09:03:45.054Z</time></trkpt><trkpt lat="42.0796669" lon="11.8692563"><ele>169.66666666666666</ele><time>2026-04-18T09:03:47.056Z</time></trkpt><trkpt lat="42.0796247" lon="11.8693533"><ele>171.33333333333334</ele><time>2026-04-18T09:03:49.056Z</time></trkpt><trkpt lat="42.0795873" lon="11.8694718"><ele>173.0</ele><time>2026-04-18T09:03:51.048Z</time></trkpt><trkpt lat="42.0795467" lon="11.8695616"><ele>174.66666666666669</ele><time>2026-04-18T09:03:53.055Z</time></trkpt><trkpt lat="42.0795132" lon="11.8696468"><ele>176.33333333333334</ele><time>2026-04-18T09:03:56.051Z</time></trkpt><trkpt lat="42.0794667" lon="11.8697344"><ele>178.0</ele><time>2026-04-18T09:04:03.047Z</time></trkpt><trkpt lat="42.0794208" lon="11.8698318"><ele>178.0</ele><time>2026-04-18T09:04:07.041Z</time></trkpt><trkpt lat="42.0793928" lon="11.869917"><ele>178.0</ele><time>2026-04-18T09:04:10.048Z</time></trkpt><trkpt lat="42.0793829" lon="11.8700165"><ele>178.0</ele><time>2026-04-18T09:04:17.039Z</time></trkpt><trkpt lat="42.0794195" lon="11.870119"><ele>178.0</ele><time>2026-04-18T09:04:20.041Z</time></trkpt><trkpt lat="42.0794946" lon="11.8701462"><ele>178.0</ele><time>2026-04-18T09:04:23.055Z</time></trkpt><trkpt lat="42.0795625" lon="11.8701962"><ele>178.0</ele><time>2026-04-18T09:13:41.047Z</time></trkpt><trkpt lat="42.0796358" lon="11.8702605"><ele>180.66666666666669</ele><time>2026-04-18T09:13:43.057Z</time></trkpt><trkpt lat="42.0797509" lon="11.8703354"><ele>183.33333333333334</ele><time>2026-04-18T09:13:45.056Z</time></trkpt><trkpt lat="42.0798242" lon="11.8703657"><ele>186.0</ele><time>2026-04-18T09:13:46.053Z</time></trkpt><trkpt lat="42.079892" lon="11.8704134"><ele>188.66666666666669</ele><time>2026-04-18T09:13:47.053Z</time></trkpt><trkpt lat="42.0799592" lon="11.8704598"><ele>191.33333333333334</ele><time>2026-04-18T09:13:48.051Z</time></trkpt><trkpt lat="42.0800222" lon="11.8705021"><ele>194.0</ele><time>2026-04-18T09:13:49.057Z</time></trkpt><trkpt lat="42.0800948" lon="11.8705173"><ele>194.00000000000003</ele><time>2026-04-18T09:13:50.056Z</time></trkpt><trkpt lat="42.0801771" lon="11.8705024"><ele>194.0</ele><time>2026-04-18T09:13:51.058Z</time></trkpt><trkpt lat="42.0802544" lon="11.8704918"><ele>194.0</ele><time>2026-04-18T09:13:52.083Z</time></trkpt><trkpt lat="42.0803283" lon="11.8705101"><ele>194.0</ele><time>2026-04-18T09:13:53.06Z</time></trkpt><trkpt lat="42.0804086" lon="11.8705455"><ele>194.00000000000003</ele><time>2026-04-18T09:13:54.063Z</time></trkpt><trkpt lat="42.0804691" lon="11.8705916"><ele>194.0</ele><time>2026-04-18T09:13:55.058Z</time></trkpt><trkpt lat="42.0805582" lon="11.8706794"><ele>194.0</ele><time>2026-04-18T09:13:57.051Z</time></trkpt><trkpt lat="42.0805974" lon="11.8707626"><ele>194.0</ele><time>2026-04-18T09:13:59.047Z</time></trkpt><trkpt lat="42.0806334" lon="11.8708776"><ele>194.0</ele><time>2026-04-18T09:14:01.053Z</time></trkpt><trkpt lat="42.0806927" lon="11.8709734"><ele>194.0</ele><time>2026-04-18T09:14:03.044Z</time></trkpt><trkpt lat="42.0807766" lon="11.8709747"><ele>194.0</ele><time>2026-04-18T09:14:11.045Z</time></trkpt><trkpt lat="42.0808482" lon="11.8708532"><ele>194.50000000000003</ele><time>2026-04-18T09:14:13.046Z</time></trkpt><trkpt lat="42.0808865" lon="11.8707842"><ele>195.0</ele><time>2026-04-18T09:14:14.055Z</time></trkpt><trkpt lat="42.0809751" lon="11.8706922"><ele>195.5</ele><time>2026-04-18T09:14:16.048Z</time></trkpt><trkpt lat="42.0810847" lon="11.8705815"><ele>196.0</ele><time>2026-04-18T09:14:18.055Z</time></trkpt><trkpt lat="42.0811386" lon="11.8705311"><ele>196.50000000000003</ele><time>2026-04-18T09:14:19.044Z</time></trkpt><trkpt lat="42.0811923" lon="11.8704819"><ele>197.0</ele><time>2026-04-18T09:14:20.052Z</time></trkpt><trkpt lat="42.0812619" lon="11.8704571"><ele>197.00000000000003</ele><time>2026-04-18T09:14:21.051Z</time></trkpt><trkpt lat="42.0813415" lon="11.8704424"><ele>197.0</ele><time>2026-04-18T09:14:22.059Z</time></trkpt><trkpt lat="42.0814204" lon="11.8704323"><ele>197.0</ele><time>2026-04-18T09:14:23.049Z</time></trkpt><trkpt lat="42.0815066" lon="11.8704278"><ele>197.0</ele><time>2026-04-18T09:14:24.055Z</time></trkpt><trkpt lat="42.081583" lon="11.8704383"><ele>197.00000000000003</ele><time>2026-04-18T09:14:25.052Z</time></trkpt><trkpt lat="42.0816588" lon="11.8704521"><ele>197.0</ele><time>2026-04-18T09:14:26.047Z</time></trkpt><trkpt lat="42.0817385" lon="11.8704866"><ele>198.8</ele><time>2026-04-18T09:14:27.049Z</time></trkpt><trkpt lat="42.0818257" lon="11.8705298"><ele>200.6</ele><time>2026-04-18T09:14:28.046Z</time></trkpt><trkpt lat="42.0819162" lon="11.8705779"><ele>202.4</ele><time>2026-04-18T09:14:29.047Z</time></trkpt><trkpt lat="42.0820023" lon="11.8706226"><ele>204.20000000000002</ele><time>2026-04-18T09:14:30.047Z</time></trkpt><trkpt lat="42.0820933" lon="11.8706634"><ele>206.0</ele><time>2026-04-18T09:14:31.052Z</time></trkpt><trkpt lat="42.0821767" lon="11.8707054"><ele>206.00000000000003</ele><time>2026-04-18T09:14:32.051Z</time></trkpt><trkpt lat="42.0822541" lon="11.8707582"><ele>206.0</ele><time>2026-04-18T09:14:33.049Z</time></trkpt><trkpt lat="42.0823295" lon="11.8707988"><ele>206.0</ele><time>2026-04-18T09:14:34.053Z</time></trkpt><trkpt lat="42.0823996" lon="11.8708436"><ele>206.0</ele><time>2026-04-18T09:14:35.05Z</time></trkpt><trkpt lat="42.0824701" lon="11.8708878"><ele>206.00000000000003</ele><time>2026-04-18T09:14:36.05Z</time></trkpt><trkpt lat="42.082546" lon="11.870931"><ele>206.0</ele><time>2026-04-18T09:14:37.044Z</time></trkpt><trkpt lat="42.0826192" lon="11.870968"><ele>208.00000000000003</ele><time>2026-04-18T09:14:38.054Z</time></trkpt><trkpt lat="42.0826983" lon="11.8709931"><ele>210.0</ele><time>2026-04-18T09:14:39.053Z</time></trkpt><trkpt lat="42.0827818" lon="11.8710201"><ele>212.0</ele><time>2026-04-18T09:14:40.05Z</time></trkpt><trkpt lat="42.0828594" lon="11.8710413"><ele>214.0</ele><time>2026-04-18T09:14:41.047Z</time></trkpt><trkpt lat="42.0829268" lon="11.8710591"><ele>216.00000000000003</ele><time>2026-04-18T09:14:42.053Z</time></trkpt><trkpt lat="42.0829906" lon="11.8710879"><ele>218.0</ele><time>2026-04-18T09:14:43.049Z</time></trkpt><trkpt lat="42.0831041" lon="11.8711534"><ele>218.0</ele><time>2026-04-18T09:14:45.054Z</time></trkpt><trkpt lat="42.0831632" lon="11.8711895"><ele>218.0</ele><time>2026-04-18T09:14:46.057Z</time></trkpt><trkpt lat="42.0832213" lon="11.8712399"><ele>218.0</ele><time>2026-04-18T09:14:47.043Z</time></trkpt><trkpt lat="42.0832747" lon="11.8712915"><ele>218.0</ele><time>2026-04-18T09:14:48.051Z</time></trkpt><trkpt lat="42.0833158" lon="11.8713699"><ele>218.0</ele><time>2026-04-18T09:14:49.043Z</time></trkpt><trkpt lat="42.08336" lon="11.8714397"><ele>218.0</ele><time>2026-04-18T09:14:50.047Z</time></trkpt><trkpt lat="42.0834162" lon="11.8714944"><ele>218.0</ele><time>2026-04-18T09:14:51.056Z</time></trkpt><trkpt lat="42.0834823" lon="11.8715654"><ele>218.0</ele><time>2026-04-18T09:14:52.049Z</time></trkpt><trkpt lat="42.0835564" lon="11.8716342"><ele>218.0</ele><time>2026-04-18T09:14:53.053Z</time></trkpt><trkpt lat="42.0836313" lon="11.8717043"><ele>218.0</ele><time>2026-04-18T09:14:54.051Z</time></trkpt><trkpt lat="42.0837022" lon="11.8717747"><ele>218.0</ele><time>2026-04-18T09:14:55.045Z</time></trkpt><trkpt lat="42.0837735" lon="11.8718592"><ele>218.0</ele><time>2026-04-18T09:14:56.056Z</time></trkpt><trkpt lat="42.0838427" lon="11.8719452"><ele>220.60000000000002</ele><time>2026-04-18T09:14:57.048Z</time></trkpt><trkpt lat="42.0839201" lon="11.8720263"><ele>223.20000000000002</ele><time>2026-04-18T09:14:58.044Z</time></trkpt><trkpt lat="42.0840018" lon="11.8721059"><ele>225.8</ele><time>2026-04-18T09:14:59.06Z</time></trkpt><trkpt lat="42.0840864" lon="11.8721769"><ele>228.4</ele><time>2026-04-18T09:15:00.058Z</time></trkpt><trkpt lat="42.0841514" lon="11.8722479"><ele>231.0</ele><time>2026-04-18T09:15:01.066Z</time></trkpt><trkpt lat="42.0842081" lon="11.8723088"><ele>231.0</ele><time>2026-04-18T09:15:02.051Z</time></trkpt><trkpt lat="42.0842682" lon="11.8723777"><ele>231.0</ele><time>2026-04-18T09:15:03.051Z</time></trkpt><trkpt lat="42.0843362" lon="11.8724391"><ele>231.0</ele><time>2026-04-18T09:15:04.055Z</time></trkpt><trkpt lat="42.0843934" lon="11.8725105"><ele>231.0</ele><time>2026-04-18T09:15:05.053Z</time></trkpt><trkpt lat="42.0844557" lon="11.8725771"><ele>231.0</ele><time>2026-04-18T09:15:06.049Z</time></trkpt><trkpt lat="42.0845145" lon="11.8726485"><ele>231.0</ele><time>2026-04-18T09:15:07.044Z</time></trkpt><trkpt lat="42.084563" lon="11.8727105"><ele>231.0</ele><time>2026-04-18T09:15:08.049Z</time></trkpt><trkpt lat="42.0846313" lon="11.8727428"><ele>231.00000000000003</ele><time>2026-04-18T09:15:10.058Z</time></trkpt><trkpt lat="42.0847137" lon="11.8726998"><ele>231.00000000000003</ele><time>2026-04-18T09:15:44.062Z</time></trkpt><trkpt lat="42.0848121" lon="11.8725939"><ele>231.0</ele><time>2026-04-18T09:15:46.052Z</time></trkpt><trkpt lat="42.0848776" lon="11.8725316"><ele>231.0</ele><time>2026-04-18T09:15:47.049Z</time></trkpt><trkpt lat="42.0849503" lon="11.8724719"><ele>231.5</ele><time>2026-04-18T09:15:48.051Z</time></trkpt><trkpt lat="42.085029" lon="11.8724179"><ele>232.0</ele><time>2026-04-18T09:15:49.054Z</time></trkpt><trkpt lat="42.0851123" lon="11.8723691"><ele>232.5</ele><time>2026-04-18T09:15:50.056Z</time></trkpt><trkpt lat="42.0851921" lon="11.8723228"><ele>233.0</ele><time>2026-04-18T09:15:51.049Z</time></trkpt><trkpt lat="42.0852705" lon="11.8722889"><ele>233.5</ele><time>2026-04-18T09:15:52.056Z</time></trkpt><trkpt lat="42.0853386" lon="11.8722577"><ele>234.0</ele><time>2026-04-18T09:15:53.05Z</time></trkpt><trkpt lat="42.0854075" lon="11.8722161"><ele>234.0</ele><time>2026-04-18T09:15:54.055Z</time></trkpt><trkpt lat="42.0854865" lon="11.8721557"><ele>233.99999999999997</ele><time>2026-04-18T09:15:55.061Z</time></trkpt><trkpt lat="42.0855702" lon="11.872082"><ele>233.99999999999997</ele><time>2026-04-18T09:15:56.048Z</time></trkpt><trkpt lat="42.0856517" lon="11.8720116"><ele>234.0</ele><time>2026-04-18T09:15:57.052Z</time></trkpt><trkpt lat="42.0857294" lon="11.8719421"><ele>234.0</ele><time>2026-04-18T09:15:58.055Z</time></trkpt><trkpt lat="42.0858173" lon="11.8718678"><ele>234.16666666666666</ele><time>2026-04-18T09:15:59.053Z</time></trkpt><trkpt lat="42.0858982" lon="11.8717952"><ele>234.33333333333331</ele><time>2026-04-18T09:16:00.065Z</time></trkpt><trkpt lat="42.0859623" lon="11.8717254"><ele>234.5</ele><time>2026-04-18T09:16:01.062Z</time></trkpt><trkpt lat="42.0860138" lon="11.871667"><ele>234.66666666666666</ele><time>2026-04-18T09:16:02.047Z</time></trkpt><trkpt lat="42.0860939" lon="11.8715721"><ele>234.83333333333331</ele><time>2026-04-18T09:16:04.057Z</time></trkpt><trkpt lat="42.0861706" lon="11.8714958"><ele>235.0</ele><time>2026-04-18T09:16:06.044Z</time></trkpt><trkpt lat="42.0862611" lon="11.8714269"><ele>234.99999999999997</ele><time>2026-04-18T09:16:08.041Z</time></trkpt><trkpt lat="42.0863717" lon="11.8714371"><ele>235.0</ele><time>2026-04-18T09:16:10.054Z</time></trkpt><trkpt lat="42.0864348" lon="11.8714589"><ele>235.0</ele><time>2026-04-18T09:16:11.055Z</time></trkpt><trkpt lat="42.086509" lon="11.8715009"><ele>235.0</ele><time>2026-04-18T09:16:12.049Z</time></trkpt><trkpt lat="42.0865823" lon="11.871546"><ele>234.99999999999997</ele><time>2026-04-18T09:16:13.056Z</time></trkpt><trkpt lat="42.0866638" lon="11.8715795"><ele>235.0</ele><time>2026-04-18T09:16:14.057Z</time></trkpt><trkpt lat="42.0867477" lon="11.8716063"><ele>235.6</ele><time>2026-04-18T09:16:15.055Z</time></trkpt><trkpt lat="42.086837" lon="11.8716289"><ele>236.2</ele><time>2026-04-18T09:16:16.045Z</time></trkpt><trkpt lat="42.0869317" lon="11.8716327"><ele>236.8</ele><time>2026-04-18T09:16:17.047Z</time></trkpt><trkpt lat="42.0870284" lon="11.8716166"><ele>237.4</ele><time>2026-04-18T09:16:18.049Z</time></trkpt><trkpt lat="42.0871266" lon="11.8715937"><ele>238.0</ele><time>2026-04-18T09:16:19.054Z</time></trkpt><trkpt lat="42.0872354" lon="11.8715736"><ele>238.0</ele><time>2026-04-18T09:16:20.058Z</time></trkpt><trkpt lat="42.0873418" lon="11.8715557"><ele>238.0</ele><time>2026-04-18T09:16:21.048Z</time></trkpt><trkpt lat="42.0874366" lon="11.871542"><ele>238.0</ele><time>2026-04-18T09:16:22.056Z</time></trkpt><trkpt lat="42.0875157" lon="11.8715366"><ele>238.0</ele><time>2026-04-18T09:16:23.051Z</time></trkpt><trkpt lat="42.0875865" lon="11.8715432"><ele>238.0</ele><time>2026-04-18T09:16:24.059Z</time></trkpt><trkpt lat="42.0877038" lon="11.8715239"><ele>236.60000000000002</ele><time>2026-04-18T09:16:26.056Z</time></trkpt><trkpt lat="42.0877714" lon="11.871487"><ele>235.20000000000002</ele><time>2026-04-18T09:16:27.049Z</time></trkpt><trkpt lat="42.0878727" lon="11.8714746"><ele>233.8</ele><time>2026-04-18T09:16:28.063Z</time></trkpt><trkpt lat="42.087979" lon="11.8714687"><ele>232.4</ele><time>2026-04-18T09:16:29.067Z</time></trkpt><trkpt lat="42.0880877" lon="11.8714654"><ele>231.0</ele><time>2026-04-18T09:16:30.064Z</time></trkpt><trkpt lat="42.0882035" lon="11.8714734"><ele>230.5</ele><time>2026-04-18T09:16:31.044Z</time></trkpt><trkpt lat="42.0883201" lon="11.8714916"><ele>230.0</ele><time>2026-04-18T09:16:32.056Z</time></trkpt><trkpt lat="42.0884452" lon="11.8715284"><ele>229.5</ele><time>2026-04-18T09:16:33.048Z</time></trkpt><trkpt lat="42.0885767" lon="11.8716139"><ele>229.0</ele><time>2026-04-18T09:16:34.048Z</time></trkpt><trkpt lat="42.0886934" lon="11.871693"><ele>229.0</ele><time>2026-04-18T09:16:35.049Z</time></trkpt><trkpt lat="42.0888016" lon="11.8717717"><ele>228.99999999999997</ele><time>2026-04-18T09:16:36.052Z</time></trkpt><trkpt lat="42.088889" lon="11.871835"><ele>228.99999999999997</ele><time>2026-04-18T09:16:37.043Z</time></trkpt><trkpt lat="42.0889745" lon="11.8718907"><ele>229.0</ele><time>2026-04-18T09:16:38.051Z</time></trkpt><trkpt lat="42.0890621" lon="11.8719164"><ele>229.0</ele><time>2026-04-18T09:16:39.039Z</time></trkpt><trkpt lat="42.089148" lon="11.871918"><ele>227.33333333333331</ele><time>2026-04-18T09:16:40.048Z</time></trkpt><trkpt lat="42.0892325" lon="11.8719187"><ele>225.66666666666666</ele><time>2026-04-18T09:16:41.05Z</time></trkpt><trkpt lat="42.0893092" lon="11.8719314"><ele>224.0</ele><time>2026-04-18T09:16:42.047Z</time></trkpt><trkpt lat="42.0893903" lon="11.871951"><ele>222.33333333333331</ele><time>2026-04-18T09:16:43.045Z</time></trkpt><trkpt lat="42.0894705" lon="11.8719762"><ele>220.66666666666666</ele><time>2026-04-18T09:16:44.05Z</time></trkpt><trkpt lat="42.0895537" lon="11.8719953"><ele>219.0</ele><time>2026-04-18T09:16:45.043Z</time></trkpt><trkpt lat="42.0896318" lon="11.8720134"><ele>219.0</ele><time>2026-04-18T09:16:46.044Z</time></trkpt><trkpt lat="42.0897014" lon="11.8720348"><ele>219.0</ele><time>2026-04-18T09:16:47.05Z</time></trkpt><trkpt lat="42.0897948" lon="11.8721058"><ele>219.0</ele><time>2026-04-18T09:16:49.05Z</time></trkpt><trkpt lat="42.0898466" lon="11.8722156"><ele>219.0</ele><time>2026-04-18T09:16:51.046Z</time></trkpt><trkpt lat="42.0898401" lon="11.87231"><ele>219.0</ele><time>2026-04-18T09:16:54.063Z</time></trkpt><trkpt lat="42.0897889" lon="11.8723773"><ele>219.0</ele><time>2026-04-18T09:17:08.056Z</time></trkpt><trkpt lat="42.0897068" lon="11.8724827"><ele>219.0</ele><time>2026-04-18T09:17:10.046Z</time></trkpt><trkpt lat="42.0896571" lon="11.8725627"><ele>219.0</ele><time>2026-04-18T09:17:11.057Z</time></trkpt><trkpt lat="42.0896059" lon="11.8726478"><ele>219.0</ele><time>2026-04-18T09:17:12.062Z</time></trkpt><trkpt lat="42.0895567" lon="11.8727458"><ele>219.0</ele><time>2026-04-18T09:17:13.052Z</time></trkpt><trkpt lat="42.08951" lon="11.8728476"><ele>219.0</ele><time>2026-04-18T09:17:14.049Z</time></trkpt><trkpt lat="42.0894639" lon="11.8729552"><ele>219.0</ele><time>2026-04-18T09:17:15.051Z</time></trkpt><trkpt lat="42.0894187" lon="11.8730663"><ele>215.79999999999998</ele><time>2026-04-18T09:17:16.05Z</time></trkpt><trkpt lat="42.0893563" lon="11.873189"><ele>212.59999999999997</ele><time>2026-04-18T09:17:17.047Z</time></trkpt><trkpt lat="42.0892989" lon="11.8732955"><ele>209.4</ele><time>2026-04-18T09:17:18.05Z</time></trkpt><trkpt lat="42.0892452" lon="11.8733866"><ele>206.2</ele><time>2026-04-18T09:17:19.05Z</time></trkpt><trkpt lat="42.0891944" lon="11.8734944"><ele>203.0</ele><time>2026-04-18T09:17:20.044Z</time></trkpt><trkpt lat="42.0891456" lon="11.8735926"><ele>201.16666666666669</ele><time>2026-04-18T09:17:21.057Z</time></trkpt><trkpt lat="42.0890978" lon="11.8736879"><ele>199.33333333333334</ele><time>2026-04-18T09:17:22.048Z</time></trkpt><trkpt lat="42.0890543" lon="11.8737821"><ele>197.5</ele><time>2026-04-18T09:17:23.047Z</time></trkpt><trkpt lat="42.0890149" lon="11.8738704"><ele>195.66666666666669</ele><time>2026-04-18T09:17:24.044Z</time></trkpt><trkpt lat="42.0889736" lon="11.8739521"><ele>193.83333333333334</ele><time>2026-04-18T09:17:25.058Z</time></trkpt><trkpt lat="42.0889296" lon="11.8740221"><ele>192.0</ele><time>2026-04-18T09:17:26.053Z</time></trkpt><trkpt lat="42.0888373" lon="11.8741133"><ele>192.0</ele><time>2026-04-18T09:17:28.046Z</time></trkpt><trkpt lat="42.0887175" lon="11.8741774"><ele>192.0</ele><time>2026-04-18T09:17:30.046Z</time></trkpt><trkpt lat="42.0886578" lon="11.8742294"><ele>192.0</ele><time>2026-04-18T09:17:31.049Z</time></trkpt><trkpt lat="42.088608" lon="11.8743014"><ele>192.0</ele><time>2026-04-18T09:17:32.048Z</time></trkpt><trkpt lat="42.088566" lon="11.8743898"><ele>192.0</ele><time>2026-04-18T09:17:33.054Z</time></trkpt><trkpt lat="42.0885231" lon="11.8744821"><ele>192.0</ele><time>2026-04-18T09:17:34.046Z</time></trkpt><trkpt lat="42.0884673" lon="11.8745748"><ele>189.5</ele><time>2026-04-18T09:17:35.043Z</time></trkpt><trkpt lat="42.0883989" lon="11.8746647"><ele>187.0</ele><time>2026-04-18T09:17:36.046Z</time></trkpt><trkpt lat="42.0883355" lon="11.8747408"><ele>184.5</ele><time>2026-04-18T09:17:37.054Z</time></trkpt><trkpt lat="42.0882774" lon="11.8748062"><ele>182.0</ele><time>2026-04-18T09:17:38.044Z</time></trkpt><trkpt lat="42.0882257" lon="11.8748549"><ele>179.5</ele><time>2026-04-18T09:17:39.048Z</time></trkpt><trkpt lat="42.0881724" lon="11.8749007"><ele>177.0</ele><time>2026-04-18T09:17:40.05Z</time></trkpt><trkpt lat="42.0880631" lon="11.874981"><ele>177.0</ele><time>2026-04-18T09:17:42.049Z</time></trkpt><trkpt lat="42.0880043" lon="11.8750199"><ele>177.0</ele><time>2026-04-18T09:17:43.05Z</time></trkpt><trkpt lat="42.0879495" lon="11.8750677"><ele>177.0</ele><time>2026-04-18T09:17:44.05Z</time></trkpt><trkpt lat="42.0878948" lon="11.8751162"><ele>177.0</ele><time>2026-04-18T09:17:45.053Z</time></trkpt><trkpt lat="42.0878373" lon="11.8751674"><ele>177.0</ele><time>2026-04-18T09:17:46.05Z</time></trkpt><trkpt lat="42.0877797" lon="11.875213"><ele>177.0</ele><time>2026-04-18T09:17:47.045Z</time></trkpt><trkpt lat="42.0876764" lon="11.8752925"><ele>176.0</ele><time>2026-04-18T09:17:49.051Z</time></trkpt><trkpt lat="42.0876135" lon="11.8753723"><ele>175.0</ele><time>2026-04-18T09:17:51.048Z</time></trkpt><trkpt lat="42.0875829" lon="11.8754614"><ele>174.0</ele><time>2026-04-18T09:19:47.039Z</time></trkpt><trkpt lat="42.087557" lon="11.8755826"><ele>173.0</ele><time>2026-04-18T09:19:50.042Z</time></trkpt><trkpt lat="42.0875291" lon="11.8757481"><ele>172.0</ele><time>2026-04-18T09:19:52.049Z</time></trkpt><trkpt lat="42.087505" lon="11.8758272"><ele>171.0</ele><time>2026-04-18T09:19:53.043Z</time></trkpt><trkpt lat="42.087465" lon="11.8759056"><ele>169.16666666666666</ele><time>2026-04-18T09:19:54.06Z</time></trkpt><trkpt lat="42.0874176" lon="11.8759805"><ele>167.33333333333334</ele><time>2026-04-18T09:19:55.086Z</time></trkpt><trkpt lat="42.0873767" lon="11.876056"><ele>165.5</ele><time>2026-04-18T09:19:56.056Z</time></trkpt><trkpt lat="42.0873371" lon="11.8761454"><ele>163.66666666666669</ele><time>2026-04-18T09:19:57.047Z</time></trkpt><trkpt lat="42.0872971" lon="11.8762349"><ele>161.83333333333334</ele><time>2026-04-18T09:19:58.049Z</time></trkpt><trkpt lat="42.0872546" lon="11.876321"><ele>160.0</ele><time>2026-04-18T09:19:59.053Z</time></trkpt><trkpt lat="42.0871966" lon="11.8763957"><ele>160.0</ele><time>2026-04-18T09:20:00.053Z</time></trkpt><trkpt lat="42.0871408" lon="11.8764734"><ele>160.0</ele><time>2026-04-18T09:20:01.052Z</time></trkpt><trkpt lat="42.087099" lon="11.876576"><ele>160.0</ele><time>2026-04-18T09:20:02.047Z</time></trkpt><trkpt lat="42.0870659" lon="11.8766781"><ele>160.0</ele><time>2026-04-18T09:20:03.05Z</time></trkpt><trkpt lat="42.0870512" lon="11.8767813"><ele>160.0</ele><time>2026-04-18T09:20:04.048Z</time></trkpt><trkpt lat="42.0870431" lon="11.8768903"><ele>160.0</ele><time>2026-04-18T09:20:05.049Z</time></trkpt><trkpt lat="42.0869999" lon="11.8769979"><ele>158.5</ele><time>2026-04-18T09:20:06.043Z</time></trkpt><trkpt lat="42.0869498" lon="11.8771002"><ele>157.0</ele><time>2026-04-18T09:20:07.054Z</time></trkpt><trkpt lat="42.0869035" lon="11.8771907"><ele>155.5</ele><time>2026-04-18T09:20:08.047Z</time></trkpt><trkpt lat="42.0868563" lon="11.8772741"><ele>154.0</ele><time>2026-04-18T09:20:09.051Z</time></trkpt><trkpt lat="42.0867873" lon="11.8773348"><ele>152.5</ele><time>2026-04-18T09:20:10.053Z</time></trkpt><trkpt lat="42.0867164" lon="11.8773986"><ele>151.0</ele><time>2026-04-18T09:20:11.051Z</time></trkpt><trkpt lat="42.0866496" lon="11.8774849"><ele>150.33333333333334</ele><time>2026-04-18T09:20:12.044Z</time></trkpt><trkpt lat="42.0865863" lon="11.8775738"><ele>149.66666666666669</ele><time>2026-04-18T09:20:13.047Z</time></trkpt><trkpt lat="42.0865262" lon="11.8776422"><ele>149.0</ele><time>2026-04-18T09:20:14.041Z</time></trkpt><trkpt lat="42.0864627" lon="11.8777076"><ele>148.33333333333334</ele><time>2026-04-18T09:20:15.043Z</time></trkpt><trkpt lat="42.0864056" lon="11.8777675"><ele>147.66666666666666</ele><time>2026-04-18T09:20:16.055Z</time></trkpt><trkpt lat="42.0863451" lon="11.8778436"><ele>147.0</ele><time>2026-04-18T09:20:17.041Z</time></trkpt><trkpt lat="42.0862819" lon="11.8779363"><ele>145.16666666666666</ele><time>2026-04-18T09:20:18.05Z</time></trkpt><trkpt lat="42.0862205" lon="11.8780382"><ele>143.33333333333334</ele><time>2026-04-18T09:20:19.054Z</time></trkpt><trkpt lat="42.0861706" lon="11.8781247"><ele>141.5</ele><time>2026-04-18T09:20:20.044Z</time></trkpt><trkpt lat="42.0861245" lon="11.8781993"><ele>139.66666666666669</ele><time>2026-04-18T09:20:21.043Z</time></trkpt><trkpt lat="42.0860812" lon="11.8782728"><ele>137.83333333333334</ele><time>2026-04-18T09:20:22.046Z</time></trkpt><trkpt lat="42.08605" lon="11.8783527"><ele>136.0</ele><time>2026-04-18T09:20:23.047Z</time></trkpt><trkpt lat="42.0860192" lon="11.8784299"><ele>134.7142857142857</ele><time>2026-04-18T09:20:24.045Z</time></trkpt><trkpt lat="42.0859836" lon="11.8785144"><ele>133.42857142857142</ele><time>2026-04-18T09:20:25.047Z</time></trkpt><trkpt lat="42.0859502" lon="11.8786094"><ele>132.14285714285714</ele><time>2026-04-18T09:20:26.052Z</time></trkpt><trkpt lat="42.0859156" lon="11.8786996"><ele>130.85714285714283</ele><time>2026-04-18T09:20:27.043Z</time></trkpt><trkpt lat="42.0858853" lon="11.878786"><ele>129.57142857142856</ele><time>2026-04-18T09:20:28.05Z</time></trkpt><trkpt lat="42.0858614" lon="11.8788714"><ele>128.28571428571428</ele><time>2026-04-18T09:20:29.052Z</time></trkpt><trkpt lat="42.0858383" lon="11.8789665"><ele>127.0</ele><time>2026-04-18T09:20:30.043Z</time></trkpt><trkpt lat="42.0858165" lon="11.8790683"><ele>127.00000000000001</ele><time>2026-04-18T09:20:31.047Z</time></trkpt><trkpt lat="42.0858079" lon="11.8791684"><ele>127.0</ele><time>2026-04-18T09:20:32.046Z</time></trkpt><trkpt lat="42.0858117" lon="11.8792551"><ele>127.0</ele><time>2026-04-18T09:20:33.044Z</time></trkpt><trkpt lat="42.0858161" lon="11.8793403"><ele>127.0</ele><time>2026-04-18T09:20:34.046Z</time></trkpt><trkpt lat="42.0858357" lon="11.8794925"><ele>127.00000000000001</ele><time>2026-04-18T09:20:36.049Z</time></trkpt><trkpt lat="42.0858505" lon="11.8796509"><ele>127.0</ele><time>2026-04-18T09:20:38.05Z</time></trkpt><trkpt lat="42.0858455" lon="11.8797363"><ele>125.16666666666667</ele><time>2026-04-18T09:20:39.046Z</time></trkpt><trkpt lat="42.0858342" lon="11.8798212"><ele>123.33333333333334</ele><time>2026-04-18T09:20:40.055Z</time></trkpt><trkpt lat="42.0858212" lon="11.8799061"><ele>121.5</ele><time>2026-04-18T09:20:41.049Z</time></trkpt><trkpt lat="42.0857789" lon="11.8799941"><ele>119.66666666666666</ele><time>2026-04-18T09:20:42.052Z</time></trkpt><trkpt lat="42.0857179" lon="11.8800745"><ele>117.83333333333333</ele><time>2026-04-18T09:20:43.044Z</time></trkpt><trkpt lat="42.0856537" lon="11.8801606"><ele>116.0</ele><time>2026-04-18T09:20:44.05Z</time></trkpt><trkpt lat="42.0855811" lon="11.8802406"><ele>113.16666666666666</ele><time>2026-04-18T09:20:45.048Z</time></trkpt><trkpt lat="42.085519" lon="11.8803165"><ele>110.33333333333333</ele><time>2026-04-18T09:20:46.046Z</time></trkpt><trkpt lat="42.0854619" lon="11.8803906"><ele>107.5</ele><time>2026-04-18T09:20:47.051Z</time></trkpt><trkpt lat="42.0854117" lon="11.8804673"><ele>104.66666666666666</ele><time>2026-04-18T09:20:48.047Z</time></trkpt><trkpt lat="42.0853747" lon="11.8805576"><ele>101.83333333333333</ele><time>2026-04-18T09:20:49.042Z</time></trkpt><trkpt lat="42.0853552" lon="11.8806625"><ele>99.0</ele><time>2026-04-18T09:20:50.051Z</time></trkpt><trkpt lat="42.0853287" lon="11.8807588"><ele>99.0</ele><time>2026-04-18T09:20:51.043Z</time></trkpt><trkpt lat="42.0852908" lon="11.8808509"><ele>99.0</ele><time>2026-04-18T09:20:52.038Z</time></trkpt><trkpt lat="42.0852441" lon="11.8809351"><ele>99.0</ele><time>2026-04-18T09:20:53.045Z</time></trkpt><trkpt lat="42.0851986" lon="11.8810212"><ele>99.0</ele><time>2026-04-18T09:20:54.05Z</time></trkpt><trkpt lat="42.0851577" lon="11.8811037"><ele>99.0</ele><time>2026-04-18T09:20:55.05Z</time></trkpt><trkpt lat="42.0851462" lon="11.8812047"><ele>99.0</ele><time>2026-04-18T09:20:56.046Z</time></trkpt><trkpt lat="42.0851535" lon="11.8813121"><ele>97.83333333333333</ele><time>2026-04-18T09:20:57.05Z</time></trkpt><trkpt lat="42.0851581" lon="11.8814291"><ele>96.66666666666667</ele><time>2026-04-18T09:20:58.044Z</time></trkpt><trkpt lat="42.08516" lon="11.8815416"><ele>95.5</ele><time>2026-04-18T09:20:59.05Z</time></trkpt><trkpt lat="42.0851514" lon="11.8816451"><ele>94.33333333333334</ele><time>2026-04-18T09:21:00.04Z</time></trkpt><trkpt lat="42.0851235" lon="11.8817301"><ele>93.16666666666667</ele><time>2026-04-18T09:21:01.047Z</time></trkpt><trkpt lat="42.0850942" lon="11.8818222"><ele>92.0</ele><time>2026-04-18T09:21:02.042Z</time></trkpt><trkpt lat="42.0850616" lon="11.8819209"><ele>91.83333333333334</ele><time>2026-04-18T09:21:03.045Z</time></trkpt><trkpt lat="42.0850302" lon="11.8820255"><ele>91.66666666666667</ele><time>2026-04-18T09:21:04.04Z</time></trkpt><trkpt lat="42.0850002" lon="11.8821318"><ele>91.5</ele><time>2026-04-18T09:21:05.05Z</time></trkpt><trkpt lat="42.0849676" lon="11.8822317"><ele>91.33333333333333</ele><time>2026-04-18T09:21:06.04Z</time></trkpt><trkpt lat="42.0849363" lon="11.8823291"><ele>91.16666666666666</ele><time>2026-04-18T09:21:07.05Z</time></trkpt><trkpt lat="42.0849098" lon="11.8824158"><ele>91.0</ele><time>2026-04-18T09:21:08.048Z</time></trkpt><trkpt lat="42.0848501" lon="11.8825353"><ele>90.85714285714286</ele><time>2026-04-18T09:21:10.041Z</time></trkpt><trkpt lat="42.0847816" lon="11.882607"><ele>90.71428571428572</ele><time>2026-04-18T09:21:12.047Z</time></trkpt><trkpt lat="42.0847314" lon="11.882661"><ele>90.57142857142857</ele><time>2026-04-18T09:21:37.061Z</time></trkpt><trkpt lat="42.0847861" lon="11.8827068"><ele>90.42857142857143</ele><time>2026-04-18T09:21:55.046Z</time></trkpt><trkpt lat="42.0848138" lon="11.8827987"><ele>90.28571428571429</ele><time>2026-04-18T09:21:58.057Z</time></trkpt><trkpt lat="42.0848249" lon="11.8829139"><ele>90.14285714285714</ele><time>2026-04-18T09:22:01.048Z</time></trkpt><trkpt lat="42.0847835" lon="11.8829873"><ele>90.0</ele><time>2026-04-18T09:22:14.044Z</time></trkpt><trkpt lat="42.0847392" lon="11.883052"><ele>90.0</ele><time>2026-04-18T09:22:17.044Z</time></trkpt><trkpt lat="42.0846997" lon="11.8831477"><ele>90.0</ele><time>2026-04-18T09:22:20.046Z</time></trkpt><trkpt lat="42.0846757" lon="11.8832279"><ele>90.0</ele><time>2026-04-18T09:22:35.051Z</time></trkpt><trkpt lat="42.084593" lon="11.8832118"><ele>90.0</ele><time>2026-04-18T09:24:52.055Z</time></trkpt><trkpt lat="42.0845307" lon="11.8831971"><ele>90.0</ele><time>2026-04-18T09:24:54.055Z</time></trkpt><trkpt lat="42.0844372" lon="11.8832099"><ele>90.0</ele><time>2026-04-18T09:24:57.052Z</time></trkpt><trkpt lat="42.084372" lon="11.883286"><ele>90.0</ele><time>2026-04-18T09:25:00.045Z</time></trkpt><trkpt lat="42.084327" lon="11.8833708"><ele>90.0</ele><time>2026-04-18T09:25:03.042Z</time></trkpt><trkpt lat="42.0842826" lon="11.8834654"><ele>90.0</ele><time>2026-04-18T09:25:05.057Z</time></trkpt><trkpt lat="42.0842107" lon="11.8835678"><ele>90.0</ele><time>2026-04-18T09:25:07.041Z</time></trkpt><trkpt lat="42.0841602" lon="11.8836441"><ele>90.0</ele><time>2026-04-18T09:25:08.043Z</time></trkpt><trkpt lat="42.0841045" lon="11.8837315"><ele>90.0</ele><time>2026-04-18T09:25:09.039Z</time></trkpt><trkpt lat="42.0840394" lon="11.8838192"><ele>89.75</ele><time>2026-04-18T09:25:10.042Z</time></trkpt><trkpt lat="42.0839633" lon="11.8838932"><ele>89.5</ele><time>2026-04-18T09:25:11.05Z</time></trkpt><trkpt lat="42.0838664" lon="11.8839642"><ele>89.25</ele><time>2026-04-18T09:25:12.043Z</time></trkpt><trkpt lat="42.083757" lon="11.8840431"><ele>89.0</ele><time>2026-04-18T09:25:13.042Z</time></trkpt><trkpt lat="42.0836359" lon="11.8841347"><ele>89.0</ele><time>2026-04-18T09:25:14.045Z</time></trkpt><trkpt lat="42.0835147" lon="11.8842267"><ele>89.0</ele><time>2026-04-18T09:25:15.062Z</time></trkpt><trkpt lat="42.0833951" lon="11.8843172"><ele>89.0</ele><time>2026-04-18T09:25:16.043Z</time></trkpt><trkpt lat="42.0832746" lon="11.8844076"><ele>89.0</ele><time>2026-04-18T09:25:17.049Z</time></trkpt><trkpt lat="42.0831408" lon="11.8844948"><ele>88.25</ele><time>2026-04-18T09:25:18.044Z</time></trkpt><trkpt lat="42.083013" lon="11.8845796"><ele>87.5</ele><time>2026-04-18T09:25:19.046Z</time></trkpt><trkpt lat="42.0828947" lon="11.8846629"><ele>86.75</ele><time>2026-04-18T09:25:20.043Z</time></trkpt><trkpt lat="42.0827971" lon="11.8847366"><ele>86.0</ele><time>2026-04-18T09:25:21.038Z</time></trkpt><trkpt lat="42.0827087" lon="11.8848088"><ele>86.0</ele><time>2026-04-18T09:25:22.051Z</time></trkpt><trkpt lat="42.0826387" lon="11.8848647"><ele>86.0</ele><time>2026-04-18T09:25:23.048Z</time></trkpt><trkpt lat="42.0825549" lon="11.8849546"><ele>86.0</ele><time>2026-04-18T09:25:25.055Z</time></trkpt><trkpt lat="42.0825124" lon="11.8850591"><ele>86.0</ele><time>2026-04-18T09:25:27.039Z</time></trkpt><trkpt lat="42.082463" lon="11.8851495"><ele>86.0</ele><time>2026-04-18T09:25:29.039Z</time></trkpt><trkpt lat="42.0823849" lon="11.8851598"><ele>86.0</ele><time>2026-04-18T09:25:31.042Z</time></trkpt><trkpt lat="42.0822775" lon="11.8851523"><ele>85.66666666666667</ele><time>2026-04-18T09:25:33.046Z</time></trkpt><trkpt lat="42.0821594" lon="11.8851638"><ele>85.33333333333334</ele><time>2026-04-18T09:25:35.051Z</time></trkpt><trkpt lat="42.0820933" lon="11.8851845"><ele>85.0</ele><time>2026-04-18T09:25:36.042Z</time></trkpt><trkpt lat="42.0819783" lon="11.8852398"><ele>84.66666666666667</ele><time>2026-04-18T09:25:38.047Z</time></trkpt><trkpt lat="42.0819144" lon="11.8852694"><ele>84.33333333333333</ele><time>2026-04-18T09:25:39.054Z</time></trkpt><trkpt lat="42.0818458" lon="11.8852965"><ele>84.0</ele><time>2026-04-18T09:25:40.043Z</time></trkpt><trkpt lat="42.0817746" lon="11.8853305"><ele>84.0</ele><time>2026-04-18T09:25:41.039Z</time></trkpt><trkpt lat="42.0817027" lon="11.8853746"><ele>84.0</ele><time>2026-04-18T09:25:42.049Z</time></trkpt><trkpt lat="42.0816332" lon="11.8854243"><ele>84.0</ele><time>2026-04-18T09:25:43.046Z</time></trkpt><trkpt lat="42.0815568" lon="11.8854854"><ele>84.0</ele><time>2026-04-18T09:25:44.056Z</time></trkpt><trkpt lat="42.0814752" lon="11.8855592"><ele>84.0</ele><time>2026-04-18T09:25:45.05Z</time></trkpt><trkpt lat="42.0813937" lon="11.8856473"><ele>84.0</ele><time>2026-04-18T09:25:46.046Z</time></trkpt><trkpt lat="42.0813114" lon="11.8857392"><ele>84.2</ele><time>2026-04-18T09:25:47.045Z</time></trkpt><trkpt lat="42.0812301" lon="11.8858304"><ele>84.4</ele><time>2026-04-18T09:25:48.048Z</time></trkpt><trkpt lat="42.081158" lon="11.8859128"><ele>84.6</ele><time>2026-04-18T09:25:49.046Z</time></trkpt><trkpt lat="42.0810941" lon="11.8859854"><ele>84.8</ele><time>2026-04-18T09:25:50.041Z</time></trkpt><trkpt lat="42.0810348" lon="11.8860671"><ele>85.0</ele><time>2026-04-18T09:25:51.049Z</time></trkpt><trkpt lat="42.0809754" lon="11.8861501"><ele>84.33333333333333</ele><time>2026-04-18T09:25:52.045Z</time></trkpt><trkpt lat="42.0809269" lon="11.886238"><ele>83.66666666666666</ele><time>2026-04-18T09:25:53.043Z</time></trkpt><trkpt lat="42.0808988" lon="11.8863302"><ele>83.0</ele><time>2026-04-18T09:25:54.042Z</time></trkpt><trkpt lat="42.0808575" lon="11.8864496"><ele>82.33333333333333</ele><time>2026-04-18T09:25:56.048Z</time></trkpt><trkpt lat="42.0808125" lon="11.8865433"><ele>81.66666666666667</ele><time>2026-04-18T09:25:58.048Z</time></trkpt><trkpt lat="42.0807413" lon="11.886602"><ele>81.0</ele><time>2026-04-18T09:26:00.042Z</time></trkpt><trkpt lat="42.0806587" lon="11.8866461"><ele>80.6</ele><time>2026-04-18T09:26:02.042Z</time></trkpt><trkpt lat="42.0805547" lon="11.8867395"><ele>80.19999999999999</ele><time>2026-04-18T09:26:04.047Z</time></trkpt><trkpt lat="42.0805019" lon="11.8867859"><ele>79.80000000000001</ele><time>2026-04-18T09:26:05.041Z</time></trkpt><trkpt lat="42.0803718" lon="11.8868459"><ele>79.4</ele><time>2026-04-18T09:26:07.044Z</time></trkpt><trkpt lat="42.080279" lon="11.8868482"><ele>79.0</ele><time>2026-04-18T09:26:08.043Z</time></trkpt><trkpt lat="42.0801707" lon="11.886856"><ele>79.0</ele><time>2026-04-18T09:26:09.038Z</time></trkpt><trkpt lat="42.0800662" lon="11.8868703"><ele>79.0</ele><time>2026-04-18T09:26:10.047Z</time></trkpt><trkpt lat="42.0799757" lon="11.8868742"><ele>79.0</ele><time>2026-04-18T09:26:11.045Z</time></trkpt><trkpt lat="42.0798987" lon="11.8868509"><ele>79.0</ele><time>2026-04-18T09:26:12.039Z</time></trkpt><trkpt lat="42.0798224" lon="11.8867906"><ele>79.0</ele><time>2026-04-18T09:26:13.047Z</time></trkpt><trkpt lat="42.0797488" lon="11.8867166"><ele>78.4</ele><time>2026-04-18T09:26:14.037Z</time></trkpt><trkpt lat="42.079673" lon="11.8866573"><ele>77.80000000000001</ele><time>2026-04-18T09:26:15.042Z</time></trkpt><trkpt lat="42.0795876" lon="11.8865959"><ele>77.19999999999999</ele><time>2026-04-18T09:26:16.042Z</time></trkpt><trkpt lat="42.0794813" lon="11.886579"><ele>76.6</ele><time>2026-04-18T09:26:17.041Z</time></trkpt><trkpt lat="42.0793716" lon="11.8865677"><ele>76.0</ele><time>2026-04-18T09:26:18.044Z</time></trkpt><trkpt lat="42.0792606" lon="11.8865507"><ele>76.0</ele><time>2026-04-18T09:26:19.05Z</time></trkpt><trkpt lat="42.0791546" lon="11.8864949"><ele>76.0</ele><time>2026-04-18T09:26:20.043Z</time></trkpt><trkpt lat="42.0790564" lon="11.8864443"><ele>76.0</ele><time>2026-04-18T09:26:21.044Z</time></trkpt><trkpt lat="42.0789816" lon="11.8863577"><ele>76.0</ele><time>2026-04-18T09:26:22.051Z</time></trkpt><trkpt lat="42.0789134" lon="11.8862515"><ele>76.0</ele><time>2026-04-18T09:26:23.043Z</time></trkpt><trkpt lat="42.0788351" lon="11.886137"><ele>76.5</ele><time>2026-04-18T09:26:24.04Z</time></trkpt><trkpt lat="42.0787613" lon="11.8860266"><ele>77.0</ele><time>2026-04-18T09:26:25.042Z</time></trkpt><trkpt lat="42.0786775" lon="11.8859043"><ele>77.5</ele><time>2026-04-18T09:26:26.048Z</time></trkpt><trkpt lat="42.078591" lon="11.8857805"><ele>78.0</ele><time>2026-04-18T09:26:27.05Z</time></trkpt><trkpt lat="42.0784961" lon="11.8856693"><ele>77.5</ele><time>2026-04-18T09:26:28.044Z</time></trkpt><trkpt lat="42.0783971" lon="11.8855785"><ele>77.0</ele><time>2026-04-18T09:26:29.041Z</time></trkpt><trkpt lat="42.0782956" lon="11.885478"><ele>76.5</ele><time>2026-04-18T09:26:30.05Z</time></trkpt><trkpt lat="42.0781941" lon="11.8853707"><ele>76.0</ele><time>2026-04-18T09:26:31.043Z</time></trkpt><trkpt lat="42.078091" lon="11.8852572"><ele>76.0</ele><time>2026-04-18T09:26:32.045Z</time></trkpt><trkpt lat="42.0779842" lon="11.8851512"><ele>76.0</ele><time>2026-04-18T09:26:33.046Z</time></trkpt><trkpt lat="42.077877" lon="11.8850498"><ele>76.0</ele><time>2026-04-18T09:26:34.043Z</time></trkpt><trkpt lat="42.0777555" lon="11.8849683"><ele>76.0</ele><time>2026-04-18T09:26:35.047Z</time></trkpt><trkpt lat="42.0776311" lon="11.8849005"><ele>76.2</ele><time>2026-04-18T09:26:36.041Z</time></trkpt><trkpt lat="42.0775161" lon="11.8848557"><ele>76.39999999999999</ele><time>2026-04-18T09:26:37.043Z</time></trkpt><trkpt lat="42.0774095" lon="11.8848098"><ele>76.6</ele><time>2026-04-18T09:26:38.047Z</time></trkpt><trkpt lat="42.0773154" lon="11.8847625"><ele>76.8</ele><time>2026-04-18T09:26:39.044Z</time></trkpt><trkpt lat="42.0772225" lon="11.8847375"><ele>77.0</ele><time>2026-04-18T09:26:40.043Z</time></trkpt><trkpt lat="42.0771117" lon="11.8847621"><ele>77.0</ele><time>2026-04-18T09:26:41.048Z</time></trkpt><trkpt lat="42.077005" lon="11.8848107"><ele>77.0</ele><time>2026-04-18T09:26:42.039Z</time></trkpt><trkpt lat="42.0768992" lon="11.8848371"><ele>77.0</ele><time>2026-04-18T09:26:43.043Z</time></trkpt><trkpt lat="42.0767931" lon="11.8848309"><ele>77.0</ele><time>2026-04-18T09:26:44.047Z</time></trkpt><trkpt lat="42.0766783" lon="11.8848211"><ele>77.0</ele><time>2026-04-18T09:26:45.041Z</time></trkpt><trkpt lat="42.0765565" lon="11.884774"><ele>76.75</ele><time>2026-04-18T09:26:46.044Z</time></trkpt><trkpt lat="42.0764363" lon="11.8847241"><ele>76.5</ele><time>2026-04-18T09:26:47.039Z</time></trkpt><trkpt lat="42.0763214" lon="11.8846811"><ele>76.25</ele><time>2026-04-18T09:26:48.041Z</time></trkpt><trkpt lat="42.0761969" lon="11.884642"><ele>76.0</ele><time>2026-04-18T09:26:49.039Z</time></trkpt><trkpt lat="42.0760696" lon="11.884605"><ele>76.0</ele><time>2026-04-18T09:26:50.047Z</time></trkpt><trkpt lat="42.0759407" lon="11.8845719"><ele>76.0</ele><time>2026-04-18T09:26:51.043Z</time></trkpt><trkpt lat="42.0758034" lon="11.8845521"><ele>76.0</ele><time>2026-04-18T09:26:52.045Z</time></trkpt><trkpt lat="42.0756599" lon="11.8845338"><ele>76.0</ele><time>2026-04-18T09:26:53.042Z</time></trkpt><trkpt lat="42.075518" lon="11.8845075"><ele>76.75</ele><time>2026-04-18T09:26:54.053Z</time></trkpt><trkpt lat="42.0753906" lon="11.8844893"><ele>77.5</ele><time>2026-04-18T09:26:55.05Z</time></trkpt><trkpt lat="42.0752692" lon="11.8844851"><ele>78.25</ele><time>2026-04-18T09:26:56.044Z</time></trkpt><trkpt lat="42.0751435" lon="11.884483"><ele>79.0</ele><time>2026-04-18T09:26:57.039Z</time></trkpt><trkpt lat="42.0750218" lon="11.8844864"><ele>79.25</ele><time>2026-04-18T09:26:58.043Z</time></trkpt><trkpt lat="42.0748977" lon="11.8844839"><ele>79.5</ele><time>2026-04-18T09:26:59.046Z</time></trkpt><trkpt lat="42.0747658" lon="11.8844533"><ele>79.75</ele><time>2026-04-18T09:27:00.04Z</time></trkpt><trkpt lat="42.0746379" lon="11.884403"><ele>80.0</ele><time>2026-04-18T09:27:01.042Z</time></trkpt><trkpt lat="42.0745137" lon="11.8843502"><ele>80.0</ele><time>2026-04-18T09:27:02.041Z</time></trkpt><trkpt lat="42.074376" lon="11.8842937"><ele>80.0</ele><time>2026-04-18T09:27:03.038Z</time></trkpt><trkpt lat="42.0742177" lon="11.884254"><ele>80.0</ele><time>2026-04-18T09:27:04.042Z</time></trkpt><trkpt lat="42.0740661" lon="11.884201"><ele>78.0</ele><time>2026-04-18T09:27:05.043Z</time></trkpt><trkpt lat="42.0739292" lon="11.8841593"><ele>76.0</ele><time>2026-04-18T09:27:06.046Z</time></trkpt><trkpt lat="42.0738021" lon="11.884146"><ele>74.0</ele><time>2026-04-18T09:27:07.041Z</time></trkpt><trkpt lat="42.0736893" lon="11.884143"><ele>72.0</ele><time>2026-04-18T09:27:08.045Z</time></trkpt><trkpt lat="42.0735946" lon="11.8841687"><ele>72.0</ele><time>2026-04-18T09:27:09.046Z</time></trkpt><trkpt lat="42.0735173" lon="11.884165"><ele>72.0</ele><time>2026-04-18T09:27:10.043Z</time></trkpt><trkpt lat="42.0734372" lon="11.8841601"><ele>72.0</ele><time>2026-04-18T09:27:11.054Z</time></trkpt><trkpt lat="42.0733536" lon="11.8841709"><ele>72.0</ele><time>2026-04-18T09:27:12.048Z</time></trkpt><trkpt lat="42.073268" lon="11.8841957"><ele>72.0</ele><time>2026-04-18T09:27:13.042Z</time></trkpt><trkpt lat="42.0731878" lon="11.8842262"><ele>72.0</ele><time>2026-04-18T09:27:14.038Z</time></trkpt><trkpt lat="42.0731086" lon="11.8842635"><ele>72.16666666666667</ele><time>2026-04-18T09:27:15.042Z</time></trkpt><trkpt lat="42.0730305" lon="11.8842916"><ele>72.33333333333333</ele><time>2026-04-18T09:27:16.042Z</time></trkpt><trkpt lat="42.0729589" lon="11.8842959"><ele>72.5</ele><time>2026-04-18T09:27:17.043Z</time></trkpt><trkpt lat="42.072849" lon="11.8842806"><ele>72.66666666666666</ele><time>2026-04-18T09:27:19.042Z</time></trkpt><trkpt lat="42.0727736" lon="11.8842536"><ele>72.83333333333333</ele><time>2026-04-18T09:27:21.048Z</time></trkpt><trkpt lat="42.0727085" lon="11.8842329"><ele>73.0</ele><time>2026-04-18T09:27:53.048Z</time></trkpt><trkpt lat="42.0726361" lon="11.8843314"><ele>72.4</ele><time>2026-04-18T09:28:55.043Z</time></trkpt><trkpt lat="42.0726354" lon="11.8845252"><ele>71.8</ele><time>2026-04-18T09:28:57.045Z</time></trkpt><trkpt lat="42.0726399" lon="11.8846609"><ele>71.2</ele><time>2026-04-18T09:28:58.067Z</time></trkpt><trkpt lat="42.0726326" lon="11.8847452"><ele>70.6</ele><time>2026-04-18T09:28:59.048Z</time></trkpt><trkpt lat="42.072639" lon="11.8849123"><ele>70.0</ele><time>2026-04-18T09:29:01.041Z</time></trkpt><trkpt lat="42.0726458" lon="11.8849971"><ele>70.0</ele><time>2026-04-18T09:29:02.037Z</time></trkpt><trkpt lat="42.072647" lon="11.8850856"><ele>70.0</ele><time>2026-04-18T09:29:03.041Z</time></trkpt><trkpt lat="42.0726436" lon="11.8851839"><ele>70.0</ele><time>2026-04-18T09:29:04.041Z</time></trkpt><trkpt lat="42.0726284" lon="11.8852838"><ele>70.0</ele><time>2026-04-18T09:29:05.038Z</time></trkpt><trkpt lat="42.0726151" lon="11.8854231"><ele>70.0</ele><time>2026-04-18T09:29:07.041Z</time></trkpt><trkpt lat="42.0725643" lon="11.8854768"><ele>70.0</ele><time>2026-04-18T09:29:19.058Z</time></trkpt><trkpt lat="42.0725007" lon="11.8854508"><ele>70.0</ele><time>2026-04-18T09:29:21.048Z</time></trkpt><trkpt lat="42.0725286" lon="11.8853438"><ele>70.0</ele><time>2026-04-18T09:34:40.007Z</time></trkpt><trkpt lat="42.0725934" lon="11.885299"><ele>70.0</ele><time>2026-04-18T09:34:42.05Z</time></trkpt><trkpt lat="42.0726645" lon="11.8851954"><ele>70.0</ele><time>2026-04-18T09:34:44.045Z</time></trkpt><trkpt lat="42.0727171" lon="11.8850594"><ele>70.0</ele><time>2026-04-18T09:34:46.038Z</time></trkpt><trkpt lat="42.0726925" lon="11.884922"><ele>70.0</ele><time>2026-04-18T09:34:48.044Z</time></trkpt><trkpt lat="42.0726571" lon="11.8848042"><ele>70.0</ele><time>2026-04-18T09:34:50.038Z</time></trkpt><trkpt lat="42.0726296" lon="11.8847093"><ele>70.0</ele><time>2026-04-18T09:34:52.042Z</time></trkpt><trkpt lat="42.0726351" lon="11.8845914"><ele>70.0</ele><time>2026-04-18T09:35:02.035Z</time></trkpt><trkpt lat="42.0726408" lon="11.8844583"><ele>70.0</ele><time>2026-04-18T09:35:04.043Z</time></trkpt><trkpt lat="42.0726563" lon="11.8843628"><ele>70.0</ele><time>2026-04-18T09:35:05.043Z</time></trkpt><trkpt lat="42.0726555" lon="11.884254"><ele>70.5</ele><time>2026-04-18T09:35:07.046Z</time></trkpt><trkpt lat="42.0725692" lon="11.8842355"><ele>71.0</ele><time>2026-04-18T09:36:43.054Z</time></trkpt><trkpt lat="42.0725024" lon="11.8842242"><ele>71.5</ele><time>2026-04-18T09:36:45.053Z</time></trkpt><trkpt lat="42.0723998" lon="11.8842254"><ele>72.0</ele><time>2026-04-18T09:36:47.049Z</time></trkpt><trkpt lat="42.072313" lon="11.8842151"><ele>72.5</ele><time>2026-04-18T09:36:49.044Z</time></trkpt><trkpt lat="42.0723998" lon="11.8842336"><ele>73.0</ele><time>2026-04-18T09:36:58.051Z</time></trkpt><trkpt lat="42.0724822" lon="11.8842402"><ele>73.0</ele><time>2026-04-18T09:37:00.05Z</time></trkpt><trkpt lat="42.0725496" lon="11.8842438"><ele>73.0</ele><time>2026-04-18T09:37:03.042Z</time></trkpt><trkpt lat="42.0726293" lon="11.8842255"><ele>73.0</ele><time>2026-04-18T09:37:07.047Z</time></trkpt><trkpt lat="42.0726685" lon="11.8842953"><ele>73.0</ele><time>2026-04-18T09:37:10.043Z</time></trkpt><trkpt lat="42.0726518" lon="11.8844455"><ele>73.0</ele><time>2026-04-18T09:37:12.048Z</time></trkpt><trkpt lat="42.0726487" lon="11.884536"><ele>73.0</ele><time>2026-04-18T09:37:13.04Z</time></trkpt><trkpt lat="42.072644" lon="11.8846352"><ele>72.5</ele><time>2026-04-18T09:37:14.041Z</time></trkpt><trkpt lat="42.0726338" lon="11.8847376"><ele>72.0</ele><time>2026-04-18T09:37:15.043Z</time></trkpt><trkpt lat="42.0726253" lon="11.8848356"><ele>71.5</ele><time>2026-04-18T09:37:16.059Z</time></trkpt><trkpt lat="42.0726162" lon="11.8849507"><ele>71.0</ele><time>2026-04-18T09:37:17.042Z</time></trkpt><trkpt lat="42.072617" lon="11.885076"><ele>70.5</ele><time>2026-04-18T09:37:18.049Z</time></trkpt><trkpt lat="42.0726119" lon="11.8852063"><ele>70.0</ele><time>2026-04-18T09:37:19.048Z</time></trkpt><trkpt lat="42.0726078" lon="11.8853484"><ele>73.25</ele><time>2026-04-18T09:37:20.047Z</time></trkpt><trkpt lat="42.0726058" lon="11.8855118"><ele>76.5</ele><time>2026-04-18T09:37:21.042Z</time></trkpt><trkpt lat="42.0725976" lon="11.8856669"><ele>79.75</ele><time>2026-04-18T09:37:22.049Z</time></trkpt><trkpt lat="42.072573" lon="11.8858126"><ele>83.0</ele><time>2026-04-18T09:37:23.041Z</time></trkpt><trkpt lat="42.0725364" lon="11.885954"><ele>84.33333333333334</ele><time>2026-04-18T09:37:24.041Z</time></trkpt><trkpt lat="42.0725102" lon="11.8860869"><ele>85.66666666666667</ele><time>2026-04-18T09:37:25.044Z</time></trkpt><trkpt lat="42.0724843" lon="11.8862025"><ele>87.0</ele><time>2026-04-18T09:37:26.04Z</time></trkpt><trkpt lat="42.0724715" lon="11.8862882"><ele>88.33333333333333</ele><time>2026-04-18T09:37:27.048Z</time></trkpt><trkpt lat="42.0724844" lon="11.8864194"><ele>89.66666666666666</ele><time>2026-04-18T09:37:29.044Z</time></trkpt><trkpt lat="42.072478" lon="11.8865317"><ele>91.0</ele><time>2026-04-18T09:37:32.041Z</time></trkpt><trkpt lat="42.0724481" lon="11.8866628"><ele>91.5</ele><time>2026-04-18T09:37:34.046Z</time></trkpt><trkpt lat="42.0724296" lon="11.8867682"><ele>92.0</ele><time>2026-04-18T09:37:35.044Z</time></trkpt><trkpt lat="42.07241" lon="11.8868842"><ele>92.5</ele><time>2026-04-18T09:37:36.054Z</time></trkpt><trkpt lat="42.0723908" lon="11.8869953"><ele>93.0</ele><time>2026-04-18T09:37:37.056Z</time></trkpt><trkpt lat="42.0723717" lon="11.8870997"><ele>93.5</ele><time>2026-04-18T09:37:38.046Z</time></trkpt><trkpt lat="42.0723535" lon="11.8872035"><ele>94.0</ele><time>2026-04-18T09:37:39.054Z</time></trkpt><trkpt lat="42.0723338" lon="11.8873121"><ele>94.0</ele><time>2026-04-18T09:37:40.051Z</time></trkpt><trkpt lat="42.0723125" lon="11.8874115"><ele>94.0</ele><time>2026-04-18T09:37:41.048Z</time></trkpt><trkpt lat="42.0722883" lon="11.887522"><ele>94.0</ele><time>2026-04-18T09:37:42.047Z</time></trkpt><trkpt lat="42.0722647" lon="11.8876382"><ele>94.0</ele><time>2026-04-18T09:37:43.051Z</time></trkpt><trkpt lat="42.0722385" lon="11.887752"><ele>94.0</ele><time>2026-04-18T09:37:44.049Z</time></trkpt><trkpt lat="42.072212" lon="11.887865"><ele>94.0</ele><time>2026-04-18T09:37:45.061Z</time></trkpt><trkpt lat="42.0721873" lon="11.8879822"><ele>95.0</ele><time>2026-04-18T09:37:46.056Z</time></trkpt><trkpt lat="42.0721617" lon="11.8881008"><ele>96.0</ele><time>2026-04-18T09:37:47.051Z</time></trkpt><trkpt lat="42.0721401" lon="11.8882151"><ele>97.0</ele><time>2026-04-18T09:37:48.056Z</time></trkpt><trkpt lat="42.0721184" lon="11.8883265"><ele>98.0</ele><time>2026-04-18T09:37:49.046Z</time></trkpt><trkpt lat="42.0720997" lon="11.8884371"><ele>99.00000000000001</ele><time>2026-04-18T09:37:50.046Z</time></trkpt><trkpt lat="42.0720825" lon="11.888543"><ele>100.0</ele><time>2026-04-18T09:37:51.046Z</time></trkpt><trkpt lat="42.0720642" lon="11.8886494"><ele>101.00000000000001</ele><time>2026-04-18T09:37:52.045Z</time></trkpt><trkpt lat="42.0720475" lon="11.888755"><ele>102.0</ele><time>2026-04-18T09:37:53.047Z</time></trkpt><trkpt lat="42.0720292" lon="11.8888594"><ele>103.0</ele><time>2026-04-18T09:37:54.046Z</time></trkpt><trkpt lat="42.0720163" lon="11.8889644"><ele>104.0</ele><time>2026-04-18T09:37:55.046Z</time></trkpt><trkpt lat="42.0720044" lon="11.8890694"><ele>105.00000000000001</ele><time>2026-04-18T09:37:56.044Z</time></trkpt><trkpt lat="42.0719907" lon="11.8891608"><ele>106.0</ele><time>2026-04-18T09:37:57.052Z</time></trkpt><trkpt lat="42.0719748" lon="11.8892565"><ele>106.66666666666667</ele><time>2026-04-18T09:37:58.042Z</time></trkpt><trkpt lat="42.0719568" lon="11.8893454"><ele>107.33333333333334</ele><time>2026-04-18T09:37:59.047Z</time></trkpt><trkpt lat="42.0719388" lon="11.8894267"><ele>108.0</ele><time>2026-04-18T09:38:00.054Z</time></trkpt><trkpt lat="42.0719105" lon="11.8895524"><ele>108.66666666666666</ele><time>2026-04-18T09:38:02.041Z</time></trkpt><trkpt lat="42.0718954" lon="11.889655"><ele>109.33333333333333</ele><time>2026-04-18T09:38:04.048Z</time></trkpt><trkpt lat="42.0718845" lon="11.889741"><ele>110.0</ele><time>2026-04-18T09:38:06.046Z</time></trkpt><trkpt lat="42.0718569" lon="11.889859"><ele>109.99999999999999</ele><time>2026-04-18T09:38:09.053Z</time></trkpt><trkpt lat="42.0718405" lon="11.8899428"><ele>110.0</ele><time>2026-04-18T09:38:11.042Z</time></trkpt><trkpt lat="42.0718099" lon="11.890046"><ele>110.0</ele><time>2026-04-18T09:38:14.053Z</time></trkpt><trkpt lat="42.0717362" lon="11.890074"><ele>110.0</ele><time>2026-04-18T09:38:17.047Z</time></trkpt><trkpt lat="42.071668" lon="11.8901362"><ele>109.99999999999999</ele><time>2026-04-18T09:39:20.05Z</time></trkpt><trkpt lat="42.0716181" lon="11.8902412"><ele>110.0</ele><time>2026-04-18T09:39:22.039Z</time></trkpt><trkpt lat="42.0715705" lon="11.8903275"><ele>110.16666666666666</ele><time>2026-04-18T09:39:24.05Z</time></trkpt><trkpt lat="42.0715319" lon="11.8904128"><ele>110.33333333333333</ele><time>2026-04-18T09:39:26.045Z</time></trkpt><trkpt lat="42.0714892" lon="11.8904805"><ele>110.5</ele><time>2026-04-18T09:39:29.04Z</time></trkpt><trkpt lat="42.0714006" lon="11.8904562"><ele>110.66666666666666</ele><time>2026-04-18T09:39:36.04Z</time></trkpt><trkpt lat="42.0713502" lon="11.8903633"><ele>110.83333333333333</ele><time>2026-04-18T09:39:39.047Z</time></trkpt><trkpt lat="42.0713335" lon="11.8902497"><ele>111.0</ele><time>2026-04-18T09:39:41.042Z</time></trkpt><trkpt lat="42.0713013" lon="11.8900964"><ele>110.16666666666667</ele><time>2026-04-18T09:39:43.041Z</time></trkpt><trkpt lat="42.071281" lon="11.8900042"><ele>109.33333333333334</ele><time>2026-04-18T09:39:44.042Z</time></trkpt><trkpt lat="42.0712599" lon="11.889908"><ele>108.5</ele><time>2026-04-18T09:39:45.046Z</time></trkpt><trkpt lat="42.0712446" lon="11.8898076"><ele>107.66666666666667</ele><time>2026-04-18T09:39:46.048Z</time></trkpt><trkpt lat="42.0712302" lon="11.889719"><ele>106.83333333333334</ele><time>2026-04-18T09:39:47.048Z</time></trkpt><trkpt lat="42.0711783" lon="11.8896252"><ele>106.0</ele><time>2026-04-18T09:39:49.044Z</time></trkpt><trkpt lat="42.071102" lon="11.8895596"><ele>106.00000000000001</ele><time>2026-04-18T09:39:51.052Z</time></trkpt><trkpt lat="42.0710255" lon="11.8894962"><ele>106.0</ele><time>2026-04-18T09:39:53.051Z</time></trkpt><trkpt lat="42.0709712" lon="11.889453"><ele>106.0</ele><time>2026-04-18T09:39:55.052Z</time></trkpt><trkpt lat="42.0708925" lon="11.889386"><ele>106.0</ele><time>2026-04-18T09:39:58.048Z</time></trkpt><trkpt lat="42.070826" lon="11.8893389"><ele>106.00000000000001</ele><time>2026-04-18T09:40:00.048Z</time></trkpt><trkpt lat="42.0707853" lon="11.8892733"><ele>106.0</ele><time>2026-04-18T09:40:02.04Z</time></trkpt><trkpt lat="42.070764" lon="11.8891807"><ele>106.0</ele><time>2026-04-18T09:40:04.043Z</time></trkpt><trkpt lat="42.0707629" lon="11.8890662"><ele>106.0</ele><time>2026-04-18T09:40:06.046Z</time></trkpt><trkpt lat="42.070734" lon="11.8889906"><ele>106.0</ele><time>2026-04-18T09:40:09.042Z</time></trkpt><trkpt lat="42.0707416" lon="11.8891184"><ele>106.0</ele><time>2026-04-18T09:50:41.015Z</time></trkpt><trkpt lat="42.0707681" lon="11.8892086"><ele>106.0</ele><time>2026-04-18T09:50:43.048Z</time></trkpt><trkpt lat="42.0708026" lon="11.8893952"><ele>106.00000000000001</ele><time>2026-04-18T09:50:45.045Z</time></trkpt><trkpt lat="42.0708296" lon="11.8895116"><ele>106.0</ele><time>2026-04-18T09:50:46.045Z</time></trkpt><trkpt lat="42.0708622" lon="11.8896323"><ele>106.0</ele><time>2026-04-18T09:50:47.046Z</time></trkpt><trkpt lat="42.0709021" lon="11.8897368"><ele>106.0</ele><time>2026-04-18T09:50:48.048Z</time></trkpt><trkpt lat="42.0709461" lon="11.8898245"><ele>106.00000000000001</ele><time>2026-04-18T09:50:49.051Z</time></trkpt><trkpt lat="42.0709979" lon="11.8899003"><ele>106.0</ele><time>2026-04-18T09:50:50.047Z</time></trkpt><trkpt lat="42.0710205" lon="11.8900094"><ele>106.83333333333334</ele><time>2026-04-18T09:50:52.044Z</time></trkpt><trkpt lat="42.0709331" lon="11.890126"><ele>107.66666666666667</ele><time>2026-04-18T09:50:54.052Z</time></trkpt><trkpt lat="42.0709041" lon="11.8902037"><ele>108.5</ele><time>2026-04-18T09:50:55.04Z</time></trkpt><trkpt lat="42.0708681" lon="11.8903132"><ele>109.33333333333334</ele><time>2026-04-18T09:50:57.044Z</time></trkpt><trkpt lat="42.0709473" lon="11.8903558"><ele>110.16666666666667</ele><time>2026-04-18T09:51:00.047Z</time></trkpt><trkpt lat="42.0710179" lon="11.8903604"><ele>111.0</ele><time>2026-04-18T09:51:19.055Z</time></trkpt><trkpt lat="42.0710951" lon="11.890485"><ele>111.0</ele><time>2026-04-18T09:51:21.048Z</time></trkpt><trkpt lat="42.071074" lon="11.8906204"><ele>111.0</ele><time>2026-04-18T09:51:23.051Z</time></trkpt><trkpt lat="42.0710961" lon="11.8907145"><ele>111.0</ele><time>2026-04-18T09:51:25.046Z</time></trkpt><trkpt lat="42.0711353" lon="11.8907938"><ele>111.0</ele><time>2026-04-18T09:51:28.051Z</time></trkpt><trkpt lat="42.0711837" lon="11.8908695"><ele>111.0</ele><time>2026-04-18T09:51:39.062Z</time></trkpt><trkpt lat="42.0712478" lon="11.8909497"><ele>111.0</ele><time>2026-04-18T09:52:02.055Z</time></trkpt><trkpt lat="42.0713092" lon="11.8910234"><ele>111.0</ele><time>2026-04-18T09:52:06.05Z</time></trkpt><trkpt lat="42.0713805" lon="11.8910394"><ele>111.0</ele><time>2026-04-18T09:52:12.043Z</time></trkpt><trkpt lat="42.0714641" lon="11.8910389"><ele>111.0</ele><time>2026-04-18T09:52:17.065Z</time></trkpt><trkpt lat="42.0715283" lon="11.890945"><ele>111.0</ele><time>2026-04-18T09:52:19.044Z</time></trkpt><trkpt lat="42.0715291" lon="11.8908286"><ele>111.0</ele><time>2026-04-18T09:52:21.043Z</time></trkpt><trkpt lat="42.071516" lon="11.8907386"><ele>111.0</ele><time>2026-04-18T09:52:23.044Z</time></trkpt><trkpt lat="42.0715165" lon="11.8906401"><ele>111.0</ele><time>2026-04-18T09:52:36.057Z</time></trkpt><trkpt lat="42.0715111" lon="11.8905402"><ele>111.0</ele><time>2026-04-18T09:52:39.049Z</time></trkpt><trkpt lat="42.0715753" lon="11.8905235"><ele>111.0</ele><time>2026-04-18T09:55:35.051Z</time></trkpt><trkpt lat="42.0715867" lon="11.890625"><ele>111.0</ele><time>2026-04-18T09:55:37.059Z</time></trkpt><trkpt lat="42.0716066" lon="11.8907557"><ele>111.0</ele><time>2026-04-18T09:55:39.051Z</time></trkpt><trkpt lat="42.0716446" lon="11.890886"><ele>111.0</ele><time>2026-04-18T09:55:41.046Z</time></trkpt><trkpt lat="42.071657" lon="11.8910359"><ele>112.8</ele><time>2026-04-18T09:55:43.048Z</time></trkpt><trkpt lat="42.0716308" lon="11.8912006"><ele>114.6</ele><time>2026-04-18T09:55:45.051Z</time></trkpt><trkpt lat="42.0716151" lon="11.8912852"><ele>116.4</ele><time>2026-04-18T09:55:46.056Z</time></trkpt><trkpt lat="42.0715932" lon="11.8913665"><ele>118.2</ele><time>2026-04-18T09:55:47.059Z</time></trkpt><trkpt lat="42.0715336" lon="11.8915121"><ele>120.0</ele><time>2026-04-18T09:55:49.053Z</time></trkpt><trkpt lat="42.0714866" lon="11.8915887"><ele>120.0</ele><time>2026-04-18T09:55:50.052Z</time></trkpt><trkpt lat="42.0714417" lon="11.8916542"><ele>120.0</ele><time>2026-04-18T09:55:51.048Z</time></trkpt><trkpt lat="42.0713856" lon="11.8917209"><ele>120.0</ele><time>2026-04-18T09:55:52.044Z</time></trkpt><trkpt lat="42.0713318" lon="11.8918078"><ele>120.0</ele><time>2026-04-18T09:55:53.055Z</time></trkpt><trkpt lat="42.0712661" lon="11.8919067"><ele>120.0</ele><time>2026-04-18T09:55:54.046Z</time></trkpt><trkpt lat="42.0711936" lon="11.8920005"><ele>120.0</ele><time>2026-04-18T09:55:55.052Z</time></trkpt><trkpt lat="42.0711139" lon="11.8921002"><ele>121.2</ele><time>2026-04-18T09:55:56.052Z</time></trkpt><trkpt lat="42.0710329" lon="11.8922001"><ele>122.4</ele><time>2026-04-18T09:55:57.044Z</time></trkpt><trkpt lat="42.0709579" lon="11.8923066"><ele>123.6</ele><time>2026-04-18T09:55:58.047Z</time></trkpt><trkpt lat="42.07088" lon="11.892414"><ele>124.8</ele><time>2026-04-18T09:55:59.05Z</time></trkpt><trkpt lat="42.0707996" lon="11.8925275"><ele>126.0</ele><time>2026-04-18T09:56:00.054Z</time></trkpt><trkpt lat="42.0707213" lon="11.8926367"><ele>129.25</ele><time>2026-04-18T09:56:01.045Z</time></trkpt><trkpt lat="42.0706415" lon="11.892746"><ele>132.5</ele><time>2026-04-18T09:56:02.056Z</time></trkpt><trkpt lat="42.0705616" lon="11.8928544"><ele>135.75</ele><time>2026-04-18T09:56:03.063Z</time></trkpt><trkpt lat="42.0704808" lon="11.89296"><ele>139.0</ele><time>2026-04-18T09:56:04.051Z</time></trkpt><trkpt lat="42.0704015" lon="11.8930731"><ele>139.0</ele><time>2026-04-18T09:56:05.053Z</time></trkpt><trkpt lat="42.0703223" lon="11.8931852"><ele>139.0</ele><time>2026-04-18T09:56:06.059Z</time></trkpt><trkpt lat="42.0702445" lon="11.8932945"><ele>139.0</ele><time>2026-04-18T09:56:07.056Z</time></trkpt><trkpt lat="42.0701684" lon="11.8934022"><ele>139.0</ele><time>2026-04-18T09:56:08.057Z</time></trkpt><trkpt lat="42.0701" lon="11.8935001"><ele>139.0</ele><time>2026-04-18T09:56:09.051Z</time></trkpt><trkpt lat="42.0700505" lon="11.8935739"><ele>139.83333333333334</ele><time>2026-04-18T09:56:10.045Z</time></trkpt><trkpt lat="42.0699681" lon="11.8936821"><ele>140.66666666666669</ele><time>2026-04-18T09:56:12.056Z</time></trkpt><trkpt lat="42.0699195" lon="11.8937465"><ele>141.5</ele><time>2026-04-18T09:56:13.056Z</time></trkpt><trkpt lat="42.0698649" lon="11.8938219"><ele>142.33333333333334</ele><time>2026-04-18T09:56:14.058Z</time></trkpt><trkpt lat="42.0698124" lon="11.8938945"><ele>143.16666666666666</ele><time>2026-04-18T09:56:15.059Z</time></trkpt><trkpt lat="42.0697641" lon="11.8939583"><ele>144.0</ele><time>2026-04-18T09:56:16.06Z</time></trkpt><trkpt lat="42.0697068" lon="11.8940456"><ele>144.5</ele><time>2026-04-18T09:56:18.064Z</time></trkpt><trkpt lat="42.0696269" lon="11.894133"><ele>145.0</ele><time>2026-04-18T09:56:30.06Z</time></trkpt><trkpt lat="42.0695437" lon="11.8941498"><ele>145.5</ele><time>2026-04-18T09:56:32.052Z</time></trkpt><trkpt lat="42.0694856" lon="11.8941116"><ele>146.0</ele><time>2026-04-18T09:56:33.061Z</time></trkpt><trkpt lat="42.0694218" lon="11.8940707"><ele>146.5</ele><time>2026-04-18T09:56:34.046Z</time></trkpt><trkpt lat="42.0693523" lon="11.8940114"><ele>147.0</ele><time>2026-04-18T09:56:35.051Z</time></trkpt><trkpt lat="42.0692772" lon="11.893956"><ele>147.0</ele><time>2026-04-18T09:56:36.062Z</time></trkpt><trkpt lat="42.0692174" lon="11.8939093"><ele>147.0</ele><time>2026-04-18T09:56:37.053Z</time></trkpt><trkpt lat="42.0691616" lon="11.8938694"><ele>147.0</ele><time>2026-04-18T09:56:38.053Z</time></trkpt><trkpt lat="42.0690802" lon="11.8938167"><ele>147.0</ele><time>2026-04-18T09:56:40.064Z</time></trkpt><trkpt lat="42.0690131" lon="11.8937553"><ele>147.0</ele><time>2026-04-18T09:56:49.05Z</time></trkpt><trkpt lat="42.0690492" lon="11.8936376"><ele>147.0</ele><time>2026-04-18T09:56:52.048Z</time></trkpt><trkpt lat="42.0691185" lon="11.8935832"><ele>147.0</ele><time>2026-04-18T09:57:15.046Z</time></trkpt><trkpt lat="42.0691974" lon="11.8936279"><ele>147.0</ele><time>2026-04-18T09:57:17.054Z</time></trkpt><trkpt lat="42.0692804" lon="11.8937206"><ele>147.0</ele><time>2026-04-18T09:57:19.052Z</time></trkpt><trkpt lat="42.0693422" lon="11.8937851"><ele>147.0</ele><time>2026-04-18T09:57:21.047Z</time></trkpt><trkpt lat="42.0693918" lon="11.8938453"><ele>147.0</ele><time>2026-04-18T09:57:23.059Z</time></trkpt><trkpt lat="42.0694523" lon="11.8938913"><ele>147.0</ele><time>2026-04-18T09:57:25.054Z</time></trkpt><trkpt lat="42.0695079" lon="11.8938377"><ele>147.0</ele><time>2026-04-18T09:57:30.041Z</time></trkpt><trkpt lat="42.0694916" lon="11.8937318"><ele>147.0</ele><time>2026-04-18T09:58:03.052Z</time></trkpt><trkpt lat="42.0694175" lon="11.8936277"><ele>147.0</ele><time>2026-04-18T09:58:05.047Z</time></trkpt><trkpt lat="42.0693227" lon="11.8935702"><ele>147.0</ele><time>2026-04-18T09:58:07.045Z</time></trkpt><trkpt lat="42.0691806" lon="11.8934842"><ele>147.0</ele><time>2026-04-18T09:58:09.045Z</time></trkpt><trkpt lat="42.0691044" lon="11.893427"><ele>147.4</ele><time>2026-04-18T09:58:10.047Z</time></trkpt><trkpt lat="42.069049" lon="11.8933783"><ele>147.79999999999998</ele><time>2026-04-18T09:58:11.045Z</time></trkpt><trkpt lat="42.0690566" lon="11.8932158"><ele>148.2</ele><time>2026-04-18T09:58:14.055Z</time></trkpt><trkpt lat="42.0691018" lon="11.8931011"><ele>148.6</ele><time>2026-04-18T09:58:15.052Z</time></trkpt><trkpt lat="42.0691513" lon="11.8929901"><ele>149.0</ele><time>2026-04-18T09:58:16.058Z</time></trkpt><trkpt lat="42.0691964" lon="11.8928747"><ele>148.0</ele><time>2026-04-18T09:58:17.046Z</time></trkpt><trkpt lat="42.069239" lon="11.8927712"><ele>147.0</ele><time>2026-04-18T09:58:18.057Z</time></trkpt><trkpt lat="42.0692836" lon="11.8926787"><ele>146.0</ele><time>2026-04-18T09:58:19.044Z</time></trkpt><trkpt lat="42.0693343" lon="11.8925955"><ele>145.0</ele><time>2026-04-18T09:58:20.05Z</time></trkpt><trkpt lat="42.0693804" lon="11.8925119"><ele>144.0</ele><time>2026-04-18T09:58:21.048Z</time></trkpt><trkpt lat="42.0694194" lon="11.8924239"><ele>143.0</ele><time>2026-04-18T09:58:22.051Z</time></trkpt><trkpt lat="42.0694538" lon="11.8923492"><ele>143.0</ele><time>2026-04-18T09:58:23.046Z</time></trkpt><trkpt lat="42.0695122" lon="11.8922667"><ele>143.0</ele><time>2026-04-18T09:58:25.045Z</time></trkpt><trkpt lat="42.0695093" lon="11.89238"><ele>143.0</ele><time>2026-04-18T09:58:27.051Z</time></trkpt><trkpt lat="42.0694657" lon="11.8924762"><ele>143.0</ele><time>2026-04-18T09:58:28.05Z</time></trkpt><trkpt lat="42.069419" lon="11.8925787"><ele>143.0</ele><time>2026-04-18T09:58:29.054Z</time></trkpt><trkpt lat="42.0693759" lon="11.8926998"><ele>143.0</ele><time>2026-04-18T09:58:30.053Z</time></trkpt><trkpt lat="42.069352" lon="11.8928327"><ele>143.0</ele><time>2026-04-18T09:58:31.049Z</time></trkpt><trkpt lat="42.0693158" lon="11.8929564"><ele>143.0</ele><time>2026-04-18T09:58:32.051Z</time></trkpt><trkpt lat="42.0692781" lon="11.8930563"><ele>143.0</ele><time>2026-04-18T09:58:33.05Z</time></trkpt><trkpt lat="42.0692444" lon="11.8931489"><ele>143.0</ele><time>2026-04-18T09:58:34.052Z</time></trkpt><trkpt lat="42.0691961" lon="11.8932836"><ele>143.0</ele><time>2026-04-18T09:58:36.057Z</time></trkpt><trkpt lat="42.0692589" lon="11.8934205"><ele>143.66666666666666</ele><time>2026-04-18T09:58:38.049Z</time></trkpt><trkpt lat="42.0693265" lon="11.8934764"><ele>144.33333333333331</ele><time>2026-04-18T09:58:39.063Z</time></trkpt><trkpt lat="42.0693935" lon="11.8935324"><ele>145.0</ele><time>2026-04-18T09:58:40.049Z</time></trkpt><trkpt lat="42.0694688" lon="11.8935771"><ele>145.66666666666666</ele><time>2026-04-18T09:58:41.051Z</time></trkpt><trkpt lat="42.0695543" lon="11.8936169"><ele>146.33333333333334</ele><time>2026-04-18T09:58:42.048Z</time></trkpt><trkpt lat="42.0696332" lon="11.893632"><ele>147.0</ele><time>2026-04-18T09:58:43.067Z</time></trkpt><trkpt lat="42.0697004" lon="11.893626"><ele>147.0</ele><time>2026-04-18T09:58:44.049Z</time></trkpt><trkpt lat="42.0697683" lon="11.8936164"><ele>147.0</ele><time>2026-04-18T09:58:45.051Z</time></trkpt><trkpt lat="42.0698386" lon="11.8935551"><ele>147.0</ele><time>2026-04-18T09:58:46.059Z</time></trkpt><trkpt lat="42.0698997" lon="11.8934472"><ele>147.0</ele><time>2026-04-18T09:58:47.059Z</time></trkpt><trkpt lat="42.0699452" lon="11.8933295"><ele>147.0</ele><time>2026-04-18T09:58:48.055Z</time></trkpt><trkpt lat="42.0699813" lon="11.8932296"><ele>147.0</ele><time>2026-04-18T09:58:49.065Z</time></trkpt><trkpt lat="42.0699961" lon="11.8931349"><ele>146.33333333333334</ele><time>2026-04-18T09:58:50.059Z</time></trkpt><trkpt lat="42.0699863" lon="11.8930227"><ele>145.66666666666666</ele><time>2026-04-18T09:58:51.062Z</time></trkpt><trkpt lat="42.0699552" lon="11.8929124"><ele>145.0</ele><time>2026-04-18T09:58:52.061Z</time></trkpt><trkpt lat="42.0699096" lon="11.8927986"><ele>144.33333333333331</ele><time>2026-04-18T09:58:53.048Z</time></trkpt><trkpt lat="42.0698584" lon="11.8927034"><ele>143.66666666666666</ele><time>2026-04-18T09:58:54.057Z</time></trkpt><trkpt lat="42.0698112" lon="11.8926373"><ele>143.0</ele><time>2026-04-18T09:58:55.06Z</time></trkpt><trkpt lat="42.0697302" lon="11.8925636"><ele>143.0</ele><time>2026-04-18T09:58:57.055Z</time></trkpt><trkpt lat="42.0696516" lon="11.8926494"><ele>143.0</ele><time>2026-04-18T09:58:59.055Z</time></trkpt><trkpt lat="42.069623" lon="11.8927406"><ele>143.0</ele><time>2026-04-18T09:59:00.047Z</time></trkpt><trkpt lat="42.0695869" lon="11.8928542"><ele>143.0</ele><time>2026-04-18T09:59:01.06Z</time></trkpt><trkpt lat="42.0695478" lon="11.8929926"><ele>143.0</ele><time>2026-04-18T09:59:02.066Z</time></trkpt><trkpt lat="42.0695085" lon="11.8931338"><ele>143.0</ele><time>2026-04-18T09:59:03.067Z</time></trkpt><trkpt lat="42.0694769" lon="11.8932422"><ele>143.0</ele><time>2026-04-18T09:59:04.06Z</time></trkpt><trkpt lat="42.0694899" lon="11.8933325"><ele>143.0</ele><time>2026-04-18T09:59:06.058Z</time></trkpt><trkpt lat="42.0695699" lon="11.8933403"><ele>143.0</ele><time>2026-04-18T09:59:08.063Z</time></trkpt><trkpt lat="42.0696157" lon="11.8931968"><ele>143.0</ele><time>2026-04-18T09:59:10.054Z</time></trkpt><trkpt lat="42.0696324" lon="11.8930956"><ele>143.0</ele><time>2026-04-18T09:59:11.052Z</time></trkpt><trkpt lat="42.0696503" lon="11.892986"><ele>143.0</ele><time>2026-04-18T09:59:12.051Z</time></trkpt><trkpt lat="42.0696705" lon="11.8928867"><ele>143.0</ele><time>2026-04-18T09:59:13.052Z</time></trkpt><trkpt lat="42.0697269" lon="11.8928131"><ele>143.0</ele><time>2026-04-18T09:59:15.054Z</time></trkpt><trkpt lat="42.0697888" lon="11.8928529"><ele>143.0</ele><time>2026-04-18T09:59:17.054Z</time></trkpt><trkpt lat="42.069826" lon="11.8929947"><ele>143.0</ele><time>2026-04-18T09:59:19.054Z</time></trkpt><trkpt lat="42.069827" lon="11.8930802"><ele>143.0</ele><time>2026-04-18T09:59:20.054Z</time></trkpt><trkpt lat="42.0697849" lon="11.8932422"><ele>142.99999999999997</ele><time>2026-04-18T09:59:22.049Z</time></trkpt><trkpt lat="42.0697408" lon="11.8933228"><ele>143.0</ele><time>2026-04-18T09:59:23.05Z</time></trkpt><trkpt lat="42.0696849" lon="11.8933919"><ele>143.0</ele><time>2026-04-18T09:59:24.05Z</time></trkpt><trkpt lat="42.0696296" lon="11.8934488"><ele>143.0</ele><time>2026-04-18T09:59:25.082Z</time></trkpt><trkpt lat="42.0695588" lon="11.8934923"><ele>143.0</ele><time>2026-04-18T09:59:26.058Z</time></trkpt><trkpt lat="42.0694903" lon="11.893496"><ele>142.99999999999997</ele><time>2026-04-18T09:59:27.063Z</time></trkpt><trkpt lat="42.0694313" lon="11.8934628"><ele>143.0</ele><time>2026-04-18T09:59:28.049Z</time></trkpt><trkpt lat="42.06941" lon="11.8933766"><ele>143.0</ele><time>2026-04-18T09:59:29.049Z</time></trkpt><trkpt lat="42.0693897" lon="11.8932899"><ele>143.0</ele><time>2026-04-18T09:59:30.048Z</time></trkpt><trkpt lat="42.0694043" lon="11.893179"><ele>143.0</ele><time>2026-04-18T09:59:31.054Z</time></trkpt><trkpt lat="42.069422" lon="11.8930572"><ele>143.0</ele><time>2026-04-18T09:59:32.049Z</time></trkpt><trkpt lat="42.0694609" lon="11.8929387"><ele>143.0</ele><time>2026-04-18T09:59:33.043Z</time></trkpt><trkpt lat="42.0695001" lon="11.8928189"><ele>143.0</ele><time>2026-04-18T09:59:34.045Z</time></trkpt><trkpt lat="42.0695451" lon="11.8926849"><ele>141.0</ele><time>2026-04-18T09:59:35.054Z</time></trkpt><trkpt lat="42.0695931" lon="11.8925531"><ele>139.0</ele><time>2026-04-18T09:59:36.047Z</time></trkpt><trkpt lat="42.0696328" lon="11.8924315"><ele>137.0</ele><time>2026-04-18T09:59:37.045Z</time></trkpt><trkpt lat="42.0696487" lon="11.8923205"><ele>135.0</ele><time>2026-04-18T09:59:38.047Z</time></trkpt><trkpt lat="42.0696275" lon="11.8922208"><ele>133.0</ele><time>2026-04-18T09:59:39.053Z</time></trkpt><trkpt lat="42.0696048" lon="11.8921279"><ele>131.0</ele><time>2026-04-18T09:59:40.051Z</time></trkpt><trkpt lat="42.0695538" lon="11.8920694"><ele>131.0</ele><time>2026-04-18T09:59:41.043Z</time></trkpt><trkpt lat="42.0694599" lon="11.8920306"><ele>131.0</ele><time>2026-04-18T09:59:43.043Z</time></trkpt><trkpt lat="42.0693994" lon="11.8920917"><ele>131.0</ele><time>2026-04-18T09:59:45.044Z</time></trkpt><trkpt lat="42.0693471" lon="11.8922573"><ele>131.0</ele><time>2026-04-18T09:59:47.072Z</time></trkpt><trkpt lat="42.069306" lon="11.8923753"><ele>131.0</ele><time>2026-04-18T09:59:48.054Z</time></trkpt><trkpt lat="42.0692597" lon="11.892513"><ele>133.4</ele><time>2026-04-18T09:59:49.043Z</time></trkpt><trkpt lat="42.0692115" lon="11.8926652"><ele>135.8</ele><time>2026-04-18T09:59:50.046Z</time></trkpt><trkpt lat="42.0691653" lon="11.8927989"><ele>138.20000000000002</ele><time>2026-04-18T09:59:51.05Z</time></trkpt><trkpt lat="42.0691224" lon="11.8929188"><ele>140.6</ele><time>2026-04-18T09:59:52.044Z</time></trkpt><trkpt lat="42.0690799" lon="11.8930414"><ele>143.0</ele><time>2026-04-18T09:59:53.045Z</time></trkpt><trkpt lat="42.0690274" lon="11.893152"><ele>144.0</ele><time>2026-04-18T09:59:54.048Z</time></trkpt><trkpt lat="42.0689783" lon="11.8932535"><ele>145.0</ele><time>2026-04-18T09:59:55.053Z</time></trkpt><trkpt lat="42.068938" lon="11.8933212"><ele>146.0</ele><time>2026-04-18T09:59:56.053Z</time></trkpt><trkpt lat="42.0688723" lon="11.8933184"><ele>147.0</ele><time>2026-04-18T09:59:58.051Z</time></trkpt><trkpt lat="42.0688735" lon="11.8931895"><ele>148.0</ele><time>2026-04-18T10:00:02.058Z</time></trkpt><trkpt lat="42.0689103" lon="11.8931143"><ele>149.0</ele><time>2026-04-18T10:00:03.059Z</time></trkpt><trkpt lat="42.0689565" lon="11.8930151"><ele>149.0</ele><time>2026-04-18T10:00:04.047Z</time></trkpt><trkpt lat="42.0690071" lon="11.8929169"><ele>149.0</ele><time>2026-04-18T10:00:05.048Z</time></trkpt><trkpt lat="42.0690534" lon="11.8928192"><ele>149.0</ele><time>2026-04-18T10:00:06.045Z</time></trkpt><trkpt lat="42.0690904" lon="11.8927325"><ele>149.0</ele><time>2026-04-18T10:00:07.053Z</time></trkpt><trkpt lat="42.0691296" lon="11.8926348"><ele>149.0</ele><time>2026-04-18T10:00:09.049Z</time></trkpt><trkpt lat="42.0691464" lon="11.8924859"><ele>149.0</ele><time>2026-04-18T10:00:12.049Z</time></trkpt><trkpt lat="42.0691621" lon="11.8923778"><ele>145.4</ele><time>2026-04-18T10:00:13.05Z</time></trkpt><trkpt lat="42.0691893" lon="11.8922559"><ele>141.8</ele><time>2026-04-18T10:00:14.043Z</time></trkpt><trkpt lat="42.0692266" lon="11.8921321"><ele>138.2</ele><time>2026-04-18T10:00:15.051Z</time></trkpt><trkpt lat="42.0692666" lon="11.8920125"><ele>134.6</ele><time>2026-04-18T10:00:16.047Z</time></trkpt><trkpt lat="42.0693032" lon="11.8919065"><ele>131.0</ele><time>2026-04-18T10:00:17.048Z</time></trkpt><trkpt lat="42.0693436" lon="11.8918187"><ele>131.0</ele><time>2026-04-18T10:00:18.048Z</time></trkpt><trkpt lat="42.0693801" lon="11.8917416"><ele>131.0</ele><time>2026-04-18T10:00:19.054Z</time></trkpt><trkpt lat="42.0694627" lon="11.8917041"><ele>131.0</ele><time>2026-04-18T10:00:21.047Z</time></trkpt><trkpt lat="42.0695367" lon="11.8917104"><ele>131.0</ele><time>2026-04-18T10:00:23.062Z</time></trkpt><trkpt lat="42.0695931" lon="11.8918018"><ele>131.0</ele><time>2026-04-18T10:00:25.055Z</time></trkpt><trkpt lat="42.0696316" lon="11.8918988"><ele>131.0</ele><time>2026-04-18T10:00:26.051Z</time></trkpt><trkpt lat="42.0696681" lon="11.8920043"><ele>131.0</ele><time>2026-04-18T10:00:27.047Z</time></trkpt><trkpt lat="42.0697066" lon="11.8921123"><ele>131.0</ele><time>2026-04-18T10:00:28.045Z</time></trkpt><trkpt lat="42.0697431" lon="11.8922224"><ele>131.0</ele><time>2026-04-18T10:00:29.053Z</time></trkpt><trkpt lat="42.0697782" lon="11.8923307"><ele>131.0</ele><time>2026-04-18T10:00:30.053Z</time></trkpt><trkpt lat="42.0698106" lon="11.8924192"><ele>131.0</ele><time>2026-04-18T10:00:31.05Z</time></trkpt><trkpt lat="42.0698539" lon="11.8925122"><ele>131.0</ele><time>2026-04-18T10:00:32.047Z</time></trkpt><trkpt lat="42.0699155" lon="11.8926389"><ele>132.6</ele><time>2026-04-18T10:00:33.047Z</time></trkpt><trkpt lat="42.0699875" lon="11.8927801"><ele>134.2</ele><time>2026-04-18T10:00:34.049Z</time></trkpt><trkpt lat="42.0700369" lon="11.8929136"><ele>135.8</ele><time>2026-04-18T10:00:35.069Z</time></trkpt><trkpt lat="42.0700796" lon="11.8930215"><ele>137.4</ele><time>2026-04-18T10:00:36.056Z</time></trkpt><trkpt lat="42.0701162" lon="11.8931206"><ele>139.0</ele><time>2026-04-18T10:00:37.051Z</time></trkpt><trkpt lat="42.0701251" lon="11.8932245"><ele>139.0</ele><time>2026-04-18T10:00:38.053Z</time></trkpt><trkpt lat="42.0701015" lon="11.8933274"><ele>139.0</ele><time>2026-04-18T10:00:39.056Z</time></trkpt><trkpt lat="42.0700682" lon="11.8934458"><ele>139.0</ele><time>2026-04-18T10:00:40.053Z</time></trkpt><trkpt lat="42.0699791" lon="11.8935355"><ele>139.0</ele><time>2026-04-18T10:00:41.048Z</time></trkpt><trkpt lat="42.0699084" lon="11.8935946"><ele>139.0</ele><time>2026-04-18T10:00:42.058Z</time></trkpt><trkpt lat="42.0698514" lon="11.8936454"><ele>139.0</ele><time>2026-04-18T10:00:43.079Z</time></trkpt><trkpt lat="42.0698001" lon="11.8937063"><ele>140.33333333333334</ele><time>2026-04-18T10:00:44.05Z</time></trkpt><trkpt lat="42.0697593" lon="11.8938103"><ele>141.66666666666669</ele><time>2026-04-18T10:00:45.051Z</time></trkpt><trkpt lat="42.069705" lon="11.8939288"><ele>143.0</ele><time>2026-04-18T10:00:46.066Z</time></trkpt><trkpt lat="42.0696429" lon="11.8940005"><ele>144.33333333333334</ele><time>2026-04-18T10:00:47.055Z</time></trkpt><trkpt lat="42.0695776" lon="11.8940282"><ele>145.66666666666666</ele><time>2026-04-18T10:00:48.052Z</time></trkpt><trkpt lat="42.0695013" lon="11.8940098"><ele>147.0</ele><time>2026-04-18T10:00:49.064Z</time></trkpt><trkpt lat="42.0694151" lon="11.8939647"><ele>147.0</ele><time>2026-04-18T10:00:50.05Z</time></trkpt><trkpt lat="42.0693318" lon="11.893895"><ele>147.0</ele><time>2026-04-18T10:00:51.049Z</time></trkpt><trkpt lat="42.0692725" lon="11.8938186"><ele>147.0</ele><time>2026-04-18T10:00:52.048Z</time></trkpt><trkpt lat="42.0692231" lon="11.8937231"><ele>147.0</ele><time>2026-04-18T10:00:53.056Z</time></trkpt><trkpt lat="42.0691732" lon="11.8936005"><ele>147.0</ele><time>2026-04-18T10:00:55.049Z</time></trkpt><trkpt lat="42.0691047" lon="11.8935789"><ele>147.0</ele><time>2026-04-18T10:02:43.057Z</time></trkpt><trkpt lat="42.0691255" lon="11.8936648"><ele>147.0</ele><time>2026-04-18T10:02:46.059Z</time></trkpt><trkpt lat="42.0691923" lon="11.8937408"><ele>147.0</ele><time>2026-04-18T10:02:48.059Z</time></trkpt><trkpt lat="42.06924" lon="11.8938074"><ele>147.0</ele><time>2026-04-18T10:02:50.056Z</time></trkpt><trkpt lat="42.0693038" lon="11.8938467"><ele>147.0</ele><time>2026-04-18T10:02:53.055Z</time></trkpt><trkpt lat="42.0693728" lon="11.8938495"><ele>147.0</ele><time>2026-04-18T10:02:55.051Z</time></trkpt><trkpt lat="42.069432" lon="11.8938957"><ele>147.0</ele><time>2026-04-18T10:02:57.054Z</time></trkpt><trkpt lat="42.0694915" lon="11.8938508"><ele>147.0</ele><time>2026-04-18T10:03:03.06Z</time></trkpt><trkpt lat="42.0694764" lon="11.8937136"><ele>147.0</ele><time>2026-04-18T10:04:03.054Z</time></trkpt><trkpt lat="42.0694024" lon="11.8936243"><ele>147.0</ele><time>2026-04-18T10:04:05.067Z</time></trkpt><trkpt lat="42.0692923" lon="11.8935669"><ele>147.0</ele><time>2026-04-18T10:04:07.051Z</time></trkpt><trkpt lat="42.0692088" lon="11.8935203"><ele>147.0</ele><time>2026-04-18T10:04:08.054Z</time></trkpt><trkpt lat="42.069126" lon="11.8934704"><ele>147.0</ele><time>2026-04-18T10:04:09.05Z</time></trkpt><trkpt lat="42.0690628" lon="11.8934085"><ele>147.4</ele><time>2026-04-18T10:04:10.047Z</time></trkpt><trkpt lat="42.0690156" lon="11.8933081"><ele>147.79999999999998</ele><time>2026-04-18T10:04:12.05Z</time></trkpt><trkpt lat="42.0690745" lon="11.8931279"><ele>148.2</ele><time>2026-04-18T10:04:14.062Z</time></trkpt><trkpt lat="42.0691257" lon="11.8930073"><ele>148.6</ele><time>2026-04-18T10:04:15.054Z</time></trkpt><trkpt lat="42.0691745" lon="11.8928926"><ele>149.0</ele><time>2026-04-18T10:04:16.057Z</time></trkpt><trkpt lat="42.0692319" lon="11.8927754"><ele>148.0</ele><time>2026-04-18T10:04:17.055Z</time></trkpt><trkpt lat="42.0692855" lon="11.8926794"><ele>147.0</ele><time>2026-04-18T10:04:18.049Z</time></trkpt><trkpt lat="42.0693385" lon="11.8925847"><ele>146.0</ele><time>2026-04-18T10:04:19.049Z</time></trkpt><trkpt lat="42.0693929" lon="11.8924861"><ele>145.0</ele><time>2026-04-18T10:04:20.048Z</time></trkpt><trkpt lat="42.0694367" lon="11.8923976"><ele>144.0</ele><time>2026-04-18T10:04:21.048Z</time></trkpt><trkpt lat="42.0694743" lon="11.8923271"><ele>143.0</ele><time>2026-04-18T10:04:22.047Z</time></trkpt><trkpt lat="42.0695368" lon="11.8922903"><ele>143.0</ele><time>2026-04-18T10:04:25.05Z</time></trkpt><trkpt lat="42.0694976" lon="11.8924544"><ele>143.0</ele><time>2026-04-18T10:04:27.052Z</time></trkpt><trkpt lat="42.0694545" lon="11.8925559"><ele>143.0</ele><time>2026-04-18T10:04:28.048Z</time></trkpt><trkpt lat="42.0694007" lon="11.8926609"><ele>143.0</ele><time>2026-04-18T10:04:29.047Z</time></trkpt><trkpt lat="42.0693541" lon="11.8927719"><ele>143.0</ele><time>2026-04-18T10:04:30.052Z</time></trkpt><trkpt lat="42.0693119" lon="11.892886"><ele>143.0</ele><time>2026-04-18T10:04:31.05Z</time></trkpt><trkpt lat="42.0692718" lon="11.8929971"><ele>143.0</ele><time>2026-04-18T10:04:32.054Z</time></trkpt><trkpt lat="42.069234" lon="11.8931071"><ele>143.0</ele><time>2026-04-18T10:04:33.048Z</time></trkpt><trkpt lat="42.0692085" lon="11.8932052"><ele>143.0</ele><time>2026-04-18T10:04:34.055Z</time></trkpt><trkpt lat="42.0691878" lon="11.8932905"><ele>143.0</ele><time>2026-04-18T10:04:35.057Z</time></trkpt><trkpt lat="42.0691996" lon="11.8934121"><ele>143.0</ele><time>2026-04-18T10:04:37.055Z</time></trkpt><trkpt lat="42.0692615" lon="11.8934724"><ele>143.66666666666666</ele><time>2026-04-18T10:04:38.057Z</time></trkpt><trkpt lat="42.0693291" lon="11.8935342"><ele>144.33333333333331</ele><time>2026-04-18T10:04:39.051Z</time></trkpt><trkpt lat="42.0694065" lon="11.8935745"><ele>145.0</ele><time>2026-04-18T10:04:40.05Z</time></trkpt><trkpt lat="42.0694849" lon="11.8936155"><ele>145.66666666666666</ele><time>2026-04-18T10:04:41.052Z</time></trkpt><trkpt lat="42.0695672" lon="11.8936458"><ele>146.33333333333334</ele><time>2026-04-18T10:04:42.048Z</time></trkpt><trkpt lat="42.0696377" lon="11.8936472"><ele>147.0</ele><time>2026-04-18T10:04:43.053Z</time></trkpt><trkpt lat="42.0697114" lon="11.8936314"><ele>147.0</ele><time>2026-04-18T10:04:44.048Z</time></trkpt><trkpt lat="42.0697731" lon="11.8935862"><ele>147.0</ele><time>2026-04-18T10:04:45.052Z</time></trkpt><trkpt lat="42.0698289" lon="11.8935018"><ele>147.0</ele><time>2026-04-18T10:04:46.051Z</time></trkpt><trkpt lat="42.0698681" lon="11.8934125"><ele>147.0</ele><time>2026-04-18T10:04:47.049Z</time></trkpt><trkpt lat="42.0699131" lon="11.8933239"><ele>147.0</ele><time>2026-04-18T10:04:48.052Z</time></trkpt><trkpt lat="42.0699445" lon="11.8932353"><ele>147.0</ele><time>2026-04-18T10:04:49.086Z</time></trkpt><trkpt lat="42.0699605" lon="11.8930618"><ele>146.33333333333334</ele><time>2026-04-18T10:04:51.061Z</time></trkpt><trkpt lat="42.0699433" lon="11.8929592"><ele>145.66666666666666</ele><time>2026-04-18T10:04:52.048Z</time></trkpt><trkpt lat="42.0699056" lon="11.8928506"><ele>145.0</ele><time>2026-04-18T10:04:53.05Z</time></trkpt><trkpt lat="42.0698697" lon="11.8927491"><ele>144.33333333333331</ele><time>2026-04-18T10:04:54.057Z</time></trkpt><trkpt lat="42.0698257" lon="11.8926715"><ele>143.66666666666666</ele><time>2026-04-18T10:04:55.054Z</time></trkpt><trkpt lat="42.0697533" lon="11.8926054"><ele>143.0</ele><time>2026-04-18T10:04:57.045Z</time></trkpt><trkpt lat="42.0696583" lon="11.8926337"><ele>143.0</ele><time>2026-04-18T10:04:59.051Z</time></trkpt><trkpt lat="42.0695878" lon="11.8927667"><ele>143.0</ele><time>2026-04-18T10:05:01.056Z</time></trkpt><trkpt lat="42.0695605" lon="11.8928832"><ele>143.0</ele><time>2026-04-18T10:05:02.051Z</time></trkpt><trkpt lat="42.0695289" lon="11.8930194"><ele>143.0</ele><time>2026-04-18T10:05:03.057Z</time></trkpt><trkpt lat="42.0694937" lon="11.8931435"><ele>143.0</ele><time>2026-04-18T10:05:04.06Z</time></trkpt><trkpt lat="42.0694747" lon="11.8932378"><ele>143.0</ele><time>2026-04-18T10:05:05.066Z</time></trkpt><trkpt lat="42.0695271" lon="11.8933119"><ele>143.0</ele><time>2026-04-18T10:05:07.053Z</time></trkpt><trkpt lat="42.0695951" lon="11.8932743"><ele>143.0</ele><time>2026-04-18T10:05:09.052Z</time></trkpt><trkpt lat="42.0696378" lon="11.8931015"><ele>143.0</ele><time>2026-04-18T10:05:11.05Z</time></trkpt><trkpt lat="42.0696656" lon="11.8930011"><ele>143.0</ele><time>2026-04-18T10:05:12.05Z</time></trkpt><trkpt lat="42.069694" lon="11.8929139"><ele>143.0</ele><time>2026-04-18T10:05:13.056Z</time></trkpt><trkpt lat="42.0697369" lon="11.8928039"><ele>143.0</ele><time>2026-04-18T10:05:15.052Z</time></trkpt><trkpt lat="42.0698189" lon="11.8928618"><ele>143.0</ele><time>2026-04-18T10:05:19.059Z</time></trkpt><trkpt lat="42.0698151" lon="11.8929707"><ele>143.0</ele><time>2026-04-18T10:05:20.052Z</time></trkpt><trkpt lat="42.0698032" lon="11.8930837"><ele>143.0</ele><time>2026-04-18T10:05:21.055Z</time></trkpt><trkpt lat="42.0697546" lon="11.8931966"><ele>143.0</ele><time>2026-04-18T10:05:22.059Z</time></trkpt><trkpt lat="42.0696965" lon="11.8933041"><ele>143.0</ele><time>2026-04-18T10:05:23.062Z</time></trkpt><trkpt lat="42.069643" lon="11.8934007"><ele>143.0</ele><time>2026-04-18T10:05:24.06Z</time></trkpt><trkpt lat="42.0695827" lon="11.8934666"><ele>143.0</ele><time>2026-04-18T10:05:25.047Z</time></trkpt><trkpt lat="42.0695018" lon="11.8934812"><ele>143.0</ele><time>2026-04-18T10:05:26.054Z</time></trkpt><trkpt lat="42.0694117" lon="11.8934552"><ele>143.0</ele><time>2026-04-18T10:05:27.057Z</time></trkpt><trkpt lat="42.0693621" lon="11.8933914"><ele>143.0</ele><time>2026-04-18T10:05:28.049Z</time></trkpt><trkpt lat="42.0693489" lon="11.8932242"><ele>143.0</ele><time>2026-04-18T10:05:30.05Z</time></trkpt><trkpt lat="42.0693656" lon="11.8930991"><ele>143.0</ele><time>2026-04-18T10:05:31.052Z</time></trkpt><trkpt lat="42.0694033" lon="11.8929718"><ele>143.0</ele><time>2026-04-18T10:05:32.052Z</time></trkpt><trkpt lat="42.0694463" lon="11.8928485"><ele>143.0</ele><time>2026-04-18T10:05:33.049Z</time></trkpt><trkpt lat="42.0695012" lon="11.8927201"><ele>143.0</ele><time>2026-04-18T10:05:34.056Z</time></trkpt><trkpt lat="42.0695545" lon="11.8925885"><ele>140.6</ele><time>2026-04-18T10:05:35.049Z</time></trkpt><trkpt lat="42.0696057" lon="11.8924708"><ele>138.20000000000002</ele><time>2026-04-18T10:05:36.047Z</time></trkpt><trkpt lat="42.0696375" lon="11.8923661"><ele>135.8</ele><time>2026-04-18T10:05:37.054Z</time></trkpt><trkpt lat="42.0696426" lon="11.8922728"><ele>133.4</ele><time>2026-04-18T10:05:38.06Z</time></trkpt><trkpt lat="42.0695742" lon="11.8921265"><ele>131.0</ele><time>2026-04-18T10:05:40.053Z</time></trkpt><trkpt lat="42.0695255" lon="11.8920591"><ele>131.0</ele><time>2026-04-18T10:05:41.052Z</time></trkpt><trkpt lat="42.069445" lon="11.892013"><ele>131.0</ele><time>2026-04-18T10:05:43.05Z</time></trkpt><trkpt lat="42.0693815" lon="11.8920731"><ele>131.0</ele><time>2026-04-18T10:05:45.051Z</time></trkpt><trkpt lat="42.0693211" lon="11.892234"><ele>131.0</ele><time>2026-04-18T10:05:47.053Z</time></trkpt><trkpt lat="42.0692881" lon="11.8923456"><ele>131.0</ele><time>2026-04-18T10:05:48.052Z</time></trkpt><trkpt lat="42.069251" lon="11.8924703"><ele>133.4</ele><time>2026-04-18T10:05:49.047Z</time></trkpt><trkpt lat="42.0692032" lon="11.8926044"><ele>135.8</ele><time>2026-04-18T10:05:50.042Z</time></trkpt><trkpt lat="42.0691598" lon="11.8927349"><ele>138.20000000000002</ele><time>2026-04-18T10:05:51.051Z</time></trkpt><trkpt lat="42.0691216" lon="11.8928536"><ele>140.6</ele><time>2026-04-18T10:05:52.054Z</time></trkpt><trkpt lat="42.0690807" lon="11.8929799"><ele>143.0</ele><time>2026-04-18T10:05:53.051Z</time></trkpt><trkpt lat="42.0690341" lon="11.8930978"><ele>144.0</ele><time>2026-04-18T10:05:54.051Z</time></trkpt><trkpt lat="42.0689885" lon="11.8932035"><ele>145.0</ele><time>2026-04-18T10:05:55.044Z</time></trkpt><trkpt lat="42.0689459" lon="11.8932816"><ele>146.0</ele><time>2026-04-18T10:05:56.055Z</time></trkpt><trkpt lat="42.0688738" lon="11.8933212"><ele>147.0</ele><time>2026-04-18T10:05:58.052Z</time></trkpt><trkpt lat="42.0688529" lon="11.893183"><ele>148.0</ele><time>2026-04-18T10:06:01.052Z</time></trkpt><trkpt lat="42.0688872" lon="11.893108"><ele>149.0</ele><time>2026-04-18T10:06:02.057Z</time></trkpt><trkpt lat="42.0689588" lon="11.8929907"><ele>149.0</ele><time>2026-04-18T10:06:04.06Z</time></trkpt><trkpt lat="42.0690384" lon="11.8928541"><ele>149.0</ele><time>2026-04-18T10:06:06.059Z</time></trkpt><trkpt lat="42.0690739" lon="11.8927761"><ele>149.0</ele><time>2026-04-18T10:06:07.049Z</time></trkpt><trkpt lat="42.0691068" lon="11.8926995"><ele>149.0</ele><time>2026-04-18T10:06:08.051Z</time></trkpt><trkpt lat="42.0691408" lon="11.8926264"><ele>149.0</ele><time>2026-04-18T10:06:10.05Z</time></trkpt><trkpt lat="42.0691388" lon="11.8925404"><ele>149.0</ele><time>2026-04-18T10:06:12.064Z</time></trkpt><trkpt lat="42.0691527" lon="11.8923696"><ele>146.0</ele><time>2026-04-18T10:06:14.053Z</time></trkpt><trkpt lat="42.0691787" lon="11.8922613"><ele>143.0</ele><time>2026-04-18T10:06:15.055Z</time></trkpt><trkpt lat="42.0692168" lon="11.8921389"><ele>140.0</ele><time>2026-04-18T10:06:16.061Z</time></trkpt><trkpt lat="42.0692563" lon="11.8920145"><ele>137.0</ele><time>2026-04-18T10:06:17.053Z</time></trkpt><trkpt lat="42.0692922" lon="11.8919141"><ele>134.0</ele><time>2026-04-18T10:06:18.051Z</time></trkpt><trkpt lat="42.0693265" lon="11.8918304"><ele>131.0</ele><time>2026-04-18T10:06:19.05Z</time></trkpt><trkpt lat="42.0693684" lon="11.891763"><ele>131.0</ele><time>2026-04-18T10:06:20.051Z</time></trkpt><trkpt lat="42.0694432" lon="11.8917151"><ele>131.0</ele><time>2026-04-18T10:06:22.05Z</time></trkpt><trkpt lat="42.069532" lon="11.8917356"><ele>131.0</ele><time>2026-04-18T10:06:24.053Z</time></trkpt><trkpt lat="42.0696108" lon="11.8918491"><ele>131.0</ele><time>2026-04-18T10:06:26.055Z</time></trkpt><trkpt lat="42.0696404" lon="11.8919571"><ele>131.0</ele><time>2026-04-18T10:06:27.058Z</time></trkpt><trkpt lat="42.0696715" lon="11.8920683"><ele>131.0</ele><time>2026-04-18T10:06:28.056Z</time></trkpt><trkpt lat="42.0697084" lon="11.8921791"><ele>131.0</ele><time>2026-04-18T10:06:29.05Z</time></trkpt><trkpt lat="42.0697538" lon="11.892287"><ele>131.0</ele><time>2026-04-18T10:06:30.059Z</time></trkpt><trkpt lat="42.0697906" lon="11.892382"><ele>131.0</ele><time>2026-04-18T10:06:31.059Z</time></trkpt><trkpt lat="42.0698258" lon="11.8924647"><ele>131.0</ele><time>2026-04-18T10:06:32.055Z</time></trkpt><trkpt lat="42.0698679" lon="11.8925632"><ele>131.0</ele><time>2026-04-18T10:06:33.059Z</time></trkpt><trkpt lat="42.0699314" lon="11.89269"><ele>132.6</ele><time>2026-04-18T10:06:34.059Z</time></trkpt><trkpt lat="42.0699925" lon="11.8928328"><ele>134.2</ele><time>2026-04-18T10:06:35.048Z</time></trkpt><trkpt lat="42.0700465" lon="11.8929617"><ele>135.8</ele><time>2026-04-18T10:06:36.055Z</time></trkpt><trkpt lat="42.070082" lon="11.8930677"><ele>137.4</ele><time>2026-04-18T10:06:37.06Z</time></trkpt><trkpt lat="42.0701132" lon="11.8931705"><ele>139.0</ele><time>2026-04-18T10:06:38.059Z</time></trkpt><trkpt lat="42.0701317" lon="11.8932699"><ele>139.0</ele><time>2026-04-18T10:06:39.056Z</time></trkpt><trkpt lat="42.0701126" lon="11.893377"><ele>139.0</ele><time>2026-04-18T10:06:40.056Z</time></trkpt><trkpt lat="42.0700451" lon="11.8934792"><ele>139.0</ele><time>2026-04-18T10:06:41.066Z</time></trkpt><trkpt lat="42.0699532" lon="11.8935615"><ele>139.0</ele><time>2026-04-18T10:06:42.065Z</time></trkpt><trkpt lat="42.0698835" lon="11.8936185"><ele>139.0</ele><time>2026-04-18T10:06:43.059Z</time></trkpt><trkpt lat="42.0697901" lon="11.8937505"><ele>140.33333333333334</ele><time>2026-04-18T10:06:45.052Z</time></trkpt><trkpt lat="42.0697239" lon="11.8938747"><ele>141.66666666666669</ele><time>2026-04-18T10:06:46.055Z</time></trkpt><trkpt lat="42.0696566" lon="11.8939662"><ele>143.0</ele><time>2026-04-18T10:06:47.059Z</time></trkpt><trkpt lat="42.0695994" lon="11.8940179"><ele>144.33333333333334</ele><time>2026-04-18T10:06:48.057Z</time></trkpt><trkpt lat="42.0695294" lon="11.8940215"><ele>145.66666666666666</ele><time>2026-04-18T10:06:49.056Z</time></trkpt><trkpt lat="42.0694317" lon="11.8939865"><ele>147.0</ele><time>2026-04-18T10:06:50.051Z</time></trkpt><trkpt lat="42.069338" lon="11.8939275"><ele>147.0</ele><time>2026-04-18T10:06:51.055Z</time></trkpt><trkpt lat="42.069264" lon="11.893831"><ele>147.0</ele><time>2026-04-18T10:06:52.049Z</time></trkpt><trkpt lat="42.0692052" lon="11.8937298"><ele>147.0</ele><time>2026-04-18T10:06:53.047Z</time></trkpt><trkpt lat="42.0691628" lon="11.8936521"><ele>147.0</ele><time>2026-04-18T10:06:54.05Z</time></trkpt><trkpt lat="42.0691083" lon="11.8935605"><ele>147.0</ele><time>2026-04-18T10:13:25.044Z</time></trkpt><trkpt lat="42.0690424" lon="11.8936604"><ele>147.0</ele><time>2026-04-18T10:13:28.059Z</time></trkpt><trkpt lat="42.0690149" lon="11.8937443"><ele>147.0</ele><time>2026-04-18T10:13:30.057Z</time></trkpt><trkpt lat="42.0690612" lon="11.8938332"><ele>147.0</ele><time>2026-04-18T10:13:34.067Z</time></trkpt><trkpt lat="42.0691296" lon="11.8938895"><ele>147.0</ele><time>2026-04-18T10:13:37.066Z</time></trkpt><trkpt lat="42.0691819" lon="11.8939368"><ele>147.0</ele><time>2026-04-18T10:14:34.057Z</time></trkpt><trkpt lat="42.0692397" lon="11.8939868"><ele>147.0</ele><time>2026-04-18T10:14:37.066Z</time></trkpt><trkpt lat="42.0693056" lon="11.8940285"><ele>147.0</ele><time>2026-04-18T10:14:41.06Z</time></trkpt><trkpt lat="42.0693652" lon="11.894078"><ele>147.0</ele><time>2026-04-18T10:15:27.038Z</time></trkpt><trkpt lat="42.0694151" lon="11.8941496"><ele>147.0</ele><time>2026-04-18T10:15:29.068Z</time></trkpt><trkpt lat="42.0694767" lon="11.8942183"><ele>147.0</ele><time>2026-04-18T10:15:32.08Z</time></trkpt><trkpt lat="42.0694781" lon="11.8943249"><ele>147.0</ele><time>2026-04-18T10:15:36.059Z</time></trkpt><trkpt lat="42.0695033" lon="11.8944033"><ele>147.0</ele><time>2026-04-18T10:16:30.054Z</time></trkpt><trkpt lat="42.0695382" lon="11.8944832"><ele>147.0</ele><time>2026-04-18T10:16:32.051Z</time></trkpt><trkpt lat="42.069595" lon="11.8945662"><ele>147.0</ele><time>2026-04-18T10:16:35.054Z</time></trkpt><trkpt lat="42.0696427" lon="11.894656"><ele>145.5</ele><time>2026-04-18T10:16:38.06Z</time></trkpt><trkpt lat="42.0696791" lon="11.8947519"><ele>144.0</ele><time>2026-04-18T10:16:41.063Z</time></trkpt><trkpt lat="42.0697217" lon="11.8948291"><ele>142.5</ele><time>2026-04-18T10:16:44.06Z</time></trkpt><trkpt lat="42.069778" lon="11.8949244"><ele>141.0</ele><time>2026-04-18T10:16:47.063Z</time></trkpt><trkpt lat="42.0698558" lon="11.8950588"><ele>139.5</ele><time>2026-04-18T10:16:49.058Z</time></trkpt><trkpt lat="42.0698973" lon="11.8951503"><ele>138.0</ele><time>2026-04-18T10:16:50.054Z</time></trkpt><trkpt lat="42.0699404" lon="11.895244"><ele>138.57142857142858</ele><time>2026-04-18T10:16:51.055Z</time></trkpt><trkpt lat="42.0699806" lon="11.8953428"><ele>139.14285714285717</ele><time>2026-04-18T10:16:52.06Z</time></trkpt><trkpt lat="42.0700109" lon="11.8954353"><ele>139.71428571428572</ele><time>2026-04-18T10:16:54.054Z</time></trkpt><trkpt lat="42.0699852" lon="11.8955452"><ele>140.28571428571428</ele><time>2026-04-18T10:16:57.062Z</time></trkpt><trkpt lat="42.0699621" lon="11.8956362"><ele>140.85714285714283</ele><time>2026-04-18T10:16:59.061Z</time></trkpt><trkpt lat="42.070002" lon="11.8955621"><ele>141.42857142857142</ele><time>2026-04-18T10:17:07.065Z</time></trkpt><trkpt lat="42.0700319" lon="11.8954841"><ele>142.0</ele><time>2026-04-18T10:17:09.057Z</time></trkpt><trkpt lat="42.0700915" lon="11.8955894"><ele>142.0</ele><time>2026-04-18T10:17:12.058Z</time></trkpt><trkpt lat="42.0701001" lon="11.8957034"><ele>142.0</ele><time>2026-04-18T10:17:14.062Z</time></trkpt><trkpt lat="42.0700885" lon="11.8958404"><ele>142.0</ele><time>2026-04-18T10:17:16.049Z</time></trkpt><trkpt lat="42.0700822" lon="11.8959924"><ele>142.0</ele><time>2026-04-18T10:17:18.049Z</time></trkpt><trkpt lat="42.0700807" lon="11.8960936"><ele>142.0</ele><time>2026-04-18T10:17:19.055Z</time></trkpt><trkpt lat="42.0700802" lon="11.8962068"><ele>141.79999999999998</ele><time>2026-04-18T10:17:20.064Z</time></trkpt><trkpt lat="42.0700757" lon="11.896327"><ele>141.6</ele><time>2026-04-18T10:17:21.065Z</time></trkpt><trkpt lat="42.0700708" lon="11.8964606"><ele>141.39999999999998</ele><time>2026-04-18T10:17:22.056Z</time></trkpt><trkpt lat="42.0700675" lon="11.8965915"><ele>141.2</ele><time>2026-04-18T10:17:23.056Z</time></trkpt><trkpt lat="42.0700789" lon="11.8967051"><ele>141.0</ele><time>2026-04-18T10:17:24.05Z</time></trkpt><trkpt lat="42.0701163" lon="11.8968127"><ele>140.0</ele><time>2026-04-18T10:17:25.057Z</time></trkpt><trkpt lat="42.0701516" lon="11.8969121"><ele>139.0</ele><time>2026-04-18T10:17:26.057Z</time></trkpt><trkpt lat="42.0701838" lon="11.8970034"><ele>138.0</ele><time>2026-04-18T10:17:27.057Z</time></trkpt><trkpt lat="42.0702149" lon="11.8970831"><ele>137.0</ele><time>2026-04-18T10:17:28.059Z</time></trkpt><trkpt lat="42.0702469" lon="11.8971624"><ele>136.0</ele><time>2026-04-18T10:17:29.062Z</time></trkpt><trkpt lat="42.0702973" lon="11.8972417"><ele>135.0</ele><time>2026-04-18T10:17:30.067Z</time></trkpt><trkpt lat="42.070364" lon="11.8973122"><ele>135.0</ele><time>2026-04-18T10:17:31.051Z</time></trkpt><trkpt lat="42.0704446" lon="11.8973643"><ele>135.0</ele><time>2026-04-18T10:17:32.055Z</time></trkpt><trkpt lat="42.0705266" lon="11.8974167"><ele>135.0</ele><time>2026-04-18T10:17:33.063Z</time></trkpt><trkpt lat="42.0706202" lon="11.8974547"><ele>135.0</ele><time>2026-04-18T10:17:34.059Z</time></trkpt><trkpt lat="42.0707241" lon="11.8974997"><ele>135.0</ele><time>2026-04-18T10:17:35.054Z</time></trkpt><trkpt lat="42.070839" lon="11.8975451"><ele>135.25</ele><time>2026-04-18T10:17:36.062Z</time></trkpt><trkpt lat="42.0709609" lon="11.8975917"><ele>135.5</ele><time>2026-04-18T10:17:37.055Z</time></trkpt><trkpt lat="42.0710872" lon="11.8976487"><ele>135.75</ele><time>2026-04-18T10:17:38.054Z</time></trkpt><trkpt lat="42.0712114" lon="11.8977018"><ele>136.0</ele><time>2026-04-18T10:17:39.055Z</time></trkpt><trkpt lat="42.0713394" lon="11.897763"><ele>136.0</ele><time>2026-04-18T10:17:40.053Z</time></trkpt><trkpt lat="42.0714635" lon="11.8978432"><ele>136.0</ele><time>2026-04-18T10:17:41.054Z</time></trkpt><trkpt lat="42.0715673" lon="11.897942"><ele>136.0</ele><time>2026-04-18T10:17:42.087Z</time></trkpt><trkpt lat="42.0716754" lon="11.8980369"><ele>136.0</ele><time>2026-04-18T10:17:43.06Z</time></trkpt><trkpt lat="42.0717779" lon="11.8981245"><ele>137.25</ele><time>2026-04-18T10:17:44.057Z</time></trkpt><trkpt lat="42.0718774" lon="11.8982"><ele>138.5</ele><time>2026-04-18T10:17:45.064Z</time></trkpt><trkpt lat="42.0719821" lon="11.8982757"><ele>139.75</ele><time>2026-04-18T10:17:46.063Z</time></trkpt><trkpt lat="42.0720939" lon="11.8983294"><ele>141.0</ele><time>2026-04-18T10:17:47.051Z</time></trkpt><trkpt lat="42.0722074" lon="11.8983706"><ele>141.0</ele><time>2026-04-18T10:17:48.051Z</time></trkpt><trkpt lat="42.0723239" lon="11.8983936"><ele>141.0</ele><time>2026-04-18T10:17:49.062Z</time></trkpt><trkpt lat="42.0724416" lon="11.8984209"><ele>141.0</ele><time>2026-04-18T10:17:50.06Z</time></trkpt><trkpt lat="42.0725621" lon="11.8984504"><ele>141.0</ele><time>2026-04-18T10:17:51.056Z</time></trkpt><trkpt lat="42.0726813" lon="11.8984725"><ele>141.0</ele><time>2026-04-18T10:17:52.05Z</time></trkpt><trkpt lat="42.0728029" lon="11.8984866"><ele>141.0</ele><time>2026-04-18T10:17:53.061Z</time></trkpt><trkpt lat="42.0729261" lon="11.898505"><ele>141.0</ele><time>2026-04-18T10:17:54.056Z</time></trkpt><trkpt lat="42.0730458" lon="11.8985291"><ele>141.0</ele><time>2026-04-18T10:17:55.068Z</time></trkpt><trkpt lat="42.0731493" lon="11.8985551"><ele>141.0</ele><time>2026-04-18T10:17:56.059Z</time></trkpt><trkpt lat="42.0732252" lon="11.8985934"><ele>141.0</ele><time>2026-04-18T10:17:57.051Z</time></trkpt><trkpt lat="42.073301" lon="11.8986363"><ele>141.0</ele><time>2026-04-18T10:17:58.053Z</time></trkpt><trkpt lat="42.0733563" lon="11.8987146"><ele>141.0</ele><time>2026-04-18T10:17:59.058Z</time></trkpt><trkpt lat="42.0734201" lon="11.898793"><ele>141.0</ele><time>2026-04-18T10:18:00.056Z</time></trkpt><trkpt lat="42.0734834" lon="11.8988612"><ele>141.0</ele><time>2026-04-18T10:18:01.051Z</time></trkpt><trkpt lat="42.0735622" lon="11.8989044"><ele>143.8</ele><time>2026-04-18T10:18:02.054Z</time></trkpt><trkpt lat="42.073656" lon="11.8989198"><ele>146.6</ele><time>2026-04-18T10:18:03.063Z</time></trkpt><trkpt lat="42.0737452" lon="11.8989319"><ele>149.4</ele><time>2026-04-18T10:18:04.059Z</time></trkpt><trkpt lat="42.0738372" lon="11.898955"><ele>152.2</ele><time>2026-04-18T10:18:05.053Z</time></trkpt><trkpt lat="42.0739287" lon="11.898969"><ele>155.0</ele><time>2026-04-18T10:18:06.06Z</time></trkpt><trkpt lat="42.0740278" lon="11.8989414"><ele>156.4</ele><time>2026-04-18T10:18:07.055Z</time></trkpt><trkpt lat="42.0741253" lon="11.8989131"><ele>157.8</ele><time>2026-04-18T10:18:08.058Z</time></trkpt><trkpt lat="42.0742205" lon="11.8988853"><ele>159.2</ele><time>2026-04-18T10:18:09.054Z</time></trkpt><trkpt lat="42.0743128" lon="11.8988616"><ele>160.6</ele><time>2026-04-18T10:18:10.066Z</time></trkpt><trkpt lat="42.0744004" lon="11.8988391"><ele>162.0</ele><time>2026-04-18T10:18:11.058Z</time></trkpt><trkpt lat="42.0744897" lon="11.8988069"><ele>162.0</ele><time>2026-04-18T10:18:12.059Z</time></trkpt><trkpt lat="42.0745842" lon="11.898772"><ele>162.0</ele><time>2026-04-18T10:18:13.056Z</time></trkpt><trkpt lat="42.0746817" lon="11.8987321"><ele>162.0</ele><time>2026-04-18T10:18:14.059Z</time></trkpt><trkpt lat="42.0747818" lon="11.898689"><ele>162.0</ele><time>2026-04-18T10:18:15.052Z</time></trkpt><trkpt lat="42.0748888" lon="11.8986263"><ele>162.0</ele><time>2026-04-18T10:18:16.056Z</time></trkpt><trkpt lat="42.0749874" lon="11.8985708"><ele>161.4</ele><time>2026-04-18T10:18:17.062Z</time></trkpt><trkpt lat="42.0750854" lon="11.898531"><ele>160.79999999999998</ele><time>2026-04-18T10:18:18.061Z</time></trkpt><trkpt lat="42.0751978" lon="11.8985194"><ele>160.2</ele><time>2026-04-18T10:18:19.052Z</time></trkpt><trkpt lat="42.0753118" lon="11.8984951"><ele>159.6</ele><time>2026-04-18T10:18:20.05Z</time></trkpt><trkpt lat="42.0754209" lon="11.898439"><ele>159.0</ele><time>2026-04-18T10:18:21.053Z</time></trkpt><trkpt lat="42.0755022" lon="11.8983754"><ele>160.66666666666666</ele><time>2026-04-18T10:18:22.06Z</time></trkpt><trkpt lat="42.075582" lon="11.8983145"><ele>162.33333333333334</ele><time>2026-04-18T10:18:23.063Z</time></trkpt><trkpt lat="42.0756522" lon="11.898263"><ele>164.0</ele><time>2026-04-18T10:18:24.055Z</time></trkpt><trkpt lat="42.0757183" lon="11.8982208"><ele>165.66666666666669</ele><time>2026-04-18T10:18:25.055Z</time></trkpt><trkpt lat="42.0757956" lon="11.8981963"><ele>167.33333333333334</ele><time>2026-04-18T10:18:26.06Z</time></trkpt><trkpt lat="42.0758855" lon="11.898195"><ele>169.0</ele><time>2026-04-18T10:18:27.058Z</time></trkpt><trkpt lat="42.075991" lon="11.8981759"><ele>169.0</ele><time>2026-04-18T10:18:28.059Z</time></trkpt><trkpt lat="42.0760917" lon="11.8981307"><ele>169.0</ele><time>2026-04-18T10:18:29.059Z</time></trkpt><trkpt lat="42.0761907" lon="11.8980598"><ele>169.0</ele><time>2026-04-18T10:18:30.069Z</time></trkpt><trkpt lat="42.0762839" lon="11.8979704"><ele>169.0</ele><time>2026-04-18T10:18:31.058Z</time></trkpt><trkpt lat="42.0763749" lon="11.8978776"><ele>169.0</ele><time>2026-04-18T10:18:32.057Z</time></trkpt><trkpt lat="42.0764589" lon="11.8977895"><ele>169.0</ele><time>2026-04-18T10:18:33.059Z</time></trkpt><trkpt lat="42.0765386" lon="11.8977092"><ele>169.0</ele><time>2026-04-18T10:18:34.06Z</time></trkpt><trkpt lat="42.0766253" lon="11.8976457"><ele>169.0</ele><time>2026-04-18T10:18:35.053Z</time></trkpt><trkpt lat="42.0767089" lon="11.8975685"><ele>169.0</ele><time>2026-04-18T10:18:36.055Z</time></trkpt><trkpt lat="42.0767925" lon="11.8974855"><ele>169.0</ele><time>2026-04-18T10:18:37.072Z</time></trkpt><trkpt lat="42.0768695" lon="11.8973779"><ele>170.39999999999998</ele><time>2026-04-18T10:18:38.055Z</time></trkpt><trkpt lat="42.0769591" lon="11.8972868"><ele>171.8</ele><time>2026-04-18T10:18:39.057Z</time></trkpt><trkpt lat="42.0770685" lon="11.8972233"><ele>173.2</ele><time>2026-04-18T10:18:40.051Z</time></trkpt><trkpt lat="42.077172" lon="11.8971712"><ele>174.60000000000002</ele><time>2026-04-18T10:18:41.058Z</time></trkpt><trkpt lat="42.077275" lon="11.8971361"><ele>176.0</ele><time>2026-04-18T10:18:42.057Z</time></trkpt><trkpt lat="42.0773867" lon="11.8971301"><ele>174.83333333333331</ele><time>2026-04-18T10:18:43.055Z</time></trkpt><trkpt lat="42.0774957" lon="11.8971602"><ele>173.66666666666666</ele><time>2026-04-18T10:18:44.06Z</time></trkpt><trkpt lat="42.0775955" lon="11.8971917"><ele>172.5</ele><time>2026-04-18T10:18:45.071Z</time></trkpt><trkpt lat="42.0776723" lon="11.8972574"><ele>171.33333333333334</ele><time>2026-04-18T10:18:46.051Z</time></trkpt><trkpt lat="42.0777238" lon="11.8973192"><ele>170.16666666666669</ele><time>2026-04-18T10:18:47.056Z</time></trkpt><trkpt lat="42.0777631" lon="11.8973893"><ele>169.0</ele><time>2026-04-18T10:18:49.055Z</time></trkpt><trkpt lat="42.0777988" lon="11.8974718"><ele>169.0</ele><time>2026-04-18T10:18:52.058Z</time></trkpt><trkpt lat="42.0778458" lon="11.8975706"><ele>169.0</ele><time>2026-04-18T10:19:21.056Z</time></trkpt><trkpt lat="42.0778572" lon="11.8976565"><ele>169.0</ele><time>2026-04-18T10:19:23.061Z</time></trkpt><trkpt lat="42.0778924" lon="11.8977733"><ele>169.0</ele><time>2026-04-18T10:19:26.054Z</time></trkpt><trkpt lat="42.0779243" lon="11.8978503"><ele>169.0</ele><time>2026-04-18T10:19:28.051Z</time></trkpt><trkpt lat="42.0779661" lon="11.8979234"><ele>169.0</ele><time>2026-04-18T10:19:30.06Z</time></trkpt><trkpt lat="42.0780199" lon="11.8979814"><ele>169.0</ele><time>2026-04-18T10:19:32.06Z</time></trkpt><trkpt lat="42.0780823" lon="11.8980326"><ele>169.0</ele><time>2026-04-18T10:19:34.068Z</time></trkpt><trkpt lat="42.0781764" lon="11.8980189"><ele>169.0</ele><time>2026-04-18T10:19:57.051Z</time></trkpt><trkpt lat="42.0782867" lon="11.8979937"><ele>169.0</ele><time>2026-04-18T10:19:59.063Z</time></trkpt><trkpt lat="42.0784087" lon="11.897955"><ele>169.0</ele><time>2026-04-18T10:20:01.059Z</time></trkpt><trkpt lat="42.0784778" lon="11.8979328"><ele>169.0</ele><time>2026-04-18T10:20:02.056Z</time></trkpt><trkpt lat="42.078552" lon="11.8979236"><ele>170.42857142857144</ele><time>2026-04-18T10:20:03.057Z</time></trkpt><trkpt lat="42.0786222" lon="11.8979395"><ele>171.85714285714286</ele><time>2026-04-18T10:20:04.054Z</time></trkpt><trkpt lat="42.0786896" lon="11.8979792"><ele>173.28571428571428</ele><time>2026-04-18T10:20:05.048Z</time></trkpt><trkpt lat="42.0787526" lon="11.8980374"><ele>174.71428571428572</ele><time>2026-04-18T10:20:06.051Z</time></trkpt><trkpt lat="42.0788148" lon="11.898095"><ele>176.14285714285714</ele><time>2026-04-18T10:20:07.064Z</time></trkpt><trkpt lat="42.0788705" lon="11.8981555"><ele>177.57142857142858</ele><time>2026-04-18T10:20:08.056Z</time></trkpt><trkpt lat="42.0789181" lon="11.8982248"><ele>179.0</ele><time>2026-04-18T10:20:09.06Z</time></trkpt><trkpt lat="42.0789605" lon="11.8983253"><ele>178.79999999999998</ele><time>2026-04-18T10:20:10.055Z</time></trkpt><trkpt lat="42.0790014" lon="11.8984392"><ele>178.6</ele><time>2026-04-18T10:20:11.065Z</time></trkpt><trkpt lat="42.0790422" lon="11.8985549"><ele>178.4</ele><time>2026-04-18T10:20:12.065Z</time></trkpt><trkpt lat="42.07908" lon="11.8986689"><ele>178.2</ele><time>2026-04-18T10:20:13.054Z</time></trkpt><trkpt lat="42.0791198" lon="11.898782"><ele>178.0</ele><time>2026-04-18T10:20:14.062Z</time></trkpt><trkpt lat="42.0791836" lon="11.8988973"><ele>180.4</ele><time>2026-04-18T10:20:15.058Z</time></trkpt><trkpt lat="42.07924" lon="11.8990149"><ele>182.8</ele><time>2026-04-18T10:20:16.062Z</time></trkpt><trkpt lat="42.0792997" lon="11.8991257"><ele>185.2</ele><time>2026-04-18T10:20:17.057Z</time></trkpt><trkpt lat="42.0793619" lon="11.8992247"><ele>187.6</ele><time>2026-04-18T10:20:18.071Z</time></trkpt><trkpt lat="42.0794202" lon="11.899298"><ele>190.0</ele><time>2026-04-18T10:20:19.054Z</time></trkpt><trkpt lat="42.0794769" lon="11.8993505"><ele>190.0</ele><time>2026-04-18T10:20:20.057Z</time></trkpt><trkpt lat="42.0795945" lon="11.8993626"><ele>190.0</ele><time>2026-04-18T10:20:22.063Z</time></trkpt><trkpt lat="42.0796623" lon="11.8993486"><ele>190.0</ele><time>2026-04-18T10:20:23.058Z</time></trkpt><trkpt lat="42.0797278" lon="11.8992832"><ele>190.0</ele><time>2026-04-18T10:20:24.057Z</time></trkpt><trkpt lat="42.0797942" lon="11.8992079"><ele>190.0</ele><time>2026-04-18T10:20:25.051Z</time></trkpt><trkpt lat="42.079858" lon="11.8991271"><ele>190.0</ele><time>2026-04-18T10:20:26.058Z</time></trkpt><trkpt lat="42.0799224" lon="11.8990429"><ele>192.33333333333334</ele><time>2026-04-18T10:20:27.054Z</time></trkpt><trkpt lat="42.0799834" lon="11.8989672"><ele>194.66666666666669</ele><time>2026-04-18T10:20:28.053Z</time></trkpt><trkpt lat="42.0800424" lon="11.8988949"><ele>197.0</ele><time>2026-04-18T10:20:29.059Z</time></trkpt><trkpt lat="42.0801047" lon="11.8988255"><ele>199.33333333333334</ele><time>2026-04-18T10:20:30.061Z</time></trkpt><trkpt lat="42.0801631" lon="11.8987607"><ele>201.66666666666666</ele><time>2026-04-18T10:20:31.058Z</time></trkpt><trkpt lat="42.0802205" lon="11.8986972"><ele>204.0</ele><time>2026-04-18T10:20:32.062Z</time></trkpt><trkpt lat="42.0802779" lon="11.8986339"><ele>204.0</ele><time>2026-04-18T10:20:33.063Z</time></trkpt><trkpt lat="42.0803426" lon="11.8985774"><ele>204.0</ele><time>2026-04-18T10:20:34.065Z</time></trkpt><trkpt lat="42.0804077" lon="11.8985262"><ele>204.0</ele><time>2026-04-18T10:20:35.059Z</time></trkpt><trkpt lat="42.0804703" lon="11.8984729"><ele>204.0</ele><time>2026-04-18T10:20:36.052Z</time></trkpt><trkpt lat="42.0805342" lon="11.8984348"><ele>204.0</ele><time>2026-04-18T10:20:37.063Z</time></trkpt><trkpt lat="42.0805962" lon="11.8984161"><ele>204.0</ele><time>2026-04-18T10:20:38.054Z</time></trkpt><trkpt lat="42.0807055" lon="11.8984432"><ele>204.0</ele><time>2026-04-18T10:20:40.054Z</time></trkpt><trkpt lat="42.0807627" lon="11.8985079"><ele>204.0</ele><time>2026-04-18T10:20:41.051Z</time></trkpt><trkpt lat="42.0808152" lon="11.8985908"><ele>204.0</ele><time>2026-04-18T10:20:42.053Z</time></trkpt><trkpt lat="42.0808632" lon="11.8986791"><ele>204.0</ele><time>2026-04-18T10:20:43.056Z</time></trkpt><trkpt lat="42.0809113" lon="11.8987746"><ele>204.0</ele><time>2026-04-18T10:20:44.052Z</time></trkpt><trkpt lat="42.0809544" lon="11.8988814"><ele>204.0</ele><time>2026-04-18T10:20:45.059Z</time></trkpt><trkpt lat="42.0809901" lon="11.8989948"><ele>206.39999999999998</ele><time>2026-04-18T10:20:46.056Z</time></trkpt><trkpt lat="42.0810265" lon="11.8991102"><ele>208.8</ele><time>2026-04-18T10:20:47.058Z</time></trkpt><trkpt lat="42.0810669" lon="11.8992232"><ele>211.20000000000002</ele><time>2026-04-18T10:20:48.066Z</time></trkpt><trkpt lat="42.0811075" lon="11.8993339"><ele>213.60000000000002</ele><time>2026-04-18T10:20:49.055Z</time></trkpt><trkpt lat="42.081167" lon="11.899434"><ele>216.0</ele><time>2026-04-18T10:20:50.057Z</time></trkpt><trkpt lat="42.0812308" lon="11.8995099"><ele>216.5</ele><time>2026-04-18T10:20:51.063Z</time></trkpt><trkpt lat="42.0813012" lon="11.8995675"><ele>217.0</ele><time>2026-04-18T10:20:52.052Z</time></trkpt><trkpt lat="42.0813846" lon="11.8996164"><ele>217.5</ele><time>2026-04-18T10:20:53.048Z</time></trkpt><trkpt lat="42.0814711" lon="11.899661"><ele>218.0</ele><time>2026-04-18T10:20:54.054Z</time></trkpt><trkpt lat="42.0815568" lon="11.899705"><ele>218.5</ele><time>2026-04-18T10:20:55.055Z</time></trkpt><trkpt lat="42.0816364" lon="11.8997461"><ele>219.0</ele><time>2026-04-18T10:20:56.049Z</time></trkpt><trkpt lat="42.0817044" lon="11.8997855"><ele>220.83333333333334</ele><time>2026-04-18T10:20:57.053Z</time></trkpt><trkpt lat="42.0817553" lon="11.8998392"><ele>222.66666666666669</ele><time>2026-04-18T10:20:58.056Z</time></trkpt><trkpt lat="42.0817875" lon="11.8999198"><ele>224.5</ele><time>2026-04-18T10:20:59.057Z</time></trkpt><trkpt lat="42.0817995" lon="11.9000906"><ele>226.33333333333334</ele><time>2026-04-18T10:21:01.049Z</time></trkpt><trkpt lat="42.0817629" lon="11.9002011"><ele>228.16666666666669</ele><time>2026-04-18T10:21:02.057Z</time></trkpt><trkpt lat="42.0817302" lon="11.9003073"><ele>230.0</ele><time>2026-04-18T10:21:03.055Z</time></trkpt><trkpt lat="42.0817172" lon="11.9004253"><ele>231.2</ele><time>2026-04-18T10:21:04.061Z</time></trkpt><trkpt lat="42.0817205" lon="11.9005491"><ele>232.4</ele><time>2026-04-18T10:21:05.056Z</time></trkpt><trkpt lat="42.0817237" lon="11.9006769"><ele>233.60000000000002</ele><time>2026-04-18T10:21:06.05Z</time></trkpt><trkpt lat="42.0817263" lon="11.9008021"><ele>234.8</ele><time>2026-04-18T10:21:07.058Z</time></trkpt><trkpt lat="42.0817219" lon="11.9009261"><ele>236.0</ele><time>2026-04-18T10:21:08.056Z</time></trkpt><trkpt lat="42.0817138" lon="11.9010489"><ele>236.16666666666669</ele><time>2026-04-18T10:21:09.066Z</time></trkpt><trkpt lat="42.0817056" lon="11.9011689"><ele>236.33333333333334</ele><time>2026-04-18T10:21:10.062Z</time></trkpt><trkpt lat="42.08171" lon="11.9012873"><ele>236.5</ele><time>2026-04-18T10:21:11.053Z</time></trkpt><trkpt lat="42.0817325" lon="11.9013998"><ele>236.66666666666669</ele><time>2026-04-18T10:21:12.055Z</time></trkpt><trkpt lat="42.0817697" lon="11.9015071"><ele>236.83333333333334</ele><time>2026-04-18T10:21:13.059Z</time></trkpt><trkpt lat="42.0818186" lon="11.9016064"><ele>237.0</ele><time>2026-04-18T10:21:14.053Z</time></trkpt><trkpt lat="42.0818761" lon="11.9016958"><ele>236.33333333333334</ele><time>2026-04-18T10:21:15.063Z</time></trkpt><trkpt lat="42.0819405" lon="11.9017695"><ele>235.66666666666669</ele><time>2026-04-18T10:21:16.054Z</time></trkpt><trkpt lat="42.0820106" lon="11.9018288"><ele>235.0</ele><time>2026-04-18T10:21:17.051Z</time></trkpt><trkpt lat="42.0820876" lon="11.9018754"><ele>234.33333333333334</ele><time>2026-04-18T10:21:18.052Z</time></trkpt><trkpt lat="42.0821583" lon="11.9019267"><ele>233.66666666666669</ele><time>2026-04-18T10:21:19.054Z</time></trkpt><trkpt lat="42.0822256" lon="11.9019946"><ele>233.0</ele><time>2026-04-18T10:21:20.052Z</time></trkpt><trkpt lat="42.0822916" lon="11.9020603"><ele>233.00000000000003</ele><time>2026-04-18T10:21:21.057Z</time></trkpt><trkpt lat="42.0823528" lon="11.9021317"><ele>233.0</ele><time>2026-04-18T10:21:22.061Z</time></trkpt><trkpt lat="42.0824176" lon="11.9022032"><ele>233.0</ele><time>2026-04-18T10:21:23.054Z</time></trkpt><trkpt lat="42.082482" lon="11.9022748"><ele>233.0</ele><time>2026-04-18T10:21:24.067Z</time></trkpt><trkpt lat="42.0825322" lon="11.9023657"><ele>233.00000000000003</ele><time>2026-04-18T10:21:25.059Z</time></trkpt><trkpt lat="42.082574" lon="11.9024651"><ele>233.0</ele><time>2026-04-18T10:21:26.058Z</time></trkpt><trkpt lat="42.0826111" lon="11.9025609"><ele>235.50000000000003</ele><time>2026-04-18T10:21:27.055Z</time></trkpt><trkpt lat="42.0826415" lon="11.9026651"><ele>238.0</ele><time>2026-04-18T10:21:28.057Z</time></trkpt><trkpt lat="42.0826739" lon="11.9027677"><ele>240.5</ele><time>2026-04-18T10:21:29.055Z</time></trkpt><trkpt lat="42.0827177" lon="11.9028439"><ele>243.0</ele><time>2026-04-18T10:21:30.064Z</time></trkpt><trkpt lat="42.0827747" lon="11.9029019"><ele>245.50000000000003</ele><time>2026-04-18T10:21:31.063Z</time></trkpt><trkpt lat="42.0828387" lon="11.9029432"><ele>248.0</ele><time>2026-04-18T10:21:32.063Z</time></trkpt><trkpt lat="42.0829374" lon="11.9029554"><ele>248.00000000000003</ele><time>2026-04-18T10:21:34.05Z</time></trkpt><trkpt lat="42.0830144" lon="11.9028885"><ele>248.0</ele><time>2026-04-18T10:21:36.059Z</time></trkpt><trkpt lat="42.0830493" lon="11.9028075"><ele>248.0</ele><time>2026-04-18T10:21:37.064Z</time></trkpt><trkpt lat="42.0830818" lon="11.9027053"><ele>248.0</ele><time>2026-04-18T10:21:38.059Z</time></trkpt><trkpt lat="42.0831135" lon="11.9025878"><ele>248.00000000000003</ele><time>2026-04-18T10:21:39.074Z</time></trkpt><trkpt lat="42.0831453" lon="11.9024572"><ele>248.0</ele><time>2026-04-18T10:21:40.061Z</time></trkpt><trkpt lat="42.0831745" lon="11.90232"><ele>248.8</ele><time>2026-04-18T10:21:41.065Z</time></trkpt><trkpt lat="42.0831951" lon="11.9021804"><ele>249.60000000000002</ele><time>2026-04-18T10:21:42.063Z</time></trkpt><trkpt lat="42.0832197" lon="11.9020435"><ele>250.39999999999998</ele><time>2026-04-18T10:21:43.051Z</time></trkpt><trkpt lat="42.0832367" lon="11.9019036"><ele>251.2</ele><time>2026-04-18T10:21:44.048Z</time></trkpt><trkpt lat="42.0832491" lon="11.9017696"><ele>252.0</ele><time>2026-04-18T10:21:45.061Z</time></trkpt><trkpt lat="42.0832661" lon="11.9016382"><ele>256.2</ele><time>2026-04-18T10:21:46.06Z</time></trkpt><trkpt lat="42.0833039" lon="11.9015076"><ele>260.4</ele><time>2026-04-18T10:21:47.052Z</time></trkpt><trkpt lat="42.0833507" lon="11.9013887"><ele>264.6</ele><time>2026-04-18T10:21:48.068Z</time></trkpt><trkpt lat="42.0833983" lon="11.9012744"><ele>268.8</ele><time>2026-04-18T10:21:49.06Z</time></trkpt><trkpt lat="42.0834491" lon="11.9011698"><ele>273.0</ele><time>2026-04-18T10:21:50.051Z</time></trkpt><trkpt lat="42.0835024" lon="11.9010744"><ele>273.0</ele><time>2026-04-18T10:21:51.057Z</time></trkpt><trkpt lat="42.0835607" lon="11.9009924"><ele>273.0</ele><time>2026-04-18T10:21:52.059Z</time></trkpt><trkpt lat="42.083619" lon="11.9009173"><ele>273.0</ele><time>2026-04-18T10:21:53.061Z</time></trkpt><trkpt lat="42.0836786" lon="11.9008768"><ele>273.0</ele><time>2026-04-18T10:21:54.064Z</time></trkpt><trkpt lat="42.0837461" lon="11.9008277"><ele>273.0</ele><time>2026-04-18T10:21:55.065Z</time></trkpt><trkpt lat="42.0838094" lon="11.9007882"><ele>273.0</ele><time>2026-04-18T10:21:56.061Z</time></trkpt><trkpt lat="42.0838766" lon="11.9007558"><ele>272.3333333333333</ele><time>2026-04-18T10:21:57.061Z</time></trkpt><trkpt lat="42.0839525" lon="11.9007184"><ele>271.6666666666667</ele><time>2026-04-18T10:21:58.062Z</time></trkpt><trkpt lat="42.0840316" lon="11.9006743"><ele>271.0</ele><time>2026-04-18T10:21:59.055Z</time></trkpt><trkpt lat="42.0841121" lon="11.9006614"><ele>270.33333333333337</ele><time>2026-04-18T10:22:00.066Z</time></trkpt><trkpt lat="42.0841874" lon="11.9006801"><ele>269.6666666666667</ele><time>2026-04-18T10:22:01.059Z</time></trkpt><trkpt lat="42.0842563" lon="11.9007349"><ele>269.0</ele><time>2026-04-18T10:22:02.065Z</time></trkpt><trkpt lat="42.0843241" lon="11.9008165"><ele>271.0</ele><time>2026-04-18T10:22:03.055Z</time></trkpt><trkpt lat="42.084388" lon="11.900902"><ele>273.0</ele><time>2026-04-18T10:22:04.066Z</time></trkpt><trkpt lat="42.084422" lon="11.9010086"><ele>275.0</ele><time>2026-04-18T10:22:05.057Z</time></trkpt><trkpt lat="42.08445" lon="11.9011232"><ele>277.0</ele><time>2026-04-18T10:22:06.066Z</time></trkpt><trkpt lat="42.0844904" lon="11.9012332"><ele>279.0</ele><time>2026-04-18T10:22:07.062Z</time></trkpt><trkpt lat="42.0845375" lon="11.9013305"><ele>281.0</ele><time>2026-04-18T10:22:08.054Z</time></trkpt><trkpt lat="42.0845983" lon="11.9014108"><ele>282.83333333333337</ele><time>2026-04-18T10:22:09.065Z</time></trkpt><trkpt lat="42.0846562" lon="11.9014799"><ele>284.6666666666667</ele><time>2026-04-18T10:22:10.055Z</time></trkpt><trkpt lat="42.0847368" lon="11.901505"><ele>286.5</ele><time>2026-04-18T10:22:11.051Z</time></trkpt><trkpt lat="42.0848221" lon="11.9015165"><ele>288.3333333333333</ele><time>2026-04-18T10:22:12.062Z</time></trkpt><trkpt lat="42.0849101" lon="11.9015202"><ele>290.16666666666663</ele><time>2026-04-18T10:22:13.056Z</time></trkpt><trkpt lat="42.0850007" lon="11.9014847"><ele>292.0</ele><time>2026-04-18T10:22:14.052Z</time></trkpt><trkpt lat="42.0850918" lon="11.9014425"><ele>292.8</ele><time>2026-04-18T10:22:15.062Z</time></trkpt><trkpt lat="42.085183" lon="11.9014115"><ele>293.6</ele><time>2026-04-18T10:22:16.054Z</time></trkpt><trkpt lat="42.085278" lon="11.9013711"><ele>294.40000000000003</ele><time>2026-04-18T10:22:17.053Z</time></trkpt><trkpt lat="42.0853725" lon="11.9013354"><ele>295.2</ele><time>2026-04-18T10:22:18.054Z</time></trkpt><trkpt lat="42.0854659" lon="11.9013143"><ele>296.0</ele><time>2026-04-18T10:22:19.06Z</time></trkpt><trkpt lat="42.0855577" lon="11.9012825"><ele>296.0</ele><time>2026-04-18T10:22:20.051Z</time></trkpt><trkpt lat="42.085644" lon="11.90125"><ele>296.0</ele><time>2026-04-18T10:22:21.063Z</time></trkpt><trkpt lat="42.0857394" lon="11.901209"><ele>296.0</ele><time>2026-04-18T10:22:22.059Z</time></trkpt><trkpt lat="42.0858288" lon="11.9011736"><ele>296.0</ele><time>2026-04-18T10:22:23.056Z</time></trkpt><trkpt lat="42.0859191" lon="11.9011552"><ele>296.0</ele><time>2026-04-18T10:22:24.058Z</time></trkpt><trkpt lat="42.0860052" lon="11.901159"><ele>297.2</ele><time>2026-04-18T10:22:25.062Z</time></trkpt><trkpt lat="42.0860917" lon="11.9011653"><ele>298.40000000000003</ele><time>2026-04-18T10:22:26.066Z</time></trkpt><trkpt lat="42.0861602" lon="11.9012122"><ele>299.6</ele><time>2026-04-18T10:22:27.061Z</time></trkpt><trkpt lat="42.0862499" lon="11.9013144"><ele>300.8</ele><time>2026-04-18T10:22:29.063Z</time></trkpt><trkpt lat="42.086325" lon="11.901397"><ele>302.0</ele><time>2026-04-18T10:22:31.053Z</time></trkpt><trkpt lat="42.0863957" lon="11.9014934"><ele>302.0</ele><time>2026-04-18T10:22:33.065Z</time></trkpt><trkpt lat="42.0864863" lon="11.9015846"><ele>302.0</ele><time>2026-04-18T10:22:35.063Z</time></trkpt><trkpt lat="42.0865879" lon="11.9016846"><ele>302.0</ele><time>2026-04-18T10:22:37.055Z</time></trkpt><trkpt lat="42.0866394" lon="11.9017498"><ele>302.0</ele><time>2026-04-18T10:22:38.052Z</time></trkpt><trkpt lat="42.0866973" lon="11.9018171"><ele>302.0</ele><time>2026-04-18T10:22:39.064Z</time></trkpt><trkpt lat="42.0867611" lon="11.9018756"><ele>301.6666666666667</ele><time>2026-04-18T10:22:40.066Z</time></trkpt><trkpt lat="42.0868195" lon="11.901924"><ele>301.33333333333337</ele><time>2026-04-18T10:22:41.058Z</time></trkpt><trkpt lat="42.0869328" lon="11.9019971"><ele>301.0</ele><time>2026-04-18T10:22:43.053Z</time></trkpt><trkpt lat="42.0870056" lon="11.902006"><ele>300.6666666666667</ele><time>2026-04-18T10:22:44.054Z</time></trkpt><trkpt lat="42.087078" lon="11.9020136"><ele>300.3333333333333</ele><time>2026-04-18T10:22:45.056Z</time></trkpt><trkpt lat="42.0871546" lon="11.902013"><ele>300.0</ele><time>2026-04-18T10:22:46.056Z</time></trkpt><trkpt lat="42.0872308" lon="11.9020129"><ele>300.0</ele><time>2026-04-18T10:22:47.055Z</time></trkpt><trkpt lat="42.0873096" lon="11.9020122"><ele>300.0</ele><time>2026-04-18T10:22:48.055Z</time></trkpt><trkpt lat="42.0873913" lon="11.9020172"><ele>300.0</ele><time>2026-04-18T10:22:49.068Z</time></trkpt><trkpt lat="42.0874753" lon="11.9020232"><ele>300.0</ele><time>2026-04-18T10:22:50.066Z</time></trkpt><trkpt lat="42.0875608" lon="11.9020203"><ele>300.0</ele><time>2026-04-18T10:22:51.06Z</time></trkpt><trkpt lat="42.0876443" lon="11.9020256"><ele>300.0</ele><time>2026-04-18T10:22:52.054Z</time></trkpt><trkpt lat="42.0877235" lon="11.9020513"><ele>300.6666666666667</ele><time>2026-04-18T10:22:53.067Z</time></trkpt><trkpt lat="42.0877995" lon="11.9020989"><ele>301.3333333333333</ele><time>2026-04-18T10:22:54.063Z</time></trkpt><trkpt lat="42.087874" lon="11.9021492"><ele>302.0</ele><time>2026-04-18T10:22:55.056Z</time></trkpt><trkpt lat="42.0879346" lon="11.9022195"><ele>302.66666666666663</ele><time>2026-04-18T10:22:56.059Z</time></trkpt><trkpt lat="42.0879937" lon="11.9022826"><ele>303.3333333333333</ele><time>2026-04-18T10:22:57.062Z</time></trkpt><trkpt lat="42.0880505" lon="11.9023385"><ele>304.0</ele><time>2026-04-18T10:22:58.057Z</time></trkpt><trkpt lat="42.088108" lon="11.9023979"><ele>304.0</ele><time>2026-04-18T10:22:59.056Z</time></trkpt><trkpt lat="42.0881641" lon="11.902456"><ele>304.0</ele><time>2026-04-18T10:23:00.059Z</time></trkpt><trkpt lat="42.0882218" lon="11.9025215"><ele>304.0</ele><time>2026-04-18T10:23:01.059Z</time></trkpt><trkpt lat="42.0882764" lon="11.9025748"><ele>304.0</ele><time>2026-04-18T10:23:02.065Z</time></trkpt><trkpt lat="42.088369" lon="11.9026537"><ele>304.0</ele><time>2026-04-18T10:23:04.06Z</time></trkpt><trkpt lat="42.0884348" lon="11.9027197"><ele>304.0</ele><time>2026-04-18T10:23:06.056Z</time></trkpt><trkpt lat="42.0884938" lon="11.9027564"><ele>304.2</ele><time>2026-04-18T10:23:08.062Z</time></trkpt><trkpt lat="42.0885588" lon="11.9028361"><ele>304.4</ele><time>2026-04-18T10:23:11.057Z</time></trkpt><trkpt lat="42.0886046" lon="11.9029107"><ele>304.6</ele><time>2026-04-18T10:23:14.06Z</time></trkpt><trkpt lat="42.088706" lon="11.9029835"><ele>304.8</ele><time>2026-04-18T10:23:21.06Z</time></trkpt><trkpt lat="42.088819" lon="11.9030677"><ele>305.0</ele><time>2026-04-18T10:23:23.058Z</time></trkpt><trkpt lat="42.0888936" lon="11.9031132"><ele>305.0</ele><time>2026-04-18T10:23:24.054Z</time></trkpt><trkpt lat="42.0889761" lon="11.9031529"><ele>305.0</ele><time>2026-04-18T10:23:25.061Z</time></trkpt><trkpt lat="42.089077" lon="11.9031909"><ele>305.0</ele><time>2026-04-18T10:23:26.057Z</time></trkpt><trkpt lat="42.0891833" lon="11.9032213"><ele>305.0</ele><time>2026-04-18T10:23:27.059Z</time></trkpt><trkpt lat="42.0893033" lon="11.903234"><ele>305.0</ele><time>2026-04-18T10:23:28.061Z</time></trkpt><trkpt lat="42.0894363" lon="11.9032172"><ele>307.25</ele><time>2026-04-18T10:23:29.057Z</time></trkpt><trkpt lat="42.0895756" lon="11.9031707"><ele>309.5</ele><time>2026-04-18T10:23:30.051Z</time></trkpt><trkpt lat="42.089701" lon="11.9031148"><ele>311.75</ele><time>2026-04-18T10:23:31.059Z</time></trkpt><trkpt lat="42.0898173" lon="11.9030699"><ele>314.0</ele><time>2026-04-18T10:23:32.065Z</time></trkpt><trkpt lat="42.0899249" lon="11.9030448"><ele>313.59999999999997</ele><time>2026-04-18T10:23:33.057Z</time></trkpt><trkpt lat="42.0900216" lon="11.9030279"><ele>313.2</ele><time>2026-04-18T10:23:34.063Z</time></trkpt><trkpt lat="42.0901159" lon="11.9030134"><ele>312.79999999999995</ele><time>2026-04-18T10:23:35.06Z</time></trkpt><trkpt lat="42.0902215" lon="11.9030647"><ele>312.4</ele><time>2026-04-18T10:23:36.056Z</time></trkpt><trkpt lat="42.0903531" lon="11.9031244"><ele>312.0</ele><time>2026-04-18T10:23:37.061Z</time></trkpt><trkpt lat="42.0905003" lon="11.9031745"><ele>312.0</ele><time>2026-04-18T10:23:38.059Z</time></trkpt><trkpt lat="42.0906565" lon="11.9032217"><ele>312.0</ele><time>2026-04-18T10:23:39.054Z</time></trkpt><trkpt lat="42.0908162" lon="11.9032775"><ele>312.0</ele><time>2026-04-18T10:23:40.056Z</time></trkpt><trkpt lat="42.0909654" lon="11.9033317"><ele>312.75</ele><time>2026-04-18T10:23:41.055Z</time></trkpt><trkpt lat="42.0911013" lon="11.9033909"><ele>313.5</ele><time>2026-04-18T10:23:42.055Z</time></trkpt><trkpt lat="42.0912143" lon="11.903472"><ele>314.25</ele><time>2026-04-18T10:23:43.06Z</time></trkpt><trkpt lat="42.091317" lon="11.9035871"><ele>315.0</ele><time>2026-04-18T10:23:44.07Z</time></trkpt><trkpt lat="42.0914137" lon="11.9037251"><ele>314.75</ele><time>2026-04-18T10:23:45.057Z</time></trkpt><trkpt lat="42.0915002" lon="11.9038645"><ele>314.5</ele><time>2026-04-18T10:23:46.056Z</time></trkpt><trkpt lat="42.0915961" lon="11.9039974"><ele>314.25</ele><time>2026-04-18T10:23:47.058Z</time></trkpt><trkpt lat="42.0917009" lon="11.9041293"><ele>314.0</ele><time>2026-04-18T10:23:48.06Z</time></trkpt><trkpt lat="42.0918004" lon="11.9042638"><ele>311.25</ele><time>2026-04-18T10:23:49.05Z</time></trkpt><trkpt lat="42.0918914" lon="11.9043908"><ele>308.5</ele><time>2026-04-18T10:23:50.051Z</time></trkpt><trkpt lat="42.0920012" lon="11.9045021"><ele>305.75</ele><time>2026-04-18T10:23:51.059Z</time></trkpt><trkpt lat="42.0921048" lon="11.9046429"><ele>303.0</ele><time>2026-04-18T10:23:52.06Z</time></trkpt><trkpt lat="42.0922054" lon="11.9047895"><ele>303.0</ele><time>2026-04-18T10:23:53.057Z</time></trkpt><trkpt lat="42.092297" lon="11.9049213"><ele>303.0</ele><time>2026-04-18T10:23:54.065Z</time></trkpt><trkpt lat="42.0923926" lon="11.9050311"><ele>303.0</ele><time>2026-04-18T10:23:55.063Z</time></trkpt><trkpt lat="42.0925006" lon="11.9051281"><ele>303.0</ele><time>2026-04-18T10:23:56.052Z</time></trkpt><trkpt lat="42.0926125" lon="11.9052179"><ele>303.5</ele><time>2026-04-18T10:23:57.062Z</time></trkpt><trkpt lat="42.092758" lon="11.9052783"><ele>304.0</ele><time>2026-04-18T10:23:58.055Z</time></trkpt><trkpt lat="42.0928931" lon="11.9053446"><ele>304.5</ele><time>2026-04-18T10:23:59.061Z</time></trkpt><trkpt lat="42.09303" lon="11.9053925"><ele>305.0</ele><time>2026-04-18T10:24:00.074Z</time></trkpt><trkpt lat="42.0931578" lon="11.9054298"><ele>305.75</ele><time>2026-04-18T10:24:01.061Z</time></trkpt><trkpt lat="42.0932711" lon="11.9054769"><ele>306.5</ele><time>2026-04-18T10:24:02.051Z</time></trkpt><trkpt lat="42.0933791" lon="11.9055392"><ele>307.25</ele><time>2026-04-18T10:24:03.068Z</time></trkpt><trkpt lat="42.0934935" lon="11.9056032"><ele>308.0</ele><time>2026-04-18T10:24:04.062Z</time></trkpt><trkpt lat="42.0936065" lon="11.905656"><ele>308.0</ele><time>2026-04-18T10:24:05.067Z</time></trkpt><trkpt lat="42.0937203" lon="11.9056968"><ele>308.0</ele><time>2026-04-18T10:24:06.069Z</time></trkpt><trkpt lat="42.0938316" lon="11.9057307"><ele>308.0</ele><time>2026-04-18T10:24:07.061Z</time></trkpt><trkpt lat="42.0939296" lon="11.905763"><ele>308.0</ele><time>2026-04-18T10:24:08.071Z</time></trkpt><trkpt lat="42.0940217" lon="11.9058121"><ele>308.0</ele><time>2026-04-18T10:24:09.061Z</time></trkpt><trkpt lat="42.0941014" lon="11.9058728"><ele>308.6</ele><time>2026-04-18T10:24:10.057Z</time></trkpt><trkpt lat="42.0941842" lon="11.9059275"><ele>309.20000000000005</ele><time>2026-04-18T10:24:11.058Z</time></trkpt><trkpt lat="42.0942667" lon="11.9059869"><ele>309.8</ele><time>2026-04-18T10:24:12.067Z</time></trkpt><trkpt lat="42.0943423" lon="11.9060605"><ele>310.40000000000003</ele><time>2026-04-18T10:24:13.069Z</time></trkpt><trkpt lat="42.0944123" lon="11.906135"><ele>311.0</ele><time>2026-04-18T10:24:14.064Z</time></trkpt><trkpt lat="42.0944715" lon="11.9062181"><ele>311.0</ele><time>2026-04-18T10:24:15.058Z</time></trkpt><trkpt lat="42.0945307" lon="11.9062994"><ele>311.0</ele><time>2026-04-18T10:24:16.067Z</time></trkpt><trkpt lat="42.0945711" lon="11.9063759"><ele>311.0</ele><time>2026-04-18T10:24:17.055Z</time></trkpt><trkpt lat="42.0946083" lon="11.9064444"><ele>311.0</ele><time>2026-04-18T10:24:18.055Z</time></trkpt><trkpt lat="42.0946349" lon="11.9065345"><ele>311.0</ele><time>2026-04-18T10:24:19.07Z</time></trkpt><trkpt lat="42.0946755" lon="11.9066323"><ele>311.0</ele><time>2026-04-18T10:24:20.07Z</time></trkpt><trkpt lat="42.0947103" lon="11.9067385"><ele>311.0</ele><time>2026-04-18T10:24:21.059Z</time></trkpt><trkpt lat="42.0947447" lon="11.9068505"><ele>311.0</ele><time>2026-04-18T10:24:22.061Z</time></trkpt><trkpt lat="42.0947763" lon="11.9069571"><ele>311.0</ele><time>2026-04-18T10:24:23.051Z</time></trkpt><trkpt lat="42.0948071" lon="11.9070546"><ele>311.0</ele><time>2026-04-18T10:24:24.067Z</time></trkpt><trkpt lat="42.0948378" lon="11.9071549"><ele>311.0</ele><time>2026-04-18T10:24:25.053Z</time></trkpt><trkpt lat="42.094865" lon="11.9072475"><ele>311.0</ele><time>2026-04-18T10:24:26.052Z</time></trkpt><trkpt lat="42.0948967" lon="11.9073358"><ele>313.1666666666667</ele><time>2026-04-18T10:24:27.062Z</time></trkpt><trkpt lat="42.0949307" lon="11.9074162"><ele>315.33333333333337</ele><time>2026-04-18T10:24:28.059Z</time></trkpt><trkpt lat="42.0949656" lon="11.9074906"><ele>317.5</ele><time>2026-04-18T10:24:29.056Z</time></trkpt><trkpt lat="42.09505" lon="11.9076306"><ele>319.6666666666667</ele><time>2026-04-18T10:24:31.067Z</time></trkpt><trkpt lat="42.0951151" lon="11.9077086"><ele>321.8333333333333</ele><time>2026-04-18T10:24:32.057Z</time></trkpt><trkpt lat="42.0951856" lon="11.9077815"><ele>324.0</ele><time>2026-04-18T10:24:33.054Z</time></trkpt><trkpt lat="42.0952679" lon="11.907842"><ele>324.0</ele><time>2026-04-18T10:24:34.059Z</time></trkpt><trkpt lat="42.0953415" lon="11.9079076"><ele>324.0</ele><time>2026-04-18T10:24:35.066Z</time></trkpt><trkpt lat="42.0954108" lon="11.9079927"><ele>324.0</ele><time>2026-04-18T10:24:36.076Z</time></trkpt><trkpt lat="42.0954776" lon="11.908078"><ele>324.0</ele><time>2026-04-18T10:24:37.055Z</time></trkpt><trkpt lat="42.0955342" lon="11.9081822"><ele>324.0</ele><time>2026-04-18T10:24:38.061Z</time></trkpt><trkpt lat="42.095606" lon="11.9082633"><ele>324.0</ele><time>2026-04-18T10:24:39.064Z</time></trkpt><trkpt lat="42.095679" lon="11.9083478"><ele>324.0</ele><time>2026-04-18T10:24:40.062Z</time></trkpt><trkpt lat="42.0957625" lon="11.9084414"><ele>324.0</ele><time>2026-04-18T10:24:41.07Z</time></trkpt><trkpt lat="42.0958436" lon="11.9085397"><ele>324.0</ele><time>2026-04-18T10:24:42.067Z</time></trkpt><trkpt lat="42.0959104" lon="11.9086426"><ele>324.0</ele><time>2026-04-18T10:24:43.058Z</time></trkpt><trkpt lat="42.0959735" lon="11.9087496"><ele>326.2</ele><time>2026-04-18T10:24:44.06Z</time></trkpt><trkpt lat="42.0960298" lon="11.90885"><ele>328.4</ele><time>2026-04-18T10:24:45.07Z</time></trkpt><trkpt lat="42.0960831" lon="11.9089593"><ele>330.6</ele><time>2026-04-18T10:24:46.066Z</time></trkpt><trkpt lat="42.0961282" lon="11.9090753"><ele>332.8</ele><time>2026-04-18T10:24:47.061Z</time></trkpt><trkpt lat="42.0961858" lon="11.9091869"><ele>335.0</ele><time>2026-04-18T10:24:48.075Z</time></trkpt><trkpt lat="42.0962574" lon="11.9092945"><ele>335.0</ele><time>2026-04-18T10:24:49.075Z</time></trkpt><trkpt lat="42.0963327" lon="11.9094001"><ele>335.0</ele><time>2026-04-18T10:24:50.062Z</time></trkpt><trkpt lat="42.0964063" lon="11.9095062"><ele>335.0</ele><time>2026-04-18T10:24:51.066Z</time></trkpt><trkpt lat="42.0964618" lon="11.9096293"><ele>335.0</ele><time>2026-04-18T10:24:52.075Z</time></trkpt><trkpt lat="42.0965154" lon="11.9097519"><ele>335.0</ele><time>2026-04-18T10:24:53.056Z</time></trkpt><trkpt lat="42.0965718" lon="11.9098842"><ele>337.0</ele><time>2026-04-18T10:24:54.075Z</time></trkpt><trkpt lat="42.09663" lon="11.9100165"><ele>339.0</ele><time>2026-04-18T10:24:55.065Z</time></trkpt><trkpt lat="42.0966776" lon="11.9101511"><ele>341.0</ele><time>2026-04-18T10:24:56.052Z</time></trkpt><trkpt lat="42.0967203" lon="11.9102833"><ele>343.0</ele><time>2026-04-18T10:24:57.054Z</time></trkpt><trkpt lat="42.0967519" lon="11.9104225"><ele>345.0</ele><time>2026-04-18T10:24:58.06Z</time></trkpt><trkpt lat="42.0967755" lon="11.9105589"><ele>345.4</ele><time>2026-04-18T10:24:59.058Z</time></trkpt><trkpt lat="42.0967927" lon="11.9106919"><ele>345.8</ele><time>2026-04-18T10:25:00.053Z</time></trkpt><trkpt lat="42.0968077" lon="11.9108374"><ele>346.20000000000005</ele><time>2026-04-18T10:25:01.057Z</time></trkpt><trkpt lat="42.0968236" lon="11.9109738"><ele>346.6</ele><time>2026-04-18T10:25:02.065Z</time></trkpt><trkpt lat="42.096843" lon="11.9111038"><ele>347.0</ele><time>2026-04-18T10:25:03.061Z</time></trkpt><trkpt lat="42.0968702" lon="11.911224"><ele>349.40000000000003</ele><time>2026-04-18T10:25:04.056Z</time></trkpt><trkpt lat="42.0969042" lon="11.9113404"><ele>351.8</ele><time>2026-04-18T10:25:05.073Z</time></trkpt><trkpt lat="42.0969435" lon="11.9114464"><ele>354.2</ele><time>2026-04-18T10:25:06.064Z</time></trkpt><trkpt lat="42.0970105" lon="11.9115414"><ele>356.6</ele><time>2026-04-18T10:25:07.052Z</time></trkpt><trkpt lat="42.0970808" lon="11.9116315"><ele>359.0</ele><time>2026-04-18T10:25:08.053Z</time></trkpt><trkpt lat="42.0971498" lon="11.911718"><ele>360.6666666666667</ele><time>2026-04-18T10:25:09.067Z</time></trkpt><trkpt lat="42.0971816" lon="11.9118395"><ele>362.33333333333337</ele><time>2026-04-18T10:25:10.057Z</time></trkpt><trkpt lat="42.0972073" lon="11.9119596"><ele>364.0</ele><time>2026-04-18T10:25:11.05Z</time></trkpt><trkpt lat="42.0972145" lon="11.9120726"><ele>365.6666666666667</ele><time>2026-04-18T10:25:12.059Z</time></trkpt><trkpt lat="42.0972183" lon="11.9121843"><ele>367.3333333333333</ele><time>2026-04-18T10:25:13.055Z</time></trkpt><trkpt lat="42.097223" lon="11.912277"><ele>369.0</ele><time>2026-04-18T10:25:14.052Z</time></trkpt><trkpt lat="42.0972311" lon="11.9123963"><ele>369.0</ele><time>2026-04-18T10:25:16.06Z</time></trkpt><trkpt lat="42.0972392" lon="11.912487"><ele>369.0</ele><time>2026-04-18T10:25:18.065Z</time></trkpt><trkpt lat="42.0972785" lon="11.9126309"><ele>369.0</ele><time>2026-04-18T10:25:23.065Z</time></trkpt><trkpt lat="42.0973537" lon="11.9127912"><ele>369.0</ele><time>2026-04-18T10:25:32.057Z</time></trkpt><trkpt lat="42.0973984" lon="11.9128521"><ele>369.0</ele><time>2026-04-18T10:25:34.059Z</time></trkpt><trkpt lat="42.0974523" lon="11.9129352"><ele>368.6666666666667</ele><time>2026-04-18T10:25:36.056Z</time></trkpt><trkpt lat="42.0974994" lon="11.9130134"><ele>368.3333333333333</ele><time>2026-04-18T10:25:38.055Z</time></trkpt><trkpt lat="42.0975371" lon="11.9130997"><ele>368.0</ele><time>2026-04-18T10:25:40.054Z</time></trkpt><trkpt lat="42.0975584" lon="11.9132008"><ele>367.66666666666663</ele><time>2026-04-18T10:25:42.054Z</time></trkpt><trkpt lat="42.0975777" lon="11.9133059"><ele>367.3333333333333</ele><time>2026-04-18T10:25:44.057Z</time></trkpt><trkpt lat="42.0976011" lon="11.9134125"><ele>367.0</ele><time>2026-04-18T10:25:46.055Z</time></trkpt><trkpt lat="42.0976235" lon="11.9135281"><ele>367.0</ele><time>2026-04-18T10:25:48.065Z</time></trkpt><trkpt lat="42.0976601" lon="11.9136242"><ele>367.0</ele><time>2026-04-18T10:25:50.055Z</time></trkpt><trkpt lat="42.0977073" lon="11.9137438"><ele>367.0</ele><time>2026-04-18T10:25:52.059Z</time></trkpt><trkpt lat="42.097735" lon="11.9138705"><ele>367.0</ele><time>2026-04-18T10:25:54.051Z</time></trkpt><trkpt lat="42.0977659" lon="11.9139728"><ele>367.0</ele><time>2026-04-18T10:25:56.048Z</time></trkpt><trkpt lat="42.0978039" lon="11.9140847"><ele>367.0</ele><time>2026-04-18T10:25:58.058Z</time></trkpt><trkpt lat="42.0978598" lon="11.9141975"><ele>367.0</ele><time>2026-04-18T10:26:00.049Z</time></trkpt><trkpt lat="42.0979392" lon="11.9143282"><ele>367.0</ele><time>2026-04-18T10:26:02.061Z</time></trkpt><trkpt lat="42.0980033" lon="11.9144148"><ele>367.0</ele><time>2026-04-18T10:26:03.047Z</time></trkpt><trkpt lat="42.0980889" lon="11.9145048"><ele>367.0</ele><time>2026-04-18T10:26:04.063Z</time></trkpt><trkpt lat="42.0981769" lon="11.9146086"><ele>365.25</ele><time>2026-04-18T10:26:05.048Z</time></trkpt><trkpt lat="42.0982721" lon="11.9147165"><ele>363.5</ele><time>2026-04-18T10:26:06.056Z</time></trkpt><trkpt lat="42.0983551" lon="11.9148384"><ele>361.75</ele><time>2026-04-18T10:26:07.053Z</time></trkpt><trkpt lat="42.0984127" lon="11.9149644"><ele>360.0</ele><time>2026-04-18T10:26:08.05Z</time></trkpt><trkpt lat="42.0984704" lon="11.9150824"><ele>359.0</ele><time>2026-04-18T10:26:09.061Z</time></trkpt><trkpt lat="42.0985265" lon="11.9151992"><ele>358.0</ele><time>2026-04-18T10:26:10.055Z</time></trkpt><trkpt lat="42.0986172" lon="11.9153014"><ele>357.0</ele><time>2026-04-18T10:26:11.051Z</time></trkpt><trkpt lat="42.0987394" lon="11.9153765"><ele>356.0</ele><time>2026-04-18T10:26:12.054Z</time></trkpt><trkpt lat="42.0988686" lon="11.9154305"><ele>356.0</ele><time>2026-04-18T10:26:13.064Z</time></trkpt><trkpt lat="42.0990046" lon="11.9154688"><ele>356.0</ele><time>2026-04-18T10:26:14.059Z</time></trkpt><trkpt lat="42.0991442" lon="11.915504"><ele>356.0</ele><time>2026-04-18T10:26:15.062Z</time></trkpt><trkpt lat="42.0992842" lon="11.9155353"><ele>356.0</ele><time>2026-04-18T10:26:16.064Z</time></trkpt><trkpt lat="42.0994193" lon="11.9155655"><ele>355.25</ele><time>2026-04-18T10:26:17.065Z</time></trkpt><trkpt lat="42.0995544" lon="11.915586"><ele>354.5</ele><time>2026-04-18T10:26:18.063Z</time></trkpt><trkpt lat="42.0997018" lon="11.9156011"><ele>353.75</ele><time>2026-04-18T10:26:19.068Z</time></trkpt><trkpt lat="42.0998544" lon="11.9156194"><ele>353.0</ele><time>2026-04-18T10:26:20.072Z</time></trkpt><trkpt lat="42.1000037" lon="11.9156841"><ele>353.0</ele><time>2026-04-18T10:26:21.074Z</time></trkpt><trkpt lat="42.1001607" lon="11.9157731"><ele>353.0</ele><time>2026-04-18T10:26:22.061Z</time></trkpt><trkpt lat="42.1003214" lon="11.9158684"><ele>353.0</ele><time>2026-04-18T10:26:23.074Z</time></trkpt><trkpt lat="42.1004897" lon="11.9159739"><ele>350.33333333333337</ele><time>2026-04-18T10:26:24.074Z</time></trkpt><trkpt lat="42.1006543" lon="11.9160681"><ele>347.6666666666667</ele><time>2026-04-18T10:26:25.065Z</time></trkpt><trkpt lat="42.1008165" lon="11.9161397"><ele>345.0</ele><time>2026-04-18T10:26:26.061Z</time></trkpt><trkpt lat="42.1009687" lon="11.9162037"><ele>345.0</ele><time>2026-04-18T10:26:27.078Z</time></trkpt><trkpt lat="42.1011195" lon="11.9162766"><ele>345.0</ele><time>2026-04-18T10:26:28.057Z</time></trkpt><trkpt lat="42.1012596" lon="11.9163464"><ele>345.0</ele><time>2026-04-18T10:26:29.065Z</time></trkpt><trkpt lat="42.1014071" lon="11.9164393"><ele>345.0</ele><time>2026-04-18T10:26:30.058Z</time></trkpt><trkpt lat="42.1015547" lon="11.9165411"><ele>345.0</ele><time>2026-04-18T10:26:31.058Z</time></trkpt><trkpt lat="42.1017009" lon="11.9166647"><ele>345.0</ele><time>2026-04-18T10:26:32.056Z</time></trkpt><trkpt lat="42.1018546" lon="11.9168012"><ele>342.6666666666667</ele><time>2026-04-18T10:26:33.062Z</time></trkpt><trkpt lat="42.1019965" lon="11.9169297"><ele>340.33333333333337</ele><time>2026-04-18T10:26:34.062Z</time></trkpt><trkpt lat="42.1021344" lon="11.9170608"><ele>338.0</ele><time>2026-04-18T10:26:35.057Z</time></trkpt><trkpt lat="42.102247" lon="11.9172333"><ele>338.0</ele><time>2026-04-18T10:26:36.06Z</time></trkpt><trkpt lat="42.1023562" lon="11.9173976"><ele>338.0</ele><time>2026-04-18T10:26:37.055Z</time></trkpt><trkpt lat="42.1024714" lon="11.9175364"><ele>338.0</ele><time>2026-04-18T10:26:38.058Z</time></trkpt><trkpt lat="42.1025985" lon="11.9176868"><ele>338.5</ele><time>2026-04-18T10:26:39.058Z</time></trkpt><trkpt lat="42.1027179" lon="11.9178193"><ele>339.0</ele><time>2026-04-18T10:26:40.053Z</time></trkpt><trkpt lat="42.1028207" lon="11.9179415"><ele>339.5</ele><time>2026-04-18T10:26:41.053Z</time></trkpt><trkpt lat="42.1029184" lon="11.9180668"><ele>340.0</ele><time>2026-04-18T10:26:42.055Z</time></trkpt><trkpt lat="42.103014" lon="11.9181968"><ele>340.0</ele><time>2026-04-18T10:26:43.059Z</time></trkpt><trkpt lat="42.103107" lon="11.9183343"><ele>340.0</ele><time>2026-04-18T10:26:44.05Z</time></trkpt><trkpt lat="42.1032009" lon="11.918466"><ele>340.0</ele><time>2026-04-18T10:26:45.055Z</time></trkpt><trkpt lat="42.1032929" lon="11.9185992"><ele>340.0</ele><time>2026-04-18T10:26:46.061Z</time></trkpt><trkpt lat="42.1033909" lon="11.9187541"><ele>339.0</ele><time>2026-04-18T10:26:47.055Z</time></trkpt><trkpt lat="42.1034806" lon="11.9189217"><ele>338.0</ele><time>2026-04-18T10:26:48.058Z</time></trkpt><trkpt lat="42.1035527" lon="11.9191026"><ele>337.0</ele><time>2026-04-18T10:26:49.059Z</time></trkpt><trkpt lat="42.1036097" lon="11.9192865"><ele>336.75</ele><time>2026-04-18T10:26:50.048Z</time></trkpt><trkpt lat="42.1036492" lon="11.9194686"><ele>336.5</ele><time>2026-04-18T10:26:51.055Z</time></trkpt><trkpt lat="42.1036821" lon="11.9196444"><ele>336.25</ele><time>2026-04-18T10:26:52.067Z</time></trkpt><trkpt lat="42.1036997" lon="11.9198184"><ele>336.0</ele><time>2026-04-18T10:26:53.057Z</time></trkpt><trkpt lat="42.1036928" lon="11.920009"><ele>336.5</ele><time>2026-04-18T10:26:54.06Z</time></trkpt><trkpt lat="42.1036837" lon="11.9201927"><ele>337.0</ele><time>2026-04-18T10:26:55.055Z</time></trkpt><trkpt lat="42.1036679" lon="11.9203722"><ele>337.5</ele><time>2026-04-18T10:26:56.062Z</time></trkpt><trkpt lat="42.1036567" lon="11.92056"><ele>338.0</ele><time>2026-04-18T10:26:57.055Z</time></trkpt><trkpt lat="42.1036552" lon="11.9207499"><ele>338.75</ele><time>2026-04-18T10:26:58.057Z</time></trkpt><trkpt lat="42.1036711" lon="11.9209467"><ele>339.5</ele><time>2026-04-18T10:26:59.052Z</time></trkpt><trkpt lat="42.1036878" lon="11.9211381"><ele>340.25</ele><time>2026-04-18T10:27:00.065Z</time></trkpt><trkpt lat="42.1037" lon="11.921326"><ele>341.0</ele><time>2026-04-18T10:27:01.054Z</time></trkpt><trkpt lat="42.1037093" lon="11.9215105"><ele>341.0</ele><time>2026-04-18T10:27:02.061Z</time></trkpt><trkpt lat="42.1037255" lon="11.921695"><ele>341.0</ele><time>2026-04-18T10:27:03.066Z</time></trkpt><trkpt lat="42.1037506" lon="11.9218632"><ele>341.0</ele><time>2026-04-18T10:27:04.06Z</time></trkpt><trkpt lat="42.1037724" lon="11.9220119"><ele>341.0</ele><time>2026-04-18T10:27:05.057Z</time></trkpt><trkpt lat="42.1037922" lon="11.9221598"><ele>341.75</ele><time>2026-04-18T10:27:06.058Z</time></trkpt><trkpt lat="42.1038129" lon="11.9223108"><ele>342.5</ele><time>2026-04-18T10:27:07.061Z</time></trkpt><trkpt lat="42.1038387" lon="11.9224791"><ele>343.25</ele><time>2026-04-18T10:27:08.063Z</time></trkpt><trkpt lat="42.1038482" lon="11.9226498"><ele>344.0</ele><time>2026-04-18T10:27:09.058Z</time></trkpt><trkpt lat="42.1038789" lon="11.9228225"><ele>344.0</ele><time>2026-04-18T10:27:10.057Z</time></trkpt><trkpt lat="42.1039041" lon="11.922992"><ele>344.0</ele><time>2026-04-18T10:27:11.059Z</time></trkpt><trkpt lat="42.1039253" lon="11.9231595"><ele>344.0</ele><time>2026-04-18T10:27:12.06Z</time></trkpt><trkpt lat="42.1039422" lon="11.9233273"><ele>344.0</ele><time>2026-04-18T10:27:13.061Z</time></trkpt><trkpt lat="42.103955" lon="11.9235079"><ele>344.25</ele><time>2026-04-18T10:27:14.062Z</time></trkpt><trkpt lat="42.1039776" lon="11.9236903"><ele>344.5</ele><time>2026-04-18T10:27:15.053Z</time></trkpt><trkpt lat="42.1039893" lon="11.9238774"><ele>344.75</ele><time>2026-04-18T10:27:16.056Z</time></trkpt><trkpt lat="42.1039929" lon="11.9240679"><ele>345.0</ele><time>2026-04-18T10:27:17.058Z</time></trkpt><trkpt lat="42.1039896" lon="11.9242454"><ele>345.4</ele><time>2026-04-18T10:27:18.051Z</time></trkpt><trkpt lat="42.1039843" lon="11.924397"><ele>345.8</ele><time>2026-04-18T10:27:19.054Z</time></trkpt><trkpt lat="42.1039852" lon="11.9245241"><ele>346.20000000000005</ele><time>2026-04-18T10:27:20.063Z</time></trkpt><trkpt lat="42.1039912" lon="11.9246353"><ele>346.6</ele><time>2026-04-18T10:27:21.066Z</time></trkpt><trkpt lat="42.1039956" lon="11.9247279"><ele>347.0</ele><time>2026-04-18T10:27:22.051Z</time></trkpt><trkpt lat="42.1040046" lon="11.9248536"><ele>347.0</ele><time>2026-04-18T10:27:24.058Z</time></trkpt><trkpt lat="42.1040057" lon="11.9250047"><ele>347.0</ele><time>2026-04-18T10:27:46.063Z</time></trkpt><trkpt lat="42.1040351" lon="11.9251629"><ele>347.0</ele><time>2026-04-18T10:27:52.059Z</time></trkpt><trkpt lat="42.1040388" lon="11.9252669"><ele>347.0</ele><time>2026-04-18T10:27:55.059Z</time></trkpt><trkpt lat="42.1040431" lon="11.9253756"><ele>347.0</ele><time>2026-04-18T10:27:58.064Z</time></trkpt><trkpt lat="42.1040578" lon="11.925478"><ele>347.14285714285717</ele><time>2026-04-18T10:28:01.061Z</time></trkpt><trkpt lat="42.1040621" lon="11.9255664"><ele>347.2857142857143</ele><time>2026-04-18T10:28:05.061Z</time></trkpt><trkpt lat="42.1040638" lon="11.9256578"><ele>347.42857142857144</ele><time>2026-04-18T10:28:13.071Z</time></trkpt><trkpt lat="42.1040636" lon="11.9257676"><ele>347.57142857142856</ele><time>2026-04-18T10:28:19.068Z</time></trkpt><trkpt lat="42.1040669" lon="11.9258639"><ele>347.7142857142857</ele><time>2026-04-18T10:28:21.061Z</time></trkpt><trkpt lat="42.104064" lon="11.9259669"><ele>347.85714285714283</ele><time>2026-04-18T10:28:24.06Z</time></trkpt><trkpt lat="42.1040688" lon="11.9260733"><ele>348.0</ele><time>2026-04-18T10:28:27.059Z</time></trkpt><trkpt lat="42.1040756" lon="11.926176"><ele>348.0</ele><time>2026-04-18T10:28:31.068Z</time></trkpt><trkpt lat="42.1040951" lon="11.9262711"><ele>348.0</ele><time>2026-04-18T10:28:34.063Z</time></trkpt><trkpt lat="42.1040827" lon="11.9263847"><ele>348.0</ele><time>2026-04-18T10:28:36.06Z</time></trkpt><trkpt lat="42.104076" lon="11.9265326"><ele>348.0</ele><time>2026-04-18T10:28:38.065Z</time></trkpt><trkpt lat="42.1040838" lon="11.9266253"><ele>348.0</ele><time>2026-04-18T10:28:39.056Z</time></trkpt><trkpt lat="42.1040953" lon="11.9267206"><ele>348.0</ele><time>2026-04-18T10:28:40.063Z</time></trkpt><trkpt lat="42.1041072" lon="11.9268097"><ele>350.59999999999997</ele><time>2026-04-18T10:28:41.059Z</time></trkpt><trkpt lat="42.1041246" lon="11.9269979"><ele>353.2</ele><time>2026-04-18T10:28:43.059Z</time></trkpt><trkpt lat="42.104134" lon="11.9271232"><ele>355.8</ele><time>2026-04-18T10:28:44.055Z</time></trkpt><trkpt lat="42.1041516" lon="11.9272614"><ele>358.4</ele><time>2026-04-18T10:28:45.053Z</time></trkpt><trkpt lat="42.1041773" lon="11.9273973"><ele>361.0</ele><time>2026-04-18T10:28:46.059Z</time></trkpt><trkpt lat="42.1042159" lon="11.9275435"><ele>360.25</ele><time>2026-04-18T10:28:47.062Z</time></trkpt><trkpt lat="42.1042658" lon="11.9277011"><ele>359.5</ele><time>2026-04-18T10:28:48.063Z</time></trkpt><trkpt lat="42.1043222" lon="11.9278606"><ele>358.75</ele><time>2026-04-18T10:28:49.055Z</time></trkpt><trkpt lat="42.1043806" lon="11.9280304"><ele>358.0</ele><time>2026-04-18T10:28:50.065Z</time></trkpt><trkpt lat="42.1044277" lon="11.9282029"><ele>358.0</ele><time>2026-04-18T10:28:51.055Z</time></trkpt><trkpt lat="42.104473" lon="11.9283705"><ele>358.0</ele><time>2026-04-18T10:28:52.062Z</time></trkpt><trkpt lat="42.1045202" lon="11.928537"><ele>358.0</ele><time>2026-04-18T10:28:53.052Z</time></trkpt><trkpt lat="42.1045683" lon="11.9287031"><ele>358.0</ele><time>2026-04-18T10:28:54.065Z</time></trkpt><trkpt lat="42.1046194" lon="11.9288646"><ele>358.79999999999995</ele><time>2026-04-18T10:28:55.061Z</time></trkpt><trkpt lat="42.1046605" lon="11.929013"><ele>359.6</ele><time>2026-04-18T10:28:56.057Z</time></trkpt><trkpt lat="42.1046984" lon="11.9291489"><ele>360.4</ele><time>2026-04-18T10:28:57.057Z</time></trkpt><trkpt lat="42.1047256" lon="11.929265"><ele>361.20000000000005</ele><time>2026-04-18T10:28:58.064Z</time></trkpt><trkpt lat="42.1047199" lon="11.9293835"><ele>362.0</ele><time>2026-04-18T10:28:59.067Z</time></trkpt><trkpt lat="42.1047034" lon="11.9295126"><ele>363.8</ele><time>2026-04-18T10:29:00.069Z</time></trkpt><trkpt lat="42.1046625" lon="11.9296437"><ele>365.6</ele><time>2026-04-18T10:29:01.064Z</time></trkpt><trkpt lat="42.1046236" lon="11.9297747"><ele>367.40000000000003</ele><time>2026-04-18T10:29:02.056Z</time></trkpt><trkpt lat="42.1045464" lon="11.9298925"><ele>369.20000000000005</ele><time>2026-04-18T10:29:03.058Z</time></trkpt><trkpt lat="42.1044662" lon="11.9300152"><ele>371.0</ele><time>2026-04-18T10:29:04.061Z</time></trkpt><trkpt lat="42.1043824" lon="11.9301451"><ele>371.8</ele><time>2026-04-18T10:29:05.055Z</time></trkpt><trkpt lat="42.1042965" lon="11.9302695"><ele>372.6</ele><time>2026-04-18T10:29:06.067Z</time></trkpt><trkpt lat="42.1042186" lon="11.9303933"><ele>373.4</ele><time>2026-04-18T10:29:07.068Z</time></trkpt><trkpt lat="42.1041585" lon="11.9305129"><ele>374.2</ele><time>2026-04-18T10:29:08.067Z</time></trkpt><trkpt lat="42.1041301" lon="11.930617"><ele>375.0</ele><time>2026-04-18T10:29:09.057Z</time></trkpt><trkpt lat="42.10412" lon="11.930725"><ele>375.0</ele><time>2026-04-18T10:29:10.058Z</time></trkpt><trkpt lat="42.1041331" lon="11.9308335"><ele>375.0</ele><time>2026-04-18T10:29:11.063Z</time></trkpt><trkpt lat="42.1041694" lon="11.9309429"><ele>375.0</ele><time>2026-04-18T10:29:12.061Z</time></trkpt><trkpt lat="42.1042241" lon="11.9310532"><ele>375.0</ele><time>2026-04-18T10:29:13.06Z</time></trkpt><trkpt lat="42.1042797" lon="11.9311698"><ele>375.0</ele><time>2026-04-18T10:29:14.059Z</time></trkpt><trkpt lat="42.104356" lon="11.9312892"><ele>373.25</ele><time>2026-04-18T10:29:15.055Z</time></trkpt><trkpt lat="42.1044346" lon="11.9314053"><ele>371.5</ele><time>2026-04-18T10:29:16.052Z</time></trkpt><trkpt lat="42.1045148" lon="11.9315089"><ele>369.75</ele><time>2026-04-18T10:29:17.053Z</time></trkpt><trkpt lat="42.1045947" lon="11.9316098"><ele>368.0</ele><time>2026-04-18T10:29:18.057Z</time></trkpt><trkpt lat="42.1046839" lon="11.9317184"><ele>366.79999999999995</ele><time>2026-04-18T10:29:19.061Z</time></trkpt><trkpt lat="42.1047776" lon="11.9318122"><ele>365.6</ele><time>2026-04-18T10:29:20.066Z</time></trkpt><trkpt lat="42.1048639" lon="11.9318943"><ele>364.4</ele><time>2026-04-18T10:29:21.057Z</time></trkpt><trkpt lat="42.1049502" lon="11.9319793"><ele>363.20000000000005</ele><time>2026-04-18T10:29:22.055Z</time></trkpt><trkpt lat="42.1050538" lon="11.9320434"><ele>362.0</ele><time>2026-04-18T10:29:23.054Z</time></trkpt><trkpt lat="42.1051623" lon="11.9320807"><ele>362.0</ele><time>2026-04-18T10:29:24.06Z</time></trkpt><trkpt lat="42.105289" lon="11.932102"><ele>362.0</ele><time>2026-04-18T10:29:25.061Z</time></trkpt><trkpt lat="42.1054317" lon="11.9321116"><ele>362.0</ele><time>2026-04-18T10:29:26.067Z</time></trkpt><trkpt lat="42.1055809" lon="11.9321197"><ele>362.0</ele><time>2026-04-18T10:29:27.053Z</time></trkpt><trkpt lat="42.1057421" lon="11.9321262"><ele>359.6666666666667</ele><time>2026-04-18T10:29:28.059Z</time></trkpt><trkpt lat="42.1059199" lon="11.9321261"><ele>357.3333333333333</ele><time>2026-04-18T10:29:29.055Z</time></trkpt><trkpt lat="42.1060972" lon="11.9321146"><ele>355.0</ele><time>2026-04-18T10:29:30.055Z</time></trkpt><trkpt lat="42.1062651" lon="11.9321076"><ele>355.0</ele><time>2026-04-18T10:29:31.048Z</time></trkpt><trkpt lat="42.1064314" lon="11.932118"><ele>355.0</ele><time>2026-04-18T10:29:32.055Z</time></trkpt><trkpt lat="42.1065966" lon="11.932136"><ele>355.0</ele><time>2026-04-18T10:29:33.059Z</time></trkpt><trkpt lat="42.1067615" lon="11.9321486"><ele>354.0</ele><time>2026-04-18T10:29:34.054Z</time></trkpt><trkpt lat="42.1069243" lon="11.9321672"><ele>353.0</ele><time>2026-04-18T10:29:35.05Z</time></trkpt><trkpt lat="42.1070735" lon="11.9322189"><ele>352.0</ele><time>2026-04-18T10:29:36.06Z</time></trkpt><trkpt lat="42.1072139" lon="11.9322958"><ele>352.0</ele><time>2026-04-18T10:29:37.066Z</time></trkpt><trkpt lat="42.1073522" lon="11.9323858"><ele>352.0</ele><time>2026-04-18T10:29:38.063Z</time></trkpt><trkpt lat="42.1074991" lon="11.9324976"><ele>352.0</ele><time>2026-04-18T10:29:39.063Z</time></trkpt><trkpt lat="42.1076448" lon="11.9326"><ele>353.5</ele><time>2026-04-18T10:29:40.06Z</time></trkpt><trkpt lat="42.1077833" lon="11.9326939"><ele>355.0</ele><time>2026-04-18T10:29:41.052Z</time></trkpt><trkpt lat="42.1079114" lon="11.9327854"><ele>356.5</ele><time>2026-04-18T10:29:42.051Z</time></trkpt><trkpt lat="42.1080232" lon="11.932862"><ele>358.0</ele><time>2026-04-18T10:29:43.058Z</time></trkpt><trkpt lat="42.1081231" lon="11.9329092"><ele>358.0</ele><time>2026-04-18T10:29:44.051Z</time></trkpt><trkpt lat="42.1082305" lon="11.9329052"><ele>358.0</ele><time>2026-04-18T10:29:45.05Z</time></trkpt><trkpt lat="42.1083382" lon="11.932917"><ele>358.0</ele><time>2026-04-18T10:29:46.048Z</time></trkpt><trkpt lat="42.1084465" lon="11.9328962"><ele>358.0</ele><time>2026-04-18T10:29:47.054Z</time></trkpt><trkpt lat="42.1085444" lon="11.932857"><ele>358.0</ele><time>2026-04-18T10:29:48.062Z</time></trkpt><trkpt lat="42.1086426" lon="11.9327729"><ele>361.0</ele><time>2026-04-18T10:29:49.055Z</time></trkpt><trkpt lat="42.1087409" lon="11.9326854"><ele>364.0</ele><time>2026-04-18T10:29:50.07Z</time></trkpt><trkpt lat="42.108853" lon="11.9325847"><ele>367.0</ele><time>2026-04-18T10:29:51.062Z</time></trkpt><trkpt lat="42.10898" lon="11.932499"><ele>370.0</ele><time>2026-04-18T10:29:52.049Z</time></trkpt><trkpt lat="42.1091001" lon="11.9324313"><ele>373.5</ele><time>2026-04-18T10:29:53.061Z</time></trkpt><trkpt lat="42.1092282" lon="11.9323511"><ele>377.0</ele><time>2026-04-18T10:29:54.053Z</time></trkpt><trkpt lat="42.109364" lon="11.9322488"><ele>380.5</ele><time>2026-04-18T10:29:55.055Z</time></trkpt><trkpt lat="42.1094896" lon="11.9321407"><ele>384.0</ele><time>2026-04-18T10:29:56.06Z</time></trkpt><trkpt lat="42.1096202" lon="11.9320418"><ele>384.0</ele><time>2026-04-18T10:29:57.065Z</time></trkpt><trkpt lat="42.1097514" lon="11.9319485"><ele>384.0</ele><time>2026-04-18T10:29:58.06Z</time></trkpt><trkpt lat="42.1098708" lon="11.9318713"><ele>384.0</ele><time>2026-04-18T10:29:59.055Z</time></trkpt><trkpt lat="42.1100116" lon="11.9318038"><ele>384.0</ele><time>2026-04-18T10:30:00.064Z</time></trkpt><trkpt lat="42.1101562" lon="11.9317625"><ele>386.0</ele><time>2026-04-18T10:30:01.059Z</time></trkpt><trkpt lat="42.1103159" lon="11.9317352"><ele>388.0</ele><time>2026-04-18T10:30:02.061Z</time></trkpt><trkpt lat="42.1104725" lon="11.9317065"><ele>390.0</ele><time>2026-04-18T10:30:03.06Z</time></trkpt><trkpt lat="42.1106187" lon="11.9316744"><ele>391.2</ele><time>2026-04-18T10:30:04.054Z</time></trkpt><trkpt lat="42.1107392" lon="11.9316407"><ele>392.4</ele><time>2026-04-18T10:30:05.06Z</time></trkpt><trkpt lat="42.1108471" lon="11.93162"><ele>393.6</ele><time>2026-04-18T10:30:06.059Z</time></trkpt><trkpt lat="42.1109436" lon="11.9316105"><ele>394.8</ele><time>2026-04-18T10:30:07.056Z</time></trkpt><trkpt lat="42.1110216" lon="11.9316234"><ele>396.0</ele><time>2026-04-18T10:30:08.054Z</time></trkpt><trkpt lat="42.1110908" lon="11.9316663"><ele>397.0</ele><time>2026-04-18T10:30:09.059Z</time></trkpt><trkpt lat="42.1111614" lon="11.9317359"><ele>398.0</ele><time>2026-04-18T10:30:10.058Z</time></trkpt><trkpt lat="42.1112302" lon="11.9318176"><ele>399.0</ele><time>2026-04-18T10:30:11.055Z</time></trkpt><trkpt lat="42.1112888" lon="11.9319365"><ele>400.0</ele><time>2026-04-18T10:30:12.056Z</time></trkpt><trkpt lat="42.1113429" lon="11.9320645"><ele>401.0</ele><time>2026-04-18T10:30:13.051Z</time></trkpt><trkpt lat="42.1114025" lon="11.9321998"><ele>401.0</ele><time>2026-04-18T10:30:14.055Z</time></trkpt><trkpt lat="42.111465" lon="11.9323133"><ele>401.0</ele><time>2026-04-18T10:30:15.051Z</time></trkpt><trkpt lat="42.1115323" lon="11.9323975"><ele>401.0</ele><time>2026-04-18T10:30:16.059Z</time></trkpt><trkpt lat="42.1116029" lon="11.9324572"><ele>401.0</ele><time>2026-04-18T10:30:17.056Z</time></trkpt><trkpt lat="42.1116863" lon="11.932476"><ele>401.0</ele><time>2026-04-18T10:30:18.056Z</time></trkpt><trkpt lat="42.1117746" lon="11.9324645"><ele>404.5</ele><time>2026-04-18T10:30:19.056Z</time></trkpt><trkpt lat="42.1118685" lon="11.9324188"><ele>408.0</ele><time>2026-04-18T10:30:20.054Z</time></trkpt><trkpt lat="42.1119699" lon="11.9323516"><ele>411.5</ele><time>2026-04-18T10:30:21.05Z</time></trkpt><trkpt lat="42.1120755" lon="11.9322848"><ele>415.0</ele><time>2026-04-18T10:30:22.051Z</time></trkpt><trkpt lat="42.1121878" lon="11.9322208"><ele>415.0</ele><time>2026-04-18T10:30:23.05Z</time></trkpt><trkpt lat="42.1122898" lon="11.9321494"><ele>415.0</ele><time>2026-04-18T10:30:24.059Z</time></trkpt><trkpt lat="42.1123759" lon="11.9320875"><ele>415.0</ele><time>2026-04-18T10:30:25.051Z</time></trkpt><trkpt lat="42.1124689" lon="11.9320904"><ele>415.0</ele><time>2026-04-18T10:30:26.057Z</time></trkpt><trkpt lat="42.1125641" lon="11.9321144"><ele>415.0</ele><time>2026-04-18T10:30:27.054Z</time></trkpt><trkpt lat="42.1126656" lon="11.9321911"><ele>416.33333333333337</ele><time>2026-04-18T10:30:28.059Z</time></trkpt><trkpt lat="42.1127484" lon="11.9322736"><ele>417.6666666666667</ele><time>2026-04-18T10:30:29.057Z</time></trkpt><trkpt lat="42.1128183" lon="11.9323355"><ele>419.0</ele><time>2026-04-18T10:30:30.059Z</time></trkpt><trkpt lat="42.1129031" lon="11.9324256"><ele>420.33333333333337</ele><time>2026-04-18T10:30:32.057Z</time></trkpt><trkpt lat="42.1129364" lon="11.932501"><ele>421.6666666666667</ele><time>2026-04-18T10:30:34.067Z</time></trkpt><trkpt lat="42.1129638" lon="11.9325881"><ele>423.0</ele><time>2026-04-18T10:30:37.064Z</time></trkpt><trkpt lat="42.1129488" lon="11.9327291"><ele>423.0</ele><time>2026-04-18T10:30:43.07Z</time></trkpt><trkpt lat="42.1129208" lon="11.9328617"><ele>423.0</ele><time>2026-04-18T10:30:46.055Z</time></trkpt><trkpt lat="42.1128865" lon="11.9330286"><ele>423.0</ele><time>2026-04-18T10:30:48.064Z</time></trkpt><trkpt lat="42.1128695" lon="11.9331208"><ele>423.0</ele><time>2026-04-18T10:30:49.055Z</time></trkpt><trkpt lat="42.1128515" lon="11.9332203"><ele>423.0</ele><time>2026-04-18T10:30:50.06Z</time></trkpt><trkpt lat="42.1128355" lon="11.9333166"><ele>423.2</ele><time>2026-04-18T10:30:51.057Z</time></trkpt><trkpt lat="42.1128208" lon="11.9334081"><ele>423.4</ele><time>2026-04-18T10:30:52.074Z</time></trkpt><trkpt lat="42.1127942" lon="11.9335105"><ele>423.59999999999997</ele><time>2026-04-18T10:30:53.054Z</time></trkpt><trkpt lat="42.1127676" lon="11.9336372"><ele>423.79999999999995</ele><time>2026-04-18T10:30:54.055Z</time></trkpt><trkpt lat="42.1127442" lon="11.9337869"><ele>424.0</ele><time>2026-04-18T10:30:55.053Z</time></trkpt><trkpt lat="42.1127192" lon="11.9339476"><ele>424.0</ele><time>2026-04-18T10:30:56.058Z</time></trkpt><trkpt lat="42.112687" lon="11.9341014"><ele>424.0</ele><time>2026-04-18T10:30:57.054Z</time></trkpt><trkpt lat="42.112657" lon="11.9342502"><ele>424.0</ele><time>2026-04-18T10:30:58.054Z</time></trkpt><trkpt lat="42.1126312" lon="11.9344025"><ele>424.0</ele><time>2026-04-18T10:30:59.052Z</time></trkpt><trkpt lat="42.1125971" lon="11.9345606"><ele>422.75</ele><time>2026-04-18T10:31:00.058Z</time></trkpt><trkpt lat="42.1125769" lon="11.9347141"><ele>421.5</ele><time>2026-04-18T10:31:01.066Z</time></trkpt><trkpt lat="42.1125401" lon="11.9349006"><ele>420.25</ele><time>2026-04-18T10:31:02.056Z</time></trkpt><trkpt lat="42.1125066" lon="11.9351039"><ele>419.0</ele><time>2026-04-18T10:31:03.061Z</time></trkpt><trkpt lat="42.1124654" lon="11.9353358"><ele>417.3333333333333</ele><time>2026-04-18T10:31:04.056Z</time></trkpt><trkpt lat="42.1124234" lon="11.935579"><ele>415.66666666666663</ele><time>2026-04-18T10:31:05.06Z</time></trkpt><trkpt lat="42.1123797" lon="11.935845"><ele>414.0</ele><time>2026-04-18T10:31:06.053Z</time></trkpt><trkpt lat="42.1123319" lon="11.936092"><ele>409.33333333333337</ele><time>2026-04-18T10:31:07.057Z</time></trkpt><trkpt lat="42.1122888" lon="11.9363243"><ele>404.6666666666667</ele><time>2026-04-18T10:31:08.054Z</time></trkpt><trkpt lat="42.1122488" lon="11.9365533"><ele>400.0</ele><time>2026-04-18T10:31:09.056Z</time></trkpt><trkpt lat="42.1122091" lon="11.9367658"><ele>399.75</ele><time>2026-04-18T10:31:10.07Z</time></trkpt><trkpt lat="42.1121773" lon="11.9369613"><ele>399.5</ele><time>2026-04-18T10:31:11.058Z</time></trkpt><trkpt lat="42.112156" lon="11.9371469"><ele>399.25</ele><time>2026-04-18T10:31:12.06Z</time></trkpt><trkpt lat="42.1121403" lon="11.9373326"><ele>399.0</ele><time>2026-04-18T10:31:13.051Z</time></trkpt><trkpt lat="42.1121394" lon="11.9375288"><ele>398.5</ele><time>2026-04-18T10:31:14.06Z</time></trkpt><trkpt lat="42.1121567" lon="11.9377209"><ele>398.0</ele><time>2026-04-18T10:31:15.055Z</time></trkpt><trkpt lat="42.112184" lon="11.9379151"><ele>397.5</ele><time>2026-04-18T10:31:16.061Z</time></trkpt><trkpt lat="42.1122168" lon="11.9380933"><ele>397.0</ele><time>2026-04-18T10:31:17.061Z</time></trkpt><trkpt lat="42.1122457" lon="11.938242"><ele>396.75</ele><time>2026-04-18T10:31:18.056Z</time></trkpt><trkpt lat="42.1122885" lon="11.938398"><ele>396.5</ele><time>2026-04-18T10:31:19.052Z</time></trkpt><trkpt lat="42.1123391" lon="11.9385347"><ele>396.25</ele><time>2026-04-18T10:31:20.058Z</time></trkpt><trkpt lat="42.1124092" lon="11.9386569"><ele>396.0</ele><time>2026-04-18T10:31:21.059Z</time></trkpt><trkpt lat="42.1125017" lon="11.9387737"><ele>397.0</ele><time>2026-04-18T10:31:22.055Z</time></trkpt><trkpt lat="42.1126182" lon="11.9388683"><ele>398.0</ele><time>2026-04-18T10:31:23.053Z</time></trkpt><trkpt lat="42.1127497" lon="11.9389582"><ele>399.0</ele><time>2026-04-18T10:31:24.056Z</time></trkpt><trkpt lat="42.1128818" lon="11.9390442"><ele>400.0</ele><time>2026-04-18T10:31:25.059Z</time></trkpt><trkpt lat="42.1130211" lon="11.939117"><ele>400.0</ele><time>2026-04-18T10:31:26.063Z</time></trkpt><trkpt lat="42.1131418" lon="11.9391949"><ele>400.0</ele><time>2026-04-18T10:31:27.067Z</time></trkpt><trkpt lat="42.1132391" lon="11.939278"><ele>400.0</ele><time>2026-04-18T10:31:28.053Z</time></trkpt><trkpt lat="42.113331" lon="11.9393526"><ele>400.0</ele><time>2026-04-18T10:31:29.071Z</time></trkpt><trkpt lat="42.1134193" lon="11.9394265"><ele>399.2</ele><time>2026-04-18T10:31:30.061Z</time></trkpt><trkpt lat="42.1135168" lon="11.9394731"><ele>398.4</ele><time>2026-04-18T10:31:31.066Z</time></trkpt><trkpt lat="42.1136171" lon="11.9394769"><ele>397.6</ele><time>2026-04-18T10:31:32.06Z</time></trkpt><trkpt lat="42.1137138" lon="11.9394809"><ele>396.8</ele><time>2026-04-18T10:31:33.059Z</time></trkpt><trkpt lat="42.1137891" lon="11.9394943"><ele>396.0</ele><time>2026-04-18T10:31:34.056Z</time></trkpt><trkpt lat="42.1138956" lon="11.9395429"><ele>396.0</ele><time>2026-04-18T10:31:36.058Z</time></trkpt><trkpt lat="42.1139294" lon="11.9396313"><ele>396.0</ele><time>2026-04-18T10:31:37.052Z</time></trkpt><trkpt lat="42.1139587" lon="11.9397327"><ele>396.0</ele><time>2026-04-18T10:31:38.058Z</time></trkpt><trkpt lat="42.1139896" lon="11.9398437"><ele>396.0</ele><time>2026-04-18T10:31:39.058Z</time></trkpt><trkpt lat="42.1140259" lon="11.9399593"><ele>396.0</ele><time>2026-04-18T10:31:40.056Z</time></trkpt><trkpt lat="42.1140449" lon="11.9400898"><ele>396.0</ele><time>2026-04-18T10:31:41.054Z</time></trkpt><trkpt lat="42.1140608" lon="11.9402006"><ele>397.5</ele><time>2026-04-18T10:31:42.051Z</time></trkpt><trkpt lat="42.1140811" lon="11.9403088"><ele>399.0</ele><time>2026-04-18T10:31:43.054Z</time></trkpt><trkpt lat="42.1141086" lon="11.9404031"><ele>400.5</ele><time>2026-04-18T10:31:44.052Z</time></trkpt><trkpt lat="42.1141536" lon="11.9404887"><ele>402.0</ele><time>2026-04-18T10:31:45.057Z</time></trkpt><trkpt lat="42.1142033" lon="11.9405898"><ele>403.5</ele><time>2026-04-18T10:31:46.061Z</time></trkpt><trkpt lat="42.1142469" lon="11.9407025"><ele>405.0</ele><time>2026-04-18T10:31:47.054Z</time></trkpt><trkpt lat="42.1142911" lon="11.9408068"><ele>404.8</ele><time>2026-04-18T10:31:48.063Z</time></trkpt><trkpt lat="42.1143282" lon="11.9409192"><ele>404.6</ele><time>2026-04-18T10:31:49.06Z</time></trkpt><trkpt lat="42.1143557" lon="11.9410451"><ele>404.4</ele><time>2026-04-18T10:31:50.051Z</time></trkpt><trkpt lat="42.1143737" lon="11.941193"><ele>404.2</ele><time>2026-04-18T10:31:51.056Z</time></trkpt><trkpt lat="42.1143867" lon="11.9413439"><ele>404.0</ele><time>2026-04-18T10:31:52.052Z</time></trkpt><trkpt lat="42.1143948" lon="11.9415021"><ele>404.0</ele><time>2026-04-18T10:31:53.051Z</time></trkpt><trkpt lat="42.1144052" lon="11.9416581"><ele>404.0</ele><time>2026-04-18T10:31:54.064Z</time></trkpt><trkpt lat="42.1143855" lon="11.9418026"><ele>404.0</ele><time>2026-04-18T10:31:55.061Z</time></trkpt><trkpt lat="42.1143616" lon="11.9419315"><ele>404.0</ele><time>2026-04-18T10:31:56.054Z</time></trkpt><trkpt lat="42.1143264" lon="11.942018"><ele>404.0</ele><time>2026-04-18T10:31:57.062Z</time></trkpt><trkpt lat="42.1142778" lon="11.9421553"><ele>404.4</ele><time>2026-04-18T10:31:59.055Z</time></trkpt><trkpt lat="42.1142642" lon="11.9422777"><ele>404.79999999999995</ele><time>2026-04-18T10:32:01.064Z</time></trkpt><trkpt lat="42.114306" lon="11.9423682"><ele>405.20000000000005</ele><time>2026-04-18T10:32:03.055Z</time></trkpt><trkpt lat="42.1143493" lon="11.942443"><ele>405.6</ele><time>2026-04-18T10:32:27.06Z</time></trkpt><trkpt lat="42.114402" lon="11.9425115"><ele>406.0</ele><time>2026-04-18T10:32:29.057Z</time></trkpt><trkpt lat="42.1144804" lon="11.9426695"><ele>404.6</ele><time>2026-04-18T10:32:38.064Z</time></trkpt><trkpt lat="42.1144414" lon="11.9428256"><ele>403.20000000000005</ele><time>2026-04-18T10:32:46.061Z</time></trkpt><trkpt lat="42.114415" lon="11.9429679"><ele>401.79999999999995</ele><time>2026-04-18T10:33:09.061Z</time></trkpt><trkpt lat="42.1144401" lon="11.9428825"><ele>400.4</ele><time>2026-04-18T10:36:39.065Z</time></trkpt><trkpt lat="42.1144758" lon="11.9427726"><ele>399.0</ele><time>2026-04-18T10:36:45.056Z</time></trkpt><trkpt lat="42.1144932" lon="11.9426374"><ele>400.1666666666667</ele><time>2026-04-18T10:36:47.064Z</time></trkpt><trkpt lat="42.1144554" lon="11.9425223"><ele>401.33333333333337</ele><time>2026-04-18T10:36:49.063Z</time></trkpt><trkpt lat="42.1143734" lon="11.9424428"><ele>402.5</ele><time>2026-04-18T10:36:51.058Z</time></trkpt><trkpt lat="42.1143367" lon="11.9423319"><ele>403.6666666666667</ele><time>2026-04-18T10:36:53.064Z</time></trkpt><trkpt lat="42.1143385" lon="11.9422465"><ele>404.83333333333337</ele><time>2026-04-18T10:36:55.052Z</time></trkpt><trkpt lat="42.1143094" lon="11.9423467"><ele>406.0</ele><time>2026-04-18T10:37:01.077Z</time></trkpt><trkpt lat="42.1143495" lon="11.9424447"><ele>406.0</ele><time>2026-04-18T10:37:04.063Z</time></trkpt><trkpt lat="42.1143968" lon="11.9425038"><ele>406.0</ele><time>2026-04-18T10:37:06.065Z</time></trkpt><trkpt lat="42.1144455" lon="11.9425583"><ele>406.0</ele><time>2026-04-18T10:37:08.067Z</time></trkpt><trkpt lat="42.1145051" lon="11.9426155"><ele>406.0</ele><time>2026-04-18T10:38:16.064Z</time></trkpt><trkpt lat="42.1145696" lon="11.9426604"><ele>406.0</ele><time>2026-04-18T10:38:20.057Z</time></trkpt><trkpt lat="42.1146415" lon="11.9426898"><ele>406.0</ele><time>2026-04-18T10:38:23.075Z</time></trkpt><trkpt lat="42.1147084" lon="11.9427145"><ele>406.0</ele><time>2026-04-18T10:38:26.069Z</time></trkpt><trkpt lat="42.1147675" lon="11.9427444"><ele>405.0</ele><time>2026-04-18T10:38:29.069Z</time></trkpt><trkpt lat="42.1148076" lon="11.9428127"><ele>404.0</ele><time>2026-04-18T10:38:32.067Z</time></trkpt><trkpt lat="42.1147993" lon="11.9429317"><ele>403.0</ele><time>2026-04-18T10:38:36.064Z</time></trkpt><trkpt lat="42.1147656" lon="11.9430242"><ele>402.0</ele><time>2026-04-18T10:38:39.058Z</time></trkpt><trkpt lat="42.1147486" lon="11.9431185"><ele>401.0</ele><time>2026-04-18T10:39:22.057Z</time></trkpt><trkpt lat="42.1147448" lon="11.9432076"><ele>400.0</ele><time>2026-04-18T10:39:25.059Z</time></trkpt><trkpt lat="42.114736" lon="11.9432924"><ele>399.0</ele><time>2026-04-18T10:39:27.061Z</time></trkpt><trkpt lat="42.1147242" lon="11.9433892"><ele>397.0</ele><time>2026-04-18T10:39:29.058Z</time></trkpt><trkpt lat="42.1147069" lon="11.9434853"><ele>395.0</ele><time>2026-04-18T10:39:31.059Z</time></trkpt><trkpt lat="42.1146751" lon="11.9435844"><ele>393.0</ele><time>2026-04-18T10:39:33.056Z</time></trkpt><trkpt lat="42.114631" lon="11.9436695"><ele>391.0</ele><time>2026-04-18T10:39:35.076Z</time></trkpt><trkpt lat="42.1145898" lon="11.9437426"><ele>389.0</ele><time>2026-04-18T10:39:37.057Z</time></trkpt><trkpt lat="42.1145512" lon="11.9438382"><ele>387.0</ele><time>2026-04-18T10:39:39.056Z</time></trkpt><trkpt lat="42.1145329" lon="11.9439373"><ele>387.0</ele><time>2026-04-18T10:39:41.061Z</time></trkpt><trkpt lat="42.1145298" lon="11.944041"><ele>387.0</ele><time>2026-04-18T10:39:43.059Z</time></trkpt><trkpt lat="42.1145383" lon="11.9441699"><ele>387.0</ele><time>2026-04-18T10:39:45.059Z</time></trkpt><trkpt lat="42.1145269" lon="11.9442933"><ele>387.0</ele><time>2026-04-18T10:39:47.055Z</time></trkpt><trkpt lat="42.1145258" lon="11.9444018"><ele>387.0</ele><time>2026-04-18T10:39:49.052Z</time></trkpt><trkpt lat="42.1145254" lon="11.9445136"><ele>387.0</ele><time>2026-04-18T10:39:51.058Z</time></trkpt><trkpt lat="42.1145131" lon="11.9446499"><ele>384.8333333333333</ele><time>2026-04-18T10:39:53.054Z</time></trkpt><trkpt lat="42.1144938" lon="11.9447712"><ele>382.6666666666667</ele><time>2026-04-18T10:39:55.052Z</time></trkpt><trkpt lat="42.1145062" lon="11.9448854"><ele>380.5</ele><time>2026-04-18T10:39:57.057Z</time></trkpt><trkpt lat="42.1145618" lon="11.9449464"><ele>378.33333333333337</ele><time>2026-04-18T10:39:59.052Z</time></trkpt><trkpt lat="42.114635" lon="11.9449148"><ele>376.1666666666667</ele><time>2026-04-18T10:40:01.053Z</time></trkpt><trkpt lat="42.1146982" lon="11.9448498"><ele>374.0</ele><time>2026-04-18T10:40:03.049Z</time></trkpt><trkpt lat="42.1147525" lon="11.9449016"><ele>374.0</ele><time>2026-04-18T10:40:06.056Z</time></trkpt><trkpt lat="42.1147706" lon="11.9450218"><ele>374.0</ele><time>2026-04-18T10:40:09.048Z</time></trkpt><trkpt lat="42.1147269" lon="11.9451353"><ele>374.0</ele><time>2026-04-18T10:40:11.052Z</time></trkpt><trkpt lat="42.1147094" lon="11.9452271"><ele>374.0</ele><time>2026-04-18T10:40:12.057Z</time></trkpt><trkpt lat="42.1146959" lon="11.9453983"><ele>374.0</ele><time>2026-04-18T10:40:14.056Z</time></trkpt><trkpt lat="42.1146943" lon="11.9454994"><ele>372.1666666666667</ele><time>2026-04-18T10:40:15.058Z</time></trkpt><trkpt lat="42.1146905" lon="11.945605"><ele>370.33333333333337</ele><time>2026-04-18T10:40:16.051Z</time></trkpt><trkpt lat="42.114678" lon="11.9456954"><ele>368.5</ele><time>2026-04-18T10:40:17.058Z</time></trkpt><trkpt lat="42.114665" lon="11.9457946"><ele>366.6666666666667</ele><time>2026-04-18T10:40:19.064Z</time></trkpt><trkpt lat="42.1146458" lon="11.9459089"><ele>364.8333333333333</ele><time>2026-04-18T10:44:44.054Z</time></trkpt><trkpt lat="42.114624" lon="11.9460033"><ele>363.0</ele><time>2026-04-18T10:44:47.063Z</time></trkpt><trkpt lat="42.1146171" lon="11.9461402"><ele>362.1666666666667</ele><time>2026-04-18T10:44:50.065Z</time></trkpt><trkpt lat="42.1146175" lon="11.9462608"><ele>361.3333333333333</ele><time>2026-04-18T10:44:52.068Z</time></trkpt><trkpt lat="42.1146467" lon="11.9463945"><ele>360.5</ele><time>2026-04-18T10:44:54.058Z</time></trkpt><trkpt lat="42.1146747" lon="11.9464748"><ele>359.66666666666663</ele><time>2026-04-18T10:44:55.058Z</time></trkpt><trkpt lat="42.1147107" lon="11.946556"><ele>358.8333333333333</ele><time>2026-04-18T10:44:56.065Z</time></trkpt><trkpt lat="42.114749" lon="11.946637"><ele>358.0</ele><time>2026-04-18T10:44:57.061Z</time></trkpt><trkpt lat="42.114785" lon="11.9467125"><ele>358.0</ele><time>2026-04-18T10:44:58.055Z</time></trkpt><trkpt lat="42.1148204" lon="11.9467909"><ele>358.0</ele><time>2026-04-18T10:44:59.059Z</time></trkpt><trkpt lat="42.1148902" lon="11.9469093"><ele>358.0</ele><time>2026-04-18T10:45:01.063Z</time></trkpt><trkpt lat="42.1149627" lon="11.9470132"><ele>358.0</ele><time>2026-04-18T10:45:03.075Z</time></trkpt><trkpt lat="42.1149845" lon="11.9471362"><ele>358.0</ele><time>2026-04-18T10:45:05.06Z</time></trkpt><trkpt lat="42.1150138" lon="11.9472751"><ele>359.8333333333333</ele><time>2026-04-18T10:45:07.062Z</time></trkpt><trkpt lat="42.1150444" lon="11.9473743"><ele>361.66666666666663</ele><time>2026-04-18T10:45:09.061Z</time></trkpt><trkpt lat="42.1150737" lon="11.9474671"><ele>363.5</ele><time>2026-04-18T10:45:17.055Z</time></trkpt><trkpt lat="42.115151" lon="11.9475824"><ele>365.3333333333333</ele><time>2026-04-18T10:45:19.057Z</time></trkpt><trkpt lat="42.1151994" lon="11.9476402"><ele>367.1666666666667</ele><time>2026-04-18T10:45:20.062Z</time></trkpt><trkpt lat="42.1152588" lon="11.94776"><ele>369.0</ele><time>2026-04-18T10:45:22.053Z</time></trkpt><trkpt lat="42.1152898" lon="11.9478639"><ele>369.0</ele><time>2026-04-18T10:45:23.068Z</time></trkpt><trkpt lat="42.1153252" lon="11.9479982"><ele>369.0</ele><time>2026-04-18T10:45:24.053Z</time></trkpt><trkpt lat="42.1153599" lon="11.9481218"><ele>369.0</ele><time>2026-04-18T10:45:25.055Z</time></trkpt><trkpt lat="42.1154005" lon="11.9482253"><ele>369.0</ele><time>2026-04-18T10:45:26.059Z</time></trkpt><trkpt lat="42.1154409" lon="11.9483134"><ele>369.0</ele><time>2026-04-18T10:45:27.059Z</time></trkpt><trkpt lat="42.1154747" lon="11.9483895"><ele>369.0</ele><time>2026-04-18T10:45:28.064Z</time></trkpt><trkpt lat="42.1155416" lon="11.9485302"><ele>368.0</ele><time>2026-04-18T10:45:30.058Z</time></trkpt><trkpt lat="42.1155778" lon="11.9486637"><ele>367.0</ele><time>2026-04-18T10:45:32.055Z</time></trkpt><trkpt lat="42.1155944" lon="11.9487462"><ele>366.0</ele><time>2026-04-18T10:45:33.056Z</time></trkpt><trkpt lat="42.1156163" lon="11.9488289"><ele>365.0</ele><time>2026-04-18T10:45:34.057Z</time></trkpt><trkpt lat="42.1156492" lon="11.9489864"><ele>364.0</ele><time>2026-04-18T10:45:36.055Z</time></trkpt><trkpt lat="42.1156648" lon="11.9491522"><ele>362.3333333333333</ele><time>2026-04-18T10:45:38.062Z</time></trkpt><trkpt lat="42.1156715" lon="11.9492507"><ele>360.66666666666663</ele><time>2026-04-18T10:45:39.054Z</time></trkpt><trkpt lat="42.1156593" lon="11.949404"><ele>359.0</ele><time>2026-04-18T10:45:41.057Z</time></trkpt><trkpt lat="42.1156324" lon="11.9495592"><ele>357.3333333333333</ele><time>2026-04-18T10:45:43.059Z</time></trkpt><trkpt lat="42.1156159" lon="11.9496481"><ele>355.6666666666667</ele><time>2026-04-18T10:45:44.052Z</time></trkpt><trkpt lat="42.1155991" lon="11.9497439"><ele>354.0</ele><time>2026-04-18T10:45:45.056Z</time></trkpt><trkpt lat="42.1155829" lon="11.9498414"><ele>354.0</ele><time>2026-04-18T10:45:46.061Z</time></trkpt><trkpt lat="42.115562" lon="11.9499299"><ele>354.0</ele><time>2026-04-18T10:45:47.051Z</time></trkpt><trkpt lat="42.1155348" lon="11.9500257"><ele>354.0</ele><time>2026-04-18T10:45:48.052Z</time></trkpt><trkpt lat="42.1155209" lon="11.9501147"><ele>354.0</ele><time>2026-04-18T10:45:49.058Z</time></trkpt><trkpt lat="42.1155659" lon="11.9502484"><ele>354.0</ele><time>2026-04-18T10:45:51.057Z</time></trkpt><trkpt lat="42.1156862" lon="11.9503288"><ele>354.8333333333333</ele><time>2026-04-18T10:45:53.061Z</time></trkpt><trkpt lat="42.115767" lon="11.9503456"><ele>355.6666666666667</ele><time>2026-04-18T10:45:54.061Z</time></trkpt><trkpt lat="42.1158576" lon="11.9503716"><ele>356.5</ele><time>2026-04-18T10:45:55.055Z</time></trkpt><trkpt lat="42.1159439" lon="11.95041"><ele>357.33333333333337</ele><time>2026-04-18T10:45:56.062Z</time></trkpt><trkpt lat="42.1160311" lon="11.9504491"><ele>358.1666666666667</ele><time>2026-04-18T10:45:57.053Z</time></trkpt><trkpt lat="42.1161079" lon="11.9504702"><ele>359.0</ele><time>2026-04-18T10:45:58.058Z</time></trkpt><trkpt lat="42.1161848" lon="11.9504763"><ele>359.0</ele><time>2026-04-18T10:45:59.061Z</time></trkpt><trkpt lat="42.116267" lon="11.9504685"><ele>359.0</ele><time>2026-04-18T10:46:00.062Z</time></trkpt><trkpt lat="42.1163542" lon="11.9504626"><ele>359.0</ele><time>2026-04-18T10:46:01.062Z</time></trkpt><trkpt lat="42.1164335" lon="11.9504643"><ele>359.0</ele><time>2026-04-18T10:46:02.056Z</time></trkpt><trkpt lat="42.1165139" lon="11.9504768"><ele>359.0</ele><time>2026-04-18T10:46:03.054Z</time></trkpt><trkpt lat="42.1165922" lon="11.9504906"><ele>359.0</ele><time>2026-04-18T10:46:04.058Z</time></trkpt><trkpt lat="42.1166603" lon="11.9505091"><ele>359.1666666666667</ele><time>2026-04-18T10:46:05.055Z</time></trkpt><trkpt lat="42.1167362" lon="11.9505264"><ele>359.33333333333337</ele><time>2026-04-18T10:46:06.058Z</time></trkpt><trkpt lat="42.1168134" lon="11.950555"><ele>359.5</ele><time>2026-04-18T10:46:07.058Z</time></trkpt><trkpt lat="42.1168919" lon="11.9505847"><ele>359.6666666666667</ele><time>2026-04-18T10:46:08.055Z</time></trkpt><trkpt lat="42.116972" lon="11.9506159"><ele>359.8333333333333</ele><time>2026-04-18T10:46:09.061Z</time></trkpt><trkpt lat="42.1170471" lon="11.9506128"><ele>360.0</ele><time>2026-04-18T10:46:10.068Z</time></trkpt><trkpt lat="42.1171223" lon="11.9506127"><ele>360.0</ele><time>2026-04-18T10:46:11.061Z</time></trkpt><trkpt lat="42.1171992" lon="11.9506396"><ele>360.0</ele><time>2026-04-18T10:46:12.065Z</time></trkpt><trkpt lat="42.1172576" lon="11.9506728"><ele>360.0</ele><time>2026-04-18T10:46:13.055Z</time></trkpt><trkpt lat="42.1173702" lon="11.950711"><ele>360.0</ele><time>2026-04-18T10:46:15.055Z</time></trkpt><trkpt lat="42.1174357" lon="11.9507276"><ele>360.0</ele><time>2026-04-18T10:46:16.056Z</time></trkpt><trkpt lat="42.1175351" lon="11.9507739"><ele>360.0</ele><time>2026-04-18T10:46:18.056Z</time></trkpt><trkpt lat="42.1176042" lon="11.9508653"><ele>359.8333333333333</ele><time>2026-04-18T10:46:20.051Z</time></trkpt><trkpt lat="42.1176078" lon="11.9510172"><ele>359.6666666666667</ele><time>2026-04-18T10:46:22.067Z</time></trkpt><trkpt lat="42.1175948" lon="11.9511195"><ele>359.5</ele><time>2026-04-18T10:46:23.055Z</time></trkpt><trkpt lat="42.1176039" lon="11.9512331"><ele>359.33333333333337</ele><time>2026-04-18T10:46:24.06Z</time></trkpt><trkpt lat="42.1176085" lon="11.9513341"><ele>359.1666666666667</ele><time>2026-04-18T10:46:25.064Z</time></trkpt><trkpt lat="42.1176131" lon="11.9514302"><ele>359.0</ele><time>2026-04-18T10:46:26.059Z</time></trkpt><trkpt lat="42.117649" lon="11.9515236"><ele>359.0</ele><time>2026-04-18T10:46:28.064Z</time></trkpt><trkpt lat="42.117749" lon="11.951588"><ele>359.0</ele><time>2026-04-18T10:46:30.055Z</time></trkpt><trkpt lat="42.1178177" lon="11.9516297"><ele>359.0</ele><time>2026-04-18T10:46:31.054Z</time></trkpt><trkpt lat="42.1178989" lon="11.9516647"><ele>359.0</ele><time>2026-04-18T10:46:32.059Z</time></trkpt><trkpt lat="42.1179773" lon="11.95169"><ele>359.0</ele><time>2026-04-18T10:46:33.071Z</time></trkpt><trkpt lat="42.118058" lon="11.9517141"><ele>359.0</ele><time>2026-04-18T10:46:34.057Z</time></trkpt><trkpt lat="42.118144" lon="11.9517193"><ele>359.2</ele><time>2026-04-18T10:46:35.052Z</time></trkpt><trkpt lat="42.1182288" lon="11.9517393"><ele>359.4</ele><time>2026-04-18T10:46:36.051Z</time></trkpt><trkpt lat="42.1183032" lon="11.9517715"><ele>359.6</ele><time>2026-04-18T10:46:37.051Z</time></trkpt><trkpt lat="42.1184155" lon="11.9518195"><ele>359.8</ele><time>2026-04-18T10:46:39.057Z</time></trkpt><trkpt lat="42.1184769" lon="11.9518545"><ele>360.0</ele><time>2026-04-18T10:46:40.06Z</time></trkpt><trkpt lat="42.1185867" lon="11.9519231"><ele>360.0</ele><time>2026-04-18T10:46:42.057Z</time></trkpt><trkpt lat="42.1186468" lon="11.951965"><ele>360.0</ele><time>2026-04-18T10:46:43.056Z</time></trkpt><trkpt lat="42.1187074" lon="11.9520119"><ele>360.0</ele><time>2026-04-18T10:46:44.052Z</time></trkpt><trkpt lat="42.1187851" lon="11.9520771"><ele>360.0</ele><time>2026-04-18T10:46:45.048Z</time></trkpt><trkpt lat="42.1188524" lon="11.9521872"><ele>360.0</ele><time>2026-04-18T10:46:46.057Z</time></trkpt><trkpt lat="42.1189177" lon="11.9522967"><ele>360.0</ele><time>2026-04-18T10:46:47.058Z</time></trkpt><trkpt lat="42.1189698" lon="11.9524076"><ele>360.0</ele><time>2026-04-18T10:46:48.051Z</time></trkpt><trkpt lat="42.1190055" lon="11.9525106"><ele>360.0</ele><time>2026-04-18T10:46:49.055Z</time></trkpt><trkpt lat="42.1190511" lon="11.9526099"><ele>360.0</ele><time>2026-04-18T10:46:50.051Z</time></trkpt><trkpt lat="42.1190908" lon="11.9527033"><ele>360.0</ele><time>2026-04-18T10:46:51.054Z</time></trkpt><trkpt lat="42.1191144" lon="11.952793"><ele>360.0</ele><time>2026-04-18T10:46:52.057Z</time></trkpt><trkpt lat="42.1191302" lon="11.9529342"><ele>360.0</ele><time>2026-04-18T10:46:54.049Z</time></trkpt><trkpt lat="42.1190651" lon="11.95304"><ele>360.0</ele><time>2026-04-18T10:46:56.052Z</time></trkpt><trkpt lat="42.1190095" lon="11.9530956"><ele>360.0</ele><time>2026-04-18T10:46:57.056Z</time></trkpt><trkpt lat="42.1189502" lon="11.9531467"><ele>360.0</ele><time>2026-04-18T10:46:58.058Z</time></trkpt><trkpt lat="42.1188289" lon="11.953218"><ele>360.0</ele><time>2026-04-18T10:47:00.067Z</time></trkpt><trkpt lat="42.1186897" lon="11.9532576"><ele>360.0</ele><time>2026-04-18T10:47:02.05Z</time></trkpt><trkpt lat="42.1185981" lon="11.9532643"><ele>360.0</ele><time>2026-04-18T10:47:03.064Z</time></trkpt><trkpt lat="42.1185215" lon="11.9532973"><ele>360.0</ele><time>2026-04-18T10:47:04.064Z</time></trkpt><trkpt lat="42.1184549" lon="11.9533308"><ele>360.0</ele><time>2026-04-18T10:47:05.064Z</time></trkpt><trkpt lat="42.1183838" lon="11.9533733"><ele>360.0</ele><time>2026-04-18T10:47:06.066Z</time></trkpt><trkpt lat="42.1183176" lon="11.9534234"><ele>360.0</ele><time>2026-04-18T10:47:07.057Z</time></trkpt><trkpt lat="42.1182549" lon="11.9534905"><ele>360.0</ele><time>2026-04-18T10:47:08.064Z</time></trkpt><trkpt lat="42.1182053" lon="11.9535668"><ele>360.4285714285714</ele><time>2026-04-18T10:47:09.048Z</time></trkpt><trkpt lat="42.1181798" lon="11.9536581"><ele>360.8571428571429</ele><time>2026-04-18T10:47:10.051Z</time></trkpt><trkpt lat="42.1181678" lon="11.9537664"><ele>361.2857142857143</ele><time>2026-04-18T10:47:11.063Z</time></trkpt><trkpt lat="42.1181676" lon="11.9538637"><ele>361.71428571428567</ele><time>2026-04-18T10:47:12.064Z</time></trkpt><trkpt lat="42.1181632" lon="11.9539579"><ele>362.1428571428571</ele><time>2026-04-18T10:47:13.047Z</time></trkpt><trkpt lat="42.1181594" lon="11.9540435"><ele>362.57142857142856</ele><time>2026-04-18T10:47:14.058Z</time></trkpt><trkpt lat="42.1181605" lon="11.9541426"><ele>363.0</ele><time>2026-04-18T10:47:15.059Z</time></trkpt><trkpt lat="42.1181624" lon="11.954247"><ele>363.3333333333333</ele><time>2026-04-18T10:47:16.056Z</time></trkpt><trkpt lat="42.1181667" lon="11.9543665"><ele>363.6666666666667</ele><time>2026-04-18T10:47:17.058Z</time></trkpt><trkpt lat="42.1181726" lon="11.9544801"><ele>364.0</ele><time>2026-04-18T10:47:18.063Z</time></trkpt><trkpt lat="42.1181818" lon="11.9546016"><ele>364.33333333333337</ele><time>2026-04-18T10:47:19.051Z</time></trkpt><trkpt lat="42.1181897" lon="11.9547141"><ele>364.6666666666667</ele><time>2026-04-18T10:47:20.065Z</time></trkpt><trkpt lat="42.1182019" lon="11.9548097"><ele>365.0</ele><time>2026-04-18T10:47:21.059Z</time></trkpt><trkpt lat="42.1182336" lon="11.9549753"><ele>364.0</ele><time>2026-04-18T10:47:23.07Z</time></trkpt><trkpt lat="42.1182851" lon="11.9551112"><ele>363.0</ele><time>2026-04-18T10:47:25.061Z</time></trkpt><trkpt lat="42.1183403" lon="11.9552019"><ele>362.0</ele><time>2026-04-18T10:47:27.063Z</time></trkpt><trkpt lat="42.1183962" lon="11.9552607"><ele>361.0</ele><time>2026-04-18T10:47:36.059Z</time></trkpt><trkpt lat="42.1184544" lon="11.9553177"><ele>360.0</ele><time>2026-04-18T10:47:39.065Z</time></trkpt><trkpt lat="42.1185237" lon="11.9553586"><ele>359.0</ele><time>2026-04-18T10:47:42.057Z</time></trkpt><trkpt lat="42.1185801" lon="11.9554142"><ele>359.0</ele><time>2026-04-18T10:48:05.062Z</time></trkpt><trkpt lat="42.1186438" lon="11.9554469"><ele>359.0</ele><time>2026-04-18T10:48:09.067Z</time></trkpt><trkpt lat="42.1186943" lon="11.9555015"><ele>359.0</ele><time>2026-04-18T10:49:37.066Z</time></trkpt><trkpt lat="42.1187651" lon="11.9555386"><ele>359.0</ele><time>2026-04-18T10:49:40.055Z</time></trkpt><trkpt lat="42.1188508" lon="11.9555857"><ele>359.0</ele><time>2026-04-18T10:49:43.053Z</time></trkpt><trkpt lat="42.1189162" lon="11.9556354"><ele>359.0</ele><time>2026-04-18T10:49:45.059Z</time></trkpt><trkpt lat="42.1189759" lon="11.9556915"><ele>359.0</ele><time>2026-04-18T10:49:47.051Z</time></trkpt><trkpt lat="42.1190441" lon="11.9557632"><ele>357.2</ele><time>2026-04-18T10:49:49.058Z</time></trkpt><trkpt lat="42.119109" lon="11.9558493"><ele>355.4</ele><time>2026-04-18T10:49:51.058Z</time></trkpt><trkpt lat="42.1191763" lon="11.9559151"><ele>353.6</ele><time>2026-04-18T10:49:53.059Z</time></trkpt><trkpt lat="42.1192588" lon="11.9559678"><ele>351.8</ele><time>2026-04-18T10:49:55.057Z</time></trkpt><trkpt lat="42.1193588" lon="11.9560408"><ele>350.0</ele><time>2026-04-18T10:49:57.052Z</time></trkpt><trkpt lat="42.1194498" lon="11.9560777"><ele>350.0</ele><time>2026-04-18T10:49:59.057Z</time></trkpt><trkpt lat="42.1195206" lon="11.9560946"><ele>350.0</ele><time>2026-04-18T10:50:01.062Z</time></trkpt><trkpt lat="42.1195935" lon="11.9561457"><ele>350.0</ele><time>2026-04-18T10:50:03.052Z</time></trkpt><trkpt lat="42.1196786" lon="11.9562134"><ele>350.0</ele><time>2026-04-18T10:50:06.065Z</time></trkpt><trkpt lat="42.1197455" lon="11.9562662"><ele>350.0</ele><time>2026-04-18T10:50:08.063Z</time></trkpt><trkpt lat="42.1198437" lon="11.9563452"><ele>350.0</ele><time>2026-04-18T10:50:10.055Z</time></trkpt><trkpt lat="42.1199509" lon="11.956421"><ele>348.0</ele><time>2026-04-18T10:50:12.053Z</time></trkpt><trkpt lat="42.1200471" lon="11.956485"><ele>346.0</ele><time>2026-04-18T10:50:14.05Z</time></trkpt><trkpt lat="42.1201316" lon="11.9565432"><ele>344.0</ele><time>2026-04-18T10:50:16.055Z</time></trkpt><trkpt lat="42.1202088" lon="11.9565786"><ele>342.0</ele><time>2026-04-18T10:50:18.055Z</time></trkpt><trkpt lat="42.1202896" lon="11.9565996"><ele>340.0</ele><time>2026-04-18T10:50:21.064Z</time></trkpt><trkpt lat="42.1203547" lon="11.9565985"><ele>338.0</ele><time>2026-04-18T10:50:23.054Z</time></trkpt><trkpt lat="42.1204381" lon="11.9566206"><ele>338.0</ele><time>2026-04-18T10:50:25.05Z</time></trkpt><trkpt lat="42.1205164" lon="11.9566918"><ele>338.0</ele><time>2026-04-18T10:50:27.052Z</time></trkpt><trkpt lat="42.1205648" lon="11.9567811"><ele>338.0</ele><time>2026-04-18T10:50:29.048Z</time></trkpt><trkpt lat="42.1205728" lon="11.9568654"><ele>338.0</ele><time>2026-04-18T10:50:31.051Z</time></trkpt><trkpt lat="42.1205446" lon="11.956969"><ele>338.0</ele><time>2026-04-18T10:50:33.054Z</time></trkpt><trkpt lat="42.1205044" lon="11.9570412"><ele>338.0</ele><time>2026-04-18T10:50:35.063Z</time></trkpt><trkpt lat="42.1204648" lon="11.9571681"><ele>337.4</ele><time>2026-04-18T10:50:37.049Z</time></trkpt><trkpt lat="42.1204528" lon="11.957315"><ele>336.79999999999995</ele><time>2026-04-18T10:50:39.054Z</time></trkpt><trkpt lat="42.1204516" lon="11.9574497"><ele>336.2</ele><time>2026-04-18T10:50:41.062Z</time></trkpt><trkpt lat="42.1204323" lon="11.9575581"><ele>335.6</ele><time>2026-04-18T10:50:43.058Z</time></trkpt><trkpt lat="42.1204246" lon="11.9576651"><ele>335.0</ele><time>2026-04-18T10:50:45.06Z</time></trkpt><trkpt lat="42.1204154" lon="11.957776"><ele>335.0</ele><time>2026-04-18T10:50:47.056Z</time></trkpt><trkpt lat="42.1204085" lon="11.9579171"><ele>335.0</ele><time>2026-04-18T10:50:49.078Z</time></trkpt><trkpt lat="42.1203984" lon="11.9580882"><ele>335.0</ele><time>2026-04-18T10:50:51.047Z</time></trkpt><trkpt lat="42.1203905" lon="11.9581823"><ele>335.0</ele><time>2026-04-18T10:50:52.054Z</time></trkpt><trkpt lat="42.1203843" lon="11.9582717"><ele>335.0</ele><time>2026-04-18T10:50:53.052Z</time></trkpt><trkpt lat="42.1203835" lon="11.9584296"><ele>336.0</ele><time>2026-04-18T10:50:55.057Z</time></trkpt><trkpt lat="42.1203976" lon="11.9585657"><ele>337.0</ele><time>2026-04-18T10:50:57.06Z</time></trkpt><trkpt lat="42.120424" lon="11.9586762"><ele>338.0</ele><time>2026-04-18T10:50:59.058Z</time></trkpt><trkpt lat="42.1204737" lon="11.9588025"><ele>339.0</ele><time>2026-04-18T10:51:01.052Z</time></trkpt><trkpt lat="42.1205096" lon="11.9588724"><ele>340.0</ele><time>2026-04-18T10:51:02.062Z</time></trkpt><trkpt lat="42.1205485" lon="11.9589474"><ele>341.0</ele><time>2026-04-18T10:51:03.058Z</time></trkpt><trkpt lat="42.120591" lon="11.9590318"><ele>341.0</ele><time>2026-04-18T10:51:04.055Z</time></trkpt><trkpt lat="42.1206305" lon="11.9591291"><ele>341.0</ele><time>2026-04-18T10:51:05.054Z</time></trkpt><trkpt lat="42.1206628" lon="11.9592396"><ele>341.0</ele><time>2026-04-18T10:51:06.055Z</time></trkpt><trkpt lat="42.1206738" lon="11.9593594"><ele>341.0</ele><time>2026-04-18T10:51:07.056Z</time></trkpt><trkpt lat="42.1206609" lon="11.9594801"><ele>341.0</ele><time>2026-04-18T10:51:08.059Z</time></trkpt><trkpt lat="42.1206304" lon="11.9595997"><ele>341.0</ele><time>2026-04-18T10:51:09.058Z</time></trkpt><trkpt lat="42.120589" lon="11.9597136"><ele>341.33333333333337</ele><time>2026-04-18T10:51:10.053Z</time></trkpt><trkpt lat="42.1205452" lon="11.9598243"><ele>341.6666666666667</ele><time>2026-04-18T10:51:11.05Z</time></trkpt><trkpt lat="42.120508" lon="11.9599217"><ele>342.0</ele><time>2026-04-18T10:51:12.057Z</time></trkpt><trkpt lat="42.1204745" lon="11.960009"><ele>342.3333333333333</ele><time>2026-04-18T10:51:13.056Z</time></trkpt><trkpt lat="42.1204614" lon="11.960112"><ele>342.66666666666663</ele><time>2026-04-18T10:51:14.055Z</time></trkpt><trkpt lat="42.1204663" lon="11.9602276"><ele>343.0</ele><time>2026-04-18T10:51:15.053Z</time></trkpt><trkpt lat="42.1204916" lon="11.9603487"><ele>341.2</ele><time>2026-04-18T10:51:16.052Z</time></trkpt><trkpt lat="42.1205289" lon="11.9604716"><ele>339.4</ele><time>2026-04-18T10:51:17.051Z</time></trkpt><trkpt lat="42.1205651" lon="11.9606015"><ele>337.59999999999997</ele><time>2026-04-18T10:51:18.057Z</time></trkpt><trkpt lat="42.1205829" lon="11.9607376"><ele>335.79999999999995</ele><time>2026-04-18T10:51:19.053Z</time></trkpt><trkpt lat="42.1205727" lon="11.9608702"><ele>334.0</ele><time>2026-04-18T10:51:20.05Z</time></trkpt><trkpt lat="42.1205305" lon="11.9609733"><ele>332.6</ele><time>2026-04-18T10:51:21.055Z</time></trkpt><trkpt lat="42.1204583" lon="11.9610541"><ele>331.2</ele><time>2026-04-18T10:51:22.053Z</time></trkpt><trkpt lat="42.1203638" lon="11.961111"><ele>329.8</ele><time>2026-04-18T10:51:23.043Z</time></trkpt><trkpt lat="42.1202557" lon="11.9611581"><ele>328.40000000000003</ele><time>2026-04-18T10:51:24.055Z</time></trkpt><trkpt lat="42.1201498" lon="11.961209"><ele>327.0</ele><time>2026-04-18T10:51:25.061Z</time></trkpt><trkpt lat="42.1200602" lon="11.9612793"><ele>327.0</ele><time>2026-04-18T10:51:26.051Z</time></trkpt><trkpt lat="42.1199966" lon="11.9613745"><ele>327.0</ele><time>2026-04-18T10:51:27.061Z</time></trkpt><trkpt lat="42.1199675" lon="11.9614904"><ele>327.0</ele><time>2026-04-18T10:51:28.063Z</time></trkpt><trkpt lat="42.1199727" lon="11.9616171"><ele>327.0</ele><time>2026-04-18T10:51:29.054Z</time></trkpt><trkpt lat="42.1199806" lon="11.9617477"><ele>327.0</ele><time>2026-04-18T10:51:30.059Z</time></trkpt><trkpt lat="42.1200248" lon="11.9618824"><ele>326.40000000000003</ele><time>2026-04-18T10:51:31.055Z</time></trkpt><trkpt lat="42.1200705" lon="11.9620208"><ele>325.8</ele><time>2026-04-18T10:51:32.055Z</time></trkpt><trkpt lat="42.1200824" lon="11.9621662"><ele>325.2</ele><time>2026-04-18T10:51:33.054Z</time></trkpt><trkpt lat="42.1200354" lon="11.9622862"><ele>324.6</ele><time>2026-04-18T10:51:34.058Z</time></trkpt><trkpt lat="42.1199889" lon="11.9624069"><ele>324.0</ele><time>2026-04-18T10:51:35.053Z</time></trkpt><trkpt lat="42.1199015" lon="11.9624957"><ele>328.25</ele><time>2026-04-18T10:51:36.057Z</time></trkpt><trkpt lat="42.1198005" lon="11.9625765"><ele>332.5</ele><time>2026-04-18T10:51:37.051Z</time></trkpt><trkpt lat="42.1197008" lon="11.9626608"><ele>336.75</ele><time>2026-04-18T10:51:38.058Z</time></trkpt><trkpt lat="42.1196235" lon="11.9627669"><ele>341.0</ele><time>2026-04-18T10:51:39.05Z</time></trkpt><trkpt lat="42.1195641" lon="11.962894"><ele>341.0</ele><time>2026-04-18T10:51:40.056Z</time></trkpt><trkpt lat="42.1195265" lon="11.9630371"><ele>341.0</ele><time>2026-04-18T10:51:41.05Z</time></trkpt><trkpt lat="42.1195123" lon="11.9631903"><ele>341.0</ele><time>2026-04-18T10:51:42.053Z</time></trkpt><trkpt lat="42.1195206" lon="11.9633521"><ele>341.0</ele><time>2026-04-18T10:51:43.049Z</time></trkpt><trkpt lat="42.1195454" lon="11.9635142"><ele>342.75</ele><time>2026-04-18T10:51:44.056Z</time></trkpt><trkpt lat="42.1195833" lon="11.9636786"><ele>344.5</ele><time>2026-04-18T10:51:45.049Z</time></trkpt><trkpt lat="42.1196281" lon="11.963843"><ele>346.25</ele><time>2026-04-18T10:51:46.053Z</time></trkpt><trkpt lat="42.1196779" lon="11.9640129"><ele>348.0</ele><time>2026-04-18T10:51:47.055Z</time></trkpt><trkpt lat="42.1197327" lon="11.9641898"><ele>346.75</ele><time>2026-04-18T10:51:48.048Z</time></trkpt><trkpt lat="42.1197887" lon="11.9643577"><ele>345.5</ele><time>2026-04-18T10:51:49.052Z</time></trkpt><trkpt lat="42.1198579" lon="11.9645227"><ele>344.25</ele><time>2026-04-18T10:51:50.057Z</time></trkpt><trkpt lat="42.1199368" lon="11.9646822"><ele>343.0</ele><time>2026-04-18T10:51:51.051Z</time></trkpt><trkpt lat="42.1200215" lon="11.9648405"><ele>343.0</ele><time>2026-04-18T10:51:52.056Z</time></trkpt><trkpt lat="42.1200995" lon="11.9650015"><ele>343.0</ele><time>2026-04-18T10:51:53.049Z</time></trkpt><trkpt lat="42.1201709" lon="11.965152"><ele>343.0</ele><time>2026-04-18T10:51:54.055Z</time></trkpt><trkpt lat="42.120213" lon="11.9652945"><ele>343.0</ele><time>2026-04-18T10:51:55.055Z</time></trkpt><trkpt lat="42.1202087" lon="11.9654561"><ele>346.0</ele><time>2026-04-18T10:51:56.053Z</time></trkpt><trkpt lat="42.1202019" lon="11.9656234"><ele>349.0</ele><time>2026-04-18T10:51:57.047Z</time></trkpt><trkpt lat="42.1201985" lon="11.9657846"><ele>352.0</ele><time>2026-04-18T10:51:58.058Z</time></trkpt><trkpt lat="42.1202323" lon="11.9659523"><ele>355.0</ele><time>2026-04-18T10:51:59.05Z</time></trkpt><trkpt lat="42.1203065" lon="11.9661072"><ele>358.0</ele><time>2026-04-18T10:52:00.05Z</time></trkpt><trkpt lat="42.1203934" lon="11.9662579"><ele>361.0</ele><time>2026-04-18T10:52:01.052Z</time></trkpt><trkpt lat="42.1204816" lon="11.9664218"><ele>364.0</ele><time>2026-04-18T10:52:02.057Z</time></trkpt><trkpt lat="42.1205668" lon="11.9665917"><ele>367.0</ele><time>2026-04-18T10:52:03.054Z</time></trkpt><trkpt lat="42.1206518" lon="11.9667624"><ele>368.5</ele><time>2026-04-18T10:52:04.05Z</time></trkpt><trkpt lat="42.120721" lon="11.9669347"><ele>370.0</ele><time>2026-04-18T10:52:05.047Z</time></trkpt><trkpt lat="42.120786" lon="11.9670972"><ele>371.5</ele><time>2026-04-18T10:52:06.056Z</time></trkpt><trkpt lat="42.120822" lon="11.9672578"><ele>373.0</ele><time>2026-04-18T10:52:07.061Z</time></trkpt><trkpt lat="42.1208475" lon="11.967423"><ele>366.25</ele><time>2026-04-18T10:52:08.052Z</time></trkpt><trkpt lat="42.1208463" lon="11.9676112"><ele>359.5</ele><time>2026-04-18T10:52:09.049Z</time></trkpt><trkpt lat="42.120845" lon="11.9677992"><ele>352.75</ele><time>2026-04-18T10:52:10.053Z</time></trkpt><trkpt lat="42.1208477" lon="11.9679899"><ele>346.0</ele><time>2026-04-18T10:52:11.052Z</time></trkpt><trkpt lat="42.1208395" lon="11.9681634"><ele>346.0</ele><time>2026-04-18T10:52:12.053Z</time></trkpt><trkpt lat="42.1208127" lon="11.9683192"><ele>346.0</ele><time>2026-04-18T10:52:13.056Z</time></trkpt><trkpt lat="42.1207591" lon="11.9684626"><ele>346.0</ele><time>2026-04-18T10:52:14.055Z</time></trkpt><trkpt lat="42.1206818" lon="11.9685886"><ele>346.0</ele><time>2026-04-18T10:52:15.06Z</time></trkpt><trkpt lat="42.1205858" lon="11.9687016"><ele>347.0</ele><time>2026-04-18T10:52:16.062Z</time></trkpt><trkpt lat="42.1204824" lon="11.968815"><ele>348.0</ele><time>2026-04-18T10:52:17.054Z</time></trkpt><trkpt lat="42.1203773" lon="11.9689274"><ele>349.0</ele><time>2026-04-18T10:52:18.054Z</time></trkpt><trkpt lat="42.1202712" lon="11.9690397"><ele>350.0</ele><time>2026-04-18T10:52:19.047Z</time></trkpt><trkpt lat="42.120154" lon="11.9691505"><ele>349.5</ele><time>2026-04-18T10:52:20.055Z</time></trkpt><trkpt lat="42.1200374" lon="11.9692662"><ele>349.0</ele><time>2026-04-18T10:52:21.048Z</time></trkpt><trkpt lat="42.1199181" lon="11.9693914"><ele>348.5</ele><time>2026-04-18T10:52:22.058Z</time></trkpt><trkpt lat="42.1198024" lon="11.9695247"><ele>348.0</ele><time>2026-04-18T10:52:23.058Z</time></trkpt><trkpt lat="42.1196996" lon="11.9696696"><ele>348.0</ele><time>2026-04-18T10:52:24.057Z</time></trkpt><trkpt lat="42.1196044" lon="11.9698282"><ele>348.0</ele><time>2026-04-18T10:52:25.056Z</time></trkpt><trkpt lat="42.1195147" lon="11.9700018"><ele>348.0</ele><time>2026-04-18T10:52:26.054Z</time></trkpt><trkpt lat="42.1194363" lon="11.9701862"><ele>345.3333333333333</ele><time>2026-04-18T10:52:27.056Z</time></trkpt><trkpt lat="42.1193637" lon="11.9703783"><ele>342.66666666666663</ele><time>2026-04-18T10:52:28.053Z</time></trkpt><trkpt lat="42.1192872" lon="11.9705606"><ele>340.0</ele><time>2026-04-18T10:52:29.055Z</time></trkpt><trkpt lat="42.1192049" lon="11.970731"><ele>339.66666666666663</ele><time>2026-04-18T10:52:30.054Z</time></trkpt><trkpt lat="42.1191097" lon="11.9708856"><ele>339.3333333333333</ele><time>2026-04-18T10:52:31.061Z</time></trkpt><trkpt lat="42.1189962" lon="11.9710186"><ele>339.0</ele><time>2026-04-18T10:52:32.051Z</time></trkpt><trkpt lat="42.1188665" lon="11.9711272"><ele>339.0</ele><time>2026-04-18T10:52:33.054Z</time></trkpt><trkpt lat="42.118726" lon="11.9712102"><ele>339.0</ele><time>2026-04-18T10:52:34.065Z</time></trkpt><trkpt lat="42.1185768" lon="11.9712727"><ele>339.0</ele><time>2026-04-18T10:52:35.057Z</time></trkpt><trkpt lat="42.1184242" lon="11.9713219"><ele>339.0</ele><time>2026-04-18T10:52:36.055Z</time></trkpt><trkpt lat="42.1182729" lon="11.9713733"><ele>339.0</ele><time>2026-04-18T10:52:37.056Z</time></trkpt><trkpt lat="42.1181243" lon="11.971446"><ele>339.0</ele><time>2026-04-18T10:52:38.056Z</time></trkpt><trkpt lat="42.1179827" lon="11.9715446"><ele>339.3333333333333</ele><time>2026-04-18T10:52:39.056Z</time></trkpt><trkpt lat="42.1178423" lon="11.9716488"><ele>339.66666666666663</ele><time>2026-04-18T10:52:40.061Z</time></trkpt><trkpt lat="42.1177104" lon="11.9717682"><ele>340.0</ele><time>2026-04-18T10:52:41.062Z</time></trkpt><trkpt lat="42.1175814" lon="11.9718865"><ele>340.0</ele><time>2026-04-18T10:52:42.06Z</time></trkpt><trkpt lat="42.1174513" lon="11.9720069"><ele>340.0</ele><time>2026-04-18T10:52:43.057Z</time></trkpt><trkpt lat="42.1173199" lon="11.9721228"><ele>340.0</ele><time>2026-04-18T10:52:44.059Z</time></trkpt><trkpt lat="42.1171856" lon="11.9722421"><ele>340.0</ele><time>2026-04-18T10:52:45.06Z</time></trkpt><trkpt lat="42.1170538" lon="11.972361"><ele>340.0</ele><time>2026-04-18T10:52:46.051Z</time></trkpt><trkpt lat="42.116926" lon="11.9724793"><ele>340.0</ele><time>2026-04-18T10:52:47.051Z</time></trkpt><trkpt lat="42.116787" lon="11.9725952"><ele>340.0</ele><time>2026-04-18T10:52:48.051Z</time></trkpt><trkpt lat="42.1166548" lon="11.9727173"><ele>340.0</ele><time>2026-04-18T10:52:49.052Z</time></trkpt><trkpt lat="42.1165256" lon="11.9728464"><ele>340.0</ele><time>2026-04-18T10:52:50.059Z</time></trkpt><trkpt lat="42.1164091" lon="11.9729917"><ele>341.75</ele><time>2026-04-18T10:52:51.057Z</time></trkpt><trkpt lat="42.1163154" lon="11.9731528"><ele>343.5</ele><time>2026-04-18T10:52:52.064Z</time></trkpt><trkpt lat="42.1162418" lon="11.9733158"><ele>345.25</ele><time>2026-04-18T10:52:53.058Z</time></trkpt><trkpt lat="42.1161788" lon="11.9734744"><ele>347.0</ele><time>2026-04-18T10:52:54.05Z</time></trkpt><trkpt lat="42.1161169" lon="11.973619"><ele>347.0</ele><time>2026-04-18T10:52:55.055Z</time></trkpt><trkpt lat="42.1160528" lon="11.9737525"><ele>347.0</ele><time>2026-04-18T10:52:56.055Z</time></trkpt><trkpt lat="42.1159826" lon="11.9738776"><ele>347.0</ele><time>2026-04-18T10:52:57.054Z</time></trkpt><trkpt lat="42.1159039" lon="11.973998"><ele>347.0</ele><time>2026-04-18T10:52:58.056Z</time></trkpt><trkpt lat="42.1158164" lon="11.9741175"><ele>347.5</ele><time>2026-04-18T10:52:59.055Z</time></trkpt><trkpt lat="42.1157249" lon="11.9742402"><ele>348.0</ele><time>2026-04-18T10:53:00.057Z</time></trkpt><trkpt lat="42.1156318" lon="11.9743632"><ele>348.5</ele><time>2026-04-18T10:53:01.052Z</time></trkpt><trkpt lat="42.1155423" lon="11.974485"><ele>349.0</ele><time>2026-04-18T10:53:02.058Z</time></trkpt><trkpt lat="42.1154563" lon="11.9746033"><ele>349.0</ele><time>2026-04-18T10:53:03.051Z</time></trkpt><trkpt lat="42.1153708" lon="11.9747182"><ele>349.0</ele><time>2026-04-18T10:53:04.047Z</time></trkpt><trkpt lat="42.1152844" lon="11.9748298"><ele>349.0</ele><time>2026-04-18T10:53:05.06Z</time></trkpt><trkpt lat="42.1151981" lon="11.9749403"><ele>349.0</ele><time>2026-04-18T10:53:06.053Z</time></trkpt><trkpt lat="42.1151198" lon="11.9750419"><ele>348.8333333333333</ele><time>2026-04-18T10:53:07.056Z</time></trkpt><trkpt lat="42.1150539" lon="11.9751285"><ele>348.66666666666663</ele><time>2026-04-18T10:53:08.062Z</time></trkpt><trkpt lat="42.114986" lon="11.9752061"><ele>348.5</ele><time>2026-04-18T10:53:09.061Z</time></trkpt><trkpt lat="42.1149266" lon="11.9752858"><ele>348.3333333333333</ele><time>2026-04-18T10:53:10.051Z</time></trkpt><trkpt lat="42.1148615" lon="11.9753659"><ele>348.1666666666667</ele><time>2026-04-18T10:53:12.051Z</time></trkpt><trkpt lat="42.1149304" lon="11.9753651"><ele>348.0</ele><time>2026-04-18T10:53:22.066Z</time></trkpt><trkpt lat="42.115003" lon="11.9752506"><ele>348.1666666666667</ele><time>2026-04-18T10:53:24.057Z</time></trkpt><trkpt lat="42.1150951" lon="11.9751301"><ele>348.3333333333333</ele><time>2026-04-18T10:53:26.055Z</time></trkpt><trkpt lat="42.1151467" lon="11.9750595"><ele>348.5</ele><time>2026-04-18T10:53:27.054Z</time></trkpt><trkpt lat="42.1151952" lon="11.9749911"><ele>348.66666666666663</ele><time>2026-04-18T10:53:28.063Z</time></trkpt><trkpt lat="42.1152418" lon="11.9749256"><ele>348.8333333333333</ele><time>2026-04-18T10:53:29.054Z</time></trkpt><trkpt lat="42.1152949" lon="11.9748564"><ele>349.0</ele><time>2026-04-18T10:53:30.059Z</time></trkpt><trkpt lat="42.1153499" lon="11.9747827"><ele>349.0</ele><time>2026-04-18T10:53:31.057Z</time></trkpt><trkpt lat="42.1154105" lon="11.9747025"><ele>349.0</ele><time>2026-04-18T10:53:32.056Z</time></trkpt><trkpt lat="42.115473" lon="11.9746206"><ele>349.0</ele><time>2026-04-18T10:53:33.054Z</time></trkpt><trkpt lat="42.1155348" lon="11.9745411"><ele>349.0</ele><time>2026-04-18T10:53:34.058Z</time></trkpt><trkpt lat="42.1155936" lon="11.9744648"><ele>349.0</ele><time>2026-04-18T10:53:35.055Z</time></trkpt><trkpt lat="42.1156484" lon="11.9743932"><ele>349.0</ele><time>2026-04-18T10:53:36.055Z</time></trkpt><trkpt lat="42.1156986" lon="11.9743238"><ele>348.66666666666663</ele><time>2026-04-18T10:53:37.048Z</time></trkpt><trkpt lat="42.1157455" lon="11.9742628"><ele>348.3333333333333</ele><time>2026-04-18T10:53:38.054Z</time></trkpt><trkpt lat="42.1158286" lon="11.9741719"><ele>348.0</ele><time>2026-04-18T10:53:40.057Z</time></trkpt><trkpt lat="42.1159064" lon="11.9741614"><ele>347.6666666666667</ele><time>2026-04-18T10:53:43.066Z</time></trkpt><trkpt lat="42.1159556" lon="11.97427"><ele>347.33333333333337</ele><time>2026-04-18T10:53:46.062Z</time></trkpt><trkpt lat="42.1159321" lon="11.974356"><ele>347.0</ele><time>2026-04-18T10:53:48.051Z</time></trkpt><trkpt lat="42.115882" lon="11.9744233"><ele>343.0</ele><time>2026-04-18T10:53:50.051Z</time></trkpt><trkpt lat="42.1158153" lon="11.9744837"><ele>343.0</ele><time>2026-04-18T10:53:52.054Z</time></trkpt><trkpt lat="42.1157596" lon="11.9745421"><ele>343.0</ele><time>2026-04-18T10:53:54.061Z</time></trkpt><trkpt lat="42.1156828" lon="11.9745753"><ele>349.0</ele><time>2026-04-18T10:53:57.058Z</time></trkpt></trkseg><trkseg><trkpt lat="42.1157767" lon="11.974494"><ele>343.0</ele><time>2026-04-18T11:57:38.076Z</time></trkpt><trkpt lat="42.1158508" lon="11.9744333"><ele>343.0</ele><time>2026-04-18T11:57:41.075Z</time></trkpt><trkpt lat="42.1159027" lon="11.9743725"><ele>343.0</ele><time>2026-04-18T11:57:44.067Z</time></trkpt><trkpt lat="42.115958" lon="11.9743239"><ele>343.0</ele><time>2026-04-18T11:57:48.06Z</time></trkpt><trkpt lat="42.1160282" lon="11.9742922"><ele>343.0</ele><time>2026-04-18T11:57:52.072Z</time></trkpt><trkpt lat="42.1160997" lon="11.9742901"><ele>343.0</ele><time>2026-04-18T11:57:57.068Z</time></trkpt><trkpt lat="42.11618" lon="11.9743194"><ele>343.0</ele><time>2026-04-18T11:58:10.065Z</time></trkpt><trkpt lat="42.1162486" lon="11.9743682"><ele>343.0</ele><time>2026-04-18T11:58:14.063Z</time></trkpt><trkpt lat="42.1163121" lon="11.9744328"><ele>343.0</ele><time>2026-04-18T11:58:18.078Z</time></trkpt><trkpt lat="42.1163725" lon="11.9744734"><ele>343.0</ele><time>2026-04-18T11:58:22.059Z</time></trkpt><trkpt lat="42.116334" lon="11.974382"><ele>343.0</ele><time>2026-04-18T11:58:54.068Z</time></trkpt><trkpt lat="42.1162504" lon="11.9743319"><ele>343.0</ele><time>2026-04-18T11:58:56.068Z</time></trkpt><trkpt lat="42.1162122" lon="11.9742451"><ele>343.0</ele><time>2026-04-18T11:58:58.077Z</time></trkpt><trkpt lat="42.1162768" lon="11.9741774"><ele>343.0</ele><time>2026-04-18T11:59:02.074Z</time></trkpt><trkpt lat="42.1163427" lon="11.9742233"><ele>343.0</ele><time>2026-04-18T11:59:04.063Z</time></trkpt><trkpt lat="42.1164375" lon="11.9743049"><ele>343.0</ele><time>2026-04-18T11:59:06.058Z</time></trkpt><trkpt lat="42.1164986" lon="11.9742641"><ele>343.0</ele><time>2026-04-18T11:59:08.062Z</time></trkpt><trkpt lat="42.1164995" lon="11.974067"><ele>343.79999999999995</ele><time>2026-04-18T11:59:10.062Z</time></trkpt><trkpt lat="42.1164988" lon="11.9739075"><ele>344.6</ele><time>2026-04-18T11:59:11.067Z</time></trkpt><trkpt lat="42.1164991" lon="11.9737547"><ele>345.4</ele><time>2026-04-18T11:59:12.066Z</time></trkpt><trkpt lat="42.1165325" lon="11.9736246"><ele>346.20000000000005</ele><time>2026-04-18T11:59:13.066Z</time></trkpt><trkpt lat="42.1165724" lon="11.9735473"><ele>347.0</ele><time>2026-04-18T11:59:14.063Z</time></trkpt><trkpt lat="42.1166764" lon="11.9735072"><ele>345.5</ele><time>2026-04-18T11:59:16.06Z</time></trkpt><trkpt lat="42.1167561" lon="11.9735317"><ele>344.0</ele><time>2026-04-18T11:59:17.064Z</time></trkpt><trkpt lat="42.116845" lon="11.973584"><ele>342.5</ele><time>2026-04-18T11:59:18.055Z</time></trkpt><trkpt lat="42.1169247" lon="11.9736219"><ele>341.0</ele><time>2026-04-18T11:59:19.062Z</time></trkpt><trkpt lat="42.1170093" lon="11.973658"><ele>339.5</ele><time>2026-04-18T11:59:20.058Z</time></trkpt><trkpt lat="42.117075" lon="11.9736923"><ele>338.0</ele><time>2026-04-18T11:59:21.057Z</time></trkpt><trkpt lat="42.1171098" lon="11.9737754"><ele>338.0</ele><time>2026-04-18T11:59:23.062Z</time></trkpt><trkpt lat="42.1170129" lon="11.9738131"><ele>338.0</ele><time>2026-04-18T11:59:25.069Z</time></trkpt><trkpt lat="42.1169449" lon="11.9738371"><ele>338.0</ele><time>2026-04-18T11:59:26.068Z</time></trkpt><trkpt lat="42.1168568" lon="11.9739448"><ele>338.0</ele><time>2026-04-18T11:59:28.067Z</time></trkpt><trkpt lat="42.1168568" lon="11.9740525"><ele>338.0</ele><time>2026-04-18T11:59:29.068Z</time></trkpt><trkpt lat="42.1168828" lon="11.9741581"><ele>337.5</ele><time>2026-04-18T11:59:30.066Z</time></trkpt><trkpt lat="42.1169099" lon="11.9742542"><ele>337.0</ele><time>2026-04-18T11:59:31.055Z</time></trkpt><trkpt lat="42.116931" lon="11.9743395"><ele>336.5</ele><time>2026-04-18T11:59:32.064Z</time></trkpt><trkpt lat="42.1168782" lon="11.9744269"><ele>336.0</ele><time>2026-04-18T11:59:33.059Z</time></trkpt><trkpt lat="42.11682" lon="11.9745184"><ele>335.5</ele><time>2026-04-18T11:59:34.058Z</time></trkpt><trkpt lat="42.1167592" lon="11.9745982"><ele>335.0</ele><time>2026-04-18T11:59:35.059Z</time></trkpt><trkpt lat="42.1167575" lon="11.9747196"><ele>335.0</ele><time>2026-04-18T11:59:37.062Z</time></trkpt><trkpt lat="42.1168427" lon="11.9747516"><ele>335.0</ele><time>2026-04-18T11:59:39.059Z</time></trkpt><trkpt lat="42.1168949" lon="11.9746724"><ele>335.0</ele><time>2026-04-18T11:59:40.058Z</time></trkpt><trkpt lat="42.116937" lon="11.9745714"><ele>335.0</ele><time>2026-04-18T11:59:41.059Z</time></trkpt><trkpt lat="42.1169792" lon="11.9744688"><ele>335.0</ele><time>2026-04-18T11:59:42.072Z</time></trkpt><trkpt lat="42.1170178" lon="11.9743559"><ele>335.0</ele><time>2026-04-18T11:59:43.065Z</time></trkpt><trkpt lat="42.1170419" lon="11.9742562"><ele>335.4285714285714</ele><time>2026-04-18T11:59:44.062Z</time></trkpt><trkpt lat="42.1170445" lon="11.9741714"><ele>335.85714285714283</ele><time>2026-04-18T11:59:45.055Z</time></trkpt><trkpt lat="42.1170222" lon="11.9740892"><ele>336.2857142857143</ele><time>2026-04-18T11:59:46.064Z</time></trkpt><trkpt lat="42.1170084" lon="11.9739756"><ele>336.71428571428567</ele><time>2026-04-18T11:59:48.056Z</time></trkpt><trkpt lat="42.1170661" lon="11.973935"><ele>337.1428571428571</ele><time>2026-04-18T11:59:49.063Z</time></trkpt><trkpt lat="42.1171261" lon="11.9738817"><ele>337.57142857142856</ele><time>2026-04-18T11:59:50.059Z</time></trkpt><trkpt lat="42.1171692" lon="11.9737929"><ele>338.0</ele><time>2026-04-18T11:59:51.06Z</time></trkpt><trkpt lat="42.1172008" lon="11.9737025"><ele>338.0</ele><time>2026-04-18T11:59:52.073Z</time></trkpt><trkpt lat="42.1172267" lon="11.9736152"><ele>338.0</ele><time>2026-04-18T11:59:53.058Z</time></trkpt><trkpt lat="42.1172719" lon="11.9735225"><ele>338.0</ele><time>2026-04-18T11:59:54.063Z</time></trkpt><trkpt lat="42.1173554" lon="11.9734309"><ele>338.0</ele><time>2026-04-18T11:59:55.059Z</time></trkpt><trkpt lat="42.1174531" lon="11.9733388"><ele>338.0</ele><time>2026-04-18T11:59:56.055Z</time></trkpt><trkpt lat="42.11755" lon="11.9732488"><ele>336.5</ele><time>2026-04-18T11:59:57.06Z</time></trkpt><trkpt lat="42.11764" lon="11.9731601"><ele>335.0</ele><time>2026-04-18T11:59:58.057Z</time></trkpt><trkpt lat="42.1177288" lon="11.9730756"><ele>333.5</ele><time>2026-04-18T11:59:59.061Z</time></trkpt><trkpt lat="42.1178253" lon="11.9729972"><ele>332.0</ele><time>2026-04-18T12:00:00.064Z</time></trkpt><trkpt lat="42.1179287" lon="11.9729123"><ele>332.0</ele><time>2026-04-18T12:00:01.064Z</time></trkpt><trkpt lat="42.1180288" lon="11.9728282"><ele>332.0</ele><time>2026-04-18T12:00:02.061Z</time></trkpt><trkpt lat="42.1181138" lon="11.9727125"><ele>332.0</ele><time>2026-04-18T12:00:03.066Z</time></trkpt><trkpt lat="42.1181729" lon="11.972562"><ele>332.0</ele><time>2026-04-18T12:00:04.062Z</time></trkpt><trkpt lat="42.118204" lon="11.9724137"><ele>331.8</ele><time>2026-04-18T12:00:05.078Z</time></trkpt><trkpt lat="42.1182255" lon="11.9722906"><ele>331.6</ele><time>2026-04-18T12:00:06.062Z</time></trkpt><trkpt lat="42.1182352" lon="11.9721945"><ele>331.40000000000003</ele><time>2026-04-18T12:00:07.058Z</time></trkpt><trkpt lat="42.1181959" lon="11.9720299"><ele>331.20000000000005</ele><time>2026-04-18T12:00:09.067Z</time></trkpt><trkpt lat="42.1181542" lon="11.9719416"><ele>331.0</ele><time>2026-04-18T12:00:10.067Z</time></trkpt><trkpt lat="42.1180812" lon="11.9718756"><ele>332.5</ele><time>2026-04-18T12:00:11.069Z</time></trkpt><trkpt lat="42.1180155" lon="11.9718261"><ele>334.0</ele><time>2026-04-18T12:00:12.062Z</time></trkpt><trkpt lat="42.1179435" lon="11.9718255"><ele>335.5</ele><time>2026-04-18T12:00:13.06Z</time></trkpt><trkpt lat="42.1178949" lon="11.9719134"><ele>337.0</ele><time>2026-04-18T12:00:14.076Z</time></trkpt><trkpt lat="42.1178804" lon="11.9720501"><ele>338.5</ele><time>2026-04-18T12:00:15.058Z</time></trkpt><trkpt lat="42.1178798" lon="11.9721776"><ele>340.0</ele><time>2026-04-18T12:00:16.065Z</time></trkpt><trkpt lat="42.1178514" lon="11.9722902"><ele>340.0</ele><time>2026-04-18T12:00:17.058Z</time></trkpt><trkpt lat="42.1177908" lon="11.972364"><ele>340.0</ele><time>2026-04-18T12:00:18.058Z</time></trkpt><trkpt lat="42.1177364" lon="11.9724353"><ele>340.0</ele><time>2026-04-18T12:00:19.059Z</time></trkpt><trkpt lat="42.1176823" lon="11.972505"><ele>340.0</ele><time>2026-04-18T12:00:20.064Z</time></trkpt><trkpt lat="42.1176301" lon="11.9725908"><ele>340.0</ele><time>2026-04-18T12:00:21.057Z</time></trkpt><trkpt lat="42.1175871" lon="11.9726833"><ele>340.0</ele><time>2026-04-18T12:00:22.066Z</time></trkpt><trkpt lat="42.1175544" lon="11.9727687"><ele>340.0</ele><time>2026-04-18T12:00:23.058Z</time></trkpt><trkpt lat="42.1175693" lon="11.9728733"><ele>340.0</ele><time>2026-04-18T12:00:25.066Z</time></trkpt><trkpt lat="42.1176374" lon="11.9728704"><ele>340.0</ele><time>2026-04-18T12:00:27.066Z</time></trkpt><trkpt lat="42.1177237" lon="11.9727394"><ele>340.0</ele><time>2026-04-18T12:00:29.06Z</time></trkpt><trkpt lat="42.1177741" lon="11.972643"><ele>340.0</ele><time>2026-04-18T12:00:30.069Z</time></trkpt><trkpt lat="42.1178164" lon="11.9725518"><ele>340.0</ele><time>2026-04-18T12:00:31.063Z</time></trkpt><trkpt lat="42.1178621" lon="11.972458"><ele>340.0</ele><time>2026-04-18T12:00:32.056Z</time></trkpt><trkpt lat="42.1179149" lon="11.9723542"><ele>340.0</ele><time>2026-04-18T12:00:33.067Z</time></trkpt><trkpt lat="42.1179583" lon="11.9722589"><ele>340.0</ele><time>2026-04-18T12:00:34.064Z</time></trkpt><trkpt lat="42.1179935" lon="11.9721786"><ele>340.0</ele><time>2026-04-18T12:00:35.066Z</time></trkpt><trkpt lat="42.1180674" lon="11.9720997"><ele>340.0</ele><time>2026-04-18T12:00:37.061Z</time></trkpt><trkpt lat="42.118097" lon="11.9721789"><ele>340.0</ele><time>2026-04-18T12:00:38.068Z</time></trkpt><trkpt lat="42.1181244" lon="11.9722611"><ele>340.0</ele><time>2026-04-18T12:00:39.063Z</time></trkpt><trkpt lat="42.1180994" lon="11.9723583"><ele>340.0</ele><time>2026-04-18T12:00:40.075Z</time></trkpt><trkpt lat="42.1180321" lon="11.9724754"><ele>340.0</ele><time>2026-04-18T12:00:41.075Z</time></trkpt><trkpt lat="42.1179718" lon="11.9725867"><ele>340.0</ele><time>2026-04-18T12:00:42.074Z</time></trkpt><trkpt lat="42.1179186" lon="11.9726866"><ele>340.0</ele><time>2026-04-18T12:00:43.065Z</time></trkpt><trkpt lat="42.117861" lon="11.9727831"><ele>338.4</ele><time>2026-04-18T12:00:44.073Z</time></trkpt><trkpt lat="42.1177853" lon="11.9728898"><ele>336.8</ele><time>2026-04-18T12:00:45.076Z</time></trkpt><trkpt lat="42.1177038" lon="11.9729981"><ele>335.20000000000005</ele><time>2026-04-18T12:00:46.07Z</time></trkpt><trkpt lat="42.1176129" lon="11.9731027"><ele>333.6</ele><time>2026-04-18T12:00:47.074Z</time></trkpt><trkpt lat="42.1175308" lon="11.9731865"><ele>332.0</ele><time>2026-04-18T12:00:48.066Z</time></trkpt><trkpt lat="42.1174702" lon="11.973241"><ele>332.0</ele><time>2026-04-18T12:00:49.064Z</time></trkpt><trkpt lat="42.1174004" lon="11.9732566"><ele>332.0</ele><time>2026-04-18T12:00:51.061Z</time></trkpt><trkpt lat="42.1174075" lon="11.9731563"><ele>332.0</ele><time>2026-04-18T12:00:53.064Z</time></trkpt><trkpt lat="42.1174646" lon="11.9730986"><ele>332.0</ele><time>2026-04-18T12:00:54.065Z</time></trkpt><trkpt lat="42.1175138" lon="11.9729986"><ele>332.0</ele><time>2026-04-18T12:00:56.065Z</time></trkpt><trkpt lat="42.1174382" lon="11.9729253"><ele>332.0</ele><time>2026-04-18T12:00:58.065Z</time></trkpt><trkpt lat="42.1173808" lon="11.9728822"><ele>333.33333333333337</ele><time>2026-04-18T12:00:59.066Z</time></trkpt><trkpt lat="42.1172971" lon="11.9728895"><ele>334.6666666666667</ele><time>2026-04-18T12:01:00.06Z</time></trkpt><trkpt lat="42.117231" lon="11.9729689"><ele>336.0</ele><time>2026-04-18T12:01:01.061Z</time></trkpt><trkpt lat="42.1172004" lon="11.9730767"><ele>337.3333333333333</ele><time>2026-04-18T12:01:02.067Z</time></trkpt><trkpt lat="42.1171922" lon="11.9732002"><ele>338.66666666666663</ele><time>2026-04-18T12:01:03.059Z</time></trkpt><trkpt lat="42.1172001" lon="11.9732943"><ele>340.0</ele><time>2026-04-18T12:01:04.062Z</time></trkpt><trkpt lat="42.1171355" lon="11.9733306"><ele>340.0</ele><time>2026-04-18T12:01:06.063Z</time></trkpt><trkpt lat="42.117051" lon="11.9732775"><ele>340.0</ele><time>2026-04-18T12:01:08.063Z</time></trkpt><trkpt lat="42.116976" lon="11.9731521"><ele>340.0</ele><time>2026-04-18T12:01:10.055Z</time></trkpt><trkpt lat="42.1169262" lon="11.9730799"><ele>340.0</ele><time>2026-04-18T12:01:11.064Z</time></trkpt><trkpt lat="42.1168785" lon="11.9730044"><ele>340.0</ele><time>2026-04-18T12:01:12.067Z</time></trkpt><trkpt lat="42.1169066" lon="11.9729168"><ele>340.0</ele><time>2026-04-18T12:01:14.063Z</time></trkpt><trkpt lat="42.1169691" lon="11.9728949"><ele>340.0</ele><time>2026-04-18T12:01:15.059Z</time></trkpt><trkpt lat="42.1170593" lon="11.9728919"><ele>340.0</ele><time>2026-04-18T12:01:16.06Z</time></trkpt><trkpt lat="42.1171471" lon="11.9728893"><ele>340.0</ele><time>2026-04-18T12:01:17.059Z</time></trkpt><trkpt lat="42.1172262" lon="11.9728343"><ele>340.0</ele><time>2026-04-18T12:01:18.064Z</time></trkpt><trkpt lat="42.1172903" lon="11.9727403"><ele>340.0</ele><time>2026-04-18T12:01:19.061Z</time></trkpt><trkpt lat="42.1173378" lon="11.9726165"><ele>340.0</ele><time>2026-04-18T12:01:20.059Z</time></trkpt><trkpt lat="42.1173804" lon="11.9725007"><ele>340.0</ele><time>2026-04-18T12:01:21.062Z</time></trkpt><trkpt lat="42.1174041" lon="11.9724079"><ele>340.0</ele><time>2026-04-18T12:01:22.068Z</time></trkpt><trkpt lat="42.1174647" lon="11.9723599"><ele>340.0</ele><time>2026-04-18T12:01:23.064Z</time></trkpt><trkpt lat="42.1175337" lon="11.9723309"><ele>340.0</ele><time>2026-04-18T12:01:24.067Z</time></trkpt><trkpt lat="42.1175885" lon="11.9722468"><ele>340.0</ele><time>2026-04-18T12:01:26.071Z</time></trkpt><trkpt lat="42.1175616" lon="11.9721486"><ele>340.0</ele><time>2026-04-18T12:01:28.077Z</time></trkpt><trkpt lat="42.117472" lon="11.9721634"><ele>340.0</ele><time>2026-04-18T12:01:30.068Z</time></trkpt><trkpt lat="42.117413" lon="11.9722379"><ele>340.0</ele><time>2026-04-18T12:01:31.063Z</time></trkpt><trkpt lat="42.1173374" lon="11.972317"><ele>340.0</ele><time>2026-04-18T12:01:32.074Z</time></trkpt><trkpt lat="42.1172705" lon="11.9724239"><ele>340.0</ele><time>2026-04-18T12:01:33.075Z</time></trkpt><trkpt lat="42.1172203" lon="11.9725336"><ele>340.0</ele><time>2026-04-18T12:01:34.075Z</time></trkpt><trkpt lat="42.1171734" lon="11.9726168"><ele>340.0</ele><time>2026-04-18T12:01:35.071Z</time></trkpt><trkpt lat="42.1171173" lon="11.9726673"><ele>340.0</ele><time>2026-04-18T12:01:36.076Z</time></trkpt><trkpt lat="42.117036" lon="11.9727004"><ele>340.0</ele><time>2026-04-18T12:01:37.07Z</time></trkpt><trkpt lat="42.1169359" lon="11.972735"><ele>340.0</ele><time>2026-04-18T12:01:38.067Z</time></trkpt><trkpt lat="42.116823" lon="11.9727794"><ele>340.0</ele><time>2026-04-18T12:01:39.055Z</time></trkpt><trkpt lat="42.116711" lon="11.9728723"><ele>340.0</ele><time>2026-04-18T12:01:40.058Z</time></trkpt><trkpt lat="42.1166116" lon="11.9730177"><ele>340.0</ele><time>2026-04-18T12:01:41.055Z</time></trkpt><trkpt lat="42.1165309" lon="11.9731595"><ele>340.0</ele><time>2026-04-18T12:01:42.059Z</time></trkpt><trkpt lat="42.1164623" lon="11.9733253"><ele>341.75</ele><time>2026-04-18T12:01:43.071Z</time></trkpt><trkpt lat="42.116404" lon="11.9735249"><ele>343.5</ele><time>2026-04-18T12:01:44.065Z</time></trkpt><trkpt lat="42.1163671" lon="11.9737126"><ele>345.25</ele><time>2026-04-18T12:01:45.064Z</time></trkpt><trkpt lat="42.1163361" lon="11.9738748"><ele>347.0</ele><time>2026-04-18T12:01:46.058Z</time></trkpt><trkpt lat="42.1163093" lon="11.9740173"><ele>347.0</ele><time>2026-04-18T12:01:47.069Z</time></trkpt><trkpt lat="42.1163092" lon="11.9741236"><ele>347.0</ele><time>2026-04-18T12:01:48.06Z</time></trkpt><trkpt lat="42.116324" lon="11.9742067"><ele>347.0</ele><time>2026-04-18T12:01:49.066Z</time></trkpt><trkpt lat="42.116388" lon="11.9742986"><ele>347.0</ele><time>2026-04-18T12:01:51.06Z</time></trkpt><trkpt lat="42.1164485" lon="11.9742741"><ele>347.0</ele><time>2026-04-18T12:01:53.066Z</time></trkpt><trkpt lat="42.1164682" lon="11.9741034"><ele>347.0</ele><time>2026-04-18T12:01:55.064Z</time></trkpt><trkpt lat="42.1164669" lon="11.9739789"><ele>347.0</ele><time>2026-04-18T12:01:56.068Z</time></trkpt><trkpt lat="42.1164797" lon="11.9738301"><ele>347.0</ele><time>2026-04-18T12:01:57.065Z</time></trkpt><trkpt lat="42.1165052" lon="11.9736965"><ele>347.0</ele><time>2026-04-18T12:01:58.062Z</time></trkpt><trkpt lat="42.1165356" lon="11.9735933"><ele>347.0</ele><time>2026-04-18T12:01:59.066Z</time></trkpt><trkpt lat="42.1166138" lon="11.9735075"><ele>347.0</ele><time>2026-04-18T12:02:01.064Z</time></trkpt><trkpt lat="42.116742" lon="11.9735254"><ele>345.5</ele><time>2026-04-18T12:02:03.065Z</time></trkpt><trkpt lat="42.1168267" lon="11.973582"><ele>344.0</ele><time>2026-04-18T12:02:04.064Z</time></trkpt><trkpt lat="42.1169124" lon="11.9736219"><ele>342.5</ele><time>2026-04-18T12:02:05.06Z</time></trkpt><trkpt lat="42.1169808" lon="11.973655"><ele>341.0</ele><time>2026-04-18T12:02:06.069Z</time></trkpt><trkpt lat="42.1170571" lon="11.9736968"><ele>339.5</ele><time>2026-04-18T12:02:07.059Z</time></trkpt><trkpt lat="42.11713" lon="11.9737658"><ele>338.0</ele><time>2026-04-18T12:02:09.06Z</time></trkpt><trkpt lat="42.1170662" lon="11.9738168"><ele>338.0</ele><time>2026-04-18T12:02:11.06Z</time></trkpt><trkpt lat="42.1169961" lon="11.9738369"><ele>338.0</ele><time>2026-04-18T12:02:12.063Z</time></trkpt><trkpt lat="42.1168997" lon="11.9739131"><ele>338.0</ele><time>2026-04-18T12:02:14.059Z</time></trkpt><trkpt lat="42.1168564" lon="11.9739788"><ele>338.0</ele><time>2026-04-18T12:02:15.067Z</time></trkpt><trkpt lat="42.1168573" lon="11.97409"><ele>338.0</ele><time>2026-04-18T12:02:16.069Z</time></trkpt><trkpt lat="42.1168964" lon="11.9742167"><ele>338.0</ele><time>2026-04-18T12:02:17.059Z</time></trkpt><trkpt lat="42.1169224" lon="11.974304"><ele>337.5</ele><time>2026-04-18T12:02:18.069Z</time></trkpt><trkpt lat="42.1169289" lon="11.9744285"><ele>337.0</ele><time>2026-04-18T12:02:20.073Z</time></trkpt><trkpt lat="42.1168793" lon="11.9744916"><ele>336.5</ele><time>2026-04-18T12:02:21.06Z</time></trkpt><trkpt lat="42.1168114" lon="11.9745632"><ele>336.0</ele><time>2026-04-18T12:02:22.058Z</time></trkpt><trkpt lat="42.1167681" lon="11.9746312"><ele>335.5</ele><time>2026-04-18T12:02:23.058Z</time></trkpt><trkpt lat="42.1167494" lon="11.9747321"><ele>335.0</ele><time>2026-04-18T12:02:25.057Z</time></trkpt><trkpt lat="42.1168517" lon="11.9747466"><ele>335.0</ele><time>2026-04-18T12:02:27.062Z</time></trkpt><trkpt lat="42.1169052" lon="11.9746707"><ele>335.0</ele><time>2026-04-18T12:02:28.062Z</time></trkpt><trkpt lat="42.1169457" lon="11.9745696"><ele>335.0</ele><time>2026-04-18T12:02:29.058Z</time></trkpt><trkpt lat="42.1169906" lon="11.9744642"><ele>335.0</ele><time>2026-04-18T12:02:30.066Z</time></trkpt><trkpt lat="42.1170223" lon="11.9743585"><ele>335.0</ele><time>2026-04-18T12:02:31.063Z</time></trkpt><trkpt lat="42.1170448" lon="11.974263"><ele>335.0</ele><time>2026-04-18T12:02:32.057Z</time></trkpt><trkpt lat="42.1170213" lon="11.9740955"><ele>335.5</ele><time>2026-04-18T12:02:34.062Z</time></trkpt><trkpt lat="42.1170322" lon="11.9739718"><ele>336.0</ele><time>2026-04-18T12:02:36.059Z</time></trkpt><trkpt lat="42.11713" lon="11.9738885"><ele>336.5</ele><time>2026-04-18T12:02:38.06Z</time></trkpt><trkpt lat="42.1171839" lon="11.9738412"><ele>337.0</ele><time>2026-04-18T12:02:39.06Z</time></trkpt><trkpt lat="42.117217" lon="11.9737359"><ele>337.5</ele><time>2026-04-18T12:02:40.062Z</time></trkpt><trkpt lat="42.1172476" lon="11.9736298"><ele>338.0</ele><time>2026-04-18T12:02:41.064Z</time></trkpt><trkpt lat="42.1172805" lon="11.9735338"><ele>338.0</ele><time>2026-04-18T12:02:42.064Z</time></trkpt><trkpt lat="42.1173479" lon="11.9734556"><ele>338.0</ele><time>2026-04-18T12:02:43.059Z</time></trkpt><trkpt lat="42.1174274" lon="11.9733791"><ele>338.0</ele><time>2026-04-18T12:02:44.063Z</time></trkpt><trkpt lat="42.1175118" lon="11.9732967"><ele>338.0</ele><time>2026-04-18T12:02:45.063Z</time></trkpt><trkpt lat="42.1175982" lon="11.9732161"><ele>338.0</ele><time>2026-04-18T12:02:46.065Z</time></trkpt><trkpt lat="42.1176707" lon="11.973148"><ele>336.79999999999995</ele><time>2026-04-18T12:02:47.064Z</time></trkpt><trkpt lat="42.117746" lon="11.9730751"><ele>335.6</ele><time>2026-04-18T12:02:48.057Z</time></trkpt><trkpt lat="42.1178412" lon="11.9729974"><ele>334.4</ele><time>2026-04-18T12:02:49.066Z</time></trkpt><trkpt lat="42.1179405" lon="11.9729139"><ele>333.20000000000005</ele><time>2026-04-18T12:02:50.067Z</time></trkpt><trkpt lat="42.1180187" lon="11.9728209"><ele>332.0</ele><time>2026-04-18T12:02:51.086Z</time></trkpt><trkpt lat="42.1180989" lon="11.9727234"><ele>332.0</ele><time>2026-04-18T12:02:52.069Z</time></trkpt><trkpt lat="42.1181605" lon="11.9725901"><ele>332.0</ele><time>2026-04-18T12:02:53.066Z</time></trkpt><trkpt lat="42.1182" lon="11.9724495"><ele>332.0</ele><time>2026-04-18T12:02:54.068Z</time></trkpt><trkpt lat="42.1182174" lon="11.9723214"><ele>332.0</ele><time>2026-04-18T12:02:55.073Z</time></trkpt><trkpt lat="42.1182181" lon="11.9722164"><ele>332.0</ele><time>2026-04-18T12:02:56.067Z</time></trkpt><trkpt lat="42.1182113" lon="11.9721171"><ele>333.1428571428571</ele><time>2026-04-18T12:02:57.06Z</time></trkpt><trkpt lat="42.1181937" lon="11.9720292"><ele>334.28571428571433</ele><time>2026-04-18T12:02:58.065Z</time></trkpt><trkpt lat="42.1181574" lon="11.9719582"><ele>335.42857142857144</ele><time>2026-04-18T12:02:59.068Z</time></trkpt><trkpt lat="42.1181139" lon="11.9718895"><ele>336.57142857142856</ele><time>2026-04-18T12:03:00.067Z</time></trkpt><trkpt lat="42.1180476" lon="11.9718457"><ele>337.71428571428567</ele><time>2026-04-18T12:03:01.067Z</time></trkpt><trkpt lat="42.117986" lon="11.971824"><ele>338.8571428571429</ele><time>2026-04-18T12:03:02.064Z</time></trkpt><trkpt lat="42.1179171" lon="11.9718583"><ele>340.0</ele><time>2026-04-18T12:03:03.072Z</time></trkpt><trkpt lat="42.1178908" lon="11.971972"><ele>340.0</ele><time>2026-04-18T12:03:04.069Z</time></trkpt><trkpt lat="42.1178753" lon="11.9721117"><ele>340.0</ele><time>2026-04-18T12:03:05.056Z</time></trkpt><trkpt lat="42.1178439" lon="11.9722082"><ele>340.0</ele><time>2026-04-18T12:03:06.077Z</time></trkpt><trkpt lat="42.1178058" lon="11.9722964"><ele>340.0</ele><time>2026-04-18T12:03:07.061Z</time></trkpt><trkpt lat="42.1177558" lon="11.9723712"><ele>340.0</ele><time>2026-04-18T12:03:08.069Z</time></trkpt><trkpt lat="42.1177076" lon="11.9724437"><ele>340.0</ele><time>2026-04-18T12:03:09.067Z</time></trkpt><trkpt lat="42.1176512" lon="11.9725177"><ele>340.0</ele><time>2026-04-18T12:03:10.058Z</time></trkpt><trkpt lat="42.117607" lon="11.9726175"><ele>340.0</ele><time>2026-04-18T12:03:11.055Z</time></trkpt><trkpt lat="42.1175715" lon="11.9726958"><ele>340.0</ele><time>2026-04-18T12:03:12.066Z</time></trkpt><trkpt lat="42.1175057" lon="11.9727966"><ele>340.0</ele><time>2026-04-18T12:03:14.069Z</time></trkpt><trkpt lat="42.1174293" lon="11.9728523"><ele>340.0</ele><time>2026-04-18T12:03:16.066Z</time></trkpt><trkpt lat="42.1173356" lon="11.9729247"><ele>340.0</ele><time>2026-04-18T12:03:18.072Z</time></trkpt><trkpt lat="42.1172493" lon="11.9730008"><ele>340.0</ele><time>2026-04-18T12:03:20.065Z</time></trkpt><trkpt lat="42.1172264" lon="11.9731312"><ele>340.0</ele><time>2026-04-18T12:03:22.054Z</time></trkpt><trkpt lat="42.1172214" lon="11.9732818"><ele>340.0</ele><time>2026-04-18T12:03:24.066Z</time></trkpt><trkpt lat="42.117169" lon="11.9733428"><ele>340.0</ele><time>2026-04-18T12:03:26.063Z</time></trkpt><trkpt lat="42.1170842" lon="11.9732981"><ele>340.0</ele><time>2026-04-18T12:03:28.063Z</time></trkpt><trkpt lat="42.1170167" lon="11.9732215"><ele>340.0</ele><time>2026-04-18T12:03:30.066Z</time></trkpt><trkpt lat="42.1169534" lon="11.9731843"><ele>340.0</ele><time>2026-04-18T12:03:32.068Z</time></trkpt><trkpt lat="42.116894" lon="11.9732782"><ele>340.0</ele><time>2026-04-18T12:03:34.074Z</time></trkpt><trkpt lat="42.1168567" lon="11.9733611"><ele>340.0</ele><time>2026-04-18T12:03:35.069Z</time></trkpt><trkpt lat="42.1168292" lon="11.9734685"><ele>340.0</ele><time>2026-04-18T12:03:36.06Z</time></trkpt><trkpt lat="42.1168079" lon="11.9735732"><ele>340.0</ele><time>2026-04-18T12:03:37.081Z</time></trkpt><trkpt lat="42.1167902" lon="11.9736854"><ele>339.6</ele><time>2026-04-18T12:03:38.074Z</time></trkpt><trkpt lat="42.116773" lon="11.9738093"><ele>339.2</ele><time>2026-04-18T12:03:39.067Z</time></trkpt><trkpt lat="42.1167534" lon="11.9739471"><ele>338.79999999999995</ele><time>2026-04-18T12:03:40.063Z</time></trkpt><trkpt lat="42.116733" lon="11.9740941"><ele>338.4</ele><time>2026-04-18T12:03:41.071Z</time></trkpt><trkpt lat="42.1167139" lon="11.9742365"><ele>338.0</ele><time>2026-04-18T12:03:42.061Z</time></trkpt><trkpt lat="42.1166933" lon="11.9743583"><ele>337.4</ele><time>2026-04-18T12:03:43.066Z</time></trkpt><trkpt lat="42.1166593" lon="11.974473"><ele>336.79999999999995</ele><time>2026-04-18T12:03:44.065Z</time></trkpt><trkpt lat="42.1166141" lon="11.9745848"><ele>336.2</ele><time>2026-04-18T12:03:45.06Z</time></trkpt><trkpt lat="42.1165609" lon="11.9746944"><ele>335.6</ele><time>2026-04-18T12:03:46.06Z</time></trkpt><trkpt lat="42.1165019" lon="11.9747881"><ele>335.0</ele><time>2026-04-18T12:03:47.062Z</time></trkpt><trkpt lat="42.1164426" lon="11.9748789"><ele>343.0</ele><time>2026-04-18T12:03:48.067Z</time></trkpt><trkpt lat="42.1163602" lon="11.9749739"><ele>343.0</ele><time>2026-04-18T12:03:49.069Z</time></trkpt><trkpt lat="42.116289" lon="11.9750574"><ele>341.0</ele><time>2026-04-18T12:03:50.074Z</time></trkpt><trkpt lat="42.1162374" lon="11.9751192"><ele>341.0</ele><time>2026-04-18T12:03:51.063Z</time></trkpt><trkpt lat="42.1161659" lon="11.9751841"><ele>341.0</ele><time>2026-04-18T12:03:53.066Z</time></trkpt><trkpt lat="42.1160922" lon="11.9751767"><ele>341.0</ele><time>2026-04-18T12:03:57.066Z</time></trkpt></trkseg><trkseg><trkpt lat="42.1161577" lon="11.9752628"><ele>341.0</ele><time>2026-04-18T12:14:54.135Z</time></trkpt><trkpt lat="42.116217" lon="11.9752284"><ele>341.0</ele><time>2026-04-18T12:14:56.093Z</time></trkpt><trkpt lat="42.116295" lon="11.9751423"><ele>341.0</ele><time>2026-04-18T12:14:58.07Z</time></trkpt><trkpt lat="42.1163592" lon="11.9750072"><ele>341.0</ele><time>2026-04-18T12:15:00.075Z</time></trkpt><trkpt lat="42.1164299" lon="11.9748837"><ele>341.0</ele><time>2026-04-18T12:15:02.065Z</time></trkpt><trkpt lat="42.1164862" lon="11.9747889"><ele>341.33333333333337</ele><time>2026-04-18T12:15:04.064Z</time></trkpt><trkpt lat="42.1165207" lon="11.974708"><ele>341.6666666666667</ele><time>2026-04-18T12:15:06.09Z</time></trkpt><trkpt lat="42.1165066" lon="11.974592"><ele>342.0</ele><time>2026-04-18T12:15:09.063Z</time></trkpt><trkpt lat="42.1164601" lon="11.9745111"><ele>342.3333333333333</ele><time>2026-04-18T12:15:11.067Z</time></trkpt><trkpt lat="42.1163877" lon="11.97444"><ele>342.66666666666663</ele><time>2026-04-18T12:15:13.071Z</time></trkpt><trkpt lat="42.1163181" lon="11.9743777"><ele>343.0</ele><time>2026-04-18T12:15:15.063Z</time></trkpt><trkpt lat="42.1162524" lon="11.9743068"><ele>343.0</ele><time>2026-04-18T12:15:17.078Z</time></trkpt><trkpt lat="42.1161839" lon="11.9742492"><ele>343.0</ele><time>2026-04-18T12:15:19.072Z</time></trkpt><trkpt lat="42.1161006" lon="11.9742338"><ele>343.0</ele><time>2026-04-18T12:15:22.078Z</time></trkpt><trkpt lat="42.1160446" lon="11.9742815"><ele>343.0</ele><time>2026-04-18T12:18:01.075Z</time></trkpt><trkpt lat="42.1159699" lon="11.9742884"><ele>343.0</ele><time>2026-04-18T12:18:04.078Z</time></trkpt><trkpt lat="42.1159057" lon="11.9741962"><ele>343.0</ele><time>2026-04-18T12:19:10.081Z</time></trkpt><trkpt lat="42.1158942" lon="11.9741069"><ele>343.66666666666663</ele><time>2026-04-18T12:19:12.072Z</time></trkpt><trkpt lat="42.1159238" lon="11.9740242"><ele>344.3333333333333</ele><time>2026-04-18T12:19:23.073Z</time></trkpt><trkpt lat="42.1159836" lon="11.9739288"><ele>345.0</ele><time>2026-04-18T12:19:25.061Z</time></trkpt><trkpt lat="42.116022" lon="11.9738576"><ele>345.6666666666667</ele><time>2026-04-18T12:19:26.069Z</time></trkpt><trkpt lat="42.1160643" lon="11.9737791"><ele>346.33333333333337</ele><time>2026-04-18T12:19:27.064Z</time></trkpt><trkpt lat="42.1161093" lon="11.9736888"><ele>347.0</ele><time>2026-04-18T12:19:28.082Z</time></trkpt><trkpt lat="42.1161527" lon="11.9735921"><ele>347.0</ele><time>2026-04-18T12:19:29.066Z</time></trkpt><trkpt lat="42.1161947" lon="11.9734878"><ele>347.0</ele><time>2026-04-18T12:19:30.068Z</time></trkpt><trkpt lat="42.1162386" lon="11.9733785"><ele>347.0</ele><time>2026-04-18T12:19:31.075Z</time></trkpt><trkpt lat="42.1162844" lon="11.9732655"><ele>347.0</ele><time>2026-04-18T12:19:32.068Z</time></trkpt><trkpt lat="42.1163284" lon="11.9731603"><ele>347.0</ele><time>2026-04-18T12:19:33.064Z</time></trkpt><trkpt lat="42.1163823" lon="11.9730616"><ele>348.0</ele><time>2026-04-18T12:19:34.074Z</time></trkpt><trkpt lat="42.1164458" lon="11.9729686"><ele>349.0</ele><time>2026-04-18T12:19:35.081Z</time></trkpt><trkpt lat="42.116519" lon="11.9728824"><ele>350.0</ele><time>2026-04-18T12:19:36.072Z</time></trkpt><trkpt lat="42.1166002" lon="11.9728021"><ele>351.0</ele><time>2026-04-18T12:19:37.065Z</time></trkpt><trkpt lat="42.1166944" lon="11.9727199"><ele>352.0</ele><time>2026-04-18T12:19:38.067Z</time></trkpt><trkpt lat="42.1167891" lon="11.9726386"><ele>351.75</ele><time>2026-04-18T12:19:39.079Z</time></trkpt><trkpt lat="42.1168895" lon="11.972552"><ele>351.5</ele><time>2026-04-18T12:19:40.077Z</time></trkpt><trkpt lat="42.1169891" lon="11.9724648"><ele>351.25</ele><time>2026-04-18T12:19:41.065Z</time></trkpt><trkpt lat="42.1170851" lon="11.9723762"><ele>351.0</ele><time>2026-04-18T12:19:42.086Z</time></trkpt><trkpt lat="42.1171867" lon="11.972281"><ele>351.0</ele><time>2026-04-18T12:19:43.07Z</time></trkpt><trkpt lat="42.1172934" lon="11.9721803"><ele>351.0</ele><time>2026-04-18T12:19:44.066Z</time></trkpt><trkpt lat="42.1174026" lon="11.9720801"><ele>351.0</ele><time>2026-04-18T12:19:45.124Z</time></trkpt><trkpt lat="42.1175131" lon="11.9719812"><ele>351.0</ele><time>2026-04-18T12:19:46.117Z</time></trkpt><trkpt lat="42.1176241" lon="11.9718812"><ele>351.75</ele><time>2026-04-18T12:19:47.066Z</time></trkpt><trkpt lat="42.1177338" lon="11.9717787"><ele>352.5</ele><time>2026-04-18T12:19:48.07Z</time></trkpt><trkpt lat="42.117843" lon="11.9716763"><ele>353.25</ele><time>2026-04-18T12:19:49.09Z</time></trkpt><trkpt lat="42.1179543" lon="11.9715769"><ele>354.0</ele><time>2026-04-18T12:19:50.062Z</time></trkpt><trkpt lat="42.1180664" lon="11.9714774"><ele>354.0</ele><time>2026-04-18T12:19:51.081Z</time></trkpt><trkpt lat="42.1181831" lon="11.97139"><ele>354.0</ele><time>2026-04-18T12:19:52.074Z</time></trkpt><trkpt lat="42.1183222" lon="11.9713482"><ele>354.0</ele><time>2026-04-18T12:19:53.067Z</time></trkpt><trkpt lat="42.1184602" lon="11.971316"><ele>354.0</ele><time>2026-04-18T12:19:54.073Z</time></trkpt><trkpt lat="42.1185995" lon="11.9712657"><ele>350.25</ele><time>2026-04-18T12:19:55.076Z</time></trkpt><trkpt lat="42.1187362" lon="11.9711996"><ele>346.5</ele><time>2026-04-18T12:19:56.069Z</time></trkpt><trkpt lat="42.1188713" lon="11.9711148"><ele>342.75</ele><time>2026-04-18T12:19:57.077Z</time></trkpt><trkpt lat="42.118997" lon="11.9710094"><ele>339.0</ele><time>2026-04-18T12:19:58.074Z</time></trkpt><trkpt lat="42.1191092" lon="11.9708803"><ele>339.3333333333333</ele><time>2026-04-18T12:19:59.057Z</time></trkpt><trkpt lat="42.1192053" lon="11.9707285"><ele>339.66666666666663</ele><time>2026-04-18T12:20:00.073Z</time></trkpt><trkpt lat="42.1192858" lon="11.970556"><ele>340.0</ele><time>2026-04-18T12:20:01.069Z</time></trkpt><trkpt lat="42.1193589" lon="11.9703713"><ele>340.0</ele><time>2026-04-18T12:20:02.105Z</time></trkpt><trkpt lat="42.1194319" lon="11.9701864"><ele>340.0</ele><time>2026-04-18T12:20:03.073Z</time></trkpt><trkpt lat="42.1195081" lon="11.9700057"><ele>340.0</ele><time>2026-04-18T12:20:04.071Z</time></trkpt><trkpt lat="42.1195941" lon="11.9698349"><ele>338.66666666666663</ele><time>2026-04-18T12:20:05.065Z</time></trkpt><trkpt lat="42.119693" lon="11.9696787"><ele>337.3333333333333</ele><time>2026-04-18T12:20:06.07Z</time></trkpt><trkpt lat="42.1198037" lon="11.9695342"><ele>336.0</ele><time>2026-04-18T12:20:07.068Z</time></trkpt><trkpt lat="42.1199189" lon="11.9693979"><ele>336.0</ele><time>2026-04-18T12:20:08.065Z</time></trkpt><trkpt lat="42.1200371" lon="11.9692689"><ele>336.0</ele><time>2026-04-18T12:20:09.071Z</time></trkpt><trkpt lat="42.1201579" lon="11.9691477"><ele>336.0</ele><time>2026-04-18T12:20:10.075Z</time></trkpt><trkpt lat="42.1202765" lon="11.9690322"><ele>336.0</ele><time>2026-04-18T12:20:11.071Z</time></trkpt><trkpt lat="42.1203807" lon="11.968922"><ele>338.8</ele><time>2026-04-18T12:20:12.069Z</time></trkpt><trkpt lat="42.1204715" lon="11.9688244"><ele>341.6</ele><time>2026-04-18T12:20:13.068Z</time></trkpt><trkpt lat="42.1205437" lon="11.9687417"><ele>344.4</ele><time>2026-04-18T12:20:14.068Z</time></trkpt><trkpt lat="42.1206021" lon="11.9686736"><ele>347.2</ele><time>2026-04-18T12:20:15.076Z</time></trkpt><trkpt lat="42.1206859" lon="11.9685761"><ele>350.0</ele><time>2026-04-18T12:20:17.067Z</time></trkpt><trkpt lat="42.1207286" lon="11.9684968"><ele>349.2</ele><time>2026-04-18T12:20:19.068Z</time></trkpt><trkpt lat="42.1207953" lon="11.9683651"><ele>348.4</ele><time>2026-04-18T12:20:26.068Z</time></trkpt><trkpt lat="42.1208182" lon="11.9682547"><ele>347.6</ele><time>2026-04-18T12:20:28.068Z</time></trkpt><trkpt lat="42.1208356" lon="11.9681371"><ele>346.8</ele><time>2026-04-18T12:20:43.077Z</time></trkpt><trkpt lat="42.1208326" lon="11.9679811"><ele>346.0</ele><time>2026-04-18T12:20:45.07Z</time></trkpt><trkpt lat="42.1208297" lon="11.967876"><ele>346.0</ele><time>2026-04-18T12:20:46.062Z</time></trkpt><trkpt lat="42.1208244" lon="11.9677561"><ele>346.0</ele><time>2026-04-18T12:20:47.063Z</time></trkpt><trkpt lat="42.1208185" lon="11.9676237"><ele>346.0</ele><time>2026-04-18T12:20:48.067Z</time></trkpt><trkpt lat="42.1208169" lon="11.9674694"><ele>346.0</ele><time>2026-04-18T12:20:49.067Z</time></trkpt><trkpt lat="42.1208124" lon="11.9673245"><ele>346.0</ele><time>2026-04-18T12:20:50.077Z</time></trkpt><trkpt lat="42.1207981" lon="11.9671653"><ele>346.5</ele><time>2026-04-18T12:20:51.067Z</time></trkpt><trkpt lat="42.1207671" lon="11.9670035"><ele>347.0</ele><time>2026-04-18T12:20:52.071Z</time></trkpt><trkpt lat="42.1207085" lon="11.9668484"><ele>347.5</ele><time>2026-04-18T12:20:53.063Z</time></trkpt><trkpt lat="42.1206464" lon="11.9666915"><ele>348.0</ele><time>2026-04-18T12:20:54.069Z</time></trkpt><trkpt lat="42.1205696" lon="11.9665422"><ele>352.75</ele><time>2026-04-18T12:20:55.081Z</time></trkpt><trkpt lat="42.1204968" lon="11.9663914"><ele>357.5</ele><time>2026-04-18T12:20:56.065Z</time></trkpt><trkpt lat="42.120416" lon="11.9662526"><ele>362.25</ele><time>2026-04-18T12:20:57.063Z</time></trkpt><trkpt lat="42.1203361" lon="11.9661041"><ele>367.0</ele><time>2026-04-18T12:20:58.064Z</time></trkpt><trkpt lat="42.1202628" lon="11.965971"><ele>364.6</ele><time>2026-04-18T12:20:59.07Z</time></trkpt><trkpt lat="42.1202084" lon="11.9658375"><ele>362.20000000000005</ele><time>2026-04-18T12:21:00.069Z</time></trkpt><trkpt lat="42.1201851" lon="11.9656888"><ele>359.8</ele><time>2026-04-18T12:21:01.072Z</time></trkpt><trkpt lat="42.120183" lon="11.9655368"><ele>357.4</ele><time>2026-04-18T12:21:02.072Z</time></trkpt><trkpt lat="42.120193" lon="11.9653952"><ele>355.0</ele><time>2026-04-18T12:21:03.074Z</time></trkpt><trkpt lat="42.1201933" lon="11.9652544"><ele>355.0</ele><time>2026-04-18T12:21:04.068Z</time></trkpt><trkpt lat="42.1201653" lon="11.9651108"><ele>355.0</ele><time>2026-04-18T12:21:05.064Z</time></trkpt><trkpt lat="42.120107" lon="11.9649649"><ele>355.0</ele><time>2026-04-18T12:21:06.071Z</time></trkpt><trkpt lat="42.12003" lon="11.9648151"><ele>355.0</ele><time>2026-04-18T12:21:07.064Z</time></trkpt><trkpt lat="42.1199388" lon="11.964656"><ele>352.66666666666663</ele><time>2026-04-18T12:21:08.071Z</time></trkpt><trkpt lat="42.1198538" lon="11.9644783"><ele>350.3333333333333</ele><time>2026-04-18T12:21:09.072Z</time></trkpt><trkpt lat="42.1197793" lon="11.9642744"><ele>348.0</ele><time>2026-04-18T12:21:10.068Z</time></trkpt><trkpt lat="42.1197075" lon="11.9640625"><ele>348.0</ele><time>2026-04-18T12:21:11.063Z</time></trkpt><trkpt lat="42.1196397" lon="11.9638499"><ele>348.0</ele><time>2026-04-18T12:21:12.069Z</time></trkpt><trkpt lat="42.1195751" lon="11.9636438"><ele>348.0</ele><time>2026-04-18T12:21:13.072Z</time></trkpt><trkpt lat="42.1195275" lon="11.9634373"><ele>345.6666666666667</ele><time>2026-04-18T12:21:14.071Z</time></trkpt><trkpt lat="42.1195131" lon="11.9632197"><ele>343.33333333333337</ele><time>2026-04-18T12:21:15.074Z</time></trkpt><trkpt lat="42.1195244" lon="11.9630114"><ele>341.0</ele><time>2026-04-18T12:21:16.122Z</time></trkpt><trkpt lat="42.1195716" lon="11.962829"><ele>341.0</ele><time>2026-04-18T12:21:17.059Z</time></trkpt><trkpt lat="42.1196397" lon="11.9626679"><ele>341.0</ele><time>2026-04-18T12:21:18.065Z</time></trkpt><trkpt lat="42.119758" lon="11.9625558"><ele>341.0</ele><time>2026-04-18T12:21:19.059Z</time></trkpt><trkpt lat="42.1198907" lon="11.9624622"><ele>341.0</ele><time>2026-04-18T12:21:20.06Z</time></trkpt><trkpt lat="42.1199964" lon="11.9623477"><ele>338.20000000000005</ele><time>2026-04-18T12:21:21.065Z</time></trkpt><trkpt lat="42.1200604" lon="11.9622104"><ele>335.40000000000003</ele><time>2026-04-18T12:21:22.06Z</time></trkpt><trkpt lat="42.1200804" lon="11.9620743"><ele>332.6</ele><time>2026-04-18T12:21:23.067Z</time></trkpt><trkpt lat="42.1200667" lon="11.9619289"><ele>329.8</ele><time>2026-04-18T12:21:24.065Z</time></trkpt><trkpt lat="42.1200243" lon="11.9617897"><ele>327.0</ele><time>2026-04-18T12:21:25.068Z</time></trkpt><trkpt lat="42.1199933" lon="11.9616533"><ele>327.0</ele><time>2026-04-18T12:21:26.068Z</time></trkpt><trkpt lat="42.1199864" lon="11.9615254"><ele>327.0</ele><time>2026-04-18T12:21:27.071Z</time></trkpt><trkpt lat="42.1200115" lon="11.9614059"><ele>327.0</ele><time>2026-04-18T12:21:28.066Z</time></trkpt><trkpt lat="42.1200686" lon="11.9613056"><ele>327.0</ele><time>2026-04-18T12:21:29.063Z</time></trkpt><trkpt lat="42.1201212" lon="11.9612165"><ele>327.0</ele><time>2026-04-18T12:21:30.066Z</time></trkpt><trkpt lat="42.1202058" lon="11.9611343"><ele>327.0</ele><time>2026-04-18T12:21:31.065Z</time></trkpt><trkpt lat="42.1203408" lon="11.9611121"><ele>327.0</ele><time>2026-04-18T12:21:32.065Z</time></trkpt><trkpt lat="42.1204544" lon="11.961035"><ele>327.0</ele><time>2026-04-18T12:21:33.063Z</time></trkpt><trkpt lat="42.1205382" lon="11.9609325"><ele>327.0</ele><time>2026-04-18T12:21:34.065Z</time></trkpt><trkpt lat="42.1205795" lon="11.9608154"><ele>328.40000000000003</ele><time>2026-04-18T12:21:35.067Z</time></trkpt><trkpt lat="42.1205947" lon="11.9606877"><ele>329.8</ele><time>2026-04-18T12:21:36.07Z</time></trkpt><trkpt lat="42.1205699" lon="11.9605507"><ele>331.2</ele><time>2026-04-18T12:21:37.069Z</time></trkpt><trkpt lat="42.1205319" lon="11.9604171"><ele>332.6</ele><time>2026-04-18T12:21:38.074Z</time></trkpt><trkpt lat="42.1204959" lon="11.9602691"><ele>334.0</ele><time>2026-04-18T12:21:39.069Z</time></trkpt><trkpt lat="42.1204905" lon="11.9601148"><ele>336.25</ele><time>2026-04-18T12:21:40.067Z</time></trkpt><trkpt lat="42.1205209" lon="11.9599512"><ele>338.5</ele><time>2026-04-18T12:21:41.06Z</time></trkpt><trkpt lat="42.1205755" lon="11.9597949"><ele>340.75</ele><time>2026-04-18T12:21:42.063Z</time></trkpt><trkpt lat="42.1206323" lon="11.9596435"><ele>343.0</ele><time>2026-04-18T12:21:43.061Z</time></trkpt><trkpt lat="42.1206711" lon="11.9594853"><ele>343.0</ele><time>2026-04-18T12:21:44.063Z</time></trkpt><trkpt lat="42.1207039" lon="11.9593365"><ele>343.0</ele><time>2026-04-18T12:21:45.065Z</time></trkpt><trkpt lat="42.1206754" lon="11.9591901"><ele>343.0</ele><time>2026-04-18T12:21:46.073Z</time></trkpt><trkpt lat="42.1206229" lon="11.9590462"><ele>343.0</ele><time>2026-04-18T12:21:47.071Z</time></trkpt><trkpt lat="42.1205596" lon="11.9589064"><ele>342.5</ele><time>2026-04-18T12:21:48.068Z</time></trkpt><trkpt lat="42.1204938" lon="11.9587591"><ele>342.0</ele><time>2026-04-18T12:21:49.067Z</time></trkpt><trkpt lat="42.1204417" lon="11.9585995"><ele>341.5</ele><time>2026-04-18T12:21:50.065Z</time></trkpt><trkpt lat="42.1204172" lon="11.9584319"><ele>341.0</ele><time>2026-04-18T12:21:51.063Z</time></trkpt><trkpt lat="42.1204154" lon="11.9582574"><ele>339.5</ele><time>2026-04-18T12:21:52.062Z</time></trkpt><trkpt lat="42.1204241" lon="11.9580773"><ele>338.0</ele><time>2026-04-18T12:21:53.063Z</time></trkpt><trkpt lat="42.1204364" lon="11.957908"><ele>336.5</ele><time>2026-04-18T12:21:54.079Z</time></trkpt><trkpt lat="42.1204476" lon="11.9577605"><ele>335.0</ele><time>2026-04-18T12:21:55.056Z</time></trkpt><trkpt lat="42.1204587" lon="11.9576333"><ele>335.0</ele><time>2026-04-18T12:21:56.067Z</time></trkpt><trkpt lat="42.120473" lon="11.9575237"><ele>335.0</ele><time>2026-04-18T12:21:57.062Z</time></trkpt><trkpt lat="42.1204939" lon="11.9574405"><ele>335.0</ele><time>2026-04-18T12:21:58.067Z</time></trkpt><trkpt lat="42.1205479" lon="11.9573167"><ele>335.0</ele><time>2026-04-18T12:22:00.068Z</time></trkpt><trkpt lat="42.1206116" lon="11.9572014"><ele>335.0</ele><time>2026-04-18T12:22:02.074Z</time></trkpt><trkpt lat="42.1206556" lon="11.9571356"><ele>335.0</ele><time>2026-04-18T12:22:03.064Z</time></trkpt><trkpt lat="42.1207066" lon="11.9570569"><ele>333.6</ele><time>2026-04-18T12:22:04.087Z</time></trkpt><trkpt lat="42.1207716" lon="11.9569589"><ele>332.2</ele><time>2026-04-18T12:22:05.074Z</time></trkpt><trkpt lat="42.1208461" lon="11.9568484"><ele>330.79999999999995</ele><time>2026-04-18T12:22:06.07Z</time></trkpt><trkpt lat="42.1209147" lon="11.9567442"><ele>329.4</ele><time>2026-04-18T12:22:07.062Z</time></trkpt><trkpt lat="42.1209773" lon="11.9566494"><ele>328.0</ele><time>2026-04-18T12:22:08.066Z</time></trkpt><trkpt lat="42.1210344" lon="11.9565725"><ele>328.0</ele><time>2026-04-18T12:22:09.067Z</time></trkpt><trkpt lat="42.1210931" lon="11.9565176"><ele>328.0</ele><time>2026-04-18T12:22:10.076Z</time></trkpt><trkpt lat="42.1211794" lon="11.9564719"><ele>328.0</ele><time>2026-04-18T12:22:12.067Z</time></trkpt><trkpt lat="42.1211156" lon="11.9564701"><ele>328.0</ele><time>2026-04-18T12:22:19.075Z</time></trkpt><trkpt lat="42.1210644" lon="11.9565227"><ele>328.0</ele><time>2026-04-18T12:22:20.072Z</time></trkpt><trkpt lat="42.1210085" lon="11.9565897"><ele>328.0</ele><time>2026-04-18T12:22:21.065Z</time></trkpt><trkpt lat="42.1209495" lon="11.9566684"><ele>329.4</ele><time>2026-04-18T12:22:22.066Z</time></trkpt><trkpt lat="42.1208848" lon="11.9567594"><ele>330.79999999999995</ele><time>2026-04-18T12:22:23.067Z</time></trkpt><trkpt lat="42.1208177" lon="11.9568568"><ele>332.2</ele><time>2026-04-18T12:22:24.076Z</time></trkpt><trkpt lat="42.1207457" lon="11.9569598"><ele>333.6</ele><time>2026-04-18T12:22:25.076Z</time></trkpt><trkpt lat="42.1206713" lon="11.9570626"><ele>335.0</ele><time>2026-04-18T12:22:26.068Z</time></trkpt><trkpt lat="42.1206082" lon="11.9571479"><ele>335.0</ele><time>2026-04-18T12:22:27.063Z</time></trkpt><trkpt lat="42.1205638" lon="11.9572081"><ele>335.0</ele><time>2026-04-18T12:22:28.064Z</time></trkpt><trkpt lat="42.1205031" lon="11.9572649"><ele>335.0</ele><time>2026-04-18T12:22:30.066Z</time></trkpt><trkpt lat="42.1204526" lon="11.9572101"><ele>335.0</ele><time>2026-04-18T12:22:48.074Z</time></trkpt><trkpt lat="42.1204924" lon="11.9570612"><ele>335.0</ele><time>2026-04-18T12:22:51.06Z</time></trkpt><trkpt lat="42.1205478" lon="11.9569311"><ele>335.0</ele><time>2026-04-18T12:22:53.06Z</time></trkpt><trkpt lat="42.1206027" lon="11.9568047"><ele>335.0</ele><time>2026-04-18T12:22:55.067Z</time></trkpt><trkpt lat="42.1206153" lon="11.9567092"><ele>335.0</ele><time>2026-04-18T12:22:57.07Z</time></trkpt><trkpt lat="42.1206393" lon="11.956565"><ele>335.0</ele><time>2026-04-18T12:23:00.066Z</time></trkpt><trkpt lat="42.1206564" lon="11.9564799"><ele>335.0</ele><time>2026-04-18T12:23:01.059Z</time></trkpt><trkpt lat="42.1206721" lon="11.9563938"><ele>335.0</ele><time>2026-04-18T12:23:02.069Z</time></trkpt><trkpt lat="42.1207279" lon="11.9562491"><ele>335.0</ele><time>2026-04-18T12:23:04.077Z</time></trkpt><trkpt lat="42.120755" lon="11.9561634"><ele>335.4</ele><time>2026-04-18T12:23:05.061Z</time></trkpt><trkpt lat="42.1208013" lon="11.9560136"><ele>335.8</ele><time>2026-04-18T12:23:07.059Z</time></trkpt><trkpt lat="42.1208705" lon="11.9558772"><ele>336.20000000000005</ele><time>2026-04-18T12:23:09.066Z</time></trkpt><trkpt lat="42.1209245" lon="11.9557335"><ele>336.6</ele><time>2026-04-18T12:23:11.064Z</time></trkpt><trkpt lat="42.1209427" lon="11.9556501"><ele>337.0</ele><time>2026-04-18T12:23:12.063Z</time></trkpt><trkpt lat="42.1209612" lon="11.955566"><ele>337.0</ele><time>2026-04-18T12:23:13.068Z</time></trkpt><trkpt lat="42.1209774" lon="11.9554729"><ele>337.0</ele><time>2026-04-18T12:23:14.074Z</time></trkpt><trkpt lat="42.120996" lon="11.95539"><ele>337.0</ele><time>2026-04-18T12:23:15.058Z</time></trkpt><trkpt lat="42.1210353" lon="11.9553028"><ele>337.0</ele><time>2026-04-18T12:23:16.073Z</time></trkpt><trkpt lat="42.1210774" lon="11.9552081"><ele>337.0</ele><time>2026-04-18T12:23:17.065Z</time></trkpt><trkpt lat="42.1211284" lon="11.9551191"><ele>337.0</ele><time>2026-04-18T12:23:18.062Z</time></trkpt><trkpt lat="42.1211809" lon="11.955028"><ele>337.28571428571433</ele><time>2026-04-18T12:23:19.059Z</time></trkpt><trkpt lat="42.1212224" lon="11.9549331"><ele>337.57142857142856</ele><time>2026-04-18T12:23:20.07Z</time></trkpt><trkpt lat="42.1212628" lon="11.954852"><ele>337.8571428571429</ele><time>2026-04-18T12:23:21.066Z</time></trkpt><trkpt lat="42.1213016" lon="11.9547808"><ele>338.14285714285717</ele><time>2026-04-18T12:23:22.064Z</time></trkpt><trkpt lat="42.1213535" lon="11.9547138"><ele>338.42857142857144</ele><time>2026-04-18T12:23:23.06Z</time></trkpt><trkpt lat="42.1214157" lon="11.9546609"><ele>338.7142857142857</ele><time>2026-04-18T12:23:24.072Z</time></trkpt><trkpt lat="42.1214732" lon="11.9546147"><ele>339.0</ele><time>2026-04-18T12:23:25.079Z</time></trkpt><trkpt lat="42.1215909" lon="11.9545827"><ele>339.0</ele><time>2026-04-18T12:23:27.055Z</time></trkpt><trkpt lat="42.1216582" lon="11.9545961"><ele>339.0</ele><time>2026-04-18T12:23:28.066Z</time></trkpt><trkpt lat="42.1217323" lon="11.9546062"><ele>339.0</ele><time>2026-04-18T12:23:29.07Z</time></trkpt><trkpt lat="42.1218078" lon="11.954597"><ele>339.0</ele><time>2026-04-18T12:23:30.056Z</time></trkpt><trkpt lat="42.1218872" lon="11.9545907"><ele>339.0</ele><time>2026-04-18T12:23:31.063Z</time></trkpt><trkpt lat="42.1219668" lon="11.9546074"><ele>339.0</ele><time>2026-04-18T12:23:32.069Z</time></trkpt><trkpt lat="42.1220433" lon="11.9546249"><ele>339.0</ele><time>2026-04-18T12:23:33.061Z</time></trkpt><trkpt lat="42.1221184" lon="11.9546465"><ele>339.0</ele><time>2026-04-18T12:23:34.058Z</time></trkpt><trkpt lat="42.1221893" lon="11.9546629"><ele>339.0</ele><time>2026-04-18T12:23:35.066Z</time></trkpt><trkpt lat="42.1222895" lon="11.95466"><ele>339.0</ele><time>2026-04-18T12:23:37.057Z</time></trkpt><trkpt lat="42.122388" lon="11.9546651"><ele>339.0</ele><time>2026-04-18T12:23:39.06Z</time></trkpt><trkpt lat="42.1224969" lon="11.9546715"><ele>339.8333333333333</ele><time>2026-04-18T12:23:41.059Z</time></trkpt><trkpt lat="42.1226215" lon="11.9547136"><ele>340.6666666666667</ele><time>2026-04-18T12:23:43.074Z</time></trkpt><trkpt lat="42.1226811" lon="11.9547459"><ele>341.5</ele><time>2026-04-18T12:23:44.066Z</time></trkpt><trkpt lat="42.1227418" lon="11.9547818"><ele>342.33333333333337</ele><time>2026-04-18T12:23:45.065Z</time></trkpt><trkpt lat="42.1227937" lon="11.954832"><ele>343.1666666666667</ele><time>2026-04-18T12:23:46.066Z</time></trkpt><trkpt lat="42.1228445" lon="11.9548827"><ele>344.0</ele><time>2026-04-18T12:23:47.064Z</time></trkpt><trkpt lat="42.1228938" lon="11.9549444"><ele>344.00000000000006</ele><time>2026-04-18T12:23:48.071Z</time></trkpt><trkpt lat="42.1229433" lon="11.9550003"><ele>344.0</ele><time>2026-04-18T12:23:49.064Z</time></trkpt><trkpt lat="42.122999" lon="11.9550455"><ele>344.0</ele><time>2026-04-18T12:23:50.062Z</time></trkpt><trkpt lat="42.1230667" lon="11.9550713"><ele>344.0</ele><time>2026-04-18T12:23:51.061Z</time></trkpt><trkpt lat="42.1231398" lon="11.9550893"><ele>344.0</ele><time>2026-04-18T12:23:52.071Z</time></trkpt><trkpt lat="42.1232118" lon="11.9550841"><ele>344.00000000000006</ele><time>2026-04-18T12:23:53.061Z</time></trkpt><trkpt lat="42.123283" lon="11.9550608"><ele>344.0</ele><time>2026-04-18T12:23:54.074Z</time></trkpt><trkpt lat="42.1233478" lon="11.9550213"><ele>345.14285714285717</ele><time>2026-04-18T12:23:55.066Z</time></trkpt><trkpt lat="42.1233996" lon="11.9549602"><ele>346.2857142857143</ele><time>2026-04-18T12:23:56.063Z</time></trkpt><trkpt lat="42.123446" lon="11.9548803"><ele>347.42857142857144</ele><time>2026-04-18T12:23:57.07Z</time></trkpt><trkpt lat="42.1234898" lon="11.9548063"><ele>348.57142857142856</ele><time>2026-04-18T12:23:58.065Z</time></trkpt><trkpt lat="42.1235234" lon="11.954727"><ele>349.7142857142857</ele><time>2026-04-18T12:23:59.065Z</time></trkpt><trkpt lat="42.1235537" lon="11.9546476"><ele>350.8571428571429</ele><time>2026-04-18T12:24:00.072Z</time></trkpt><trkpt lat="42.1235784" lon="11.9545686"><ele>352.0</ele><time>2026-04-18T12:24:01.064Z</time></trkpt><trkpt lat="42.1235925" lon="11.9544677"><ele>352.0</ele><time>2026-04-18T12:24:02.064Z</time></trkpt><trkpt lat="42.1236047" lon="11.9543742"><ele>352.0</ele><time>2026-04-18T12:24:03.063Z</time></trkpt><trkpt lat="42.1235844" lon="11.9542797"><ele>352.0</ele><time>2026-04-18T12:24:04.068Z</time></trkpt><trkpt lat="42.1235701" lon="11.9541699"><ele>352.0</ele><time>2026-04-18T12:24:05.066Z</time></trkpt><trkpt lat="42.1235546" lon="11.9540558"><ele>352.0</ele><time>2026-04-18T12:24:06.054Z</time></trkpt><trkpt lat="42.1235513" lon="11.9539377"><ele>352.0</ele><time>2026-04-18T12:24:07.062Z</time></trkpt><trkpt lat="42.123556" lon="11.9538279"><ele>353.66666666666663</ele><time>2026-04-18T12:24:08.068Z</time></trkpt><trkpt lat="42.1235627" lon="11.9537129"><ele>355.3333333333333</ele><time>2026-04-18T12:24:09.071Z</time></trkpt><trkpt lat="42.1235626" lon="11.9536032"><ele>357.0</ele><time>2026-04-18T12:24:10.061Z</time></trkpt><trkpt lat="42.1235579" lon="11.9534963"><ele>358.6666666666667</ele><time>2026-04-18T12:24:11.063Z</time></trkpt><trkpt lat="42.1235566" lon="11.9533961"><ele>360.33333333333337</ele><time>2026-04-18T12:24:12.068Z</time></trkpt><trkpt lat="42.1235596" lon="11.9533027"><ele>362.0</ele><time>2026-04-18T12:24:13.063Z</time></trkpt><trkpt lat="42.1236037" lon="11.9532102"><ele>363.0</ele><time>2026-04-18T12:24:14.061Z</time></trkpt><trkpt lat="42.1236424" lon="11.953118"><ele>364.0</ele><time>2026-04-18T12:24:15.067Z</time></trkpt><trkpt lat="42.1236818" lon="11.9530322"><ele>365.0</ele><time>2026-04-18T12:24:16.067Z</time></trkpt><trkpt lat="42.1237092" lon="11.9529381"><ele>366.0</ele><time>2026-04-18T12:24:17.062Z</time></trkpt><trkpt lat="42.1237296" lon="11.9528541"><ele>367.0</ele><time>2026-04-18T12:24:18.061Z</time></trkpt><trkpt lat="42.1237496" lon="11.952758"><ele>368.0</ele><time>2026-04-18T12:24:19.056Z</time></trkpt><trkpt lat="42.1237729" lon="11.9526555"><ele>369.0</ele><time>2026-04-18T12:24:20.059Z</time></trkpt><trkpt lat="42.1237896" lon="11.9525569"><ele>370.3333333333333</ele><time>2026-04-18T12:24:21.064Z</time></trkpt><trkpt lat="42.1238019" lon="11.9524604"><ele>371.6666666666667</ele><time>2026-04-18T12:24:22.052Z</time></trkpt><trkpt lat="42.1238115" lon="11.9523644"><ele>373.0</ele><time>2026-04-18T12:24:23.059Z</time></trkpt><trkpt lat="42.1238311" lon="11.9522649"><ele>374.33333333333337</ele><time>2026-04-18T12:24:24.062Z</time></trkpt><trkpt lat="42.1238568" lon="11.9521725"><ele>375.6666666666667</ele><time>2026-04-18T12:24:25.055Z</time></trkpt><trkpt lat="42.1238945" lon="11.9520523"><ele>377.0</ele><time>2026-04-18T12:24:26.059Z</time></trkpt><trkpt lat="42.1239188" lon="11.9519375"><ele>377.0</ele><time>2026-04-18T12:24:27.07Z</time></trkpt><trkpt lat="42.123919" lon="11.9518288"><ele>377.0</ele><time>2026-04-18T12:24:28.058Z</time></trkpt><trkpt lat="42.1239139" lon="11.9517292"><ele>377.0</ele><time>2026-04-18T12:24:29.052Z</time></trkpt><trkpt lat="42.1239045" lon="11.9516331"><ele>377.0</ele><time>2026-04-18T12:24:30.057Z</time></trkpt><trkpt lat="42.1238638" lon="11.9515379"><ele>377.0</ele><time>2026-04-18T12:24:31.053Z</time></trkpt><trkpt lat="42.1238172" lon="11.9514493"><ele>377.0</ele><time>2026-04-18T12:24:32.069Z</time></trkpt><trkpt lat="42.1237551" lon="11.9513874"><ele>377.0</ele><time>2026-04-18T12:24:33.057Z</time></trkpt><trkpt lat="42.1236901" lon="11.951326"><ele>377.0</ele><time>2026-04-18T12:24:34.053Z</time></trkpt><trkpt lat="42.1236226" lon="11.9512719"><ele>377.0</ele><time>2026-04-18T12:24:35.06Z</time></trkpt><trkpt lat="42.123553" lon="11.9512338"><ele>377.0</ele><time>2026-04-18T12:24:36.067Z</time></trkpt><trkpt lat="42.1234811" lon="11.951234"><ele>377.0</ele><time>2026-04-18T12:24:37.063Z</time></trkpt><trkpt lat="42.1234126" lon="11.9512296"><ele>377.0</ele><time>2026-04-18T12:24:38.069Z</time></trkpt><trkpt lat="42.1233152" lon="11.951189"><ele>377.0</ele><time>2026-04-18T12:24:40.074Z</time></trkpt><trkpt lat="42.1232504" lon="11.9510252"><ele>377.0</ele><time>2026-04-18T12:24:42.066Z</time></trkpt><trkpt lat="42.1232371" lon="11.9508791"><ele>377.0</ele><time>2026-04-18T12:24:43.06Z</time></trkpt><trkpt lat="42.1232287" lon="11.9507163"><ele>377.0</ele><time>2026-04-18T12:24:44.064Z</time></trkpt><trkpt lat="42.1232115" lon="11.9505545"><ele>379.8</ele><time>2026-04-18T12:24:45.059Z</time></trkpt><trkpt lat="42.1231969" lon="11.9504206"><ele>382.6</ele><time>2026-04-18T12:24:46.066Z</time></trkpt><trkpt lat="42.1231916" lon="11.9503207"><ele>385.40000000000003</ele><time>2026-04-18T12:24:47.067Z</time></trkpt><trkpt lat="42.1231581" lon="11.9501665"><ele>388.20000000000005</ele><time>2026-04-18T12:24:49.061Z</time></trkpt><trkpt lat="42.123098" lon="11.9501299"><ele>391.0</ele><time>2026-04-18T12:24:50.062Z</time></trkpt><trkpt lat="42.1229875" lon="11.9501231"><ele>391.00000000000006</ele><time>2026-04-18T12:24:52.065Z</time></trkpt><trkpt lat="42.1228914" lon="11.9500818"><ele>391.0</ele><time>2026-04-18T12:24:54.055Z</time></trkpt><trkpt lat="42.1228518" lon="11.9500122"><ele>391.0</ele><time>2026-04-18T12:24:55.063Z</time></trkpt><trkpt lat="42.1228244" lon="11.9499083"><ele>391.0</ele><time>2026-04-18T12:24:56.065Z</time></trkpt><trkpt lat="42.1228053" lon="11.9497902"><ele>391.00000000000006</ele><time>2026-04-18T12:24:57.058Z</time></trkpt><trkpt lat="42.1227846" lon="11.9496775"><ele>391.0</ele><time>2026-04-18T12:24:58.068Z</time></trkpt><trkpt lat="42.1227478" lon="11.949574"><ele>389.6666666666667</ele><time>2026-04-18T12:24:59.062Z</time></trkpt><trkpt lat="42.1226964" lon="11.9495109"><ele>388.33333333333337</ele><time>2026-04-18T12:25:00.067Z</time></trkpt><trkpt lat="42.1225828" lon="11.9494474"><ele>387.0</ele><time>2026-04-18T12:25:02.055Z</time></trkpt><trkpt lat="42.1225185" lon="11.9494122"><ele>385.6666666666667</ele><time>2026-04-18T12:25:03.053Z</time></trkpt><trkpt lat="42.1224091" lon="11.9493538"><ele>384.33333333333337</ele><time>2026-04-18T12:25:05.051Z</time></trkpt><trkpt lat="42.122359" lon="11.9492904"><ele>383.0</ele><time>2026-04-18T12:25:06.059Z</time></trkpt><trkpt lat="42.1223263" lon="11.9491899"><ele>385.83333333333337</ele><time>2026-04-18T12:25:07.059Z</time></trkpt><trkpt lat="42.1223004" lon="11.9490875"><ele>388.6666666666667</ele><time>2026-04-18T12:25:08.054Z</time></trkpt><trkpt lat="42.1222706" lon="11.9489861"><ele>391.5</ele><time>2026-04-18T12:25:09.053Z</time></trkpt><trkpt lat="42.1222399" lon="11.9488863"><ele>394.33333333333337</ele><time>2026-04-18T12:25:10.058Z</time></trkpt><trkpt lat="42.12221" lon="11.9487913"><ele>397.1666666666667</ele><time>2026-04-18T12:25:11.063Z</time></trkpt><trkpt lat="42.1221741" lon="11.9486981"><ele>400.0</ele><time>2026-04-18T12:25:12.068Z</time></trkpt><trkpt lat="42.1221325" lon="11.9486041"><ele>400.00000000000006</ele><time>2026-04-18T12:25:13.065Z</time></trkpt><trkpt lat="42.1220995" lon="11.9485058"><ele>400.0</ele><time>2026-04-18T12:25:14.054Z</time></trkpt><trkpt lat="42.1220728" lon="11.9484134"><ele>400.0</ele><time>2026-04-18T12:25:15.059Z</time></trkpt><trkpt lat="42.122053" lon="11.9483297"><ele>400.0</ele><time>2026-04-18T12:25:16.06Z</time></trkpt><trkpt lat="42.1220289" lon="11.9482511"><ele>400.00000000000006</ele><time>2026-04-18T12:25:17.056Z</time></trkpt><trkpt lat="42.1219773" lon="11.9481241"><ele>400.0</ele><time>2026-04-18T12:25:19.056Z</time></trkpt><trkpt lat="42.1219385" lon="11.9480571"><ele>398.6666666666667</ele><time>2026-04-18T12:25:21.06Z</time></trkpt><trkpt lat="42.1219085" lon="11.9479578"><ele>397.33333333333337</ele><time>2026-04-18T12:25:23.057Z</time></trkpt><trkpt lat="42.1218833" lon="11.9478716"><ele>396.0</ele><time>2026-04-18T12:25:59.067Z</time></trkpt><trkpt lat="42.1218604" lon="11.9477876"><ele>394.66666666666663</ele><time>2026-04-18T12:26:01.063Z</time></trkpt><trkpt lat="42.1218599" lon="11.9476282"><ele>393.3333333333333</ele><time>2026-04-18T12:26:03.053Z</time></trkpt><trkpt lat="42.1218602" lon="11.9475396"><ele>392.0</ele><time>2026-04-18T12:26:04.061Z</time></trkpt><trkpt lat="42.1218762" lon="11.9473831"><ele>392.0</ele><time>2026-04-18T12:26:06.066Z</time></trkpt><trkpt lat="42.1219342" lon="11.9472638"><ele>392.0</ele><time>2026-04-18T12:26:08.066Z</time></trkpt><trkpt lat="42.1220156" lon="11.9471481"><ele>392.0</ele><time>2026-04-18T12:26:10.071Z</time></trkpt><trkpt lat="42.1220703" lon="11.9470704"><ele>392.0</ele><time>2026-04-18T12:26:11.057Z</time></trkpt><trkpt lat="42.1221291" lon="11.946986"><ele>392.0</ele><time>2026-04-18T12:26:12.073Z</time></trkpt><trkpt lat="42.1221857" lon="11.946916"><ele>391.99999999999994</ele><time>2026-04-18T12:26:13.061Z</time></trkpt><trkpt lat="42.1222412" lon="11.9468416"><ele>392.0</ele><time>2026-04-18T12:26:14.066Z</time></trkpt><trkpt lat="42.1223001" lon="11.9467536"><ele>392.0</ele><time>2026-04-18T12:26:15.064Z</time></trkpt><trkpt lat="42.1223612" lon="11.946659"><ele>392.0</ele><time>2026-04-18T12:26:16.07Z</time></trkpt><trkpt lat="42.1224245" lon="11.9465852"><ele>391.99999999999994</ele><time>2026-04-18T12:26:17.062Z</time></trkpt><trkpt lat="42.1224866" lon="11.9465135"><ele>392.0</ele><time>2026-04-18T12:26:18.075Z</time></trkpt><trkpt lat="42.1225178" lon="11.9464271"><ele>392.99999999999994</ele><time>2026-04-18T12:26:19.062Z</time></trkpt><trkpt lat="42.1225536" lon="11.9463464"><ele>394.0</ele><time>2026-04-18T12:26:20.069Z</time></trkpt><trkpt lat="42.1225632" lon="11.946259"><ele>395.0</ele><time>2026-04-18T12:26:21.07Z</time></trkpt><trkpt lat="42.1225605" lon="11.9461458"><ele>396.0</ele><time>2026-04-18T12:26:22.059Z</time></trkpt><trkpt lat="42.122547" lon="11.9460266"><ele>396.99999999999994</ele><time>2026-04-18T12:26:23.062Z</time></trkpt><trkpt lat="42.12255" lon="11.9458979"><ele>398.0</ele><time>2026-04-18T12:26:24.061Z</time></trkpt><trkpt lat="42.122564" lon="11.9457681"><ele>398.0</ele><time>2026-04-18T12:26:25.055Z</time></trkpt><trkpt lat="42.1226288" lon="11.9456279"><ele>398.0</ele><time>2026-04-18T12:26:26.058Z</time></trkpt><trkpt lat="42.1226818" lon="11.9454874"><ele>398.0</ele><time>2026-04-18T12:26:27.056Z</time></trkpt><trkpt lat="42.1227288" lon="11.9453525"><ele>398.0</ele><time>2026-04-18T12:26:28.068Z</time></trkpt><trkpt lat="42.1227689" lon="11.9452342"><ele>398.0</ele><time>2026-04-18T12:26:29.064Z</time></trkpt><trkpt lat="42.1228068" lon="11.9451414"><ele>397.99999999999994</ele><time>2026-04-18T12:26:30.054Z</time></trkpt><trkpt lat="42.1228534" lon="11.9450751"><ele>398.0</ele><time>2026-04-18T12:26:31.061Z</time></trkpt><trkpt lat="42.1229826" lon="11.9450092"><ele>398.0</ele><time>2026-04-18T12:26:33.057Z</time></trkpt><trkpt lat="42.1230649" lon="11.9449911"><ele>398.0</ele><time>2026-04-18T12:26:34.072Z</time></trkpt><trkpt lat="42.1231399" lon="11.9449693"><ele>397.99999999999994</ele><time>2026-04-18T12:26:35.065Z</time></trkpt><trkpt lat="42.1232144" lon="11.9449633"><ele>398.0</ele><time>2026-04-18T12:26:36.065Z</time></trkpt><trkpt lat="42.1233272" lon="11.9449231"><ele>396.0</ele><time>2026-04-18T12:26:38.068Z</time></trkpt><trkpt lat="42.1233495" lon="11.9447675"><ele>394.0</ele><time>2026-04-18T12:26:40.074Z</time></trkpt><trkpt lat="42.1232711" lon="11.944624"><ele>392.0</ele><time>2026-04-18T12:26:42.065Z</time></trkpt><trkpt lat="42.1232411" lon="11.9445319"><ele>390.0</ele><time>2026-04-18T12:26:43.062Z</time></trkpt><trkpt lat="42.1232197" lon="11.9444239"><ele>388.0</ele><time>2026-04-18T12:26:44.07Z</time></trkpt><trkpt lat="42.1232122" lon="11.9442895"><ele>394.00000000000006</ele><time>2026-04-18T12:26:45.057Z</time></trkpt><trkpt lat="42.1232019" lon="11.9441648"><ele>400.0</ele><time>2026-04-18T12:26:46.057Z</time></trkpt><trkpt lat="42.123191" lon="11.9440527"><ele>406.0</ele><time>2026-04-18T12:26:47.055Z</time></trkpt><trkpt lat="42.1231806" lon="11.9439469"><ele>412.0</ele><time>2026-04-18T12:26:48.068Z</time></trkpt><trkpt lat="42.1231654" lon="11.9438414"><ele>418.00000000000006</ele><time>2026-04-18T12:26:49.057Z</time></trkpt><trkpt lat="42.1231362" lon="11.9437458"><ele>424.0</ele><time>2026-04-18T12:26:50.059Z</time></trkpt><trkpt lat="42.1231183" lon="11.9436609"><ele>424.00000000000006</ele><time>2026-04-18T12:26:51.059Z</time></trkpt><trkpt lat="42.1231205" lon="11.9435576"><ele>424.0</ele><time>2026-04-18T12:26:53.064Z</time></trkpt><trkpt lat="42.1231495" lon="11.9434279"><ele>424.0</ele><time>2026-04-18T12:26:56.063Z</time></trkpt><trkpt lat="42.1232164" lon="11.9433557"><ele>424.0</ele><time>2026-04-18T12:26:58.072Z</time></trkpt><trkpt lat="42.1232761" lon="11.9433228"><ele>424.00000000000006</ele><time>2026-04-18T12:26:59.058Z</time></trkpt><trkpt lat="42.1233409" lon="11.9432782"><ele>424.0</ele><time>2026-04-18T12:27:00.069Z</time></trkpt><trkpt lat="42.1234004" lon="11.9432322"><ele>420.83333333333337</ele><time>2026-04-18T12:27:01.06Z</time></trkpt><trkpt lat="42.1234566" lon="11.943181"><ele>417.6666666666667</ele><time>2026-04-18T12:27:02.068Z</time></trkpt><trkpt lat="42.1235188" lon="11.9431264"><ele>414.5</ele><time>2026-04-18T12:27:03.068Z</time></trkpt><trkpt lat="42.1236021" lon="11.9430731"><ele>411.33333333333337</ele><time>2026-04-18T12:27:04.072Z</time></trkpt><trkpt lat="42.1236878" lon="11.9430268"><ele>408.1666666666667</ele><time>2026-04-18T12:27:05.061Z</time></trkpt><trkpt lat="42.1237651" lon="11.9429563"><ele>405.0</ele><time>2026-04-18T12:27:06.066Z</time></trkpt><trkpt lat="42.1238323" lon="11.9428781"><ele>405.0</ele><time>2026-04-18T12:27:07.071Z</time></trkpt><trkpt lat="42.1238704" lon="11.9427999"><ele>405.0</ele><time>2026-04-18T12:27:08.068Z</time></trkpt><trkpt lat="42.1238841" lon="11.9427072"><ele>405.0</ele><time>2026-04-18T12:27:09.069Z</time></trkpt><trkpt lat="42.1238709" lon="11.9426196"><ele>405.0</ele><time>2026-04-18T12:27:10.062Z</time></trkpt><trkpt lat="42.1238541" lon="11.9425254"><ele>405.0</ele><time>2026-04-18T12:27:11.058Z</time></trkpt><trkpt lat="42.1238004" lon="11.942434"><ele>405.0</ele><time>2026-04-18T12:27:12.061Z</time></trkpt><trkpt lat="42.1237335" lon="11.9423459"><ele>407.2857142857143</ele><time>2026-04-18T12:27:13.054Z</time></trkpt><trkpt lat="42.1236685" lon="11.942261"><ele>409.57142857142856</ele><time>2026-04-18T12:27:14.055Z</time></trkpt><trkpt lat="42.1236168" lon="11.9422053"><ele>411.8571428571429</ele><time>2026-04-18T12:27:15.062Z</time></trkpt><trkpt lat="42.1235849" lon="11.9421318"><ele>414.1428571428571</ele><time>2026-04-18T12:27:16.065Z</time></trkpt><trkpt lat="42.123589" lon="11.9420401"><ele>416.42857142857144</ele><time>2026-04-18T12:27:17.055Z</time></trkpt><trkpt lat="42.1236245" lon="11.9419494"><ele>418.7142857142857</ele><time>2026-04-18T12:27:18.052Z</time></trkpt><trkpt lat="42.1236863" lon="11.9418713"><ele>421.0</ele><time>2026-04-18T12:27:19.059Z</time></trkpt><trkpt lat="42.1237596" lon="11.9417847"><ele>421.00000000000006</ele><time>2026-04-18T12:27:20.07Z</time></trkpt><trkpt lat="42.123838" lon="11.9417255"><ele>421.0</ele><time>2026-04-18T12:27:21.051Z</time></trkpt><trkpt lat="42.1239089" lon="11.9416862"><ele>421.0</ele><time>2026-04-18T12:27:22.072Z</time></trkpt><trkpt lat="42.1239662" lon="11.9416249"><ele>421.0</ele><time>2026-04-18T12:27:23.061Z</time></trkpt><trkpt lat="42.1240123" lon="11.9415403"><ele>421.00000000000006</ele><time>2026-04-18T12:27:24.056Z</time></trkpt><trkpt lat="42.1240345" lon="11.9414399"><ele>421.0</ele><time>2026-04-18T12:27:25.054Z</time></trkpt><trkpt lat="42.1240545" lon="11.9413565"><ele>416.20000000000005</ele><time>2026-04-18T12:27:26.062Z</time></trkpt><trkpt lat="42.124102" lon="11.9412807"><ele>411.40000000000003</ele><time>2026-04-18T12:27:27.059Z</time></trkpt><trkpt lat="42.1241707" lon="11.9412025"><ele>406.6</ele><time>2026-04-18T12:27:28.058Z</time></trkpt><trkpt lat="42.1242287" lon="11.9411358"><ele>401.8</ele><time>2026-04-18T12:27:29.056Z</time></trkpt><trkpt lat="42.1243194" lon="11.9410699"><ele>397.0</ele><time>2026-04-18T12:27:31.063Z</time></trkpt><trkpt lat="42.1244612" lon="11.9410587"><ele>397.0</ele><time>2026-04-18T12:27:33.063Z</time></trkpt><trkpt lat="42.1245362" lon="11.9410578"><ele>397.0</ele><time>2026-04-18T12:27:34.055Z</time></trkpt><trkpt lat="42.124615" lon="11.9410892"><ele>397.0</ele><time>2026-04-18T12:27:35.053Z</time></trkpt><trkpt lat="42.1247074" lon="11.9411306"><ele>397.0</ele><time>2026-04-18T12:27:36.06Z</time></trkpt><trkpt lat="42.1248157" lon="11.9411933"><ele>397.0</ele><time>2026-04-18T12:27:37.062Z</time></trkpt><trkpt lat="42.1249148" lon="11.9412421"><ele>397.83333333333337</ele><time>2026-04-18T12:27:38.061Z</time></trkpt><trkpt lat="42.1250042" lon="11.9412629"><ele>398.6666666666667</ele><time>2026-04-18T12:27:39.068Z</time></trkpt><trkpt lat="42.1250654" lon="11.9412399"><ele>399.5</ele><time>2026-04-18T12:27:40.063Z</time></trkpt><trkpt lat="42.1251243" lon="11.9411462"><ele>400.33333333333337</ele><time>2026-04-18T12:27:42.065Z</time></trkpt><trkpt lat="42.1251405" lon="11.9410472"><ele>401.1666666666667</ele><time>2026-04-18T12:27:43.063Z</time></trkpt><trkpt lat="42.1251349" lon="11.9409237"><ele>402.0</ele><time>2026-04-18T12:27:44.065Z</time></trkpt><trkpt lat="42.125131" lon="11.9408165"><ele>402.0</ele><time>2026-04-18T12:27:45.058Z</time></trkpt><trkpt lat="42.125124" lon="11.9407167"><ele>402.0</ele><time>2026-04-18T12:27:46.07Z</time></trkpt><trkpt lat="42.1251256" lon="11.9406184"><ele>402.0</ele><time>2026-04-18T12:27:47.059Z</time></trkpt><trkpt lat="42.125127" lon="11.9405127"><ele>402.0</ele><time>2026-04-18T12:27:48.064Z</time></trkpt><trkpt lat="42.1251282" lon="11.940398"><ele>402.0</ele><time>2026-04-18T12:27:49.058Z</time></trkpt><trkpt lat="42.1251294" lon="11.9402602"><ele>402.0</ele><time>2026-04-18T12:27:50.07Z</time></trkpt><trkpt lat="42.1251359" lon="11.940113"><ele>403.5</ele><time>2026-04-18T12:27:51.076Z</time></trkpt><trkpt lat="42.1251556" lon="11.9399834"><ele>405.0</ele><time>2026-04-18T12:27:52.06Z</time></trkpt><trkpt lat="42.1251969" lon="11.9398711"><ele>406.5</ele><time>2026-04-18T12:27:53.073Z</time></trkpt><trkpt lat="42.1252114" lon="11.9397708"><ele>408.0</ele><time>2026-04-18T12:27:54.068Z</time></trkpt><trkpt lat="42.1252207" lon="11.9396745"><ele>409.5</ele><time>2026-04-18T12:27:55.056Z</time></trkpt><trkpt lat="42.1252071" lon="11.9395836"><ele>411.0</ele><time>2026-04-18T12:27:56.059Z</time></trkpt><trkpt lat="42.1252238" lon="11.9394726"><ele>411.0</ele><time>2026-04-18T12:27:57.066Z</time></trkpt><trkpt lat="42.1252486" lon="11.939364"><ele>411.0</ele><time>2026-04-18T12:27:58.053Z</time></trkpt><trkpt lat="42.1253223" lon="11.9392635"><ele>411.0</ele><time>2026-04-18T12:27:59.059Z</time></trkpt><trkpt lat="42.1253828" lon="11.9391673"><ele>411.0</ele><time>2026-04-18T12:28:00.063Z</time></trkpt><trkpt lat="42.1254197" lon="11.9390793"><ele>411.0</ele><time>2026-04-18T12:28:01.061Z</time></trkpt><trkpt lat="42.1254468" lon="11.9389972"><ele>411.0</ele><time>2026-04-18T12:28:02.06Z</time></trkpt><trkpt lat="42.1254342" lon="11.9389095"><ele>411.20000000000005</ele><time>2026-04-18T12:28:03.057Z</time></trkpt><trkpt lat="42.1254034" lon="11.9388119"><ele>411.40000000000003</ele><time>2026-04-18T12:28:04.066Z</time></trkpt><trkpt lat="42.1253396" lon="11.9387152"><ele>411.6</ele><time>2026-04-18T12:28:05.059Z</time></trkpt><trkpt lat="42.1252634" lon="11.9386205"><ele>411.8</ele><time>2026-04-18T12:28:06.062Z</time></trkpt><trkpt lat="42.1251752" lon="11.9385234"><ele>412.0</ele><time>2026-04-18T12:28:07.056Z</time></trkpt><trkpt lat="42.1250926" lon="11.9384585"><ele>412.00000000000006</ele><time>2026-04-18T12:28:08.06Z</time></trkpt><trkpt lat="42.1250182" lon="11.938401"><ele>412.0</ele><time>2026-04-18T12:28:09.059Z</time></trkpt><trkpt lat="42.1249572" lon="11.9383411"><ele>412.0</ele><time>2026-04-18T12:28:10.058Z</time></trkpt><trkpt lat="42.1249021" lon="11.9382535"><ele>412.0</ele><time>2026-04-18T12:28:11.06Z</time></trkpt><trkpt lat="42.1248724" lon="11.938148"><ele>412.00000000000006</ele><time>2026-04-18T12:28:12.054Z</time></trkpt><trkpt lat="42.1248959" lon="11.9380264"><ele>412.0</ele><time>2026-04-18T12:28:13.052Z</time></trkpt><trkpt lat="42.1249342" lon="11.9379069"><ele>412.1666666666667</ele><time>2026-04-18T12:28:14.056Z</time></trkpt><trkpt lat="42.1250078" lon="11.9378294"><ele>412.33333333333337</ele><time>2026-04-18T12:28:15.054Z</time></trkpt><trkpt lat="42.1250823" lon="11.9377391"><ele>412.5</ele><time>2026-04-18T12:28:16.066Z</time></trkpt><trkpt lat="42.1251343" lon="11.9376694"><ele>412.66666666666663</ele><time>2026-04-18T12:28:17.054Z</time></trkpt><trkpt lat="42.125167" lon="11.93758"><ele>412.8333333333333</ele><time>2026-04-18T12:28:18.069Z</time></trkpt><trkpt lat="42.1251924" lon="11.9374656"><ele>413.0</ele><time>2026-04-18T12:28:19.067Z</time></trkpt><trkpt lat="42.1252373" lon="11.9373327"><ele>413.0</ele><time>2026-04-18T12:28:20.052Z</time></trkpt><trkpt lat="42.1252904" lon="11.9371601"><ele>413.0</ele><time>2026-04-18T12:28:21.063Z</time></trkpt><trkpt lat="42.125356" lon="11.9369876"><ele>413.0</ele><time>2026-04-18T12:28:22.058Z</time></trkpt><trkpt lat="42.1253959" lon="11.9368579"><ele>413.0</ele><time>2026-04-18T12:28:23.055Z</time></trkpt><trkpt lat="42.1254306" lon="11.9367459"><ele>415.79999999999995</ele><time>2026-04-18T12:28:24.056Z</time></trkpt><trkpt lat="42.1254499" lon="11.93661"><ele>418.6</ele><time>2026-04-18T12:28:25.052Z</time></trkpt><trkpt lat="42.1254553" lon="11.9364544"><ele>421.40000000000003</ele><time>2026-04-18T12:28:26.055Z</time></trkpt><trkpt lat="42.1254751" lon="11.9363124"><ele>424.20000000000005</ele><time>2026-04-18T12:28:27.062Z</time></trkpt><trkpt lat="42.1254909" lon="11.9361999"><ele>427.0</ele><time>2026-04-18T12:28:28.056Z</time></trkpt><trkpt lat="42.1255065" lon="11.9360999"><ele>427.00000000000006</ele><time>2026-04-18T12:28:29.069Z</time></trkpt><trkpt lat="42.1255293" lon="11.9360207"><ele>427.0</ele><time>2026-04-18T12:28:30.074Z</time></trkpt><trkpt lat="42.1255873" lon="11.9359691"><ele>427.0</ele><time>2026-04-18T12:28:31.068Z</time></trkpt><trkpt lat="42.125659" lon="11.9359029"><ele>427.0</ele><time>2026-04-18T12:28:32.068Z</time></trkpt><trkpt lat="42.1257282" lon="11.9358162"><ele>427.00000000000006</ele><time>2026-04-18T12:28:33.058Z</time></trkpt><trkpt lat="42.1257718" lon="11.9356813"><ele>427.0</ele><time>2026-04-18T12:28:34.058Z</time></trkpt><trkpt lat="42.1257928" lon="11.9355522"><ele>427.0</ele><time>2026-04-18T12:28:35.056Z</time></trkpt><trkpt lat="42.1258092" lon="11.9354323"><ele>427.00000000000006</ele><time>2026-04-18T12:28:36.07Z</time></trkpt><trkpt lat="42.1257849" lon="11.9353067"><ele>427.00000000000006</ele><time>2026-04-18T12:28:37.062Z</time></trkpt><trkpt lat="42.1257502" lon="11.9351733"><ele>427.0</ele><time>2026-04-18T12:28:38.065Z</time></trkpt><trkpt lat="42.1256958" lon="11.9350189"><ele>427.0</ele><time>2026-04-18T12:28:39.059Z</time></trkpt><trkpt lat="42.125658" lon="11.9348619"><ele>427.00000000000006</ele><time>2026-04-18T12:28:40.06Z</time></trkpt><trkpt lat="42.1256315" lon="11.9347486"><ele>427.0</ele><time>2026-04-18T12:28:41.07Z</time></trkpt><trkpt lat="42.125598" lon="11.9346626"><ele>427.0</ele><time>2026-04-18T12:28:42.06Z</time></trkpt><trkpt lat="42.1255222" lon="11.9346174"><ele>427.0</ele><time>2026-04-18T12:28:43.068Z</time></trkpt><trkpt lat="42.1254526" lon="11.9345628"><ele>427.00000000000006</ele><time>2026-04-18T12:28:44.065Z</time></trkpt><trkpt lat="42.1253984" lon="11.9344948"><ele>427.0</ele><time>2026-04-18T12:28:45.058Z</time></trkpt><trkpt lat="42.1253566" lon="11.9344199"><ele>427.00000000000006</ele><time>2026-04-18T12:28:46.071Z</time></trkpt><trkpt lat="42.1253183" lon="11.9343032"><ele>427.0</ele><time>2026-04-18T12:28:48.057Z</time></trkpt><trkpt lat="42.1253385" lon="11.934204"><ele>427.0</ele><time>2026-04-18T12:28:49.062Z</time></trkpt><trkpt lat="42.125404" lon="11.9341084"><ele>427.0</ele><time>2026-04-18T12:28:50.063Z</time></trkpt><trkpt lat="42.1254718" lon="11.93402"><ele>427.00000000000006</ele><time>2026-04-18T12:28:51.056Z</time></trkpt><trkpt lat="42.125513" lon="11.9339243"><ele>427.0</ele><time>2026-04-18T12:28:52.062Z</time></trkpt><trkpt lat="42.125549" lon="11.9338387"><ele>424.8</ele><time>2026-04-18T12:28:53.066Z</time></trkpt><trkpt lat="42.1255633" lon="11.9337311"><ele>422.6</ele><time>2026-04-18T12:28:54.058Z</time></trkpt><trkpt lat="42.1255502" lon="11.9336207"><ele>420.40000000000003</ele><time>2026-04-18T12:28:55.068Z</time></trkpt><trkpt lat="42.1255224" lon="11.9335127"><ele>418.20000000000005</ele><time>2026-04-18T12:28:56.056Z</time></trkpt><trkpt lat="42.1254932" lon="11.9333793"><ele>416.0</ele><time>2026-04-18T12:28:57.055Z</time></trkpt><trkpt lat="42.125433" lon="11.9332272"><ele>415.16666666666663</ele><time>2026-04-18T12:28:58.059Z</time></trkpt><trkpt lat="42.1253684" lon="11.9330953"><ele>414.3333333333333</ele><time>2026-04-18T12:28:59.053Z</time></trkpt><trkpt lat="42.1253178" lon="11.932994"><ele>413.5</ele><time>2026-04-18T12:29:00.065Z</time></trkpt><trkpt lat="42.1252826" lon="11.9329041"><ele>412.66666666666663</ele><time>2026-04-18T12:29:01.06Z</time></trkpt><trkpt lat="42.1252482" lon="11.9328018"><ele>411.8333333333333</ele><time>2026-04-18T12:29:02.057Z</time></trkpt><trkpt lat="42.1252147" lon="11.9327148"><ele>411.0</ele><time>2026-04-18T12:29:03.055Z</time></trkpt><trkpt lat="42.1251749" lon="11.9325935"><ele>410.1666666666667</ele><time>2026-04-18T12:29:05.058Z</time></trkpt><trkpt lat="42.1251054" lon="11.9324964"><ele>409.33333333333337</ele><time>2026-04-18T12:29:07.064Z</time></trkpt><trkpt lat="42.1250503" lon="11.932417"><ele>408.5</ele><time>2026-04-18T12:29:09.051Z</time></trkpt><trkpt lat="42.1250208" lon="11.9323086"><ele>407.6666666666667</ele><time>2026-04-18T12:29:11.059Z</time></trkpt><trkpt lat="42.1250671" lon="11.9322118"><ele>406.83333333333337</ele><time>2026-04-18T12:29:12.069Z</time></trkpt><trkpt lat="42.1251165" lon="11.9321183"><ele>406.0</ele><time>2026-04-18T12:29:13.065Z</time></trkpt><trkpt lat="42.125157" lon="11.9320289"><ele>406.00000000000006</ele><time>2026-04-18T12:29:14.06Z</time></trkpt><trkpt lat="42.1251922" lon="11.9319497"><ele>406.0</ele><time>2026-04-18T12:29:15.066Z</time></trkpt><trkpt lat="42.1252292" lon="11.9318604"><ele>406.0</ele><time>2026-04-18T12:29:16.071Z</time></trkpt><trkpt lat="42.1252592" lon="11.9317448"><ele>406.0</ele><time>2026-04-18T12:29:17.06Z</time></trkpt><trkpt lat="42.1252784" lon="11.93161"><ele>406.00000000000006</ele><time>2026-04-18T12:29:18.071Z</time></trkpt><trkpt lat="42.1253051" lon="11.9314808"><ele>406.0</ele><time>2026-04-18T12:29:19.069Z</time></trkpt><trkpt lat="42.1253439" lon="11.9313986"><ele>406.8</ele><time>2026-04-18T12:29:20.061Z</time></trkpt><trkpt lat="42.1253883" lon="11.9312504"><ele>407.6</ele><time>2026-04-18T12:29:22.075Z</time></trkpt><trkpt lat="42.1253935" lon="11.9311552"><ele>408.4</ele><time>2026-04-18T12:29:23.063Z</time></trkpt><trkpt lat="42.125399" lon="11.9310685"><ele>409.2</ele><time>2026-04-18T12:29:24.069Z</time></trkpt><trkpt lat="42.1253757" lon="11.9308983"><ele>410.0</ele><time>2026-04-18T12:29:26.061Z</time></trkpt><trkpt lat="42.1253861" lon="11.9307905"><ele>411.4</ele><time>2026-04-18T12:29:27.057Z</time></trkpt><trkpt lat="42.125417" lon="11.9306522"><ele>412.8</ele><time>2026-04-18T12:29:28.058Z</time></trkpt><trkpt lat="42.1254723" lon="11.9305144"><ele>414.20000000000005</ele><time>2026-04-18T12:29:29.058Z</time></trkpt><trkpt lat="42.1255226" lon="11.9303896"><ele>415.6</ele><time>2026-04-18T12:29:30.051Z</time></trkpt><trkpt lat="42.1255794" lon="11.930284"><ele>417.0</ele><time>2026-04-18T12:29:31.058Z</time></trkpt><trkpt lat="42.1256376" lon="11.9302063"><ele>417.0</ele><time>2026-04-18T12:29:32.062Z</time></trkpt><trkpt lat="42.1256824" lon="11.9301273"><ele>417.0</ele><time>2026-04-18T12:29:33.059Z</time></trkpt><trkpt lat="42.1256994" lon="11.9300322"><ele>417.0</ele><time>2026-04-18T12:29:34.062Z</time></trkpt><trkpt lat="42.1257017" lon="11.9299146"><ele>417.0</ele><time>2026-04-18T12:29:35.07Z</time></trkpt><trkpt lat="42.1256914" lon="11.9297846"><ele>417.0</ele><time>2026-04-18T12:29:36.065Z</time></trkpt><trkpt lat="42.1256853" lon="11.9296502"><ele>417.0</ele><time>2026-04-18T12:29:37.059Z</time></trkpt><trkpt lat="42.1257029" lon="11.9295245"><ele>419.0</ele><time>2026-04-18T12:29:38.061Z</time></trkpt><trkpt lat="42.1257241" lon="11.9294051"><ele>421.0</ele><time>2026-04-18T12:29:39.058Z</time></trkpt><trkpt lat="42.1257298" lon="11.9292974"><ele>423.0</ele><time>2026-04-18T12:29:40.062Z</time></trkpt><trkpt lat="42.1257341" lon="11.9292055"><ele>425.0</ele><time>2026-04-18T12:29:41.057Z</time></trkpt><trkpt lat="42.1257178" lon="11.9291142"><ele>427.0</ele><time>2026-04-18T12:29:42.068Z</time></trkpt><trkpt lat="42.1256818" lon="11.9290292"><ele>429.0</ele><time>2026-04-18T12:29:43.066Z</time></trkpt><trkpt lat="42.1256209" lon="11.9289547"><ele>430.2</ele><time>2026-04-18T12:29:44.066Z</time></trkpt><trkpt lat="42.1255644" lon="11.9288855"><ele>431.4</ele><time>2026-04-18T12:29:45.057Z</time></trkpt><trkpt lat="42.1254891" lon="11.9287989"><ele>432.6</ele><time>2026-04-18T12:29:47.064Z</time></trkpt><trkpt lat="42.1254379" lon="11.9286424"><ele>433.8</ele><time>2026-04-18T12:29:49.064Z</time></trkpt><trkpt lat="42.1254321" lon="11.9285168"><ele>435.0</ele><time>2026-04-18T12:29:50.065Z</time></trkpt><trkpt lat="42.1254062" lon="11.9283979"><ele>433.8333333333333</ele><time>2026-04-18T12:29:51.05Z</time></trkpt><trkpt lat="42.1253964" lon="11.9283041"><ele>432.66666666666663</ele><time>2026-04-18T12:29:52.062Z</time></trkpt><trkpt lat="42.1253721" lon="11.9282243"><ele>431.5</ele><time>2026-04-18T12:29:53.057Z</time></trkpt><trkpt lat="42.1253456" lon="11.9281414"><ele>430.3333333333333</ele><time>2026-04-18T12:29:54.053Z</time></trkpt><trkpt lat="42.1252818" lon="11.9280805"><ele>429.16666666666663</ele><time>2026-04-18T12:29:55.059Z</time></trkpt><trkpt lat="42.1252107" lon="11.9280206"><ele>428.0</ele><time>2026-04-18T12:29:56.073Z</time></trkpt><trkpt lat="42.1251284" lon="11.9279731"><ele>427.99999999999994</ele><time>2026-04-18T12:29:57.061Z</time></trkpt><trkpt lat="42.1250547" lon="11.9279222"><ele>428.0</ele><time>2026-04-18T12:29:58.055Z</time></trkpt><trkpt lat="42.1249934" lon="11.9278725"><ele>428.0</ele><time>2026-04-18T12:29:59.058Z</time></trkpt><trkpt lat="42.1249425" lon="11.9277155"><ele>428.0</ele><time>2026-04-18T12:30:01.051Z</time></trkpt><trkpt lat="42.1249208" lon="11.9276326"><ele>427.99999999999994</ele><time>2026-04-18T12:30:02.06Z</time></trkpt><trkpt lat="42.1248882" lon="11.927557"><ele>428.0</ele><time>2026-04-18T12:30:03.063Z</time></trkpt><trkpt lat="42.1248312" lon="11.9274918"><ele>426.8333333333333</ele><time>2026-04-18T12:30:04.051Z</time></trkpt><trkpt lat="42.1247725" lon="11.9274372"><ele>425.66666666666663</ele><time>2026-04-18T12:30:05.058Z</time></trkpt><trkpt lat="42.1246981" lon="11.9274273"><ele>424.5</ele><time>2026-04-18T12:30:06.074Z</time></trkpt><trkpt lat="42.1246122" lon="11.9274483"><ele>423.33333333333337</ele><time>2026-04-18T12:30:07.055Z</time></trkpt><trkpt lat="42.1245177" lon="11.9274798"><ele>422.1666666666667</ele><time>2026-04-18T12:30:08.068Z</time></trkpt><trkpt lat="42.1244305" lon="11.9275314"><ele>421.0</ele><time>2026-04-18T12:30:09.062Z</time></trkpt><trkpt lat="42.1243566" lon="11.9275755"><ele>423.83333333333337</ele><time>2026-04-18T12:30:10.079Z</time></trkpt><trkpt lat="42.1242825" lon="11.9276232"><ele>426.6666666666667</ele><time>2026-04-18T12:30:11.057Z</time></trkpt><trkpt lat="42.1242065" lon="11.9276938"><ele>429.5</ele><time>2026-04-18T12:30:12.064Z</time></trkpt><trkpt lat="42.1241335" lon="11.9277546"><ele>432.33333333333337</ele><time>2026-04-18T12:30:13.069Z</time></trkpt><trkpt lat="42.1240797" lon="11.9277991"><ele>435.1666666666667</ele><time>2026-04-18T12:30:14.065Z</time></trkpt><trkpt lat="42.1240095" lon="11.9278327"><ele>438.0</ele><time>2026-04-18T12:30:16.066Z</time></trkpt><trkpt lat="42.1239159" lon="11.9278181"><ele>438.0</ele><time>2026-04-18T12:30:18.061Z</time></trkpt><trkpt lat="42.1238545" lon="11.9277934"><ele>438.0</ele><time>2026-04-18T12:30:19.066Z</time></trkpt><trkpt lat="42.1237935" lon="11.9277573"><ele>438.0</ele><time>2026-04-18T12:30:20.067Z</time></trkpt><trkpt lat="42.1237142" lon="11.9276942"><ele>438.0</ele><time>2026-04-18T12:30:21.071Z</time></trkpt><trkpt lat="42.1236273" lon="11.9276355"><ele>438.0</ele><time>2026-04-18T12:30:22.079Z</time></trkpt><trkpt lat="42.1235487" lon="11.9275867"><ele>438.0</ele><time>2026-04-18T12:30:23.065Z</time></trkpt><trkpt lat="42.1234773" lon="11.927544"><ele>438.0</ele><time>2026-04-18T12:30:24.083Z</time></trkpt><trkpt lat="42.1234072" lon="11.927479"><ele>438.0</ele><time>2026-04-18T12:30:25.066Z</time></trkpt><trkpt lat="42.1233509" lon="11.927404"><ele>438.0</ele><time>2026-04-18T12:30:26.06Z</time></trkpt><trkpt lat="42.1233133" lon="11.9272973"><ele>438.0</ele><time>2026-04-18T12:30:27.067Z</time></trkpt><trkpt lat="42.1233043" lon="11.9271772"><ele>438.0</ele><time>2026-04-18T12:30:28.07Z</time></trkpt><trkpt lat="42.1232979" lon="11.9270683"><ele>438.0</ele><time>2026-04-18T12:30:29.068Z</time></trkpt><trkpt lat="42.1232755" lon="11.9269597"><ele>442.0</ele><time>2026-04-18T12:30:30.065Z</time></trkpt><trkpt lat="42.1232147" lon="11.9268831"><ele>446.0</ele><time>2026-04-18T12:30:31.063Z</time></trkpt><trkpt lat="42.1231446" lon="11.9268168"><ele>450.0</ele><time>2026-04-18T12:30:32.073Z</time></trkpt><trkpt lat="42.1230644" lon="11.9267679"><ele>454.0</ele><time>2026-04-18T12:30:33.071Z</time></trkpt><trkpt lat="42.12298" lon="11.9267652"><ele>458.0</ele><time>2026-04-18T12:30:34.07Z</time></trkpt><trkpt lat="42.1228822" lon="11.9267611"><ele>462.0</ele><time>2026-04-18T12:30:35.066Z</time></trkpt><trkpt lat="42.1227813" lon="11.9267766"><ele>462.0</ele><time>2026-04-18T12:30:36.055Z</time></trkpt><trkpt lat="42.1226869" lon="11.9267849"><ele>462.0</ele><time>2026-04-18T12:30:37.052Z</time></trkpt><trkpt lat="42.1225996" lon="11.9267904"><ele>462.0</ele><time>2026-04-18T12:30:38.062Z</time></trkpt><trkpt lat="42.1225205" lon="11.9267525"><ele>462.0</ele><time>2026-04-18T12:30:39.051Z</time></trkpt><trkpt lat="42.1224545" lon="11.9266963"><ele>462.0</ele><time>2026-04-18T12:30:40.055Z</time></trkpt><trkpt lat="42.1223897" lon="11.9266538"><ele>462.0</ele><time>2026-04-18T12:30:41.058Z</time></trkpt><trkpt lat="42.122328" lon="11.9266714"><ele>460.42857142857144</ele><time>2026-04-18T12:30:42.064Z</time></trkpt><trkpt lat="42.1222646" lon="11.9266921"><ele>458.8571428571429</ele><time>2026-04-18T12:30:43.06Z</time></trkpt><trkpt lat="42.1222079" lon="11.9267343"><ele>457.2857142857143</ele><time>2026-04-18T12:30:44.059Z</time></trkpt><trkpt lat="42.1221533" lon="11.9267899"><ele>455.7142857142857</ele><time>2026-04-18T12:30:45.054Z</time></trkpt><trkpt lat="42.1220983" lon="11.9268405"><ele>454.14285714285717</ele><time>2026-04-18T12:30:46.06Z</time></trkpt><trkpt lat="42.1220202" lon="11.9268621"><ele>452.57142857142856</ele><time>2026-04-18T12:30:47.06Z</time></trkpt><trkpt lat="42.1219347" lon="11.9268827"><ele>451.0</ele><time>2026-04-18T12:30:48.059Z</time></trkpt><trkpt lat="42.1218536" lon="11.9269289"><ele>451.0</ele><time>2026-04-18T12:30:49.055Z</time></trkpt><trkpt lat="42.1217777" lon="11.9270051"><ele>451.0</ele><time>2026-04-18T12:30:50.058Z</time></trkpt><trkpt lat="42.1216929" lon="11.9270975"><ele>451.0</ele><time>2026-04-18T12:30:51.058Z</time></trkpt><trkpt lat="42.1215949" lon="11.9272069"><ele>451.0</ele><time>2026-04-18T12:30:52.056Z</time></trkpt><trkpt lat="42.1215051" lon="11.9273225"><ele>451.0</ele><time>2026-04-18T12:30:53.053Z</time></trkpt><trkpt lat="42.1214199" lon="11.9274349"><ele>451.0</ele><time>2026-04-18T12:30:54.061Z</time></trkpt><trkpt lat="42.1213406" lon="11.927549"><ele>451.0</ele><time>2026-04-18T12:30:55.051Z</time></trkpt><trkpt lat="42.1212581" lon="11.9276505"><ele>451.0</ele><time>2026-04-18T12:30:56.057Z</time></trkpt><trkpt lat="42.1211886" lon="11.9277504"><ele>451.0</ele><time>2026-04-18T12:30:57.054Z</time></trkpt><trkpt lat="42.1211176" lon="11.9278447"><ele>451.0</ele><time>2026-04-18T12:30:58.055Z</time></trkpt><trkpt lat="42.1210382" lon="11.9279328"><ele>451.0</ele><time>2026-04-18T12:30:59.059Z</time></trkpt><trkpt lat="42.1209209" lon="11.9280133"><ele>451.0</ele><time>2026-04-18T12:31:00.061Z</time></trkpt><trkpt lat="42.1208047" lon="11.9280609"><ele>451.0</ele><time>2026-04-18T12:31:01.055Z</time></trkpt><trkpt lat="42.1207069" lon="11.9281085"><ele>452.1666666666667</ele><time>2026-04-18T12:31:02.06Z</time></trkpt><trkpt lat="42.1206268" lon="11.928151"><ele>453.33333333333337</ele><time>2026-04-18T12:31:03.057Z</time></trkpt><trkpt lat="42.1205673" lon="11.9281793"><ele>454.5</ele><time>2026-04-18T12:31:04.057Z</time></trkpt><trkpt lat="42.1204973" lon="11.9281349"><ele>455.66666666666663</ele><time>2026-04-18T12:31:06.066Z</time></trkpt><trkpt lat="42.1204722" lon="11.9279762"><ele>456.8333333333333</ele><time>2026-04-18T12:31:08.072Z</time></trkpt><trkpt lat="42.1204936" lon="11.9278647"><ele>458.0</ele><time>2026-04-18T12:31:09.051Z</time></trkpt><trkpt lat="42.1205307" lon="11.9277591"><ele>458.0</ele><time>2026-04-18T12:31:10.056Z</time></trkpt><trkpt lat="42.1205701" lon="11.9276527"><ele>457.99999999999994</ele><time>2026-04-18T12:31:11.057Z</time></trkpt><trkpt lat="42.1206055" lon="11.9275352"><ele>457.99999999999994</ele><time>2026-04-18T12:31:12.061Z</time></trkpt><trkpt lat="42.1206332" lon="11.9274012"><ele>458.0</ele><time>2026-04-18T12:31:13.061Z</time></trkpt><trkpt lat="42.1206467" lon="11.9272604"><ele>458.0</ele><time>2026-04-18T12:31:14.07Z</time></trkpt><trkpt lat="42.1206436" lon="11.9271063"><ele>457.75</ele><time>2026-04-18T12:31:15.063Z</time></trkpt><trkpt lat="42.120619" lon="11.9269525"><ele>457.5</ele><time>2026-04-18T12:31:16.064Z</time></trkpt><trkpt lat="42.120592" lon="11.9267944"><ele>457.25</ele><time>2026-04-18T12:31:17.066Z</time></trkpt><trkpt lat="42.1205528" lon="11.9266354"><ele>457.0</ele><time>2026-04-18T12:31:18.066Z</time></trkpt><trkpt lat="42.1205033" lon="11.9264677"><ele>457.0</ele><time>2026-04-18T12:31:19.078Z</time></trkpt><trkpt lat="42.1204499" lon="11.9262854"><ele>457.0</ele><time>2026-04-18T12:31:20.06Z</time></trkpt><trkpt lat="42.1203998" lon="11.9261063"><ele>457.0</ele><time>2026-04-18T12:31:21.06Z</time></trkpt><trkpt lat="42.1203541" lon="11.9259441"><ele>457.0</ele><time>2026-04-18T12:31:22.069Z</time></trkpt><trkpt lat="42.120314" lon="11.9258095"><ele>456.00000000000006</ele><time>2026-04-18T12:31:23.058Z</time></trkpt><trkpt lat="42.1202781" lon="11.9256992"><ele>455.0</ele><time>2026-04-18T12:31:24.064Z</time></trkpt><trkpt lat="42.1202396" lon="11.9256219"><ele>454.0</ele><time>2026-04-18T12:31:25.07Z</time></trkpt><trkpt lat="42.1201818" lon="11.9255157"><ele>453.0</ele><time>2026-04-18T12:31:27.059Z</time></trkpt><trkpt lat="42.1201171" lon="11.9254401"><ele>452.00000000000006</ele><time>2026-04-18T12:31:31.07Z</time></trkpt><trkpt lat="42.1200733" lon="11.9253493"><ele>451.0</ele><time>2026-04-18T12:31:34.061Z</time></trkpt><trkpt lat="42.1200138" lon="11.9253087"><ele>451.0</ele><time>2026-04-18T12:32:29.067Z</time></trkpt><trkpt lat="42.1199519" lon="11.9253319"><ele>451.0</ele><time>2026-04-18T12:34:21.06Z</time></trkpt><trkpt lat="42.1198932" lon="11.9254409"><ele>451.0</ele><time>2026-04-18T12:34:24.07Z</time></trkpt><trkpt lat="42.1198249" lon="11.9255472"><ele>451.0</ele><time>2026-04-18T12:34:26.066Z</time></trkpt><trkpt lat="42.1197378" lon="11.9256653"><ele>451.0</ele><time>2026-04-18T12:34:28.06Z</time></trkpt><trkpt lat="42.1196863" lon="11.9257495"><ele>450.83333333333337</ele><time>2026-04-18T12:34:29.067Z</time></trkpt><trkpt lat="42.1196355" lon="11.9258302"><ele>450.6666666666667</ele><time>2026-04-18T12:34:30.064Z</time></trkpt><trkpt lat="42.1195835" lon="11.9259075"><ele>450.5</ele><time>2026-04-18T12:34:31.062Z</time></trkpt><trkpt lat="42.1195264" lon="11.925995"><ele>450.33333333333337</ele><time>2026-04-18T12:34:32.063Z</time></trkpt><trkpt lat="42.1194673" lon="11.9260936"><ele>450.1666666666667</ele><time>2026-04-18T12:34:33.061Z</time></trkpt><trkpt lat="42.1194062" lon="11.9261982"><ele>450.0</ele><time>2026-04-18T12:34:34.07Z</time></trkpt><trkpt lat="42.1193415" lon="11.9263056"><ele>449.8</ele><time>2026-04-18T12:34:35.068Z</time></trkpt><trkpt lat="42.1192763" lon="11.9264111"><ele>449.6</ele><time>2026-04-18T12:34:36.074Z</time></trkpt><trkpt lat="42.1192131" lon="11.9265112"><ele>449.4</ele><time>2026-04-18T12:34:37.06Z</time></trkpt><trkpt lat="42.1191475" lon="11.9266069"><ele>449.2</ele><time>2026-04-18T12:34:38.063Z</time></trkpt><trkpt lat="42.1190714" lon="11.9266986"><ele>449.0</ele><time>2026-04-18T12:34:39.075Z</time></trkpt><trkpt lat="42.1189858" lon="11.9267874"><ele>448.0</ele><time>2026-04-18T12:34:40.066Z</time></trkpt><trkpt lat="42.1188908" lon="11.9268777"><ele>447.0</ele><time>2026-04-18T12:34:41.06Z</time></trkpt><trkpt lat="42.1187877" lon="11.926965"><ele>446.0</ele><time>2026-04-18T12:34:42.071Z</time></trkpt><trkpt lat="42.1186772" lon="11.9270456"><ele>445.0</ele><time>2026-04-18T12:34:43.071Z</time></trkpt><trkpt lat="42.1185639" lon="11.9271192"><ele>445.0</ele><time>2026-04-18T12:34:44.064Z</time></trkpt><trkpt lat="42.1184538" lon="11.9271784"><ele>445.0</ele><time>2026-04-18T12:34:45.062Z</time></trkpt><trkpt lat="42.1183502" lon="11.9272082"><ele>445.0</ele><time>2026-04-18T12:34:46.067Z</time></trkpt><trkpt lat="42.1182501" lon="11.927217"><ele>445.0</ele><time>2026-04-18T12:34:47.072Z</time></trkpt><trkpt lat="42.1181481" lon="11.9272187"><ele>445.0</ele><time>2026-04-18T12:34:48.062Z</time></trkpt><trkpt lat="42.1180461" lon="11.927218"><ele>445.00000000000006</ele><time>2026-04-18T12:34:49.063Z</time></trkpt><trkpt lat="42.1179633" lon="11.9272146"><ele>445.0</ele><time>2026-04-18T12:34:50.065Z</time></trkpt><trkpt lat="42.1178909" lon="11.9272249"><ele>445.0</ele><time>2026-04-18T12:34:52.063Z</time></trkpt><trkpt lat="42.117974" lon="11.9272593"><ele>445.0</ele><time>2026-04-18T12:34:56.065Z</time></trkpt><trkpt lat="42.1180912" lon="11.9272424"><ele>445.00000000000006</ele><time>2026-04-18T12:34:58.063Z</time></trkpt><trkpt lat="42.118166" lon="11.9272303"><ele>445.0</ele><time>2026-04-18T12:34:59.068Z</time></trkpt><trkpt lat="42.1182447" lon="11.9272297"><ele>445.0</ele><time>2026-04-18T12:35:00.073Z</time></trkpt><trkpt lat="42.1183241" lon="11.9272271"><ele>445.0</ele><time>2026-04-18T12:35:01.062Z</time></trkpt><trkpt lat="42.1183981" lon="11.9272082"><ele>445.0</ele><time>2026-04-18T12:35:02.068Z</time></trkpt><trkpt lat="42.118479" lon="11.9271162"><ele>445.0</ele><time>2026-04-18T12:35:04.066Z</time></trkpt><trkpt lat="42.118465" lon="11.9270004"><ele>445.0</ele><time>2026-04-18T12:35:06.06Z</time></trkpt><trkpt lat="42.1183656" lon="11.9269033"><ele>445.00000000000006</ele><time>2026-04-18T12:35:08.063Z</time></trkpt><trkpt lat="42.1182973" lon="11.9268494"><ele>445.0</ele><time>2026-04-18T12:35:09.062Z</time></trkpt><trkpt lat="42.1182296" lon="11.9267823"><ele>445.0</ele><time>2026-04-18T12:35:10.067Z</time></trkpt><trkpt lat="42.1181651" lon="11.9266989"><ele>445.0</ele><time>2026-04-18T12:35:11.064Z</time></trkpt><trkpt lat="42.118099" lon="11.9266052"><ele>445.00000000000006</ele><time>2026-04-18T12:35:12.066Z</time></trkpt><trkpt lat="42.1180302" lon="11.9265088"><ele>445.0</ele><time>2026-04-18T12:35:13.087Z</time></trkpt><trkpt lat="42.1179686" lon="11.9263986"><ele>444.2</ele><time>2026-04-18T12:35:14.093Z</time></trkpt><trkpt lat="42.1179151" lon="11.9262802"><ele>443.4</ele><time>2026-04-18T12:35:15.062Z</time></trkpt><trkpt lat="42.117874" lon="11.9261575"><ele>442.6</ele><time>2026-04-18T12:35:16.073Z</time></trkpt><trkpt lat="42.1178399" lon="11.9260356"><ele>441.8</ele><time>2026-04-18T12:35:17.067Z</time></trkpt><trkpt lat="42.1178118" lon="11.9259218"><ele>441.0</ele><time>2026-04-18T12:35:18.065Z</time></trkpt><trkpt lat="42.1177875" lon="11.9258147"><ele>439.85714285714283</ele><time>2026-04-18T12:35:19.064Z</time></trkpt><trkpt lat="42.1177686" lon="11.9257114"><ele>438.7142857142857</ele><time>2026-04-18T12:35:20.07Z</time></trkpt><trkpt lat="42.1177524" lon="11.9256159"><ele>437.57142857142856</ele><time>2026-04-18T12:35:21.061Z</time></trkpt><trkpt lat="42.1177378" lon="11.9255258"><ele>436.42857142857144</ele><time>2026-04-18T12:35:22.063Z</time></trkpt><trkpt lat="42.1177218" lon="11.9254355"><ele>435.2857142857143</ele><time>2026-04-18T12:35:23.066Z</time></trkpt><trkpt lat="42.1176927" lon="11.9253454"><ele>434.1428571428571</ele><time>2026-04-18T12:35:24.073Z</time></trkpt><trkpt lat="42.1176476" lon="11.9252589"><ele>433.0</ele><time>2026-04-18T12:35:25.061Z</time></trkpt><trkpt lat="42.1175865" lon="11.9251833"><ele>432.99999999999994</ele><time>2026-04-18T12:35:26.057Z</time></trkpt><trkpt lat="42.1175155" lon="11.9251166"><ele>433.0</ele><time>2026-04-18T12:35:27.062Z</time></trkpt><trkpt lat="42.1174414" lon="11.9250661"><ele>433.0</ele><time>2026-04-18T12:35:28.069Z</time></trkpt><trkpt lat="42.1173672" lon="11.9250405"><ele>433.0</ele><time>2026-04-18T12:35:29.074Z</time></trkpt><trkpt lat="42.1172987" lon="11.9250467"><ele>433.0</ele><time>2026-04-18T12:35:30.062Z</time></trkpt><trkpt lat="42.1172332" lon="11.9250531"><ele>432.99999999999994</ele><time>2026-04-18T12:35:31.061Z</time></trkpt><trkpt lat="42.1171739" lon="11.9250823"><ele>433.0</ele><time>2026-04-18T12:35:32.071Z</time></trkpt><trkpt lat="42.1170545" lon="11.9251432"><ele>432.83333333333337</ele><time>2026-04-18T12:35:34.066Z</time></trkpt><trkpt lat="42.116978" lon="11.9251146"><ele>432.6666666666667</ele><time>2026-04-18T12:35:35.067Z</time></trkpt><trkpt lat="42.1169086" lon="11.9250608"><ele>432.5</ele><time>2026-04-18T12:35:36.065Z</time></trkpt><trkpt lat="42.1168466" lon="11.9249878"><ele>432.33333333333337</ele><time>2026-04-18T12:35:37.056Z</time></trkpt><trkpt lat="42.1167816" lon="11.9248954"><ele>432.1666666666667</ele><time>2026-04-18T12:35:38.058Z</time></trkpt><trkpt lat="42.1167125" lon="11.9247991"><ele>432.0</ele><time>2026-04-18T12:35:39.062Z</time></trkpt><trkpt lat="42.1166441" lon="11.9247152"><ele>430.0</ele><time>2026-04-18T12:35:40.068Z</time></trkpt><trkpt lat="42.1165705" lon="11.9246257"><ele>428.00000000000006</ele><time>2026-04-18T12:35:41.068Z</time></trkpt><trkpt lat="42.1164967" lon="11.9245258"><ele>426.0</ele><time>2026-04-18T12:35:42.073Z</time></trkpt><trkpt lat="42.1164262" lon="11.9244266"><ele>424.0</ele><time>2026-04-18T12:35:43.059Z</time></trkpt><trkpt lat="42.116387" lon="11.924289"><ele>422.0</ele><time>2026-04-18T12:35:44.057Z</time></trkpt><trkpt lat="42.116346" lon="11.9241455"><ele>421.0</ele><time>2026-04-18T12:35:45.063Z</time></trkpt><trkpt lat="42.1163238" lon="11.923993"><ele>420.0</ele><time>2026-04-18T12:35:46.075Z</time></trkpt><trkpt lat="42.1163226" lon="11.9238521"><ele>419.0</ele><time>2026-04-18T12:35:47.066Z</time></trkpt><trkpt lat="42.1163426" lon="11.9237141"><ele>418.0</ele><time>2026-04-18T12:35:48.066Z</time></trkpt><trkpt lat="42.1163841" lon="11.9235877"><ele>417.0</ele><time>2026-04-18T12:35:49.055Z</time></trkpt><trkpt lat="42.1164336" lon="11.9234622"><ele>417.6</ele><time>2026-04-18T12:35:50.067Z</time></trkpt><trkpt lat="42.1164879" lon="11.9233351"><ele>418.20000000000005</ele><time>2026-04-18T12:35:51.066Z</time></trkpt><trkpt lat="42.1165468" lon="11.9232091"><ele>418.8</ele><time>2026-04-18T12:35:52.071Z</time></trkpt><trkpt lat="42.1166114" lon="11.9230838"><ele>419.4</ele><time>2026-04-18T12:35:53.066Z</time></trkpt><trkpt lat="42.1166778" lon="11.9229595"><ele>420.0</ele><time>2026-04-18T12:35:54.058Z</time></trkpt><trkpt lat="42.1167229" lon="11.9228306"><ele>420.4</ele><time>2026-04-18T12:35:55.056Z</time></trkpt><trkpt lat="42.1167695" lon="11.9227014"><ele>420.8</ele><time>2026-04-18T12:35:56.063Z</time></trkpt><trkpt lat="42.1167989" lon="11.9225539"><ele>421.20000000000005</ele><time>2026-04-18T12:35:57.067Z</time></trkpt><trkpt lat="42.116829" lon="11.9223992"><ele>421.6</ele><time>2026-04-18T12:35:58.06Z</time></trkpt><trkpt lat="42.1168656" lon="11.9222614"><ele>422.0</ele><time>2026-04-18T12:35:59.066Z</time></trkpt><trkpt lat="42.1168936" lon="11.9221389"><ele>424.40000000000003</ele><time>2026-04-18T12:36:00.066Z</time></trkpt><trkpt lat="42.1168986" lon="11.9220291"><ele>426.8</ele><time>2026-04-18T12:36:01.064Z</time></trkpt><trkpt lat="42.1168715" lon="11.9219201"><ele>429.2</ele><time>2026-04-18T12:36:02.064Z</time></trkpt><trkpt lat="42.1168394" lon="11.9218033"><ele>431.6</ele><time>2026-04-18T12:36:03.062Z</time></trkpt><trkpt lat="42.1167672" lon="11.9216765"><ele>434.0</ele><time>2026-04-18T12:36:04.062Z</time></trkpt><trkpt lat="42.1166949" lon="11.9215434"><ele>434.2</ele><time>2026-04-18T12:36:05.063Z</time></trkpt><trkpt lat="42.1166273" lon="11.9214148"><ele>434.4</ele><time>2026-04-18T12:36:06.065Z</time></trkpt><trkpt lat="42.1165782" lon="11.9212823"><ele>434.6</ele><time>2026-04-18T12:36:07.063Z</time></trkpt><trkpt lat="42.1165443" lon="11.9211444"><ele>434.8</ele><time>2026-04-18T12:36:08.059Z</time></trkpt><trkpt lat="42.1165298" lon="11.9209992"><ele>435.0</ele><time>2026-04-18T12:36:09.062Z</time></trkpt><trkpt lat="42.1165298" lon="11.9208447"><ele>435.0</ele><time>2026-04-18T12:36:10.066Z</time></trkpt><trkpt lat="42.1165391" lon="11.9206888"><ele>435.0</ele><time>2026-04-18T12:36:11.059Z</time></trkpt><trkpt lat="42.1165489" lon="11.9205292"><ele>435.0</ele><time>2026-04-18T12:36:12.073Z</time></trkpt><trkpt lat="42.1165578" lon="11.9203651"><ele>435.0</ele><time>2026-04-18T12:36:13.058Z</time></trkpt><trkpt lat="42.1165704" lon="11.9201915"><ele>434.0</ele><time>2026-04-18T12:36:14.067Z</time></trkpt><trkpt lat="42.1165874" lon="11.9200222"><ele>433.0</ele><time>2026-04-18T12:36:15.063Z</time></trkpt><trkpt lat="42.1166082" lon="11.9198621"><ele>432.0</ele><time>2026-04-18T12:36:16.063Z</time></trkpt><trkpt lat="42.1166298" lon="11.9197055"><ele>431.0</ele><time>2026-04-18T12:36:17.067Z</time></trkpt><trkpt lat="42.1166506" lon="11.9195507"><ele>431.0</ele><time>2026-04-18T12:36:18.056Z</time></trkpt><trkpt lat="42.1166623" lon="11.9193901"><ele>431.0</ele><time>2026-04-18T12:36:19.067Z</time></trkpt><trkpt lat="42.1166569" lon="11.9192293"><ele>431.0</ele><time>2026-04-18T12:36:20.078Z</time></trkpt><trkpt lat="42.1166376" lon="11.9190913"><ele>431.0</ele><time>2026-04-18T12:36:21.059Z</time></trkpt><trkpt lat="42.1165984" lon="11.9189768"><ele>431.0</ele><time>2026-04-18T12:36:22.064Z</time></trkpt><trkpt lat="42.116539" lon="11.9188748"><ele>429.25</ele><time>2026-04-18T12:36:23.062Z</time></trkpt><trkpt lat="42.1164635" lon="11.9187787"><ele>427.5</ele><time>2026-04-18T12:36:24.065Z</time></trkpt><trkpt lat="42.1163837" lon="11.9186764"><ele>425.75</ele><time>2026-04-18T12:36:25.08Z</time></trkpt><trkpt lat="42.116301" lon="11.9185636"><ele>424.0</ele><time>2026-04-18T12:36:26.072Z</time></trkpt><trkpt lat="42.1162173" lon="11.9184392"><ele>423.25</ele><time>2026-04-18T12:36:27.065Z</time></trkpt><trkpt lat="42.1161303" lon="11.9183095"><ele>422.5</ele><time>2026-04-18T12:36:28.06Z</time></trkpt><trkpt lat="42.1160426" lon="11.91818"><ele>421.75</ele><time>2026-04-18T12:36:29.065Z</time></trkpt><trkpt lat="42.1159577" lon="11.9180533"><ele>421.0</ele><time>2026-04-18T12:36:30.066Z</time></trkpt><trkpt lat="42.1158765" lon="11.9179289"><ele>417.0</ele><time>2026-04-18T12:36:31.065Z</time></trkpt><trkpt lat="42.1163226" lon="11.9238521"><ele>417.0</ele><time>2026-04-18T12:35:47.066Z</time></trkpt><trkpt lat="42.1163426" lon="11.9237141"><ele>417.0</ele><time>2026-04-18T12:35:48.066Z</time></trkpt><trkpt lat="42.1163841" lon="11.9235877"><ele>417.0</ele><time>2026-04-18T12:35:49.055Z</time></trkpt><trkpt lat="42.1164336" lon="11.9234622"><ele>417.0</ele><time>2026-04-18T12:35:50.067Z</time></trkpt><trkpt lat="42.1164879" lon="11.9233351"><ele>417.0</ele><time>2026-04-18T12:35:51.066Z</time></trkpt><trkpt lat="42.1165468" lon="11.9232091"><ele>418.0</ele><time>2026-04-18T12:35:52.071Z</time></trkpt><trkpt lat="42.1166114" lon="11.9230838"><ele>419.0</ele><time>2026-04-18T12:35:53.066Z</time></trkpt><trkpt lat="42.1166778" lon="11.9229595"><ele>420.0</ele><time>2026-04-18T12:35:54.058Z</time></trkpt><trkpt lat="42.1167229" lon="11.9228306"><ele>421.0</ele><time>2026-04-18T12:35:55.056Z</time></trkpt><trkpt lat="42.1167695" lon="11.9227014"><ele>422.0</ele><time>2026-04-18T12:35:56.063Z</time></trkpt><trkpt lat="42.1167989" lon="11.9225539"><ele>424.40000000000003</ele><time>2026-04-18T12:35:57.067Z</time></trkpt><trkpt lat="42.116829" lon="11.9223992"><ele>426.8</ele><time>2026-04-18T12:35:58.06Z</time></trkpt><trkpt lat="42.1168656" lon="11.9222614"><ele>429.2</ele><time>2026-04-18T12:35:59.066Z</time></trkpt><trkpt lat="42.1168936" lon="11.9221389"><ele>431.6</ele><time>2026-04-18T12:36:00.066Z</time></trkpt><trkpt lat="42.1168986" lon="11.9220291"><ele>434.0</ele><time>2026-04-18T12:36:01.064Z</time></trkpt><trkpt lat="42.1168715" lon="11.9219201"><ele>434.0</ele><time>2026-04-18T12:36:02.064Z</time></trkpt><trkpt lat="42.1168394" lon="11.9218033"><ele>434.0</ele><time>2026-04-18T12:36:03.062Z</time></trkpt><trkpt lat="42.1167672" lon="11.9216765"><ele>434.0</ele><time>2026-04-18T12:36:04.062Z</time></trkpt><trkpt lat="42.1166949" lon="11.9215434"><ele>434.0</ele><time>2026-04-18T12:36:05.063Z</time></trkpt><trkpt lat="42.1166273" lon="11.9214148"><ele>434.2</ele><time>2026-04-18T12:36:06.065Z</time></trkpt><trkpt lat="42.1165782" lon="11.9212823"><ele>434.4</ele><time>2026-04-18T12:36:07.063Z</time></trkpt><trkpt lat="42.1165443" lon="11.9211444"><ele>434.6</ele><time>2026-04-18T12:36:08.059Z</time></trkpt><trkpt lat="42.1165298" lon="11.9209992"><ele>434.8</ele><time>2026-04-18T12:36:09.062Z</time></trkpt><trkpt lat="42.1165298" lon="11.9208447"><ele>435.0</ele><time>2026-04-18T12:36:10.066Z</time></trkpt><trkpt lat="42.1165391" lon="11.9206888"><ele>435.0</ele><time>2026-04-18T12:36:11.059Z</time></trkpt><trkpt lat="42.1165489" lon="11.9205292"><ele>435.0</ele><time>2026-04-18T12:36:12.073Z</time></trkpt><trkpt lat="42.1165578" lon="11.9203651"><ele>435.0</ele><time>2026-04-18T12:36:13.058Z</time></trkpt><trkpt lat="42.1165704" lon="11.9201915"><ele>435.0</ele><time>2026-04-18T12:36:14.067Z</time></trkpt><trkpt lat="42.1165874" lon="11.9200222"><ele>434.0</ele><time>2026-04-18T12:36:15.063Z</time></trkpt><trkpt lat="42.1166082" lon="11.9198621"><ele>433.0</ele><time>2026-04-18T12:36:16.063Z</time></trkpt><trkpt lat="42.1166298" lon="11.9197055"><ele>432.0</ele><time>2026-04-18T12:36:17.067Z</time></trkpt><trkpt lat="42.1166506" lon="11.9195507"><ele>431.0</ele><time>2026-04-18T12:36:18.056Z</time></trkpt><trkpt lat="42.1166623" lon="11.9193901"><ele>430.4</ele><time>2026-04-18T12:36:19.067Z</time></trkpt><trkpt lat="42.1166569" lon="11.9192293"><ele>429.8</ele><time>2026-04-18T12:36:20.078Z</time></trkpt><trkpt lat="42.1166376" lon="11.9190913"><ele>429.19999999999993</ele><time>2026-04-18T12:36:21.059Z</time></trkpt><trkpt lat="42.1165984" lon="11.9189768"><ele>428.59999999999997</ele><time>2026-04-18T12:36:22.064Z</time></trkpt><trkpt lat="42.116539" lon="11.9188748"><ele>428.0</ele><time>2026-04-18T12:36:23.062Z</time></trkpt><trkpt lat="42.1164635" lon="11.9187787"><ele>427.0</ele><time>2026-04-18T12:36:24.065Z</time></trkpt><trkpt lat="42.1163837" lon="11.9186764"><ele>426.0</ele><time>2026-04-18T12:36:25.08Z</time></trkpt><trkpt lat="42.116301" lon="11.9185636"><ele>425.0</ele><time>2026-04-18T12:36:26.072Z</time></trkpt><trkpt lat="42.1162173" lon="11.9184392"><ele>424.0</ele><time>2026-04-18T12:36:27.065Z</time></trkpt><trkpt lat="42.1161303" lon="11.9183095"><ele>423.25</ele><time>2026-04-18T12:36:28.06Z</time></trkpt><trkpt lat="42.1160426" lon="11.91818"><ele>422.5</ele><time>2026-04-18T12:36:29.065Z</time></trkpt><trkpt lat="42.1159577" lon="11.9180533"><ele>421.75</ele><time>2026-04-18T12:36:30.066Z</time></trkpt><trkpt lat="42.1158765" lon="11.9179289"><ele>421.0</ele><time>2026-04-18T12:36:31.065Z</time></trkpt><trkpt lat="42.1158001" lon="11.9178124"><ele>418.0</ele><time>2026-04-18T12:36:32.073Z</time></trkpt><trkpt lat="42.1157212" lon="11.9176928"><ele>415.0</ele><time>2026-04-18T12:36:33.063Z</time></trkpt><trkpt lat="42.1156357" lon="11.9175798"><ele>412.0</ele><time>2026-04-18T12:36:34.063Z</time></trkpt><trkpt lat="42.1155558" lon="11.9174741"><ele>409.0</ele><time>2026-04-18T12:36:35.06Z</time></trkpt><trkpt lat="42.1154916" lon="11.9173685"><ele>408.2</ele><time>2026-04-18T12:36:36.074Z</time></trkpt><trkpt lat="42.1154231" lon="11.9172602"><ele>407.4</ele><time>2026-04-18T12:36:37.068Z</time></trkpt><trkpt lat="42.1153472" lon="11.9171546"><ele>406.6</ele><time>2026-04-18T12:36:38.062Z</time></trkpt><trkpt lat="42.1152731" lon="11.9170508"><ele>405.8</ele><time>2026-04-18T12:36:39.061Z</time></trkpt><trkpt lat="42.1152033" lon="11.9169523"><ele>405.0</ele><time>2026-04-18T12:36:40.071Z</time></trkpt><trkpt lat="42.1151385" lon="11.9168497"><ele>404.5</ele><time>2026-04-18T12:36:41.061Z</time></trkpt><trkpt lat="42.1150713" lon="11.9167236"><ele>404.0</ele><time>2026-04-18T12:36:42.062Z</time></trkpt><trkpt lat="42.1150091" lon="11.9165856"><ele>403.5</ele><time>2026-04-18T12:36:43.073Z</time></trkpt><trkpt lat="42.114948" lon="11.9164464"><ele>403.0</ele><time>2026-04-18T12:36:44.059Z</time></trkpt><trkpt lat="42.114889" lon="11.9162967"><ele>402.25</ele><time>2026-04-18T12:36:45.066Z</time></trkpt><trkpt lat="42.1148301" lon="11.9161442"><ele>401.5</ele><time>2026-04-18T12:36:46.063Z</time></trkpt><trkpt lat="42.1147605" lon="11.9159765"><ele>400.75</ele><time>2026-04-18T12:36:47.056Z</time></trkpt><trkpt lat="42.1146958" lon="11.9158145"><ele>400.0</ele><time>2026-04-18T12:36:48.056Z</time></trkpt><trkpt lat="42.1146341" lon="11.9156694"><ele>400.0</ele><time>2026-04-18T12:36:49.062Z</time></trkpt><trkpt lat="42.1145896" lon="11.915533"><ele>400.0</ele><time>2026-04-18T12:36:50.065Z</time></trkpt><trkpt lat="42.114549" lon="11.9154047"><ele>400.0</ele><time>2026-04-18T12:36:51.062Z</time></trkpt><trkpt lat="42.1145155" lon="11.9152747"><ele>400.0</ele><time>2026-04-18T12:36:52.06Z</time></trkpt><trkpt lat="42.1144957" lon="11.9151531"><ele>400.0</ele><time>2026-04-18T12:36:53.057Z</time></trkpt><trkpt lat="42.1144913" lon="11.91506"><ele>399.42857142857144</ele><time>2026-04-18T12:36:54.068Z</time></trkpt><trkpt lat="42.1144898" lon="11.9149727"><ele>398.8571428571429</ele><time>2026-04-18T12:36:55.063Z</time></trkpt><trkpt lat="42.114516" lon="11.914886"><ele>398.28571428571433</ele><time>2026-04-18T12:36:56.058Z</time></trkpt><trkpt lat="42.1145484" lon="11.9147857"><ele>397.7142857142857</ele><time>2026-04-18T12:36:57.072Z</time></trkpt><trkpt lat="42.1145653" lon="11.9146778"><ele>397.1428571428571</ele><time>2026-04-18T12:36:58.071Z</time></trkpt><trkpt lat="42.114578" lon="11.9145741"><ele>396.5714285714286</ele><time>2026-04-18T12:36:59.062Z</time></trkpt><trkpt lat="42.1145881" lon="11.9144751"><ele>396.0</ele><time>2026-04-18T12:37:00.061Z</time></trkpt><trkpt lat="42.1145986" lon="11.9143737"><ele>396.0</ele><time>2026-04-18T12:37:01.063Z</time></trkpt><trkpt lat="42.1146147" lon="11.9142757"><ele>396.0</ele><time>2026-04-18T12:37:02.064Z</time></trkpt><trkpt lat="42.1146319" lon="11.9141689"><ele>396.0</ele><time>2026-04-18T12:37:03.057Z</time></trkpt><trkpt lat="42.1146473" lon="11.9140654"><ele>396.0</ele><time>2026-04-18T12:37:04.068Z</time></trkpt><trkpt lat="42.1146619" lon="11.9139671"><ele>396.0</ele><time>2026-04-18T12:37:05.06Z</time></trkpt><trkpt lat="42.1146756" lon="11.9138691"><ele>396.0</ele><time>2026-04-18T12:37:06.065Z</time></trkpt><trkpt lat="42.1146876" lon="11.9137721"><ele>393.5714285714286</ele><time>2026-04-18T12:37:07.056Z</time></trkpt><trkpt lat="42.1147008" lon="11.9136732"><ele>391.1428571428571</ele><time>2026-04-18T12:37:08.061Z</time></trkpt><trkpt lat="42.1147139" lon="11.9135796"><ele>388.7142857142857</ele><time>2026-04-18T12:37:09.072Z</time></trkpt><trkpt lat="42.1147263" lon="11.9134897"><ele>386.28571428571433</ele><time>2026-04-18T12:37:10.073Z</time></trkpt><trkpt lat="42.1147347" lon="11.9134028"><ele>383.8571428571429</ele><time>2026-04-18T12:37:11.06Z</time></trkpt><trkpt lat="42.1147423" lon="11.9133072"><ele>381.42857142857144</ele><time>2026-04-18T12:37:12.062Z</time></trkpt><trkpt lat="42.1147504" lon="11.9131971"><ele>379.0</ele><time>2026-04-18T12:37:13.064Z</time></trkpt><trkpt lat="42.1147584" lon="11.9130719"><ele>376.8333333333333</ele><time>2026-04-18T12:37:14.066Z</time></trkpt><trkpt lat="42.1147577" lon="11.9129585"><ele>374.66666666666663</ele><time>2026-04-18T12:37:15.067Z</time></trkpt><trkpt lat="42.1147408" lon="11.9128494"><ele>372.5</ele><time>2026-04-18T12:37:16.076Z</time></trkpt><trkpt lat="42.1147222" lon="11.912748"><ele>370.3333333333333</ele><time>2026-04-18T12:37:17.056Z</time></trkpt><trkpt lat="42.1146959" lon="11.9126559"><ele>368.1666666666667</ele><time>2026-04-18T12:37:18.053Z</time></trkpt><trkpt lat="42.1146692" lon="11.9125664"><ele>366.0</ele><time>2026-04-18T12:37:19.062Z</time></trkpt><trkpt lat="42.1146402" lon="11.9124657"><ele>364.8333333333333</ele><time>2026-04-18T12:37:20.066Z</time></trkpt><trkpt lat="42.1146151" lon="11.9123675"><ele>363.6666666666667</ele><time>2026-04-18T12:37:21.057Z</time></trkpt><trkpt lat="42.114595" lon="11.912268"><ele>362.5</ele><time>2026-04-18T12:37:22.079Z</time></trkpt><trkpt lat="42.1145731" lon="11.9121671"><ele>361.33333333333337</ele><time>2026-04-18T12:37:23.066Z</time></trkpt><trkpt lat="42.1145547" lon="11.9120582"><ele>360.1666666666667</ele><time>2026-04-18T12:37:24.062Z</time></trkpt><trkpt lat="42.1145534" lon="11.9119653"><ele>359.0</ele><time>2026-04-18T12:37:25.063Z</time></trkpt><trkpt lat="42.114533" lon="11.9118011"><ele>357.5</ele><time>2026-04-18T12:37:27.059Z</time></trkpt><trkpt lat="42.1145103" lon="11.9117201"><ele>356.0</ele><time>2026-04-18T12:37:28.06Z</time></trkpt><trkpt lat="42.1144706" lon="11.9116492"><ele>354.5</ele><time>2026-04-18T12:37:29.06Z</time></trkpt><trkpt lat="42.1144097" lon="11.911591"><ele>353.0</ele><time>2026-04-18T12:37:30.055Z</time></trkpt><trkpt lat="42.1143005" lon="11.911537"><ele>351.5</ele><time>2026-04-18T12:37:32.064Z</time></trkpt><trkpt lat="42.1142066" lon="11.9115684"><ele>350.0</ele><time>2026-04-18T12:37:34.058Z</time></trkpt><trkpt lat="42.1141342" lon="11.9115767"><ele>349.83333333333337</ele><time>2026-04-18T12:37:36.072Z</time></trkpt><trkpt lat="42.1140518" lon="11.9115869"><ele>349.6666666666667</ele><time>2026-04-18T12:37:38.06Z</time></trkpt><trkpt lat="42.1139401" lon="11.9115996"><ele>349.5</ele><time>2026-04-18T12:37:40.064Z</time></trkpt><trkpt lat="42.1138567" lon="11.9115925"><ele>349.3333333333333</ele><time>2026-04-18T12:37:42.063Z</time></trkpt><trkpt lat="42.1137741" lon="11.9116065"><ele>349.16666666666663</ele><time>2026-04-18T12:37:44.062Z</time></trkpt><trkpt lat="42.1137053" lon="11.9116328"><ele>349.0</ele><time>2026-04-18T12:37:45.069Z</time></trkpt><trkpt lat="42.1136153" lon="11.9116671"><ele>349.0</ele><time>2026-04-18T12:37:46.065Z</time></trkpt><trkpt lat="42.1135173" lon="11.9117027"><ele>349.0</ele><time>2026-04-18T12:37:47.065Z</time></trkpt><trkpt lat="42.1134184" lon="11.9117334"><ele>349.0</ele><time>2026-04-18T12:37:48.067Z</time></trkpt><trkpt lat="42.1133225" lon="11.9117478"><ele>349.0</ele><time>2026-04-18T12:37:49.065Z</time></trkpt><trkpt lat="42.1132261" lon="11.9117327"><ele>349.0</ele><time>2026-04-18T12:37:50.06Z</time></trkpt><trkpt lat="42.1131285" lon="11.9117114"><ele>350.0</ele><time>2026-04-18T12:37:51.055Z</time></trkpt><trkpt lat="42.1130305" lon="11.911663"><ele>351.0</ele><time>2026-04-18T12:37:52.071Z</time></trkpt><trkpt lat="42.1129486" lon="11.9116146"><ele>352.0</ele><time>2026-04-18T12:37:53.063Z</time></trkpt><trkpt lat="42.1128708" lon="11.9115648"><ele>353.0</ele><time>2026-04-18T12:37:54.07Z</time></trkpt><trkpt lat="42.1128007" lon="11.9115186"><ele>354.0</ele><time>2026-04-18T12:37:55.062Z</time></trkpt><trkpt lat="42.1127404" lon="11.9114599"><ele>355.0</ele><time>2026-04-18T12:37:56.06Z</time></trkpt><trkpt lat="42.1126984" lon="11.9113637"><ele>355.0</ele><time>2026-04-18T12:37:57.064Z</time></trkpt><trkpt lat="42.1126574" lon="11.9112729"><ele>355.0</ele><time>2026-04-18T12:37:58.065Z</time></trkpt><trkpt lat="42.1126342" lon="11.9111795"><ele>355.0</ele><time>2026-04-18T12:37:59.067Z</time></trkpt><trkpt lat="42.1126185" lon="11.9110911"><ele>355.0</ele><time>2026-04-18T12:38:00.067Z</time></trkpt><trkpt lat="42.1125986" lon="11.9110061"><ele>355.0</ele><time>2026-04-18T12:38:01.061Z</time></trkpt><trkpt lat="42.1125233" lon="11.9108929"><ele>355.0</ele><time>2026-04-18T12:38:03.057Z</time></trkpt><trkpt lat="42.1124177" lon="11.9108228"><ele>352.66666666666663</ele><time>2026-04-18T12:38:05.063Z</time></trkpt><trkpt lat="42.1123523" lon="11.9108004"><ele>350.3333333333333</ele><time>2026-04-18T12:38:06.059Z</time></trkpt><trkpt lat="42.1122784" lon="11.9107918"><ele>348.0</ele><time>2026-04-18T12:38:07.064Z</time></trkpt><trkpt lat="42.112203" lon="11.9107813"><ele>345.6666666666667</ele><time>2026-04-18T12:38:08.067Z</time></trkpt><trkpt lat="42.1121254" lon="11.9107755"><ele>343.33333333333337</ele><time>2026-04-18T12:38:09.057Z</time></trkpt><trkpt lat="42.1120526" lon="11.9107615"><ele>341.0</ele><time>2026-04-18T12:38:10.076Z</time></trkpt><trkpt lat="42.1119678" lon="11.910733"><ele>341.0</ele><time>2026-04-18T12:38:11.062Z</time></trkpt><trkpt lat="42.1118835" lon="11.9107151"><ele>341.0</ele><time>2026-04-18T12:38:12.058Z</time></trkpt><trkpt lat="42.1117911" lon="11.9107159"><ele>341.0</ele><time>2026-04-18T12:38:13.063Z</time></trkpt><trkpt lat="42.1117065" lon="11.910745"><ele>341.0</ele><time>2026-04-18T12:38:14.068Z</time></trkpt><trkpt lat="42.111621" lon="11.9107768"><ele>341.0</ele><time>2026-04-18T12:38:15.062Z</time></trkpt><trkpt lat="42.1115242" lon="11.9108339"><ele>341.8</ele><time>2026-04-18T12:38:16.064Z</time></trkpt><trkpt lat="42.1114333" lon="11.9108898"><ele>342.6</ele><time>2026-04-18T12:38:17.06Z</time></trkpt><trkpt lat="42.1113425" lon="11.9109443"><ele>343.4</ele><time>2026-04-18T12:38:18.075Z</time></trkpt><trkpt lat="42.1112461" lon="11.9109962"><ele>344.2</ele><time>2026-04-18T12:38:19.059Z</time></trkpt><trkpt lat="42.1111525" lon="11.9110379"><ele>345.0</ele><time>2026-04-18T12:38:20.053Z</time></trkpt><trkpt lat="42.1110675" lon="11.9110786"><ele>345.0</ele><time>2026-04-18T12:38:21.069Z</time></trkpt><trkpt lat="42.1109792" lon="11.911123"><ele>345.0</ele><time>2026-04-18T12:38:22.065Z</time></trkpt><trkpt lat="42.1108981" lon="11.9111805"><ele>345.0</ele><time>2026-04-18T12:38:23.059Z</time></trkpt><trkpt lat="42.1108184" lon="11.9112102"><ele>345.0</ele><time>2026-04-18T12:38:24.063Z</time></trkpt><trkpt lat="42.1107486" lon="11.911233"><ele>345.0</ele><time>2026-04-18T12:38:25.068Z</time></trkpt><trkpt lat="42.110671" lon="11.9112176"><ele>345.0</ele><time>2026-04-18T12:38:27.059Z</time></trkpt><trkpt lat="42.1106092" lon="11.9111625"><ele>342.3333333333333</ele><time>2026-04-18T12:38:31.063Z</time></trkpt><trkpt lat="42.1105579" lon="11.9111118"><ele>339.6666666666667</ele><time>2026-04-18T12:39:06.057Z</time></trkpt><trkpt lat="42.1105149" lon="11.9110353"><ele>337.0</ele><time>2026-04-18T12:39:32.057Z</time></trkpt><trkpt lat="42.110454" lon="11.9109107"><ele>334.33333333333337</ele><time>2026-04-18T12:39:34.057Z</time></trkpt><trkpt lat="42.1104134" lon="11.9108264"><ele>331.6666666666667</ele><time>2026-04-18T12:39:35.09Z</time></trkpt><trkpt lat="42.1103724" lon="11.910741"><ele>329.0</ele><time>2026-04-18T12:39:36.072Z</time></trkpt><trkpt lat="42.11033" lon="11.9106607"><ele>328.57142857142856</ele><time>2026-04-18T12:39:37.057Z</time></trkpt><trkpt lat="42.1102933" lon="11.9105813"><ele>328.1428571428571</ele><time>2026-04-18T12:39:38.065Z</time></trkpt><trkpt lat="42.1102506" lon="11.9105024"><ele>327.7142857142857</ele><time>2026-04-18T12:39:39.058Z</time></trkpt><trkpt lat="42.1102101" lon="11.9104276"><ele>327.2857142857143</ele><time>2026-04-18T12:39:40.059Z</time></trkpt><trkpt lat="42.1101679" lon="11.9103603"><ele>326.85714285714283</ele><time>2026-04-18T12:39:41.07Z</time></trkpt><trkpt lat="42.1101242" lon="11.9102903"><ele>326.42857142857144</ele><time>2026-04-18T12:39:42.067Z</time></trkpt><trkpt lat="42.110081" lon="11.910208"><ele>326.0</ele><time>2026-04-18T12:39:43.07Z</time></trkpt><trkpt lat="42.1100374" lon="11.9101244"><ele>324.83333333333337</ele><time>2026-04-18T12:39:44.063Z</time></trkpt><trkpt lat="42.1099926" lon="11.9100402"><ele>323.6666666666667</ele><time>2026-04-18T12:39:45.064Z</time></trkpt><trkpt lat="42.1099511" lon="11.9099535"><ele>322.5</ele><time>2026-04-18T12:39:46.063Z</time></trkpt><trkpt lat="42.1099091" lon="11.9098645"><ele>321.3333333333333</ele><time>2026-04-18T12:39:47.067Z</time></trkpt><trkpt lat="42.1098651" lon="11.9097762"><ele>320.16666666666663</ele><time>2026-04-18T12:39:48.074Z</time></trkpt><trkpt lat="42.1098201" lon="11.9096834"><ele>319.0</ele><time>2026-04-18T12:39:49.066Z</time></trkpt><trkpt lat="42.1097767" lon="11.9095915"><ele>317.5</ele><time>2026-04-18T12:39:50.066Z</time></trkpt><trkpt lat="42.109732" lon="11.9095012"><ele>316.0</ele><time>2026-04-18T12:39:51.061Z</time></trkpt><trkpt lat="42.1096883" lon="11.9094171"><ele>314.5</ele><time>2026-04-18T12:39:52.058Z</time></trkpt><trkpt lat="42.1096457" lon="11.9093346"><ele>313.0</ele><time>2026-04-18T12:39:53.065Z</time></trkpt><trkpt lat="42.1096039" lon="11.9091993"><ele>311.5</ele><time>2026-04-18T12:39:55.067Z</time></trkpt><trkpt lat="42.1095898" lon="11.9090976"><ele>310.0</ele><time>2026-04-18T12:39:57.066Z</time></trkpt><trkpt lat="42.1096485" lon="11.9090484"><ele>309.2</ele><time>2026-04-18T12:40:00.075Z</time></trkpt><trkpt lat="42.1097228" lon="11.9090433"><ele>308.4</ele><time>2026-04-18T12:40:02.064Z</time></trkpt><trkpt lat="42.1098219" lon="11.9090384"><ele>307.6</ele><time>2026-04-18T12:40:04.073Z</time></trkpt><trkpt lat="42.1099306" lon="11.9090292"><ele>306.8</ele><time>2026-04-18T12:40:06.065Z</time></trkpt><trkpt lat="42.1100283" lon="11.9089584"><ele>306.0</ele><time>2026-04-18T12:40:08.076Z</time></trkpt><trkpt lat="42.1101077" lon="11.9088246"><ele>306.0</ele><time>2026-04-18T12:40:10.06Z</time></trkpt><trkpt lat="42.1101506" lon="11.9087585"><ele>306.0</ele><time>2026-04-18T12:40:11.071Z</time></trkpt><trkpt lat="42.1102001" lon="11.9086876"><ele>306.0</ele><time>2026-04-18T12:40:12.073Z</time></trkpt><trkpt lat="42.1102454" lon="11.9086212"><ele>306.0</ele><time>2026-04-18T12:40:13.061Z</time></trkpt><trkpt lat="42.1103239" lon="11.9085463"><ele>306.0</ele><time>2026-04-18T12:40:15.063Z</time></trkpt><trkpt lat="42.1104019" lon="11.9085384"><ele>306.0</ele><time>2026-04-18T12:40:17.067Z</time></trkpt><trkpt lat="42.1104819" lon="11.9085267"><ele>306.0</ele><time>2026-04-18T12:40:19.069Z</time></trkpt><trkpt lat="42.1105635" lon="11.9084658"><ele>306.0</ele><time>2026-04-18T12:40:21.061Z</time></trkpt><trkpt lat="42.1106371" lon="11.9083469"><ele>306.0</ele><time>2026-04-18T12:40:23.067Z</time></trkpt><trkpt lat="42.1106896" lon="11.9082269"><ele>306.0</ele><time>2026-04-18T12:40:25.059Z</time></trkpt><trkpt lat="42.110699" lon="11.9080733"><ele>306.0</ele><time>2026-04-18T12:40:27.06Z</time></trkpt><trkpt lat="42.1107481" lon="11.9079185"><ele>303.0</ele><time>2026-04-18T12:40:29.056Z</time></trkpt><trkpt lat="42.1107843" lon="11.9078463"><ele>300.0</ele><time>2026-04-18T12:40:30.066Z</time></trkpt><trkpt lat="42.1108083" lon="11.9077583"><ele>297.0</ele><time>2026-04-18T12:40:31.059Z</time></trkpt><trkpt lat="42.1108372" lon="11.9076631"><ele>294.0</ele><time>2026-04-18T12:40:32.063Z</time></trkpt><trkpt lat="42.1108633" lon="11.907576"><ele>291.0</ele><time>2026-04-18T12:40:33.063Z</time></trkpt><trkpt lat="42.1109031" lon="11.9074118"><ele>288.0</ele><time>2026-04-18T12:40:35.078Z</time></trkpt><trkpt lat="42.1109205" lon="11.9073299"><ele>285.8</ele><time>2026-04-18T12:40:36.056Z</time></trkpt><trkpt lat="42.1109588" lon="11.9071713"><ele>283.6</ele><time>2026-04-18T12:40:38.074Z</time></trkpt><trkpt lat="42.1110058" lon="11.9070639"><ele>281.4</ele><time>2026-04-18T12:40:40.076Z</time></trkpt><trkpt lat="42.1110461" lon="11.9069679"><ele>279.2</ele><time>2026-04-18T12:40:42.064Z</time></trkpt><trkpt lat="42.1110706" lon="11.9068479"><ele>277.0</ele><time>2026-04-18T12:40:44.076Z</time></trkpt><trkpt lat="42.1110893" lon="11.9067189"><ele>273.5</ele><time>2026-04-18T12:40:46.075Z</time></trkpt><trkpt lat="42.1110929" lon="11.906591"><ele>270.0</ele><time>2026-04-18T12:40:48.067Z</time></trkpt><trkpt lat="42.1110918" lon="11.9064443"><ele>266.5</ele><time>2026-04-18T12:40:50.063Z</time></trkpt><trkpt lat="42.1110839" lon="11.9062905"><ele>263.0</ele><time>2026-04-18T12:40:52.059Z</time></trkpt><trkpt lat="42.1110701" lon="11.9061074"><ele>263.0</ele><time>2026-04-18T12:40:54.06Z</time></trkpt><trkpt lat="42.1110623" lon="11.9060055"><ele>263.0</ele><time>2026-04-18T12:40:55.062Z</time></trkpt><trkpt lat="42.1110576" lon="11.9059042"><ele>263.0</ele><time>2026-04-18T12:40:56.062Z</time></trkpt><trkpt lat="42.1110523" lon="11.9058064"><ele>263.0</ele><time>2026-04-18T12:40:57.063Z</time></trkpt><trkpt lat="42.1110476" lon="11.9057122"><ele>263.0</ele><time>2026-04-18T12:40:58.058Z</time></trkpt><trkpt lat="42.1110413" lon="11.9056166"><ele>263.0</ele><time>2026-04-18T12:40:59.064Z</time></trkpt><trkpt lat="42.1110293" lon="11.905523"><ele>263.0</ele><time>2026-04-18T12:41:00.071Z</time></trkpt><trkpt lat="42.1110117" lon="11.9054401"><ele>261.2</ele><time>2026-04-18T12:41:01.06Z</time></trkpt><trkpt lat="42.1109682" lon="11.9053006"><ele>259.4</ele><time>2026-04-18T12:41:03.064Z</time></trkpt><trkpt lat="42.1109107" lon="11.9051791"><ele>257.59999999999997</ele><time>2026-04-18T12:41:05.076Z</time></trkpt><trkpt lat="42.110837" lon="11.9050921"><ele>255.79999999999998</ele><time>2026-04-18T12:41:07.06Z</time></trkpt><trkpt lat="42.1107385" lon="11.9050789"><ele>254.0</ele><time>2026-04-18T12:41:09.061Z</time></trkpt><trkpt lat="42.1106444" lon="11.9051338"><ele>252.2</ele><time>2026-04-18T12:41:11.061Z</time></trkpt><trkpt lat="42.1105574" lon="11.9052416"><ele>250.39999999999998</ele><time>2026-04-18T12:41:13.061Z</time></trkpt><trkpt lat="42.1104813" lon="11.905356"><ele>248.6</ele><time>2026-04-18T12:41:15.074Z</time></trkpt><trkpt lat="42.1104034" lon="11.9054368"><ele>246.8</ele><time>2026-04-18T12:41:17.056Z</time></trkpt><trkpt lat="42.1103208" lon="11.9055047"><ele>245.0</ele><time>2026-04-18T12:41:19.058Z</time></trkpt><trkpt lat="42.110233" lon="11.9055453"><ele>245.0</ele><time>2026-04-18T12:41:21.062Z</time></trkpt><trkpt lat="42.1101523" lon="11.9055586"><ele>245.0</ele><time>2026-04-18T12:41:23.056Z</time></trkpt><trkpt lat="42.110062" lon="11.905548"><ele>245.0</ele><time>2026-04-18T12:41:25.073Z</time></trkpt><trkpt lat="42.1099468" lon="11.9055245"><ele>245.0</ele><time>2026-04-18T12:41:27.062Z</time></trkpt><trkpt lat="42.1098717" lon="11.9054325"><ele>245.0</ele><time>2026-04-18T12:41:29.059Z</time></trkpt><trkpt lat="42.1098034" lon="11.9053262"><ele>245.0</ele><time>2026-04-18T12:41:31.058Z</time></trkpt><trkpt lat="42.1097186" lon="11.9052269"><ele>245.0</ele><time>2026-04-18T12:41:33.077Z</time></trkpt><trkpt lat="42.1096108" lon="11.9051633"><ele>245.0</ele><time>2026-04-18T12:41:35.058Z</time></trkpt><trkpt lat="42.1095109" lon="11.9051055"><ele>245.0</ele><time>2026-04-18T12:41:37.066Z</time></trkpt><trkpt lat="42.1094224" lon="11.9050041"><ele>243.33333333333334</ele><time>2026-04-18T12:41:39.067Z</time></trkpt><trkpt lat="42.1093709" lon="11.9049524"><ele>241.66666666666669</ele><time>2026-04-18T12:41:40.07Z</time></trkpt><trkpt lat="42.1093153" lon="11.9049068"><ele>240.0</ele><time>2026-04-18T12:41:41.06Z</time></trkpt><trkpt lat="42.1092568" lon="11.9048682"><ele>238.33333333333331</ele><time>2026-04-18T12:41:42.063Z</time></trkpt><trkpt lat="42.1091958" lon="11.9048423"><ele>236.66666666666666</ele><time>2026-04-18T12:41:43.072Z</time></trkpt><trkpt lat="42.109083" lon="11.9048011"><ele>235.0</ele><time>2026-04-18T12:41:45.064Z</time></trkpt><trkpt lat="42.1090027" lon="11.9047426"><ele>235.0</ele><time>2026-04-18T12:41:47.058Z</time></trkpt><trkpt lat="42.1089375" lon="11.9046547"><ele>235.0</ele><time>2026-04-18T12:41:49.064Z</time></trkpt><trkpt lat="42.1088844" lon="11.9045608"><ele>235.0</ele><time>2026-04-18T12:41:51.061Z</time></trkpt><trkpt lat="42.1088066" lon="11.9044857"><ele>235.0</ele><time>2026-04-18T12:41:53.059Z</time></trkpt><trkpt lat="42.1087399" lon="11.9043624"><ele>235.0</ele><time>2026-04-18T12:41:55.065Z</time></trkpt><trkpt lat="42.1087021" lon="11.9042917"><ele>231.25</ele><time>2026-04-18T12:41:56.064Z</time></trkpt><trkpt lat="42.1086246" lon="11.9041688"><ele>227.5</ele><time>2026-04-18T12:41:58.072Z</time></trkpt><trkpt lat="42.1085465" lon="11.9040574"><ele>223.75</ele><time>2026-04-18T12:42:00.057Z</time></trkpt><trkpt lat="42.1084563" lon="11.9039673"><ele>220.0</ele><time>2026-04-18T12:42:02.064Z</time></trkpt><trkpt lat="42.1083933" lon="11.9038535"><ele>220.0</ele><time>2026-04-18T12:42:04.058Z</time></trkpt><trkpt lat="42.1083431" lon="11.9037289"><ele>220.0</ele><time>2026-04-18T12:42:06.059Z</time></trkpt><trkpt lat="42.1082534" lon="11.9036563"><ele>220.0</ele><time>2026-04-18T12:42:08.074Z</time></trkpt><trkpt lat="42.1081581" lon="11.9036313"><ele>220.0</ele><time>2026-04-18T12:42:10.057Z</time></trkpt><trkpt lat="42.1080428" lon="11.9036241"><ele>220.0</ele><time>2026-04-18T12:42:12.062Z</time></trkpt><trkpt lat="42.1079775" lon="11.9036215"><ele>220.16666666666666</ele><time>2026-04-18T12:42:13.064Z</time></trkpt><trkpt lat="42.1079016" lon="11.9036028"><ele>220.33333333333331</ele><time>2026-04-18T12:42:14.058Z</time></trkpt><trkpt lat="42.1078376" lon="11.9035923"><ele>220.5</ele><time>2026-04-18T12:42:15.056Z</time></trkpt><trkpt lat="42.1077313" lon="11.9036382"><ele>220.66666666666669</ele><time>2026-04-18T12:42:17.073Z</time></trkpt><trkpt lat="42.1076724" lon="11.9036746"><ele>220.83333333333334</ele><time>2026-04-18T12:42:18.066Z</time></trkpt><trkpt lat="42.1075715" lon="11.9037474"><ele>221.0</ele><time>2026-04-18T12:42:20.068Z</time></trkpt><trkpt lat="42.1074815" lon="11.903743"><ele>221.0</ele><time>2026-04-18T12:42:22.06Z</time></trkpt><trkpt lat="42.1074419" lon="11.9036678"><ele>221.00000000000003</ele><time>2026-04-18T12:42:23.053Z</time></trkpt><trkpt lat="42.1074028" lon="11.9035927"><ele>221.00000000000003</ele><time>2026-04-18T12:42:24.056Z</time></trkpt><trkpt lat="42.1073642" lon="11.9035155"><ele>221.0</ele><time>2026-04-18T12:42:25.058Z</time></trkpt><trkpt lat="42.1072662" lon="11.9034058"><ele>221.0</ele><time>2026-04-18T12:42:27.062Z</time></trkpt><trkpt lat="42.1071883" lon="11.903271"><ele>218.57142857142858</ele><time>2026-04-18T12:42:29.052Z</time></trkpt><trkpt lat="42.1071579" lon="11.9031854"><ele>216.14285714285714</ele><time>2026-04-18T12:42:30.069Z</time></trkpt><trkpt lat="42.1071259" lon="11.9031035"><ele>213.71428571428572</ele><time>2026-04-18T12:42:31.063Z</time></trkpt><trkpt lat="42.1070898" lon="11.9030151"><ele>211.28571428571428</ele><time>2026-04-18T12:42:32.074Z</time></trkpt><trkpt lat="42.1070369" lon="11.9029277"><ele>208.85714285714286</ele><time>2026-04-18T12:42:33.066Z</time></trkpt><trkpt lat="42.1069873" lon="11.9028534"><ele>206.42857142857144</ele><time>2026-04-18T12:42:34.061Z</time></trkpt><trkpt lat="42.1069441" lon="11.9027876"><ele>204.0</ele><time>2026-04-18T12:42:35.058Z</time></trkpt><trkpt lat="42.1069022" lon="11.9027231"><ele>204.0</ele><time>2026-04-18T12:42:36.073Z</time></trkpt><trkpt lat="42.1068182" lon="11.9026069"><ele>204.0</ele><time>2026-04-18T12:42:38.067Z</time></trkpt><trkpt lat="42.1067507" lon="11.9024744"><ele>204.0</ele><time>2026-04-18T12:42:40.07Z</time></trkpt><trkpt lat="42.1067043" lon="11.9023487"><ele>204.0</ele><time>2026-04-18T12:42:42.076Z</time></trkpt><trkpt lat="42.1066394" lon="11.9022415"><ele>204.0</ele><time>2026-04-18T12:42:44.073Z</time></trkpt><trkpt lat="42.1065183" lon="11.9022016"><ele>200.6</ele><time>2026-04-18T12:42:46.07Z</time></trkpt><trkpt lat="42.1064509" lon="11.9022085"><ele>197.2</ele><time>2026-04-18T12:42:47.068Z</time></trkpt><trkpt lat="42.1063888" lon="11.9022289"><ele>193.79999999999998</ele><time>2026-04-18T12:42:48.071Z</time></trkpt><trkpt lat="42.1062837" lon="11.9022803"><ele>190.39999999999998</ele><time>2026-04-18T12:42:50.072Z</time></trkpt><trkpt lat="42.1061956" lon="11.9023594"><ele>187.0</ele><time>2026-04-18T12:42:52.067Z</time></trkpt><trkpt lat="42.1061107" lon="11.902467"><ele>187.0</ele><time>2026-04-18T12:42:54.069Z</time></trkpt><trkpt lat="42.1060185" lon="11.9025645"><ele>187.0</ele><time>2026-04-18T12:42:56.067Z</time></trkpt><trkpt lat="42.1059585" lon="11.9025933"><ele>187.0</ele><time>2026-04-18T12:42:57.055Z</time></trkpt><trkpt lat="42.1058348" lon="11.9025929"><ele>187.0</ele><time>2026-04-18T12:42:59.056Z</time></trkpt><trkpt lat="42.1057768" lon="11.9025475"><ele>187.0</ele><time>2026-04-18T12:43:00.054Z</time></trkpt><trkpt lat="42.1057302" lon="11.9024769"><ele>187.0</ele><time>2026-04-18T12:43:01.058Z</time></trkpt><trkpt lat="42.1056841" lon="11.9024041"><ele>188.0</ele><time>2026-04-18T12:43:02.053Z</time></trkpt><trkpt lat="42.105641" lon="11.9023143"><ele>189.0</ele><time>2026-04-18T12:43:03.064Z</time></trkpt><trkpt lat="42.1055951" lon="11.9022283"><ele>190.0</ele><time>2026-04-18T12:43:04.056Z</time></trkpt><trkpt lat="42.105547" lon="11.9021423"><ele>191.0</ele><time>2026-04-18T12:43:05.059Z</time></trkpt><trkpt lat="42.1055027" lon="11.9020718"><ele>191.99999999999997</ele><time>2026-04-18T12:43:06.073Z</time></trkpt><trkpt lat="42.1054468" lon="11.9019559"><ele>193.0</ele><time>2026-04-18T12:43:08.063Z</time></trkpt><trkpt lat="42.1053916" lon="11.9018341"><ele>190.16666666666666</ele><time>2026-04-18T12:43:10.06Z</time></trkpt><trkpt lat="42.1053173" lon="11.9017394"><ele>187.33333333333331</ele><time>2026-04-18T12:43:12.068Z</time></trkpt><trkpt lat="42.1052609" lon="11.9016554"><ele>184.5</ele><time>2026-04-18T12:43:14.061Z</time></trkpt><trkpt lat="42.1052088" lon="11.9015721"><ele>181.66666666666666</ele><time>2026-04-18T12:43:16.067Z</time></trkpt><trkpt lat="42.1051498" lon="11.901503"><ele>178.83333333333331</ele><time>2026-04-18T12:43:18.066Z</time></trkpt><trkpt lat="42.1050778" lon="11.9014375"><ele>176.0</ele><time>2026-04-18T12:43:21.072Z</time></trkpt><trkpt lat="42.1050236" lon="11.9013569"><ele>176.0</ele><time>2026-04-18T12:43:24.069Z</time></trkpt><trkpt lat="42.1049731" lon="11.901283"><ele>176.0</ele><time>2026-04-18T12:43:26.064Z</time></trkpt><trkpt lat="42.1049032" lon="11.9012095"><ele>176.0</ele><time>2026-04-18T12:43:29.067Z</time></trkpt><trkpt lat="42.1048432" lon="11.9011656"><ele>176.0</ele><time>2026-04-18T12:43:31.065Z</time></trkpt><trkpt lat="42.1047634" lon="11.9011247"><ele>176.0</ele><time>2026-04-18T12:43:33.054Z</time></trkpt><trkpt lat="42.1046835" lon="11.9010854"><ele>176.0</ele><time>2026-04-18T12:43:35.062Z</time></trkpt><trkpt lat="42.104591" lon="11.9010282"><ele>175.0</ele><time>2026-04-18T12:43:37.054Z</time></trkpt><trkpt lat="42.1045012" lon="11.9009165"><ele>174.0</ele><time>2026-04-18T12:43:39.055Z</time></trkpt><trkpt lat="42.1044401" lon="11.9008158"><ele>173.0</ele><time>2026-04-18T12:43:41.062Z</time></trkpt><trkpt lat="42.1043745" lon="11.900793"><ele>172.0</ele><time>2026-04-18T12:43:43.058Z</time></trkpt><trkpt lat="42.1043109" lon="11.9007986"><ele>171.0</ele><time>2026-04-18T12:43:46.058Z</time></trkpt><trkpt lat="42.1042051" lon="11.9007991"><ele>170.33333333333334</ele><time>2026-04-18T12:44:57.056Z</time></trkpt><trkpt lat="42.1041343" lon="11.9008096"><ele>169.66666666666666</ele><time>2026-04-18T12:44:58.062Z</time></trkpt><trkpt lat="42.1040551" lon="11.9008242"><ele>169.0</ele><time>2026-04-18T12:44:59.06Z</time></trkpt><trkpt lat="42.1039818" lon="11.9008381"><ele>168.33333333333331</ele><time>2026-04-18T12:45:00.059Z</time></trkpt><trkpt lat="42.1039177" lon="11.9008483"><ele>167.66666666666666</ele><time>2026-04-18T12:45:01.066Z</time></trkpt><trkpt lat="42.1038107" lon="11.9008841"><ele>167.0</ele><time>2026-04-18T12:45:03.055Z</time></trkpt><trkpt lat="42.1037093" lon="11.9009456"><ele>167.0</ele><time>2026-04-18T12:45:05.061Z</time></trkpt><trkpt lat="42.1035987" lon="11.9010221"><ele>167.0</ele><time>2026-04-18T12:45:07.061Z</time></trkpt><trkpt lat="42.1035342" lon="11.9010311"><ele>167.0</ele><time>2026-04-18T12:45:08.059Z</time></trkpt><trkpt lat="42.1034183" lon="11.9009849"><ele>167.0</ele><time>2026-04-18T12:45:10.07Z</time></trkpt><trkpt lat="42.1033399" lon="11.9009375"><ele>167.0</ele><time>2026-04-18T12:45:12.057Z</time></trkpt><trkpt lat="42.1032728" lon="11.9008984"><ele>167.83333333333331</ele><time>2026-04-18T12:45:14.062Z</time></trkpt><trkpt lat="42.1031911" lon="11.900871"><ele>168.66666666666666</ele><time>2026-04-18T12:45:16.066Z</time></trkpt><trkpt lat="42.1031307" lon="11.9008006"><ele>169.5</ele><time>2026-04-18T12:45:18.059Z</time></trkpt><trkpt lat="42.1030859" lon="11.9006828"><ele>170.33333333333334</ele><time>2026-04-18T12:45:20.063Z</time></trkpt><trkpt lat="42.1030413" lon="11.9005443"><ele>171.16666666666669</ele><time>2026-04-18T12:45:22.066Z</time></trkpt><trkpt lat="42.1030063" lon="11.9004662"><ele>172.0</ele><time>2026-04-18T12:45:23.052Z</time></trkpt><trkpt lat="42.102971" lon="11.9003879"><ele>172.0</ele><time>2026-04-18T12:45:24.054Z</time></trkpt><trkpt lat="42.1029133" lon="11.9002327"><ele>172.0</ele><time>2026-04-18T12:45:26.057Z</time></trkpt><trkpt lat="42.1028867" lon="11.900151"><ele>172.0</ele><time>2026-04-18T12:45:27.061Z</time></trkpt><trkpt lat="42.1028593" lon="11.9000662"><ele>172.0</ele><time>2026-04-18T12:45:28.057Z</time></trkpt><trkpt lat="42.102831" lon="11.8999774"><ele>172.0</ele><time>2026-04-18T12:45:29.059Z</time></trkpt><trkpt lat="42.1028018" lon="11.8998905"><ele>172.0</ele><time>2026-04-18T12:45:30.067Z</time></trkpt><trkpt lat="42.1027631" lon="11.8997995"><ele>169.2</ele><time>2026-04-18T12:45:31.056Z</time></trkpt><trkpt lat="42.102726" lon="11.8997134"><ele>166.39999999999998</ele><time>2026-04-18T12:45:32.063Z</time></trkpt><trkpt lat="42.1026843" lon="11.8996408"><ele>163.60000000000002</ele><time>2026-04-18T12:45:33.064Z</time></trkpt><trkpt lat="42.1026312" lon="11.8995318"><ele>160.8</ele><time>2026-04-18T12:45:35.055Z</time></trkpt><trkpt lat="42.1025701" lon="11.8994245"><ele>158.0</ele><time>2026-04-18T12:45:37.062Z</time></trkpt><trkpt lat="42.1025056" lon="11.8992787"><ele>158.5</ele><time>2026-04-18T12:45:39.062Z</time></trkpt><trkpt lat="42.1024728" lon="11.899205"><ele>159.0</ele><time>2026-04-18T12:45:40.055Z</time></trkpt><trkpt lat="42.1024332" lon="11.8991312"><ele>159.5</ele><time>2026-04-18T12:45:41.071Z</time></trkpt><trkpt lat="42.1023889" lon="11.8990676"><ele>160.0</ele><time>2026-04-18T12:45:42.07Z</time></trkpt><trkpt lat="42.1022924" lon="11.8989627"><ele>160.5</ele><time>2026-04-18T12:45:44.063Z</time></trkpt><trkpt lat="42.1021957" lon="11.8989006"><ele>161.0</ele><time>2026-04-18T12:45:46.054Z</time></trkpt><trkpt lat="42.1020814" lon="11.8988612"><ele>161.0</ele><time>2026-04-18T12:45:48.058Z</time></trkpt><trkpt lat="42.1019643" lon="11.8988181"><ele>161.0</ele><time>2026-04-18T12:45:50.059Z</time></trkpt><trkpt lat="42.1018672" lon="11.8987163"><ele>161.0</ele><time>2026-04-18T12:45:52.066Z</time></trkpt><trkpt lat="42.1018263" lon="11.8986475"><ele>161.0</ele><time>2026-04-18T12:45:53.055Z</time></trkpt><trkpt lat="42.1017826" lon="11.8985769"><ele>161.0</ele><time>2026-04-18T12:45:54.072Z</time></trkpt><trkpt lat="42.1017337" lon="11.8985112"><ele>161.0</ele><time>2026-04-18T12:45:55.073Z</time></trkpt><trkpt lat="42.1016823" lon="11.8984448"><ele>160.0</ele><time>2026-04-18T12:45:56.061Z</time></trkpt><trkpt lat="42.1016221" lon="11.8983799"><ele>159.0</ele><time>2026-04-18T12:45:57.068Z</time></trkpt><trkpt lat="42.1015615" lon="11.8983149"><ele>158.0</ele><time>2026-04-18T12:45:58.064Z</time></trkpt><trkpt lat="42.1014918" lon="11.8982657"><ele>157.0</ele><time>2026-04-18T12:45:59.067Z</time></trkpt><trkpt lat="42.101425" lon="11.898219"><ele>156.0</ele><time>2026-04-18T12:46:00.058Z</time></trkpt><trkpt lat="42.1013579" lon="11.8981808"><ele>155.0</ele><time>2026-04-18T12:46:01.06Z</time></trkpt><trkpt lat="42.1012913" lon="11.8981447"><ele>155.0</ele><time>2026-04-18T12:46:02.059Z</time></trkpt><trkpt lat="42.1012321" lon="11.8981104"><ele>155.0</ele><time>2026-04-18T12:46:03.059Z</time></trkpt><trkpt lat="42.1011751" lon="11.8980643"><ele>155.0</ele><time>2026-04-18T12:46:04.067Z</time></trkpt><trkpt lat="42.1011168" lon="11.8980146"><ele>155.0</ele><time>2026-04-18T12:46:05.07Z</time></trkpt><trkpt lat="42.1010362" lon="11.8979119"><ele>155.0</ele><time>2026-04-18T12:46:07.058Z</time></trkpt><trkpt lat="42.1010067" lon="11.8977666"><ele>155.0</ele><time>2026-04-18T12:46:09.064Z</time></trkpt><trkpt lat="42.100967" lon="11.8976255"><ele>154.85714285714286</ele><time>2026-04-18T12:46:11.073Z</time></trkpt><trkpt lat="42.1009349" lon="11.8975458"><ele>154.71428571428572</ele><time>2026-04-18T12:46:12.069Z</time></trkpt><trkpt lat="42.1008942" lon="11.8974636"><ele>154.57142857142856</ele><time>2026-04-18T12:46:13.055Z</time></trkpt><trkpt lat="42.1008418" lon="11.8973905"><ele>154.42857142857144</ele><time>2026-04-18T12:46:14.058Z</time></trkpt><trkpt lat="42.1007878" lon="11.8973292"><ele>154.28571428571428</ele><time>2026-04-18T12:46:15.063Z</time></trkpt><trkpt lat="42.100735" lon="11.8972762"><ele>154.14285714285714</ele><time>2026-04-18T12:46:16.056Z</time></trkpt><trkpt lat="42.100682" lon="11.8972216"><ele>154.0</ele><time>2026-04-18T12:46:17.083Z</time></trkpt><trkpt lat="42.1006213" lon="11.8971605"><ele>154.0</ele><time>2026-04-18T12:46:18.075Z</time></trkpt><trkpt lat="42.1005574" lon="11.8970913"><ele>154.0</ele><time>2026-04-18T12:46:19.06Z</time></trkpt><trkpt lat="42.100488" lon="11.8970255"><ele>154.0</ele><time>2026-04-18T12:46:20.06Z</time></trkpt><trkpt lat="42.1004088" lon="11.896966"><ele>154.0</ele><time>2026-04-18T12:46:21.074Z</time></trkpt><trkpt lat="42.1003283" lon="11.8969058"><ele>154.0</ele><time>2026-04-18T12:46:22.061Z</time></trkpt><trkpt lat="42.1002553" lon="11.8968469"><ele>154.0</ele><time>2026-04-18T12:46:23.059Z</time></trkpt><trkpt lat="42.1001892" lon="11.896788"><ele>153.33333333333334</ele><time>2026-04-18T12:46:24.062Z</time></trkpt><trkpt lat="42.1001238" lon="11.8967278"><ele>152.66666666666669</ele><time>2026-04-18T12:46:25.064Z</time></trkpt><trkpt lat="42.1000578" lon="11.8966749"><ele>152.0</ele><time>2026-04-18T12:46:26.055Z</time></trkpt><trkpt lat="42.0999535" lon="11.8965896"><ele>151.33333333333334</ele><time>2026-04-18T12:46:28.06Z</time></trkpt><trkpt lat="42.0998942" lon="11.8965313"><ele>150.66666666666666</ele><time>2026-04-18T12:46:29.06Z</time></trkpt><trkpt lat="42.0998366" lon="11.8964568"><ele>150.0</ele><time>2026-04-18T12:46:30.054Z</time></trkpt><trkpt lat="42.0997827" lon="11.8963807"><ele>150.0</ele><time>2026-04-18T12:46:31.06Z</time></trkpt><trkpt lat="42.0997326" lon="11.8963113"><ele>150.0</ele><time>2026-04-18T12:46:32.062Z</time></trkpt><trkpt lat="42.0996617" lon="11.8961976"><ele>150.0</ele><time>2026-04-18T12:46:34.061Z</time></trkpt><trkpt lat="42.0996134" lon="11.8961128"><ele>150.0</ele><time>2026-04-18T12:46:36.065Z</time></trkpt><trkpt lat="42.0995656" lon="11.896034"><ele>150.0</ele><time>2026-04-18T12:47:19.068Z</time></trkpt><trkpt lat="42.0994909" lon="11.8959648"><ele>150.0</ele><time>2026-04-18T12:47:21.069Z</time></trkpt><trkpt lat="42.0993734" lon="11.8959605"><ele>149.99999999999997</ele><time>2026-04-18T12:47:23.058Z</time></trkpt><trkpt lat="42.0993051" lon="11.8959781"><ele>150.0</ele><time>2026-04-18T12:47:24.064Z</time></trkpt><trkpt lat="42.0992339" lon="11.896012"><ele>150.0</ele><time>2026-04-18T12:47:25.07Z</time></trkpt><trkpt lat="42.0991642" lon="11.8960342"><ele>150.0</ele><time>2026-04-18T12:47:26.08Z</time></trkpt><trkpt lat="42.0990927" lon="11.896057"><ele>150.0</ele><time>2026-04-18T12:47:27.062Z</time></trkpt><trkpt lat="42.099025" lon="11.8960285"><ele>149.99999999999997</ele><time>2026-04-18T12:47:28.08Z</time></trkpt><trkpt lat="42.0989679" lon="11.8959876"><ele>150.0</ele><time>2026-04-18T12:47:29.058Z</time></trkpt><trkpt lat="42.0988979" lon="11.8958557"><ele>148.0</ele><time>2026-04-18T12:47:31.061Z</time></trkpt><trkpt lat="42.09887" lon="11.8957616"><ele>146.0</ele><time>2026-04-18T12:47:32.074Z</time></trkpt><trkpt lat="42.0988385" lon="11.8956613"><ele>144.0</ele><time>2026-04-18T12:47:33.062Z</time></trkpt><trkpt lat="42.0988013" lon="11.8955603"><ele>142.0</ele><time>2026-04-18T12:47:34.064Z</time></trkpt><trkpt lat="42.0987596" lon="11.8954662"><ele>140.0</ele><time>2026-04-18T12:47:35.062Z</time></trkpt><trkpt lat="42.098708" lon="11.8953634"><ele>138.0</ele><time>2026-04-18T12:47:36.071Z</time></trkpt><trkpt lat="42.0986433" lon="11.8952666"><ele>138.0</ele><time>2026-04-18T12:47:37.069Z</time></trkpt><trkpt lat="42.0985747" lon="11.895173"><ele>138.0</ele><time>2026-04-18T12:47:38.062Z</time></trkpt><trkpt lat="42.0985021" lon="11.8950908"><ele>138.0</ele><time>2026-04-18T12:47:39.071Z</time></trkpt><trkpt lat="42.0984135" lon="11.8950302"><ele>138.0</ele><time>2026-04-18T12:47:40.062Z</time></trkpt><trkpt lat="42.098315" lon="11.8949883"><ele>138.0</ele><time>2026-04-18T12:47:41.051Z</time></trkpt><trkpt lat="42.0982092" lon="11.8949456"><ele>137.25</ele><time>2026-04-18T12:47:42.068Z</time></trkpt><trkpt lat="42.0980983" lon="11.8948972"><ele>136.5</ele><time>2026-04-18T12:47:43.058Z</time></trkpt><trkpt lat="42.0979907" lon="11.8948439"><ele>135.75</ele><time>2026-04-18T12:47:44.053Z</time></trkpt><trkpt lat="42.0978813" lon="11.8947948"><ele>135.0</ele><time>2026-04-18T12:47:45.07Z</time></trkpt><trkpt lat="42.0977767" lon="11.8947459"><ele>135.0</ele><time>2026-04-18T12:47:46.074Z</time></trkpt><trkpt lat="42.09769" lon="11.8946866"><ele>135.0</ele><time>2026-04-18T12:47:47.057Z</time></trkpt><trkpt lat="42.0976238" lon="11.8946406"><ele>135.0</ele><time>2026-04-18T12:47:48.062Z</time></trkpt><trkpt lat="42.0975641" lon="11.8946033"><ele>135.0</ele><time>2026-04-18T12:47:49.061Z</time></trkpt><trkpt lat="42.0975043" lon="11.8945642"><ele>135.0</ele><time>2026-04-18T12:47:50.071Z</time></trkpt><trkpt lat="42.0974402" lon="11.8945199"><ele>135.0</ele><time>2026-04-18T12:47:51.063Z</time></trkpt><trkpt lat="42.097376" lon="11.8944685"><ele>134.4</ele><time>2026-04-18T12:47:52.068Z</time></trkpt><trkpt lat="42.0973263" lon="11.8943871"><ele>133.8</ele><time>2026-04-18T12:47:53.061Z</time></trkpt><trkpt lat="42.0972936" lon="11.8943065"><ele>133.2</ele><time>2026-04-18T12:47:54.059Z</time></trkpt><trkpt lat="42.0972595" lon="11.8942339"><ele>132.6</ele><time>2026-04-18T12:47:55.052Z</time></trkpt><trkpt lat="42.0971675" lon="11.8941228"><ele>132.0</ele><time>2026-04-18T12:47:57.072Z</time></trkpt><trkpt lat="42.0970847" lon="11.8940094"><ele>132.0</ele><time>2026-04-18T12:47:59.063Z</time></trkpt><trkpt lat="42.0969906" lon="11.893896"><ele>132.0</ele><time>2026-04-18T12:48:01.058Z</time></trkpt><trkpt lat="42.096914" lon="11.893763"><ele>132.0</ele><time>2026-04-18T12:48:03.063Z</time></trkpt><trkpt lat="42.096879" lon="11.8936892"><ele>132.0</ele><time>2026-04-18T12:48:04.059Z</time></trkpt><trkpt lat="42.0968334" lon="11.8936196"><ele>132.0</ele><time>2026-04-18T12:48:05.067Z</time></trkpt><trkpt lat="42.0967815" lon="11.8935535"><ele>132.0</ele><time>2026-04-18T12:48:06.062Z</time></trkpt><trkpt lat="42.0967311" lon="11.893489"><ele>132.0</ele><time>2026-04-18T12:48:07.061Z</time></trkpt><trkpt lat="42.0966819" lon="11.8934224"><ele>132.0</ele><time>2026-04-18T12:48:08.064Z</time></trkpt><trkpt lat="42.0966374" lon="11.8933545"><ele>132.0</ele><time>2026-04-18T12:48:09.06Z</time></trkpt><trkpt lat="42.0965878" lon="11.8932993"><ele>132.0</ele><time>2026-04-18T12:48:10.058Z</time></trkpt><trkpt lat="42.0964908" lon="11.8932419"><ele>132.0</ele><time>2026-04-18T12:48:12.072Z</time></trkpt><trkpt lat="42.096423" lon="11.8932022"><ele>133.33333333333334</ele><time>2026-04-18T12:48:14.067Z</time></trkpt><trkpt lat="42.0963409" lon="11.8931786"><ele>134.66666666666666</ele><time>2026-04-18T12:48:16.069Z</time></trkpt><trkpt lat="42.0962077" lon="11.8931502"><ele>136.0</ele><time>2026-04-18T12:48:18.066Z</time></trkpt><trkpt lat="42.0961329" lon="11.8931327"><ele>137.33333333333331</ele><time>2026-04-18T12:48:19.056Z</time></trkpt><trkpt lat="42.0960634" lon="11.8931021"><ele>138.66666666666666</ele><time>2026-04-18T12:48:20.06Z</time></trkpt><trkpt lat="42.096008" lon="11.8930576"><ele>140.0</ele><time>2026-04-18T12:48:21.071Z</time></trkpt><trkpt lat="42.0959792" lon="11.8929325"><ele>140.0</ele><time>2026-04-18T12:48:23.057Z</time></trkpt><trkpt lat="42.0959637" lon="11.8927884"><ele>140.0</ele><time>2026-04-18T12:48:25.054Z</time></trkpt><trkpt lat="42.0959107" lon="11.8926601"><ele>140.0</ele><time>2026-04-18T12:48:27.06Z</time></trkpt><trkpt lat="42.095845" lon="11.8925386"><ele>140.0</ele><time>2026-04-18T12:48:29.061Z</time></trkpt><trkpt lat="42.09575" lon="11.8924272"><ele>141.85714285714286</ele><time>2026-04-18T12:48:31.058Z</time></trkpt><trkpt lat="42.0956998" lon="11.8923704"><ele>143.71428571428572</ele><time>2026-04-18T12:48:32.058Z</time></trkpt><trkpt lat="42.0956305" lon="11.8923205"><ele>145.57142857142856</ele><time>2026-04-18T12:48:33.057Z</time></trkpt><trkpt lat="42.0955611" lon="11.8922783"><ele>147.42857142857144</ele><time>2026-04-18T12:48:34.066Z</time></trkpt><trkpt lat="42.0954985" lon="11.8922374"><ele>149.28571428571428</ele><time>2026-04-18T12:48:35.059Z</time></trkpt><trkpt lat="42.095442" lon="11.8921734"><ele>151.14285714285714</ele><time>2026-04-18T12:48:36.061Z</time></trkpt><trkpt lat="42.0953941" lon="11.8920855"><ele>153.0</ele><time>2026-04-18T12:48:37.055Z</time></trkpt><trkpt lat="42.0953349" lon="11.891988"><ele>153.0</ele><time>2026-04-18T12:48:38.064Z</time></trkpt><trkpt lat="42.0952779" lon="11.8919103"><ele>153.0</ele><time>2026-04-18T12:48:39.055Z</time></trkpt><trkpt lat="42.0952233" lon="11.8918549"><ele>153.0</ele><time>2026-04-18T12:48:40.06Z</time></trkpt><trkpt lat="42.0951715" lon="11.8918018"><ele>153.0</ele><time>2026-04-18T12:48:41.064Z</time></trkpt><trkpt lat="42.095054" lon="11.8917372"><ele>153.0</ele><time>2026-04-18T12:48:43.061Z</time></trkpt><trkpt lat="42.0949843" lon="11.8917105"><ele>153.0</ele><time>2026-04-18T12:48:44.068Z</time></trkpt><trkpt lat="42.0949133" lon="11.8916825"><ele>152.66666666666666</ele><time>2026-04-18T12:48:45.057Z</time></trkpt><trkpt lat="42.0948458" lon="11.8916571"><ele>152.33333333333334</ele><time>2026-04-18T12:48:46.06Z</time></trkpt><trkpt lat="42.0947403" lon="11.8916315"><ele>152.0</ele><time>2026-04-18T12:48:48.058Z</time></trkpt><trkpt lat="42.094662" lon="11.8915154"><ele>151.66666666666669</ele><time>2026-04-18T12:48:50.065Z</time></trkpt><trkpt lat="42.094628" lon="11.891421"><ele>151.33333333333334</ele><time>2026-04-18T12:48:51.059Z</time></trkpt><trkpt lat="42.0945946" lon="11.8913486"><ele>151.0</ele><time>2026-04-18T12:48:52.064Z</time></trkpt><trkpt lat="42.0944963" lon="11.8912335"><ele>151.0</ele><time>2026-04-18T12:48:54.063Z</time></trkpt><trkpt lat="42.0944301" lon="11.8911847"><ele>151.0</ele><time>2026-04-18T12:48:55.062Z</time></trkpt><trkpt lat="42.0943535" lon="11.8911395"><ele>151.0</ele><time>2026-04-18T12:48:56.065Z</time></trkpt><trkpt lat="42.0942783" lon="11.8910943"><ele>151.0</ele><time>2026-04-18T12:48:57.054Z</time></trkpt><trkpt lat="42.0941968" lon="11.8910558"><ele>151.0</ele><time>2026-04-18T12:48:58.062Z</time></trkpt><trkpt lat="42.0941159" lon="11.8910161"><ele>151.0</ele><time>2026-04-18T12:48:59.051Z</time></trkpt><trkpt lat="42.0940415" lon="11.8909691"><ele>150.85714285714286</ele><time>2026-04-18T12:49:00.062Z</time></trkpt><trkpt lat="42.0939796" lon="11.8909038"><ele>150.71428571428572</ele><time>2026-04-18T12:49:01.059Z</time></trkpt><trkpt lat="42.093927" lon="11.890835"><ele>150.57142857142856</ele><time>2026-04-18T12:49:02.06Z</time></trkpt><trkpt lat="42.0938788" lon="11.8907751"><ele>150.42857142857144</ele><time>2026-04-18T12:49:03.065Z</time></trkpt><trkpt lat="42.0938286" lon="11.8907166"><ele>150.28571428571428</ele><time>2026-04-18T12:49:04.072Z</time></trkpt><trkpt lat="42.0937817" lon="11.890658"><ele>150.14285714285714</ele><time>2026-04-18T12:49:05.061Z</time></trkpt><trkpt lat="42.0937335" lon="11.890598"><ele>150.0</ele><time>2026-04-18T12:49:06.065Z</time></trkpt><trkpt lat="42.0936328" lon="11.8905031"><ele>150.0</ele><time>2026-04-18T12:49:08.067Z</time></trkpt><trkpt lat="42.0935791" lon="11.8904529"><ele>150.0</ele><time>2026-04-18T12:49:09.061Z</time></trkpt><trkpt lat="42.0934659" lon="11.8903719"><ele>150.0</ele><time>2026-04-18T12:49:11.063Z</time></trkpt><trkpt lat="42.0933662" lon="11.8902921"><ele>150.0</ele><time>2026-04-18T12:49:13.061Z</time></trkpt><trkpt lat="42.0933125" lon="11.8902433"><ele>150.0</ele><time>2026-04-18T12:49:14.065Z</time></trkpt><trkpt lat="42.0932456" lon="11.8901937"><ele>151.16666666666666</ele><time>2026-04-18T12:49:15.057Z</time></trkpt><trkpt lat="42.0931777" lon="11.8901459"><ele>152.33333333333334</ele><time>2026-04-18T12:49:16.066Z</time></trkpt><trkpt lat="42.09311" lon="11.8901012"><ele>153.5</ele><time>2026-04-18T12:49:17.064Z</time></trkpt><trkpt lat="42.0930491" lon="11.8900554"><ele>154.66666666666669</ele><time>2026-04-18T12:49:18.073Z</time></trkpt><trkpt lat="42.0929906" lon="11.8900177"><ele>155.83333333333334</ele><time>2026-04-18T12:49:19.062Z</time></trkpt><trkpt lat="42.0928722" lon="11.8899839"><ele>157.0</ele><time>2026-04-18T12:49:21.056Z</time></trkpt><trkpt lat="42.0927556" lon="11.8900381"><ele>157.0</ele><time>2026-04-18T12:49:23.066Z</time></trkpt><trkpt lat="42.0926463" lon="11.8901013"><ele>157.0</ele><time>2026-04-18T12:49:25.065Z</time></trkpt><trkpt lat="42.0925553" lon="11.8901514"><ele>157.0</ele><time>2026-04-18T12:49:27.064Z</time></trkpt><trkpt lat="42.0924533" lon="11.8901813"><ele>157.0</ele><time>2026-04-18T12:49:29.059Z</time></trkpt><trkpt lat="42.0923373" lon="11.8901637"><ele>157.0</ele><time>2026-04-18T12:49:31.058Z</time></trkpt><trkpt lat="42.0922746" lon="11.8901545"><ele>155.83333333333334</ele><time>2026-04-18T12:49:32.059Z</time></trkpt><trkpt lat="42.0922099" lon="11.890139"><ele>154.66666666666669</ele><time>2026-04-18T12:49:33.054Z</time></trkpt><trkpt lat="42.0921362" lon="11.8901106"><ele>153.5</ele><time>2026-04-18T12:49:34.07Z</time></trkpt><trkpt lat="42.0920662" lon="11.890084"><ele>152.33333333333334</ele><time>2026-04-18T12:49:35.063Z</time></trkpt><trkpt lat="42.0920002" lon="11.8900538"><ele>151.16666666666666</ele><time>2026-04-18T12:49:36.058Z</time></trkpt><trkpt lat="42.0918983" lon="11.8900072"><ele>150.0</ele><time>2026-04-18T12:49:38.065Z</time></trkpt><trkpt lat="42.0917984" lon="11.8899831"><ele>149.99999999999997</ele><time>2026-04-18T12:49:40.057Z</time></trkpt><trkpt lat="42.0917258" lon="11.8899095"><ele>150.0</ele><time>2026-04-18T12:49:42.065Z</time></trkpt><trkpt lat="42.0917229" lon="11.8898181"><ele>150.0</ele><time>2026-04-18T12:49:43.066Z</time></trkpt><trkpt lat="42.0917371" lon="11.8897336"><ele>150.0</ele><time>2026-04-18T12:49:44.059Z</time></trkpt><trkpt lat="42.0917379" lon="11.8896467"><ele>150.0</ele><time>2026-04-18T12:49:45.065Z</time></trkpt><trkpt lat="42.0917199" lon="11.8895557"><ele>149.99999999999997</ele><time>2026-04-18T12:49:46.056Z</time></trkpt><trkpt lat="42.0917125" lon="11.8894597"><ele>150.0</ele><time>2026-04-18T12:49:47.064Z</time></trkpt><trkpt lat="42.0916831" lon="11.8893621"><ele>149.99999999999997</ele><time>2026-04-18T12:49:48.058Z</time></trkpt><trkpt lat="42.0916532" lon="11.8892599"><ele>150.0</ele><time>2026-04-18T12:49:49.06Z</time></trkpt><trkpt lat="42.0916244" lon="11.8891617"><ele>150.0</ele><time>2026-04-18T12:49:50.066Z</time></trkpt><trkpt lat="42.0916067" lon="11.8890639"><ele>150.0</ele><time>2026-04-18T12:49:51.061Z</time></trkpt><trkpt lat="42.0915901" lon="11.8889727"><ele>150.0</ele><time>2026-04-18T12:49:52.056Z</time></trkpt><trkpt lat="42.0915792" lon="11.8888839"><ele>149.99999999999997</ele><time>2026-04-18T12:49:53.064Z</time></trkpt><trkpt lat="42.0915643" lon="11.8887919"><ele>150.0</ele><time>2026-04-18T12:49:54.071Z</time></trkpt><trkpt lat="42.0915439" lon="11.8886882"><ele>151.0</ele><time>2026-04-18T12:49:55.07Z</time></trkpt><trkpt lat="42.0915078" lon="11.8885861"><ele>152.0</ele><time>2026-04-18T12:49:56.056Z</time></trkpt><trkpt lat="42.091464" lon="11.888495"><ele>153.0</ele><time>2026-04-18T12:49:57.073Z</time></trkpt><trkpt lat="42.0914148" lon="11.8884081"><ele>154.0</ele><time>2026-04-18T12:49:58.073Z</time></trkpt><trkpt lat="42.0913638" lon="11.8883319"><ele>155.0</ele><time>2026-04-18T12:49:59.071Z</time></trkpt><trkpt lat="42.0913054" lon="11.8882662"><ele>156.0</ele><time>2026-04-18T12:50:00.071Z</time></trkpt><trkpt lat="42.0912388" lon="11.8882017"><ele>156.0</ele><time>2026-04-18T12:50:01.061Z</time></trkpt><trkpt lat="42.0911696" lon="11.88814"><ele>156.0</ele><time>2026-04-18T12:50:02.068Z</time></trkpt><trkpt lat="42.0911026" lon="11.8880825"><ele>156.0</ele><time>2026-04-18T12:50:03.064Z</time></trkpt><trkpt lat="42.0910382" lon="11.8880267"><ele>156.0</ele><time>2026-04-18T12:50:04.058Z</time></trkpt><trkpt lat="42.0909702" lon="11.8880017"><ele>156.0</ele><time>2026-04-18T12:50:05.066Z</time></trkpt><trkpt lat="42.0909002" lon="11.8879765"><ele>156.0</ele><time>2026-04-18T12:50:06.076Z</time></trkpt><trkpt lat="42.0908188" lon="11.8879855"><ele>156.5</ele><time>2026-04-18T12:50:07.065Z</time></trkpt><trkpt lat="42.090738" lon="11.8879981"><ele>157.0</ele><time>2026-04-18T12:50:08.064Z</time></trkpt><trkpt lat="42.0906581" lon="11.8880274"><ele>157.5</ele><time>2026-04-18T12:50:09.06Z</time></trkpt><trkpt lat="42.0905829" lon="11.8880474"><ele>158.0</ele><time>2026-04-18T12:50:10.059Z</time></trkpt><trkpt lat="42.0905053" lon="11.8880578"><ele>158.5</ele><time>2026-04-18T12:50:11.057Z</time></trkpt><trkpt lat="42.0904304" lon="11.8880517"><ele>159.0</ele><time>2026-04-18T12:50:12.057Z</time></trkpt><trkpt lat="42.0903531" lon="11.8880312"><ele>159.0</ele><time>2026-04-18T12:50:13.055Z</time></trkpt><trkpt lat="42.0902707" lon="11.8880203"><ele>159.0</ele><time>2026-04-18T12:50:14.067Z</time></trkpt><trkpt lat="42.0901893" lon="11.8879692"><ele>159.0</ele><time>2026-04-18T12:50:15.063Z</time></trkpt><trkpt lat="42.0901195" lon="11.8879228"><ele>159.0</ele><time>2026-04-18T12:50:16.064Z</time></trkpt><trkpt lat="42.0900522" lon="11.8878951"><ele>159.0</ele><time>2026-04-18T12:50:17.055Z</time></trkpt><trkpt lat="42.0899835" lon="11.88787"><ele>159.0</ele><time>2026-04-18T12:50:18.066Z</time></trkpt><trkpt lat="42.0899158" lon="11.8878593"><ele>159.0</ele><time>2026-04-18T12:50:19.059Z</time></trkpt><trkpt lat="42.0898496" lon="11.8878694"><ele>159.0</ele><time>2026-04-18T12:50:20.064Z</time></trkpt><trkpt lat="42.0897886" lon="11.8878945"><ele>159.0</ele><time>2026-04-18T12:50:21.063Z</time></trkpt><trkpt lat="42.0897141" lon="11.8879278"><ele>159.0</ele><time>2026-04-18T12:50:23.067Z</time></trkpt><trkpt lat="42.0896399" lon="11.8879853"><ele>159.0</ele><time>2026-04-18T12:52:03.069Z</time></trkpt><trkpt lat="42.0895646" lon="11.888082"><ele>159.0</ele><time>2026-04-18T12:52:05.062Z</time></trkpt><trkpt lat="42.0895195" lon="11.8881548"><ele>159.0</ele><time>2026-04-18T12:52:06.062Z</time></trkpt><trkpt lat="42.0894721" lon="11.8882336"><ele>159.0</ele><time>2026-04-18T12:52:07.057Z</time></trkpt><trkpt lat="42.0894155" lon="11.8883227"><ele>159.0</ele><time>2026-04-18T12:52:08.068Z</time></trkpt><trkpt lat="42.0893493" lon="11.8884064"><ele>159.0</ele><time>2026-04-18T12:52:09.068Z</time></trkpt><trkpt lat="42.0892768" lon="11.8884829"><ele>159.0</ele><time>2026-04-18T12:52:10.07Z</time></trkpt><trkpt lat="42.0892061" lon="11.8885576"><ele>159.0</ele><time>2026-04-18T12:52:11.059Z</time></trkpt><trkpt lat="42.0891285" lon="11.8886181"><ele>159.83333333333334</ele><time>2026-04-18T12:52:12.069Z</time></trkpt><trkpt lat="42.0890494" lon="11.8886732"><ele>160.66666666666666</ele><time>2026-04-18T12:52:13.066Z</time></trkpt><trkpt lat="42.0889749" lon="11.8887201"><ele>161.5</ele><time>2026-04-18T12:52:14.061Z</time></trkpt><trkpt lat="42.0889033" lon="11.8887594"><ele>162.33333333333331</ele><time>2026-04-18T12:52:15.065Z</time></trkpt><trkpt lat="42.0888316" lon="11.8887984"><ele>163.16666666666666</ele><time>2026-04-18T12:52:16.074Z</time></trkpt><trkpt lat="42.0887563" lon="11.8888328"><ele>164.0</ele><time>2026-04-18T12:52:17.066Z</time></trkpt><trkpt lat="42.0886848" lon="11.8888651"><ele>164.0</ele><time>2026-04-18T12:52:18.067Z</time></trkpt><trkpt lat="42.088624" lon="11.8889059"><ele>164.0</ele><time>2026-04-18T12:52:19.064Z</time></trkpt><trkpt lat="42.0885673" lon="11.8889638"><ele>164.0</ele><time>2026-04-18T12:52:20.081Z</time></trkpt><trkpt lat="42.0884944" lon="11.8891013"><ele>164.0</ele><time>2026-04-18T12:52:22.069Z</time></trkpt><trkpt lat="42.0884593" lon="11.8891746"><ele>164.0</ele><time>2026-04-18T12:52:23.064Z</time></trkpt><trkpt lat="42.0884183" lon="11.8892563"><ele>164.0</ele><time>2026-04-18T12:52:24.068Z</time></trkpt><trkpt lat="42.0883743" lon="11.8893364"><ele>164.5</ele><time>2026-04-18T12:52:25.07Z</time></trkpt><trkpt lat="42.0883306" lon="11.889415"><ele>165.0</ele><time>2026-04-18T12:52:26.074Z</time></trkpt><trkpt lat="42.0882964" lon="11.8894908"><ele>165.5</ele><time>2026-04-18T12:52:27.058Z</time></trkpt><trkpt lat="42.0882352" lon="11.8896378"><ele>166.0</ele><time>2026-04-18T12:52:29.063Z</time></trkpt><trkpt lat="42.088198" lon="11.8897149"><ele>166.5</ele><time>2026-04-18T12:52:30.067Z</time></trkpt><trkpt lat="42.0881594" lon="11.8897915"><ele>167.0</ele><time>2026-04-18T12:52:31.067Z</time></trkpt><trkpt lat="42.0881232" lon="11.8898683"><ele>167.0</ele><time>2026-04-18T12:52:32.069Z</time></trkpt><trkpt lat="42.0880851" lon="11.8899425"><ele>167.0</ele><time>2026-04-18T12:52:33.062Z</time></trkpt><trkpt lat="42.0880491" lon="11.8900163"><ele>167.0</ele><time>2026-04-18T12:52:34.085Z</time></trkpt><trkpt lat="42.0880149" lon="11.890093"><ele>167.0</ele><time>2026-04-18T12:52:35.067Z</time></trkpt><trkpt lat="42.0879918" lon="11.8901818"><ele>167.0</ele><time>2026-04-18T12:52:36.068Z</time></trkpt><trkpt lat="42.0879799" lon="11.8902675"><ele>167.0</ele><time>2026-04-18T12:52:37.064Z</time></trkpt><trkpt lat="42.0879701" lon="11.8904125"><ele>167.0</ele><time>2026-04-18T12:52:39.064Z</time></trkpt><trkpt lat="42.0879519" lon="11.890524"><ele>168.8</ele><time>2026-04-18T12:52:41.072Z</time></trkpt><trkpt lat="42.0878877" lon="11.8906334"><ele>170.6</ele><time>2026-04-18T12:52:43.075Z</time></trkpt><trkpt lat="42.0878299" lon="11.8906987"><ele>172.4</ele><time>2026-04-18T12:52:44.072Z</time></trkpt><trkpt lat="42.0877537" lon="11.8907639"><ele>174.20000000000002</ele><time>2026-04-18T12:52:45.059Z</time></trkpt><trkpt lat="42.0876733" lon="11.8908249"><ele>176.0</ele><time>2026-04-18T12:52:46.074Z</time></trkpt><trkpt lat="42.0875717" lon="11.8908659"><ele>176.0</ele><time>2026-04-18T12:52:47.062Z</time></trkpt><trkpt lat="42.0874735" lon="11.8909157"><ele>176.0</ele><time>2026-04-18T12:52:48.062Z</time></trkpt><trkpt lat="42.0873974" lon="11.8909561"><ele>176.0</ele><time>2026-04-18T12:52:49.071Z</time></trkpt><trkpt lat="42.0873155" lon="11.8910017"><ele>176.0</ele><time>2026-04-18T12:52:51.066Z</time></trkpt><trkpt lat="42.0872345" lon="11.8909982"><ele>176.0</ele><time>2026-04-18T12:52:57.061Z</time></trkpt><trkpt lat="42.0871355" lon="11.8909271"><ele>175.5</ele><time>2026-04-18T12:52:59.07Z</time></trkpt><trkpt lat="42.0870882" lon="11.8907783"><ele>175.0</ele><time>2026-04-18T12:53:01.074Z</time></trkpt><trkpt lat="42.0870843" lon="11.8906897"><ele>174.5</ele><time>2026-04-18T12:53:02.068Z</time></trkpt><trkpt lat="42.0870945" lon="11.8905978"><ele>174.0</ele><time>2026-04-18T12:53:03.061Z</time></trkpt><trkpt lat="42.0871057" lon="11.8905121"><ele>173.5</ele><time>2026-04-18T12:53:04.064Z</time></trkpt><trkpt lat="42.0871353" lon="11.8904355"><ele>173.0</ele><time>2026-04-18T12:53:05.065Z</time></trkpt><trkpt lat="42.0872027" lon="11.8902957"><ele>173.0</ele><time>2026-04-18T12:53:07.071Z</time></trkpt><trkpt lat="42.0872385" lon="11.8901582"><ele>173.0</ele><time>2026-04-18T12:53:09.063Z</time></trkpt><trkpt lat="42.0872364" lon="11.8899918"><ele>173.0</ele><time>2026-04-18T12:53:11.065Z</time></trkpt><trkpt lat="42.0872036" lon="11.8898417"><ele>173.0</ele><time>2026-04-18T12:53:13.064Z</time></trkpt><trkpt lat="42.0871349" lon="11.8897305"><ele>171.66666666666666</ele><time>2026-04-18T12:53:15.079Z</time></trkpt><trkpt lat="42.0870856" lon="11.8896757"><ele>170.33333333333331</ele><time>2026-04-18T12:53:16.067Z</time></trkpt><trkpt lat="42.0870258" lon="11.8896235"><ele>169.0</ele><time>2026-04-18T12:53:17.078Z</time></trkpt><trkpt lat="42.0869564" lon="11.8895623"><ele>167.66666666666666</ele><time>2026-04-18T12:53:18.062Z</time></trkpt><trkpt lat="42.0868858" lon="11.8894972"><ele>166.33333333333334</ele><time>2026-04-18T12:53:19.074Z</time></trkpt><trkpt lat="42.0868122" lon="11.8894301"><ele>165.0</ele><time>2026-04-18T12:53:20.067Z</time></trkpt><trkpt lat="42.0867358" lon="11.8893584"><ele>165.0</ele><time>2026-04-18T12:53:21.065Z</time></trkpt><trkpt lat="42.0866551" lon="11.8892943"><ele>165.0</ele><time>2026-04-18T12:53:22.071Z</time></trkpt><trkpt lat="42.0865701" lon="11.8892436"><ele>165.0</ele><time>2026-04-18T12:53:23.064Z</time></trkpt><trkpt lat="42.0864852" lon="11.8892035"><ele>165.0</ele><time>2026-04-18T12:53:24.078Z</time></trkpt><trkpt lat="42.0864051" lon="11.8891673"><ele>165.0</ele><time>2026-04-18T12:53:25.06Z</time></trkpt><trkpt lat="42.0863351" lon="11.8891165"><ele>165.0</ele><time>2026-04-18T12:53:26.063Z</time></trkpt><trkpt lat="42.0862698" lon="11.8890652"><ele>162.16666666666666</ele><time>2026-04-18T12:53:27.061Z</time></trkpt><trkpt lat="42.0862166" lon="11.8889825"><ele>159.33333333333334</ele><time>2026-04-18T12:53:28.06Z</time></trkpt><trkpt lat="42.0861662" lon="11.8888873"><ele>156.5</ele><time>2026-04-18T12:53:29.057Z</time></trkpt><trkpt lat="42.0861125" lon="11.8887868"><ele>153.66666666666669</ele><time>2026-04-18T12:53:30.064Z</time></trkpt><trkpt lat="42.0860624" lon="11.8886803"><ele>150.83333333333334</ele><time>2026-04-18T12:53:31.065Z</time></trkpt><trkpt lat="42.0860116" lon="11.8885773"><ele>148.0</ele><time>2026-04-18T12:53:32.06Z</time></trkpt><trkpt lat="42.0859815" lon="11.8884891"><ele>146.0</ele><time>2026-04-18T12:53:33.067Z</time></trkpt><trkpt lat="42.0859298" lon="11.8883208"><ele>144.0</ele><time>2026-04-18T12:53:35.068Z</time></trkpt><trkpt lat="42.0858951" lon="11.8882373"><ele>142.0</ele><time>2026-04-18T12:53:36.061Z</time></trkpt><trkpt lat="42.0858683" lon="11.8881583"><ele>140.0</ele><time>2026-04-18T12:53:37.066Z</time></trkpt><trkpt lat="42.085772" lon="11.8880303"><ele>138.0</ele><time>2026-04-18T12:53:39.065Z</time></trkpt><trkpt lat="42.0857169" lon="11.8879601"><ele>136.6</ele><time>2026-04-18T12:53:40.075Z</time></trkpt><trkpt lat="42.0856481" lon="11.8878856"><ele>135.20000000000002</ele><time>2026-04-18T12:53:41.061Z</time></trkpt><trkpt lat="42.0855824" lon="11.8877798"><ele>133.8</ele><time>2026-04-18T12:53:42.067Z</time></trkpt><trkpt lat="42.0855206" lon="11.8876557"><ele>132.4</ele><time>2026-04-18T12:53:43.067Z</time></trkpt><trkpt lat="42.0854673" lon="11.8875233"><ele>131.0</ele><time>2026-04-18T12:53:44.077Z</time></trkpt><trkpt lat="42.0854136" lon="11.8873787"><ele>130.2</ele><time>2026-04-18T12:53:45.09Z</time></trkpt><trkpt lat="42.0853591" lon="11.8872383"><ele>129.39999999999998</ele><time>2026-04-18T12:53:46.073Z</time></trkpt><trkpt lat="42.0853087" lon="11.8871085"><ele>128.6</ele><time>2026-04-18T12:53:47.064Z</time></trkpt><trkpt lat="42.0852603" lon="11.8869814"><ele>127.8</ele><time>2026-04-18T12:53:48.076Z</time></trkpt><trkpt lat="42.0852161" lon="11.8868379"><ele>127.0</ele><time>2026-04-18T12:53:49.062Z</time></trkpt><trkpt lat="42.0851815" lon="11.8866861"><ele>126.19999999999999</ele><time>2026-04-18T12:53:50.066Z</time></trkpt><trkpt lat="42.0851493" lon="11.8865422"><ele>125.39999999999999</ele><time>2026-04-18T12:53:51.069Z</time></trkpt><trkpt lat="42.0851277" lon="11.8864162"><ele>124.60000000000001</ele><time>2026-04-18T12:53:52.069Z</time></trkpt><trkpt lat="42.0851058" lon="11.8863003"><ele>123.80000000000001</ele><time>2026-04-18T12:53:53.082Z</time></trkpt><trkpt lat="42.0850838" lon="11.886183"><ele>123.0</ele><time>2026-04-18T12:53:54.077Z</time></trkpt><trkpt lat="42.0850705" lon="11.886069"><ele>123.0</ele><time>2026-04-18T12:53:55.062Z</time></trkpt><trkpt lat="42.0850731" lon="11.8859469"><ele>123.00000000000001</ele><time>2026-04-18T12:53:56.08Z</time></trkpt><trkpt lat="42.0850751" lon="11.8858142"><ele>123.00000000000001</ele><time>2026-04-18T12:53:57.073Z</time></trkpt><trkpt lat="42.0850944" lon="11.8856827"><ele>123.0</ele><time>2026-04-18T12:53:58.069Z</time></trkpt><trkpt lat="42.0851182" lon="11.88556"><ele>123.0</ele><time>2026-04-18T12:53:59.074Z</time></trkpt><trkpt lat="42.0851362" lon="11.8854477"><ele>122.2</ele><time>2026-04-18T12:54:00.083Z</time></trkpt><trkpt lat="42.085149" lon="11.8853581"><ele>121.4</ele><time>2026-04-18T12:54:01.078Z</time></trkpt><trkpt lat="42.0851762" lon="11.8852087"><ele>120.60000000000001</ele><time>2026-04-18T12:54:03.067Z</time></trkpt><trkpt lat="42.0852009" lon="11.8850677"><ele>119.80000000000001</ele><time>2026-04-18T12:54:05.063Z</time></trkpt><trkpt lat="42.0852117" lon="11.884917"><ele>119.0</ele><time>2026-04-18T12:54:07.067Z</time></trkpt><trkpt lat="42.0852433" lon="11.8847587"><ele>117.33333333333333</ele><time>2026-04-18T12:54:09.069Z</time></trkpt><trkpt lat="42.0852563" lon="11.8846674"><ele>115.66666666666666</ele><time>2026-04-18T12:54:10.068Z</time></trkpt><trkpt lat="42.0852531" lon="11.8845808"><ele>114.0</ele><time>2026-04-18T12:54:11.07Z</time></trkpt><trkpt lat="42.0852211" lon="11.8844967"><ele>112.33333333333334</ele><time>2026-04-18T12:54:12.064Z</time></trkpt><trkpt lat="42.0851783" lon="11.8844072"><ele>110.66666666666667</ele><time>2026-04-18T12:54:13.068Z</time></trkpt><trkpt lat="42.0851095" lon="11.8843339"><ele>109.0</ele><time>2026-04-18T12:54:14.066Z</time></trkpt><trkpt lat="42.0850476" lon="11.8842407"><ele>107.2</ele><time>2026-04-18T12:54:15.06Z</time></trkpt><trkpt lat="42.0849879" lon="11.8841543"><ele>105.4</ele><time>2026-04-18T12:54:16.057Z</time></trkpt><trkpt lat="42.0849255" lon="11.8840622"><ele>103.6</ele><time>2026-04-18T12:54:17.068Z</time></trkpt><trkpt lat="42.0848653" lon="11.8839779"><ele>101.8</ele><time>2026-04-18T12:54:18.069Z</time></trkpt><trkpt lat="42.0847771" lon="11.8838953"><ele>100.0</ele><time>2026-04-18T12:54:20.065Z</time></trkpt><trkpt lat="42.0847095" lon="11.8838189"><ele>99.00000000000001</ele><time>2026-04-18T12:54:22.065Z</time></trkpt><trkpt lat="42.0846565" lon="11.8837568"><ele>98.0</ele><time>2026-04-18T12:54:24.07Z</time></trkpt><trkpt lat="42.0845988" lon="11.8836602"><ele>97.0</ele><time>2026-04-18T12:54:27.066Z</time></trkpt><trkpt lat="42.0845661" lon="11.8835867"><ele>96.0</ele><time>2026-04-18T12:54:29.062Z</time></trkpt><trkpt lat="42.0845268" lon="11.8835086"><ele>95.0</ele><time>2026-04-18T12:54:31.075Z</time></trkpt><trkpt lat="42.0844767" lon="11.8834155"><ele>94.0</ele><time>2026-04-18T12:54:33.065Z</time></trkpt><trkpt lat="42.0844345" lon="11.8833231"><ele>93.33333333333333</ele><time>2026-04-18T12:54:35.062Z</time></trkpt><trkpt lat="42.0844403" lon="11.8832211"><ele>92.66666666666666</ele><time>2026-04-18T12:54:38.078Z</time></trkpt><trkpt lat="42.0845212" lon="11.8832092"><ele>92.0</ele><time>2026-04-18T12:54:41.069Z</time></trkpt><trkpt lat="42.0846271" lon="11.883202"><ele>91.33333333333333</ele><time>2026-04-18T12:54:44.073Z</time></trkpt><trkpt lat="42.0846893" lon="11.8831619"><ele>90.66666666666667</ele><time>2026-04-18T12:54:47.065Z</time></trkpt><trkpt lat="42.0847103" lon="11.8830648"><ele>90.0</ele><time>2026-04-18T12:54:51.071Z</time></trkpt><trkpt lat="42.0847646" lon="11.8829814"><ele>90.0</ele><time>2026-04-18T12:54:54.068Z</time></trkpt><trkpt lat="42.0848085" lon="11.8829116"><ele>90.0</ele><time>2026-04-18T12:54:59.061Z</time></trkpt><trkpt lat="42.0848013" lon="11.8827783"><ele>90.0</ele><time>2026-04-18T12:55:02.068Z</time></trkpt><trkpt lat="42.084771" lon="11.8826813"><ele>90.0</ele><time>2026-04-18T12:55:04.075Z</time></trkpt><trkpt lat="42.0847643" lon="11.8825856"><ele>90.0</ele><time>2026-04-18T12:55:07.063Z</time></trkpt><trkpt lat="42.0848344" lon="11.8825263"><ele>90.0</ele><time>2026-04-18T13:05:36.062Z</time></trkpt><trkpt lat="42.0848975" lon="11.8823676"><ele>90.2</ele><time>2026-04-18T13:05:38.062Z</time></trkpt><trkpt lat="42.0849357" lon="11.8822645"><ele>90.4</ele><time>2026-04-18T13:05:39.063Z</time></trkpt><trkpt lat="42.0849672" lon="11.8821529"><ele>90.6</ele><time>2026-04-18T13:05:40.065Z</time></trkpt><trkpt lat="42.0849997" lon="11.8820427"><ele>90.8</ele><time>2026-04-18T13:05:41.062Z</time></trkpt><trkpt lat="42.0850291" lon="11.8819326"><ele>91.0</ele><time>2026-04-18T13:05:42.069Z</time></trkpt><trkpt lat="42.0850645" lon="11.881802"><ele>91.16666666666666</ele><time>2026-04-18T13:05:43.103Z</time></trkpt><trkpt lat="42.0850984" lon="11.8816754"><ele>91.33333333333333</ele><time>2026-04-18T13:05:44.069Z</time></trkpt><trkpt lat="42.0851286" lon="11.8815514"><ele>91.5</ele><time>2026-04-18T13:05:45.059Z</time></trkpt><trkpt lat="42.0851445" lon="11.8814306"><ele>91.66666666666667</ele><time>2026-04-18T13:05:46.072Z</time></trkpt><trkpt lat="42.0851475" lon="11.8813252"><ele>91.83333333333334</ele><time>2026-04-18T13:05:47.057Z</time></trkpt><trkpt lat="42.0851453" lon="11.8812329"><ele>92.0</ele><time>2026-04-18T13:05:48.067Z</time></trkpt><trkpt lat="42.0851465" lon="11.8811424"><ele>92.0</ele><time>2026-04-18T13:05:49.063Z</time></trkpt><trkpt lat="42.0851685" lon="11.8810514"><ele>92.0</ele><time>2026-04-18T13:05:50.066Z</time></trkpt><trkpt lat="42.08521" lon="11.8809625"><ele>92.0</ele><time>2026-04-18T13:05:51.059Z</time></trkpt><trkpt lat="42.0852585" lon="11.8808617"><ele>92.0</ele><time>2026-04-18T13:05:52.065Z</time></trkpt><trkpt lat="42.0853052" lon="11.8807627"><ele>92.0</ele><time>2026-04-18T13:05:53.055Z</time></trkpt><trkpt lat="42.0853436" lon="11.8806474"><ele>92.0</ele><time>2026-04-18T13:05:54.066Z</time></trkpt><trkpt lat="42.0853778" lon="11.8805351"><ele>93.16666666666667</ele><time>2026-04-18T13:05:55.061Z</time></trkpt><trkpt lat="42.0854178" lon="11.8804558"><ele>94.33333333333334</ele><time>2026-04-18T13:05:56.071Z</time></trkpt><trkpt lat="42.0854683" lon="11.8803804"><ele>95.5</ele><time>2026-04-18T13:05:57.06Z</time></trkpt><trkpt lat="42.0855254" lon="11.8803028"><ele>96.66666666666667</ele><time>2026-04-18T13:05:58.06Z</time></trkpt><trkpt lat="42.0855819" lon="11.8802309"><ele>97.83333333333333</ele><time>2026-04-18T13:05:59.074Z</time></trkpt><trkpt lat="42.0856384" lon="11.8801656"><ele>99.0</ele><time>2026-04-18T13:06:00.069Z</time></trkpt><trkpt lat="42.0857002" lon="11.8800964"><ele>101.16666666666667</ele><time>2026-04-18T13:06:01.063Z</time></trkpt><trkpt lat="42.0857546" lon="11.8800248"><ele>103.33333333333334</ele><time>2026-04-18T13:06:02.075Z</time></trkpt><trkpt lat="42.085803" lon="11.8799438"><ele>105.5</ele><time>2026-04-18T13:06:03.066Z</time></trkpt><trkpt lat="42.0858352" lon="11.8798539"><ele>107.66666666666667</ele><time>2026-04-18T13:06:04.065Z</time></trkpt><trkpt lat="42.0858538" lon="11.8797468"><ele>109.83333333333334</ele><time>2026-04-18T13:06:05.06Z</time></trkpt><trkpt lat="42.0858556" lon="11.8796373"><ele>112.0</ele><time>2026-04-18T13:06:06.064Z</time></trkpt><trkpt lat="42.0858567" lon="11.8795238"><ele>112.66666666666667</ele><time>2026-04-18T13:06:07.055Z</time></trkpt><trkpt lat="42.0858473" lon="11.8794132"><ele>113.33333333333334</ele><time>2026-04-18T13:06:08.066Z</time></trkpt><trkpt lat="42.0858296" lon="11.8793105"><ele>114.0</ele><time>2026-04-18T13:06:09.069Z</time></trkpt><trkpt lat="42.0858184" lon="11.8792106"><ele>114.66666666666666</ele><time>2026-04-18T13:06:10.063Z</time></trkpt><trkpt lat="42.0858261" lon="11.8790912"><ele>115.33333333333333</ele><time>2026-04-18T13:06:11.063Z</time></trkpt><trkpt lat="42.0858497" lon="11.8789767"><ele>116.0</ele><time>2026-04-18T13:06:12.065Z</time></trkpt><trkpt lat="42.085878" lon="11.8788648"><ele>117.83333333333333</ele><time>2026-04-18T13:06:13.064Z</time></trkpt><trkpt lat="42.0859087" lon="11.8787669"><ele>119.66666666666666</ele><time>2026-04-18T13:06:14.061Z</time></trkpt><trkpt lat="42.0859395" lon="11.8786665"><ele>121.5</ele><time>2026-04-18T13:06:15.069Z</time></trkpt><trkpt lat="42.085972" lon="11.8785625"><ele>123.33333333333334</ele><time>2026-04-18T13:06:16.064Z</time></trkpt><trkpt lat="42.0859997" lon="11.8784657"><ele>125.16666666666667</ele><time>2026-04-18T13:06:17.062Z</time></trkpt><trkpt lat="42.0860359" lon="11.8783729"><ele>127.0</ele><time>2026-04-18T13:06:18.061Z</time></trkpt><trkpt lat="42.0860748" lon="11.8782764"><ele>128.5</ele><time>2026-04-18T13:06:19.06Z</time></trkpt><trkpt lat="42.0861238" lon="11.8781742"><ele>130.0</ele><time>2026-04-18T13:06:20.065Z</time></trkpt><trkpt lat="42.0861762" lon="11.8780987"><ele>131.5</ele><time>2026-04-18T13:06:21.055Z</time></trkpt><trkpt lat="42.0862328" lon="11.878018"><ele>133.0</ele><time>2026-04-18T13:06:22.072Z</time></trkpt><trkpt lat="42.0862857" lon="11.8779256"><ele>134.5</ele><time>2026-04-18T13:06:23.061Z</time></trkpt><trkpt lat="42.0863368" lon="11.8778335"><ele>136.0</ele><time>2026-04-18T13:06:24.055Z</time></trkpt><trkpt lat="42.0863859" lon="11.8777499"><ele>136.0</ele><time>2026-04-18T13:06:25.064Z</time></trkpt><trkpt lat="42.0864498" lon="11.8776815"><ele>136.0</ele><time>2026-04-18T13:06:26.066Z</time></trkpt><trkpt lat="42.0865143" lon="11.8776201"><ele>136.0</ele><time>2026-04-18T13:06:27.065Z</time></trkpt><trkpt lat="42.086611" lon="11.8775453"><ele>136.0</ele><time>2026-04-18T13:06:29.06Z</time></trkpt><trkpt lat="42.0866534" lon="11.877475"><ele>136.0</ele><time>2026-04-18T13:06:30.067Z</time></trkpt><trkpt lat="42.0867162" lon="11.877372"><ele>136.0</ele><time>2026-04-18T13:06:32.063Z</time></trkpt><trkpt lat="42.0867875" lon="11.8773223"><ele>139.0</ele><time>2026-04-18T13:06:34.067Z</time></trkpt><trkpt lat="42.0868414" lon="11.8772676"><ele>142.0</ele><time>2026-04-18T13:06:54.073Z</time></trkpt><trkpt lat="42.0869271" lon="11.8771301"><ele>145.0</ele><time>2026-04-18T13:06:56.066Z</time></trkpt><trkpt lat="42.086975" lon="11.877032"><ele>148.0</ele><time>2026-04-18T13:06:57.072Z</time></trkpt><trkpt lat="42.0870213" lon="11.8769344"><ele>151.0</ele><time>2026-04-18T13:06:58.069Z</time></trkpt><trkpt lat="42.0870547" lon="11.8768203"><ele>152.5</ele><time>2026-04-18T13:06:59.076Z</time></trkpt><trkpt lat="42.0870863" lon="11.8767121"><ele>154.0</ele><time>2026-04-18T13:07:00.067Z</time></trkpt><trkpt lat="42.0870933" lon="11.8766083"><ele>155.5</ele><time>2026-04-18T13:07:01.067Z</time></trkpt><trkpt lat="42.0871056" lon="11.8765046"><ele>157.0</ele><time>2026-04-18T13:07:02.067Z</time></trkpt><trkpt lat="42.087149" lon="11.8764089"><ele>158.5</ele><time>2026-04-18T13:07:03.082Z</time></trkpt><trkpt lat="42.0871996" lon="11.8763115"><ele>160.0</ele><time>2026-04-18T13:07:04.085Z</time></trkpt><trkpt lat="42.0872624" lon="11.8762199"><ele>160.0</ele><time>2026-04-18T13:07:05.064Z</time></trkpt><trkpt lat="42.0873146" lon="11.8761269"><ele>160.0</ele><time>2026-04-18T13:07:06.066Z</time></trkpt><trkpt lat="42.0873755" lon="11.8760334"><ele>160.0</ele><time>2026-04-18T13:07:07.065Z</time></trkpt><trkpt lat="42.0874267" lon="11.8759209"><ele>160.0</ele><time>2026-04-18T13:07:08.076Z</time></trkpt><trkpt lat="42.0874762" lon="11.8758343"><ele>160.0</ele><time>2026-04-18T13:07:09.061Z</time></trkpt><trkpt lat="42.0875105" lon="11.875744"><ele>160.0</ele><time>2026-04-18T13:07:10.06Z</time></trkpt><trkpt lat="42.0875248" lon="11.8756498"><ele>161.83333333333334</ele><time>2026-04-18T13:07:11.066Z</time></trkpt><trkpt lat="42.0875395" lon="11.875547"><ele>163.66666666666669</ele><time>2026-04-18T13:07:12.073Z</time></trkpt><trkpt lat="42.0875538" lon="11.8754474"><ele>165.5</ele><time>2026-04-18T13:07:13.059Z</time></trkpt><trkpt lat="42.0875923" lon="11.8753689"><ele>167.33333333333334</ele><time>2026-04-18T13:07:14.057Z</time></trkpt><trkpt lat="42.0876506" lon="11.8753034"><ele>169.16666666666666</ele><time>2026-04-18T13:07:15.067Z</time></trkpt><trkpt lat="42.0877311" lon="11.8752339"><ele>171.0</ele><time>2026-04-18T13:07:16.068Z</time></trkpt><trkpt lat="42.0878261" lon="11.8751519"><ele>172.5</ele><time>2026-04-18T13:07:17.056Z</time></trkpt><trkpt lat="42.0879316" lon="11.8750586"><ele>174.0</ele><time>2026-04-18T13:07:18.075Z</time></trkpt><trkpt lat="42.0880385" lon="11.874966"><ele>175.5</ele><time>2026-04-18T13:07:19.055Z</time></trkpt><trkpt lat="42.0881473" lon="11.8748741"><ele>177.0</ele><time>2026-04-18T13:07:20.06Z</time></trkpt><trkpt lat="42.0882515" lon="11.8747674"><ele>176.75</ele><time>2026-04-18T13:07:21.058Z</time></trkpt><trkpt lat="42.0883568" lon="11.8746581"><ele>176.5</ele><time>2026-04-18T13:07:22.054Z</time></trkpt><trkpt lat="42.0884428" lon="11.8745434"><ele>176.25</ele><time>2026-04-18T13:07:23.06Z</time></trkpt><trkpt lat="42.0885119" lon="11.8744399"><ele>176.0</ele><time>2026-04-18T13:07:24.06Z</time></trkpt><trkpt lat="42.0885772" lon="11.8743378"><ele>178.66666666666666</ele><time>2026-04-18T13:07:25.061Z</time></trkpt><trkpt lat="42.0886188" lon="11.874241"><ele>181.33333333333331</ele><time>2026-04-18T13:07:26.053Z</time></trkpt><trkpt lat="42.0886597" lon="11.874167"><ele>184.0</ele><time>2026-04-18T13:07:27.067Z</time></trkpt><trkpt lat="42.088723" lon="11.8741124"><ele>186.66666666666666</ele><time>2026-04-18T13:07:28.058Z</time></trkpt><trkpt lat="42.0888026" lon="11.8740658"><ele>189.33333333333334</ele><time>2026-04-18T13:07:29.064Z</time></trkpt><trkpt lat="42.088883" lon="11.8740168"><ele>192.0</ele><time>2026-04-18T13:07:30.067Z</time></trkpt><trkpt lat="42.0889531" lon="11.8739695"><ele>192.0</ele><time>2026-04-18T13:07:31.058Z</time></trkpt><trkpt lat="42.0890078" lon="11.8739039"><ele>192.0</ele><time>2026-04-18T13:07:32.065Z</time></trkpt><trkpt lat="42.0890655" lon="11.8737948"><ele>192.0</ele><time>2026-04-18T13:07:33.06Z</time></trkpt><trkpt lat="42.0891181" lon="11.8736831"><ele>192.0</ele><time>2026-04-18T13:07:34.071Z</time></trkpt><trkpt lat="42.0891628" lon="11.8735684"><ele>192.0</ele><time>2026-04-18T13:07:35.052Z</time></trkpt><trkpt lat="42.0892073" lon="11.8734598"><ele>194.75</ele><time>2026-04-18T13:07:36.055Z</time></trkpt><trkpt lat="42.0892633" lon="11.87334"><ele>197.5</ele><time>2026-04-18T13:07:37.063Z</time></trkpt><trkpt lat="42.0893224" lon="11.8732139"><ele>200.25</ele><time>2026-04-18T13:07:38.062Z</time></trkpt><trkpt lat="42.0893846" lon="11.8730778"><ele>203.0</ele><time>2026-04-18T13:07:39.065Z</time></trkpt><trkpt lat="42.0894487" lon="11.8729374"><ele>203.0</ele><time>2026-04-18T13:07:40.056Z</time></trkpt><trkpt lat="42.0895116" lon="11.8727901"><ele>203.0</ele><time>2026-04-18T13:07:41.066Z</time></trkpt><trkpt lat="42.0895715" lon="11.8726639"><ele>203.0</ele><time>2026-04-18T13:07:42.062Z</time></trkpt><trkpt lat="42.0896315" lon="11.8725424"><ele>203.0</ele><time>2026-04-18T13:07:43.088Z</time></trkpt><trkpt lat="42.0897005" lon="11.8724336"><ele>205.66666666666669</ele><time>2026-04-18T13:07:44.06Z</time></trkpt><trkpt lat="42.0897683" lon="11.8723474"><ele>208.33333333333334</ele><time>2026-04-18T13:07:45.064Z</time></trkpt><trkpt lat="42.0898246" lon="11.8722757"><ele>211.0</ele><time>2026-04-18T13:07:47.056Z</time></trkpt><trkpt lat="42.0898241" lon="11.8721598"><ele>213.66666666666669</ele><time>2026-04-18T13:07:50.069Z</time></trkpt><trkpt lat="42.0897576" lon="11.8720937"><ele>216.33333333333334</ele><time>2026-04-18T13:07:58.073Z</time></trkpt><trkpt lat="42.0896767" lon="11.8720707"><ele>219.0</ele><time>2026-04-18T13:08:00.07Z</time></trkpt><trkpt lat="42.0896119" lon="11.8720504"><ele>219.0</ele><time>2026-04-18T13:08:01.061Z</time></trkpt><trkpt lat="42.0895406" lon="11.8720295"><ele>219.0</ele><time>2026-04-18T13:08:02.063Z</time></trkpt><trkpt lat="42.0894586" lon="11.8720062"><ele>219.0</ele><time>2026-04-18T13:08:03.066Z</time></trkpt><trkpt lat="42.0893715" lon="11.8719897"><ele>219.0</ele><time>2026-04-18T13:08:04.07Z</time></trkpt><trkpt lat="42.0892902" lon="11.8719745"><ele>219.0</ele><time>2026-04-18T13:08:05.069Z</time></trkpt><trkpt lat="42.0892064" lon="11.8719579"><ele>219.0</ele><time>2026-04-18T13:08:06.066Z</time></trkpt><trkpt lat="42.0891154" lon="11.8719359"><ele>219.39999999999998</ele><time>2026-04-18T13:08:07.065Z</time></trkpt><trkpt lat="42.089027" lon="11.8719165"><ele>219.79999999999998</ele><time>2026-04-18T13:08:08.066Z</time></trkpt><trkpt lat="42.0889359" lon="11.8719015"><ele>220.20000000000002</ele><time>2026-04-18T13:08:09.067Z</time></trkpt><trkpt lat="42.0888497" lon="11.8718846"><ele>220.60000000000002</ele><time>2026-04-18T13:08:10.06Z</time></trkpt><trkpt lat="42.0887614" lon="11.8718281"><ele>221.0</ele><time>2026-04-18T13:08:11.062Z</time></trkpt><trkpt lat="42.0886803" lon="11.8717616"><ele>223.0</ele><time>2026-04-18T13:08:12.067Z</time></trkpt><trkpt lat="42.0885944" lon="11.871691"><ele>225.0</ele><time>2026-04-18T13:08:13.058Z</time></trkpt><trkpt lat="42.0884888" lon="11.8716279"><ele>227.0</ele><time>2026-04-18T13:08:14.074Z</time></trkpt><trkpt lat="42.0883772" lon="11.8715608"><ele>229.0</ele><time>2026-04-18T13:08:15.064Z</time></trkpt><trkpt lat="42.0882473" lon="11.871519"><ele>229.5</ele><time>2026-04-18T13:08:16.071Z</time></trkpt><trkpt lat="42.0881165" lon="11.8714958"><ele>230.0</ele><time>2026-04-18T13:08:17.068Z</time></trkpt><trkpt lat="42.0879858" lon="11.8714935"><ele>230.5</ele><time>2026-04-18T13:08:18.065Z</time></trkpt><trkpt lat="42.0878768" lon="11.8714989"><ele>231.0</ele><time>2026-04-18T13:08:19.063Z</time></trkpt><trkpt lat="42.087787" lon="11.8715062"><ele>231.0</ele><time>2026-04-18T13:08:20.069Z</time></trkpt><trkpt lat="42.0877179" lon="11.8715213"><ele>231.00000000000003</ele><time>2026-04-18T13:08:21.059Z</time></trkpt><trkpt lat="42.0876019" lon="11.8715714"><ele>231.00000000000003</ele><time>2026-04-18T13:08:23.06Z</time></trkpt><trkpt lat="42.087537" lon="11.8716003"><ele>231.0</ele><time>2026-04-18T13:08:24.06Z</time></trkpt><trkpt lat="42.0874483" lon="11.8716024"><ele>231.0</ele><time>2026-04-18T13:08:25.069Z</time></trkpt><trkpt lat="42.0873359" lon="11.8715886"><ele>232.75</ele><time>2026-04-18T13:08:26.068Z</time></trkpt><trkpt lat="42.0872042" lon="11.8715918"><ele>234.5</ele><time>2026-04-18T13:08:27.068Z</time></trkpt><trkpt lat="42.0870654" lon="11.8716121"><ele>236.25</ele><time>2026-04-18T13:08:28.067Z</time></trkpt><trkpt lat="42.0869356" lon="11.8716394"><ele>238.0</ele><time>2026-04-18T13:08:29.062Z</time></trkpt><trkpt lat="42.0868148" lon="11.8716489"><ele>238.0</ele><time>2026-04-18T13:08:30.068Z</time></trkpt><trkpt lat="42.0866932" lon="11.8716326"><ele>238.0</ele><time>2026-04-18T13:08:31.069Z</time></trkpt><trkpt lat="42.0865713" lon="11.8715918"><ele>238.0</ele><time>2026-04-18T13:08:32.065Z</time></trkpt><trkpt lat="42.0864605" lon="11.8715442"><ele>238.0</ele><time>2026-04-18T13:08:33.065Z</time></trkpt><trkpt lat="42.0863665" lon="11.871507"><ele>237.49999999999997</ele><time>2026-04-18T13:08:34.081Z</time></trkpt><trkpt lat="42.0862743" lon="11.8714946"><ele>237.0</ele><time>2026-04-18T13:08:35.062Z</time></trkpt><trkpt lat="42.0861805" lon="11.8714888"><ele>236.5</ele><time>2026-04-18T13:08:36.064Z</time></trkpt><trkpt lat="42.0860951" lon="11.8715205"><ele>236.0</ele><time>2026-04-18T13:08:37.069Z</time></trkpt><trkpt lat="42.0860382" lon="11.8715629"><ele>235.49999999999997</ele><time>2026-04-18T13:08:38.068Z</time></trkpt><trkpt lat="42.0859689" lon="11.8716384"><ele>235.0</ele><time>2026-04-18T13:08:40.065Z</time></trkpt><trkpt lat="42.0859314" lon="11.8717306"><ele>234.83333333333331</ele><time>2026-04-18T13:08:43.06Z</time></trkpt><trkpt lat="42.0858771" lon="11.8717898"><ele>234.66666666666666</ele><time>2026-04-18T13:08:45.063Z</time></trkpt><trkpt lat="42.0858201" lon="11.8718417"><ele>234.5</ele><time>2026-04-18T13:08:46.061Z</time></trkpt><trkpt lat="42.0857518" lon="11.8719066"><ele>234.33333333333331</ele><time>2026-04-18T13:08:47.066Z</time></trkpt><trkpt lat="42.0856761" lon="11.8719736"><ele>234.16666666666666</ele><time>2026-04-18T13:08:48.082Z</time></trkpt><trkpt lat="42.085596" lon="11.8720408"><ele>234.0</ele><time>2026-04-18T13:08:49.067Z</time></trkpt><trkpt lat="42.0854999" lon="11.8721068"><ele>234.0</ele><time>2026-04-18T13:08:50.076Z</time></trkpt><trkpt lat="42.0854016" lon="11.872173"><ele>234.0</ele><time>2026-04-18T13:08:51.065Z</time></trkpt><trkpt lat="42.085294" lon="11.8722272"><ele>234.0</ele><time>2026-04-18T13:08:52.082Z</time></trkpt><trkpt lat="42.0851937" lon="11.8722924"><ele>234.0</ele><time>2026-04-18T13:08:53.064Z</time></trkpt><trkpt lat="42.0850896" lon="11.8723578"><ele>234.0</ele><time>2026-04-18T13:08:54.075Z</time></trkpt><trkpt lat="42.0849882" lon="11.8724306"><ele>233.99999999999997</ele><time>2026-04-18T13:08:55.067Z</time></trkpt><trkpt lat="42.0848896" lon="11.8725006"><ele>233.99999999999997</ele><time>2026-04-18T13:08:56.081Z</time></trkpt><trkpt lat="42.0848067" lon="11.8725783"><ele>234.0</ele><time>2026-04-18T13:08:57.064Z</time></trkpt><trkpt lat="42.0847384" lon="11.8726425"><ele>234.0</ele><time>2026-04-18T13:08:58.07Z</time></trkpt><trkpt lat="42.0846805" lon="11.8726932"><ele>233.5</ele><time>2026-04-18T13:08:59.071Z</time></trkpt><trkpt lat="42.0846051" lon="11.8727385"><ele>233.0</ele><time>2026-04-18T13:09:01.062Z</time></trkpt><trkpt lat="42.0845233" lon="11.8726902"><ele>232.5</ele><time>2026-04-18T13:09:05.071Z</time></trkpt><trkpt lat="42.0844372" lon="11.872594"><ele>232.0</ele><time>2026-04-18T13:09:07.066Z</time></trkpt><trkpt lat="42.0843836" lon="11.8725371"><ele>231.5</ele><time>2026-04-18T13:09:08.073Z</time></trkpt><trkpt lat="42.0843325" lon="11.8724741"><ele>231.0</ele><time>2026-04-18T13:09:09.064Z</time></trkpt><trkpt lat="42.084277" lon="11.8724149"><ele>231.0</ele><time>2026-04-18T13:09:10.073Z</time></trkpt><trkpt lat="42.0842159" lon="11.8723565"><ele>231.0</ele><time>2026-04-18T13:09:11.075Z</time></trkpt><trkpt lat="42.0841582" lon="11.8722882"><ele>231.0</ele><time>2026-04-18T13:09:12.067Z</time></trkpt><trkpt lat="42.0840989" lon="11.8722194"><ele>231.0</ele><time>2026-04-18T13:09:13.067Z</time></trkpt><trkpt lat="42.0840371" lon="11.8721551"><ele>231.0</ele><time>2026-04-18T13:09:14.063Z</time></trkpt><trkpt lat="42.0839695" lon="11.8720899"><ele>231.0</ele><time>2026-04-18T13:09:15.061Z</time></trkpt><trkpt lat="42.083894" lon="11.8720331"><ele>231.4</ele><time>2026-04-18T13:09:16.072Z</time></trkpt><trkpt lat="42.0838151" lon="11.8719708"><ele>231.8</ele><time>2026-04-18T13:09:17.064Z</time></trkpt><trkpt lat="42.0837383" lon="11.8718926"><ele>232.20000000000002</ele><time>2026-04-18T13:09:18.073Z</time></trkpt><trkpt lat="42.0836707" lon="11.8718002"><ele>232.60000000000002</ele><time>2026-04-18T13:09:19.068Z</time></trkpt><trkpt lat="42.0836001" lon="11.8717152"><ele>233.0</ele><time>2026-04-18T13:09:20.058Z</time></trkpt><trkpt lat="42.0835196" lon="11.8716416"><ele>230.50000000000003</ele><time>2026-04-18T13:09:21.071Z</time></trkpt><trkpt lat="42.0834349" lon="11.8715616"><ele>228.0</ele><time>2026-04-18T13:09:22.065Z</time></trkpt><trkpt lat="42.0833567" lon="11.8714787"><ele>225.5</ele><time>2026-04-18T13:09:23.061Z</time></trkpt><trkpt lat="42.0832962" lon="11.8714109"><ele>223.0</ele><time>2026-04-18T13:09:24.072Z</time></trkpt><trkpt lat="42.0832321" lon="11.8713651"><ele>220.50000000000003</ele><time>2026-04-18T13:09:25.064Z</time></trkpt><trkpt lat="42.0831672" lon="11.8713152"><ele>218.0</ele><time>2026-04-18T13:09:26.062Z</time></trkpt><trkpt lat="42.0831119" lon="11.8712588"><ele>218.0</ele><time>2026-04-18T13:09:27.063Z</time></trkpt><trkpt lat="42.0830715" lon="11.8711934"><ele>218.0</ele><time>2026-04-18T13:09:28.068Z</time></trkpt><trkpt lat="42.0829649" lon="11.8711122"><ele>218.0</ele><time>2026-04-18T13:09:30.064Z</time></trkpt><trkpt lat="42.0828587" lon="11.8710651"><ele>218.0</ele><time>2026-04-18T13:09:32.066Z</time></trkpt><trkpt lat="42.0827384" lon="11.8710212"><ele>218.0</ele><time>2026-04-18T13:09:34.065Z</time></trkpt><trkpt lat="42.0826717" lon="11.8710044"><ele>218.00000000000003</ele><time>2026-04-18T13:09:35.073Z</time></trkpt><trkpt lat="42.0825966" lon="11.8709818"><ele>218.0</ele><time>2026-04-18T13:09:36.067Z</time></trkpt><trkpt lat="42.0825217" lon="11.8709602"><ele>218.0</ele><time>2026-04-18T13:09:37.066Z</time></trkpt><trkpt lat="42.0824468" lon="11.8709111"><ele>218.0</ele><time>2026-04-18T13:09:38.069Z</time></trkpt><trkpt lat="42.0823718" lon="11.8708654"><ele>218.00000000000003</ele><time>2026-04-18T13:09:39.078Z</time></trkpt><trkpt lat="42.0823015" lon="11.8708232"><ele>218.0</ele><time>2026-04-18T13:09:40.074Z</time></trkpt><trkpt lat="42.082227" lon="11.8707844"><ele>215.60000000000002</ele><time>2026-04-18T13:09:41.067Z</time></trkpt><trkpt lat="42.0821309" lon="11.8707385"><ele>213.20000000000002</ele><time>2026-04-18T13:09:42.071Z</time></trkpt><trkpt lat="42.0820262" lon="11.8706952"><ele>210.8</ele><time>2026-04-18T13:09:43.059Z</time></trkpt><trkpt lat="42.0819223" lon="11.8706524"><ele>208.4</ele><time>2026-04-18T13:09:44.067Z</time></trkpt><trkpt lat="42.0818166" lon="11.8706006"><ele>206.0</ele><time>2026-04-18T13:09:45.062Z</time></trkpt><trkpt lat="42.081719" lon="11.8705427"><ele>206.00000000000003</ele><time>2026-04-18T13:09:46.057Z</time></trkpt><trkpt lat="42.0816326" lon="11.8705016"><ele>206.0</ele><time>2026-04-18T13:09:47.067Z</time></trkpt><trkpt lat="42.0815561" lon="11.8704667"><ele>206.0</ele><time>2026-04-18T13:09:48.07Z</time></trkpt><trkpt lat="42.0814853" lon="11.8704472"><ele>206.0</ele><time>2026-04-18T13:09:49.065Z</time></trkpt><trkpt lat="42.0814" lon="11.8704441"><ele>206.00000000000003</ele><time>2026-04-18T13:09:50.067Z</time></trkpt><trkpt lat="42.0813105" lon="11.8704599"><ele>206.0</ele><time>2026-04-18T13:09:51.069Z</time></trkpt><trkpt lat="42.0812249" lon="11.8704755"><ele>204.50000000000003</ele><time>2026-04-18T13:09:52.063Z</time></trkpt><trkpt lat="42.0811564" lon="11.8705062"><ele>203.0</ele><time>2026-04-18T13:09:53.065Z</time></trkpt><trkpt lat="42.0810913" lon="11.8705427"><ele>201.5</ele><time>2026-04-18T13:09:54.073Z</time></trkpt><trkpt lat="42.0810286" lon="11.8705932"><ele>200.0</ele><time>2026-04-18T13:09:55.065Z</time></trkpt><trkpt lat="42.08098" lon="11.870649"><ele>198.50000000000003</ele><time>2026-04-18T13:09:56.06Z</time></trkpt><trkpt lat="42.0809285" lon="11.8707039"><ele>197.0</ele><time>2026-04-18T13:09:57.076Z</time></trkpt><trkpt lat="42.0808376" lon="11.870822"><ele>197.00000000000003</ele><time>2026-04-18T13:09:59.066Z</time></trkpt><trkpt lat="42.080797" lon="11.8708883"><ele>197.0</ele><time>2026-04-18T13:10:00.07Z</time></trkpt><trkpt lat="42.0807302" lon="11.871"><ele>197.0</ele><time>2026-04-18T13:10:02.064Z</time></trkpt><trkpt lat="42.080636" lon="11.8709795"><ele>197.0</ele><time>2026-04-18T13:10:04.066Z</time></trkpt><trkpt lat="42.0805848" lon="11.8709113"><ele>197.00000000000003</ele><time>2026-04-18T13:10:05.063Z</time></trkpt><trkpt lat="42.080519" lon="11.8707938"><ele>197.0</ele><time>2026-04-18T13:10:06.07Z</time></trkpt><trkpt lat="42.0804459" lon="11.8706958"><ele>196.50000000000003</ele><time>2026-04-18T13:10:07.076Z</time></trkpt><trkpt lat="42.0803747" lon="11.8706273"><ele>196.0</ele><time>2026-04-18T13:10:08.064Z</time></trkpt><trkpt lat="42.0802966" lon="11.8705853"><ele>195.5</ele><time>2026-04-18T13:10:09.075Z</time></trkpt><trkpt lat="42.0802163" lon="11.870543"><ele>195.0</ele><time>2026-04-18T13:10:10.074Z</time></trkpt><trkpt lat="42.0801347" lon="11.8705241"><ele>194.50000000000003</ele><time>2026-04-18T13:10:11.06Z</time></trkpt><trkpt lat="42.0800591" lon="11.8705123"><ele>194.0</ele><time>2026-04-18T13:10:12.07Z</time></trkpt><trkpt lat="42.0799412" lon="11.8705008"><ele>194.79999999999998</ele><time>2026-04-18T13:10:14.074Z</time></trkpt><trkpt lat="42.0798307" lon="11.8704474"><ele>195.6</ele><time>2026-04-18T13:10:16.064Z</time></trkpt><trkpt lat="42.0797347" lon="11.8703708"><ele>196.4</ele><time>2026-04-18T13:10:18.069Z</time></trkpt><trkpt lat="42.079622" lon="11.8703022"><ele>197.2</ele><time>2026-04-18T13:10:20.07Z</time></trkpt><trkpt lat="42.0795618" lon="11.8702564"><ele>198.0</ele><time>2026-04-18T13:10:21.071Z</time></trkpt><trkpt lat="42.0795041" lon="11.8702081"><ele>198.0</ele><time>2026-04-18T13:10:22.073Z</time></trkpt><trkpt lat="42.0794164" lon="11.87013"><ele>198.0</ele><time>2026-04-18T13:10:24.065Z</time></trkpt><trkpt lat="42.0793499" lon="11.8700554"><ele>198.0</ele><time>2026-04-18T13:10:26.066Z</time></trkpt><trkpt lat="42.0793493" lon="11.8699632"><ele>198.0</ele><time>2026-04-18T13:10:28.072Z</time></trkpt><trkpt lat="42.0793819" lon="11.8698542"><ele>198.0</ele><time>2026-04-18T13:10:30.068Z</time></trkpt><trkpt lat="42.0794147" lon="11.8697633"><ele>198.0</ele><time>2026-04-18T13:10:32.066Z</time></trkpt><trkpt lat="42.0794446" lon="11.8696683"><ele>194.0</ele><time>2026-04-18T13:10:40.066Z</time></trkpt><trkpt lat="42.0795079" lon="11.8695861"><ele>190.0</ele><time>2026-04-18T13:10:43.058Z</time></trkpt><trkpt lat="42.0795758" lon="11.8694365"><ele>186.0</ele><time>2026-04-18T13:10:46.074Z</time></trkpt><trkpt lat="42.0796225" lon="11.8693244"><ele>182.0</ele><time>2026-04-18T13:10:47.066Z</time></trkpt><trkpt lat="42.0796744" lon="11.8692068"><ele>178.0</ele><time>2026-04-18T13:10:48.06Z</time></trkpt><trkpt lat="42.0797248" lon="11.8690839"><ele>176.0</ele><time>2026-04-18T13:10:49.057Z</time></trkpt><trkpt lat="42.0797697" lon="11.8689466"><ele>174.0</ele><time>2026-04-18T13:10:50.064Z</time></trkpt><trkpt lat="42.0798126" lon="11.8688167"><ele>172.0</ele><time>2026-04-18T13:10:51.06Z</time></trkpt><trkpt lat="42.0798514" lon="11.8687001"><ele>170.0</ele><time>2026-04-18T13:10:52.072Z</time></trkpt><trkpt lat="42.0798885" lon="11.8685903"><ele>168.0</ele><time>2026-04-18T13:10:53.068Z</time></trkpt><trkpt lat="42.079923" lon="11.86849"><ele>166.20000000000002</ele><time>2026-04-18T13:10:54.069Z</time></trkpt><trkpt lat="42.0799605" lon="11.8683967"><ele>164.4</ele><time>2026-04-18T13:10:55.059Z</time></trkpt><trkpt lat="42.0799978" lon="11.8682966"><ele>162.60000000000002</ele><time>2026-04-18T13:10:56.069Z</time></trkpt><trkpt lat="42.0800432" lon="11.8681794"><ele>160.8</ele><time>2026-04-18T13:10:57.057Z</time></trkpt><trkpt lat="42.0800929" lon="11.8680598"><ele>159.0</ele><time>2026-04-18T13:10:58.071Z</time></trkpt><trkpt lat="42.0801334" lon="11.8679547"><ele>159.0</ele><time>2026-04-18T13:10:59.063Z</time></trkpt><trkpt lat="42.0801533" lon="11.867838"><ele>159.0</ele><time>2026-04-18T13:11:00.066Z</time></trkpt><trkpt lat="42.0801548" lon="11.8677021"><ele>159.0</ele><time>2026-04-18T13:11:01.059Z</time></trkpt><trkpt lat="42.0801547" lon="11.8675603"><ele>159.0</ele><time>2026-04-18T13:11:02.067Z</time></trkpt><trkpt lat="42.0801551" lon="11.8674365"><ele>159.0</ele><time>2026-04-18T13:11:03.061Z</time></trkpt><trkpt lat="42.0801573" lon="11.867312"><ele>158.0</ele><time>2026-04-18T13:11:04.057Z</time></trkpt><trkpt lat="42.0801618" lon="11.8671812"><ele>157.0</ele><time>2026-04-18T13:11:05.06Z</time></trkpt><trkpt lat="42.0801671" lon="11.8670595"><ele>156.0</ele><time>2026-04-18T13:11:06.063Z</time></trkpt><trkpt lat="42.0801796" lon="11.8669615"><ele>155.0</ele><time>2026-04-18T13:11:07.063Z</time></trkpt><trkpt lat="42.0801907" lon="11.8668691"><ele>154.0</ele><time>2026-04-18T13:11:08.076Z</time></trkpt><trkpt lat="42.0801844" lon="11.8667808"><ele>153.0</ele><time>2026-04-18T13:11:09.063Z</time></trkpt><trkpt lat="42.0801653" lon="11.8666888"><ele>151.66666666666666</ele><time>2026-04-18T13:11:10.064Z</time></trkpt><trkpt lat="42.0801278" lon="11.8666045"><ele>150.33333333333334</ele><time>2026-04-18T13:11:11.051Z</time></trkpt><trkpt lat="42.0800702" lon="11.866536"><ele>149.0</ele><time>2026-04-18T13:11:12.059Z</time></trkpt><trkpt lat="42.0799957" lon="11.8664911"><ele>147.66666666666669</ele><time>2026-04-18T13:11:13.069Z</time></trkpt><trkpt lat="42.0799203" lon="11.8664516"><ele>146.33333333333334</ele><time>2026-04-18T13:11:14.072Z</time></trkpt><trkpt lat="42.0798331" lon="11.8664598"><ele>145.0</ele><time>2026-04-18T13:11:15.07Z</time></trkpt><trkpt lat="42.079759" lon="11.8664633"><ele>144.33333333333334</ele><time>2026-04-18T13:11:16.067Z</time></trkpt><trkpt lat="42.0796922" lon="11.8663856"><ele>143.66666666666669</ele><time>2026-04-18T13:11:18.055Z</time></trkpt><trkpt lat="42.0796905" lon="11.8662139"><ele>143.0</ele><time>2026-04-18T13:11:20.076Z</time></trkpt><trkpt lat="42.0797175" lon="11.8661166"><ele>142.33333333333334</ele><time>2026-04-18T13:11:21.072Z</time></trkpt><trkpt lat="42.0797432" lon="11.8660196"><ele>141.66666666666666</ele><time>2026-04-18T13:11:22.06Z</time></trkpt><trkpt lat="42.0797764" lon="11.8659326"><ele>141.0</ele><time>2026-04-18T13:11:23.065Z</time></trkpt><trkpt lat="42.0798599" lon="11.8658412"><ele>139.8</ele><time>2026-04-18T13:11:25.061Z</time></trkpt><trkpt lat="42.079956" lon="11.8658133"><ele>138.6</ele><time>2026-04-18T13:11:27.073Z</time></trkpt><trkpt lat="42.080063" lon="11.8658024"><ele>137.4</ele><time>2026-04-18T13:11:29.055Z</time></trkpt><trkpt lat="42.0801992" lon="11.8657797"><ele>136.2</ele><time>2026-04-18T13:11:31.058Z</time></trkpt><trkpt lat="42.0802797" lon="11.8657652"><ele>135.0</ele><time>2026-04-18T13:11:32.059Z</time></trkpt><trkpt lat="42.0803689" lon="11.8657479"><ele>135.0</ele><time>2026-04-18T13:11:33.063Z</time></trkpt><trkpt lat="42.0804624" lon="11.8657348"><ele>135.0</ele><time>2026-04-18T13:11:34.078Z</time></trkpt><trkpt lat="42.0805497" lon="11.8657125"><ele>135.0</ele><time>2026-04-18T13:11:35.069Z</time></trkpt><trkpt lat="42.0806315" lon="11.8656882"><ele>135.0</ele><time>2026-04-18T13:11:36.063Z</time></trkpt><trkpt lat="42.080708" lon="11.8656619"><ele>135.0</ele><time>2026-04-18T13:11:37.062Z</time></trkpt><trkpt lat="42.0807811" lon="11.8656457"><ele>135.0</ele><time>2026-04-18T13:11:38.067Z</time></trkpt><trkpt lat="42.0808553" lon="11.8656454"><ele>134.16666666666666</ele><time>2026-04-18T13:11:39.065Z</time></trkpt><trkpt lat="42.0809315" lon="11.865645"><ele>133.33333333333334</ele><time>2026-04-18T13:11:40.065Z</time></trkpt><trkpt lat="42.081007" lon="11.8656417"><ele>132.5</ele><time>2026-04-18T13:11:41.062Z</time></trkpt><trkpt lat="42.0810981" lon="11.8656294"><ele>131.66666666666669</ele><time>2026-04-18T13:11:42.065Z</time></trkpt><trkpt lat="42.0811794" lon="11.8656294"><ele>130.83333333333334</ele><time>2026-04-18T13:11:43.054Z</time></trkpt><trkpt lat="42.0812555" lon="11.8656294"><ele>130.0</ele><time>2026-04-18T13:11:44.068Z</time></trkpt><trkpt lat="42.0813251" lon="11.8656185"><ele>130.0</ele><time>2026-04-18T13:11:45.06Z</time></trkpt><trkpt lat="42.0814266" lon="11.8655771"><ele>130.0</ele><time>2026-04-18T13:11:47.061Z</time></trkpt><trkpt lat="42.0815032" lon="11.8654808"><ele>130.0</ele><time>2026-04-18T13:11:49.061Z</time></trkpt><trkpt lat="42.0815867" lon="11.8654249"><ele>130.0</ele><time>2026-04-18T13:11:51.062Z</time></trkpt><trkpt lat="42.0816469" lon="11.8654632"><ele>130.0</ele><time>2026-04-18T13:11:53.07Z</time></trkpt><trkpt lat="42.0817293" lon="11.8655318"><ele>128.8</ele><time>2026-04-18T13:11:55.07Z</time></trkpt><trkpt lat="42.0818333" lon="11.8655883"><ele>127.6</ele><time>2026-04-18T13:11:57.06Z</time></trkpt><trkpt lat="42.0819391" lon="11.8655686"><ele>126.4</ele><time>2026-04-18T13:11:59.068Z</time></trkpt><trkpt lat="42.082032" lon="11.8655761"><ele>125.2</ele><time>2026-04-18T13:12:01.067Z</time></trkpt><trkpt lat="42.082099" lon="11.8656334"><ele>124.0</ele><time>2026-04-18T13:12:03.063Z</time></trkpt><trkpt lat="42.0821474" lon="11.8657519"><ele>124.0</ele><time>2026-04-18T13:12:05.059Z</time></trkpt><trkpt lat="42.0821682" lon="11.8658997"><ele>124.0</ele><time>2026-04-18T13:12:07.061Z</time></trkpt><trkpt lat="42.0821796" lon="11.8660279"><ele>124.0</ele><time>2026-04-18T13:12:09.082Z</time></trkpt><trkpt lat="42.082217" lon="11.8661329"><ele>124.0</ele><time>2026-04-18T13:12:11.061Z</time></trkpt><trkpt lat="42.0822748" lon="11.8662244"><ele>124.0</ele><time>2026-04-18T13:12:14.072Z</time></trkpt><trkpt lat="42.0823516" lon="11.866302"><ele>123.66666666666667</ele><time>2026-04-18T13:12:16.069Z</time></trkpt><trkpt lat="42.0824652" lon="11.8663454"><ele>123.33333333333334</ele><time>2026-04-18T13:12:18.065Z</time></trkpt><trkpt lat="42.0825287" lon="11.8663564"><ele>123.0</ele><time>2026-04-18T13:12:19.066Z</time></trkpt><trkpt lat="42.0826451" lon="11.8663792"><ele>122.66666666666666</ele><time>2026-04-18T13:12:21.064Z</time></trkpt><trkpt lat="42.0827094" lon="11.866401"><ele>122.33333333333333</ele><time>2026-04-18T13:12:26.065Z</time></trkpt><trkpt lat="42.0827836" lon="11.8663949"><ele>122.0</ele><time>2026-04-18T13:12:29.065Z</time></trkpt><trkpt lat="42.0828621" lon="11.8663613"><ele>121.99999999999999</ele><time>2026-04-18T13:12:31.059Z</time></trkpt><trkpt lat="42.082924" lon="11.8663233"><ele>122.0</ele><time>2026-04-18T13:12:32.056Z</time></trkpt><trkpt lat="42.0829824" lon="11.8662907"><ele>122.0</ele><time>2026-04-18T13:12:33.057Z</time></trkpt><trkpt lat="42.0830802" lon="11.8662318"><ele>122.0</ele><time>2026-04-18T13:12:35.055Z</time></trkpt><trkpt lat="42.0831208" lon="11.8661322"><ele>121.99999999999999</ele><time>2026-04-18T13:12:37.061Z</time></trkpt><trkpt lat="42.083154" lon="11.8660208"><ele>122.0</ele><time>2026-04-18T13:12:39.07Z</time></trkpt><trkpt lat="42.0831863" lon="11.8659314"><ele>120.14285714285712</ele><time>2026-04-18T13:12:40.07Z</time></trkpt><trkpt lat="42.0832171" lon="11.8658412"><ele>118.28571428571428</ele><time>2026-04-18T13:12:41.067Z</time></trkpt><trkpt lat="42.0832509" lon="11.8657628"><ele>116.42857142857142</ele><time>2026-04-18T13:12:42.062Z</time></trkpt><trkpt lat="42.0832885" lon="11.865686"><ele>114.57142857142856</ele><time>2026-04-18T13:12:44.068Z</time></trkpt><trkpt lat="42.0833594" lon="11.8656887"><ele>112.71428571428572</ele><time>2026-04-18T13:13:13.07Z</time></trkpt><trkpt lat="42.0834158" lon="11.8657356"><ele>110.85714285714286</ele><time>2026-04-18T13:13:16.061Z</time></trkpt><trkpt lat="42.0834961" lon="11.865752"><ele>109.0</ele><time>2026-04-18T13:13:20.072Z</time></trkpt><trkpt lat="42.0835482" lon="11.8656781"><ele>107.50000000000001</ele><time>2026-04-18T13:13:23.059Z</time></trkpt><trkpt lat="42.0835701" lon="11.8655967"><ele>106.0</ele><time>2026-04-18T13:13:25.056Z</time></trkpt><trkpt lat="42.083575" lon="11.8654831"><ele>104.5</ele><time>2026-04-18T13:13:27.071Z</time></trkpt><trkpt lat="42.0835686" lon="11.8653758"><ele>103.0</ele><time>2026-04-18T13:13:29.064Z</time></trkpt><trkpt lat="42.083519" lon="11.8652848"><ele>101.50000000000001</ele><time>2026-04-18T13:13:32.064Z</time></trkpt><trkpt lat="42.0834691" lon="11.8652271"><ele>100.0</ele><time>2026-04-18T13:14:30.057Z</time></trkpt><trkpt lat="42.0834014" lon="11.8651887"><ele>100.00000000000001</ele><time>2026-04-18T13:14:35.058Z</time></trkpt><trkpt lat="42.0833334" lon="11.8651167"><ele>100.0</ele><time>2026-04-18T13:14:38.062Z</time></trkpt><trkpt lat="42.0832741" lon="11.8650663"><ele>100.0</ele><time>2026-04-18T13:14:43.094Z</time></trkpt><trkpt lat="42.0832134" lon="11.8650395"><ele>100.0</ele><time>2026-04-18T13:14:45.058Z</time></trkpt><trkpt lat="42.0831353" lon="11.8650083"><ele>100.0</ele><time>2026-04-18T13:14:47.071Z</time></trkpt><trkpt lat="42.0830752" lon="11.864978"><ele>100.00000000000001</ele><time>2026-04-18T13:14:49.062Z</time></trkpt><trkpt lat="42.0830558" lon="11.8648897"><ele>100.0</ele><time>2026-04-18T13:14:51.055Z</time></trkpt><trkpt lat="42.083069" lon="11.8647894"><ele>99.4</ele><time>2026-04-18T13:14:54.064Z</time></trkpt><trkpt lat="42.0830813" lon="11.8646546"><ele>98.8</ele><time>2026-04-18T13:14:57.064Z</time></trkpt><trkpt lat="42.0830542" lon="11.8645417"><ele>98.19999999999999</ele><time>2026-04-18T13:14:59.061Z</time></trkpt><trkpt lat="42.0830622" lon="11.8644567"><ele>97.6</ele><time>2026-04-18T13:15:01.064Z</time></trkpt><trkpt lat="42.0831761" lon="11.8644213"><ele>97.0</ele><time>2026-04-18T13:15:03.068Z</time></trkpt><trkpt lat="42.0832904" lon="11.864405"><ele>97.6</ele><time>2026-04-18T13:15:05.064Z</time></trkpt><trkpt lat="42.0833432" lon="11.8643279"><ele>98.19999999999999</ele><time>2026-04-18T13:15:07.062Z</time></trkpt><trkpt lat="42.0833422" lon="11.8641827"><ele>98.8</ele><time>2026-04-18T13:15:09.068Z</time></trkpt><trkpt lat="42.0833023" lon="11.8640144"><ele>99.4</ele><time>2026-04-18T13:15:11.06Z</time></trkpt><trkpt lat="42.0832952" lon="11.8639299"><ele>100.0</ele><time>2026-04-18T13:15:12.074Z</time></trkpt><trkpt lat="42.0832881" lon="11.8638354"><ele>100.0</ele><time>2026-04-18T13:15:13.066Z</time></trkpt><trkpt lat="42.0832784" lon="11.8637409"><ele>100.0</ele><time>2026-04-18T13:15:14.071Z</time></trkpt><trkpt lat="42.0832574" lon="11.8635699"><ele>100.0</ele><time>2026-04-18T13:15:16.07Z</time></trkpt><trkpt lat="42.0832379" lon="11.8634843"><ele>100.0</ele><time>2026-04-18T13:16:26.078Z</time></trkpt><trkpt lat="42.0831811" lon="11.863364"><ele>100.0</ele><time>2026-04-18T13:16:29.072Z</time></trkpt><trkpt lat="42.0831473" lon="11.8632058"><ele>100.50000000000001</ele><time>2026-04-18T13:16:31.068Z</time></trkpt><trkpt lat="42.0831475" lon="11.8630896"><ele>101.0</ele><time>2026-04-18T13:16:32.066Z</time></trkpt><trkpt lat="42.0831484" lon="11.8629771"><ele>101.5</ele><time>2026-04-18T13:16:33.066Z</time></trkpt><trkpt lat="42.0831481" lon="11.8628739"><ele>102.0</ele><time>2026-04-18T13:16:34.06Z</time></trkpt><trkpt lat="42.0831432" lon="11.8627831"><ele>102.50000000000001</ele><time>2026-04-18T13:16:35.063Z</time></trkpt><trkpt lat="42.08314" lon="11.8626624"><ele>103.0</ele><time>2026-04-18T13:16:37.067Z</time></trkpt><trkpt lat="42.0831902" lon="11.8625821"><ele>105.2</ele><time>2026-04-18T13:16:43.062Z</time></trkpt><trkpt lat="42.0832652" lon="11.8625189"><ele>107.4</ele><time>2026-04-18T13:16:45.064Z</time></trkpt><trkpt lat="42.0833817" lon="11.8624575"><ele>109.60000000000001</ele><time>2026-04-18T13:16:47.055Z</time></trkpt><trkpt lat="42.0834445" lon="11.862436"><ele>111.80000000000001</ele><time>2026-04-18T13:16:48.065Z</time></trkpt><trkpt lat="42.0835066" lon="11.8624182"><ele>114.0</ele><time>2026-04-18T13:16:49.068Z</time></trkpt><trkpt lat="42.083614" lon="11.8623353"><ele>114.0</ele><time>2026-04-18T13:16:51.06Z</time></trkpt><trkpt lat="42.0836873" lon="11.8622434"><ele>114.0</ele><time>2026-04-18T13:16:53.063Z</time></trkpt><trkpt lat="42.0837654" lon="11.8622009"><ele>114.0</ele><time>2026-04-18T13:16:55.093Z</time></trkpt><trkpt lat="42.0838807" lon="11.8621559"><ele>114.0</ele><time>2026-04-18T13:16:57.062Z</time></trkpt><trkpt lat="42.0839367" lon="11.8621062"><ele>114.0</ele><time>2026-04-18T13:16:58.064Z</time></trkpt><trkpt lat="42.0840209" lon="11.8620337"><ele>115.5</ele><time>2026-04-18T13:17:00.061Z</time></trkpt><trkpt lat="42.0840993" lon="11.8619761"><ele>117.0</ele><time>2026-04-18T13:17:32.068Z</time></trkpt><trkpt lat="42.0841712" lon="11.8619938"><ele>118.5</ele><time>2026-04-18T13:17:34.078Z</time></trkpt><trkpt lat="42.084232" lon="11.8620203"><ele>120.0</ele><time>2026-04-18T13:17:35.067Z</time></trkpt><trkpt lat="42.0842999" lon="11.8620537"><ele>121.5</ele><time>2026-04-18T13:17:36.058Z</time></trkpt><trkpt lat="42.0843673" lon="11.8620926"><ele>123.0</ele><time>2026-04-18T13:17:37.056Z</time></trkpt><trkpt lat="42.0844447" lon="11.8621363"><ele>123.0</ele><time>2026-04-18T13:17:38.062Z</time></trkpt><trkpt lat="42.0845268" lon="11.8621816"><ele>123.0</ele><time>2026-04-18T13:17:39.063Z</time></trkpt><trkpt lat="42.084601" lon="11.8622338"><ele>123.0</ele><time>2026-04-18T13:17:40.079Z</time></trkpt><trkpt lat="42.0846745" lon="11.8622964"><ele>123.0</ele><time>2026-04-18T13:17:41.062Z</time></trkpt><trkpt lat="42.0847397" lon="11.8623525"><ele>123.0</ele><time>2026-04-18T13:17:42.066Z</time></trkpt><trkpt lat="42.0848148" lon="11.8623795"><ele>123.0</ele><time>2026-04-18T13:17:43.081Z</time></trkpt><trkpt lat="42.0848846" lon="11.8624019"><ele>124.5</ele><time>2026-04-18T13:17:44.064Z</time></trkpt><trkpt lat="42.0849677" lon="11.8623854"><ele>126.0</ele><time>2026-04-18T13:17:45.061Z</time></trkpt><trkpt lat="42.0850546" lon="11.8623887"><ele>127.5</ele><time>2026-04-18T13:17:46.057Z</time></trkpt><trkpt lat="42.085137" lon="11.8624247"><ele>129.0</ele><time>2026-04-18T13:17:47.062Z</time></trkpt><trkpt lat="42.0852235" lon="11.8624623"><ele>130.5</ele><time>2026-04-18T13:17:48.061Z</time></trkpt><trkpt lat="42.0853008" lon="11.8624925"><ele>132.0</ele><time>2026-04-18T13:17:49.063Z</time></trkpt><trkpt lat="42.0853721" lon="11.8625598"><ele>131.5</ele><time>2026-04-18T13:17:50.061Z</time></trkpt><trkpt lat="42.0854434" lon="11.8626168"><ele>131.0</ele><time>2026-04-18T13:17:51.061Z</time></trkpt><trkpt lat="42.0854958" lon="11.8626883"><ele>130.5</ele><time>2026-04-18T13:17:52.071Z</time></trkpt><trkpt lat="42.085543" lon="11.8627459"><ele>130.0</ele><time>2026-04-18T13:17:53.064Z</time></trkpt><trkpt lat="42.0856679" lon="11.8627723"><ele>129.5</ele><time>2026-04-18T13:17:55.064Z</time></trkpt><trkpt lat="42.0857429" lon="11.8627648"><ele>129.0</ele><time>2026-04-18T13:17:56.076Z</time></trkpt><trkpt lat="42.0858146" lon="11.8627567"><ele>130.5</ele><time>2026-04-18T13:17:57.06Z</time></trkpt><trkpt lat="42.0858857" lon="11.8627481"><ele>132.0</ele><time>2026-04-18T13:17:58.067Z</time></trkpt><trkpt lat="42.0859588" lon="11.8627492"><ele>133.5</ele><time>2026-04-18T13:17:59.071Z</time></trkpt><trkpt lat="42.0860695" lon="11.8627219"><ele>135.0</ele><time>2026-04-18T13:18:01.067Z</time></trkpt><trkpt lat="42.0861283" lon="11.8626674"><ele>136.5</ele><time>2026-04-18T13:18:03.067Z</time></trkpt><trkpt lat="42.0861902" lon="11.8626133"><ele>138.0</ele><time>2026-04-18T13:18:14.063Z</time></trkpt><trkpt lat="42.0862188" lon="11.8625019"><ele>138.57142857142858</ele><time>2026-04-18T13:18:16.071Z</time></trkpt><trkpt lat="42.0862219" lon="11.8624106"><ele>139.14285714285717</ele><time>2026-04-18T13:18:17.071Z</time></trkpt><trkpt lat="42.0862238" lon="11.8623113"><ele>139.71428571428572</ele><time>2026-04-18T13:18:18.067Z</time></trkpt><trkpt lat="42.0862331" lon="11.8621984"><ele>140.28571428571428</ele><time>2026-04-18T13:18:19.066Z</time></trkpt><trkpt lat="42.086244" lon="11.8620972"><ele>140.85714285714283</ele><time>2026-04-18T13:18:20.07Z</time></trkpt><trkpt lat="42.086254" lon="11.8619953"><ele>141.42857142857142</ele><time>2026-04-18T13:18:21.071Z</time></trkpt><trkpt lat="42.086258" lon="11.8619022"><ele>142.0</ele><time>2026-04-18T13:18:22.07Z</time></trkpt><trkpt lat="42.0862456" lon="11.8618132"><ele>143.5</ele><time>2026-04-18T13:18:23.062Z</time></trkpt><trkpt lat="42.0862211" lon="11.8617219"><ele>145.0</ele><time>2026-04-18T13:18:24.056Z</time></trkpt><trkpt lat="42.0861899" lon="11.8616295"><ele>146.5</ele><time>2026-04-18T13:18:25.059Z</time></trkpt><trkpt lat="42.0861397" lon="11.8615373"><ele>148.0</ele><time>2026-04-18T13:18:26.065Z</time></trkpt><trkpt lat="42.0860812" lon="11.8614468"><ele>149.5</ele><time>2026-04-18T13:18:27.058Z</time></trkpt><trkpt lat="42.0860225" lon="11.861357"><ele>151.0</ele><time>2026-04-18T13:18:28.056Z</time></trkpt><trkpt lat="42.085967" lon="11.8612689"><ele>151.0</ele><time>2026-04-18T13:18:29.062Z</time></trkpt><trkpt lat="42.0859184" lon="11.8611772"><ele>151.0</ele><time>2026-04-18T13:18:30.064Z</time></trkpt><trkpt lat="42.0858678" lon="11.8610878"><ele>151.0</ele><time>2026-04-18T13:18:31.063Z</time></trkpt><trkpt lat="42.0858146" lon="11.860995"><ele>151.0</ele><time>2026-04-18T13:18:32.053Z</time></trkpt><trkpt lat="42.0857553" lon="11.8608919"><ele>151.0</ele><time>2026-04-18T13:18:33.06Z</time></trkpt><trkpt lat="42.0856954" lon="11.8607897"><ele>151.0</ele><time>2026-04-18T13:18:34.055Z</time></trkpt><trkpt lat="42.0856366" lon="11.860685"><ele>152.0</ele><time>2026-04-18T13:18:35.059Z</time></trkpt><trkpt lat="42.0855828" lon="11.8605726"><ele>153.0</ele><time>2026-04-18T13:18:36.054Z</time></trkpt><trkpt lat="42.0855249" lon="11.860467"><ele>154.0</ele><time>2026-04-18T13:18:37.073Z</time></trkpt><trkpt lat="42.0854646" lon="11.8603737"><ele>155.0</ele><time>2026-04-18T13:18:38.061Z</time></trkpt><trkpt lat="42.0854054" lon="11.8602927"><ele>156.0</ele><time>2026-04-18T13:18:39.06Z</time></trkpt><trkpt lat="42.0853442" lon="11.860227"><ele>156.0</ele><time>2026-04-18T13:18:40.059Z</time></trkpt><trkpt lat="42.0852562" lon="11.860191"><ele>156.0</ele><time>2026-04-18T13:18:41.065Z</time></trkpt><trkpt lat="42.0851616" lon="11.8601889"><ele>156.0</ele><time>2026-04-18T13:18:42.058Z</time></trkpt><trkpt lat="42.0850647" lon="11.8601802"><ele>156.0</ele><time>2026-04-18T13:18:43.07Z</time></trkpt><trkpt lat="42.0849571" lon="11.8601653"><ele>156.0</ele><time>2026-04-18T13:18:44.067Z</time></trkpt><trkpt lat="42.0848624" lon="11.8601404"><ele>153.6</ele><time>2026-04-18T13:18:45.064Z</time></trkpt><trkpt lat="42.0847643" lon="11.8601168"><ele>151.2</ele><time>2026-04-18T13:18:46.069Z</time></trkpt><trkpt lat="42.0846724" lon="11.8600852"><ele>148.8</ele><time>2026-04-18T13:18:47.062Z</time></trkpt><trkpt lat="42.0845874" lon="11.8600585"><ele>146.4</ele><time>2026-04-18T13:18:48.068Z</time></trkpt><trkpt lat="42.0845153" lon="11.8600333"><ele>144.0</ele><time>2026-04-18T13:18:49.066Z</time></trkpt><trkpt lat="42.0844163" lon="11.8599512"><ele>148.8</ele><time>2026-04-18T13:18:51.065Z</time></trkpt><trkpt lat="42.0843934" lon="11.8597902"><ele>153.60000000000002</ele><time>2026-04-18T13:18:53.07Z</time></trkpt><trkpt lat="42.084395" lon="11.8596917"><ele>158.4</ele><time>2026-04-18T13:18:54.065Z</time></trkpt><trkpt lat="42.0843879" lon="11.8595839"><ele>163.20000000000002</ele><time>2026-04-18T13:18:55.066Z</time></trkpt><trkpt lat="42.0843766" lon="11.8594684"><ele>168.0</ele><time>2026-04-18T13:18:56.064Z</time></trkpt><trkpt lat="42.0843597" lon="11.8593487"><ele>167.0</ele><time>2026-04-18T13:18:57.066Z</time></trkpt><trkpt lat="42.0843286" lon="11.8592329"><ele>166.0</ele><time>2026-04-18T13:18:58.077Z</time></trkpt><trkpt lat="42.0842627" lon="11.8591289"><ele>165.0</ele><time>2026-04-18T13:18:59.065Z</time></trkpt><trkpt lat="42.0841911" lon="11.8590209"><ele>164.0</ele><time>2026-04-18T13:19:00.069Z</time></trkpt><trkpt lat="42.08412" lon="11.8589277"><ele>163.0</ele><time>2026-04-18T13:19:01.067Z</time></trkpt><trkpt lat="42.0840549" lon="11.8588463"><ele>163.0</ele><time>2026-04-18T13:19:02.063Z</time></trkpt><trkpt lat="42.0839878" lon="11.8587758"><ele>163.0</ele><time>2026-04-18T13:19:03.071Z</time></trkpt><trkpt lat="42.0839283" lon="11.8587189"><ele>163.0</ele><time>2026-04-18T13:19:04.071Z</time></trkpt><trkpt lat="42.0838509" lon="11.8586282"><ele>163.0</ele><time>2026-04-18T13:19:06.073Z</time></trkpt><trkpt lat="42.0838787" lon="11.8584669"><ele>163.0</ele><time>2026-04-18T13:19:08.074Z</time></trkpt><trkpt lat="42.083903" lon="11.8583777"><ele>165.2</ele><time>2026-04-18T13:19:09.107Z</time></trkpt><trkpt lat="42.0839396" lon="11.858287"><ele>167.4</ele><time>2026-04-18T13:19:10.079Z</time></trkpt><trkpt lat="42.0839937" lon="11.8581891"><ele>169.6</ele><time>2026-04-18T13:19:11.067Z</time></trkpt><trkpt lat="42.0840544" lon="11.8580957"><ele>171.79999999999998</ele><time>2026-04-18T13:19:12.072Z</time></trkpt><trkpt lat="42.084119" lon="11.8579931"><ele>174.0</ele><time>2026-04-18T13:19:13.077Z</time></trkpt><trkpt lat="42.0841867" lon="11.857882"><ele>178.33333333333334</ele><time>2026-04-18T13:19:14.063Z</time></trkpt><trkpt lat="42.0842459" lon="11.8577839"><ele>182.66666666666669</ele><time>2026-04-18T13:19:15.075Z</time></trkpt><trkpt lat="42.084289" lon="11.8576948"><ele>187.0</ele><time>2026-04-18T13:19:16.062Z</time></trkpt><trkpt lat="42.0843154" lon="11.8576152"><ele>191.33333333333334</ele><time>2026-04-18T13:19:17.056Z</time></trkpt><trkpt lat="42.0843336" lon="11.8574816"><ele>195.66666666666669</ele><time>2026-04-18T13:19:19.053Z</time></trkpt><trkpt lat="42.0842397" lon="11.8574048"><ele>200.0</ele><time>2026-04-18T13:19:21.061Z</time></trkpt><trkpt lat="42.0841621" lon="11.8573892"><ele>199.00000000000003</ele><time>2026-04-18T13:19:22.057Z</time></trkpt><trkpt lat="42.0840903" lon="11.85738"><ele>198.0</ele><time>2026-04-18T13:19:23.058Z</time></trkpt><trkpt lat="42.0840257" lon="11.8573737"><ele>197.0</ele><time>2026-04-18T13:19:24.064Z</time></trkpt><trkpt lat="42.0839618" lon="11.8573697"><ele>196.0</ele><time>2026-04-18T13:19:25.067Z</time></trkpt><trkpt lat="42.0838899" lon="11.8573606"><ele>195.0</ele><time>2026-04-18T13:19:26.066Z</time></trkpt><trkpt lat="42.0838079" lon="11.8573499"><ele>194.00000000000003</ele><time>2026-04-18T13:19:27.055Z</time></trkpt><trkpt lat="42.083715" lon="11.8573373"><ele>193.0</ele><time>2026-04-18T13:19:28.069Z</time></trkpt><trkpt lat="42.083612" lon="11.8573213"><ele>193.0</ele><time>2026-04-18T13:19:29.057Z</time></trkpt><trkpt lat="42.0834975" lon="11.8572828"><ele>193.0</ele><time>2026-04-18T13:19:30.059Z</time></trkpt><trkpt lat="42.0833791" lon="11.8572199"><ele>193.0</ele><time>2026-04-18T13:19:31.067Z</time></trkpt><trkpt lat="42.0832657" lon="11.8571241"><ele>193.0</ele><time>2026-04-18T13:19:32.066Z</time></trkpt><trkpt lat="42.083157" lon="11.8570202"><ele>193.0</ele><time>2026-04-18T13:19:33.062Z</time></trkpt><trkpt lat="42.0830537" lon="11.8569227"><ele>193.0</ele><time>2026-04-18T13:19:34.061Z</time></trkpt><trkpt lat="42.082965" lon="11.8568346"><ele>193.0</ele><time>2026-04-18T13:19:35.064Z</time></trkpt><trkpt lat="42.0828898" lon="11.8567094"><ele>193.0</ele><time>2026-04-18T13:19:36.073Z</time></trkpt><trkpt lat="42.0828344" lon="11.8565675"><ele>193.0</ele><time>2026-04-18T13:19:37.066Z</time></trkpt><trkpt lat="42.0827972" lon="11.8564178"><ele>193.0</ele><time>2026-04-18T13:19:38.067Z</time></trkpt><trkpt lat="42.0827628" lon="11.8562827"><ele>193.0</ele><time>2026-04-18T13:19:39.064Z</time></trkpt><trkpt lat="42.0827515" lon="11.8561622"><ele>193.0</ele><time>2026-04-18T13:19:40.066Z</time></trkpt><trkpt lat="42.0827421" lon="11.8560456"><ele>193.0</ele><time>2026-04-18T13:19:41.066Z</time></trkpt><trkpt lat="42.0827593" lon="11.8559201"><ele>194.2</ele><time>2026-04-18T13:19:42.077Z</time></trkpt><trkpt lat="42.0827775" lon="11.8558087"><ele>195.4</ele><time>2026-04-18T13:19:43.059Z</time></trkpt><trkpt lat="42.0828292" lon="11.8556977"><ele>196.6</ele><time>2026-04-18T13:19:44.061Z</time></trkpt><trkpt lat="42.0828874" lon="11.8555771"><ele>197.79999999999998</ele><time>2026-04-18T13:19:45.062Z</time></trkpt><trkpt lat="42.0829446" lon="11.8554301"><ele>199.0</ele><time>2026-04-18T13:19:46.073Z</time></trkpt><trkpt lat="42.083" lon="11.8552874"><ele>199.0</ele><time>2026-04-18T13:19:47.073Z</time></trkpt><trkpt lat="42.0830545" lon="11.8551437"><ele>199.0</ele><time>2026-04-18T13:19:48.063Z</time></trkpt><trkpt lat="42.0830999" lon="11.8550033"><ele>199.0</ele><time>2026-04-18T13:19:49.062Z</time></trkpt><trkpt lat="42.083133" lon="11.8548679"><ele>199.0</ele><time>2026-04-18T13:19:50.075Z</time></trkpt><trkpt lat="42.0831365" lon="11.8547246"><ele>199.0</ele><time>2026-04-18T13:19:51.072Z</time></trkpt><trkpt lat="42.0831385" lon="11.8545841"><ele>200.0</ele><time>2026-04-18T13:19:52.06Z</time></trkpt><trkpt lat="42.0831436" lon="11.8544364"><ele>201.0</ele><time>2026-04-18T13:19:53.074Z</time></trkpt><trkpt lat="42.0831503" lon="11.8542932"><ele>202.0</ele><time>2026-04-18T13:19:54.071Z</time></trkpt><trkpt lat="42.083156" lon="11.8541711"><ele>203.0</ele><time>2026-04-18T13:19:55.068Z</time></trkpt><trkpt lat="42.0831652" lon="11.854075"><ele>204.0</ele><time>2026-04-18T13:19:56.074Z</time></trkpt><trkpt lat="42.0831802" lon="11.8539808"><ele>205.83333333333334</ele><time>2026-04-18T13:19:57.067Z</time></trkpt><trkpt lat="42.0831951" lon="11.853887"><ele>207.66666666666669</ele><time>2026-04-18T13:19:58.066Z</time></trkpt><trkpt lat="42.083224" lon="11.8537266"><ele>209.5</ele><time>2026-04-18T13:20:00.062Z</time></trkpt><trkpt lat="42.0832459" lon="11.853586"><ele>211.33333333333334</ele><time>2026-04-18T13:20:02.066Z</time></trkpt><trkpt lat="42.0832569" lon="11.8534966"><ele>213.16666666666669</ele><time>2026-04-18T13:20:04.063Z</time></trkpt><trkpt lat="42.0832601" lon="11.8534008"><ele>215.0</ele><time>2026-04-18T13:20:38.071Z</time></trkpt><trkpt lat="42.0832649" lon="11.8532971"><ele>216.16666666666669</ele><time>2026-04-18T13:20:50.065Z</time></trkpt><trkpt lat="42.0832577" lon="11.8531524"><ele>217.33333333333334</ele><time>2026-04-18T13:20:52.06Z</time></trkpt><trkpt lat="42.0832499" lon="11.8530678"><ele>218.5</ele><time>2026-04-18T13:20:53.063Z</time></trkpt><trkpt lat="42.0832177" lon="11.8529821"><ele>219.66666666666669</ele><time>2026-04-18T13:20:54.072Z</time></trkpt><trkpt lat="42.0831813" lon="11.8528959"><ele>220.83333333333334</ele><time>2026-04-18T13:20:55.081Z</time></trkpt><trkpt lat="42.0831417" lon="11.8528131"><ele>222.0</ele><time>2026-04-18T13:20:56.075Z</time></trkpt><trkpt lat="42.0830969" lon="11.852727"><ele>222.0</ele><time>2026-04-18T13:20:57.066Z</time></trkpt><trkpt lat="42.0830527" lon="11.8526328"><ele>222.0</ele><time>2026-04-18T13:20:58.07Z</time></trkpt><trkpt lat="42.0830119" lon="11.8525382"><ele>222.0</ele><time>2026-04-18T13:20:59.077Z</time></trkpt><trkpt lat="42.0829708" lon="11.852442"><ele>222.0</ele><time>2026-04-18T13:21:00.065Z</time></trkpt><trkpt lat="42.082925" lon="11.8523512"><ele>222.0</ele><time>2026-04-18T13:21:01.066Z</time></trkpt><trkpt lat="42.0828742" lon="11.852264"><ele>222.0</ele><time>2026-04-18T13:21:02.065Z</time></trkpt><trkpt lat="42.0828259" lon="11.8521765"><ele>222.6</ele><time>2026-04-18T13:21:03.059Z</time></trkpt><trkpt lat="42.0827791" lon="11.8520862"><ele>223.2</ele><time>2026-04-18T13:21:04.065Z</time></trkpt><trkpt lat="42.0827307" lon="11.8519908"><ele>223.8</ele><time>2026-04-18T13:21:05.062Z</time></trkpt><trkpt lat="42.0826759" lon="11.851884"><ele>224.4</ele><time>2026-04-18T13:21:06.059Z</time></trkpt><trkpt lat="42.0826106" lon="11.8517641"><ele>225.0</ele><time>2026-04-18T13:21:07.064Z</time></trkpt><trkpt lat="42.0825372" lon="11.851649"><ele>225.0</ele><time>2026-04-18T13:21:08.066Z</time></trkpt><trkpt lat="42.0824479" lon="11.8515296"><ele>225.0</ele><time>2026-04-18T13:21:09.062Z</time></trkpt><trkpt lat="42.0823518" lon="11.8514139"><ele>225.0</ele><time>2026-04-18T13:21:10.065Z</time></trkpt><trkpt lat="42.0822501" lon="11.8513108"><ele>225.0</ele><time>2026-04-18T13:21:11.063Z</time></trkpt><trkpt lat="42.0821596" lon="11.8512358"><ele>223.33333333333334</ele><time>2026-04-18T13:21:12.065Z</time></trkpt><trkpt lat="42.0820908" lon="11.8511824"><ele>221.66666666666669</ele><time>2026-04-18T13:21:13.06Z</time></trkpt><trkpt lat="42.082039" lon="11.8511097"><ele>220.0</ele><time>2026-04-18T13:21:15.072Z</time></trkpt><trkpt lat="42.0820778" lon="11.8510318"><ele>218.33333333333334</ele><time>2026-04-18T13:21:18.073Z</time></trkpt><trkpt lat="42.0821448" lon="11.8510368"><ele>216.66666666666669</ele><time>2026-04-18T13:21:19.062Z</time></trkpt><trkpt lat="42.0822343" lon="11.851063"><ele>215.0</ele><time>2026-04-18T13:21:20.06Z</time></trkpt><trkpt lat="42.0823403" lon="11.8511001"><ele>217.5</ele><time>2026-04-18T13:21:21.063Z</time></trkpt><trkpt lat="42.0824676" lon="11.8511444"><ele>220.0</ele><time>2026-04-18T13:21:22.064Z</time></trkpt><trkpt lat="42.0826115" lon="11.8511939"><ele>222.5</ele><time>2026-04-18T13:21:23.064Z</time></trkpt><trkpt lat="42.0827699" lon="11.851247"><ele>225.0</ele><time>2026-04-18T13:21:24.069Z</time></trkpt><trkpt lat="42.082937" lon="11.851311"><ele>225.0</ele><time>2026-04-18T13:21:25.064Z</time></trkpt><trkpt lat="42.0831096" lon="11.8513936"><ele>225.0</ele><time>2026-04-18T13:21:26.073Z</time></trkpt><trkpt lat="42.0832842" lon="11.8514989"><ele>225.0</ele><time>2026-04-18T13:21:27.075Z</time></trkpt><trkpt lat="42.083458" lon="11.8516292"><ele>226.0</ele><time>2026-04-18T13:21:28.076Z</time></trkpt><trkpt lat="42.0836253" lon="11.8517707"><ele>227.0</ele><time>2026-04-18T13:21:29.075Z</time></trkpt><trkpt lat="42.0837933" lon="11.8519119"><ele>228.0</ele><time>2026-04-18T13:21:30.07Z</time></trkpt><trkpt lat="42.0839633" lon="11.8520494"><ele>231.33333333333331</ele><time>2026-04-18T13:21:31.076Z</time></trkpt><trkpt lat="42.0841327" lon="11.8521674"><ele>234.66666666666666</ele><time>2026-04-18T13:21:32.068Z</time></trkpt><trkpt lat="42.0843039" lon="11.8522755"><ele>238.0</ele><time>2026-04-18T13:21:33.072Z</time></trkpt><trkpt lat="42.0844663" lon="11.8523864"><ele>238.0</ele><time>2026-04-18T13:21:34.076Z</time></trkpt><trkpt lat="42.0846118" lon="11.8524846"><ele>238.0</ele><time>2026-04-18T13:21:35.062Z</time></trkpt><trkpt lat="42.0847533" lon="11.8525714"><ele>238.0</ele><time>2026-04-18T13:21:36.071Z</time></trkpt><trkpt lat="42.0848942" lon="11.8526421"><ele>239.4</ele><time>2026-04-18T13:21:37.066Z</time></trkpt><trkpt lat="42.0850149" lon="11.8526921"><ele>240.8</ele><time>2026-04-18T13:21:38.058Z</time></trkpt><trkpt lat="42.0851216" lon="11.8527248"><ele>242.2</ele><time>2026-04-18T13:21:39.061Z</time></trkpt><trkpt lat="42.0852117" lon="11.8527317"><ele>243.6</ele><time>2026-04-18T13:21:40.073Z</time></trkpt><trkpt lat="42.0853031" lon="11.852709"><ele>245.0</ele><time>2026-04-18T13:21:41.064Z</time></trkpt><trkpt lat="42.0853932" lon="11.8526621"><ele>246.0</ele><time>2026-04-18T13:21:42.061Z</time></trkpt><trkpt lat="42.0854768" lon="11.8526064"><ele>247.0</ele><time>2026-04-18T13:21:43.057Z</time></trkpt><trkpt lat="42.085556" lon="11.8525416"><ele>248.0</ele><time>2026-04-18T13:21:44.071Z</time></trkpt><trkpt lat="42.0856344" lon="11.8524863"><ele>249.0</ele><time>2026-04-18T13:21:45.064Z</time></trkpt><trkpt lat="42.0857155" lon="11.852437"><ele>250.0</ele><time>2026-04-18T13:21:46.071Z</time></trkpt><trkpt lat="42.0857948" lon="11.8523897"><ele>250.8</ele><time>2026-04-18T13:21:47.063Z</time></trkpt><trkpt lat="42.085875" lon="11.8523399"><ele>251.6</ele><time>2026-04-18T13:21:48.083Z</time></trkpt><trkpt lat="42.0859626" lon="11.8522984"><ele>252.39999999999998</ele><time>2026-04-18T13:21:49.06Z</time></trkpt><trkpt lat="42.086057" lon="11.8522594"><ele>253.2</ele><time>2026-04-18T13:21:50.075Z</time></trkpt><trkpt lat="42.0861588" lon="11.8522151"><ele>254.0</ele><time>2026-04-18T13:21:51.071Z</time></trkpt><trkpt lat="42.0862668" lon="11.852165"><ele>254.0</ele><time>2026-04-18T13:21:52.066Z</time></trkpt><trkpt lat="42.086377" lon="11.8520987"><ele>254.0</ele><time>2026-04-18T13:21:53.062Z</time></trkpt><trkpt lat="42.0864949" lon="11.8520392"><ele>254.0</ele><time>2026-04-18T13:21:54.062Z</time></trkpt><trkpt lat="42.0866208" lon="11.8519795"><ele>254.0</ele><time>2026-04-18T13:21:55.059Z</time></trkpt><trkpt lat="42.0867612" lon="11.8519207"><ele>257.33333333333337</ele><time>2026-04-18T13:21:56.067Z</time></trkpt><trkpt lat="42.0869067" lon="11.8518545"><ele>260.6666666666667</ele><time>2026-04-18T13:21:57.065Z</time></trkpt><trkpt lat="42.0870524" lon="11.8517849"><ele>264.0</ele><time>2026-04-18T13:21:58.065Z</time></trkpt><trkpt lat="42.0872007" lon="11.851715"><ele>266.3333333333333</ele><time>2026-04-18T13:21:59.07Z</time></trkpt><trkpt lat="42.0873541" lon="11.8516456"><ele>268.66666666666663</ele><time>2026-04-18T13:22:00.065Z</time></trkpt><trkpt lat="42.0875086" lon="11.8515777"><ele>271.0</ele><time>2026-04-18T13:22:01.072Z</time></trkpt><trkpt lat="42.0876563" lon="11.8515185"><ele>273.0</ele><time>2026-04-18T13:22:02.065Z</time></trkpt><trkpt lat="42.0877941" lon="11.8514842"><ele>275.0</ele><time>2026-04-18T13:22:03.064Z</time></trkpt><trkpt lat="42.0879166" lon="11.8514784"><ele>277.0</ele><time>2026-04-18T13:22:04.079Z</time></trkpt><trkpt lat="42.0880442" lon="11.8514968"><ele>279.0</ele><time>2026-04-18T13:22:05.07Z</time></trkpt><trkpt lat="42.0881808" lon="11.8515365"><ele>280.5</ele><time>2026-04-18T13:22:06.063Z</time></trkpt><trkpt lat="42.0883096" lon="11.8516011"><ele>282.0</ele><time>2026-04-18T13:22:07.068Z</time></trkpt><trkpt lat="42.0884239" lon="11.8516811"><ele>283.5</ele><time>2026-04-18T13:22:08.068Z</time></trkpt><trkpt lat="42.0885306" lon="11.8517836"><ele>285.0</ele><time>2026-04-18T13:22:09.069Z</time></trkpt><trkpt lat="42.0886322" lon="11.8519064"><ele>285.0</ele><time>2026-04-18T13:22:10.081Z</time></trkpt><trkpt lat="42.0887386" lon="11.852038"><ele>285.0</ele><time>2026-04-18T13:22:11.063Z</time></trkpt><trkpt lat="42.0888593" lon="11.8521615"><ele>285.0</ele><time>2026-04-18T13:22:12.068Z</time></trkpt><trkpt lat="42.0889809" lon="11.8522753"><ele>285.0</ele><time>2026-04-18T13:22:13.081Z</time></trkpt><trkpt lat="42.0890845" lon="11.8523712"><ele>288.0</ele><time>2026-04-18T13:22:14.071Z</time></trkpt><trkpt lat="42.0891806" lon="11.8524558"><ele>291.0</ele><time>2026-04-18T13:22:15.076Z</time></trkpt><trkpt lat="42.0892537" lon="11.8524985"><ele>294.0</ele><time>2026-04-18T13:22:16.076Z</time></trkpt><trkpt lat="42.0893282" lon="11.8525008"><ele>297.0</ele><time>2026-04-18T13:22:17.07Z</time></trkpt><trkpt lat="42.08942" lon="11.8524867"><ele>300.0</ele><time>2026-04-18T13:22:18.066Z</time></trkpt><trkpt lat="42.0895526" lon="11.8524652"><ele>300.0</ele><time>2026-04-18T13:22:19.072Z</time></trkpt><trkpt lat="42.0896894" lon="11.8524754"><ele>300.0</ele><time>2026-04-18T13:22:20.067Z</time></trkpt><trkpt lat="42.0898281" lon="11.8524903"><ele>300.0</ele><time>2026-04-18T13:22:21.067Z</time></trkpt><trkpt lat="42.0899634" lon="11.8524952"><ele>300.0</ele><time>2026-04-18T13:22:22.073Z</time></trkpt><trkpt lat="42.0900991" lon="11.8524891"><ele>301.25</ele><time>2026-04-18T13:22:23.072Z</time></trkpt><trkpt lat="42.0902426" lon="11.8524761"><ele>302.5</ele><time>2026-04-18T13:22:24.059Z</time></trkpt><trkpt lat="42.0903798" lon="11.8524377"><ele>303.75</ele><time>2026-04-18T13:22:25.068Z</time></trkpt><trkpt lat="42.0904968" lon="11.8523796"><ele>305.0</ele><time>2026-04-18T13:22:26.085Z</time></trkpt><trkpt lat="42.090596" lon="11.8523207"><ele>305.0</ele><time>2026-04-18T13:22:27.071Z</time></trkpt><trkpt lat="42.090687" lon="11.8522518"><ele>305.0</ele><time>2026-04-18T13:22:28.066Z</time></trkpt><trkpt lat="42.0907688" lon="11.8521731"><ele>305.0</ele><time>2026-04-18T13:22:29.071Z</time></trkpt><trkpt lat="42.0908587" lon="11.8520874"><ele>305.0</ele><time>2026-04-18T13:22:30.069Z</time></trkpt><trkpt lat="42.0909651" lon="11.8520114"><ele>305.0</ele><time>2026-04-18T13:22:31.061Z</time></trkpt><trkpt lat="42.0910852" lon="11.8519349"><ele>305.25</ele><time>2026-04-18T13:22:32.073Z</time></trkpt><trkpt lat="42.0912096" lon="11.8518567"><ele>305.5</ele><time>2026-04-18T13:22:33.065Z</time></trkpt><trkpt lat="42.0913393" lon="11.8517794"><ele>305.75</ele><time>2026-04-18T13:22:34.071Z</time></trkpt><trkpt lat="42.0914587" lon="11.851713"><ele>306.0</ele><time>2026-04-18T13:22:35.066Z</time></trkpt><trkpt lat="42.0915773" lon="11.8516346"><ele>303.5</ele><time>2026-04-18T13:22:36.065Z</time></trkpt><trkpt lat="42.0916933" lon="11.8515346"><ele>301.0</ele><time>2026-04-18T13:22:37.061Z</time></trkpt><trkpt lat="42.0917905" lon="11.851418"><ele>298.5</ele><time>2026-04-18T13:22:38.072Z</time></trkpt><trkpt lat="42.0918794" lon="11.8512836"><ele>296.0</ele><time>2026-04-18T13:22:39.076Z</time></trkpt><trkpt lat="42.0919469" lon="11.8511567"><ele>296.0</ele><time>2026-04-18T13:22:40.073Z</time></trkpt><trkpt lat="42.0919948" lon="11.8510391"><ele>296.0</ele><time>2026-04-18T13:22:41.075Z</time></trkpt><trkpt lat="42.0920237" lon="11.850912"><ele>296.0</ele><time>2026-04-18T13:22:42.074Z</time></trkpt><trkpt lat="42.0920448" lon="11.8507731"><ele>296.0</ele><time>2026-04-18T13:22:43.071Z</time></trkpt><trkpt lat="42.0920738" lon="11.8506434"><ele>296.0</ele><time>2026-04-18T13:22:44.07Z</time></trkpt><trkpt lat="42.0921354" lon="11.8505256"><ele>294.25</ele><time>2026-04-18T13:22:45.077Z</time></trkpt><trkpt lat="42.0922263" lon="11.8504108"><ele>292.5</ele><time>2026-04-18T13:22:46.069Z</time></trkpt><trkpt lat="42.0923293" lon="11.8503172"><ele>290.75</ele><time>2026-04-18T13:22:47.061Z</time></trkpt><trkpt lat="42.092432" lon="11.8502507"><ele>289.0</ele><time>2026-04-18T13:22:48.07Z</time></trkpt><trkpt lat="42.0925477" lon="11.8502032"><ele>289.0</ele><time>2026-04-18T13:22:49.053Z</time></trkpt><trkpt lat="42.0926852" lon="11.850153"><ele>289.0</ele><time>2026-04-18T13:22:50.069Z</time></trkpt><trkpt lat="42.0928268" lon="11.8501038"><ele>289.0</ele><time>2026-04-18T13:22:51.062Z</time></trkpt><trkpt lat="42.092961" lon="11.8500666"><ele>289.0</ele><time>2026-04-18T13:22:52.075Z</time></trkpt><trkpt lat="42.093097" lon="11.8500507"><ele>289.25</ele><time>2026-04-18T13:22:53.067Z</time></trkpt><trkpt lat="42.0932301" lon="11.8500335"><ele>289.5</ele><time>2026-04-18T13:22:54.07Z</time></trkpt><trkpt lat="42.0933555" lon="11.8500158"><ele>289.75</ele><time>2026-04-18T13:22:55.062Z</time></trkpt><trkpt lat="42.0934756" lon="11.8500123"><ele>290.0</ele><time>2026-04-18T13:22:56.084Z</time></trkpt><trkpt lat="42.0935868" lon="11.8500036"><ele>288.33333333333337</ele><time>2026-04-18T13:22:57.067Z</time></trkpt><trkpt lat="42.0936908" lon="11.8500041"><ele>286.6666666666667</ele><time>2026-04-18T13:22:58.076Z</time></trkpt><trkpt lat="42.0937885" lon="11.8500034"><ele>285.0</ele><time>2026-04-18T13:22:59.064Z</time></trkpt><trkpt lat="42.0938731" lon="11.8499988"><ele>283.3333333333333</ele><time>2026-04-18T13:23:00.066Z</time></trkpt><trkpt lat="42.0939472" lon="11.8499748"><ele>281.66666666666663</ele><time>2026-04-18T13:23:01.069Z</time></trkpt><trkpt lat="42.0940126" lon="11.8499314"><ele>280.0</ele><time>2026-04-18T13:23:02.075Z</time></trkpt><trkpt lat="42.0940735" lon="11.849873"><ele>278.16666666666663</ele><time>2026-04-18T13:23:03.075Z</time></trkpt><trkpt lat="42.0941231" lon="11.8497931"><ele>276.3333333333333</ele><time>2026-04-18T13:23:04.065Z</time></trkpt><trkpt lat="42.0941666" lon="11.8496943"><ele>274.5</ele><time>2026-04-18T13:23:05.075Z</time></trkpt><trkpt lat="42.0942117" lon="11.8495909"><ele>272.6666666666667</ele><time>2026-04-18T13:23:06.066Z</time></trkpt><trkpt lat="42.0942488" lon="11.8494919"><ele>270.83333333333337</ele><time>2026-04-18T13:23:07.057Z</time></trkpt><trkpt lat="42.0942791" lon="11.8493969"><ele>269.0</ele><time>2026-04-18T13:23:08.067Z</time></trkpt><trkpt lat="42.0943036" lon="11.8493106"><ele>269.2</ele><time>2026-04-18T13:23:09.056Z</time></trkpt><trkpt lat="42.0942726" lon="11.8491795"><ele>269.4</ele><time>2026-04-18T13:23:11.069Z</time></trkpt><trkpt lat="42.0942308" lon="11.8491046"><ele>269.6</ele><time>2026-04-18T13:23:12.064Z</time></trkpt><trkpt lat="42.0941615" lon="11.8490069"><ele>269.8</ele><time>2026-04-18T13:23:13.068Z</time></trkpt><trkpt lat="42.0940974" lon="11.8489115"><ele>270.0</ele><time>2026-04-18T13:23:14.072Z</time></trkpt><trkpt lat="42.0940368" lon="11.848797"><ele>270.0</ele><time>2026-04-18T13:23:15.065Z</time></trkpt><trkpt lat="42.0939798" lon="11.8486735"><ele>270.0</ele><time>2026-04-18T13:23:16.076Z</time></trkpt><trkpt lat="42.0939286" lon="11.8485414"><ele>270.0</ele><time>2026-04-18T13:23:17.066Z</time></trkpt><trkpt lat="42.0938738" lon="11.8484099"><ele>270.0</ele><time>2026-04-18T13:23:18.067Z</time></trkpt><trkpt lat="42.0938148" lon="11.848273"><ele>270.0</ele><time>2026-04-18T13:23:19.065Z</time></trkpt><trkpt lat="42.09376" lon="11.8481245"><ele>270.0</ele><time>2026-04-18T13:23:20.072Z</time></trkpt><trkpt lat="42.0937107" lon="11.8479887"><ele>270.0</ele><time>2026-04-18T13:23:21.06Z</time></trkpt><trkpt lat="42.0936627" lon="11.8478601"><ele>270.0</ele><time>2026-04-18T13:23:22.069Z</time></trkpt><trkpt lat="42.093621" lon="11.8477182"><ele>270.0</ele><time>2026-04-18T13:23:23.066Z</time></trkpt><trkpt lat="42.0935623" lon="11.8475806"><ele>266.25</ele><time>2026-04-18T13:23:24.064Z</time></trkpt><trkpt lat="42.0935002" lon="11.8474294"><ele>262.5</ele><time>2026-04-18T13:23:25.066Z</time></trkpt><trkpt lat="42.0934374" lon="11.8472764"><ele>258.75</ele><time>2026-04-18T13:23:26.079Z</time></trkpt><trkpt lat="42.0933658" lon="11.8471376"><ele>255.0</ele><time>2026-04-18T13:23:27.072Z</time></trkpt><trkpt lat="42.0932864" lon="11.8470079"><ele>254.6</ele><time>2026-04-18T13:23:28.062Z</time></trkpt><trkpt lat="42.0932121" lon="11.846898"><ele>254.2</ele><time>2026-04-18T13:23:29.069Z</time></trkpt><trkpt lat="42.0931363" lon="11.8468097"><ele>253.8</ele><time>2026-04-18T13:23:30.067Z</time></trkpt><trkpt lat="42.0930697" lon="11.8467491"><ele>253.4</ele><time>2026-04-18T13:23:31.059Z</time></trkpt><trkpt lat="42.0930115" lon="11.8467098"><ele>253.0</ele><time>2026-04-18T13:23:32.066Z</time></trkpt><trkpt lat="42.0928966" lon="11.8466669"><ele>252.99999999999997</ele><time>2026-04-18T13:23:34.068Z</time></trkpt><trkpt lat="42.0928289" lon="11.8466705"><ele>253.0</ele><time>2026-04-18T13:23:35.071Z</time></trkpt><trkpt lat="42.092755" lon="11.8466931"><ele>253.0</ele><time>2026-04-18T13:23:36.079Z</time></trkpt><trkpt lat="42.0926703" lon="11.8467302"><ele>253.0</ele><time>2026-04-18T13:23:37.068Z</time></trkpt><trkpt lat="42.0925831" lon="11.8467755"><ele>252.99999999999997</ele><time>2026-04-18T13:23:38.078Z</time></trkpt><trkpt lat="42.0924907" lon="11.8468243"><ele>253.0</ele><time>2026-04-18T13:23:39.08Z</time></trkpt><trkpt lat="42.0923954" lon="11.8468659"><ele>252.33333333333331</ele><time>2026-04-18T13:23:40.069Z</time></trkpt><trkpt lat="42.0923004" lon="11.8469004"><ele>251.66666666666666</ele><time>2026-04-18T13:23:41.084Z</time></trkpt><trkpt lat="42.0921994" lon="11.8469218"><ele>251.0</ele><time>2026-04-18T13:23:42.072Z</time></trkpt><trkpt lat="42.0921055" lon="11.8469392"><ele>250.33333333333331</ele><time>2026-04-18T13:23:43.071Z</time></trkpt><trkpt lat="42.0920228" lon="11.8469526"><ele>249.66666666666666</ele><time>2026-04-18T13:23:44.075Z</time></trkpt><trkpt lat="42.0919561" lon="11.8469479"><ele>249.0</ele><time>2026-04-18T13:23:45.061Z</time></trkpt><trkpt lat="42.091885" lon="11.8469286"><ele>249.0</ele><time>2026-04-18T13:23:46.063Z</time></trkpt><trkpt lat="42.0917921" lon="11.846824"><ele>249.0</ele><time>2026-04-18T13:23:47.081Z</time></trkpt><trkpt lat="42.0916828" lon="11.8466581"><ele>249.0</ele><time>2026-04-18T13:23:48.073Z</time></trkpt><trkpt lat="42.0915696" lon="11.8464824"><ele>246.5</ele><time>2026-04-18T13:23:49.066Z</time></trkpt><trkpt lat="42.0914609" lon="11.8463243"><ele>244.0</ele><time>2026-04-18T13:23:50.08Z</time></trkpt><trkpt lat="42.091353" lon="11.8461877"><ele>241.5</ele><time>2026-04-18T13:23:51.069Z</time></trkpt><trkpt lat="42.091251" lon="11.8460688"><ele>239.0</ele><time>2026-04-18T13:23:52.06Z</time></trkpt><trkpt lat="42.0911576" lon="11.8459513"><ele>236.25</ele><time>2026-04-18T13:23:53.083Z</time></trkpt><trkpt lat="42.0910644" lon="11.8458284"><ele>233.5</ele><time>2026-04-18T13:23:54.062Z</time></trkpt><trkpt lat="42.0909799" lon="11.8456914"><ele>230.75</ele><time>2026-04-18T13:23:55.062Z</time></trkpt><trkpt lat="42.0909242" lon="11.8454971"><ele>228.0</ele><time>2026-04-18T13:23:56.068Z</time></trkpt><trkpt lat="42.090882" lon="11.8452929"><ele>224.75</ele><time>2026-04-18T13:23:57.057Z</time></trkpt><trkpt lat="42.0908356" lon="11.8451206"><ele>221.5</ele><time>2026-04-18T13:23:58.066Z</time></trkpt><trkpt lat="42.0907797" lon="11.8449614"><ele>218.25</ele><time>2026-04-18T13:23:59.059Z</time></trkpt><trkpt lat="42.0907298" lon="11.8448071"><ele>215.0</ele><time>2026-04-18T13:24:00.07Z</time></trkpt><trkpt lat="42.0906459" lon="11.8446605"><ele>215.0</ele><time>2026-04-18T13:24:01.077Z</time></trkpt><trkpt lat="42.0905539" lon="11.8445148"><ele>215.0</ele><time>2026-04-18T13:24:02.066Z</time></trkpt><trkpt lat="42.0904723" lon="11.8443709"><ele>215.0</ele><time>2026-04-18T13:24:03.059Z</time></trkpt><trkpt lat="42.0904094" lon="11.8442299"><ele>215.0</ele><time>2026-04-18T13:24:04.076Z</time></trkpt><trkpt lat="42.0903545" lon="11.8440772"><ele>213.2</ele><time>2026-04-18T13:24:05.058Z</time></trkpt><trkpt lat="42.0902963" lon="11.8439314"><ele>211.4</ele><time>2026-04-18T13:24:06.062Z</time></trkpt><trkpt lat="42.0902325" lon="11.8438031"><ele>209.60000000000002</ele><time>2026-04-18T13:24:07.061Z</time></trkpt><trkpt lat="42.0901628" lon="11.8437032"><ele>207.8</ele><time>2026-04-18T13:24:08.071Z</time></trkpt><trkpt lat="42.0900898" lon="11.8436193"><ele>206.0</ele><time>2026-04-18T13:24:09.072Z</time></trkpt><trkpt lat="42.0900055" lon="11.8435543"><ele>203.60000000000002</ele><time>2026-04-18T13:24:10.069Z</time></trkpt><trkpt lat="42.0899081" lon="11.8435031"><ele>201.2</ele><time>2026-04-18T13:24:11.059Z</time></trkpt><trkpt lat="42.0898037" lon="11.8434667"><ele>198.8</ele><time>2026-04-18T13:24:12.066Z</time></trkpt><trkpt lat="42.0896995" lon="11.8434413"><ele>196.39999999999998</ele><time>2026-04-18T13:24:13.067Z</time></trkpt><trkpt lat="42.0896037" lon="11.8434417"><ele>194.0</ele><time>2026-04-18T13:24:14.07Z</time></trkpt><trkpt lat="42.0895164" lon="11.843407"><ele>193.79999999999998</ele><time>2026-04-18T13:24:15.071Z</time></trkpt><trkpt lat="42.0894404" lon="11.8433612"><ele>193.6</ele><time>2026-04-18T13:24:16.07Z</time></trkpt><trkpt lat="42.0893944" lon="11.8432587"><ele>193.4</ele><time>2026-04-18T13:24:17.059Z</time></trkpt><trkpt lat="42.0893405" lon="11.8431146"><ele>193.2</ele><time>2026-04-18T13:24:18.062Z</time></trkpt><trkpt lat="42.0892908" lon="11.8429862"><ele>193.0</ele><time>2026-04-18T13:24:19.066Z</time></trkpt><trkpt lat="42.0892509" lon="11.8428642"><ele>193.0</ele><time>2026-04-18T13:24:20.066Z</time></trkpt><trkpt lat="42.0892037" lon="11.8427478"><ele>193.0</ele><time>2026-04-18T13:24:21.075Z</time></trkpt><trkpt lat="42.0891606" lon="11.8426235"><ele>193.0</ele><time>2026-04-18T13:24:22.072Z</time></trkpt><trkpt lat="42.0891162" lon="11.8424974"><ele>193.0</ele><time>2026-04-18T13:24:23.071Z</time></trkpt><trkpt lat="42.0890911" lon="11.8423486"><ele>193.0</ele><time>2026-04-18T13:24:24.062Z</time></trkpt><trkpt lat="42.0890723" lon="11.8421717"><ele>189.2</ele><time>2026-04-18T13:24:25.068Z</time></trkpt><trkpt lat="42.0890535" lon="11.8420012"><ele>185.4</ele><time>2026-04-18T13:24:26.071Z</time></trkpt><trkpt lat="42.089037" lon="11.8418465"><ele>181.6</ele><time>2026-04-18T13:24:27.075Z</time></trkpt><trkpt lat="42.0890187" lon="11.8417105"><ele>177.79999999999998</ele><time>2026-04-18T13:24:28.075Z</time></trkpt><trkpt lat="42.089012" lon="11.8415804"><ele>174.0</ele><time>2026-04-18T13:24:29.078Z</time></trkpt><trkpt lat="42.0890159" lon="11.8414284"><ele>173.5</ele><time>2026-04-18T13:24:30.08Z</time></trkpt><trkpt lat="42.0890504" lon="11.8412833"><ele>173.0</ele><time>2026-04-18T13:24:31.059Z</time></trkpt><trkpt lat="42.0890852" lon="11.8411354"><ele>172.5</ele><time>2026-04-18T13:24:32.077Z</time></trkpt><trkpt lat="42.089115" lon="11.8409783"><ele>172.0</ele><time>2026-04-18T13:24:33.072Z</time></trkpt><trkpt lat="42.0891252" lon="11.8408097"><ele>172.75</ele><time>2026-04-18T13:24:34.063Z</time></trkpt><trkpt lat="42.0891146" lon="11.8406344"><ele>173.5</ele><time>2026-04-18T13:24:35.085Z</time></trkpt><trkpt lat="42.0891147" lon="11.8404443"><ele>174.25</ele><time>2026-04-18T13:24:36.078Z</time></trkpt><trkpt lat="42.0891277" lon="11.8402759"><ele>175.0</ele><time>2026-04-18T13:24:37.067Z</time></trkpt><trkpt lat="42.0891521" lon="11.8401276"><ele>175.0</ele><time>2026-04-18T13:24:38.069Z</time></trkpt><trkpt lat="42.0891805" lon="11.8399865"><ele>175.0</ele><time>2026-04-18T13:24:39.074Z</time></trkpt><trkpt lat="42.0892037" lon="11.8398339"><ele>175.0</ele><time>2026-04-18T13:24:40.067Z</time></trkpt><trkpt lat="42.0892048" lon="11.8396693"><ele>175.0</ele><time>2026-04-18T13:24:41.066Z</time></trkpt><trkpt lat="42.0891903" lon="11.839512"><ele>175.0</ele><time>2026-04-18T13:24:42.059Z</time></trkpt><trkpt lat="42.0891657" lon="11.8393568"><ele>175.0</ele><time>2026-04-18T13:24:43.064Z</time></trkpt><trkpt lat="42.0891427" lon="11.8392066"><ele>175.0</ele><time>2026-04-18T13:24:44.068Z</time></trkpt><trkpt lat="42.0891297" lon="11.8390641"><ele>175.0</ele><time>2026-04-18T13:24:45.067Z</time></trkpt><trkpt lat="42.0891175" lon="11.8389129"><ele>173.75</ele><time>2026-04-18T13:24:46.064Z</time></trkpt><trkpt lat="42.0891119" lon="11.8387536"><ele>172.5</ele><time>2026-04-18T13:24:47.065Z</time></trkpt><trkpt lat="42.0891152" lon="11.8385931"><ele>171.25</ele><time>2026-04-18T13:24:48.067Z</time></trkpt><trkpt lat="42.089122" lon="11.8384369"><ele>170.0</ele><time>2026-04-18T13:24:49.058Z</time></trkpt><trkpt lat="42.0891326" lon="11.8382769"><ele>169.75</ele><time>2026-04-18T13:24:50.061Z</time></trkpt><trkpt lat="42.0891466" lon="11.8381216"><ele>169.5</ele><time>2026-04-18T13:24:51.064Z</time></trkpt><trkpt lat="42.0891602" lon="11.8379543"><ele>169.25</ele><time>2026-04-18T13:24:52.069Z</time></trkpt><trkpt lat="42.0891546" lon="11.8377701"><ele>169.0</ele><time>2026-04-18T13:24:53.087Z</time></trkpt><trkpt lat="42.0891256" lon="11.8375784"><ele>168.75</ele><time>2026-04-18T13:24:54.07Z</time></trkpt><trkpt lat="42.0890939" lon="11.8373955"><ele>168.5</ele><time>2026-04-18T13:24:55.069Z</time></trkpt><trkpt lat="42.0890695" lon="11.8372215"><ele>168.25</ele><time>2026-04-18T13:24:56.066Z</time></trkpt><trkpt lat="42.0890423" lon="11.8370538"><ele>168.0</ele><time>2026-04-18T13:24:57.065Z</time></trkpt><trkpt lat="42.089015" lon="11.8368822"><ele>166.0</ele><time>2026-04-18T13:24:58.062Z</time></trkpt><trkpt lat="42.0889925" lon="11.8367388"><ele>164.0</ele><time>2026-04-18T13:24:59.07Z</time></trkpt><trkpt lat="42.0889686" lon="11.8366186"><ele>162.0</ele><time>2026-04-18T13:25:00.061Z</time></trkpt><trkpt lat="42.0889346" lon="11.8364951"><ele>160.0</ele><time>2026-04-18T13:25:01.066Z</time></trkpt><trkpt lat="42.0888847" lon="11.8363524"><ele>158.0</ele><time>2026-04-18T13:25:02.064Z</time></trkpt><trkpt lat="42.0888323" lon="11.8362123"><ele>158.0</ele><time>2026-04-18T13:25:03.07Z</time></trkpt><trkpt lat="42.0887876" lon="11.8360808"><ele>158.0</ele><time>2026-04-18T13:25:04.073Z</time></trkpt><trkpt lat="42.0887574" lon="11.835965"><ele>158.0</ele><time>2026-04-18T13:25:05.073Z</time></trkpt><trkpt lat="42.088732" lon="11.8358399"><ele>158.0</ele><time>2026-04-18T13:25:06.072Z</time></trkpt><trkpt lat="42.088713" lon="11.8357102"><ele>158.0</ele><time>2026-04-18T13:25:07.074Z</time></trkpt><trkpt lat="42.0886986" lon="11.8355779"><ele>158.4</ele><time>2026-04-18T13:25:08.069Z</time></trkpt><trkpt lat="42.0886724" lon="11.835453"><ele>158.8</ele><time>2026-04-18T13:25:09.074Z</time></trkpt><trkpt lat="42.0886289" lon="11.8353269"><ele>159.2</ele><time>2026-04-18T13:25:10.069Z</time></trkpt><trkpt lat="42.0885723" lon="11.8351953"><ele>159.6</ele><time>2026-04-18T13:25:11.072Z</time></trkpt><trkpt lat="42.0885245" lon="11.8350488"><ele>160.0</ele><time>2026-04-18T13:25:12.08Z</time></trkpt><trkpt lat="42.0884686" lon="11.8348946"><ele>160.0</ele><time>2026-04-18T13:25:13.079Z</time></trkpt><trkpt lat="42.0884186" lon="11.8347429"><ele>160.0</ele><time>2026-04-18T13:25:14.068Z</time></trkpt><trkpt lat="42.0883776" lon="11.8345765"><ele>160.0</ele><time>2026-04-18T13:25:15.08Z</time></trkpt><trkpt lat="42.0883382" lon="11.8344066"><ele>160.0</ele><time>2026-04-18T13:25:16.072Z</time></trkpt><trkpt lat="42.0883055" lon="11.8342401"><ele>159.5</ele><time>2026-04-18T13:25:17.069Z</time></trkpt><trkpt lat="42.0882684" lon="11.8340725"><ele>159.0</ele><time>2026-04-18T13:25:18.074Z</time></trkpt><trkpt lat="42.0882191" lon="11.8339113"><ele>158.5</ele><time>2026-04-18T13:25:19.066Z</time></trkpt><trkpt lat="42.0881627" lon="11.8337452"><ele>158.0</ele><time>2026-04-18T13:25:20.072Z</time></trkpt><trkpt lat="42.0881019" lon="11.8335839"><ele>155.5</ele><time>2026-04-18T13:25:21.075Z</time></trkpt><trkpt lat="42.0880387" lon="11.8334381"><ele>153.0</ele><time>2026-04-18T13:25:22.078Z</time></trkpt><trkpt lat="42.0879798" lon="11.8332891"><ele>150.5</ele><time>2026-04-18T13:25:23.073Z</time></trkpt><trkpt lat="42.0879198" lon="11.8331524"><ele>148.0</ele><time>2026-04-18T13:25:24.072Z</time></trkpt><trkpt lat="42.0878555" lon="11.8330103"><ele>148.0</ele><time>2026-04-18T13:25:25.065Z</time></trkpt><trkpt lat="42.0877896" lon="11.8328654"><ele>148.0</ele><time>2026-04-18T13:25:26.085Z</time></trkpt><trkpt lat="42.0877199" lon="11.832719"><ele>148.0</ele><time>2026-04-18T13:25:27.075Z</time></trkpt><trkpt lat="42.0876525" lon="11.8325679"><ele>148.0</ele><time>2026-04-18T13:25:28.073Z</time></trkpt><trkpt lat="42.0875921" lon="11.8324219"><ele>147.4</ele><time>2026-04-18T13:25:29.069Z</time></trkpt><trkpt lat="42.0875374" lon="11.8322893"><ele>146.8</ele><time>2026-04-18T13:25:30.092Z</time></trkpt><trkpt lat="42.0874913" lon="11.832164"><ele>146.2</ele><time>2026-04-18T13:25:31.065Z</time></trkpt><trkpt lat="42.0874502" lon="11.8320445"><ele>145.6</ele><time>2026-04-18T13:25:32.078Z</time></trkpt><trkpt lat="42.0874166" lon="11.8319286"><ele>145.0</ele><time>2026-04-18T13:25:33.068Z</time></trkpt><trkpt lat="42.0873871" lon="11.8318106"><ele>142.83333333333334</ele><time>2026-04-18T13:25:34.078Z</time></trkpt><trkpt lat="42.0873598" lon="11.8316953"><ele>140.66666666666669</ele><time>2026-04-18T13:25:35.074Z</time></trkpt><trkpt lat="42.0873384" lon="11.8315889"><ele>138.5</ele><time>2026-04-18T13:25:36.084Z</time></trkpt><trkpt lat="42.0873227" lon="11.8315058"><ele>136.33333333333334</ele><time>2026-04-18T13:25:37.073Z</time></trkpt><trkpt lat="42.0872985" lon="11.8313654"><ele>134.16666666666666</ele><time>2026-04-18T13:25:39.075Z</time></trkpt><trkpt lat="42.0872813" lon="11.8312254"><ele>132.0</ele><time>2026-04-18T13:25:41.07Z</time></trkpt><trkpt lat="42.0872748" lon="11.8311047"><ele>132.2</ele><time>2026-04-18T13:25:43.077Z</time></trkpt><trkpt lat="42.0872682" lon="11.8309713"><ele>132.39999999999998</ele><time>2026-04-18T13:25:45.07Z</time></trkpt><trkpt lat="42.0872612" lon="11.8308215"><ele>132.60000000000002</ele><time>2026-04-18T13:25:47.075Z</time></trkpt><trkpt lat="42.0872436" lon="11.8306645"><ele>132.8</ele><time>2026-04-18T13:25:49.067Z</time></trkpt><trkpt lat="42.0872251" lon="11.8305825"><ele>133.0</ele><time>2026-04-18T13:25:50.073Z</time></trkpt><trkpt lat="42.0871828" lon="11.8304282"><ele>133.0</ele><time>2026-04-18T13:25:52.068Z</time></trkpt><trkpt lat="42.087162" lon="11.8303481"><ele>133.0</ele><time>2026-04-18T13:25:53.066Z</time></trkpt><trkpt lat="42.0871433" lon="11.8302517"><ele>133.0</ele><time>2026-04-18T13:25:54.072Z</time></trkpt><trkpt lat="42.0871257" lon="11.8301465"><ele>133.0</ele><time>2026-04-18T13:25:55.067Z</time></trkpt><trkpt lat="42.0871111" lon="11.8300315"><ele>133.0</ele><time>2026-04-18T13:25:56.069Z</time></trkpt><trkpt lat="42.0870977" lon="11.8299098"><ele>133.0</ele><time>2026-04-18T13:25:57.071Z</time></trkpt><trkpt lat="42.0870908" lon="11.8297779"><ele>132.8</ele><time>2026-04-18T13:25:58.067Z</time></trkpt><trkpt lat="42.0870999" lon="11.8296527"><ele>132.60000000000002</ele><time>2026-04-18T13:25:59.067Z</time></trkpt><trkpt lat="42.0871269" lon="11.8295291"><ele>132.39999999999998</ele><time>2026-04-18T13:26:00.066Z</time></trkpt><trkpt lat="42.0871665" lon="11.8293992"><ele>132.2</ele><time>2026-04-18T13:26:01.067Z</time></trkpt><trkpt lat="42.0871942" lon="11.829251"><ele>132.0</ele><time>2026-04-18T13:26:02.067Z</time></trkpt><trkpt lat="42.0872209" lon="11.8290991"><ele>131.0</ele><time>2026-04-18T13:26:03.06Z</time></trkpt><trkpt lat="42.0872248" lon="11.8289442"><ele>130.0</ele><time>2026-04-18T13:26:04.084Z</time></trkpt><trkpt lat="42.087232" lon="11.8287878"><ele>129.0</ele><time>2026-04-18T13:26:05.06Z</time></trkpt><trkpt lat="42.0872521" lon="11.8286315"><ele>128.0</ele><time>2026-04-18T13:26:06.073Z</time></trkpt><trkpt lat="42.0872816" lon="11.82846"><ele>126.60000000000001</ele><time>2026-04-18T13:26:07.082Z</time></trkpt><trkpt lat="42.0873099" lon="11.8282893"><ele>125.20000000000002</ele><time>2026-04-18T13:26:08.073Z</time></trkpt><trkpt lat="42.0873337" lon="11.828145"><ele>123.8</ele><time>2026-04-18T13:26:09.062Z</time></trkpt><trkpt lat="42.0873555" lon="11.8280156"><ele>122.4</ele><time>2026-04-18T13:26:10.073Z</time></trkpt><trkpt lat="42.0873716" lon="11.827895"><ele>121.0</ele><time>2026-04-18T13:26:11.067Z</time></trkpt><trkpt lat="42.0873662" lon="11.8277896"><ele>121.00000000000001</ele><time>2026-04-18T13:26:12.076Z</time></trkpt><trkpt lat="42.087359" lon="11.8276946"><ele>121.0</ele><time>2026-04-18T13:26:13.07Z</time></trkpt><trkpt lat="42.0872947" lon="11.8276292"><ele>121.0</ele><time>2026-04-18T13:26:14.066Z</time></trkpt><trkpt lat="42.0872043" lon="11.8275921"><ele>121.0</ele><time>2026-04-18T13:26:15.072Z</time></trkpt><trkpt lat="42.0871039" lon="11.8275724"><ele>121.00000000000001</ele><time>2026-04-18T13:26:16.077Z</time></trkpt><trkpt lat="42.087007" lon="11.827535"><ele>121.0</ele><time>2026-04-18T13:26:17.071Z</time></trkpt><trkpt lat="42.0869232" lon="11.8274743"><ele>119.75</ele><time>2026-04-18T13:26:18.066Z</time></trkpt><trkpt lat="42.0868408" lon="11.8273779"><ele>118.5</ele><time>2026-04-18T13:26:19.063Z</time></trkpt><trkpt lat="42.0867675" lon="11.8272547"><ele>117.25</ele><time>2026-04-18T13:26:20.075Z</time></trkpt><trkpt lat="42.0866908" lon="11.8271248"><ele>116.0</ele><time>2026-04-18T13:26:21.077Z</time></trkpt><trkpt lat="42.0866453" lon="11.826954"><ele>115.25</ele><time>2026-04-18T13:26:22.063Z</time></trkpt><trkpt lat="42.0866009" lon="11.8267708"><ele>114.5</ele><time>2026-04-18T13:26:23.073Z</time></trkpt><trkpt lat="42.0865494" lon="11.826589"><ele>113.75</ele><time>2026-04-18T13:26:24.076Z</time></trkpt><trkpt lat="42.0864807" lon="11.8264039"><ele>113.0</ele><time>2026-04-18T13:26:25.066Z</time></trkpt><trkpt lat="42.0864008" lon="11.8262228"><ele>111.33333333333333</ele><time>2026-04-18T13:26:26.078Z</time></trkpt><trkpt lat="42.0863238" lon="11.826043"><ele>109.66666666666666</ele><time>2026-04-18T13:26:27.074Z</time></trkpt><trkpt lat="42.0862643" lon="11.8258496"><ele>108.0</ele><time>2026-04-18T13:26:28.067Z</time></trkpt><trkpt lat="42.0862193" lon="11.825638"><ele>106.33333333333334</ele><time>2026-04-18T13:26:29.077Z</time></trkpt><trkpt lat="42.086181" lon="11.8254104"><ele>104.66666666666667</ele><time>2026-04-18T13:26:30.067Z</time></trkpt><trkpt lat="42.0861442" lon="11.8251722"><ele>103.0</ele><time>2026-04-18T13:26:31.075Z</time></trkpt><trkpt lat="42.0861067" lon="11.8249317"><ele>100.66666666666667</ele><time>2026-04-18T13:26:32.072Z</time></trkpt><trkpt lat="42.0860651" lon="11.8246928"><ele>98.33333333333334</ele><time>2026-04-18T13:26:33.069Z</time></trkpt><trkpt lat="42.0860145" lon="11.8244493"><ele>96.0</ele><time>2026-04-18T13:26:34.063Z</time></trkpt><trkpt lat="42.0859542" lon="11.8242101"><ele>93.33333333333333</ele><time>2026-04-18T13:26:35.067Z</time></trkpt><trkpt lat="42.0858941" lon="11.8239804"><ele>90.66666666666666</ele><time>2026-04-18T13:26:36.067Z</time></trkpt><trkpt lat="42.0858461" lon="11.8237575"><ele>88.0</ele><time>2026-04-18T13:26:37.066Z</time></trkpt><trkpt lat="42.0858174" lon="11.8235262"><ele>86.66666666666666</ele><time>2026-04-18T13:26:38.076Z</time></trkpt><trkpt lat="42.085798" lon="11.8232735"><ele>85.33333333333333</ele><time>2026-04-18T13:26:39.067Z</time></trkpt><trkpt lat="42.0857754" lon="11.8230049"><ele>84.0</ele><time>2026-04-18T13:26:40.066Z</time></trkpt><trkpt lat="42.085748" lon="11.8227283"><ele>81.33333333333333</ele><time>2026-04-18T13:26:41.074Z</time></trkpt><trkpt lat="42.0857184" lon="11.822447"><ele>78.66666666666666</ele><time>2026-04-18T13:26:42.072Z</time></trkpt><trkpt lat="42.0856908" lon="11.8221734"><ele>76.0</ele><time>2026-04-18T13:26:43.067Z</time></trkpt><trkpt lat="42.0856636" lon="11.8218969"><ele>75.0</ele><time>2026-04-18T13:26:44.074Z</time></trkpt><trkpt lat="42.0856373" lon="11.8216318"><ele>74.0</ele><time>2026-04-18T13:26:45.067Z</time></trkpt><trkpt lat="42.0856165" lon="11.8213832"><ele>73.0</ele><time>2026-04-18T13:26:46.074Z</time></trkpt><trkpt lat="42.0855963" lon="11.8211501"><ele>72.0</ele><time>2026-04-18T13:26:47.072Z</time></trkpt><trkpt lat="42.0855691" lon="11.8209305"><ele>71.0</ele><time>2026-04-18T13:26:48.084Z</time></trkpt><trkpt lat="42.0855355" lon="11.8207398"><ele>70.0</ele><time>2026-04-18T13:26:49.071Z</time></trkpt><trkpt lat="42.0854838" lon="11.8205267"><ele>70.0</ele><time>2026-04-18T13:26:50.062Z</time></trkpt><trkpt lat="42.0854143" lon="11.8203079"><ele>70.0</ele><time>2026-04-18T13:26:51.066Z</time></trkpt><trkpt lat="42.0853317" lon="11.8200888"><ele>70.0</ele><time>2026-04-18T13:26:52.07Z</time></trkpt><trkpt lat="42.0852482" lon="11.8198632"><ele>68.33333333333333</ele><time>2026-04-18T13:26:53.062Z</time></trkpt><trkpt lat="42.0851661" lon="11.8196144"><ele>66.66666666666667</ele><time>2026-04-18T13:26:54.069Z</time></trkpt><trkpt lat="42.0850983" lon="11.8193612"><ele>65.0</ele><time>2026-04-18T13:26:55.065Z</time></trkpt><trkpt lat="42.0850376" lon="11.8190867"><ele>63.333333333333336</ele><time>2026-04-18T13:26:56.063Z</time></trkpt><trkpt lat="42.0849797" lon="11.8188154"><ele>61.66666666666667</ele><time>2026-04-18T13:26:57.065Z</time></trkpt><trkpt lat="42.084926" lon="11.8185573"><ele>60.0</ele><time>2026-04-18T13:26:58.07Z</time></trkpt><trkpt lat="42.0848727" lon="11.8183098"><ele>57.66666666666667</ele><time>2026-04-18T13:26:59.066Z</time></trkpt><trkpt lat="42.0848243" lon="11.8180845"><ele>55.333333333333336</ele><time>2026-04-18T13:27:00.067Z</time></trkpt><trkpt lat="42.0847815" lon="11.8178671"><ele>53.0</ele><time>2026-04-18T13:27:01.066Z</time></trkpt><trkpt lat="42.084732" lon="11.8176549"><ele>50.66666666666667</ele><time>2026-04-18T13:27:02.067Z</time></trkpt><trkpt lat="42.084683" lon="11.8174475"><ele>48.333333333333336</ele><time>2026-04-18T13:27:03.069Z</time></trkpt><trkpt lat="42.08461" lon="11.8172396"><ele>46.0</ele><time>2026-04-18T13:27:04.062Z</time></trkpt><trkpt lat="42.084514" lon="11.817056"><ele>46.0</ele><time>2026-04-18T13:27:05.069Z</time></trkpt><trkpt lat="42.0844245" lon="11.816866"><ele>46.0</ele><time>2026-04-18T13:27:06.075Z</time></trkpt><trkpt lat="42.0843402" lon="11.8166748"><ele>46.0</ele><time>2026-04-18T13:27:07.068Z</time></trkpt><trkpt lat="42.0842685" lon="11.816467"><ele>45.0</ele><time>2026-04-18T13:27:08.088Z</time></trkpt><trkpt lat="42.0842146" lon="11.8162548"><ele>44.0</ele><time>2026-04-18T13:27:09.066Z</time></trkpt><trkpt lat="42.084165" lon="11.8160459"><ele>43.0</ele><time>2026-04-18T13:27:10.065Z</time></trkpt><trkpt lat="42.0841191" lon="11.8158446"><ele>41.333333333333336</ele><time>2026-04-18T13:27:11.064Z</time></trkpt><trkpt lat="42.0840738" lon="11.8156492"><ele>39.666666666666664</ele><time>2026-04-18T13:27:12.071Z</time></trkpt><trkpt lat="42.0840354" lon="11.8154506"><ele>38.0</ele><time>2026-04-18T13:27:13.064Z</time></trkpt><trkpt lat="42.0840063" lon="11.815249"><ele>38.0</ele><time>2026-04-18T13:27:14.063Z</time></trkpt><trkpt lat="42.0839836" lon="11.8150447"><ele>38.0</ele><time>2026-04-18T13:27:15.071Z</time></trkpt><trkpt lat="42.0839579" lon="11.81486"><ele>38.0</ele><time>2026-04-18T13:27:16.066Z</time></trkpt><trkpt lat="42.0838933" lon="11.8146699"><ele>38.0</ele><time>2026-04-18T13:27:17.073Z</time></trkpt><trkpt lat="42.0838164" lon="11.8144808"><ele>37.0</ele><time>2026-04-18T13:27:18.068Z</time></trkpt><trkpt lat="42.0837392" lon="11.8143028"><ele>36.0</ele><time>2026-04-18T13:27:19.063Z</time></trkpt><trkpt lat="42.0836596" lon="11.8141166"><ele>35.0</ele><time>2026-04-18T13:27:20.064Z</time></trkpt><trkpt lat="42.0835867" lon="11.8139527"><ele>35.0</ele><time>2026-04-18T13:27:21.06Z</time></trkpt><trkpt lat="42.0834989" lon="11.8138004"><ele>35.0</ele><time>2026-04-18T13:27:22.067Z</time></trkpt><trkpt lat="42.0834303" lon="11.8136248"><ele>35.0</ele><time>2026-04-18T13:27:23.081Z</time></trkpt><trkpt lat="42.0833623" lon="11.8134733"><ele>35.0</ele><time>2026-04-18T13:27:24.064Z</time></trkpt><trkpt lat="42.0832948" lon="11.8133161"><ele>34.4</ele><time>2026-04-18T13:27:25.069Z</time></trkpt><trkpt lat="42.0832319" lon="11.8131711"><ele>33.8</ele><time>2026-04-18T13:27:26.068Z</time></trkpt><trkpt lat="42.0831687" lon="11.8130436"><ele>33.2</ele><time>2026-04-18T13:27:27.075Z</time></trkpt><trkpt lat="42.0831176" lon="11.8129217"><ele>32.6</ele><time>2026-04-18T13:27:28.075Z</time></trkpt><trkpt lat="42.0830752" lon="11.8128174"><ele>32.0</ele><time>2026-04-18T13:27:29.07Z</time></trkpt><trkpt lat="42.0830361" lon="11.8127452"><ele>32.0</ele><time>2026-04-18T13:27:30.063Z</time></trkpt><trkpt lat="42.0829659" lon="11.812722"><ele>32.0</ele><time>2026-04-18T13:27:32.07Z</time></trkpt><trkpt lat="42.0828887" lon="11.8128111"><ele>32.0</ele><time>2026-04-18T13:27:34.065Z</time></trkpt><trkpt lat="42.0828441" lon="11.8128971"><ele>32.0</ele><time>2026-04-18T13:27:35.064Z</time></trkpt><trkpt lat="42.082768" lon="11.8129819"><ele>32.0</ele><time>2026-04-18T13:27:36.071Z</time></trkpt><trkpt lat="42.0826742" lon="11.8130639"><ele>32.0</ele><time>2026-04-18T13:27:37.07Z</time></trkpt><trkpt lat="42.0825668" lon="11.8131489"><ele>32.0</ele><time>2026-04-18T13:27:38.068Z</time></trkpt><trkpt lat="42.0824571" lon="11.8132386"><ele>32.0</ele><time>2026-04-18T13:27:39.067Z</time></trkpt><trkpt lat="42.0823355" lon="11.8133408"><ele>32.0</ele><time>2026-04-18T13:27:40.062Z</time></trkpt><trkpt lat="42.0822032" lon="11.8134483"><ele>31.0</ele><time>2026-04-18T13:27:41.07Z</time></trkpt><trkpt lat="42.0820739" lon="11.8135696"><ele>30.0</ele><time>2026-04-18T13:27:42.066Z</time></trkpt><trkpt lat="42.0819433" lon="11.8136687"><ele>29.0</ele><time>2026-04-18T13:27:43.061Z</time></trkpt><trkpt lat="42.0818165" lon="11.8137668"><ele>29.0</ele><time>2026-04-18T13:27:44.068Z</time></trkpt><trkpt lat="42.0817114" lon="11.8137968"><ele>29.0</ele><time>2026-04-18T13:27:45.066Z</time></trkpt><trkpt lat="42.0816486" lon="11.8138296"><ele>29.0</ele><time>2026-04-18T13:27:46.062Z</time></trkpt><trkpt lat="42.0815718" lon="11.8138089"><ele>29.0</ele><time>2026-04-18T13:27:48.06Z</time></trkpt><trkpt lat="42.0816394" lon="11.8137186"><ele>29.0</ele><time>2026-04-18T13:27:51.065Z</time></trkpt><trkpt lat="42.0816855" lon="11.8135348"><ele>28.799999999999997</ele><time>2026-04-18T13:27:53.067Z</time></trkpt><trkpt lat="42.081737" lon="11.8134128"><ele>28.599999999999998</ele><time>2026-04-18T13:27:54.073Z</time></trkpt><trkpt lat="42.0818368" lon="11.8132785"><ele>28.4</ele><time>2026-04-18T13:27:55.062Z</time></trkpt><trkpt lat="42.0818795" lon="11.8131545"><ele>28.2</ele><time>2026-04-18T13:27:56.06Z</time></trkpt><trkpt lat="42.0819236" lon="11.8130352"><ele>28.0</ele><time>2026-04-18T13:27:57.061Z</time></trkpt><trkpt lat="42.0819274" lon="11.812901"><ele>28.0</ele><time>2026-04-18T13:27:58.06Z</time></trkpt><trkpt lat="42.0819506" lon="11.8127195"><ele>28.0</ele><time>2026-04-18T13:27:59.068Z</time></trkpt><trkpt lat="42.0819455" lon="11.8125535"><ele>28.0</ele><time>2026-04-18T13:28:00.063Z</time></trkpt><trkpt lat="42.0819041" lon="11.8123841"><ele>28.0</ele><time>2026-04-18T13:28:01.068Z</time></trkpt><trkpt lat="42.0818661" lon="11.8122273"><ele>27.25</ele><time>2026-04-18T13:28:02.066Z</time></trkpt><trkpt lat="42.0818248" lon="11.8120839"><ele>26.5</ele><time>2026-04-18T13:28:03.066Z</time></trkpt><trkpt lat="42.081774" lon="11.8119406"><ele>25.75</ele><time>2026-04-18T13:28:04.068Z</time></trkpt><trkpt lat="42.0817235" lon="11.8117946"><ele>25.0</ele><time>2026-04-18T13:28:05.066Z</time></trkpt><trkpt lat="42.0816645" lon="11.8116454"><ele>25.0</ele><time>2026-04-18T13:28:06.059Z</time></trkpt><trkpt lat="42.0816069" lon="11.8114914"><ele>25.0</ele><time>2026-04-18T13:28:07.064Z</time></trkpt><trkpt lat="42.0815475" lon="11.8113334"><ele>25.0</ele><time>2026-04-18T13:28:08.058Z</time></trkpt><trkpt lat="42.0814882" lon="11.8111672"><ele>25.0</ele><time>2026-04-18T13:28:09.065Z</time></trkpt><trkpt lat="42.0814206" lon="11.8109926"><ele>24.0</ele><time>2026-04-18T13:28:10.067Z</time></trkpt><trkpt lat="42.081355" lon="11.8108131"><ele>23.0</ele><time>2026-04-18T13:28:11.062Z</time></trkpt><trkpt lat="42.0812757" lon="11.8106248"><ele>22.0</ele><time>2026-04-18T13:28:12.059Z</time></trkpt><trkpt lat="42.081204" lon="11.810418"><ele>22.0</ele><time>2026-04-18T13:28:13.068Z</time></trkpt><trkpt lat="42.0811356" lon="11.8101998"><ele>22.0</ele><time>2026-04-18T13:28:14.071Z</time></trkpt><trkpt lat="42.08108" lon="11.8099922"><ele>22.0</ele><time>2026-04-18T13:28:15.062Z</time></trkpt><trkpt lat="42.0810493" lon="11.809786"><ele>20.75</ele><time>2026-04-18T13:28:16.063Z</time></trkpt><trkpt lat="42.0810324" lon="11.809586"><ele>19.5</ele><time>2026-04-18T13:28:17.067Z</time></trkpt><trkpt lat="42.0810209" lon="11.8094114"><ele>18.25</ele><time>2026-04-18T13:28:18.076Z</time></trkpt><trkpt lat="42.0810154" lon="11.809257"><ele>17.0</ele><time>2026-04-18T13:28:19.073Z</time></trkpt><trkpt lat="42.081013" lon="11.809127"><ele>16.833333333333336</ele><time>2026-04-18T13:28:20.063Z</time></trkpt><trkpt lat="42.0810146" lon="11.809023"><ele>16.666666666666668</ele><time>2026-04-18T13:28:21.067Z</time></trkpt><trkpt lat="42.0810193" lon="11.8088833"><ele>16.5</ele><time>2026-04-18T13:28:23.062Z</time></trkpt><trkpt lat="42.0810347" lon="11.8087797"><ele>16.333333333333332</ele><time>2026-04-18T13:28:26.067Z</time></trkpt><trkpt lat="42.0810331" lon="11.8086746"><ele>16.166666666666664</ele><time>2026-04-18T13:28:28.057Z</time></trkpt><trkpt lat="42.0810286" lon="11.8085693"><ele>16.0</ele><time>2026-04-18T13:28:29.066Z</time></trkpt><trkpt lat="42.0810289" lon="11.8084511"><ele>15.0</ele><time>2026-04-18T13:28:30.07Z</time></trkpt><trkpt lat="42.0810485" lon="11.8083207"><ele>14.0</ele><time>2026-04-18T13:28:31.086Z</time></trkpt><trkpt lat="42.0810813" lon="11.8081708"><ele>13.0</ele><time>2026-04-18T13:28:32.066Z</time></trkpt><trkpt lat="42.0811092" lon="11.8079915"><ele>12.0</ele><time>2026-04-18T13:28:33.063Z</time></trkpt><trkpt lat="42.0811297" lon="11.807798"><ele>11.0</ele><time>2026-04-18T13:28:34.061Z</time></trkpt><trkpt lat="42.0811458" lon="11.8076079"><ele>10.0</ele><time>2026-04-18T13:28:35.071Z</time></trkpt><trkpt lat="42.0811519" lon="11.8074343"><ele>9.0</ele><time>2026-04-18T13:28:36.063Z</time></trkpt><trkpt lat="42.0811442" lon="11.8072891"><ele>8.0</ele><time>2026-04-18T13:28:37.059Z</time></trkpt><trkpt lat="42.0811371" lon="11.8071525"><ele>8.0</ele><time>2026-04-18T13:28:38.068Z</time></trkpt><trkpt lat="42.0811431" lon="11.8070444"><ele>8.0</ele><time>2026-04-18T13:28:39.057Z</time></trkpt><trkpt lat="42.0812057" lon="11.8069564"><ele>8.0</ele><time>2026-04-18T13:28:41.066Z</time></trkpt><trkpt lat="42.0812976" lon="11.8069382"><ele>8.0</ele><time>2026-04-18T13:28:42.062Z</time></trkpt><trkpt lat="42.0813982" lon="11.8068781"><ele>8.0</ele><time>2026-04-18T13:28:43.073Z</time></trkpt><trkpt lat="42.0815037" lon="11.8068116"><ele>8.0</ele><time>2026-04-18T13:28:44.07Z</time></trkpt><trkpt lat="42.0816091" lon="11.8067412"><ele>8.0</ele><time>2026-04-18T13:28:45.059Z</time></trkpt><trkpt lat="42.0817342" lon="11.8066625"><ele>8.0</ele><time>2026-04-18T13:28:46.067Z</time></trkpt><trkpt lat="42.0818711" lon="11.8065913"><ele>8.0</ele><time>2026-04-18T13:28:47.071Z</time></trkpt><trkpt lat="42.0820231" lon="11.8065128"><ele>8.0</ele><time>2026-04-18T13:28:48.071Z</time></trkpt><trkpt lat="42.0821795" lon="11.8064236"><ele>8.0</ele><time>2026-04-18T13:28:49.063Z</time></trkpt><trkpt lat="42.0823382" lon="11.8063247"><ele>8.0</ele><time>2026-04-18T13:28:50.083Z</time></trkpt><trkpt lat="42.0824795" lon="11.8062235"><ele>8.600000000000001</ele><time>2026-04-18T13:28:51.07Z</time></trkpt><trkpt lat="42.0825963" lon="11.8061353"><ele>9.200000000000001</ele><time>2026-04-18T13:28:52.072Z</time></trkpt><trkpt lat="42.0826872" lon="11.8060645"><ele>9.8</ele><time>2026-04-18T13:28:53.068Z</time></trkpt><trkpt lat="42.0827532" lon="11.8060124"><ele>10.4</ele><time>2026-04-18T13:28:54.067Z</time></trkpt><trkpt lat="42.0828265" lon="11.8059576"><ele>11.0</ele><time>2026-04-18T13:28:56.067Z</time></trkpt><trkpt lat="42.0828739" lon="11.8058863"><ele>11.0</ele><time>2026-04-18T13:29:31.057Z</time></trkpt><trkpt lat="42.0829631" lon="11.8057567"><ele>11.0</ele><time>2026-04-18T13:29:33.06Z</time></trkpt><trkpt lat="42.0830259" lon="11.8056634"><ele>11.0</ele><time>2026-04-18T13:29:34.06Z</time></trkpt><trkpt lat="42.0831012" lon="11.8055592"><ele>11.0</ele><time>2026-04-18T13:29:35.057Z</time></trkpt><trkpt lat="42.083186" lon="11.8054444"><ele>11.25</ele><time>2026-04-18T13:29:36.072Z</time></trkpt><trkpt lat="42.0832776" lon="11.8053163"><ele>11.5</ele><time>2026-04-18T13:29:37.064Z</time></trkpt><trkpt lat="42.0833791" lon="11.8051748"><ele>11.75</ele><time>2026-04-18T13:29:38.062Z</time></trkpt><trkpt lat="42.0834932" lon="11.805019"><ele>12.0</ele><time>2026-04-18T13:29:39.057Z</time></trkpt><trkpt lat="42.0836104" lon="11.8048592"><ele>12.0</ele><time>2026-04-18T13:29:40.066Z</time></trkpt><trkpt lat="42.0837343" lon="11.8046925"><ele>12.0</ele><time>2026-04-18T13:29:41.065Z</time></trkpt><trkpt lat="42.0838659" lon="11.8045194"><ele>12.0</ele><time>2026-04-18T13:29:42.061Z</time></trkpt><trkpt lat="42.0839965" lon="11.8043448"><ele>12.666666666666668</ele><time>2026-04-18T13:29:43.064Z</time></trkpt><trkpt lat="42.0841192" lon="11.8041743"><ele>13.333333333333334</ele><time>2026-04-18T13:29:44.062Z</time></trkpt><trkpt lat="42.084235" lon="11.8040123"><ele>14.0</ele><time>2026-04-18T13:29:45.059Z</time></trkpt><trkpt lat="42.0843415" lon="11.8038641"><ele>14.0</ele><time>2026-04-18T13:29:46.117Z</time></trkpt><trkpt lat="42.0844475" lon="11.8037251"><ele>14.0</ele><time>2026-04-18T13:29:47.063Z</time></trkpt><trkpt lat="42.0845488" lon="11.8035825"><ele>14.0</ele><time>2026-04-18T13:29:48.066Z</time></trkpt><trkpt lat="42.0846474" lon="11.8034462"><ele>14.0</ele><time>2026-04-18T13:29:49.072Z</time></trkpt><trkpt lat="42.0847494" lon="11.8033053"><ele>13.75</ele><time>2026-04-18T13:29:50.069Z</time></trkpt><trkpt lat="42.084848" lon="11.803167"><ele>13.5</ele><time>2026-04-18T13:29:51.06Z</time></trkpt><trkpt lat="42.0849433" lon="11.8030315"><ele>13.25</ele><time>2026-04-18T13:29:52.075Z</time></trkpt><trkpt lat="42.0850341" lon="11.8028977"><ele>13.0</ele><time>2026-04-18T13:29:53.064Z</time></trkpt><trkpt lat="42.0851279" lon="11.8027646"><ele>13.0</ele><time>2026-04-18T13:29:54.065Z</time></trkpt><trkpt lat="42.0852181" lon="11.8026259"><ele>13.0</ele><time>2026-04-18T13:29:55.067Z</time></trkpt><trkpt lat="42.0853157" lon="11.8024952"><ele>13.0</ele><time>2026-04-18T13:29:56.069Z</time></trkpt><trkpt lat="42.0854152" lon="11.8023628"><ele>13.0</ele><time>2026-04-18T13:29:57.061Z</time></trkpt><trkpt lat="42.0855147" lon="11.8022303"><ele>13.0</ele><time>2026-04-18T13:29:58.068Z</time></trkpt><trkpt lat="42.0856108" lon="11.8020969"><ele>13.0</ele><time>2026-04-18T13:29:59.066Z</time></trkpt><trkpt lat="42.085707" lon="11.8019731"><ele>13.0</ele><time>2026-04-18T13:30:00.068Z</time></trkpt><trkpt lat="42.0857929" lon="11.8018545"><ele>13.0</ele><time>2026-04-18T13:30:01.059Z</time></trkpt><trkpt lat="42.0858713" lon="11.8017437"><ele>12.8</ele><time>2026-04-18T13:30:02.066Z</time></trkpt><trkpt lat="42.0859469" lon="11.8016333"><ele>12.600000000000001</ele><time>2026-04-18T13:30:03.067Z</time></trkpt><trkpt lat="42.0860254" lon="11.8015249"><ele>12.399999999999999</ele><time>2026-04-18T13:30:04.064Z</time></trkpt><trkpt lat="42.0860977" lon="11.8014155"><ele>12.2</ele><time>2026-04-18T13:30:05.062Z</time></trkpt><trkpt lat="42.0861633" lon="11.8013006"><ele>12.0</ele><time>2026-04-18T13:30:06.069Z</time></trkpt><trkpt lat="42.0862212" lon="11.8011852"><ele>12.0</ele><time>2026-04-18T13:30:07.074Z</time></trkpt><trkpt lat="42.0862797" lon="11.8010672"><ele>12.0</ele><time>2026-04-18T13:30:08.067Z</time></trkpt><trkpt lat="42.086336" lon="11.8009469"><ele>12.0</ele><time>2026-04-18T13:30:09.089Z</time></trkpt><trkpt lat="42.0863945" lon="11.8008194"><ele>12.0</ele><time>2026-04-18T13:30:10.07Z</time></trkpt><trkpt lat="42.0864546" lon="11.800688"><ele>12.0</ele><time>2026-04-18T13:30:11.07Z</time></trkpt><trkpt lat="42.0865171" lon="11.800555"><ele>10.75</ele><time>2026-04-18T13:30:12.071Z</time></trkpt><trkpt lat="42.0865721" lon="11.8004303"><ele>9.5</ele><time>2026-04-18T13:30:13.071Z</time></trkpt><trkpt lat="42.0866307" lon="11.8002929"><ele>8.25</ele><time>2026-04-18T13:30:14.065Z</time></trkpt><trkpt lat="42.0866927" lon="11.8001539"><ele>7.0</ele><time>2026-04-18T13:30:15.067Z</time></trkpt><trkpt lat="42.0867642" lon="11.8000175"><ele>7.0</ele><time>2026-04-18T13:30:16.078Z</time></trkpt><trkpt lat="42.0868254" lon="11.7998764"><ele>7.0</ele><time>2026-04-18T13:30:17.062Z</time></trkpt><trkpt lat="42.0868896" lon="11.7997459"><ele>7.0</ele><time>2026-04-18T13:30:18.066Z</time></trkpt><trkpt lat="42.0869513" lon="11.7996044"><ele>7.0</ele><time>2026-04-18T13:30:19.066Z</time></trkpt><trkpt lat="42.0870166" lon="11.7994719"><ele>7.0</ele><time>2026-04-18T13:30:20.071Z</time></trkpt><trkpt lat="42.0870937" lon="11.7993382"><ele>7.0</ele><time>2026-04-18T13:30:21.067Z</time></trkpt><trkpt lat="42.0871605" lon="11.799192"><ele>7.0</ele><time>2026-04-18T13:30:22.074Z</time></trkpt><trkpt lat="42.0872254" lon="11.7990406"><ele>7.0</ele><time>2026-04-18T13:30:23.064Z</time></trkpt><trkpt lat="42.0872962" lon="11.7988945"><ele>6.5</ele><time>2026-04-18T13:30:24.063Z</time></trkpt><trkpt lat="42.0873679" lon="11.7987286"><ele>6.0</ele><time>2026-04-18T13:30:25.059Z</time></trkpt><trkpt lat="42.0874455" lon="11.7985608"><ele>5.5</ele><time>2026-04-18T13:30:26.07Z</time></trkpt><trkpt lat="42.0875233" lon="11.7983953"><ele>5.0</ele><time>2026-04-18T13:30:27.066Z</time></trkpt><trkpt lat="42.0875914" lon="11.798239"><ele>6.25</ele><time>2026-04-18T13:30:28.077Z</time></trkpt><trkpt lat="42.0876628" lon="11.7980952"><ele>7.5</ele><time>2026-04-18T13:30:29.061Z</time></trkpt><trkpt lat="42.0877285" lon="11.7979565"><ele>8.75</ele><time>2026-04-18T13:30:30.078Z</time></trkpt><trkpt lat="42.0877901" lon="11.7978204"><ele>10.0</ele><time>2026-04-18T13:30:31.064Z</time></trkpt><trkpt lat="42.0878418" lon="11.7977042"><ele>9.5</ele><time>2026-04-18T13:30:32.074Z</time></trkpt><trkpt lat="42.0878928" lon="11.7976082"><ele>9.0</ele><time>2026-04-18T13:30:33.058Z</time></trkpt><trkpt lat="42.0879337" lon="11.7975259"><ele>8.5</ele><time>2026-04-18T13:30:34.065Z</time></trkpt><trkpt lat="42.0879734" lon="11.7974466"><ele>8.0</ele><time>2026-04-18T13:30:35.068Z</time></trkpt><trkpt lat="42.0880144" lon="11.7973698"><ele>7.500000000000001</ele><time>2026-04-18T13:30:36.066Z</time></trkpt><trkpt lat="42.0880762" lon="11.7972523"><ele>7.0</ele><time>2026-04-18T13:30:38.064Z</time></trkpt><trkpt lat="42.0881296" lon="11.7971418"><ele>7.000000000000001</ele><time>2026-04-18T13:30:40.077Z</time></trkpt><trkpt lat="42.0881917" lon="11.7970074"><ele>7.0</ele><time>2026-04-18T13:30:42.077Z</time></trkpt><trkpt lat="42.0882407" lon="11.796904"><ele>7.0</ele><time>2026-04-18T13:30:44.077Z</time></trkpt><trkpt lat="42.0882511" lon="11.7968156"><ele>7.0</ele><time>2026-04-18T13:30:46.067Z</time></trkpt><trkpt lat="42.088167" lon="11.7967527"><ele>7.000000000000001</ele><time>2026-04-18T13:30:49.07Z</time></trkpt><trkpt lat="42.088132" lon="11.7966763"><ele>7.0</ele><time>2026-04-18T13:30:51.073Z</time></trkpt><trkpt lat="42.0881599" lon="11.796588"><ele>6.166666666666667</ele><time>2026-04-18T13:30:53.078Z</time></trkpt><trkpt lat="42.0881903" lon="11.7965103"><ele>5.333333333333334</ele><time>2026-04-18T13:30:55.063Z</time></trkpt><trkpt lat="42.0882229" lon="11.7964016"><ele>4.5</ele><time>2026-04-18T13:30:58.079Z</time></trkpt><trkpt lat="42.0881859" lon="11.7964808"><ele>3.666666666666667</ele><time>2026-04-18T13:31:07.086Z</time></trkpt><trkpt lat="42.0881515" lon="11.7965903"><ele>2.833333333333333</ele><time>2026-04-18T13:31:09.072Z</time></trkpt><trkpt lat="42.0881082" lon="11.7966565"><ele>2.0</ele><time>2026-04-18T13:31:58.094Z</time></trkpt><trkpt lat="42.0881134" lon="11.7967819"><ele>2.6</ele><time>2026-04-18T13:32:01.092Z</time></trkpt><trkpt lat="42.0881345" lon="11.7968732"><ele>3.2</ele><time>2026-04-18T13:32:04.079Z</time></trkpt><trkpt lat="42.0882048" lon="11.7969028"><ele>3.8</ele><time>2026-04-18T13:32:07.072Z</time></trkpt><trkpt lat="42.0883035" lon="11.7967956"><ele>4.4</ele><time>2026-04-18T13:32:09.079Z</time></trkpt><trkpt lat="42.088352" lon="11.7966939"><ele>5.0</ele><time>2026-04-18T13:32:10.072Z</time></trkpt><trkpt lat="42.0884092" lon="11.7965682"><ele>5.0</ele><time>2026-04-18T13:32:11.06Z</time></trkpt><trkpt lat="42.0884709" lon="11.796431"><ele>5.0</ele><time>2026-04-18T13:32:12.09Z</time></trkpt><trkpt lat="42.0885349" lon="11.7962887"><ele>5.0</ele><time>2026-04-18T13:32:13.083Z</time></trkpt><trkpt lat="42.0886012" lon="11.7961428"><ele>5.0</ele><time>2026-04-18T13:32:14.074Z</time></trkpt><trkpt lat="42.0886661" lon="11.7960016"><ele>4.5</ele><time>2026-04-18T13:32:15.062Z</time></trkpt><trkpt lat="42.0887296" lon="11.7958732"><ele>4.0</ele><time>2026-04-18T13:32:16.062Z</time></trkpt><trkpt lat="42.0887913" lon="11.7957456"><ele>3.5</ele><time>2026-04-18T13:32:17.069Z</time></trkpt><trkpt lat="42.0888554" lon="11.7956118"><ele>3.0</ele><time>2026-04-18T13:32:18.07Z</time></trkpt><trkpt lat="42.0889202" lon="11.7954779"><ele>3.0</ele><time>2026-04-18T13:32:19.063Z</time></trkpt><trkpt lat="42.0889859" lon="11.7953438"><ele>3.0</ele><time>2026-04-18T13:32:20.065Z</time></trkpt><trkpt lat="42.089052" lon="11.7952069"><ele>3.0</ele><time>2026-04-18T13:32:21.073Z</time></trkpt><trkpt lat="42.0891172" lon="11.7950732"><ele>3.0</ele><time>2026-04-18T13:32:22.075Z</time></trkpt><trkpt lat="42.0891791" lon="11.7949414"><ele>3.8</ele><time>2026-04-18T13:32:23.067Z</time></trkpt><trkpt lat="42.0892378" lon="11.794817"><ele>4.6</ele><time>2026-04-18T13:32:24.065Z</time></trkpt><trkpt lat="42.0892929" lon="11.7947033"><ele>5.3999999999999995</ele><time>2026-04-18T13:32:25.062Z</time></trkpt><trkpt lat="42.089347" lon="11.7945909"><ele>6.199999999999999</ele><time>2026-04-18T13:32:26.063Z</time></trkpt><trkpt lat="42.0894008" lon="11.7944761"><ele>7.0</ele><time>2026-04-18T13:32:27.067Z</time></trkpt><trkpt lat="42.0894534" lon="11.7943626"><ele>6.333333333333334</ele><time>2026-04-18T13:32:28.061Z</time></trkpt><trkpt lat="42.0895025" lon="11.7942651"><ele>5.666666666666667</ele><time>2026-04-18T13:32:29.066Z</time></trkpt><trkpt lat="42.0895473" lon="11.7941701"><ele>5.0</ele><time>2026-04-18T13:32:30.069Z</time></trkpt><trkpt lat="42.08959" lon="11.7940769"><ele>4.333333333333334</ele><time>2026-04-18T13:32:31.061Z</time></trkpt><trkpt lat="42.0896317" lon="11.7939863"><ele>3.666666666666667</ele><time>2026-04-18T13:32:32.074Z</time></trkpt><trkpt lat="42.089671" lon="11.7938985"><ele>3.0</ele><time>2026-04-18T13:32:33.061Z</time></trkpt><trkpt lat="42.0897094" lon="11.793812"><ele>3.0</ele><time>2026-04-18T13:32:34.069Z</time></trkpt><trkpt lat="42.0897484" lon="11.7937218"><ele>3.0</ele><time>2026-04-18T13:32:35.066Z</time></trkpt><trkpt lat="42.0897887" lon="11.793635"><ele>3.0</ele><time>2026-04-18T13:32:36.072Z</time></trkpt><trkpt lat="42.089823" lon="11.7935543"><ele>3.0</ele><time>2026-04-18T13:32:37.074Z</time></trkpt><trkpt lat="42.0898546" lon="11.7934752"><ele>3.0</ele><time>2026-04-18T13:32:38.07Z</time></trkpt><trkpt lat="42.0899158" lon="11.7933356"><ele>3.0</ele><time>2026-04-18T13:32:40.063Z</time></trkpt><trkpt lat="42.0899936" lon="11.7932067"><ele>3.5999999999999996</ele><time>2026-04-18T13:32:42.066Z</time></trkpt><trkpt lat="42.0900657" lon="11.7930752"><ele>4.199999999999999</ele><time>2026-04-18T13:32:44.065Z</time></trkpt><trkpt lat="42.0901331" lon="11.7929352"><ele>4.8</ele><time>2026-04-18T13:32:46.058Z</time></trkpt><trkpt lat="42.0902027" lon="11.7927907"><ele>5.3999999999999995</ele><time>2026-04-18T13:32:48.07Z</time></trkpt><trkpt lat="42.0902386" lon="11.7927141"><ele>6.0</ele><time>2026-04-18T13:32:49.061Z</time></trkpt><trkpt lat="42.0902754" lon="11.7926388"><ele>6.0</ele><time>2026-04-18T13:32:50.065Z</time></trkpt><trkpt lat="42.0903123" lon="11.7925645"><ele>6.0</ele><time>2026-04-18T13:32:51.066Z</time></trkpt><trkpt lat="42.0903915" lon="11.792454"><ele>6.0</ele><time>2026-04-18T13:32:53.076Z</time></trkpt><trkpt lat="42.0904778" lon="11.7923981"><ele>6.0</ele><time>2026-04-18T13:32:55.072Z</time></trkpt><trkpt lat="42.0905861" lon="11.7923758"><ele>6.0</ele><time>2026-04-18T13:32:57.071Z</time></trkpt><trkpt lat="42.0907059" lon="11.7924231"><ele>7.0</ele><time>2026-04-18T13:32:59.061Z</time></trkpt><trkpt lat="42.0907645" lon="11.7924812"><ele>8.0</ele><time>2026-04-18T13:33:00.068Z</time></trkpt><trkpt lat="42.0908155" lon="11.7925388"><ele>9.0</ele><time>2026-04-18T13:33:01.069Z</time></trkpt><trkpt lat="42.0908905" lon="11.7926389"><ele>10.0</ele><time>2026-04-18T13:33:03.062Z</time></trkpt><trkpt lat="42.0909522" lon="11.792716"><ele>11.0</ele><time>2026-04-18T13:33:05.07Z</time></trkpt><trkpt lat="42.0910148" lon="11.7927665"><ele>12.0</ele><time>2026-04-18T13:33:07.072Z</time></trkpt><trkpt lat="42.0911153" lon="11.7927664"><ele>12.0</ele><time>2026-04-18T13:33:09.059Z</time></trkpt><trkpt lat="42.0911755" lon="11.7927362"><ele>12.0</ele><time>2026-04-18T13:33:10.058Z</time></trkpt><trkpt lat="42.0912411" lon="11.7927026"><ele>12.0</ele><time>2026-04-18T13:33:11.066Z</time></trkpt><trkpt lat="42.0913122" lon="11.7926534"><ele>12.0</ele><time>2026-04-18T13:33:12.06Z</time></trkpt><trkpt lat="42.0913833" lon="11.7925934"><ele>12.0</ele><time>2026-04-18T13:33:13.064Z</time></trkpt><trkpt lat="42.0914584" lon="11.7925305"><ele>12.0</ele><time>2026-04-18T13:33:14.062Z</time></trkpt><trkpt lat="42.09153" lon="11.7924718"><ele>12.5</ele><time>2026-04-18T13:33:15.059Z</time></trkpt><trkpt lat="42.0916011" lon="11.7924183"><ele>13.0</ele><time>2026-04-18T13:33:16.065Z</time></trkpt><trkpt lat="42.0916699" lon="11.7923612"><ele>13.5</ele><time>2026-04-18T13:33:17.064Z</time></trkpt><trkpt lat="42.0917412" lon="11.7923009"><ele>14.0</ele><time>2026-04-18T13:33:18.057Z</time></trkpt><trkpt lat="42.0918166" lon="11.7922348"><ele>14.5</ele><time>2026-04-18T13:33:19.061Z</time></trkpt><trkpt lat="42.0918993" lon="11.7921653"><ele>15.0</ele><time>2026-04-18T13:33:20.062Z</time></trkpt><trkpt lat="42.0919828" lon="11.7920928"><ele>15.0</ele><time>2026-04-18T13:33:21.065Z</time></trkpt><trkpt lat="42.0920746" lon="11.792019"><ele>15.0</ele><time>2026-04-18T13:33:22.063Z</time></trkpt><trkpt lat="42.0921587" lon="11.7919419"><ele>15.0</ele><time>2026-04-18T13:33:23.06Z</time></trkpt><trkpt lat="42.092245" lon="11.7918649"><ele>15.0</ele><time>2026-04-18T13:33:24.062Z</time></trkpt><trkpt lat="42.0923341" lon="11.7917845"><ele>15.0</ele><time>2026-04-18T13:33:25.058Z</time></trkpt><trkpt lat="42.0924227" lon="11.791702"><ele>15.4</ele><time>2026-04-18T13:33:26.069Z</time></trkpt><trkpt lat="42.0925133" lon="11.7916161"><ele>15.8</ele><time>2026-04-18T13:33:27.066Z</time></trkpt><trkpt lat="42.0926042" lon="11.7915298"><ele>16.2</ele><time>2026-04-18T13:33:28.064Z</time></trkpt><trkpt lat="42.0926943" lon="11.7914405"><ele>16.6</ele><time>2026-04-18T13:33:29.06Z</time></trkpt><trkpt lat="42.0927877" lon="11.7913588"><ele>17.0</ele><time>2026-04-18T13:33:30.073Z</time></trkpt><trkpt lat="42.0928828" lon="11.7912683"><ele>17.0</ele><time>2026-04-18T13:33:31.064Z</time></trkpt><trkpt lat="42.0929757" lon="11.7911843"><ele>17.0</ele><time>2026-04-18T13:33:32.069Z</time></trkpt><trkpt lat="42.0930648" lon="11.7911017"><ele>17.0</ele><time>2026-04-18T13:33:33.055Z</time></trkpt><trkpt lat="42.0931567" lon="11.7910245"><ele>17.0</ele><time>2026-04-18T13:33:34.061Z</time></trkpt><trkpt lat="42.0932587" lon="11.7909585"><ele>17.0</ele><time>2026-04-18T13:33:35.056Z</time></trkpt><trkpt lat="42.0933596" lon="11.7908959"><ele>17.5</ele><time>2026-04-18T13:33:36.064Z</time></trkpt><trkpt lat="42.0934659" lon="11.7908284"><ele>18.0</ele><time>2026-04-18T13:33:37.06Z</time></trkpt><trkpt lat="42.0935764" lon="11.7907584"><ele>18.5</ele><time>2026-04-18T13:33:38.058Z</time></trkpt><trkpt lat="42.0936944" lon="11.7906912"><ele>19.0</ele><time>2026-04-18T13:33:39.059Z</time></trkpt><trkpt lat="42.0938088" lon="11.7906218"><ele>19.0</ele><time>2026-04-18T13:33:40.062Z</time></trkpt><trkpt lat="42.0939219" lon="11.7905515"><ele>19.0</ele><time>2026-04-18T13:33:41.062Z</time></trkpt><trkpt lat="42.0940271" lon="11.7904797"><ele>19.0</ele><time>2026-04-18T13:33:42.061Z</time></trkpt><trkpt lat="42.0941343" lon="11.7903995"><ele>19.0</ele><time>2026-04-18T13:33:43.065Z</time></trkpt><trkpt lat="42.0942439" lon="11.7903195"><ele>18.2</ele><time>2026-04-18T13:33:44.063Z</time></trkpt><trkpt lat="42.0943461" lon="11.790249"><ele>17.4</ele><time>2026-04-18T13:33:45.058Z</time></trkpt><trkpt lat="42.0944346" lon="11.7901805"><ele>16.6</ele><time>2026-04-18T13:33:46.075Z</time></trkpt><trkpt lat="42.0945169" lon="11.7901111"><ele>15.8</ele><time>2026-04-18T13:33:47.066Z</time></trkpt><trkpt lat="42.0945974" lon="11.7900532"><ele>15.0</ele><time>2026-04-18T13:33:48.066Z</time></trkpt><trkpt lat="42.0946758" lon="11.7899943"><ele>14.166666666666666</ele><time>2026-04-18T13:33:49.067Z</time></trkpt><trkpt lat="42.0947578" lon="11.7899443"><ele>13.333333333333334</ele><time>2026-04-18T13:33:50.075Z</time></trkpt><trkpt lat="42.0948352" lon="11.7899036"><ele>12.5</ele><time>2026-04-18T13:33:51.077Z</time></trkpt><trkpt lat="42.0949091" lon="11.7898685"><ele>11.666666666666668</ele><time>2026-04-18T13:33:52.063Z</time></trkpt><trkpt lat="42.0949738" lon="11.7898554"><ele>10.833333333333334</ele><time>2026-04-18T13:33:53.058Z</time></trkpt><trkpt lat="42.0950724" lon="11.7898366"><ele>10.0</ele><time>2026-04-18T13:33:55.06Z</time></trkpt><trkpt lat="42.0951584" lon="11.7898204"><ele>10.0</ele><time>2026-04-18T13:33:57.063Z</time></trkpt><trkpt lat="42.0952381" lon="11.7897989"><ele>10.0</ele><time>2026-04-18T13:33:59.059Z</time></trkpt><trkpt lat="42.0953226" lon="11.7897767"><ele>10.0</ele><time>2026-04-18T13:34:01.069Z</time></trkpt><trkpt lat="42.0954321" lon="11.7897623"><ele>10.0</ele><time>2026-04-18T13:34:03.062Z</time></trkpt><trkpt lat="42.095546" lon="11.7897478"><ele>10.0</ele><time>2026-04-18T13:34:05.064Z</time></trkpt><trkpt lat="42.0956712" lon="11.789718"><ele>10.0</ele><time>2026-04-18T13:34:07.053Z</time></trkpt><trkpt lat="42.0957528" lon="11.7897105"><ele>10.0</ele><time>2026-04-18T13:34:08.057Z</time></trkpt><trkpt lat="42.0958295" lon="11.7896912"><ele>10.0</ele><time>2026-04-18T13:34:09.056Z</time></trkpt><trkpt lat="42.0959139" lon="11.7896621"><ele>10.0</ele><time>2026-04-18T13:34:10.059Z</time></trkpt><trkpt lat="42.0959954" lon="11.789631"><ele>10.0</ele><time>2026-04-18T13:34:11.062Z</time></trkpt><trkpt lat="42.0960714" lon="11.7896085"><ele>10.0</ele><time>2026-04-18T13:34:12.058Z</time></trkpt><trkpt lat="42.0961582" lon="11.7895783"><ele>10.0</ele><time>2026-04-18T13:34:13.063Z</time></trkpt><trkpt lat="42.0962498" lon="11.7895483"><ele>10.0</ele><time>2026-04-18T13:34:14.063Z</time></trkpt><trkpt lat="42.0963367" lon="11.7895214"><ele>10.0</ele><time>2026-04-18T13:34:15.053Z</time></trkpt><trkpt lat="42.0964208" lon="11.7894884"><ele>10.0</ele><time>2026-04-18T13:34:16.057Z</time></trkpt><trkpt lat="42.0965076" lon="11.7894607"><ele>10.0</ele><time>2026-04-18T13:34:17.062Z</time></trkpt><trkpt lat="42.0965907" lon="11.7894401"><ele>10.0</ele><time>2026-04-18T13:34:18.071Z</time></trkpt><trkpt lat="42.0966642" lon="11.7894177"><ele>9.4</ele><time>2026-04-18T13:34:19.063Z</time></trkpt><trkpt lat="42.0967697" lon="11.7894266"><ele>8.8</ele><time>2026-04-18T13:34:21.063Z</time></trkpt><trkpt lat="42.0968768" lon="11.7894527"><ele>8.2</ele><time>2026-04-18T13:34:23.067Z</time></trkpt><trkpt lat="42.096992" lon="11.7893743"><ele>7.6</ele><time>2026-04-18T13:34:25.069Z</time></trkpt><trkpt lat="42.0970517" lon="11.7893181"><ele>7.0</ele><time>2026-04-18T13:34:26.068Z</time></trkpt><trkpt lat="42.0971393" lon="11.7892712"><ele>7.0</ele><time>2026-04-18T13:34:27.078Z</time></trkpt><trkpt lat="42.097237" lon="11.789214"><ele>7.0</ele><time>2026-04-18T13:34:28.064Z</time></trkpt><trkpt lat="42.097348" lon="11.789166"><ele>7.0</ele><time>2026-04-18T13:34:29.079Z</time></trkpt><trkpt lat="42.0974661" lon="11.7891146"><ele>7.0</ele><time>2026-04-18T13:34:30.068Z</time></trkpt><trkpt lat="42.0975896" lon="11.7890614"><ele>7.0</ele><time>2026-04-18T13:34:31.063Z</time></trkpt><trkpt lat="42.0977118" lon="11.7890105"><ele>7.0</ele><time>2026-04-18T13:34:32.065Z</time></trkpt><trkpt lat="42.0978344" lon="11.788955"><ele>7.0</ele><time>2026-04-18T13:34:33.06Z</time></trkpt><trkpt lat="42.0979485" lon="11.7889002"><ele>7.0</ele><time>2026-04-18T13:34:34.071Z</time></trkpt><trkpt lat="42.0980651" lon="11.7888449"><ele>7.0</ele><time>2026-04-18T13:34:35.078Z</time></trkpt><trkpt lat="42.0981808" lon="11.7887901"><ele>7.0</ele><time>2026-04-18T13:34:36.067Z</time></trkpt><trkpt lat="42.0982926" lon="11.7887351"><ele>7.0</ele><time>2026-04-18T13:34:37.063Z</time></trkpt><trkpt lat="42.098402" lon="11.7886845"><ele>7.0</ele><time>2026-04-18T13:34:38.077Z</time></trkpt><trkpt lat="42.0985114" lon="11.7886368"><ele>7.0</ele><time>2026-04-18T13:34:39.065Z</time></trkpt><trkpt lat="42.0986191" lon="11.7885899"><ele>6.999999999999999</ele><time>2026-04-18T13:34:40.066Z</time></trkpt><trkpt lat="42.0987227" lon="11.7885298"><ele>6.999999999999999</ele><time>2026-04-18T13:34:41.074Z</time></trkpt><trkpt lat="42.0988131" lon="11.7884611"><ele>7.0</ele><time>2026-04-18T13:34:42.067Z</time></trkpt><trkpt lat="42.0989034" lon="11.788388"><ele>7.0</ele><time>2026-04-18T13:34:43.072Z</time></trkpt><trkpt lat="42.0989866" lon="11.7882981"><ele>6.6</ele><time>2026-04-18T13:34:44.073Z</time></trkpt><trkpt lat="42.0990738" lon="11.788204"><ele>6.199999999999999</ele><time>2026-04-18T13:34:45.07Z</time></trkpt><trkpt lat="42.0991598" lon="11.7881091"><ele>5.8</ele><time>2026-04-18T13:34:46.069Z</time></trkpt><trkpt lat="42.0992446" lon="11.788013"><ele>5.4</ele><time>2026-04-18T13:34:47.065Z</time></trkpt><trkpt lat="42.0993335" lon="11.7879193"><ele>5.0</ele><time>2026-04-18T13:34:48.071Z</time></trkpt><trkpt lat="42.0994259" lon="11.7878236"><ele>6.0</ele><time>2026-04-18T13:34:49.072Z</time></trkpt><trkpt lat="42.0995163" lon="11.7877263"><ele>7.0</ele><time>2026-04-18T13:34:50.069Z</time></trkpt><trkpt lat="42.0996073" lon="11.7876293"><ele>8.0</ele><time>2026-04-18T13:34:51.065Z</time></trkpt><trkpt lat="42.0996944" lon="11.7875395"><ele>9.0</ele><time>2026-04-18T13:34:52.068Z</time></trkpt><trkpt lat="42.0997676" lon="11.7874633"><ele>10.0</ele><time>2026-04-18T13:34:53.071Z</time></trkpt><trkpt lat="42.0998298" lon="11.7873972"><ele>10.0</ele><time>2026-04-18T13:34:54.067Z</time></trkpt><trkpt lat="42.0998879" lon="11.7873368"><ele>10.0</ele><time>2026-04-18T13:34:55.071Z</time></trkpt><trkpt lat="42.0999432" lon="11.7872822"><ele>10.0</ele><time>2026-04-18T13:34:56.076Z</time></trkpt><trkpt lat="42.0999973" lon="11.7872243"><ele>10.0</ele><time>2026-04-18T13:34:57.057Z</time></trkpt><trkpt lat="42.1000574" lon="11.7871595"><ele>10.0</ele><time>2026-04-18T13:34:58.059Z</time></trkpt><trkpt lat="42.1001264" lon="11.787086"><ele>10.0</ele><time>2026-04-18T13:34:59.058Z</time></trkpt><trkpt lat="42.1001981" lon="11.787013"><ele>10.0</ele><time>2026-04-18T13:35:00.07Z</time></trkpt><trkpt lat="42.1002678" lon="11.786942"><ele>10.0</ele><time>2026-04-18T13:35:01.069Z</time></trkpt><trkpt lat="42.1003429" lon="11.7868708"><ele>10.0</ele><time>2026-04-18T13:35:02.074Z</time></trkpt><trkpt lat="42.1004274" lon="11.7867928"><ele>10.0</ele><time>2026-04-18T13:35:03.072Z</time></trkpt><trkpt lat="42.1005221" lon="11.7867212"><ele>10.0</ele><time>2026-04-18T13:35:04.067Z</time></trkpt><trkpt lat="42.1006216" lon="11.7866629"><ele>10.0</ele><time>2026-04-18T13:35:05.066Z</time></trkpt><trkpt lat="42.1007304" lon="11.7866187"><ele>10.0</ele><time>2026-04-18T13:35:06.061Z</time></trkpt><trkpt lat="42.1008474" lon="11.7865826"><ele>10.0</ele><time>2026-04-18T13:35:07.056Z</time></trkpt><trkpt lat="42.1009685" lon="11.786549"><ele>10.0</ele><time>2026-04-18T13:35:08.072Z</time></trkpt><trkpt lat="42.1010933" lon="11.7865178"><ele>9.75</ele><time>2026-04-18T13:35:09.069Z</time></trkpt><trkpt lat="42.1012207" lon="11.7864951"><ele>9.5</ele><time>2026-04-18T13:35:10.068Z</time></trkpt><trkpt lat="42.1013509" lon="11.7864855"><ele>9.25</ele><time>2026-04-18T13:35:11.071Z</time></trkpt><trkpt lat="42.1014822" lon="11.78648"><ele>9.0</ele><time>2026-04-18T13:35:12.066Z</time></trkpt><trkpt lat="42.1016169" lon="11.7864812"><ele>9.0</ele><time>2026-04-18T13:35:13.066Z</time></trkpt><trkpt lat="42.1017512" lon="11.7864847"><ele>9.0</ele><time>2026-04-18T13:35:14.071Z</time></trkpt><trkpt lat="42.1018861" lon="11.7864897"><ele>9.0</ele><time>2026-04-18T13:35:15.063Z</time></trkpt><trkpt lat="42.1020252" lon="11.7864936"><ele>9.0</ele><time>2026-04-18T13:35:16.068Z</time></trkpt><trkpt lat="42.1021675" lon="11.7864997"><ele>9.0</ele><time>2026-04-18T13:35:17.066Z</time></trkpt><trkpt lat="42.1023081" lon="11.786509"><ele>9.0</ele><time>2026-04-18T13:35:18.061Z</time></trkpt><trkpt lat="42.1024489" lon="11.7865172"><ele>9.0</ele><time>2026-04-18T13:35:19.062Z</time></trkpt><trkpt lat="42.1025892" lon="11.7865235"><ele>9.0</ele><time>2026-04-18T13:35:20.072Z</time></trkpt><trkpt lat="42.1027262" lon="11.786528"><ele>8.25</ele><time>2026-04-18T13:35:21.066Z</time></trkpt><trkpt lat="42.1028584" lon="11.7865333"><ele>7.5</ele><time>2026-04-18T13:35:22.059Z</time></trkpt><trkpt lat="42.1029846" lon="11.7865392"><ele>6.75</ele><time>2026-04-18T13:35:23.064Z</time></trkpt><trkpt lat="42.1031103" lon="11.7865389"><ele>6.0</ele><time>2026-04-18T13:35:24.065Z</time></trkpt><trkpt lat="42.1032379" lon="11.7865307"><ele>6.25</ele><time>2026-04-18T13:35:25.064Z</time></trkpt><trkpt lat="42.1033642" lon="11.7865102"><ele>6.5</ele><time>2026-04-18T13:35:26.066Z</time></trkpt><trkpt lat="42.1034821" lon="11.7864763"><ele>6.75</ele><time>2026-04-18T13:35:27.08Z</time></trkpt><trkpt lat="42.1035949" lon="11.7864297"><ele>7.0</ele><time>2026-04-18T13:35:28.065Z</time></trkpt><trkpt lat="42.1037035" lon="11.7863682"><ele>7.0</ele><time>2026-04-18T13:35:29.069Z</time></trkpt><trkpt lat="42.1038037" lon="11.7862944"><ele>6.999999999999999</ele><time>2026-04-18T13:35:30.061Z</time></trkpt><trkpt lat="42.1038962" lon="11.7862157"><ele>6.999999999999999</ele><time>2026-04-18T13:35:31.072Z</time></trkpt><trkpt lat="42.103982" lon="11.7861348"><ele>7.0</ele><time>2026-04-18T13:35:32.069Z</time></trkpt><trkpt lat="42.1040624" lon="11.7860582"><ele>7.0</ele><time>2026-04-18T13:35:33.067Z</time></trkpt><trkpt lat="42.1041327" lon="11.7859873"><ele>6.8</ele><time>2026-04-18T13:35:34.059Z</time></trkpt><trkpt lat="42.1041991" lon="11.7859197"><ele>6.6</ele><time>2026-04-18T13:35:35.071Z</time></trkpt><trkpt lat="42.1042557" lon="11.7858627"><ele>6.3999999999999995</ele><time>2026-04-18T13:35:36.062Z</time></trkpt><trkpt lat="42.1043365" lon="11.7858132"><ele>6.199999999999999</ele><time>2026-04-18T13:35:38.072Z</time></trkpt><trkpt lat="42.1043025" lon="11.7859577"><ele>6.0</ele><time>2026-04-18T13:35:40.063Z</time></trkpt><trkpt lat="42.1042061" lon="11.7860692"><ele>6.333333333333333</ele><time>2026-04-18T13:35:42.067Z</time></trkpt><trkpt lat="42.1041495" lon="11.7861286"><ele>6.666666666666666</ele><time>2026-04-18T13:35:44.065Z</time></trkpt><trkpt lat="42.1041468" lon="11.7862135"><ele>7.0</ele><time>2026-04-18T13:35:45.056Z</time></trkpt><trkpt lat="42.1041362" lon="11.7863244"><ele>7.333333333333333</ele><time>2026-04-18T13:35:46.068Z</time></trkpt><trkpt lat="42.1041657" lon="11.7864427"><ele>7.666666666666666</ele><time>2026-04-18T13:35:47.065Z</time></trkpt><trkpt lat="42.1042083" lon="11.7865225"><ele>8.0</ele><time>2026-04-18T13:35:48.072Z</time></trkpt><trkpt lat="42.1043026" lon="11.7865979"><ele>8.0</ele><time>2026-04-18T13:35:50.071Z</time></trkpt><trkpt lat="42.1044331" lon="11.7865022"><ele>8.0</ele><time>2026-04-18T13:35:52.063Z</time></trkpt><trkpt lat="42.1044994" lon="11.786423"><ele>8.0</ele><time>2026-04-18T13:35:53.062Z</time></trkpt><trkpt lat="42.104587" lon="11.7863359"><ele>8.0</ele><time>2026-04-18T13:35:54.061Z</time></trkpt><trkpt lat="42.1046746" lon="11.786226"><ele>8.0</ele><time>2026-04-18T13:35:55.068Z</time></trkpt><trkpt lat="42.1047691" lon="11.786109"><ele>8.0</ele><time>2026-04-18T13:35:56.071Z</time></trkpt><trkpt lat="42.1048681" lon="11.7859753"><ele>8.0</ele><time>2026-04-18T13:35:57.069Z</time></trkpt><trkpt lat="42.1049795" lon="11.785834"><ele>8.0</ele><time>2026-04-18T13:35:58.069Z</time></trkpt><trkpt lat="42.1050921" lon="11.7856922"><ele>8.0</ele><time>2026-04-18T13:35:59.062Z</time></trkpt><trkpt lat="42.1052007" lon="11.7855395"><ele>8.0</ele><time>2026-04-18T13:36:00.066Z</time></trkpt><trkpt lat="42.105315" lon="11.7853814"><ele>8.0</ele><time>2026-04-18T13:36:01.065Z</time></trkpt><trkpt lat="42.1054293" lon="11.7852186"><ele>7.666666666666666</ele><time>2026-04-18T13:36:02.061Z</time></trkpt><trkpt lat="42.1055419" lon="11.7850536"><ele>7.333333333333334</ele><time>2026-04-18T13:36:03.063Z</time></trkpt><trkpt lat="42.1056526" lon="11.7848874"><ele>7.0</ele><time>2026-04-18T13:36:04.078Z</time></trkpt><trkpt lat="42.1057629" lon="11.7847221"><ele>7.0</ele><time>2026-04-18T13:36:05.067Z</time></trkpt><trkpt lat="42.1058718" lon="11.7845557"><ele>7.0</ele><time>2026-04-18T13:36:06.082Z</time></trkpt><trkpt lat="42.1059794" lon="11.7843896"><ele>7.0</ele><time>2026-04-18T13:36:07.068Z</time></trkpt><trkpt lat="42.1060881" lon="11.7842207"><ele>6.333333333333334</ele><time>2026-04-18T13:36:08.068Z</time></trkpt><trkpt lat="42.1061981" lon="11.7840551"><ele>5.666666666666667</ele><time>2026-04-18T13:36:09.059Z</time></trkpt><trkpt lat="42.1063079" lon="11.7838881"><ele>5.0</ele><time>2026-04-18T13:36:10.073Z</time></trkpt><trkpt lat="42.1064187" lon="11.7837193"><ele>5.0</ele><time>2026-04-18T13:36:11.074Z</time></trkpt><trkpt lat="42.1065341" lon="11.7835494"><ele>5.0</ele><time>2026-04-18T13:36:12.066Z</time></trkpt><trkpt lat="42.1066506" lon="11.7833793"><ele>5.0</ele><time>2026-04-18T13:36:13.07Z</time></trkpt><trkpt lat="42.1067668" lon="11.7832073"><ele>5.333333333333334</ele><time>2026-04-18T13:36:14.063Z</time></trkpt><trkpt lat="42.1068814" lon="11.7830338"><ele>5.666666666666667</ele><time>2026-04-18T13:36:15.073Z</time></trkpt><trkpt lat="42.106996" lon="11.782863"><ele>6.0</ele><time>2026-04-18T13:36:16.066Z</time></trkpt><trkpt lat="42.1071089" lon="11.7826956"><ele>5.666666666666667</ele><time>2026-04-18T13:36:17.068Z</time></trkpt><trkpt lat="42.1072201" lon="11.782529"><ele>5.333333333333334</ele><time>2026-04-18T13:36:18.069Z</time></trkpt><trkpt lat="42.1073241" lon="11.7823732"><ele>5.0</ele><time>2026-04-18T13:36:19.067Z</time></trkpt><trkpt lat="42.1074198" lon="11.7822317"><ele>4.8</ele><time>2026-04-18T13:36:20.068Z</time></trkpt><trkpt lat="42.1075041" lon="11.7821012"><ele>4.6</ele><time>2026-04-18T13:36:21.069Z</time></trkpt><trkpt lat="42.1075737" lon="11.7819917"><ele>4.4</ele><time>2026-04-18T13:36:22.066Z</time></trkpt><trkpt lat="42.1076343" lon="11.781907"><ele>4.2</ele><time>2026-04-18T13:36:23.068Z</time></trkpt><trkpt lat="42.1077129" lon="11.7818401"><ele>4.0</ele><time>2026-04-18T13:36:25.074Z</time></trkpt><trkpt lat="42.1077797" lon="11.7818926"><ele>3.833333333333333</ele><time>2026-04-18T13:36:28.079Z</time></trkpt><trkpt lat="42.1077434" lon="11.7819995"><ele>3.6666666666666665</ele><time>2026-04-18T13:36:31.07Z</time></trkpt><trkpt lat="42.1077127" lon="11.7820822"><ele>3.5</ele><time>2026-04-18T13:36:33.062Z</time></trkpt><trkpt lat="42.1076779" lon="11.7822118"><ele>3.333333333333333</ele><time>2026-04-18T13:36:38.071Z</time></trkpt><trkpt lat="42.1076769" lon="11.7823064"><ele>3.1666666666666665</ele><time>2026-04-18T13:36:41.067Z</time></trkpt><trkpt lat="42.1077591" lon="11.7823506"><ele>3.0</ele><time>2026-04-18T13:36:44.075Z</time></trkpt><trkpt lat="42.1078421" lon="11.7822811"><ele>2.9999999999999996</ele><time>2026-04-18T13:36:47.077Z</time></trkpt><trkpt lat="42.1078931" lon="11.7822002"><ele>3.0</ele><time>2026-04-18T13:36:49.071Z</time></trkpt><trkpt lat="42.1079422" lon="11.7821272"><ele>3.0</ele><time>2026-04-18T13:36:51.07Z</time></trkpt><trkpt lat="42.1079097" lon="11.7820506"><ele>3.0</ele><time>2026-04-18T13:39:08.081Z</time></trkpt><trkpt lat="42.1078371" lon="11.7820294"><ele>3.0</ele><time>2026-04-18T13:39:12.071Z</time></trkpt><trkpt lat="42.1077859" lon="11.7819696"><ele>2.9999999999999996</ele><time>2026-04-18T13:39:15.079Z</time></trkpt><trkpt lat="42.107765" lon="11.7818592"><ele>3.0</ele><time>2026-04-18T13:39:18.074Z</time></trkpt><trkpt lat="42.1077215" lon="11.7817972"><ele>3.0</ele><time>2026-04-18T13:40:00.07Z</time></trkpt><trkpt lat="42.1076449" lon="11.7818556"><ele>3.0</ele><time>2026-04-18T13:40:11.076Z</time></trkpt><trkpt lat="42.1075709" lon="11.781967"><ele>3.0</ele><time>2026-04-18T13:40:13.076Z</time></trkpt><trkpt lat="42.1075249" lon="11.7820344"><ele>3.0</ele><time>2026-04-18T13:40:14.076Z</time></trkpt><trkpt lat="42.1074711" lon="11.7821111"><ele>3.0</ele><time>2026-04-18T13:40:15.064Z</time></trkpt><trkpt lat="42.1074152" lon="11.7821973"><ele>3.0</ele><time>2026-04-18T13:40:16.07Z</time></trkpt><trkpt lat="42.1073495" lon="11.7822986"><ele>3.5</ele><time>2026-04-18T13:40:17.07Z</time></trkpt><trkpt lat="42.1072758" lon="11.7824105"><ele>4.0</ele><time>2026-04-18T13:40:18.066Z</time></trkpt><trkpt lat="42.1071983" lon="11.7825261"><ele>4.5</ele><time>2026-04-18T13:40:19.075Z</time></trkpt><trkpt lat="42.1071118" lon="11.7826515"><ele>5.0</ele><time>2026-04-18T13:40:20.07Z</time></trkpt><trkpt lat="42.1070179" lon="11.7827889"><ele>5.333333333333334</ele><time>2026-04-18T13:40:21.068Z</time></trkpt><trkpt lat="42.1069177" lon="11.7829389"><ele>5.666666666666667</ele><time>2026-04-18T13:40:22.074Z</time></trkpt><trkpt lat="42.1068156" lon="11.7830941"><ele>6.0</ele><time>2026-04-18T13:40:23.068Z</time></trkpt><trkpt lat="42.1067074" lon="11.7832578"><ele>6.0</ele><time>2026-04-18T13:40:24.068Z</time></trkpt><trkpt lat="42.1065951" lon="11.7834264"><ele>6.0</ele><time>2026-04-18T13:40:25.069Z</time></trkpt><trkpt lat="42.1064725" lon="11.7836061"><ele>6.0</ele><time>2026-04-18T13:40:26.064Z</time></trkpt><trkpt lat="42.1063481" lon="11.7837834"><ele>5.666666666666667</ele><time>2026-04-18T13:40:27.069Z</time></trkpt><trkpt lat="42.106221" lon="11.783966"><ele>5.333333333333334</ele><time>2026-04-18T13:40:28.07Z</time></trkpt><trkpt lat="42.1060955" lon="11.7841457"><ele>5.0</ele><time>2026-04-18T13:40:29.069Z</time></trkpt><trkpt lat="42.1059743" lon="11.7843385"><ele>5.666666666666667</ele><time>2026-04-18T13:40:30.081Z</time></trkpt><trkpt lat="42.1058421" lon="11.7845347"><ele>6.333333333333334</ele><time>2026-04-18T13:40:31.076Z</time></trkpt><trkpt lat="42.1057079" lon="11.7847298"><ele>7.0</ele><time>2026-04-18T13:40:32.067Z</time></trkpt><trkpt lat="42.1055767" lon="11.784928"><ele>7.0</ele><time>2026-04-18T13:40:33.072Z</time></trkpt><trkpt lat="42.1054418" lon="11.7851291"><ele>7.0</ele><time>2026-04-18T13:40:34.064Z</time></trkpt><trkpt lat="42.1053056" lon="11.7853294"><ele>7.0</ele><time>2026-04-18T13:40:35.059Z</time></trkpt><trkpt lat="42.1051725" lon="11.7855282"><ele>7.333333333333334</ele><time>2026-04-18T13:40:36.064Z</time></trkpt><trkpt lat="42.1050343" lon="11.7857206"><ele>7.666666666666666</ele><time>2026-04-18T13:40:37.072Z</time></trkpt><trkpt lat="42.104892" lon="11.7859087"><ele>8.0</ele><time>2026-04-18T13:40:38.072Z</time></trkpt><trkpt lat="42.1047572" lon="11.7860901"><ele>8.0</ele><time>2026-04-18T13:40:39.166Z</time></trkpt><trkpt lat="42.1046319" lon="11.7862562"><ele>8.0</ele><time>2026-04-18T13:40:40.08Z</time></trkpt><trkpt lat="42.1045172" lon="11.7864051"><ele>8.0</ele><time>2026-04-18T13:40:41.071Z</time></trkpt><trkpt lat="42.1044205" lon="11.7865261"><ele>8.0</ele><time>2026-04-18T13:40:42.066Z</time></trkpt><trkpt lat="42.1043348" lon="11.7866322"><ele>8.0</ele><time>2026-04-18T13:40:43.058Z</time></trkpt><trkpt lat="42.1042719" lon="11.7867048"><ele>8.0</ele><time>2026-04-18T13:40:44.059Z</time></trkpt><trkpt lat="42.1042142" lon="11.7867651"><ele>8.0</ele><time>2026-04-18T13:40:45.058Z</time></trkpt><trkpt lat="42.1041442" lon="11.7867284"><ele>8.0</ele><time>2026-04-18T13:40:48.068Z</time></trkpt><trkpt lat="42.1040802" lon="11.7865995"><ele>8.0</ele><time>2026-04-18T13:40:50.065Z</time></trkpt><trkpt lat="42.1040673" lon="11.7864953"><ele>8.0</ele><time>2026-04-18T13:40:51.068Z</time></trkpt><trkpt lat="42.1041008" lon="11.7863108"><ele>8.0</ele><time>2026-04-18T13:40:52.07Z</time></trkpt><trkpt lat="42.1042131" lon="11.7861964"><ele>8.0</ele><time>2026-04-18T13:40:53.06Z</time></trkpt><trkpt lat="42.1042523" lon="11.7860438"><ele>7.857142857142857</ele><time>2026-04-18T13:40:54.059Z</time></trkpt><trkpt lat="42.1042607" lon="11.7859557"><ele>7.7142857142857135</ele><time>2026-04-18T13:40:55.065Z</time></trkpt><trkpt lat="42.1042374" lon="11.7858742"><ele>7.571428571428571</ele><time>2026-04-18T13:40:57.07Z</time></trkpt><trkpt lat="42.1041661" lon="11.7858642"><ele>7.428571428571429</ele><time>2026-04-18T13:40:59.071Z</time></trkpt><trkpt lat="42.1041038" lon="11.7859021"><ele>7.285714285714286</ele><time>2026-04-18T13:41:00.074Z</time></trkpt><trkpt lat="42.1040374" lon="11.7859444"><ele>7.142857142857142</ele><time>2026-04-18T13:41:01.073Z</time></trkpt><trkpt lat="42.1039742" lon="11.7860168"><ele>7.0</ele><time>2026-04-18T13:41:02.063Z</time></trkpt><trkpt lat="42.1039055" lon="11.7861254"><ele>7.0</ele><time>2026-04-18T13:41:03.067Z</time></trkpt><trkpt lat="42.1038151" lon="11.7862082"><ele>7.0</ele><time>2026-04-18T13:41:04.072Z</time></trkpt><trkpt lat="42.103715" lon="11.7863034"><ele>7.0</ele><time>2026-04-18T13:41:05.07Z</time></trkpt><trkpt lat="42.103592" lon="11.786388"><ele>7.0</ele><time>2026-04-18T13:41:06.068Z</time></trkpt><trkpt lat="42.1034564" lon="11.7864402"><ele>7.0</ele><time>2026-04-18T13:41:07.078Z</time></trkpt><trkpt lat="42.1033032" lon="11.786461"><ele>7.0</ele><time>2026-04-18T13:41:08.07Z</time></trkpt><trkpt lat="42.1031534" lon="11.7864704"><ele>7.0</ele><time>2026-04-18T13:41:09.073Z</time></trkpt><trkpt lat="42.1030035" lon="11.7864721"><ele>6.666666666666667</ele><time>2026-04-18T13:41:10.063Z</time></trkpt><trkpt lat="42.1028529" lon="11.7864681"><ele>6.333333333333334</ele><time>2026-04-18T13:41:11.073Z</time></trkpt><trkpt lat="42.1027016" lon="11.7864633"><ele>6.0</ele><time>2026-04-18T13:41:12.07Z</time></trkpt><trkpt lat="42.1025524" lon="11.7864574"><ele>6.75</ele><time>2026-04-18T13:41:13.067Z</time></trkpt><trkpt lat="42.1024036" lon="11.7864524"><ele>7.5</ele><time>2026-04-18T13:41:14.065Z</time></trkpt><trkpt lat="42.1022536" lon="11.7864491"><ele>8.25</ele><time>2026-04-18T13:41:15.063Z</time></trkpt><trkpt lat="42.1021088" lon="11.7864396"><ele>9.0</ele><time>2026-04-18T13:41:16.063Z</time></trkpt><trkpt lat="42.1019686" lon="11.7864314"><ele>9.0</ele><time>2026-04-18T13:41:17.064Z</time></trkpt><trkpt lat="42.1018295" lon="11.7864285"><ele>9.0</ele><time>2026-04-18T13:41:18.07Z</time></trkpt><trkpt lat="42.1016915" lon="11.7864261"><ele>9.0</ele><time>2026-04-18T13:41:19.07Z</time></trkpt><trkpt lat="42.101553" lon="11.7864296"><ele>9.0</ele><time>2026-04-18T13:41:20.064Z</time></trkpt><trkpt lat="42.1014203" lon="11.7864393"><ele>8.5</ele><time>2026-04-18T13:41:21.066Z</time></trkpt><trkpt lat="42.1012873" lon="11.786453"><ele>8.0</ele><time>2026-04-18T13:41:22.071Z</time></trkpt><trkpt lat="42.1011606" lon="11.7864734"><ele>7.5</ele><time>2026-04-18T13:41:23.066Z</time></trkpt><trkpt lat="42.1010342" lon="11.7864907"><ele>7.0</ele><time>2026-04-18T13:41:24.059Z</time></trkpt><trkpt lat="42.1009249" lon="11.7865184"><ele>7.0</ele><time>2026-04-18T13:41:25.06Z</time></trkpt><trkpt lat="42.100822" lon="11.7865464"><ele>6.999999999999999</ele><time>2026-04-18T13:41:26.059Z</time></trkpt><trkpt lat="42.1007205" lon="11.7865753"><ele>6.999999999999999</ele><time>2026-04-18T13:41:27.06Z</time></trkpt><trkpt lat="42.1006174" lon="11.7866133"><ele>7.0</ele><time>2026-04-18T13:41:28.063Z</time></trkpt><trkpt lat="42.1005153" lon="11.786671"><ele>7.0</ele><time>2026-04-18T13:41:29.064Z</time></trkpt><trkpt lat="42.1004105" lon="11.786755"><ele>8.0</ele><time>2026-04-18T13:41:30.062Z</time></trkpt><trkpt lat="42.1003041" lon="11.7868589"><ele>9.0</ele><time>2026-04-18T13:41:31.06Z</time></trkpt><trkpt lat="42.1001941" lon="11.786974"><ele>10.0</ele><time>2026-04-18T13:41:32.059Z</time></trkpt><trkpt lat="42.1000804" lon="11.7870971"><ele>11.0</ele><time>2026-04-18T13:41:33.059Z</time></trkpt><trkpt lat="42.0999628" lon="11.7872225"><ele>10.666666666666666</ele><time>2026-04-18T13:41:34.06Z</time></trkpt><trkpt lat="42.0998373" lon="11.7873562"><ele>10.333333333333334</ele><time>2026-04-18T13:41:35.066Z</time></trkpt><trkpt lat="42.0997084" lon="11.7874893"><ele>10.0</ele><time>2026-04-18T13:41:36.06Z</time></trkpt><trkpt lat="42.0995919" lon="11.7876109"><ele>10.0</ele><time>2026-04-18T13:41:37.061Z</time></trkpt><trkpt lat="42.0994692" lon="11.7877123"><ele>10.0</ele><time>2026-04-18T13:41:38.059Z</time></trkpt><trkpt lat="42.0993624" lon="11.7878113"><ele>10.0</ele><time>2026-04-18T13:41:39.072Z</time></trkpt><trkpt lat="42.0992577" lon="11.7879156"><ele>10.0</ele><time>2026-04-18T13:41:40.075Z</time></trkpt><trkpt lat="42.0991579" lon="11.7880263"><ele>8.75</ele><time>2026-04-18T13:41:41.064Z</time></trkpt><trkpt lat="42.0990597" lon="11.7881345"><ele>7.5</ele><time>2026-04-18T13:41:42.056Z</time></trkpt><trkpt lat="42.0989684" lon="11.7882338"><ele>6.25</ele><time>2026-04-18T13:41:43.064Z</time></trkpt><trkpt lat="42.0988773" lon="11.7883291"><ele>5.0</ele><time>2026-04-18T13:41:44.061Z</time></trkpt><trkpt lat="42.09879" lon="11.7884233"><ele>5.0</ele><time>2026-04-18T13:41:45.058Z</time></trkpt><trkpt lat="42.0986962" lon="11.788508"><ele>5.0</ele><time>2026-04-18T13:41:46.06Z</time></trkpt><trkpt lat="42.0985909" lon="11.7885733"><ele>5.0</ele><time>2026-04-18T13:41:47.058Z</time></trkpt><trkpt lat="42.0984828" lon="11.7886245"><ele>5.0</ele><time>2026-04-18T13:41:48.058Z</time></trkpt><trkpt lat="42.098374" lon="11.7886707"><ele>5.5</ele><time>2026-04-18T13:41:49.06Z</time></trkpt><trkpt lat="42.0982661" lon="11.7887219"><ele>6.0</ele><time>2026-04-18T13:41:50.064Z</time></trkpt><trkpt lat="42.0981469" lon="11.7887792"><ele>6.5</ele><time>2026-04-18T13:41:51.059Z</time></trkpt><trkpt lat="42.0980165" lon="11.7888386"><ele>7.0</ele><time>2026-04-18T13:41:52.066Z</time></trkpt><trkpt lat="42.0978815" lon="11.7888943"><ele>7.0</ele><time>2026-04-18T13:41:53.059Z</time></trkpt><trkpt lat="42.0977415" lon="11.7889525"><ele>7.0</ele><time>2026-04-18T13:41:54.068Z</time></trkpt><trkpt lat="42.0975996" lon="11.7890145"><ele>7.0</ele><time>2026-04-18T13:41:55.07Z</time></trkpt><trkpt lat="42.0974591" lon="11.7890746"><ele>7.0</ele><time>2026-04-18T13:41:56.065Z</time></trkpt><trkpt lat="42.097325" lon="11.7891331"><ele>7.0</ele><time>2026-04-18T13:41:57.064Z</time></trkpt><trkpt lat="42.0971977" lon="11.7891888"><ele>7.0</ele><time>2026-04-18T13:41:58.062Z</time></trkpt><trkpt lat="42.097073" lon="11.7892479"><ele>7.0</ele><time>2026-04-18T13:41:59.064Z</time></trkpt><trkpt lat="42.0969493" lon="11.789307"><ele>7.0</ele><time>2026-04-18T13:42:00.061Z</time></trkpt><trkpt lat="42.0968238" lon="11.7893663"><ele>7.0</ele><time>2026-04-18T13:42:01.057Z</time></trkpt><trkpt lat="42.0966945" lon="11.7894218"><ele>7.0</ele><time>2026-04-18T13:42:02.064Z</time></trkpt><trkpt lat="42.096563" lon="11.789469"><ele>7.0</ele><time>2026-04-18T13:42:03.063Z</time></trkpt><trkpt lat="42.0964185" lon="11.7894824"><ele>7.0</ele><time>2026-04-18T13:42:04.064Z</time></trkpt><trkpt lat="42.0962689" lon="11.7895024"><ele>7.75</ele><time>2026-04-18T13:42:05.058Z</time></trkpt><trkpt lat="42.096127" lon="11.7895357"><ele>8.5</ele><time>2026-04-18T13:42:06.056Z</time></trkpt><trkpt lat="42.096005" lon="11.7895654"><ele>9.25</ele><time>2026-04-18T13:42:07.06Z</time></trkpt><trkpt lat="42.0958681" lon="11.7895845"><ele>10.0</ele><time>2026-04-18T13:42:08.058Z</time></trkpt><trkpt lat="42.095737" lon="11.7895915"><ele>10.0</ele><time>2026-04-18T13:42:09.053Z</time></trkpt><trkpt lat="42.0956163" lon="11.789618"><ele>10.0</ele><time>2026-04-18T13:42:10.06Z</time></trkpt><trkpt lat="42.0955111" lon="11.7896647"><ele>10.0</ele><time>2026-04-18T13:42:11.059Z</time></trkpt><trkpt lat="42.0954241" lon="11.7897214"><ele>10.0</ele><time>2026-04-18T13:42:12.067Z</time></trkpt><trkpt lat="42.0953125" lon="11.7897785"><ele>10.0</ele><time>2026-04-18T13:42:13.061Z</time></trkpt><trkpt lat="42.0952037" lon="11.7898104"><ele>10.0</ele><time>2026-04-18T13:42:14.062Z</time></trkpt><trkpt lat="42.0950996" lon="11.7898395"><ele>10.0</ele><time>2026-04-18T13:42:15.066Z</time></trkpt><trkpt lat="42.0950004" lon="11.7898621"><ele>10.0</ele><time>2026-04-18T13:42:16.063Z</time></trkpt><trkpt lat="42.0949168" lon="11.7898817"><ele>10.0</ele><time>2026-04-18T13:42:17.06Z</time></trkpt><trkpt lat="42.0948274" lon="11.7899238"><ele>10.0</ele><time>2026-04-18T13:42:18.057Z</time></trkpt><trkpt lat="42.0947347" lon="11.7899768"><ele>9.5</ele><time>2026-04-18T13:42:19.067Z</time></trkpt><trkpt lat="42.0946361" lon="11.7900437"><ele>9.0</ele><time>2026-04-18T13:42:20.063Z</time></trkpt><trkpt lat="42.0945246" lon="11.7901252"><ele>8.5</ele><time>2026-04-18T13:42:21.067Z</time></trkpt><trkpt lat="42.0944072" lon="11.7902052"><ele>8.0</ele><time>2026-04-18T13:42:22.067Z</time></trkpt><trkpt lat="42.0942908" lon="11.7902886"><ele>9.75</ele><time>2026-04-18T13:42:23.06Z</time></trkpt><trkpt lat="42.0941695" lon="11.7903792"><ele>11.5</ele><time>2026-04-18T13:42:24.067Z</time></trkpt><trkpt lat="42.0940403" lon="11.7904628"><ele>13.25</ele><time>2026-04-18T13:42:25.057Z</time></trkpt><trkpt lat="42.0938996" lon="11.7905514"><ele>15.0</ele><time>2026-04-18T13:42:26.057Z</time></trkpt><trkpt lat="42.093769" lon="11.7906334"><ele>16.0</ele><time>2026-04-18T13:42:27.054Z</time></trkpt><trkpt lat="42.0936311" lon="11.7907058"><ele>17.0</ele><time>2026-04-18T13:42:28.063Z</time></trkpt><trkpt lat="42.093506" lon="11.7907711"><ele>18.0</ele><time>2026-04-18T13:42:29.063Z</time></trkpt><trkpt lat="42.0933932" lon="11.7908225"><ele>19.0</ele><time>2026-04-18T13:42:30.057Z</time></trkpt><trkpt lat="42.0932971" lon="11.7908844"><ele>18.5</ele><time>2026-04-18T13:42:31.058Z</time></trkpt><trkpt lat="42.0932026" lon="11.7909526"><ele>18.0</ele><time>2026-04-18T13:42:32.058Z</time></trkpt><trkpt lat="42.0931041" lon="11.791026"><ele>17.5</ele><time>2026-04-18T13:42:33.061Z</time></trkpt><trkpt lat="42.0929892" lon="11.7910929"><ele>17.0</ele><time>2026-04-18T13:42:34.06Z</time></trkpt><trkpt lat="42.0928745" lon="11.7911486"><ele>17.0</ele><time>2026-04-18T13:42:35.063Z</time></trkpt><trkpt lat="42.0927658" lon="11.7912455"><ele>17.0</ele><time>2026-04-18T13:42:36.06Z</time></trkpt><trkpt lat="42.0926411" lon="11.7913458"><ele>17.0</ele><time>2026-04-18T13:42:37.062Z</time></trkpt><trkpt lat="42.0925388" lon="11.7914793"><ele>17.0</ele><time>2026-04-18T13:42:38.063Z</time></trkpt><trkpt lat="42.0924266" lon="11.7915746"><ele>16.5</ele><time>2026-04-18T13:42:39.064Z</time></trkpt><trkpt lat="42.0923076" lon="11.7916774"><ele>16.0</ele><time>2026-04-18T13:42:40.068Z</time></trkpt><trkpt lat="42.0921975" lon="11.7917639"><ele>15.5</ele><time>2026-04-18T13:42:41.067Z</time></trkpt><trkpt lat="42.092099" lon="11.7918678"><ele>15.0</ele><time>2026-04-18T13:42:42.062Z</time></trkpt><trkpt lat="42.0920071" lon="11.7919637"><ele>15.0</ele><time>2026-04-18T13:42:43.062Z</time></trkpt><trkpt lat="42.0919261" lon="11.7920442"><ele>15.0</ele><time>2026-04-18T13:42:44.062Z</time></trkpt><trkpt lat="42.0918577" lon="11.7921022"><ele>15.0</ele><time>2026-04-18T13:42:45.056Z</time></trkpt><trkpt lat="42.0917989" lon="11.792151"><ele>15.0</ele><time>2026-04-18T13:42:46.058Z</time></trkpt><trkpt lat="42.0917432" lon="11.7922059"><ele>15.0</ele><time>2026-04-18T13:42:47.063Z</time></trkpt><trkpt lat="42.0916831" lon="11.7922659"><ele>15.0</ele><time>2026-04-18T13:42:48.058Z</time></trkpt><trkpt lat="42.0916139" lon="11.7923339"><ele>14.5</ele><time>2026-04-18T13:42:49.067Z</time></trkpt><trkpt lat="42.0915327" lon="11.7924059"><ele>14.0</ele><time>2026-04-18T13:42:50.062Z</time></trkpt><trkpt lat="42.0914569" lon="11.7924737"><ele>13.5</ele><time>2026-04-18T13:42:51.059Z</time></trkpt><trkpt lat="42.0913862" lon="11.792527"><ele>13.0</ele><time>2026-04-18T13:42:52.064Z</time></trkpt><trkpt lat="42.0913159" lon="11.7925595"><ele>12.5</ele><time>2026-04-18T13:42:53.07Z</time></trkpt><trkpt lat="42.0912527" lon="11.7926055"><ele>12.0</ele><time>2026-04-18T13:42:54.066Z</time></trkpt><trkpt lat="42.0911854" lon="11.7926423"><ele>12.0</ele><time>2026-04-18T13:42:55.06Z</time></trkpt><trkpt lat="42.0911285" lon="11.7926891"><ele>12.0</ele><time>2026-04-18T13:42:56.067Z</time></trkpt><trkpt lat="42.091034" lon="11.7927463"><ele>12.0</ele><time>2026-04-18T13:42:58.059Z</time></trkpt><trkpt lat="42.0909443" lon="11.7927414"><ele>12.0</ele><time>2026-04-18T13:43:00.059Z</time></trkpt><trkpt lat="42.0908341" lon="11.7926323"><ele>12.0</ele><time>2026-04-18T13:43:02.058Z</time></trkpt><trkpt lat="42.0907769" lon="11.7925589"><ele>11.0</ele><time>2026-04-18T13:43:03.067Z</time></trkpt><trkpt lat="42.090729" lon="11.7924874"><ele>10.0</ele><time>2026-04-18T13:43:04.069Z</time></trkpt><trkpt lat="42.09068" lon="11.7924325"><ele>9.0</ele><time>2026-04-18T13:43:05.061Z</time></trkpt><trkpt lat="42.0905682" lon="11.7923242"><ele>8.0</ele><time>2026-04-18T13:43:07.063Z</time></trkpt><trkpt lat="42.0905178" lon="11.7922683"><ele>7.0</ele><time>2026-04-18T13:43:08.063Z</time></trkpt><trkpt lat="42.0904364" lon="11.7922451"><ele>6.0</ele><time>2026-04-18T13:43:10.068Z</time></trkpt><trkpt lat="42.0903778" lon="11.7923496"><ele>5.999999999999999</ele><time>2026-04-18T13:43:12.065Z</time></trkpt><trkpt lat="42.0903483" lon="11.7924332"><ele>6.0</ele><time>2026-04-18T13:43:13.06Z</time></trkpt><trkpt lat="42.0903087" lon="11.7925198"><ele>6.0</ele><time>2026-04-18T13:43:14.058Z</time></trkpt><trkpt lat="42.0902643" lon="11.7926034"><ele>6.0</ele><time>2026-04-18T13:43:15.062Z</time></trkpt><trkpt lat="42.09022" lon="11.7926922"><ele>6.0</ele><time>2026-04-18T13:43:16.067Z</time></trkpt><trkpt lat="42.0901824" lon="11.7927682"><ele>5.999999999999999</ele><time>2026-04-18T13:43:17.059Z</time></trkpt><trkpt lat="42.0901432" lon="11.7928425"><ele>6.0</ele><time>2026-04-18T13:43:18.061Z</time></trkpt><trkpt lat="42.0900785" lon="11.7929666"><ele>6.4</ele><time>2026-04-18T13:43:20.067Z</time></trkpt><trkpt lat="42.0900291" lon="11.7930592"><ele>6.8</ele><time>2026-04-18T13:43:22.063Z</time></trkpt><trkpt lat="42.0899736" lon="11.7931683"><ele>7.200000000000001</ele><time>2026-04-18T13:43:24.061Z</time></trkpt><trkpt lat="42.0899132" lon="11.7933016"><ele>7.6000000000000005</ele><time>2026-04-18T13:43:26.067Z</time></trkpt><trkpt lat="42.0898546" lon="11.7934289"><ele>8.0</ele><time>2026-04-18T13:43:28.06Z</time></trkpt><trkpt lat="42.089808" lon="11.7935264"><ele>7.166666666666666</ele><time>2026-04-18T13:43:30.071Z</time></trkpt><trkpt lat="42.0897528" lon="11.7936444"><ele>6.333333333333333</ele><time>2026-04-18T13:43:32.08Z</time></trkpt><trkpt lat="42.0896968" lon="11.7937554"><ele>5.5</ele><time>2026-04-18T13:43:34.065Z</time></trkpt><trkpt lat="42.0896562" lon="11.7938226"><ele>4.666666666666666</ele><time>2026-04-18T13:43:40.063Z</time></trkpt><trkpt lat="42.0896171" lon="11.7939183"><ele>3.833333333333333</ele><time>2026-04-18T13:43:42.062Z</time></trkpt><trkpt lat="42.0895795" lon="11.794035"><ele>3.0</ele><time>2026-04-18T13:43:44.073Z</time></trkpt><trkpt lat="42.0895163" lon="11.7941762"><ele>3.0</ele><time>2026-04-18T13:43:46.073Z</time></trkpt><trkpt lat="42.0894781" lon="11.7942607"><ele>3.0</ele><time>2026-04-18T13:43:47.067Z</time></trkpt><trkpt lat="42.089442" lon="11.7943399"><ele>3.0</ele><time>2026-04-18T13:43:48.076Z</time></trkpt><trkpt lat="42.0894048" lon="11.7944216"><ele>3.0</ele><time>2026-04-18T13:43:49.07Z</time></trkpt><trkpt lat="42.0893657" lon="11.7945087"><ele>3.0</ele><time>2026-04-18T13:43:50.075Z</time></trkpt><trkpt lat="42.0893203" lon="11.7946088"><ele>3.0</ele><time>2026-04-18T13:43:51.072Z</time></trkpt><trkpt lat="42.089267" lon="11.7947194"><ele>3.0</ele><time>2026-04-18T13:43:52.064Z</time></trkpt><trkpt lat="42.0892098" lon="11.794828"><ele>3.0</ele><time>2026-04-18T13:43:53.074Z</time></trkpt><trkpt lat="42.0891507" lon="11.7949429"><ele>3.0</ele><time>2026-04-18T13:43:54.067Z</time></trkpt><trkpt lat="42.0890928" lon="11.7950626"><ele>3.0</ele><time>2026-04-18T13:43:55.068Z</time></trkpt><trkpt lat="42.0890345" lon="11.7951848"><ele>3.0</ele><time>2026-04-18T13:43:56.06Z</time></trkpt><trkpt lat="42.088977" lon="11.7953084"><ele>3.0</ele><time>2026-04-18T13:43:57.07Z</time></trkpt><trkpt lat="42.0889217" lon="11.795433"><ele>3.0</ele><time>2026-04-18T13:43:58.063Z</time></trkpt><trkpt lat="42.0888781" lon="11.7955304"><ele>3.0</ele><time>2026-04-18T13:43:59.064Z</time></trkpt><trkpt lat="42.0888279" lon="11.7956433"><ele>3.0</ele><time>2026-04-18T13:44:01.06Z</time></trkpt><trkpt lat="42.0887823" lon="11.7957373"><ele>3.0</ele><time>2026-04-18T13:44:03.062Z</time></trkpt><trkpt lat="42.0887067" lon="11.795867"><ele>3.0</ele><time>2026-04-18T13:44:05.064Z</time></trkpt><trkpt lat="42.0886652" lon="11.7959498"><ele>3.0</ele><time>2026-04-18T13:44:06.07Z</time></trkpt><trkpt lat="42.08862" lon="11.796045"><ele>3.0</ele><time>2026-04-18T13:44:07.063Z</time></trkpt><trkpt lat="42.0885719" lon="11.7961474"><ele>3.0</ele><time>2026-04-18T13:44:08.073Z</time></trkpt><trkpt lat="42.0885212" lon="11.7962534"><ele>3.0</ele><time>2026-04-18T13:44:09.067Z</time></trkpt><trkpt lat="42.0884687" lon="11.7963602"><ele>3.0</ele><time>2026-04-18T13:44:10.071Z</time></trkpt><trkpt lat="42.0884155" lon="11.7964674"><ele>2.8333333333333335</ele><time>2026-04-18T13:44:11.073Z</time></trkpt><trkpt lat="42.0883641" lon="11.7965696"><ele>2.6666666666666665</ele><time>2026-04-18T13:44:12.069Z</time></trkpt><trkpt lat="42.0883175" lon="11.7966608"><ele>2.5</ele><time>2026-04-18T13:44:13.075Z</time></trkpt><trkpt lat="42.0882739" lon="11.7967292"><ele>2.333333333333333</ele><time>2026-04-18T13:44:14.055Z</time></trkpt><trkpt lat="42.0881793" lon="11.7967584"><ele>2.1666666666666665</ele><time>2026-04-18T13:44:16.073Z</time></trkpt><trkpt lat="42.0881286" lon="11.796681"><ele>2.0</ele><time>2026-04-18T13:44:18.086Z</time></trkpt><trkpt lat="42.0881335" lon="11.7965509"><ele>1.9999999999999998</ele><time>2026-04-18T13:44:20.067Z</time></trkpt><trkpt lat="42.0881637" lon="11.7964735"><ele>2.0</ele><time>2026-04-18T13:44:21.071Z</time></trkpt><trkpt lat="42.088194" lon="11.7963914"><ele>2.0</ele><time>2026-04-18T13:44:22.062Z</time></trkpt><trkpt lat="42.0882287" lon="11.7963021"><ele>2.0</ele><time>2026-04-18T13:44:23.076Z</time></trkpt><trkpt lat="42.0882661" lon="11.7962068"><ele>1.9999999999999998</ele><time>2026-04-18T13:44:24.071Z</time></trkpt><trkpt lat="42.0883031" lon="11.796103"><ele>2.0</ele><time>2026-04-18T13:44:25.072Z</time></trkpt><trkpt lat="42.0883373" lon="11.7960016"><ele>2.1666666666666665</ele><time>2026-04-18T13:44:26.076Z</time></trkpt><trkpt lat="42.0883669" lon="11.7959027"><ele>2.333333333333333</ele><time>2026-04-18T13:44:27.063Z</time></trkpt><trkpt lat="42.0883925" lon="11.7958081"><ele>2.5</ele><time>2026-04-18T13:44:28.066Z</time></trkpt><trkpt lat="42.0884139" lon="11.7957163"><ele>2.6666666666666665</ele><time>2026-04-18T13:44:29.077Z</time></trkpt><trkpt lat="42.0884312" lon="11.795628"><ele>2.8333333333333335</ele><time>2026-04-18T13:44:30.072Z</time></trkpt><trkpt lat="42.0884648" lon="11.7954719"><ele>3.0</ele><time>2026-04-18T13:44:32.067Z</time></trkpt><trkpt lat="42.0884841" lon="11.7953426"><ele>3.0</ele><time>2026-04-18T13:44:34.071Z</time></trkpt><trkpt lat="42.0885053" lon="11.7952331"><ele>3.0</ele><time>2026-04-18T13:44:36.063Z</time></trkpt><trkpt lat="42.0885543" lon="11.7951148"><ele>3.0</ele><time>2026-04-18T13:44:38.075Z</time></trkpt><trkpt lat="42.0886169" lon="11.7949847"><ele>3.0</ele><time>2026-04-18T13:44:40.062Z</time></trkpt><trkpt lat="42.0886745" lon="11.794867"><ele>3.0</ele><time>2026-04-18T13:44:42.063Z</time></trkpt><trkpt lat="42.0887303" lon="11.7947558"><ele>2.5</ele><time>2026-04-18T13:44:44.078Z</time></trkpt><trkpt lat="42.0887891" lon="11.794612"><ele>2.0</ele><time>2026-04-18T13:44:46.071Z</time></trkpt><trkpt lat="42.0888514" lon="11.7944781"><ele>1.5</ele><time>2026-04-18T13:44:48.06Z</time></trkpt><trkpt lat="42.0889133" lon="11.7943527"><ele>1.0</ele><time>2026-04-18T13:44:50.076Z</time></trkpt><trkpt lat="42.0889753" lon="11.7942128"><ele>0.8333333333333333</ele><time>2026-04-18T13:44:52.061Z</time></trkpt><trkpt lat="42.0890077" lon="11.7941395"><ele>0.6666666666666666</ele><time>2026-04-18T13:44:53.062Z</time></trkpt><trkpt lat="42.0890611" lon="11.7940063"><ele>0.5</ele><time>2026-04-18T13:44:55.07Z</time></trkpt><trkpt lat="42.0891039" lon="11.7939009"><ele>0.3333333333333333</ele><time>2026-04-18T13:44:58.072Z</time></trkpt><trkpt lat="42.0891502" lon="11.7937801"><ele>0.16666666666666666</ele><time>2026-04-18T13:45:01.073Z</time></trkpt><trkpt lat="42.0891943" lon="11.7936851"><ele>0.0</ele><time>2026-04-18T13:45:03.06Z</time></trkpt><trkpt lat="42.0892542" lon="11.7935946"><ele>0.3333333333333333</ele><time>2026-04-18T13:45:05.068Z</time></trkpt><trkpt lat="42.089315" lon="11.7934903"><ele>0.6666666666666666</ele><time>2026-04-18T13:45:07.071Z</time></trkpt><trkpt lat="42.0893791" lon="11.7933845"><ele>1.0</ele><time>2026-04-18T13:45:09.066Z</time></trkpt><trkpt lat="42.089423" lon="11.7932821"><ele>1.3333333333333333</ele><time>2026-04-18T13:45:11.064Z</time></trkpt><trkpt lat="42.0894126" lon="11.793182"><ele>1.6666666666666665</ele><time>2026-04-18T13:45:13.069Z</time></trkpt><trkpt lat="42.0894168" lon="11.7930916"><ele>2.0</ele><time>2026-04-18T13:45:15.072Z</time></trkpt><trkpt lat="42.0894627" lon="11.7930176"><ele>2.0</ele><time>2026-04-18T13:45:18.072Z</time></trkpt></trkseg></trk></gpx>